<?xml version="1.0" encoding="UTF-8"?>
<gpx version="1.1" creator="https://www.youtrack.es" xsi:schemaLocation="http://www.topografix.com/GPX/1/1 http://www.topografix.com/GPX/1/1/gpx.xsd http://www.garmin.com/xmlschemas/GpxExtensions/v3 http://www.garmin.com/xmlschemas/GpxExtensionsv3.xsd http://www.garmin.com/xmlschemas/TrackPointExtension/v1 http://www.garmin.com/xmlschemas/TrackPointExtensionv1.xsd" xmlns:gpxtpx="http://www.garmin.com/xmlschemas/TrackPointExtension/v1" xmlns:gpxx="http://www.garmin.com/xmlschemas/GpxExtensions/v3" xmlns:xsi="http://www.w3.org/2001/XMLSchema-instance">
  <metadata>
    <link href="https://www.youtrack.es">
      <text>YouTrack.es</text>
    </link>
    <time>2026-05-08T08:29:00Z</time>
  </metadata>
  <trk>
    <src>https://www.youtrack.es</src>
    <link href="https://www.youtrack.es/ruta/35582-camino-de-santiago">
      <text>YouTrack.es</text>
    </link>
    <trkseg>
      <trkpt lat="42.778616" lon="-7.410757">
        <ele>417.754</ele>
        <time>2022-08-20T07:41:04Z</time>
      </trkpt>
      <trkpt lat="42.778570" lon="-7.410794">
        <ele>421.556</ele>
        <time>2022-08-20T07:41:09Z</time>
      </trkpt>
      <trkpt lat="42.778521" lon="-7.410795">
        <ele>425.111</ele>
        <time>2022-08-20T07:41:14Z</time>
      </trkpt>
      <trkpt lat="42.778468" lon="-7.410826">
        <ele>425.109</ele>
        <time>2022-08-20T07:41:18Z</time>
      </trkpt>
      <trkpt lat="42.778413" lon="-7.410827">
        <ele>425.176</ele>
        <time>2022-08-20T07:41:22Z</time>
      </trkpt>
      <trkpt lat="42.778367" lon="-7.410809">
        <ele>425.136</ele>
        <time>2022-08-20T07:41:25Z</time>
      </trkpt>
      <trkpt lat="42.778313" lon="-7.410822">
        <ele>425.156</ele>
        <time>2022-08-20T07:41:30Z</time>
      </trkpt>
      <trkpt lat="42.778262" lon="-7.410855">
        <ele>425.017</ele>
        <time>2022-08-20T07:41:34Z</time>
      </trkpt>
      <trkpt lat="42.778204" lon="-7.410873">
        <ele>424.917</ele>
        <time>2022-08-20T07:41:38Z</time>
      </trkpt>
      <trkpt lat="42.778151" lon="-7.410880">
        <ele>424.720</ele>
        <time>2022-08-20T07:41:42Z</time>
      </trkpt>
      <trkpt lat="42.778105" lon="-7.410879">
        <ele>424.675</ele>
        <time>2022-08-20T07:41:46Z</time>
      </trkpt>
      <trkpt lat="42.778058" lon="-7.410863">
        <ele>424.535</ele>
        <time>2022-08-20T07:41:49Z</time>
      </trkpt>
      <trkpt lat="42.778008" lon="-7.410870">
        <ele>424.444</ele>
        <time>2022-08-20T07:41:53Z</time>
      </trkpt>
      <trkpt lat="42.777958" lon="-7.410872">
        <ele>424.358</ele>
        <time>2022-08-20T07:41:56Z</time>
      </trkpt>
      <trkpt lat="42.777923" lon="-7.410915">
        <ele>424.252</ele>
        <time>2022-08-20T07:42:01Z</time>
      </trkpt>
      <trkpt lat="42.777889" lon="-7.410981">
        <ele>424.217</ele>
        <time>2022-08-20T07:42:04Z</time>
      </trkpt>
      <trkpt lat="42.777846" lon="-7.411024">
        <ele>424.209</ele>
        <time>2022-08-20T07:42:08Z</time>
      </trkpt>
      <trkpt lat="42.777801" lon="-7.411062">
        <ele>424.136</ele>
        <time>2022-08-20T07:42:13Z</time>
      </trkpt>
      <trkpt lat="42.777751" lon="-7.411080">
        <ele>424.126</ele>
        <time>2022-08-20T07:42:16Z</time>
      </trkpt>
      <trkpt lat="42.777703" lon="-7.411096">
        <ele>424.156</ele>
        <time>2022-08-20T07:42:20Z</time>
      </trkpt>
      <trkpt lat="42.777661" lon="-7.411121">
        <ele>424.087</ele>
        <time>2022-08-20T07:42:24Z</time>
      </trkpt>
      <trkpt lat="42.777619" lon="-7.411145">
        <ele>424.087</ele>
        <time>2022-08-20T07:42:28Z</time>
      </trkpt>
      <trkpt lat="42.777564" lon="-7.411169">
        <ele>424.090</ele>
        <time>2022-08-20T07:42:32Z</time>
      </trkpt>
      <trkpt lat="42.777516" lon="-7.411178">
        <ele>424.015</ele>
        <time>2022-08-20T07:42:35Z</time>
      </trkpt>
      <trkpt lat="42.777462" lon="-7.411201">
        <ele>424.145</ele>
        <time>2022-08-20T07:42:39Z</time>
      </trkpt>
      <trkpt lat="42.777413" lon="-7.411208">
        <ele>424.194</ele>
        <time>2022-08-20T07:42:42Z</time>
      </trkpt>
      <trkpt lat="42.777366" lon="-7.411223">
        <ele>424.146</ele>
        <time>2022-08-20T07:42:47Z</time>
      </trkpt>
      <trkpt lat="42.777313" lon="-7.411240">
        <ele>424.188</ele>
        <time>2022-08-20T07:42:51Z</time>
      </trkpt>
      <trkpt lat="42.777265" lon="-7.411263">
        <ele>424.116</ele>
        <time>2022-08-20T07:42:55Z</time>
      </trkpt>
      <trkpt lat="42.777224" lon="-7.411298">
        <ele>424.109</ele>
        <time>2022-08-20T07:43:00Z</time>
      </trkpt>
      <trkpt lat="42.777169" lon="-7.411319">
        <ele>424.135</ele>
        <time>2022-08-20T07:43:04Z</time>
      </trkpt>
      <trkpt lat="42.777118" lon="-7.411346">
        <ele>424.145</ele>
        <time>2022-08-20T07:43:08Z</time>
      </trkpt>
      <trkpt lat="42.777067" lon="-7.411364">
        <ele>424.395</ele>
        <time>2022-08-20T07:43:12Z</time>
      </trkpt>
      <trkpt lat="42.777021" lon="-7.411398">
        <ele>424.516</ele>
        <time>2022-08-20T07:43:15Z</time>
      </trkpt>
      <trkpt lat="42.776966" lon="-7.411438">
        <ele>424.596</ele>
        <time>2022-08-20T07:43:19Z</time>
      </trkpt>
      <trkpt lat="42.776920" lon="-7.411473">
        <ele>424.529</ele>
        <time>2022-08-20T07:43:23Z</time>
      </trkpt>
      <trkpt lat="42.776860" lon="-7.411481">
        <ele>424.524</ele>
        <time>2022-08-20T07:43:27Z</time>
      </trkpt>
      <trkpt lat="42.776814" lon="-7.411503">
        <ele>424.584</ele>
        <time>2022-08-20T07:43:32Z</time>
      </trkpt>
      <trkpt lat="42.776761" lon="-7.411511">
        <ele>424.593</ele>
        <time>2022-08-20T07:43:36Z</time>
      </trkpt>
      <trkpt lat="42.776705" lon="-7.411514">
        <ele>424.491</ele>
        <time>2022-08-20T07:43:42Z</time>
      </trkpt>
      <trkpt lat="42.776668" lon="-7.411548">
        <ele>424.481</ele>
        <time>2022-08-20T07:43:47Z</time>
      </trkpt>
      <trkpt lat="42.776628" lon="-7.411589">
        <ele>424.419</ele>
        <time>2022-08-20T07:43:50Z</time>
      </trkpt>
      <trkpt lat="42.776588" lon="-7.411619">
        <ele>424.409</ele>
        <time>2022-08-20T07:43:53Z</time>
      </trkpt>
      <trkpt lat="42.776543" lon="-7.411653">
        <ele>424.460</ele>
        <time>2022-08-20T07:43:56Z</time>
      </trkpt>
      <trkpt lat="42.776497" lon="-7.411674">
        <ele>424.410</ele>
        <time>2022-08-20T07:43:59Z</time>
      </trkpt>
      <trkpt lat="42.776454" lon="-7.411709">
        <ele>424.520</ele>
        <time>2022-08-20T07:44:03Z</time>
      </trkpt>
      <trkpt lat="42.776413" lon="-7.411736">
        <ele>424.631</ele>
        <time>2022-08-20T07:44:07Z</time>
      </trkpt>
      <trkpt lat="42.776365" lon="-7.411773">
        <ele>424.721</ele>
        <time>2022-08-20T07:44:11Z</time>
      </trkpt>
      <trkpt lat="42.776312" lon="-7.411802">
        <ele>424.854</ele>
        <time>2022-08-20T07:44:15Z</time>
      </trkpt>
      <trkpt lat="42.776270" lon="-7.411851">
        <ele>424.879</ele>
        <time>2022-08-20T07:44:18Z</time>
      </trkpt>
      <trkpt lat="42.776223" lon="-7.411895">
        <ele>424.979</ele>
        <time>2022-08-20T07:44:22Z</time>
      </trkpt>
      <trkpt lat="42.776182" lon="-7.411938">
        <ele>425.098</ele>
        <time>2022-08-20T07:44:26Z</time>
      </trkpt>
      <trkpt lat="42.776148" lon="-7.411996">
        <ele>425.264</ele>
        <time>2022-08-20T07:44:30Z</time>
      </trkpt>
      <trkpt lat="42.776121" lon="-7.412056">
        <ele>425.406</ele>
        <time>2022-08-20T07:44:34Z</time>
      </trkpt>
      <trkpt lat="42.776082" lon="-7.412102">
        <ele>425.516</ele>
        <time>2022-08-20T07:44:40Z</time>
      </trkpt>
      <trkpt lat="42.776085" lon="-7.412173">
        <ele>425.609</ele>
        <time>2022-08-20T07:44:44Z</time>
      </trkpt>
      <trkpt lat="42.776086" lon="-7.412237">
        <ele>426.587</ele>
        <time>2022-08-20T07:44:48Z</time>
      </trkpt>
      <trkpt lat="42.776132" lon="-7.412144">
        <ele>427.877</ele>
        <time>2022-08-20T07:44:59Z</time>
      </trkpt>
      <trkpt lat="42.776152" lon="-7.412200">
        <ele>428.017</ele>
        <time>2022-08-20T07:45:02Z</time>
      </trkpt>
      <trkpt lat="42.776186" lon="-7.412249">
        <ele>428.328</ele>
        <time>2022-08-20T07:45:05Z</time>
      </trkpt>
      <trkpt lat="42.776220" lon="-7.412309">
        <ele>428.458</ele>
        <time>2022-08-20T07:45:09Z</time>
      </trkpt>
      <trkpt lat="42.776260" lon="-7.412369">
        <ele>428.681</ele>
        <time>2022-08-20T07:45:13Z</time>
      </trkpt>
      <trkpt lat="42.776292" lon="-7.412426">
        <ele>428.676</ele>
        <time>2022-08-20T07:45:17Z</time>
      </trkpt>
      <trkpt lat="42.776315" lon="-7.412488">
        <ele>428.846</ele>
        <time>2022-08-20T07:45:21Z</time>
      </trkpt>
      <trkpt lat="42.776329" lon="-7.412559">
        <ele>429.195</ele>
        <time>2022-08-20T07:45:25Z</time>
      </trkpt>
      <trkpt lat="42.776354" lon="-7.412617">
        <ele>429.288</ele>
        <time>2022-08-20T07:45:29Z</time>
      </trkpt>
      <trkpt lat="42.776382" lon="-7.412691">
        <ele>429.624</ele>
        <time>2022-08-20T07:45:33Z</time>
      </trkpt>
      <trkpt lat="42.776417" lon="-7.412757">
        <ele>430.226</ele>
        <time>2022-08-20T07:45:37Z</time>
      </trkpt>
      <trkpt lat="42.776458" lon="-7.412791">
        <ele>430.309</ele>
        <time>2022-08-20T07:45:41Z</time>
      </trkpt>
      <trkpt lat="42.776518" lon="-7.412777">
        <ele>430.569</ele>
        <time>2022-08-20T07:45:45Z</time>
      </trkpt>
      <trkpt lat="42.776564" lon="-7.412767">
        <ele>430.739</ele>
        <time>2022-08-20T07:45:49Z</time>
      </trkpt>
      <trkpt lat="42.776613" lon="-7.412759">
        <ele>430.829</ele>
        <time>2022-08-20T07:45:53Z</time>
      </trkpt>
      <trkpt lat="42.776663" lon="-7.412768">
        <ele>431.170</ele>
        <time>2022-08-20T07:45:58Z</time>
      </trkpt>
      <trkpt lat="42.776708" lon="-7.412738">
        <ele>431.310</ele>
        <time>2022-08-20T07:46:00Z</time>
      </trkpt>
      <trkpt lat="42.776762" lon="-7.412763">
        <ele>431.473</ele>
        <time>2022-08-20T07:46:03Z</time>
      </trkpt>
      <trkpt lat="42.776822" lon="-7.412801">
        <ele>431.658</ele>
        <time>2022-08-20T07:46:07Z</time>
      </trkpt>
      <trkpt lat="42.776873" lon="-7.412812">
        <ele>431.718</ele>
        <time>2022-08-20T07:46:12Z</time>
      </trkpt>
      <trkpt lat="42.776931" lon="-7.412800">
        <ele>431.717</ele>
        <time>2022-08-20T07:46:19Z</time>
      </trkpt>
      <trkpt lat="42.776973" lon="-7.412768">
        <ele>431.871</ele>
        <time>2022-08-20T07:46:22Z</time>
      </trkpt>
      <trkpt lat="42.777033" lon="-7.412761">
        <ele>432.541</ele>
        <time>2022-08-20T07:46:25Z</time>
      </trkpt>
      <trkpt lat="42.777082" lon="-7.412750">
        <ele>432.715</ele>
        <time>2022-08-20T07:46:28Z</time>
      </trkpt>
      <trkpt lat="42.777142" lon="-7.412726">
        <ele>433.309</ele>
        <time>2022-08-20T07:46:31Z</time>
      </trkpt>
      <trkpt lat="42.777174" lon="-7.412781">
        <ele>433.718</ele>
        <time>2022-08-20T07:46:35Z</time>
      </trkpt>
      <trkpt lat="42.777153" lon="-7.412850">
        <ele>434.128</ele>
        <time>2022-08-20T07:46:38Z</time>
      </trkpt>
      <trkpt lat="42.777172" lon="-7.412909">
        <ele>434.388</ele>
        <time>2022-08-20T07:46:43Z</time>
      </trkpt>
      <trkpt lat="42.777212" lon="-7.412951">
        <ele>434.629</ele>
        <time>2022-08-20T07:46:47Z</time>
      </trkpt>
      <trkpt lat="42.777226" lon="-7.413017">
        <ele>435.239</ele>
        <time>2022-08-20T07:46:52Z</time>
      </trkpt>
      <trkpt lat="42.777250" lon="-7.413079">
        <ele>436.042</ele>
        <time>2022-08-20T07:46:56Z</time>
      </trkpt>
      <trkpt lat="42.777231" lon="-7.413143">
        <ele>436.877</ele>
        <time>2022-08-20T07:46:59Z</time>
      </trkpt>
      <trkpt lat="42.777213" lon="-7.413201">
        <ele>437.797</ele>
        <time>2022-08-20T07:47:02Z</time>
      </trkpt>
      <trkpt lat="42.777210" lon="-7.413264">
        <ele>438.456</ele>
        <time>2022-08-20T07:47:05Z</time>
      </trkpt>
      <trkpt lat="42.777201" lon="-7.413331">
        <ele>439.043</ele>
        <time>2022-08-20T07:47:10Z</time>
      </trkpt>
      <trkpt lat="42.777198" lon="-7.413392">
        <ele>439.764</ele>
        <time>2022-08-20T07:47:14Z</time>
      </trkpt>
      <trkpt lat="42.777198" lon="-7.413462">
        <ele>440.410</ele>
        <time>2022-08-20T07:47:19Z</time>
      </trkpt>
      <trkpt lat="42.777200" lon="-7.413525">
        <ele>441.109</ele>
        <time>2022-08-20T07:47:26Z</time>
      </trkpt>
      <trkpt lat="42.777196" lon="-7.413598">
        <ele>441.965</ele>
        <time>2022-08-20T07:47:30Z</time>
      </trkpt>
      <trkpt lat="42.777205" lon="-7.413674">
        <ele>442.935</ele>
        <time>2022-08-20T07:47:38Z</time>
      </trkpt>
      <trkpt lat="42.777229" lon="-7.413742">
        <ele>443.965</ele>
        <time>2022-08-20T07:47:47Z</time>
      </trkpt>
      <trkpt lat="42.777277" lon="-7.413773">
        <ele>445.096</ele>
        <time>2022-08-20T07:47:52Z</time>
      </trkpt>
      <trkpt lat="42.777259" lon="-7.413838">
        <ele>448.096</ele>
        <time>2022-08-20T07:47:55Z</time>
      </trkpt>
      <trkpt lat="42.777219" lon="-7.413887">
        <ele>449.759</ele>
        <time>2022-08-20T07:48:01Z</time>
      </trkpt>
      <trkpt lat="42.777223" lon="-7.413949">
        <ele>450.074</ele>
        <time>2022-08-20T07:48:07Z</time>
      </trkpt>
      <trkpt lat="42.777237" lon="-7.414023">
        <ele>450.624</ele>
        <time>2022-08-20T07:48:11Z</time>
      </trkpt>
      <trkpt lat="42.777249" lon="-7.414093">
        <ele>451.363</ele>
        <time>2022-08-20T07:48:15Z</time>
      </trkpt>
      <trkpt lat="42.777282" lon="-7.414149">
        <ele>452.071</ele>
        <time>2022-08-20T07:48:19Z</time>
      </trkpt>
      <trkpt lat="42.777311" lon="-7.414202">
        <ele>452.741</ele>
        <time>2022-08-20T07:48:23Z</time>
      </trkpt>
      <trkpt lat="42.777333" lon="-7.414262">
        <ele>453.415</ele>
        <time>2022-08-20T07:48:27Z</time>
      </trkpt>
      <trkpt lat="42.777353" lon="-7.414343">
        <ele>454.109</ele>
        <time>2022-08-20T07:48:31Z</time>
      </trkpt>
      <trkpt lat="42.777371" lon="-7.414406">
        <ele>454.798</ele>
        <time>2022-08-20T07:48:36Z</time>
      </trkpt>
      <trkpt lat="42.777392" lon="-7.414470">
        <ele>455.298</ele>
        <time>2022-08-20T07:48:40Z</time>
      </trkpt>
      <trkpt lat="42.777403" lon="-7.414533">
        <ele>455.858</ele>
        <time>2022-08-20T07:48:44Z</time>
      </trkpt>
      <trkpt lat="42.777431" lon="-7.414582">
        <ele>456.369</ele>
        <time>2022-08-20T07:48:49Z</time>
      </trkpt>
      <trkpt lat="42.777457" lon="-7.414642">
        <ele>456.749</ele>
        <time>2022-08-20T07:48:53Z</time>
      </trkpt>
      <trkpt lat="42.777463" lon="-7.414713">
        <ele>457.172</ele>
        <time>2022-08-20T07:48:58Z</time>
      </trkpt>
      <trkpt lat="42.777471" lon="-7.414794">
        <ele>457.517</ele>
        <time>2022-08-20T07:49:02Z</time>
      </trkpt>
      <trkpt lat="42.777465" lon="-7.414883">
        <ele>458.157</ele>
        <time>2022-08-20T07:49:07Z</time>
      </trkpt>
      <trkpt lat="42.777470" lon="-7.414946">
        <ele>458.426</ele>
        <time>2022-08-20T07:49:11Z</time>
      </trkpt>
      <trkpt lat="42.777477" lon="-7.415014">
        <ele>458.811</ele>
        <time>2022-08-20T07:49:15Z</time>
      </trkpt>
      <trkpt lat="42.777494" lon="-7.415080">
        <ele>459.121</ele>
        <time>2022-08-20T07:49:19Z</time>
      </trkpt>
      <trkpt lat="42.777491" lon="-7.415142">
        <ele>459.303</ele>
        <time>2022-08-20T07:49:22Z</time>
      </trkpt>
      <trkpt lat="42.777474" lon="-7.415205">
        <ele>459.709</ele>
        <time>2022-08-20T07:49:25Z</time>
      </trkpt>
      <trkpt lat="42.777471" lon="-7.415268">
        <ele>460.052</ele>
        <time>2022-08-20T07:49:30Z</time>
      </trkpt>
      <trkpt lat="42.777480" lon="-7.415343">
        <ele>460.342</ele>
        <time>2022-08-20T07:49:34Z</time>
      </trkpt>
      <trkpt lat="42.777493" lon="-7.415402">
        <ele>460.752</ele>
        <time>2022-08-20T07:49:37Z</time>
      </trkpt>
      <trkpt lat="42.777505" lon="-7.415469">
        <ele>461.133</ele>
        <time>2022-08-20T07:49:42Z</time>
      </trkpt>
      <trkpt lat="42.777493" lon="-7.415548">
        <ele>461.483</ele>
        <time>2022-08-20T07:49:46Z</time>
      </trkpt>
      <trkpt lat="42.777478" lon="-7.415613">
        <ele>461.716</ele>
        <time>2022-08-20T07:49:50Z</time>
      </trkpt>
      <trkpt lat="42.777468" lon="-7.415674">
        <ele>462.181</ele>
        <time>2022-08-20T07:49:54Z</time>
      </trkpt>
      <trkpt lat="42.777457" lon="-7.415742">
        <ele>462.481</ele>
        <time>2022-08-20T07:50:00Z</time>
      </trkpt>
      <trkpt lat="42.777446" lon="-7.415816">
        <ele>462.760</ele>
        <time>2022-08-20T07:50:06Z</time>
      </trkpt>
      <trkpt lat="42.777420" lon="-7.415874">
        <ele>463.093</ele>
        <time>2022-08-20T07:50:09Z</time>
      </trkpt>
      <trkpt lat="42.777386" lon="-7.415940">
        <ele>463.265</ele>
        <time>2022-08-20T07:50:14Z</time>
      </trkpt>
      <trkpt lat="42.777354" lon="-7.415987">
        <ele>463.321</ele>
        <time>2022-08-20T07:50:18Z</time>
      </trkpt>
      <trkpt lat="42.777340" lon="-7.416059">
        <ele>463.409</ele>
        <time>2022-08-20T07:50:23Z</time>
      </trkpt>
      <trkpt lat="42.777336" lon="-7.416132">
        <ele>463.550</ele>
        <time>2022-08-20T07:50:30Z</time>
      </trkpt>
      <trkpt lat="42.777298" lon="-7.416195">
        <ele>463.850</ele>
        <time>2022-08-20T07:50:34Z</time>
      </trkpt>
      <trkpt lat="42.777295" lon="-7.416266">
        <ele>463.870</ele>
        <time>2022-08-20T07:50:38Z</time>
      </trkpt>
      <trkpt lat="42.777279" lon="-7.416325">
        <ele>463.951</ele>
        <time>2022-08-20T07:50:41Z</time>
      </trkpt>
      <trkpt lat="42.777240" lon="-7.416385">
        <ele>464.081</ele>
        <time>2022-08-20T07:50:43Z</time>
      </trkpt>
      <trkpt lat="42.777213" lon="-7.416435">
        <ele>464.044</ele>
        <time>2022-08-20T07:50:45Z</time>
      </trkpt>
      <trkpt lat="42.777191" lon="-7.416498">
        <ele>464.029</ele>
        <time>2022-08-20T07:50:48Z</time>
      </trkpt>
      <trkpt lat="42.777177" lon="-7.416558">
        <ele>464.079</ele>
        <time>2022-08-20T07:50:52Z</time>
      </trkpt>
      <trkpt lat="42.777170" lon="-7.416623">
        <ele>464.078</ele>
        <time>2022-08-20T07:50:58Z</time>
      </trkpt>
      <trkpt lat="42.777141" lon="-7.416670">
        <ele>464.142</ele>
        <time>2022-08-20T07:51:02Z</time>
      </trkpt>
      <trkpt lat="42.777100" lon="-7.416699">
        <ele>464.222</ele>
        <time>2022-08-20T07:51:05Z</time>
      </trkpt>
      <trkpt lat="42.777076" lon="-7.416765">
        <ele>464.314</ele>
        <time>2022-08-20T07:51:10Z</time>
      </trkpt>
      <trkpt lat="42.777053" lon="-7.416823">
        <ele>464.409</ele>
        <time>2022-08-20T07:51:15Z</time>
      </trkpt>
      <trkpt lat="42.777053" lon="-7.416889">
        <ele>464.665</ele>
        <time>2022-08-20T07:51:21Z</time>
      </trkpt>
      <trkpt lat="42.777044" lon="-7.416964">
        <ele>464.995</ele>
        <time>2022-08-20T07:51:26Z</time>
      </trkpt>
      <trkpt lat="42.777018" lon="-7.417026">
        <ele>465.475</ele>
        <time>2022-08-20T07:51:32Z</time>
      </trkpt>
      <trkpt lat="42.776983" lon="-7.417084">
        <ele>466.236</ele>
        <time>2022-08-20T07:51:35Z</time>
      </trkpt>
      <trkpt lat="42.776961" lon="-7.417139">
        <ele>467.036</ele>
        <time>2022-08-20T07:51:39Z</time>
      </trkpt>
      <trkpt lat="42.776939" lon="-7.417219">
        <ele>467.559</ele>
        <time>2022-08-20T07:51:44Z</time>
      </trkpt>
      <trkpt lat="42.776920" lon="-7.417292">
        <ele>467.984</ele>
        <time>2022-08-20T07:51:48Z</time>
      </trkpt>
      <trkpt lat="42.776909" lon="-7.417356">
        <ele>468.264</ele>
        <time>2022-08-20T07:51:51Z</time>
      </trkpt>
      <trkpt lat="42.776903" lon="-7.417422">
        <ele>468.863</ele>
        <time>2022-08-20T07:51:56Z</time>
      </trkpt>
      <trkpt lat="42.776892" lon="-7.417491">
        <ele>469.491</ele>
        <time>2022-08-20T07:52:00Z</time>
      </trkpt>
      <trkpt lat="42.776901" lon="-7.417558">
        <ele>470.181</ele>
        <time>2022-08-20T07:52:05Z</time>
      </trkpt>
      <trkpt lat="42.776941" lon="-7.417601">
        <ele>470.819</ele>
        <time>2022-08-20T07:52:10Z</time>
      </trkpt>
      <trkpt lat="42.776996" lon="-7.417623">
        <ele>471.509</ele>
        <time>2022-08-20T07:52:16Z</time>
      </trkpt>
      <trkpt lat="42.777052" lon="-7.417640">
        <ele>472.290</ele>
        <time>2022-08-20T07:52:21Z</time>
      </trkpt>
      <trkpt lat="42.777098" lon="-7.417651">
        <ele>472.920</ele>
        <time>2022-08-20T07:52:25Z</time>
      </trkpt>
      <trkpt lat="42.777151" lon="-7.417658">
        <ele>473.730</ele>
        <time>2022-08-20T07:52:30Z</time>
      </trkpt>
      <trkpt lat="42.777199" lon="-7.417692">
        <ele>474.451</ele>
        <time>2022-08-20T07:52:35Z</time>
      </trkpt>
      <trkpt lat="42.777255" lon="-7.417710">
        <ele>475.111</ele>
        <time>2022-08-20T07:52:39Z</time>
      </trkpt>
      <trkpt lat="42.777303" lon="-7.417734">
        <ele>475.874</ele>
        <time>2022-08-20T07:52:43Z</time>
      </trkpt>
      <trkpt lat="42.777355" lon="-7.417770">
        <ele>476.679</ele>
        <time>2022-08-20T07:52:48Z</time>
      </trkpt>
      <trkpt lat="42.777404" lon="-7.417811">
        <ele>476.969</ele>
        <time>2022-08-20T07:52:53Z</time>
      </trkpt>
      <trkpt lat="42.777444" lon="-7.417859">
        <ele>477.188</ele>
        <time>2022-08-20T07:52:57Z</time>
      </trkpt>
      <trkpt lat="42.777480" lon="-7.417907">
        <ele>477.572</ele>
        <time>2022-08-20T07:53:01Z</time>
      </trkpt>
      <trkpt lat="42.777499" lon="-7.417975">
        <ele>477.713</ele>
        <time>2022-08-20T07:53:05Z</time>
      </trkpt>
      <trkpt lat="42.777520" lon="-7.418039">
        <ele>477.814</ele>
        <time>2022-08-20T07:53:14Z</time>
      </trkpt>
      <trkpt lat="42.777548" lon="-7.418097">
        <ele>478.109</ele>
        <time>2022-08-20T07:53:19Z</time>
      </trkpt>
      <trkpt lat="42.777594" lon="-7.418148">
        <ele>478.518</ele>
        <time>2022-08-20T07:53:23Z</time>
      </trkpt>
      <trkpt lat="42.777625" lon="-7.418195">
        <ele>478.958</ele>
        <time>2022-08-20T07:53:26Z</time>
      </trkpt>
      <trkpt lat="42.777649" lon="-7.418256">
        <ele>479.378</ele>
        <time>2022-08-20T07:53:31Z</time>
      </trkpt>
      <trkpt lat="42.777676" lon="-7.418310">
        <ele>479.779</ele>
        <time>2022-08-20T07:53:35Z</time>
      </trkpt>
      <trkpt lat="42.777698" lon="-7.418364">
        <ele>480.049</ele>
        <time>2022-08-20T07:53:39Z</time>
      </trkpt>
      <trkpt lat="42.777713" lon="-7.418429">
        <ele>480.462</ele>
        <time>2022-08-20T07:53:44Z</time>
      </trkpt>
      <trkpt lat="42.777726" lon="-7.418501">
        <ele>480.877</ele>
        <time>2022-08-20T07:53:49Z</time>
      </trkpt>
      <trkpt lat="42.777734" lon="-7.418563">
        <ele>481.367</ele>
        <time>2022-08-20T07:53:53Z</time>
      </trkpt>
      <trkpt lat="42.777751" lon="-7.418628">
        <ele>481.926</ele>
        <time>2022-08-20T07:53:57Z</time>
      </trkpt>
      <trkpt lat="42.777760" lon="-7.418702">
        <ele>482.425</ele>
        <time>2022-08-20T07:54:01Z</time>
      </trkpt>
      <trkpt lat="42.777783" lon="-7.418762">
        <ele>482.926</ele>
        <time>2022-08-20T07:54:05Z</time>
      </trkpt>
      <trkpt lat="42.777790" lon="-7.418826">
        <ele>483.408</ele>
        <time>2022-08-20T07:54:09Z</time>
      </trkpt>
      <trkpt lat="42.777799" lon="-7.418888">
        <ele>483.809</ele>
        <time>2022-08-20T07:54:13Z</time>
      </trkpt>
      <trkpt lat="42.777806" lon="-7.418963">
        <ele>484.233</ele>
        <time>2022-08-20T07:54:17Z</time>
      </trkpt>
      <trkpt lat="42.777809" lon="-7.419026">
        <ele>484.693</ele>
        <time>2022-08-20T07:54:21Z</time>
      </trkpt>
      <trkpt lat="42.777821" lon="-7.419095">
        <ele>485.083</ele>
        <time>2022-08-20T07:54:25Z</time>
      </trkpt>
      <trkpt lat="42.777835" lon="-7.419164">
        <ele>485.364</ele>
        <time>2022-08-20T07:54:29Z</time>
      </trkpt>
      <trkpt lat="42.777852" lon="-7.419234">
        <ele>485.614</ele>
        <time>2022-08-20T07:54:33Z</time>
      </trkpt>
      <trkpt lat="42.777866" lon="-7.419303">
        <ele>485.887</ele>
        <time>2022-08-20T07:54:37Z</time>
      </trkpt>
      <trkpt lat="42.777869" lon="-7.419369">
        <ele>486.052</ele>
        <time>2022-08-20T07:54:41Z</time>
      </trkpt>
      <trkpt lat="42.777883" lon="-7.419439">
        <ele>486.262</ele>
        <time>2022-08-20T07:54:45Z</time>
      </trkpt>
      <trkpt lat="42.777899" lon="-7.419521">
        <ele>486.451</ele>
        <time>2022-08-20T07:54:49Z</time>
      </trkpt>
      <trkpt lat="42.777919" lon="-7.419594">
        <ele>486.595</ele>
        <time>2022-08-20T07:54:54Z</time>
      </trkpt>
      <trkpt lat="42.777925" lon="-7.419657">
        <ele>486.549</ele>
        <time>2022-08-20T07:54:58Z</time>
      </trkpt>
      <trkpt lat="42.777922" lon="-7.419719">
        <ele>486.623</ele>
        <time>2022-08-20T07:55:02Z</time>
      </trkpt>
      <trkpt lat="42.777933" lon="-7.419780">
        <ele>486.609</ele>
        <time>2022-08-20T07:55:06Z</time>
      </trkpt>
      <trkpt lat="42.777955" lon="-7.419835">
        <ele>486.650</ele>
        <time>2022-08-20T07:55:10Z</time>
      </trkpt>
      <trkpt lat="42.777985" lon="-7.419887">
        <ele>486.690</ele>
        <time>2022-08-20T07:55:14Z</time>
      </trkpt>
      <trkpt lat="42.778019" lon="-7.419960">
        <ele>486.560</ele>
        <time>2022-08-20T07:55:19Z</time>
      </trkpt>
      <trkpt lat="42.778037" lon="-7.420029">
        <ele>486.441</ele>
        <time>2022-08-20T07:55:23Z</time>
      </trkpt>
      <trkpt lat="42.778064" lon="-7.420079">
        <ele>486.251</ele>
        <time>2022-08-20T07:55:27Z</time>
      </trkpt>
      <trkpt lat="42.778093" lon="-7.420132">
        <ele>486.014</ele>
        <time>2022-08-20T07:55:31Z</time>
      </trkpt>
      <trkpt lat="42.778126" lon="-7.420176">
        <ele>485.839</ele>
        <time>2022-08-20T07:55:35Z</time>
      </trkpt>
      <trkpt lat="42.778156" lon="-7.420233">
        <ele>485.499</ele>
        <time>2022-08-20T07:55:39Z</time>
      </trkpt>
      <trkpt lat="42.778195" lon="-7.420288">
        <ele>484.988</ele>
        <time>2022-08-20T07:55:43Z</time>
      </trkpt>
      <trkpt lat="42.778232" lon="-7.420341">
        <ele>484.478</ele>
        <time>2022-08-20T07:55:47Z</time>
      </trkpt>
      <trkpt lat="42.778266" lon="-7.420401">
        <ele>483.933</ele>
        <time>2022-08-20T07:55:51Z</time>
      </trkpt>
      <trkpt lat="42.778297" lon="-7.420452">
        <ele>483.426</ele>
        <time>2022-08-20T07:55:55Z</time>
      </trkpt>
      <trkpt lat="42.778338" lon="-7.420491">
        <ele>482.809</ele>
        <time>2022-08-20T07:55:59Z</time>
      </trkpt>
      <trkpt lat="42.778377" lon="-7.420537">
        <ele>482.238</ele>
        <time>2022-08-20T07:56:03Z</time>
      </trkpt>
      <trkpt lat="42.778413" lon="-7.420594">
        <ele>481.728</ele>
        <time>2022-08-20T07:56:07Z</time>
      </trkpt>
      <trkpt lat="42.778439" lon="-7.420661">
        <ele>481.388</ele>
        <time>2022-08-20T07:56:11Z</time>
      </trkpt>
      <trkpt lat="42.778478" lon="-7.420703">
        <ele>480.939</ele>
        <time>2022-08-20T07:56:15Z</time>
      </trkpt>
      <trkpt lat="42.778516" lon="-7.420758">
        <ele>480.629</ele>
        <time>2022-08-20T07:56:19Z</time>
      </trkpt>
      <trkpt lat="42.778539" lon="-7.420818">
        <ele>480.362</ele>
        <time>2022-08-20T07:56:24Z</time>
      </trkpt>
      <trkpt lat="42.778556" lon="-7.420882">
        <ele>480.027</ele>
        <time>2022-08-20T07:56:28Z</time>
      </trkpt>
      <trkpt lat="42.778595" lon="-7.420919">
        <ele>479.647</ele>
        <time>2022-08-20T07:56:43Z</time>
      </trkpt>
      <trkpt lat="42.778542" lon="-7.420915">
        <ele>479.386</ele>
        <time>2022-08-20T07:56:58Z</time>
      </trkpt>
      <trkpt lat="42.778481" lon="-7.420909">
        <ele>479.034</ele>
        <time>2022-08-20T07:57:03Z</time>
      </trkpt>
      <trkpt lat="42.778429" lon="-7.420925">
        <ele>478.755</ele>
        <time>2022-08-20T07:57:08Z</time>
      </trkpt>
      <trkpt lat="42.778384" lon="-7.420956">
        <ele>478.610</ele>
        <time>2022-08-20T07:57:12Z</time>
      </trkpt>
      <trkpt lat="42.778337" lon="-7.420985">
        <ele>478.509</ele>
        <time>2022-08-20T07:57:15Z</time>
      </trkpt>
      <trkpt lat="42.778299" lon="-7.421029">
        <ele>478.394</ele>
        <time>2022-08-20T07:57:18Z</time>
      </trkpt>
      <trkpt lat="42.778249" lon="-7.421056">
        <ele>478.144</ele>
        <time>2022-08-20T07:57:22Z</time>
      </trkpt>
      <trkpt lat="42.778200" lon="-7.421091">
        <ele>477.844</ele>
        <time>2022-08-20T07:57:26Z</time>
      </trkpt>
      <trkpt lat="42.778155" lon="-7.421129">
        <ele>477.435</ele>
        <time>2022-08-20T07:57:30Z</time>
      </trkpt>
      <trkpt lat="42.778113" lon="-7.421174">
        <ele>477.055</ele>
        <time>2022-08-20T07:57:34Z</time>
      </trkpt>
      <trkpt lat="42.778071" lon="-7.421217">
        <ele>476.638</ele>
        <time>2022-08-20T07:57:38Z</time>
      </trkpt>
      <trkpt lat="42.778026" lon="-7.421245">
        <ele>476.153</ele>
        <time>2022-08-20T07:57:42Z</time>
      </trkpt>
      <trkpt lat="42.777978" lon="-7.421284">
        <ele>475.573</ele>
        <time>2022-08-20T07:57:46Z</time>
      </trkpt>
      <trkpt lat="42.777931" lon="-7.421324">
        <ele>474.932</ele>
        <time>2022-08-20T07:57:50Z</time>
      </trkpt>
      <trkpt lat="42.777885" lon="-7.421364">
        <ele>474.332</ele>
        <time>2022-08-20T07:57:54Z</time>
      </trkpt>
      <trkpt lat="42.777840" lon="-7.421414">
        <ele>473.492</ele>
        <time>2022-08-20T07:57:58Z</time>
      </trkpt>
      <trkpt lat="42.777792" lon="-7.421458">
        <ele>472.811</ele>
        <time>2022-08-20T07:58:02Z</time>
      </trkpt>
      <trkpt lat="42.777745" lon="-7.421492">
        <ele>472.109</ele>
        <time>2022-08-20T07:58:06Z</time>
      </trkpt>
      <trkpt lat="42.777700" lon="-7.421531">
        <ele>471.484</ele>
        <time>2022-08-20T07:58:10Z</time>
      </trkpt>
      <trkpt lat="42.777651" lon="-7.421574">
        <ele>470.694</ele>
        <time>2022-08-20T07:58:14Z</time>
      </trkpt>
      <trkpt lat="42.777599" lon="-7.421603">
        <ele>469.674</ele>
        <time>2022-08-20T07:58:18Z</time>
      </trkpt>
      <trkpt lat="42.777547" lon="-7.421629">
        <ele>468.575</ele>
        <time>2022-08-20T07:58:22Z</time>
      </trkpt>
      <trkpt lat="42.777508" lon="-7.421662">
        <ele>468.025</ele>
        <time>2022-08-20T07:58:25Z</time>
      </trkpt>
      <trkpt lat="42.777464" lon="-7.421696">
        <ele>467.088</ele>
        <time>2022-08-20T07:58:29Z</time>
      </trkpt>
      <trkpt lat="42.777421" lon="-7.421740">
        <ele>466.123</ele>
        <time>2022-08-20T07:58:33Z</time>
      </trkpt>
      <trkpt lat="42.777371" lon="-7.421773">
        <ele>465.323</ele>
        <time>2022-08-20T07:58:37Z</time>
      </trkpt>
      <trkpt lat="42.777327" lon="-7.421815">
        <ele>464.312</ele>
        <time>2022-08-20T07:58:41Z</time>
      </trkpt>
      <trkpt lat="42.777282" lon="-7.421859">
        <ele>463.233</ele>
        <time>2022-08-20T07:58:45Z</time>
      </trkpt>
      <trkpt lat="42.777234" lon="-7.421902">
        <ele>461.623</ele>
        <time>2022-08-20T07:58:49Z</time>
      </trkpt>
      <trkpt lat="42.777190" lon="-7.421948">
        <ele>460.415</ele>
        <time>2022-08-20T07:58:53Z</time>
      </trkpt>
      <trkpt lat="42.777146" lon="-7.421994">
        <ele>459.209</ele>
        <time>2022-08-20T07:58:57Z</time>
      </trkpt>
      <trkpt lat="42.777101" lon="-7.422039">
        <ele>457.864</ele>
        <time>2022-08-20T07:59:01Z</time>
      </trkpt>
      <trkpt lat="42.777055" lon="-7.422077">
        <ele>456.574</ele>
        <time>2022-08-20T07:59:05Z</time>
      </trkpt>
      <trkpt lat="42.777002" lon="-7.422109">
        <ele>455.474</ele>
        <time>2022-08-20T07:59:09Z</time>
      </trkpt>
      <trkpt lat="42.776958" lon="-7.422153">
        <ele>454.345</ele>
        <time>2022-08-20T07:59:13Z</time>
      </trkpt>
      <trkpt lat="42.776912" lon="-7.422188">
        <ele>453.185</ele>
        <time>2022-08-20T07:59:17Z</time>
      </trkpt>
      <trkpt lat="42.776860" lon="-7.422221">
        <ele>451.928</ele>
        <time>2022-08-20T07:59:21Z</time>
      </trkpt>
      <trkpt lat="42.776810" lon="-7.422259">
        <ele>450.573</ele>
        <time>2022-08-20T07:59:25Z</time>
      </trkpt>
      <trkpt lat="42.776765" lon="-7.422301">
        <ele>449.153</ele>
        <time>2022-08-20T07:59:29Z</time>
      </trkpt>
      <trkpt lat="42.776716" lon="-7.422342">
        <ele>447.872</ele>
        <time>2022-08-20T07:59:33Z</time>
      </trkpt>
      <trkpt lat="42.776699" lon="-7.422409">
        <ele>446.454</ele>
        <time>2022-08-20T07:59:36Z</time>
      </trkpt>
      <trkpt lat="42.776697" lon="-7.422472">
        <ele>445.856</ele>
        <time>2022-08-20T07:59:39Z</time>
      </trkpt>
      <trkpt lat="42.776766" lon="-7.422497">
        <ele>444.411</ele>
        <time>2022-08-20T08:00:02Z</time>
      </trkpt>
      <trkpt lat="42.776805" lon="-7.422536">
        <ele>443.909</ele>
        <time>2022-08-20T08:00:05Z</time>
      </trkpt>
      <trkpt lat="42.776854" lon="-7.422579">
        <ele>442.646</ele>
        <time>2022-08-20T08:00:10Z</time>
      </trkpt>
      <trkpt lat="42.776900" lon="-7.422596">
        <ele>442.266</ele>
        <time>2022-08-20T08:00:13Z</time>
      </trkpt>
      <trkpt lat="42.776928" lon="-7.422644">
        <ele>441.466</ele>
        <time>2022-08-20T08:00:16Z</time>
      </trkpt>
      <trkpt lat="42.776974" lon="-7.422667">
        <ele>441.217</ele>
        <time>2022-08-20T08:00:19Z</time>
      </trkpt>
      <trkpt lat="42.777017" lon="-7.422704">
        <ele>440.847</ele>
        <time>2022-08-20T08:00:23Z</time>
      </trkpt>
      <trkpt lat="42.777061" lon="-7.422751">
        <ele>440.430</ele>
        <time>2022-08-20T08:00:28Z</time>
      </trkpt>
      <trkpt lat="42.777103" lon="-7.422774">
        <ele>439.995</ele>
        <time>2022-08-20T08:00:32Z</time>
      </trkpt>
      <trkpt lat="42.777162" lon="-7.422777">
        <ele>439.445</ele>
        <time>2022-08-20T08:00:35Z</time>
      </trkpt>
      <trkpt lat="42.777213" lon="-7.422798">
        <ele>439.084</ele>
        <time>2022-08-20T08:00:39Z</time>
      </trkpt>
      <trkpt lat="42.777262" lon="-7.422817">
        <ele>438.891</ele>
        <time>2022-08-20T08:00:43Z</time>
      </trkpt>
      <trkpt lat="42.777287" lon="-7.422868">
        <ele>438.781</ele>
        <time>2022-08-20T08:00:46Z</time>
      </trkpt>
      <trkpt lat="42.777332" lon="-7.422910">
        <ele>438.619</ele>
        <time>2022-08-20T08:00:51Z</time>
      </trkpt>
      <trkpt lat="42.777376" lon="-7.422945">
        <ele>438.509</ele>
        <time>2022-08-20T08:00:55Z</time>
      </trkpt>
      <trkpt lat="42.777420" lon="-7.422987">
        <ele>438.230</ele>
        <time>2022-08-20T08:00:58Z</time>
      </trkpt>
      <trkpt lat="42.777474" lon="-7.423025">
        <ele>437.930</ele>
        <time>2022-08-20T08:01:01Z</time>
      </trkpt>
      <trkpt lat="42.777527" lon="-7.423041">
        <ele>437.840</ele>
        <time>2022-08-20T08:01:07Z</time>
      </trkpt>
      <trkpt lat="42.777574" lon="-7.423055">
        <ele>437.871</ele>
        <time>2022-08-20T08:01:11Z</time>
      </trkpt>
      <trkpt lat="42.777617" lon="-7.423094">
        <ele>437.641</ele>
        <time>2022-08-20T08:01:15Z</time>
      </trkpt>
      <trkpt lat="42.777659" lon="-7.423128">
        <ele>437.474</ele>
        <time>2022-08-20T08:01:19Z</time>
      </trkpt>
      <trkpt lat="42.777701" lon="-7.423151">
        <ele>437.289</ele>
        <time>2022-08-20T08:01:22Z</time>
      </trkpt>
      <trkpt lat="42.777750" lon="-7.423166">
        <ele>437.089</ele>
        <time>2022-08-20T08:01:26Z</time>
      </trkpt>
      <trkpt lat="42.777794" lon="-7.423193">
        <ele>436.948</ele>
        <time>2022-08-20T08:01:30Z</time>
      </trkpt>
      <trkpt lat="42.777849" lon="-7.423202">
        <ele>436.828</ele>
        <time>2022-08-20T08:01:34Z</time>
      </trkpt>
      <trkpt lat="42.777887" lon="-7.423242">
        <ele>436.789</ele>
        <time>2022-08-20T08:01:39Z</time>
      </trkpt>
      <trkpt lat="42.777946" lon="-7.423234">
        <ele>436.617</ele>
        <time>2022-08-20T08:01:43Z</time>
      </trkpt>
      <trkpt lat="42.777985" lon="-7.423279">
        <ele>436.409</ele>
        <time>2022-08-20T08:01:46Z</time>
      </trkpt>
      <trkpt lat="42.778036" lon="-7.423308">
        <ele>436.283</ele>
        <time>2022-08-20T08:01:50Z</time>
      </trkpt>
      <trkpt lat="42.778075" lon="-7.423347">
        <ele>436.063</ele>
        <time>2022-08-20T08:01:54Z</time>
      </trkpt>
      <trkpt lat="42.778117" lon="-7.423374">
        <ele>435.693</ele>
        <time>2022-08-20T08:01:58Z</time>
      </trkpt>
      <trkpt lat="42.778166" lon="-7.423370">
        <ele>435.274</ele>
        <time>2022-08-20T08:02:00Z</time>
      </trkpt>
      <trkpt lat="42.778218" lon="-7.423360">
        <ele>434.964</ele>
        <time>2022-08-20T08:02:04Z</time>
      </trkpt>
      <trkpt lat="42.778264" lon="-7.423376">
        <ele>434.767</ele>
        <time>2022-08-20T08:02:08Z</time>
      </trkpt>
      <trkpt lat="42.778312" lon="-7.423391">
        <ele>434.532</ele>
        <time>2022-08-20T08:02:12Z</time>
      </trkpt>
      <trkpt lat="42.778359" lon="-7.423410">
        <ele>433.912</ele>
        <time>2022-08-20T08:02:16Z</time>
      </trkpt>
      <trkpt lat="42.778392" lon="-7.423464">
        <ele>433.121</ele>
        <time>2022-08-20T08:02:27Z</time>
      </trkpt>
      <trkpt lat="42.778391" lon="-7.423532">
        <ele>432.459</ele>
        <time>2022-08-20T08:02:29Z</time>
      </trkpt>
      <trkpt lat="42.778403" lon="-7.423604">
        <ele>431.903</ele>
        <time>2022-08-20T08:02:34Z</time>
      </trkpt>
      <trkpt lat="42.778405" lon="-7.423677">
        <ele>431.623</ele>
        <time>2022-08-20T08:02:37Z</time>
      </trkpt>
      <trkpt lat="42.778404" lon="-7.423752">
        <ele>431.109</ele>
        <time>2022-08-20T08:02:41Z</time>
      </trkpt>
      <trkpt lat="42.778412" lon="-7.423816">
        <ele>430.696</ele>
        <time>2022-08-20T08:02:45Z</time>
      </trkpt>
      <trkpt lat="42.778414" lon="-7.423898">
        <ele>430.096</ele>
        <time>2022-08-20T08:02:49Z</time>
      </trkpt>
      <trkpt lat="42.778397" lon="-7.423957">
        <ele>429.826</ele>
        <time>2022-08-20T08:02:53Z</time>
      </trkpt>
      <trkpt lat="42.778378" lon="-7.424013">
        <ele>429.357</ele>
        <time>2022-08-20T08:02:56Z</time>
      </trkpt>
      <trkpt lat="42.778342" lon="-7.424073">
        <ele>429.087</ele>
        <time>2022-08-20T08:03:00Z</time>
      </trkpt>
      <trkpt lat="42.778317" lon="-7.424142">
        <ele>429.040</ele>
        <time>2022-08-20T08:03:04Z</time>
      </trkpt>
      <trkpt lat="42.778279" lon="-7.424201">
        <ele>429.035</ele>
        <time>2022-08-20T08:03:08Z</time>
      </trkpt>
      <trkpt lat="42.778249" lon="-7.424262">
        <ele>429.125</ele>
        <time>2022-08-20T08:03:12Z</time>
      </trkpt>
      <trkpt lat="42.778222" lon="-7.424327">
        <ele>429.314</ele>
        <time>2022-08-20T08:03:17Z</time>
      </trkpt>
      <trkpt lat="42.778195" lon="-7.424391">
        <ele>429.481</ele>
        <time>2022-08-20T08:03:21Z</time>
      </trkpt>
      <trkpt lat="42.778164" lon="-7.424452">
        <ele>429.561</ele>
        <time>2022-08-20T08:03:25Z</time>
      </trkpt>
      <trkpt lat="42.778151" lon="-7.424514">
        <ele>429.517</ele>
        <time>2022-08-20T08:03:29Z</time>
      </trkpt>
      <trkpt lat="42.778135" lon="-7.424584">
        <ele>429.509</ele>
        <time>2022-08-20T08:03:34Z</time>
      </trkpt>
      <trkpt lat="42.778124" lon="-7.424652">
        <ele>429.629</ele>
        <time>2022-08-20T08:03:38Z</time>
      </trkpt>
      <trkpt lat="42.778110" lon="-7.424725">
        <ele>429.739</ele>
        <time>2022-08-20T08:03:42Z</time>
      </trkpt>
      <trkpt lat="42.778092" lon="-7.424785">
        <ele>429.779</ele>
        <time>2022-08-20T08:03:46Z</time>
      </trkpt>
      <trkpt lat="42.778067" lon="-7.424848">
        <ele>429.790</ele>
        <time>2022-08-20T08:03:50Z</time>
      </trkpt>
      <trkpt lat="42.778051" lon="-7.424914">
        <ele>429.860</ele>
        <time>2022-08-20T08:03:54Z</time>
      </trkpt>
      <trkpt lat="42.778033" lon="-7.424982">
        <ele>429.963</ele>
        <time>2022-08-20T08:03:58Z</time>
      </trkpt>
      <trkpt lat="42.778018" lon="-7.425049">
        <ele>430.078</ele>
        <time>2022-08-20T08:04:02Z</time>
      </trkpt>
      <trkpt lat="42.778005" lon="-7.425110">
        <ele>430.228</ele>
        <time>2022-08-20T08:04:06Z</time>
      </trkpt>
      <trkpt lat="42.777977" lon="-7.425174">
        <ele>430.587</ele>
        <time>2022-08-20T08:04:11Z</time>
      </trkpt>
      <trkpt lat="42.777944" lon="-7.425234">
        <ele>430.986</ele>
        <time>2022-08-20T08:04:15Z</time>
      </trkpt>
      <trkpt lat="42.777905" lon="-7.425290">
        <ele>431.660</ele>
        <time>2022-08-20T08:04:20Z</time>
      </trkpt>
      <trkpt lat="42.777871" lon="-7.425345">
        <ele>432.426</ele>
        <time>2022-08-20T08:04:24Z</time>
      </trkpt>
      <trkpt lat="42.777818" lon="-7.425373">
        <ele>432.809</ele>
        <time>2022-08-20T08:04:28Z</time>
      </trkpt>
      <trkpt lat="42.777778" lon="-7.425418">
        <ele>432.849</ele>
        <time>2022-08-20T08:04:32Z</time>
      </trkpt>
      <trkpt lat="42.777731" lon="-7.425460">
        <ele>432.829</ele>
        <time>2022-08-20T08:04:36Z</time>
      </trkpt>
      <trkpt lat="42.777680" lon="-7.425483">
        <ele>432.449</ele>
        <time>2022-08-20T08:04:40Z</time>
      </trkpt>
      <trkpt lat="42.777638" lon="-7.425504">
        <ele>432.350</ele>
        <time>2022-08-20T08:04:43Z</time>
      </trkpt>
      <trkpt lat="42.777602" lon="-7.425543">
        <ele>432.120</ele>
        <time>2022-08-20T08:04:46Z</time>
      </trkpt>
      <trkpt lat="42.777561" lon="-7.425596">
        <ele>432.093</ele>
        <time>2022-08-20T08:04:51Z</time>
      </trkpt>
      <trkpt lat="42.777516" lon="-7.425648">
        <ele>431.998</ele>
        <time>2022-08-20T08:04:55Z</time>
      </trkpt>
      <trkpt lat="42.777473" lon="-7.425685">
        <ele>431.678</ele>
        <time>2022-08-20T08:04:59Z</time>
      </trkpt>
      <trkpt lat="42.777428" lon="-7.425725">
        <ele>431.387</ele>
        <time>2022-08-20T08:05:04Z</time>
      </trkpt>
      <trkpt lat="42.777389" lon="-7.425761">
        <ele>431.226</ele>
        <time>2022-08-20T08:05:08Z</time>
      </trkpt>
      <trkpt lat="42.777350" lon="-7.425815">
        <ele>431.147</ele>
        <time>2022-08-20T08:05:12Z</time>
      </trkpt>
      <trkpt lat="42.777308" lon="-7.425851">
        <ele>431.111</ele>
        <time>2022-08-20T08:05:17Z</time>
      </trkpt>
      <trkpt lat="42.777283" lon="-7.425910">
        <ele>431.109</ele>
        <time>2022-08-20T08:05:21Z</time>
      </trkpt>
      <trkpt lat="42.777239" lon="-7.425940">
        <ele>431.173</ele>
        <time>2022-08-20T08:05:24Z</time>
      </trkpt>
      <trkpt lat="42.777207" lon="-7.425998">
        <ele>431.143</ele>
        <time>2022-08-20T08:05:28Z</time>
      </trkpt>
      <trkpt lat="42.777163" lon="-7.426042">
        <ele>431.183</ele>
        <time>2022-08-20T08:05:33Z</time>
      </trkpt>
      <trkpt lat="42.777118" lon="-7.426092">
        <ele>431.124</ele>
        <time>2022-08-20T08:05:37Z</time>
      </trkpt>
      <trkpt lat="42.777073" lon="-7.426145">
        <ele>431.154</ele>
        <time>2022-08-20T08:05:45Z</time>
      </trkpt>
      <trkpt lat="42.777029" lon="-7.426191">
        <ele>431.137</ele>
        <time>2022-08-20T08:05:49Z</time>
      </trkpt>
      <trkpt lat="42.776993" lon="-7.426241">
        <ele>431.592</ele>
        <time>2022-08-20T08:05:53Z</time>
      </trkpt>
      <trkpt lat="42.776955" lon="-7.426286">
        <ele>431.632</ele>
        <time>2022-08-20T08:05:57Z</time>
      </trkpt>
      <trkpt lat="42.776926" lon="-7.426344">
        <ele>431.881</ele>
        <time>2022-08-20T08:06:01Z</time>
      </trkpt>
      <trkpt lat="42.776891" lon="-7.426403">
        <ele>432.139</ele>
        <time>2022-08-20T08:06:07Z</time>
      </trkpt>
      <trkpt lat="42.776848" lon="-7.426468">
        <ele>432.501</ele>
        <time>2022-08-20T08:06:11Z</time>
      </trkpt>
      <trkpt lat="42.776830" lon="-7.426537">
        <ele>432.921</ele>
        <time>2022-08-20T08:06:14Z</time>
      </trkpt>
      <trkpt lat="42.776803" lon="-7.426591">
        <ele>432.909</ele>
        <time>2022-08-20T08:06:16Z</time>
      </trkpt>
      <trkpt lat="42.776773" lon="-7.426653">
        <ele>433.134</ele>
        <time>2022-08-20T08:06:19Z</time>
      </trkpt>
      <trkpt lat="42.776744" lon="-7.426712">
        <ele>433.434</ele>
        <time>2022-08-20T08:06:22Z</time>
      </trkpt>
      <trkpt lat="42.776713" lon="-7.426770">
        <ele>433.514</ele>
        <time>2022-08-20T08:06:25Z</time>
      </trkpt>
      <trkpt lat="42.776683" lon="-7.426838">
        <ele>433.895</ele>
        <time>2022-08-20T08:06:29Z</time>
      </trkpt>
      <trkpt lat="42.776643" lon="-7.426884">
        <ele>434.125</ele>
        <time>2022-08-20T08:06:33Z</time>
      </trkpt>
      <trkpt lat="42.776590" lon="-7.426883">
        <ele>434.298</ele>
        <time>2022-08-20T08:06:36Z</time>
      </trkpt>
      <trkpt lat="42.776553" lon="-7.426834">
        <ele>434.253</ele>
        <time>2022-08-20T08:06:41Z</time>
      </trkpt>
      <trkpt lat="42.776531" lon="-7.426769">
        <ele>434.283</ele>
        <time>2022-08-20T08:06:45Z</time>
      </trkpt>
      <trkpt lat="42.776508" lon="-7.426704">
        <ele>434.092</ele>
        <time>2022-08-20T08:06:48Z</time>
      </trkpt>
      <trkpt lat="42.776480" lon="-7.426655">
        <ele>433.596</ele>
        <time>2022-08-20T08:06:51Z</time>
      </trkpt>
      <trkpt lat="42.776441" lon="-7.426609">
        <ele>433.231</ele>
        <time>2022-08-20T08:06:54Z</time>
      </trkpt>
      <trkpt lat="42.776404" lon="-7.426571">
        <ele>433.024</ele>
        <time>2022-08-20T08:06:57Z</time>
      </trkpt>
      <trkpt lat="42.776348" lon="-7.426575">
        <ele>432.909</ele>
        <time>2022-08-20T08:07:01Z</time>
      </trkpt>
      <trkpt lat="42.776296" lon="-7.426620">
        <ele>432.810</ele>
        <time>2022-08-20T08:07:05Z</time>
      </trkpt>
      <trkpt lat="42.776260" lon="-7.426666">
        <ele>432.760</ele>
        <time>2022-08-20T08:07:09Z</time>
      </trkpt>
      <trkpt lat="42.776220" lon="-7.426716">
        <ele>432.690</ele>
        <time>2022-08-20T08:07:13Z</time>
      </trkpt>
      <trkpt lat="42.776176" lon="-7.426764">
        <ele>432.451</ele>
        <time>2022-08-20T08:07:17Z</time>
      </trkpt>
      <trkpt lat="42.776140" lon="-7.426819">
        <ele>432.361</ele>
        <time>2022-08-20T08:07:21Z</time>
      </trkpt>
      <trkpt lat="42.776092" lon="-7.426866">
        <ele>432.214</ele>
        <time>2022-08-20T08:07:25Z</time>
      </trkpt>
      <trkpt lat="42.776053" lon="-7.426910">
        <ele>432.149</ele>
        <time>2022-08-20T08:07:29Z</time>
      </trkpt>
      <trkpt lat="42.776007" lon="-7.426952">
        <ele>432.089</ele>
        <time>2022-08-20T08:07:33Z</time>
      </trkpt>
      <trkpt lat="42.775961" lon="-7.426974">
        <ele>432.098</ele>
        <time>2022-08-20T08:07:37Z</time>
      </trkpt>
      <trkpt lat="42.775910" lon="-7.426998">
        <ele>431.913</ele>
        <time>2022-08-20T08:07:41Z</time>
      </trkpt>
      <trkpt lat="42.775863" lon="-7.427036">
        <ele>431.943</ele>
        <time>2022-08-20T08:07:45Z</time>
      </trkpt>
      <trkpt lat="42.775814" lon="-7.427065">
        <ele>431.907</ele>
        <time>2022-08-20T08:07:49Z</time>
      </trkpt>
      <trkpt lat="42.775764" lon="-7.427098">
        <ele>431.909</ele>
        <time>2022-08-20T08:07:53Z</time>
      </trkpt>
      <trkpt lat="42.775714" lon="-7.427115">
        <ele>431.972</ele>
        <time>2022-08-20T08:07:57Z</time>
      </trkpt>
      <trkpt lat="42.775672" lon="-7.427162">
        <ele>431.992</ele>
        <time>2022-08-20T08:08:01Z</time>
      </trkpt>
      <trkpt lat="42.775630" lon="-7.427213">
        <ele>431.952</ele>
        <time>2022-08-20T08:08:06Z</time>
      </trkpt>
      <trkpt lat="42.775594" lon="-7.427259">
        <ele>431.843</ele>
        <time>2022-08-20T08:08:09Z</time>
      </trkpt>
      <trkpt lat="42.775559" lon="-7.427309">
        <ele>431.893</ele>
        <time>2022-08-20T08:08:13Z</time>
      </trkpt>
      <trkpt lat="42.775518" lon="-7.427362">
        <ele>431.896</ele>
        <time>2022-08-20T08:08:17Z</time>
      </trkpt>
      <trkpt lat="42.775478" lon="-7.427417">
        <ele>431.821</ele>
        <time>2022-08-20T08:08:21Z</time>
      </trkpt>
      <trkpt lat="42.775436" lon="-7.427461">
        <ele>431.971</ele>
        <time>2022-08-20T08:08:25Z</time>
      </trkpt>
      <trkpt lat="42.775401" lon="-7.427515">
        <ele>432.180</ele>
        <time>2022-08-20T08:08:29Z</time>
      </trkpt>
      <trkpt lat="42.775363" lon="-7.427562">
        <ele>432.312</ele>
        <time>2022-08-20T08:08:33Z</time>
      </trkpt>
      <trkpt lat="42.775327" lon="-7.427606">
        <ele>432.432</ele>
        <time>2022-08-20T08:08:37Z</time>
      </trkpt>
      <trkpt lat="42.775293" lon="-7.427647">
        <ele>432.605</ele>
        <time>2022-08-20T08:08:41Z</time>
      </trkpt>
      <trkpt lat="42.775268" lon="-7.427712">
        <ele>432.709</ele>
        <time>2022-08-20T08:08:45Z</time>
      </trkpt>
      <trkpt lat="42.775238" lon="-7.427770">
        <ele>432.762</ele>
        <time>2022-08-20T08:08:49Z</time>
      </trkpt>
      <trkpt lat="42.775212" lon="-7.427822">
        <ele>432.782</ele>
        <time>2022-08-20T08:08:52Z</time>
      </trkpt>
      <trkpt lat="42.775187" lon="-7.427882">
        <ele>432.772</ele>
        <time>2022-08-20T08:08:56Z</time>
      </trkpt>
      <trkpt lat="42.775153" lon="-7.427931">
        <ele>432.733</ele>
        <time>2022-08-20T08:09:00Z</time>
      </trkpt>
      <trkpt lat="42.775116" lon="-7.427980">
        <ele>432.783</ele>
        <time>2022-08-20T08:09:04Z</time>
      </trkpt>
      <trkpt lat="42.775088" lon="-7.428032">
        <ele>432.836</ele>
        <time>2022-08-20T08:09:08Z</time>
      </trkpt>
      <trkpt lat="42.775052" lon="-7.428076">
        <ele>432.941</ele>
        <time>2022-08-20T08:09:12Z</time>
      </trkpt>
      <trkpt lat="42.775014" lon="-7.428111">
        <ele>433.011</ele>
        <time>2022-08-20T08:09:15Z</time>
      </trkpt>
      <trkpt lat="42.774976" lon="-7.428160">
        <ele>433.250</ele>
        <time>2022-08-20T08:09:19Z</time>
      </trkpt>
      <trkpt lat="42.774933" lon="-7.428210">
        <ele>433.582</ele>
        <time>2022-08-20T08:09:23Z</time>
      </trkpt>
      <trkpt lat="42.774884" lon="-7.428248">
        <ele>433.743</ele>
        <time>2022-08-20T08:09:27Z</time>
      </trkpt>
      <trkpt lat="42.774841" lon="-7.428292">
        <ele>433.817</ele>
        <time>2022-08-20T08:09:31Z</time>
      </trkpt>
      <trkpt lat="42.774796" lon="-7.428300">
        <ele>433.909</ele>
        <time>2022-08-20T08:09:34Z</time>
      </trkpt>
      <trkpt lat="42.774757" lon="-7.428346">
        <ele>434.029</ele>
        <time>2022-08-20T08:09:38Z</time>
      </trkpt>
      <trkpt lat="42.774733" lon="-7.428411">
        <ele>434.149</ele>
        <time>2022-08-20T08:09:42Z</time>
      </trkpt>
      <trkpt lat="42.774698" lon="-7.428469">
        <ele>434.359</ele>
        <time>2022-08-20T08:09:46Z</time>
      </trkpt>
      <trkpt lat="42.774664" lon="-7.428532">
        <ele>434.570</ele>
        <time>2022-08-20T08:09:50Z</time>
      </trkpt>
      <trkpt lat="42.774626" lon="-7.428588">
        <ele>434.870</ele>
        <time>2022-08-20T08:09:54Z</time>
      </trkpt>
      <trkpt lat="42.774592" lon="-7.428649">
        <ele>435.153</ele>
        <time>2022-08-20T08:09:58Z</time>
      </trkpt>
      <trkpt lat="42.774556" lon="-7.428704">
        <ele>435.358</ele>
        <time>2022-08-20T08:10:02Z</time>
      </trkpt>
      <trkpt lat="42.774527" lon="-7.428766">
        <ele>435.528</ele>
        <time>2022-08-20T08:10:06Z</time>
      </trkpt>
      <trkpt lat="42.774495" lon="-7.428828">
        <ele>435.727</ele>
        <time>2022-08-20T08:10:10Z</time>
      </trkpt>
      <trkpt lat="42.774468" lon="-7.428892">
        <ele>435.945</ele>
        <time>2022-08-20T08:10:14Z</time>
      </trkpt>
      <trkpt lat="42.774450" lon="-7.428960">
        <ele>436.147</ele>
        <time>2022-08-20T08:10:18Z</time>
      </trkpt>
      <trkpt lat="42.774433" lon="-7.429028">
        <ele>436.111</ele>
        <time>2022-08-20T08:10:22Z</time>
      </trkpt>
      <trkpt lat="42.774421" lon="-7.429089">
        <ele>436.209</ele>
        <time>2022-08-20T08:10:27Z</time>
      </trkpt>
      <trkpt lat="42.774408" lon="-7.429159">
        <ele>436.475</ele>
        <time>2022-08-20T08:10:33Z</time>
      </trkpt>
      <trkpt lat="42.774392" lon="-7.429217">
        <ele>436.665</ele>
        <time>2022-08-20T08:10:37Z</time>
      </trkpt>
      <trkpt lat="42.774386" lon="-7.429289">
        <ele>436.975</ele>
        <time>2022-08-20T08:10:41Z</time>
      </trkpt>
      <trkpt lat="42.774380" lon="-7.429353">
        <ele>437.136</ele>
        <time>2022-08-20T08:10:45Z</time>
      </trkpt>
      <trkpt lat="42.774374" lon="-7.429418">
        <ele>437.296</ele>
        <time>2022-08-20T08:10:49Z</time>
      </trkpt>
      <trkpt lat="42.774357" lon="-7.429488">
        <ele>437.329</ele>
        <time>2022-08-20T08:10:53Z</time>
      </trkpt>
      <trkpt lat="42.774338" lon="-7.429545">
        <ele>437.414</ele>
        <time>2022-08-20T08:10:56Z</time>
      </trkpt>
      <trkpt lat="42.774327" lon="-7.429607">
        <ele>437.544</ele>
        <time>2022-08-20T08:11:00Z</time>
      </trkpt>
      <trkpt lat="42.774317" lon="-7.429670">
        <ele>437.623</ele>
        <time>2022-08-20T08:11:03Z</time>
      </trkpt>
      <trkpt lat="42.774297" lon="-7.429731">
        <ele>437.792</ele>
        <time>2022-08-20T08:11:07Z</time>
      </trkpt>
      <trkpt lat="42.774276" lon="-7.429787">
        <ele>437.973</ele>
        <time>2022-08-20T08:11:11Z</time>
      </trkpt>
      <trkpt lat="42.774262" lon="-7.429856">
        <ele>438.220</ele>
        <time>2022-08-20T08:11:15Z</time>
      </trkpt>
      <trkpt lat="42.774242" lon="-7.429919">
        <ele>438.809</ele>
        <time>2022-08-20T08:11:20Z</time>
      </trkpt>
      <trkpt lat="42.774233" lon="-7.429986">
        <ele>439.480</ele>
        <time>2022-08-20T08:11:25Z</time>
      </trkpt>
      <trkpt lat="42.774218" lon="-7.430045">
        <ele>439.920</ele>
        <time>2022-08-20T08:11:30Z</time>
      </trkpt>
      <trkpt lat="42.774205" lon="-7.430120">
        <ele>440.620</ele>
        <time>2022-08-20T08:11:36Z</time>
      </trkpt>
      <trkpt lat="42.774169" lon="-7.430170">
        <ele>441.671</ele>
        <time>2022-08-20T08:11:40Z</time>
      </trkpt>
      <trkpt lat="42.774135" lon="-7.430227">
        <ele>442.341</ele>
        <time>2022-08-20T08:11:44Z</time>
      </trkpt>
      <trkpt lat="42.774101" lon="-7.430268">
        <ele>442.434</ele>
        <time>2022-08-20T08:11:47Z</time>
      </trkpt>
      <trkpt lat="42.774063" lon="-7.430322">
        <ele>442.459</ele>
        <time>2022-08-20T08:11:52Z</time>
      </trkpt>
      <trkpt lat="42.774015" lon="-7.430346">
        <ele>442.499</ele>
        <time>2022-08-20T08:11:56Z</time>
      </trkpt>
      <trkpt lat="42.773965" lon="-7.430366">
        <ele>442.268</ele>
        <time>2022-08-20T08:12:01Z</time>
      </trkpt>
      <trkpt lat="42.773910" lon="-7.430387">
        <ele>442.025</ele>
        <time>2022-08-20T08:12:05Z</time>
      </trkpt>
      <trkpt lat="42.773867" lon="-7.430415">
        <ele>441.826</ele>
        <time>2022-08-20T08:12:10Z</time>
      </trkpt>
      <trkpt lat="42.773824" lon="-7.430444">
        <ele>441.608</ele>
        <time>2022-08-20T08:12:13Z</time>
      </trkpt>
      <trkpt lat="42.773783" lon="-7.430474">
        <ele>441.409</ele>
        <time>2022-08-20T08:12:17Z</time>
      </trkpt>
      <trkpt lat="42.773737" lon="-7.430501">
        <ele>441.253</ele>
        <time>2022-08-20T08:12:21Z</time>
      </trkpt>
      <trkpt lat="42.773692" lon="-7.430530">
        <ele>441.173</ele>
        <time>2022-08-20T08:12:25Z</time>
      </trkpt>
      <trkpt lat="42.773644" lon="-7.430558">
        <ele>441.073</ele>
        <time>2022-08-20T08:12:30Z</time>
      </trkpt>
      <trkpt lat="42.773595" lon="-7.430588">
        <ele>440.914</ele>
        <time>2022-08-20T08:12:35Z</time>
      </trkpt>
      <trkpt lat="42.773542" lon="-7.430605">
        <ele>440.754</ele>
        <time>2022-08-20T08:12:40Z</time>
      </trkpt>
      <trkpt lat="42.773482" lon="-7.430620">
        <ele>440.427</ele>
        <time>2022-08-20T08:12:45Z</time>
      </trkpt>
      <trkpt lat="42.773427" lon="-7.430635">
        <ele>440.142</ele>
        <time>2022-08-20T08:12:50Z</time>
      </trkpt>
      <trkpt lat="42.773377" lon="-7.430668">
        <ele>439.612</ele>
        <time>2022-08-20T08:12:55Z</time>
      </trkpt>
      <trkpt lat="42.773329" lon="-7.430696">
        <ele>439.481</ele>
        <time>2022-08-20T08:12:59Z</time>
      </trkpt>
      <trkpt lat="42.773280" lon="-7.430727">
        <ele>439.253</ele>
        <time>2022-08-20T08:13:03Z</time>
      </trkpt>
      <trkpt lat="42.773240" lon="-7.430767">
        <ele>439.104</ele>
        <time>2022-08-20T08:13:07Z</time>
      </trkpt>
      <trkpt lat="42.773194" lon="-7.430798">
        <ele>439.014</ele>
        <time>2022-08-20T08:13:11Z</time>
      </trkpt>
      <trkpt lat="42.773157" lon="-7.430838">
        <ele>439.009</ele>
        <time>2022-08-20T08:13:15Z</time>
      </trkpt>
      <trkpt lat="42.773111" lon="-7.430872">
        <ele>438.976</ele>
        <time>2022-08-20T08:13:20Z</time>
      </trkpt>
      <trkpt lat="42.773058" lon="-7.430911">
        <ele>438.786</ele>
        <time>2022-08-20T08:13:24Z</time>
      </trkpt>
      <trkpt lat="42.773014" lon="-7.430943">
        <ele>438.536</ele>
        <time>2022-08-20T08:13:28Z</time>
      </trkpt>
      <trkpt lat="42.772973" lon="-7.430974">
        <ele>438.447</ele>
        <time>2022-08-20T08:13:32Z</time>
      </trkpt>
      <trkpt lat="42.772927" lon="-7.431007">
        <ele>438.347</ele>
        <time>2022-08-20T08:13:36Z</time>
      </trkpt>
      <trkpt lat="42.772873" lon="-7.431038">
        <ele>438.280</ele>
        <time>2022-08-20T08:13:40Z</time>
      </trkpt>
      <trkpt lat="42.772834" lon="-7.431075">
        <ele>438.145</ele>
        <time>2022-08-20T08:13:44Z</time>
      </trkpt>
      <trkpt lat="42.772787" lon="-7.431120">
        <ele>438.125</ele>
        <time>2022-08-20T08:13:48Z</time>
      </trkpt>
      <trkpt lat="42.772763" lon="-7.431180">
        <ele>438.074</ele>
        <time>2022-08-20T08:13:52Z</time>
      </trkpt>
      <trkpt lat="42.772730" lon="-7.431231">
        <ele>437.926</ele>
        <time>2022-08-20T08:13:58Z</time>
      </trkpt>
      <trkpt lat="42.772725" lon="-7.431300">
        <ele>437.947</ele>
        <time>2022-08-20T08:14:04Z</time>
      </trkpt>
      <trkpt lat="42.772720" lon="-7.431361">
        <ele>437.911</ele>
        <time>2022-08-20T08:14:10Z</time>
      </trkpt>
      <trkpt lat="42.772727" lon="-7.431439">
        <ele>437.909</ele>
        <time>2022-08-20T08:14:15Z</time>
      </trkpt>
      <trkpt lat="42.772733" lon="-7.431507">
        <ele>438.623</ele>
        <time>2022-08-20T08:14:19Z</time>
      </trkpt>
      <trkpt lat="42.772734" lon="-7.431571">
        <ele>439.763</ele>
        <time>2022-08-20T08:14:23Z</time>
      </trkpt>
      <trkpt lat="42.772731" lon="-7.431649">
        <ele>440.483</ele>
        <time>2022-08-20T08:14:27Z</time>
      </trkpt>
      <trkpt lat="42.772729" lon="-7.431712">
        <ele>440.854</ele>
        <time>2022-08-20T08:14:32Z</time>
      </trkpt>
      <trkpt lat="42.772719" lon="-7.431783">
        <ele>441.114</ele>
        <time>2022-08-20T08:14:37Z</time>
      </trkpt>
      <trkpt lat="42.772706" lon="-7.431847">
        <ele>441.497</ele>
        <time>2022-08-20T08:14:40Z</time>
      </trkpt>
      <trkpt lat="42.772697" lon="-7.431921">
        <ele>441.842</ele>
        <time>2022-08-20T08:14:46Z</time>
      </trkpt>
      <trkpt lat="42.772702" lon="-7.431990">
        <ele>442.192</ele>
        <time>2022-08-20T08:14:50Z</time>
      </trkpt>
      <trkpt lat="42.772692" lon="-7.432062">
        <ele>442.651</ele>
        <time>2022-08-20T08:14:56Z</time>
      </trkpt>
      <trkpt lat="42.772677" lon="-7.432123">
        <ele>443.228</ele>
        <time>2022-08-20T08:15:02Z</time>
      </trkpt>
      <trkpt lat="42.772669" lon="-7.432186">
        <ele>443.789</ele>
        <time>2022-08-20T08:15:06Z</time>
      </trkpt>
      <trkpt lat="42.772664" lon="-7.432247">
        <ele>444.317</ele>
        <time>2022-08-20T08:15:10Z</time>
      </trkpt>
      <trkpt lat="42.772662" lon="-7.432315">
        <ele>444.609</ele>
        <time>2022-08-20T08:15:14Z</time>
      </trkpt>
      <trkpt lat="42.772671" lon="-7.432376">
        <ele>444.863</ele>
        <time>2022-08-20T08:15:18Z</time>
      </trkpt>
      <trkpt lat="42.772677" lon="-7.432453">
        <ele>445.023</ele>
        <time>2022-08-20T08:15:22Z</time>
      </trkpt>
      <trkpt lat="42.772675" lon="-7.432536">
        <ele>445.273</ele>
        <time>2022-08-20T08:15:27Z</time>
      </trkpt>
      <trkpt lat="42.772655" lon="-7.432602">
        <ele>445.524</ele>
        <time>2022-08-20T08:15:33Z</time>
      </trkpt>
      <trkpt lat="42.772644" lon="-7.432681">
        <ele>446.264</ele>
        <time>2022-08-20T08:15:38Z</time>
      </trkpt>
      <trkpt lat="42.772637" lon="-7.432747">
        <ele>447.237</ele>
        <time>2022-08-20T08:15:42Z</time>
      </trkpt>
      <trkpt lat="42.772628" lon="-7.432812">
        <ele>448.322</ele>
        <time>2022-08-20T08:15:46Z</time>
      </trkpt>
      <trkpt lat="42.772634" lon="-7.432877">
        <ele>448.512</ele>
        <time>2022-08-20T08:15:51Z</time>
      </trkpt>
      <trkpt lat="42.772626" lon="-7.432949">
        <ele>448.971</ele>
        <time>2022-08-20T08:15:58Z</time>
      </trkpt>
      <trkpt lat="42.772609" lon="-7.433007">
        <ele>449.528</ele>
        <time>2022-08-20T08:16:01Z</time>
      </trkpt>
      <trkpt lat="42.772555" lon="-7.433063">
        <ele>450.589</ele>
        <time>2022-08-20T08:16:08Z</time>
      </trkpt>
      <trkpt lat="42.772525" lon="-7.433114">
        <ele>451.417</ele>
        <time>2022-08-20T08:16:13Z</time>
      </trkpt>
      <trkpt lat="42.772506" lon="-7.433172">
        <ele>452.609</ele>
        <time>2022-08-20T08:16:18Z</time>
      </trkpt>
      <trkpt lat="42.772475" lon="-7.433229">
        <ele>453.993</ele>
        <time>2022-08-20T08:16:24Z</time>
      </trkpt>
      <trkpt lat="42.772443" lon="-7.433275">
        <ele>454.873</ele>
        <time>2022-08-20T08:16:28Z</time>
      </trkpt>
      <trkpt lat="42.772421" lon="-7.433339">
        <ele>455.823</ele>
        <time>2022-08-20T08:16:35Z</time>
      </trkpt>
      <trkpt lat="42.772408" lon="-7.433400">
        <ele>456.784</ele>
        <time>2022-08-20T08:16:40Z</time>
      </trkpt>
      <trkpt lat="42.772428" lon="-7.433470">
        <ele>457.764</ele>
        <time>2022-08-20T08:16:46Z</time>
      </trkpt>
      <trkpt lat="42.772418" lon="-7.433547">
        <ele>458.817</ele>
        <time>2022-08-20T08:16:52Z</time>
      </trkpt>
      <trkpt lat="42.772425" lon="-7.433618">
        <ele>459.812</ele>
        <time>2022-08-20T08:16:57Z</time>
      </trkpt>
      <trkpt lat="42.772427" lon="-7.433680">
        <ele>460.812</ele>
        <time>2022-08-20T08:17:03Z</time>
      </trkpt>
      <trkpt lat="42.772425" lon="-7.433749">
        <ele>461.721</ele>
        <time>2022-08-20T08:17:09Z</time>
      </trkpt>
      <trkpt lat="42.772417" lon="-7.433815">
        <ele>462.728</ele>
        <time>2022-08-20T08:17:14Z</time>
      </trkpt>
      <trkpt lat="42.772421" lon="-7.433879">
        <ele>463.889</ele>
        <time>2022-08-20T08:17:20Z</time>
      </trkpt>
      <trkpt lat="42.772410" lon="-7.433938">
        <ele>464.817</ele>
        <time>2022-08-20T08:17:27Z</time>
      </trkpt>
      <trkpt lat="42.772402" lon="-7.434000">
        <ele>465.709</ele>
        <time>2022-08-20T08:17:32Z</time>
      </trkpt>
      <trkpt lat="42.772398" lon="-7.434066">
        <ele>467.033</ele>
        <time>2022-08-20T08:17:37Z</time>
      </trkpt>
      <trkpt lat="42.772380" lon="-7.434135">
        <ele>468.313</ele>
        <time>2022-08-20T08:17:43Z</time>
      </trkpt>
      <trkpt lat="42.772357" lon="-7.434199">
        <ele>469.373</ele>
        <time>2022-08-20T08:17:47Z</time>
      </trkpt>
      <trkpt lat="42.772346" lon="-7.434269">
        <ele>470.414</ele>
        <time>2022-08-20T08:17:52Z</time>
      </trkpt>
      <trkpt lat="42.772347" lon="-7.434338">
        <ele>471.444</ele>
        <time>2022-08-20T08:17:58Z</time>
      </trkpt>
      <trkpt lat="42.772327" lon="-7.434477">
        <ele>472.517</ele>
        <time>2022-08-20T08:18:09Z</time>
      </trkpt>
      <trkpt lat="42.772335" lon="-7.434542">
        <ele>473.422</ele>
        <time>2022-08-20T08:18:15Z</time>
      </trkpt>
      <trkpt lat="42.772315" lon="-7.434608">
        <ele>475.282</ele>
        <time>2022-08-20T08:18:19Z</time>
      </trkpt>
      <trkpt lat="42.772326" lon="-7.434674">
        <ele>476.561</ele>
        <time>2022-08-20T08:18:24Z</time>
      </trkpt>
      <trkpt lat="42.772342" lon="-7.434736">
        <ele>477.111</ele>
        <time>2022-08-20T08:18:32Z</time>
      </trkpt>
      <trkpt lat="42.772330" lon="-7.434819">
        <ele>477.421</ele>
        <time>2022-08-20T08:20:40Z</time>
      </trkpt>
      <trkpt lat="42.772323" lon="-7.434880">
        <ele>478.203</ele>
        <time>2022-08-20T08:20:44Z</time>
      </trkpt>
      <trkpt lat="42.772333" lon="-7.434958">
        <ele>478.909</ele>
        <time>2022-08-20T08:20:48Z</time>
      </trkpt>
      <trkpt lat="42.772319" lon="-7.435029">
        <ele>479.412</ele>
        <time>2022-08-20T08:20:53Z</time>
      </trkpt>
      <trkpt lat="42.772331" lon="-7.435094">
        <ele>480.032</ele>
        <time>2022-08-20T08:20:58Z</time>
      </trkpt>
      <trkpt lat="42.772323" lon="-7.435166">
        <ele>480.232</ele>
        <time>2022-08-20T08:21:05Z</time>
      </trkpt>
      <trkpt lat="42.772344" lon="-7.435235">
        <ele>481.073</ele>
        <time>2022-08-20T08:21:09Z</time>
      </trkpt>
      <trkpt lat="42.772350" lon="-7.435300">
        <ele>481.333</ele>
        <time>2022-08-20T08:21:13Z</time>
      </trkpt>
      <trkpt lat="42.772346" lon="-7.435362">
        <ele>481.876</ele>
        <time>2022-08-20T08:21:17Z</time>
      </trkpt>
      <trkpt lat="42.772321" lon="-7.435427">
        <ele>482.231</ele>
        <time>2022-08-20T08:21:24Z</time>
      </trkpt>
      <trkpt lat="42.772314" lon="-7.435494">
        <ele>482.881</ele>
        <time>2022-08-20T08:21:29Z</time>
      </trkpt>
      <trkpt lat="42.772314" lon="-7.435562">
        <ele>483.750</ele>
        <time>2022-08-20T08:21:34Z</time>
      </trkpt>
      <trkpt lat="42.772299" lon="-7.435638">
        <ele>484.653</ele>
        <time>2022-08-20T08:21:38Z</time>
      </trkpt>
      <trkpt lat="42.772306" lon="-7.435707">
        <ele>485.404</ele>
        <time>2022-08-20T08:21:42Z</time>
      </trkpt>
      <trkpt lat="42.772328" lon="-7.435764">
        <ele>486.114</ele>
        <time>2022-08-20T08:21:47Z</time>
      </trkpt>
      <trkpt lat="42.772339" lon="-7.435840">
        <ele>486.809</ele>
        <time>2022-08-20T08:21:52Z</time>
      </trkpt>
      <trkpt lat="42.772356" lon="-7.435900">
        <ele>487.676</ele>
        <time>2022-08-20T08:21:57Z</time>
      </trkpt>
      <trkpt lat="42.772356" lon="-7.435972">
        <ele>488.496</ele>
        <time>2022-08-20T08:22:01Z</time>
      </trkpt>
      <trkpt lat="42.772361" lon="-7.436049">
        <ele>489.136</ele>
        <time>2022-08-20T08:22:07Z</time>
      </trkpt>
      <trkpt lat="42.772356" lon="-7.436117">
        <ele>489.877</ele>
        <time>2022-08-20T08:22:11Z</time>
      </trkpt>
      <trkpt lat="42.772380" lon="-7.436182">
        <ele>490.797</ele>
        <time>2022-08-20T08:22:15Z</time>
      </trkpt>
      <trkpt lat="42.772387" lon="-7.436256">
        <ele>491.550</ele>
        <time>2022-08-20T08:22:20Z</time>
      </trkpt>
      <trkpt lat="42.772351" lon="-7.436340">
        <ele>492.475</ele>
        <time>2022-08-20T08:22:30Z</time>
      </trkpt>
      <trkpt lat="42.772316" lon="-7.436297">
        <ele>493.435</ele>
        <time>2022-08-20T08:22:36Z</time>
      </trkpt>
      <trkpt lat="42.772290" lon="-7.436241">
        <ele>495.554</ele>
        <time>2022-08-20T08:22:41Z</time>
      </trkpt>
      <trkpt lat="42.772271" lon="-7.436173">
        <ele>496.671</ele>
        <time>2022-08-20T08:22:46Z</time>
      </trkpt>
      <trkpt lat="42.772252" lon="-7.436107">
        <ele>497.041</ele>
        <time>2022-08-20T08:22:50Z</time>
      </trkpt>
      <trkpt lat="42.772222" lon="-7.436041">
        <ele>496.915</ele>
        <time>2022-08-20T08:22:55Z</time>
      </trkpt>
      <trkpt lat="42.772205" lon="-7.435975">
        <ele>496.909</ele>
        <time>2022-08-20T08:23:00Z</time>
      </trkpt>
      <trkpt lat="42.772182" lon="-7.435922">
        <ele>496.988</ele>
        <time>2022-08-20T08:23:05Z</time>
      </trkpt>
      <trkpt lat="42.772148" lon="-7.435869">
        <ele>496.858</ele>
        <time>2022-08-20T08:23:10Z</time>
      </trkpt>
      <trkpt lat="42.772100" lon="-7.435823">
        <ele>496.878</ele>
        <time>2022-08-20T08:23:16Z</time>
      </trkpt>
      <trkpt lat="42.772041" lon="-7.435806">
        <ele>496.819</ele>
        <time>2022-08-20T08:23:21Z</time>
      </trkpt>
      <trkpt lat="42.771987" lon="-7.435794">
        <ele>497.349</ele>
        <time>2022-08-20T08:23:25Z</time>
      </trkpt>
      <trkpt lat="42.771936" lon="-7.435794">
        <ele>497.822</ele>
        <time>2022-08-20T08:23:29Z</time>
      </trkpt>
      <trkpt lat="42.771883" lon="-7.435804">
        <ele>498.187</ele>
        <time>2022-08-20T08:23:33Z</time>
      </trkpt>
      <trkpt lat="42.771834" lon="-7.435824">
        <ele>498.397</ele>
        <time>2022-08-20T08:23:38Z</time>
      </trkpt>
      <trkpt lat="42.771782" lon="-7.435833">
        <ele>498.416</ele>
        <time>2022-08-20T08:23:42Z</time>
      </trkpt>
      <trkpt lat="42.771725" lon="-7.435843">
        <ele>498.674</ele>
        <time>2022-08-20T08:23:46Z</time>
      </trkpt>
      <trkpt lat="42.771681" lon="-7.435862">
        <ele>498.956</ele>
        <time>2022-08-20T08:23:50Z</time>
      </trkpt>
      <trkpt lat="42.771632" lon="-7.435866">
        <ele>499.221</ele>
        <time>2022-08-20T08:23:54Z</time>
      </trkpt>
      <trkpt lat="42.771587" lon="-7.435877">
        <ele>499.709</ele>
        <time>2022-08-20T08:23:59Z</time>
      </trkpt>
      <trkpt lat="42.771538" lon="-7.435901">
        <ele>500.278</ele>
        <time>2022-08-20T08:24:03Z</time>
      </trkpt>
      <trkpt lat="42.771490" lon="-7.435932">
        <ele>500.678</ele>
        <time>2022-08-20T08:24:07Z</time>
      </trkpt>
      <trkpt lat="42.771451" lon="-7.435971">
        <ele>500.958</ele>
        <time>2022-08-20T08:24:11Z</time>
      </trkpt>
      <trkpt lat="42.771410" lon="-7.436015">
        <ele>501.159</ele>
        <time>2022-08-20T08:24:15Z</time>
      </trkpt>
      <trkpt lat="42.771370" lon="-7.436063">
        <ele>501.389</ele>
        <time>2022-08-20T08:24:19Z</time>
      </trkpt>
      <trkpt lat="42.771337" lon="-7.436114">
        <ele>501.412</ele>
        <time>2022-08-20T08:24:23Z</time>
      </trkpt>
      <trkpt lat="42.771307" lon="-7.436181">
        <ele>501.677</ele>
        <time>2022-08-20T08:24:27Z</time>
      </trkpt>
      <trkpt lat="42.771286" lon="-7.436243">
        <ele>501.827</ele>
        <time>2022-08-20T08:24:31Z</time>
      </trkpt>
      <trkpt lat="42.771263" lon="-7.436303">
        <ele>501.926</ele>
        <time>2022-08-20T08:24:35Z</time>
      </trkpt>
      <trkpt lat="42.771237" lon="-7.436373">
        <ele>502.121</ele>
        <time>2022-08-20T08:24:39Z</time>
      </trkpt>
      <trkpt lat="42.771220" lon="-7.436431">
        <ele>502.341</ele>
        <time>2022-08-20T08:24:43Z</time>
      </trkpt>
      <trkpt lat="42.771192" lon="-7.436493">
        <ele>502.505</ele>
        <time>2022-08-20T08:24:47Z</time>
      </trkpt>
      <trkpt lat="42.771167" lon="-7.436555">
        <ele>502.609</ele>
        <time>2022-08-20T08:24:51Z</time>
      </trkpt>
      <trkpt lat="42.771146" lon="-7.436622">
        <ele>502.733</ele>
        <time>2022-08-20T08:24:55Z</time>
      </trkpt>
      <trkpt lat="42.771125" lon="-7.436692">
        <ele>502.873</ele>
        <time>2022-08-20T08:24:59Z</time>
      </trkpt>
      <trkpt lat="42.771102" lon="-7.436756">
        <ele>502.973</ele>
        <time>2022-08-20T08:25:03Z</time>
      </trkpt>
      <trkpt lat="42.771083" lon="-7.436817">
        <ele>502.994</ele>
        <time>2022-08-20T08:25:07Z</time>
      </trkpt>
      <trkpt lat="42.771070" lon="-7.436886">
        <ele>502.924</ele>
        <time>2022-08-20T08:25:11Z</time>
      </trkpt>
      <trkpt lat="42.771050" lon="-7.436953">
        <ele>502.977</ele>
        <time>2022-08-20T08:25:15Z</time>
      </trkpt>
      <trkpt lat="42.771030" lon="-7.437017">
        <ele>502.942</ele>
        <time>2022-08-20T08:25:19Z</time>
      </trkpt>
      <trkpt lat="42.771008" lon="-7.437080">
        <ele>502.992</ele>
        <time>2022-08-20T08:25:23Z</time>
      </trkpt>
      <trkpt lat="42.770985" lon="-7.437143">
        <ele>502.971</ele>
        <time>2022-08-20T08:25:27Z</time>
      </trkpt>
      <trkpt lat="42.770968" lon="-7.437206">
        <ele>503.089</ele>
        <time>2022-08-20T08:25:31Z</time>
      </trkpt>
      <trkpt lat="42.770944" lon="-7.437271">
        <ele>503.006</ele>
        <time>2022-08-20T08:25:35Z</time>
      </trkpt>
      <trkpt lat="42.770921" lon="-7.437331">
        <ele>503.026</ele>
        <time>2022-08-20T08:25:39Z</time>
      </trkpt>
      <trkpt lat="42.770895" lon="-7.437394">
        <ele>503.009</ele>
        <time>2022-08-20T08:25:43Z</time>
      </trkpt>
      <trkpt lat="42.770869" lon="-7.437458">
        <ele>503.139</ele>
        <time>2022-08-20T08:25:47Z</time>
      </trkpt>
      <trkpt lat="42.770851" lon="-7.437528">
        <ele>503.219</ele>
        <time>2022-08-20T08:25:51Z</time>
      </trkpt>
      <trkpt lat="42.770828" lon="-7.437590">
        <ele>503.359</ele>
        <time>2022-08-20T08:25:55Z</time>
      </trkpt>
      <trkpt lat="42.770806" lon="-7.437656">
        <ele>503.410</ele>
        <time>2022-08-20T08:25:59Z</time>
      </trkpt>
      <trkpt lat="42.770781" lon="-7.437717">
        <ele>503.580</ele>
        <time>2022-08-20T08:26:03Z</time>
      </trkpt>
      <trkpt lat="42.770748" lon="-7.437774">
        <ele>503.683</ele>
        <time>2022-08-20T08:26:07Z</time>
      </trkpt>
      <trkpt lat="42.770710" lon="-7.437825">
        <ele>503.738</ele>
        <time>2022-08-20T08:26:11Z</time>
      </trkpt>
      <trkpt lat="42.770674" lon="-7.437876">
        <ele>503.828</ele>
        <time>2022-08-20T08:26:15Z</time>
      </trkpt>
      <trkpt lat="42.770636" lon="-7.437925">
        <ele>503.997</ele>
        <time>2022-08-20T08:26:19Z</time>
      </trkpt>
      <trkpt lat="42.770608" lon="-7.437988">
        <ele>504.091</ele>
        <time>2022-08-20T08:26:23Z</time>
      </trkpt>
      <trkpt lat="42.770572" lon="-7.438034">
        <ele>504.081</ele>
        <time>2022-08-20T08:26:28Z</time>
      </trkpt>
      <trkpt lat="42.770539" lon="-7.438095">
        <ele>504.119</ele>
        <time>2022-08-20T08:26:33Z</time>
      </trkpt>
      <trkpt lat="42.770500" lon="-7.438145">
        <ele>504.309</ele>
        <time>2022-08-20T08:26:37Z</time>
      </trkpt>
      <trkpt lat="42.770462" lon="-7.438192">
        <ele>504.540</ele>
        <time>2022-08-20T08:26:41Z</time>
      </trkpt>
      <trkpt lat="42.770430" lon="-7.438246">
        <ele>504.590</ele>
        <time>2022-08-20T08:26:45Z</time>
      </trkpt>
      <trkpt lat="42.770389" lon="-7.438302">
        <ele>504.570</ele>
        <time>2022-08-20T08:26:49Z</time>
      </trkpt>
      <trkpt lat="42.770355" lon="-7.438362">
        <ele>504.571</ele>
        <time>2022-08-20T08:26:53Z</time>
      </trkpt>
      <trkpt lat="42.770322" lon="-7.438418">
        <ele>504.591</ele>
        <time>2022-08-20T08:26:57Z</time>
      </trkpt>
      <trkpt lat="42.770292" lon="-7.438481">
        <ele>504.494</ele>
        <time>2022-08-20T08:27:01Z</time>
      </trkpt>
      <trkpt lat="42.770261" lon="-7.438545">
        <ele>504.449</ele>
        <time>2022-08-20T08:27:05Z</time>
      </trkpt>
      <trkpt lat="42.770233" lon="-7.438612">
        <ele>504.459</ele>
        <time>2022-08-20T08:27:09Z</time>
      </trkpt>
      <trkpt lat="42.770205" lon="-7.438678">
        <ele>504.468</ele>
        <time>2022-08-20T08:27:13Z</time>
      </trkpt>
      <trkpt lat="42.770173" lon="-7.438741">
        <ele>504.483</ele>
        <time>2022-08-20T08:27:17Z</time>
      </trkpt>
      <trkpt lat="42.770149" lon="-7.438810">
        <ele>504.425</ele>
        <time>2022-08-20T08:27:21Z</time>
      </trkpt>
      <trkpt lat="42.770124" lon="-7.438879">
        <ele>504.417</ele>
        <time>2022-08-20T08:27:25Z</time>
      </trkpt>
      <trkpt lat="42.770090" lon="-7.438936">
        <ele>504.409</ele>
        <time>2022-08-20T08:27:29Z</time>
      </trkpt>
      <trkpt lat="42.770060" lon="-7.438999">
        <ele>504.479</ele>
        <time>2022-08-20T08:27:33Z</time>
      </trkpt>
      <trkpt lat="42.770029" lon="-7.439055">
        <ele>504.469</ele>
        <time>2022-08-20T08:27:37Z</time>
      </trkpt>
      <trkpt lat="42.770001" lon="-7.439122">
        <ele>504.429</ele>
        <time>2022-08-20T08:27:42Z</time>
      </trkpt>
      <trkpt lat="42.769977" lon="-7.439186">
        <ele>504.470</ele>
        <time>2022-08-20T08:27:47Z</time>
      </trkpt>
      <trkpt lat="42.769963" lon="-7.439251">
        <ele>504.420</ele>
        <time>2022-08-20T08:27:51Z</time>
      </trkpt>
      <trkpt lat="42.769940" lon="-7.439307">
        <ele>504.553</ele>
        <time>2022-08-20T08:27:55Z</time>
      </trkpt>
      <trkpt lat="42.769921" lon="-7.439367">
        <ele>504.668</ele>
        <time>2022-08-20T08:27:59Z</time>
      </trkpt>
      <trkpt lat="42.769895" lon="-7.439430">
        <ele>504.738</ele>
        <time>2022-08-20T08:28:03Z</time>
      </trkpt>
      <trkpt lat="42.769865" lon="-7.439494">
        <ele>504.837</ele>
        <time>2022-08-20T08:28:07Z</time>
      </trkpt>
      <trkpt lat="42.769839" lon="-7.439552">
        <ele>504.967</ele>
        <time>2022-08-20T08:28:11Z</time>
      </trkpt>
      <trkpt lat="42.769817" lon="-7.439622">
        <ele>505.181</ele>
        <time>2022-08-20T08:28:15Z</time>
      </trkpt>
      <trkpt lat="42.769826" lon="-7.439684">
        <ele>505.319</ele>
        <time>2022-08-20T08:28:18Z</time>
      </trkpt>
      <trkpt lat="42.769775" lon="-7.439691">
        <ele>505.409</ele>
        <time>2022-08-20T08:28:24Z</time>
      </trkpt>
      <trkpt lat="42.769723" lon="-7.439654">
        <ele>505.597</ele>
        <time>2022-08-20T08:28:28Z</time>
      </trkpt>
      <trkpt lat="42.769766" lon="-7.439690">
        <ele>505.537</ele>
        <time>2022-08-20T08:29:08Z</time>
      </trkpt>
      <trkpt lat="42.769805" lon="-7.439728">
        <ele>505.647</ele>
        <time>2022-08-20T08:29:12Z</time>
      </trkpt>
      <trkpt lat="42.769858" lon="-7.439758">
        <ele>505.728</ele>
        <time>2022-08-20T08:29:16Z</time>
      </trkpt>
      <trkpt lat="42.769907" lon="-7.439793">
        <ele>505.748</ele>
        <time>2022-08-20T08:29:20Z</time>
      </trkpt>
      <trkpt lat="42.769947" lon="-7.439825">
        <ele>505.741</ele>
        <time>2022-08-20T08:29:23Z</time>
      </trkpt>
      <trkpt lat="42.769988" lon="-7.439852">
        <ele>505.726</ele>
        <time>2022-08-20T08:29:26Z</time>
      </trkpt>
      <trkpt lat="42.770040" lon="-7.439888">
        <ele>505.896</ele>
        <time>2022-08-20T08:29:30Z</time>
      </trkpt>
      <trkpt lat="42.770092" lon="-7.439915">
        <ele>505.935</ele>
        <time>2022-08-20T08:29:34Z</time>
      </trkpt>
      <trkpt lat="42.770143" lon="-7.439954">
        <ele>506.041</ele>
        <time>2022-08-20T08:29:38Z</time>
      </trkpt>
      <trkpt lat="42.770191" lon="-7.439995">
        <ele>506.281</ele>
        <time>2022-08-20T08:29:42Z</time>
      </trkpt>
      <trkpt lat="42.770241" lon="-7.440032">
        <ele>506.309</ele>
        <time>2022-08-20T08:29:46Z</time>
      </trkpt>
      <trkpt lat="42.770286" lon="-7.440079">
        <ele>506.509</ele>
        <time>2022-08-20T08:29:50Z</time>
      </trkpt>
      <trkpt lat="42.770326" lon="-7.440133">
        <ele>506.655</ele>
        <time>2022-08-20T08:29:54Z</time>
      </trkpt>
      <trkpt lat="42.770366" lon="-7.440188">
        <ele>506.835</ele>
        <time>2022-08-20T08:29:58Z</time>
      </trkpt>
      <trkpt lat="42.770394" lon="-7.440253">
        <ele>507.025</ele>
        <time>2022-08-20T08:30:02Z</time>
      </trkpt>
      <trkpt lat="42.770413" lon="-7.440325">
        <ele>507.186</ele>
        <time>2022-08-20T08:30:06Z</time>
      </trkpt>
      <trkpt lat="42.770429" lon="-7.440396">
        <ele>507.276</ele>
        <time>2022-08-20T08:30:10Z</time>
      </trkpt>
      <trkpt lat="42.770440" lon="-7.440467">
        <ele>507.379</ele>
        <time>2022-08-20T08:30:14Z</time>
      </trkpt>
      <trkpt lat="42.770451" lon="-7.440538">
        <ele>507.544</ele>
        <time>2022-08-20T08:30:18Z</time>
      </trkpt>
      <trkpt lat="42.770462" lon="-7.440608">
        <ele>507.794</ele>
        <time>2022-08-20T08:30:22Z</time>
      </trkpt>
      <trkpt lat="42.770480" lon="-7.440675">
        <ele>507.843</ele>
        <time>2022-08-20T08:30:26Z</time>
      </trkpt>
      <trkpt lat="42.770497" lon="-7.440744">
        <ele>508.044</ele>
        <time>2022-08-20T08:30:30Z</time>
      </trkpt>
      <trkpt lat="42.770513" lon="-7.440814">
        <ele>508.205</ele>
        <time>2022-08-20T08:30:34Z</time>
      </trkpt>
      <trkpt lat="42.770527" lon="-7.440885">
        <ele>508.315</ele>
        <time>2022-08-20T08:30:38Z</time>
      </trkpt>
      <trkpt lat="42.770547" lon="-7.440954">
        <ele>508.409</ele>
        <time>2022-08-20T08:30:42Z</time>
      </trkpt>
      <trkpt lat="42.770554" lon="-7.441026">
        <ele>508.465</ele>
        <time>2022-08-20T08:30:46Z</time>
      </trkpt>
      <trkpt lat="42.770568" lon="-7.441095">
        <ele>508.475</ele>
        <time>2022-08-20T08:30:50Z</time>
      </trkpt>
      <trkpt lat="42.770569" lon="-7.441167">
        <ele>508.475</ele>
        <time>2022-08-20T08:30:54Z</time>
      </trkpt>
      <trkpt lat="42.770580" lon="-7.441237">
        <ele>508.316</ele>
        <time>2022-08-20T08:30:58Z</time>
      </trkpt>
      <trkpt lat="42.770590" lon="-7.441313">
        <ele>508.296</ele>
        <time>2022-08-20T08:31:03Z</time>
      </trkpt>
      <trkpt lat="42.770603" lon="-7.441387">
        <ele>508.019</ele>
        <time>2022-08-20T08:31:08Z</time>
      </trkpt>
      <trkpt lat="42.770606" lon="-7.441461">
        <ele>507.964</ele>
        <time>2022-08-20T08:31:13Z</time>
      </trkpt>
      <trkpt lat="42.770612" lon="-7.441524">
        <ele>507.964</ele>
        <time>2022-08-20T08:31:17Z</time>
      </trkpt>
      <trkpt lat="42.770616" lon="-7.441589">
        <ele>507.873</ele>
        <time>2022-08-20T08:31:21Z</time>
      </trkpt>
      <trkpt lat="42.770617" lon="-7.441659">
        <ele>507.794</ele>
        <time>2022-08-20T08:31:25Z</time>
      </trkpt>
      <trkpt lat="42.770623" lon="-7.441724">
        <ele>507.657</ele>
        <time>2022-08-20T08:31:29Z</time>
      </trkpt>
      <trkpt lat="42.770635" lon="-7.441789">
        <ele>507.522</ele>
        <time>2022-08-20T08:31:33Z</time>
      </trkpt>
      <trkpt lat="42.770653" lon="-7.441862">
        <ele>507.309</ele>
        <time>2022-08-20T08:31:37Z</time>
      </trkpt>
      <trkpt lat="42.770665" lon="-7.441933">
        <ele>507.110</ele>
        <time>2022-08-20T08:31:41Z</time>
      </trkpt>
      <trkpt lat="42.770684" lon="-7.441998">
        <ele>507.010</ele>
        <time>2022-08-20T08:31:45Z</time>
      </trkpt>
      <trkpt lat="42.770700" lon="-7.442062">
        <ele>506.960</ele>
        <time>2022-08-20T08:31:49Z</time>
      </trkpt>
      <trkpt lat="42.770715" lon="-7.442123">
        <ele>506.841</ele>
        <time>2022-08-20T08:31:53Z</time>
      </trkpt>
      <trkpt lat="42.770737" lon="-7.442195">
        <ele>506.731</ele>
        <time>2022-08-20T08:31:57Z</time>
      </trkpt>
      <trkpt lat="42.770755" lon="-7.442271">
        <ele>506.654</ele>
        <time>2022-08-20T08:32:01Z</time>
      </trkpt>
      <trkpt lat="42.770778" lon="-7.442342">
        <ele>506.529</ele>
        <time>2022-08-20T08:32:05Z</time>
      </trkpt>
      <trkpt lat="42.770799" lon="-7.442418">
        <ele>506.589</ele>
        <time>2022-08-20T08:32:09Z</time>
      </trkpt>
      <trkpt lat="42.770814" lon="-7.442493">
        <ele>506.478</ele>
        <time>2022-08-20T08:32:13Z</time>
      </trkpt>
      <trkpt lat="42.770831" lon="-7.442568">
        <ele>506.341</ele>
        <time>2022-08-20T08:32:17Z</time>
      </trkpt>
      <trkpt lat="42.770835" lon="-7.442644">
        <ele>506.281</ele>
        <time>2022-08-20T08:32:21Z</time>
      </trkpt>
      <trkpt lat="42.770845" lon="-7.442720">
        <ele>506.109</ele>
        <time>2022-08-20T08:32:25Z</time>
      </trkpt>
      <trkpt lat="42.770862" lon="-7.442793">
        <ele>506.109</ele>
        <time>2022-08-20T08:32:29Z</time>
      </trkpt>
      <trkpt lat="42.770874" lon="-7.442867">
        <ele>506.195</ele>
        <time>2022-08-20T08:32:33Z</time>
      </trkpt>
      <trkpt lat="42.770895" lon="-7.442940">
        <ele>506.075</ele>
        <time>2022-08-20T08:32:37Z</time>
      </trkpt>
      <trkpt lat="42.770911" lon="-7.443015">
        <ele>506.085</ele>
        <time>2022-08-20T08:32:41Z</time>
      </trkpt>
      <trkpt lat="42.770920" lon="-7.443092">
        <ele>506.026</ele>
        <time>2022-08-20T08:32:45Z</time>
      </trkpt>
      <trkpt lat="42.770924" lon="-7.443169">
        <ele>506.036</ele>
        <time>2022-08-20T08:32:49Z</time>
      </trkpt>
      <trkpt lat="42.770920" lon="-7.443246">
        <ele>506.079</ele>
        <time>2022-08-20T08:32:53Z</time>
      </trkpt>
      <trkpt lat="42.770902" lon="-7.443302">
        <ele>506.014</ele>
        <time>2022-08-20T08:32:56Z</time>
      </trkpt>
      <trkpt lat="42.770863" lon="-7.443361">
        <ele>506.044</ele>
        <time>2022-08-20T08:33:00Z</time>
      </trkpt>
      <trkpt lat="42.770807" lon="-7.443388">
        <ele>506.093</ele>
        <time>2022-08-20T08:33:04Z</time>
      </trkpt>
      <trkpt lat="42.770765" lon="-7.443413">
        <ele>506.015</ele>
        <time>2022-08-20T08:33:07Z</time>
      </trkpt>
      <trkpt lat="42.770720" lon="-7.443424">
        <ele>506.165</ele>
        <time>2022-08-20T08:33:10Z</time>
      </trkpt>
      <trkpt lat="42.770679" lon="-7.443450">
        <ele>506.211</ele>
        <time>2022-08-20T08:33:13Z</time>
      </trkpt>
      <trkpt lat="42.770620" lon="-7.443463">
        <ele>506.309</ele>
        <time>2022-08-20T08:33:17Z</time>
      </trkpt>
      <trkpt lat="42.770563" lon="-7.443486">
        <ele>506.462</ele>
        <time>2022-08-20T08:33:21Z</time>
      </trkpt>
      <trkpt lat="42.770507" lon="-7.443511">
        <ele>506.522</ele>
        <time>2022-08-20T08:33:25Z</time>
      </trkpt>
      <trkpt lat="42.770457" lon="-7.443548">
        <ele>506.712</ele>
        <time>2022-08-20T08:33:29Z</time>
      </trkpt>
      <trkpt lat="42.770407" lon="-7.443578">
        <ele>506.733</ele>
        <time>2022-08-20T08:33:33Z</time>
      </trkpt>
      <trkpt lat="42.770360" lon="-7.443607">
        <ele>506.883</ele>
        <time>2022-08-20T08:33:37Z</time>
      </trkpt>
      <trkpt lat="42.770314" lon="-7.443646">
        <ele>507.086</ele>
        <time>2022-08-20T08:33:44Z</time>
      </trkpt>
      <trkpt lat="42.770266" lon="-7.443681">
        <ele>507.281</ele>
        <time>2022-08-20T08:33:49Z</time>
      </trkpt>
      <trkpt lat="42.770216" lon="-7.443708">
        <ele>507.651</ele>
        <time>2022-08-20T08:33:53Z</time>
      </trkpt>
      <trkpt lat="42.770171" lon="-7.443736">
        <ele>508.330</ele>
        <time>2022-08-20T08:33:57Z</time>
      </trkpt>
      <trkpt lat="42.770128" lon="-7.443762">
        <ele>508.917</ele>
        <time>2022-08-20T08:34:01Z</time>
      </trkpt>
      <trkpt lat="42.770088" lon="-7.443800">
        <ele>509.487</ele>
        <time>2022-08-20T08:34:05Z</time>
      </trkpt>
      <trkpt lat="42.770043" lon="-7.443823">
        <ele>510.015</ele>
        <time>2022-08-20T08:34:10Z</time>
      </trkpt>
      <trkpt lat="42.770012" lon="-7.443878">
        <ele>510.609</ele>
        <time>2022-08-20T08:34:15Z</time>
      </trkpt>
      <trkpt lat="42.769972" lon="-7.443927">
        <ele>511.342</ele>
        <time>2022-08-20T08:34:19Z</time>
      </trkpt>
      <trkpt lat="42.769936" lon="-7.443977">
        <ele>512.292</ele>
        <time>2022-08-20T08:34:23Z</time>
      </trkpt>
      <trkpt lat="42.769905" lon="-7.444022">
        <ele>513.052</ele>
        <time>2022-08-20T08:34:27Z</time>
      </trkpt>
      <trkpt lat="42.769876" lon="-7.444075">
        <ele>513.693</ele>
        <time>2022-08-20T08:34:31Z</time>
      </trkpt>
      <trkpt lat="42.769837" lon="-7.444124">
        <ele>514.123</ele>
        <time>2022-08-20T08:34:35Z</time>
      </trkpt>
      <trkpt lat="42.769801" lon="-7.444166">
        <ele>514.466</ele>
        <time>2022-08-20T08:34:39Z</time>
      </trkpt>
      <trkpt lat="42.769757" lon="-7.444216">
        <ele>514.691</ele>
        <time>2022-08-20T08:34:43Z</time>
      </trkpt>
      <trkpt lat="42.769707" lon="-7.444253">
        <ele>514.971</ele>
        <time>2022-08-20T08:34:47Z</time>
      </trkpt>
      <trkpt lat="42.769668" lon="-7.444311">
        <ele>515.580</ele>
        <time>2022-08-20T08:34:51Z</time>
      </trkpt>
      <trkpt lat="42.769622" lon="-7.444351">
        <ele>516.192</ele>
        <time>2022-08-20T08:34:55Z</time>
      </trkpt>
      <trkpt lat="42.769569" lon="-7.444372">
        <ele>516.673</ele>
        <time>2022-08-20T08:34:59Z</time>
      </trkpt>
      <trkpt lat="42.769513" lon="-7.444392">
        <ele>517.020</ele>
        <time>2022-08-20T08:35:03Z</time>
      </trkpt>
      <trkpt lat="42.769457" lon="-7.444395">
        <ele>517.309</ele>
        <time>2022-08-20T08:35:08Z</time>
      </trkpt>
      <trkpt lat="42.769401" lon="-7.444393">
        <ele>517.580</ele>
        <time>2022-08-20T08:35:12Z</time>
      </trkpt>
      <trkpt lat="42.769349" lon="-7.444391">
        <ele>517.630</ele>
        <time>2022-08-20T08:35:17Z</time>
      </trkpt>
      <trkpt lat="42.769303" lon="-7.444388">
        <ele>517.730</ele>
        <time>2022-08-20T08:35:20Z</time>
      </trkpt>
      <trkpt lat="42.769252" lon="-7.444376">
        <ele>517.861</ele>
        <time>2022-08-20T08:35:24Z</time>
      </trkpt>
      <trkpt lat="42.769201" lon="-7.444353">
        <ele>517.981</ele>
        <time>2022-08-20T08:35:28Z</time>
      </trkpt>
      <trkpt lat="42.769157" lon="-7.444329">
        <ele>518.154</ele>
        <time>2022-08-20T08:35:32Z</time>
      </trkpt>
      <trkpt lat="42.769114" lon="-7.444298">
        <ele>518.339</ele>
        <time>2022-08-20T08:35:36Z</time>
      </trkpt>
      <trkpt lat="42.769072" lon="-7.444263">
        <ele>518.529</ele>
        <time>2022-08-20T08:35:41Z</time>
      </trkpt>
      <trkpt lat="42.769034" lon="-7.444227">
        <ele>518.968</ele>
        <time>2022-08-20T08:35:44Z</time>
      </trkpt>
      <trkpt lat="42.768979" lon="-7.444198">
        <ele>519.592</ele>
        <time>2022-08-20T08:35:48Z</time>
      </trkpt>
      <trkpt lat="42.768929" lon="-7.444173">
        <ele>520.073</ele>
        <time>2022-08-20T08:35:53Z</time>
      </trkpt>
      <trkpt lat="42.768875" lon="-7.444171">
        <ele>520.320</ele>
        <time>2022-08-20T08:35:58Z</time>
      </trkpt>
      <trkpt lat="42.768825" lon="-7.444174">
        <ele>520.709</ele>
        <time>2022-08-20T08:36:02Z</time>
      </trkpt>
      <trkpt lat="42.768776" lon="-7.444197">
        <ele>521.260</ele>
        <time>2022-08-20T08:36:06Z</time>
      </trkpt>
      <trkpt lat="42.768734" lon="-7.444238">
        <ele>521.640</ele>
        <time>2022-08-20T08:36:10Z</time>
      </trkpt>
      <trkpt lat="42.768703" lon="-7.444290">
        <ele>521.990</ele>
        <time>2022-08-20T08:36:14Z</time>
      </trkpt>
      <trkpt lat="42.768664" lon="-7.444343">
        <ele>522.221</ele>
        <time>2022-08-20T08:36:18Z</time>
      </trkpt>
      <trkpt lat="42.768637" lon="-7.444393">
        <ele>522.541</ele>
        <time>2022-08-20T08:36:22Z</time>
      </trkpt>
      <trkpt lat="42.768609" lon="-7.444442">
        <ele>522.894</ele>
        <time>2022-08-20T08:36:26Z</time>
      </trkpt>
      <trkpt lat="42.768587" lon="-7.444512">
        <ele>523.119</ele>
        <time>2022-08-20T08:36:31Z</time>
      </trkpt>
      <trkpt lat="42.768555" lon="-7.444566">
        <ele>523.419</ele>
        <time>2022-08-20T08:36:35Z</time>
      </trkpt>
      <trkpt lat="42.768544" lon="-7.444640">
        <ele>523.798</ele>
        <time>2022-08-20T08:36:40Z</time>
      </trkpt>
      <trkpt lat="42.768560" lon="-7.444707">
        <ele>524.132</ele>
        <time>2022-08-20T08:36:44Z</time>
      </trkpt>
      <trkpt lat="42.768589" lon="-7.444768">
        <ele>524.592</ele>
        <time>2022-08-20T08:36:48Z</time>
      </trkpt>
      <trkpt lat="42.768612" lon="-7.444835">
        <ele>524.911</ele>
        <time>2022-08-20T08:36:52Z</time>
      </trkpt>
      <trkpt lat="42.768600" lon="-7.444897">
        <ele>525.209</ele>
        <time>2022-08-20T08:36:56Z</time>
      </trkpt>
      <trkpt lat="42.768598" lon="-7.444961">
        <ele>525.574</ele>
        <time>2022-08-20T08:37:01Z</time>
      </trkpt>
      <trkpt lat="42.768597" lon="-7.445032">
        <ele>525.994</ele>
        <time>2022-08-20T08:37:07Z</time>
      </trkpt>
      <trkpt lat="42.768594" lon="-7.445109">
        <ele>526.374</ele>
        <time>2022-08-20T08:37:11Z</time>
      </trkpt>
      <trkpt lat="42.768588" lon="-7.445178">
        <ele>526.825</ele>
        <time>2022-08-20T08:37:15Z</time>
      </trkpt>
      <trkpt lat="42.768567" lon="-7.445243">
        <ele>527.395</ele>
        <time>2022-08-20T08:37:19Z</time>
      </trkpt>
      <trkpt lat="42.768544" lon="-7.445317">
        <ele>528.038</ele>
        <time>2022-08-20T08:37:23Z</time>
      </trkpt>
      <trkpt lat="42.768502" lon="-7.445383">
        <ele>528.633</ele>
        <time>2022-08-20T08:37:27Z</time>
      </trkpt>
      <trkpt lat="42.768460" lon="-7.445425">
        <ele>529.163</ele>
        <time>2022-08-20T08:37:30Z</time>
      </trkpt>
      <trkpt lat="42.768420" lon="-7.445460">
        <ele>529.622</ele>
        <time>2022-08-20T08:37:33Z</time>
      </trkpt>
      <trkpt lat="42.768380" lon="-7.445502">
        <ele>530.097</ele>
        <time>2022-08-20T08:37:36Z</time>
      </trkpt>
      <trkpt lat="42.768330" lon="-7.445543">
        <ele>530.323</ele>
        <time>2022-08-20T08:37:40Z</time>
      </trkpt>
      <trkpt lat="42.768291" lon="-7.445580">
        <ele>530.525</ele>
        <time>2022-08-20T08:37:44Z</time>
      </trkpt>
      <trkpt lat="42.768249" lon="-7.445625">
        <ele>530.809</ele>
        <time>2022-08-20T08:37:48Z</time>
      </trkpt>
      <trkpt lat="42.768193" lon="-7.445670">
        <ele>531.340</ele>
        <time>2022-08-20T08:37:52Z</time>
      </trkpt>
      <trkpt lat="42.768146" lon="-7.445706">
        <ele>531.530</ele>
        <time>2022-08-20T08:37:56Z</time>
      </trkpt>
      <trkpt lat="42.768105" lon="-7.445743">
        <ele>531.690</ele>
        <time>2022-08-20T08:38:00Z</time>
      </trkpt>
      <trkpt lat="42.768069" lon="-7.445780">
        <ele>531.911</ele>
        <time>2022-08-20T08:38:04Z</time>
      </trkpt>
      <trkpt lat="42.768025" lon="-7.445818">
        <ele>532.251</ele>
        <time>2022-08-20T08:38:08Z</time>
      </trkpt>
      <trkpt lat="42.767974" lon="-7.445862">
        <ele>532.564</ele>
        <time>2022-08-20T08:38:12Z</time>
      </trkpt>
      <trkpt lat="42.767928" lon="-7.445915">
        <ele>532.779</ele>
        <time>2022-08-20T08:38:16Z</time>
      </trkpt>
      <trkpt lat="42.767891" lon="-7.445961">
        <ele>532.929</ele>
        <time>2022-08-20T08:38:20Z</time>
      </trkpt>
      <trkpt lat="42.767858" lon="-7.446015">
        <ele>533.298</ele>
        <time>2022-08-20T08:38:24Z</time>
      </trkpt>
      <trkpt lat="42.767827" lon="-7.446060">
        <ele>533.356</ele>
        <time>2022-08-20T08:38:28Z</time>
      </trkpt>
      <trkpt lat="42.767790" lon="-7.446102">
        <ele>533.559</ele>
        <time>2022-08-20T08:38:31Z</time>
      </trkpt>
      <trkpt lat="42.767746" lon="-7.446150">
        <ele>533.714</ele>
        <time>2022-08-20T08:38:35Z</time>
      </trkpt>
      <trkpt lat="42.767711" lon="-7.446190">
        <ele>533.809</ele>
        <time>2022-08-20T08:38:38Z</time>
      </trkpt>
      <trkpt lat="42.767668" lon="-7.446232">
        <ele>533.996</ele>
        <time>2022-08-20T08:38:42Z</time>
      </trkpt>
      <trkpt lat="42.767628" lon="-7.446266">
        <ele>534.096</ele>
        <time>2022-08-20T08:38:46Z</time>
      </trkpt>
      <trkpt lat="42.767594" lon="-7.446328">
        <ele>534.176</ele>
        <time>2022-08-20T08:38:52Z</time>
      </trkpt>
      <trkpt lat="42.767554" lon="-7.446369">
        <ele>534.397</ele>
        <time>2022-08-20T08:38:56Z</time>
      </trkpt>
      <trkpt lat="42.767517" lon="-7.446414">
        <ele>534.627</ele>
        <time>2022-08-20T08:38:59Z</time>
      </trkpt>
      <trkpt lat="42.767472" lon="-7.446453">
        <ele>535.090</ele>
        <time>2022-08-20T08:39:02Z</time>
      </trkpt>
      <trkpt lat="42.767434" lon="-7.446489">
        <ele>535.275</ele>
        <time>2022-08-20T08:39:05Z</time>
      </trkpt>
      <trkpt lat="42.767398" lon="-7.446527">
        <ele>535.415</ele>
        <time>2022-08-20T08:39:09Z</time>
      </trkpt>
      <trkpt lat="42.767350" lon="-7.446565">
        <ele>535.674</ele>
        <time>2022-08-20T08:39:13Z</time>
      </trkpt>
      <trkpt lat="42.767310" lon="-7.446617">
        <ele>535.851</ele>
        <time>2022-08-20T08:39:17Z</time>
      </trkpt>
      <trkpt lat="42.767271" lon="-7.446659">
        <ele>536.001</ele>
        <time>2022-08-20T08:39:20Z</time>
      </trkpt>
      <trkpt lat="42.767225" lon="-7.446714">
        <ele>536.211</ele>
        <time>2022-08-20T08:39:24Z</time>
      </trkpt>
      <trkpt lat="42.767188" lon="-7.446766">
        <ele>536.409</ele>
        <time>2022-08-20T08:39:28Z</time>
      </trkpt>
      <trkpt lat="42.767150" lon="-7.446816">
        <ele>536.566</ele>
        <time>2022-08-20T08:39:32Z</time>
      </trkpt>
      <trkpt lat="42.767118" lon="-7.446876">
        <ele>536.726</ele>
        <time>2022-08-20T08:39:36Z</time>
      </trkpt>
      <trkpt lat="42.767082" lon="-7.446919">
        <ele>536.826</ele>
        <time>2022-08-20T08:39:39Z</time>
      </trkpt>
      <trkpt lat="42.767039" lon="-7.446974">
        <ele>537.057</ele>
        <time>2022-08-20T08:39:43Z</time>
      </trkpt>
      <trkpt lat="42.766998" lon="-7.447032">
        <ele>537.357</ele>
        <time>2022-08-20T08:39:47Z</time>
      </trkpt>
      <trkpt lat="42.766961" lon="-7.447087">
        <ele>537.640</ele>
        <time>2022-08-20T08:39:51Z</time>
      </trkpt>
      <trkpt lat="42.766929" lon="-7.447145">
        <ele>537.875</ele>
        <time>2022-08-20T08:39:55Z</time>
      </trkpt>
      <trkpt lat="42.766898" lon="-7.447208">
        <ele>538.085</ele>
        <time>2022-08-20T08:39:59Z</time>
      </trkpt>
      <trkpt lat="42.766868" lon="-7.447267">
        <ele>538.344</ele>
        <time>2022-08-20T08:40:03Z</time>
      </trkpt>
      <trkpt lat="42.766835" lon="-7.447323">
        <ele>538.547</ele>
        <time>2022-08-20T08:40:07Z</time>
      </trkpt>
      <trkpt lat="42.766817" lon="-7.447391">
        <ele>538.829</ele>
        <time>2022-08-20T08:40:11Z</time>
      </trkpt>
      <trkpt lat="42.766797" lon="-7.447451">
        <ele>539.121</ele>
        <time>2022-08-20T08:40:16Z</time>
      </trkpt>
      <trkpt lat="42.766778" lon="-7.447507">
        <ele>539.509</ele>
        <time>2022-08-20T08:40:20Z</time>
      </trkpt>
      <trkpt lat="42.766765" lon="-7.447574">
        <ele>540.025</ele>
        <time>2022-08-20T08:40:25Z</time>
      </trkpt>
      <trkpt lat="42.766743" lon="-7.447634">
        <ele>540.675</ele>
        <time>2022-08-20T08:40:29Z</time>
      </trkpt>
      <trkpt lat="42.766724" lon="-7.447694">
        <ele>541.345</ele>
        <time>2022-08-20T08:40:33Z</time>
      </trkpt>
      <trkpt lat="42.766701" lon="-7.447763">
        <ele>542.076</ele>
        <time>2022-08-20T08:40:37Z</time>
      </trkpt>
      <trkpt lat="42.766685" lon="-7.447822">
        <ele>542.746</ele>
        <time>2022-08-20T08:40:41Z</time>
      </trkpt>
      <trkpt lat="42.766652" lon="-7.447898">
        <ele>543.429</ele>
        <time>2022-08-20T08:40:45Z</time>
      </trkpt>
      <trkpt lat="42.766639" lon="-7.447962">
        <ele>544.134</ele>
        <time>2022-08-20T08:40:49Z</time>
      </trkpt>
      <trkpt lat="42.766618" lon="-7.448030">
        <ele>545.094</ele>
        <time>2022-08-20T08:40:53Z</time>
      </trkpt>
      <trkpt lat="42.766606" lon="-7.448089">
        <ele>545.343</ele>
        <time>2022-08-20T08:40:56Z</time>
      </trkpt>
      <trkpt lat="42.766597" lon="-7.448156">
        <ele>545.937</ele>
        <time>2022-08-20T08:41:00Z</time>
      </trkpt>
      <trkpt lat="42.766586" lon="-7.448229">
        <ele>546.349</ele>
        <time>2022-08-20T08:41:04Z</time>
      </trkpt>
      <trkpt lat="42.766585" lon="-7.448301">
        <ele>546.613</ele>
        <time>2022-08-20T08:41:08Z</time>
      </trkpt>
      <trkpt lat="42.766579" lon="-7.448374">
        <ele>546.909</ele>
        <time>2022-08-20T08:41:12Z</time>
      </trkpt>
      <trkpt lat="42.766574" lon="-7.448444">
        <ele>547.174</ele>
        <time>2022-08-20T08:41:16Z</time>
      </trkpt>
      <trkpt lat="42.766567" lon="-7.448513">
        <ele>547.334</ele>
        <time>2022-08-20T08:41:20Z</time>
      </trkpt>
      <trkpt lat="42.766560" lon="-7.448590">
        <ele>547.554</ele>
        <time>2022-08-20T08:41:24Z</time>
      </trkpt>
      <trkpt lat="42.766562" lon="-7.448663">
        <ele>547.615</ele>
        <time>2022-08-20T08:41:28Z</time>
      </trkpt>
      <trkpt lat="42.766558" lon="-7.448725">
        <ele>547.785</ele>
        <time>2022-08-20T08:41:31Z</time>
      </trkpt>
      <trkpt lat="42.766555" lon="-7.448804">
        <ele>547.898</ele>
        <time>2022-08-20T08:41:35Z</time>
      </trkpt>
      <trkpt lat="42.766556" lon="-7.448876">
        <ele>547.913</ele>
        <time>2022-08-20T08:41:39Z</time>
      </trkpt>
      <trkpt lat="42.766545" lon="-7.448936">
        <ele>547.913</ele>
        <time>2022-08-20T08:41:43Z</time>
      </trkpt>
      <trkpt lat="42.766548" lon="-7.449003">
        <ele>548.052</ele>
        <time>2022-08-20T08:41:48Z</time>
      </trkpt>
      <trkpt lat="42.766527" lon="-7.449074">
        <ele>548.155</ele>
        <time>2022-08-20T08:41:52Z</time>
      </trkpt>
      <trkpt lat="42.766500" lon="-7.449130">
        <ele>548.207</ele>
        <time>2022-08-20T08:41:55Z</time>
      </trkpt>
      <trkpt lat="42.766475" lon="-7.449199">
        <ele>548.317</ele>
        <time>2022-08-20T08:41:59Z</time>
      </trkpt>
      <trkpt lat="42.766450" lon="-7.449259">
        <ele>548.409</ele>
        <time>2022-08-20T08:42:03Z</time>
      </trkpt>
      <trkpt lat="42.766429" lon="-7.449332">
        <ele>548.676</ele>
        <time>2022-08-20T08:42:07Z</time>
      </trkpt>
      <trkpt lat="42.766400" lon="-7.449398">
        <ele>548.866</ele>
        <time>2022-08-20T08:42:11Z</time>
      </trkpt>
      <trkpt lat="42.766371" lon="-7.449467">
        <ele>549.066</ele>
        <time>2022-08-20T08:42:15Z</time>
      </trkpt>
      <trkpt lat="42.766344" lon="-7.449536">
        <ele>549.297</ele>
        <time>2022-08-20T08:42:19Z</time>
      </trkpt>
      <trkpt lat="42.766317" lon="-7.449600">
        <ele>549.587</ele>
        <time>2022-08-20T08:42:23Z</time>
      </trkpt>
      <trkpt lat="42.766297" lon="-7.449657">
        <ele>549.710</ele>
        <time>2022-08-20T08:42:27Z</time>
      </trkpt>
      <trkpt lat="42.766268" lon="-7.449707">
        <ele>549.825</ele>
        <time>2022-08-20T08:42:30Z</time>
      </trkpt>
      <trkpt lat="42.766242" lon="-7.449759">
        <ele>550.045</ele>
        <time>2022-08-20T08:42:33Z</time>
      </trkpt>
      <trkpt lat="42.766210" lon="-7.449823">
        <ele>550.174</ele>
        <time>2022-08-20T08:42:37Z</time>
      </trkpt>
      <trkpt lat="42.766179" lon="-7.449886">
        <ele>550.287</ele>
        <time>2022-08-20T08:42:42Z</time>
      </trkpt>
      <trkpt lat="42.766142" lon="-7.449937">
        <ele>550.342</ele>
        <time>2022-08-20T08:42:46Z</time>
      </trkpt>
      <trkpt lat="42.766113" lon="-7.449993">
        <ele>550.426</ele>
        <time>2022-08-20T08:42:50Z</time>
      </trkpt>
      <trkpt lat="42.766075" lon="-7.450038">
        <ele>550.509</ele>
        <time>2022-08-20T08:42:54Z</time>
      </trkpt>
      <trkpt lat="42.766030" lon="-7.450087">
        <ele>550.529</ele>
        <time>2022-08-20T08:42:58Z</time>
      </trkpt>
      <trkpt lat="42.766004" lon="-7.450138">
        <ele>550.549</ele>
        <time>2022-08-20T08:43:01Z</time>
      </trkpt>
      <trkpt lat="42.765968" lon="-7.450198">
        <ele>550.549</ele>
        <time>2022-08-20T08:43:05Z</time>
      </trkpt>
      <trkpt lat="42.765937" lon="-7.450255">
        <ele>550.540</ele>
        <time>2022-08-20T08:43:09Z</time>
      </trkpt>
      <trkpt lat="42.765922" lon="-7.450315">
        <ele>550.570</ele>
        <time>2022-08-20T08:43:13Z</time>
      </trkpt>
      <trkpt lat="42.765948" lon="-7.450375">
        <ele>550.643</ele>
        <time>2022-08-20T08:43:18Z</time>
      </trkpt>
      <trkpt lat="42.765983" lon="-7.450426">
        <ele>550.768</ele>
        <time>2022-08-20T08:43:23Z</time>
      </trkpt>
      <trkpt lat="42.766015" lon="-7.450482">
        <ele>551.078</ele>
        <time>2022-08-20T08:43:27Z</time>
      </trkpt>
      <trkpt lat="42.766055" lon="-7.450529">
        <ele>551.357</ele>
        <time>2022-08-20T08:43:31Z</time>
      </trkpt>
      <trkpt lat="42.766088" lon="-7.450592">
        <ele>551.556</ele>
        <time>2022-08-20T08:43:35Z</time>
      </trkpt>
      <trkpt lat="42.766117" lon="-7.450640">
        <ele>551.659</ele>
        <time>2022-08-20T08:43:39Z</time>
      </trkpt>
      <trkpt lat="42.766153" lon="-7.450683">
        <ele>551.814</ele>
        <time>2022-08-20T08:43:43Z</time>
      </trkpt>
      <trkpt lat="42.766191" lon="-7.450738">
        <ele>552.009</ele>
        <time>2022-08-20T08:43:48Z</time>
      </trkpt>
      <trkpt lat="42.766233" lon="-7.450785">
        <ele>552.256</ele>
        <time>2022-08-20T08:43:52Z</time>
      </trkpt>
      <trkpt lat="42.766275" lon="-7.450827">
        <ele>552.596</ele>
        <time>2022-08-20T08:43:55Z</time>
      </trkpt>
      <trkpt lat="42.766308" lon="-7.450887">
        <ele>552.916</ele>
        <time>2022-08-20T08:43:58Z</time>
      </trkpt>
      <trkpt lat="42.766344" lon="-7.450942">
        <ele>553.327</ele>
        <time>2022-08-20T08:44:02Z</time>
      </trkpt>
      <trkpt lat="42.766389" lon="-7.450994">
        <ele>553.687</ele>
        <time>2022-08-20T08:44:07Z</time>
      </trkpt>
      <trkpt lat="42.766418" lon="-7.451049">
        <ele>554.010</ele>
        <time>2022-08-20T08:44:11Z</time>
      </trkpt>
      <trkpt lat="42.766454" lon="-7.451106">
        <ele>554.415</ele>
        <time>2022-08-20T08:44:15Z</time>
      </trkpt>
      <trkpt lat="42.766483" lon="-7.451154">
        <ele>554.615</ele>
        <time>2022-08-20T08:44:20Z</time>
      </trkpt>
      <trkpt lat="42.766524" lon="-7.451201">
        <ele>555.044</ele>
        <time>2022-08-20T08:44:24Z</time>
      </trkpt>
      <trkpt lat="42.766569" lon="-7.451251">
        <ele>555.495</ele>
        <time>2022-08-20T08:44:29Z</time>
      </trkpt>
      <trkpt lat="42.766615" lon="-7.451286">
        <ele>555.849</ele>
        <time>2022-08-20T08:44:33Z</time>
      </trkpt>
      <trkpt lat="42.766654" lon="-7.451327">
        <ele>556.323</ele>
        <time>2022-08-20T08:44:36Z</time>
      </trkpt>
      <trkpt lat="42.766699" lon="-7.451374">
        <ele>557.109</ele>
        <time>2022-08-20T08:44:40Z</time>
      </trkpt>
      <trkpt lat="42.766746" lon="-7.451417">
        <ele>557.440</ele>
        <time>2022-08-20T08:44:44Z</time>
      </trkpt>
      <trkpt lat="42.766789" lon="-7.451453">
        <ele>557.670</ele>
        <time>2022-08-20T08:44:48Z</time>
      </trkpt>
      <trkpt lat="42.766837" lon="-7.451494">
        <ele>558.010</ele>
        <time>2022-08-20T08:44:52Z</time>
      </trkpt>
      <trkpt lat="42.766885" lon="-7.451544">
        <ele>558.541</ele>
        <time>2022-08-20T08:44:56Z</time>
      </trkpt>
      <trkpt lat="42.766925" lon="-7.451578">
        <ele>558.811</ele>
        <time>2022-08-20T08:44:59Z</time>
      </trkpt>
      <trkpt lat="42.766972" lon="-7.451624">
        <ele>559.214</ele>
        <time>2022-08-20T08:45:03Z</time>
      </trkpt>
      <trkpt lat="42.767017" lon="-7.451661">
        <ele>559.569</ele>
        <time>2022-08-20T08:45:07Z</time>
      </trkpt>
      <trkpt lat="42.767062" lon="-7.451703">
        <ele>559.789</ele>
        <time>2022-08-20T08:45:11Z</time>
      </trkpt>
      <trkpt lat="42.767100" lon="-7.451741">
        <ele>559.988</ele>
        <time>2022-08-20T08:45:15Z</time>
      </trkpt>
      <trkpt lat="42.767145" lon="-7.451787">
        <ele>560.294</ele>
        <time>2022-08-20T08:45:19Z</time>
      </trkpt>
      <trkpt lat="42.767183" lon="-7.451821">
        <ele>560.557</ele>
        <time>2022-08-20T08:45:22Z</time>
      </trkpt>
      <trkpt lat="42.767221" lon="-7.451857">
        <ele>560.822</ele>
        <time>2022-08-20T08:45:25Z</time>
      </trkpt>
      <trkpt lat="42.767267" lon="-7.451904">
        <ele>561.109</ele>
        <time>2022-08-20T08:45:29Z</time>
      </trkpt>
      <trkpt lat="42.767313" lon="-7.451935">
        <ele>561.310</ele>
        <time>2022-08-20T08:45:33Z</time>
      </trkpt>
      <trkpt lat="42.767357" lon="-7.451971">
        <ele>561.690</ele>
        <time>2022-08-20T08:45:37Z</time>
      </trkpt>
      <trkpt lat="42.767401" lon="-7.451999">
        <ele>561.950</ele>
        <time>2022-08-20T08:45:41Z</time>
      </trkpt>
      <trkpt lat="42.767443" lon="-7.452040">
        <ele>562.241</ele>
        <time>2022-08-20T08:45:45Z</time>
      </trkpt>
      <trkpt lat="42.767493" lon="-7.452074">
        <ele>562.531</ele>
        <time>2022-08-20T08:45:50Z</time>
      </trkpt>
      <trkpt lat="42.767548" lon="-7.452098">
        <ele>562.874</ele>
        <time>2022-08-20T08:45:56Z</time>
      </trkpt>
      <trkpt lat="42.767592" lon="-7.452144">
        <ele>563.269</ele>
        <time>2022-08-20T08:46:00Z</time>
      </trkpt>
      <trkpt lat="42.767648" lon="-7.452178">
        <ele>563.999</ele>
        <time>2022-08-20T08:46:05Z</time>
      </trkpt>
      <trkpt lat="42.767690" lon="-7.452206">
        <ele>564.328</ele>
        <time>2022-08-20T08:46:08Z</time>
      </trkpt>
      <trkpt lat="42.767738" lon="-7.452241">
        <ele>564.875</ele>
        <time>2022-08-20T08:46:12Z</time>
      </trkpt>
      <trkpt lat="42.767792" lon="-7.452285">
        <ele>565.228</ele>
        <time>2022-08-20T08:46:16Z</time>
      </trkpt>
      <trkpt lat="42.767839" lon="-7.452311">
        <ele>565.620</ele>
        <time>2022-08-20T08:46:20Z</time>
      </trkpt>
      <trkpt lat="42.767889" lon="-7.452347">
        <ele>565.909</ele>
        <time>2022-08-20T08:46:24Z</time>
      </trkpt>
      <trkpt lat="42.767939" lon="-7.452371">
        <ele>566.398</ele>
        <time>2022-08-20T08:46:28Z</time>
      </trkpt>
      <trkpt lat="42.767976" lon="-7.452410">
        <ele>566.798</ele>
        <time>2022-08-20T08:46:31Z</time>
      </trkpt>
      <trkpt lat="42.768023" lon="-7.452438">
        <ele>566.998</ele>
        <time>2022-08-20T08:46:35Z</time>
      </trkpt>
      <trkpt lat="42.768070" lon="-7.452464">
        <ele>567.259</ele>
        <time>2022-08-20T08:46:39Z</time>
      </trkpt>
      <trkpt lat="42.768120" lon="-7.452506">
        <ele>567.559</ele>
        <time>2022-08-20T08:46:43Z</time>
      </trkpt>
      <trkpt lat="42.768172" lon="-7.452548">
        <ele>567.842</ele>
        <time>2022-08-20T08:46:47Z</time>
      </trkpt>
      <trkpt lat="42.768221" lon="-7.452580">
        <ele>568.237</ele>
        <time>2022-08-20T08:46:51Z</time>
      </trkpt>
      <trkpt lat="42.768265" lon="-7.452620">
        <ele>568.527</ele>
        <time>2022-08-20T08:46:55Z</time>
      </trkpt>
      <trkpt lat="42.768307" lon="-7.452670">
        <ele>568.796</ele>
        <time>2022-08-20T08:46:59Z</time>
      </trkpt>
      <trkpt lat="42.768353" lon="-7.452713">
        <ele>568.998</ele>
        <time>2022-08-20T08:47:03Z</time>
      </trkpt>
      <trkpt lat="42.768406" lon="-7.452742">
        <ele>569.315</ele>
        <time>2022-08-20T08:47:07Z</time>
      </trkpt>
      <trkpt lat="42.768449" lon="-7.452773">
        <ele>569.626</ele>
        <time>2022-08-20T08:47:10Z</time>
      </trkpt>
      <trkpt lat="42.768498" lon="-7.452801">
        <ele>569.909</ele>
        <time>2022-08-20T08:47:14Z</time>
      </trkpt>
      <trkpt lat="42.768547" lon="-7.452837">
        <ele>570.290</ele>
        <time>2022-08-20T08:47:18Z</time>
      </trkpt>
      <trkpt lat="42.768591" lon="-7.452875">
        <ele>570.390</ele>
        <time>2022-08-20T08:47:22Z</time>
      </trkpt>
      <trkpt lat="42.768628" lon="-7.452919">
        <ele>570.670</ele>
        <time>2022-08-20T08:47:26Z</time>
      </trkpt>
      <trkpt lat="42.768668" lon="-7.452966">
        <ele>570.921</ele>
        <time>2022-08-20T08:47:30Z</time>
      </trkpt>
      <trkpt lat="42.768706" lon="-7.453026">
        <ele>571.261</ele>
        <time>2022-08-20T08:47:34Z</time>
      </trkpt>
      <trkpt lat="42.768744" lon="-7.453077">
        <ele>571.524</ele>
        <time>2022-08-20T08:47:38Z</time>
      </trkpt>
      <trkpt lat="42.768781" lon="-7.453123">
        <ele>571.769</ele>
        <time>2022-08-20T08:47:42Z</time>
      </trkpt>
      <trkpt lat="42.768818" lon="-7.453188">
        <ele>572.089</ele>
        <time>2022-08-20T08:47:46Z</time>
      </trkpt>
      <trkpt lat="42.768851" lon="-7.453249">
        <ele>572.268</ele>
        <time>2022-08-20T08:47:50Z</time>
      </trkpt>
      <trkpt lat="42.768885" lon="-7.453306">
        <ele>572.327</ele>
        <time>2022-08-20T08:47:54Z</time>
      </trkpt>
      <trkpt lat="42.768917" lon="-7.453354">
        <ele>572.468</ele>
        <time>2022-08-20T08:47:57Z</time>
      </trkpt>
      <trkpt lat="42.768953" lon="-7.453417">
        <ele>572.714</ele>
        <time>2022-08-20T08:48:01Z</time>
      </trkpt>
      <trkpt lat="42.768993" lon="-7.453472">
        <ele>572.909</ele>
        <time>2022-08-20T08:48:05Z</time>
      </trkpt>
      <trkpt lat="42.769029" lon="-7.453524">
        <ele>573.053</ele>
        <time>2022-08-20T08:48:09Z</time>
      </trkpt>
      <trkpt lat="42.769054" lon="-7.453581">
        <ele>573.183</ele>
        <time>2022-08-20T08:48:13Z</time>
      </trkpt>
      <trkpt lat="42.769082" lon="-7.453632">
        <ele>573.253</ele>
        <time>2022-08-20T08:48:17Z</time>
      </trkpt>
      <trkpt lat="42.769118" lon="-7.453687">
        <ele>573.334</ele>
        <time>2022-08-20T08:48:21Z</time>
      </trkpt>
      <trkpt lat="42.769155" lon="-7.453748">
        <ele>573.414</ele>
        <time>2022-08-20T08:48:25Z</time>
      </trkpt>
      <trkpt lat="42.769184" lon="-7.453814">
        <ele>573.677</ele>
        <time>2022-08-20T08:48:30Z</time>
      </trkpt>
      <trkpt lat="42.769199" lon="-7.453878">
        <ele>573.862</ele>
        <time>2022-08-20T08:48:34Z</time>
      </trkpt>
      <trkpt lat="42.769223" lon="-7.453950">
        <ele>574.142</ele>
        <time>2022-08-20T08:48:39Z</time>
      </trkpt>
      <trkpt lat="42.769239" lon="-7.454009">
        <ele>574.251</ele>
        <time>2022-08-20T08:48:42Z</time>
      </trkpt>
      <trkpt lat="42.769262" lon="-7.454068">
        <ele>574.573</ele>
        <time>2022-08-20T08:48:46Z</time>
      </trkpt>
      <trkpt lat="42.769278" lon="-7.454134">
        <ele>574.885</ele>
        <time>2022-08-20T08:48:50Z</time>
      </trkpt>
      <trkpt lat="42.769293" lon="-7.454197">
        <ele>575.013</ele>
        <time>2022-08-20T08:48:54Z</time>
      </trkpt>
      <trkpt lat="42.769312" lon="-7.454258">
        <ele>575.309</ele>
        <time>2022-08-20T08:48:58Z</time>
      </trkpt>
      <trkpt lat="42.769325" lon="-7.454330">
        <ele>575.628</ele>
        <time>2022-08-20T08:49:03Z</time>
      </trkpt>
      <trkpt lat="42.769336" lon="-7.454390">
        <ele>575.888</ele>
        <time>2022-08-20T08:49:07Z</time>
      </trkpt>
      <trkpt lat="42.769359" lon="-7.454451">
        <ele>576.128</ele>
        <time>2022-08-20T08:49:11Z</time>
      </trkpt>
      <trkpt lat="42.769380" lon="-7.454518">
        <ele>576.479</ele>
        <time>2022-08-20T08:49:17Z</time>
      </trkpt>
      <trkpt lat="42.769385" lon="-7.454580">
        <ele>576.779</ele>
        <time>2022-08-20T08:49:21Z</time>
      </trkpt>
      <trkpt lat="42.769385" lon="-7.454648">
        <ele>577.112</ele>
        <time>2022-08-20T08:49:26Z</time>
      </trkpt>
      <trkpt lat="42.769398" lon="-7.454719">
        <ele>577.537</ele>
        <time>2022-08-20T08:49:31Z</time>
      </trkpt>
      <trkpt lat="42.769402" lon="-7.454787">
        <ele>577.987</ele>
        <time>2022-08-20T08:49:35Z</time>
      </trkpt>
      <trkpt lat="42.769405" lon="-7.454856">
        <ele>578.366</ele>
        <time>2022-08-20T08:49:40Z</time>
      </trkpt>
      <trkpt lat="42.769402" lon="-7.454942">
        <ele>578.774</ele>
        <time>2022-08-20T08:49:44Z</time>
      </trkpt>
      <trkpt lat="42.769409" lon="-7.455005">
        <ele>579.156</ele>
        <time>2022-08-20T08:49:48Z</time>
      </trkpt>
      <trkpt lat="42.769425" lon="-7.455073">
        <ele>579.521</ele>
        <time>2022-08-20T08:49:51Z</time>
      </trkpt>
      <trkpt lat="42.769430" lon="-7.455138">
        <ele>579.809</ele>
        <time>2022-08-20T08:49:54Z</time>
      </trkpt>
      <trkpt lat="42.769437" lon="-7.455213">
        <ele>580.158</ele>
        <time>2022-08-20T08:49:57Z</time>
      </trkpt>
      <trkpt lat="42.769446" lon="-7.455273">
        <ele>580.468</ele>
        <time>2022-08-20T08:50:00Z</time>
      </trkpt>
      <trkpt lat="42.769450" lon="-7.455346">
        <ele>580.788</ele>
        <time>2022-08-20T08:50:04Z</time>
      </trkpt>
      <trkpt lat="42.769456" lon="-7.455414">
        <ele>581.079</ele>
        <time>2022-08-20T08:50:08Z</time>
      </trkpt>
      <trkpt lat="42.769477" lon="-7.455489">
        <ele>581.489</ele>
        <time>2022-08-20T08:50:11Z</time>
      </trkpt>
      <trkpt lat="42.769500" lon="-7.455548">
        <ele>581.852</ele>
        <time>2022-08-20T08:50:14Z</time>
      </trkpt>
      <trkpt lat="42.769522" lon="-7.455607">
        <ele>582.277</ele>
        <time>2022-08-20T08:50:18Z</time>
      </trkpt>
      <trkpt lat="42.769535" lon="-7.455672">
        <ele>582.697</ele>
        <time>2022-08-20T08:50:21Z</time>
      </trkpt>
      <trkpt lat="42.769545" lon="-7.455735">
        <ele>583.086</ele>
        <time>2022-08-20T08:50:25Z</time>
      </trkpt>
      <trkpt lat="42.769555" lon="-7.455810">
        <ele>583.477</ele>
        <time>2022-08-20T08:50:29Z</time>
      </trkpt>
      <trkpt lat="42.769565" lon="-7.455877">
        <ele>583.961</ele>
        <time>2022-08-20T08:50:33Z</time>
      </trkpt>
      <trkpt lat="42.769577" lon="-7.455956">
        <ele>584.527</ele>
        <time>2022-08-20T08:50:39Z</time>
      </trkpt>
      <trkpt lat="42.769575" lon="-7.456036">
        <ele>585.509</ele>
        <time>2022-08-20T08:50:45Z</time>
      </trkpt>
      <trkpt lat="42.769550" lon="-7.456101">
        <ele>586.678</ele>
        <time>2022-08-20T08:50:49Z</time>
      </trkpt>
      <trkpt lat="42.769526" lon="-7.456155">
        <ele>587.178</ele>
        <time>2022-08-20T08:50:52Z</time>
      </trkpt>
      <trkpt lat="42.769495" lon="-7.456202">
        <ele>587.858</ele>
        <time>2022-08-20T08:50:55Z</time>
      </trkpt>
      <trkpt lat="42.769458" lon="-7.456259">
        <ele>588.249</ele>
        <time>2022-08-20T08:50:59Z</time>
      </trkpt>
      <trkpt lat="42.769431" lon="-7.456326">
        <ele>588.529</ele>
        <time>2022-08-20T08:51:03Z</time>
      </trkpt>
      <trkpt lat="42.769406" lon="-7.456397">
        <ele>588.832</ele>
        <time>2022-08-20T08:51:07Z</time>
      </trkpt>
      <trkpt lat="42.769367" lon="-7.456456">
        <ele>589.357</ele>
        <time>2022-08-20T08:51:11Z</time>
      </trkpt>
      <trkpt lat="42.769334" lon="-7.456500">
        <ele>589.787</ele>
        <time>2022-08-20T08:51:14Z</time>
      </trkpt>
      <trkpt lat="42.769297" lon="-7.456555">
        <ele>590.136</ele>
        <time>2022-08-20T08:51:18Z</time>
      </trkpt>
      <trkpt lat="42.769257" lon="-7.456598">
        <ele>590.294</ele>
        <time>2022-08-20T08:51:22Z</time>
      </trkpt>
      <trkpt lat="42.769219" lon="-7.456636">
        <ele>590.557</ele>
        <time>2022-08-20T08:51:25Z</time>
      </trkpt>
      <trkpt lat="42.769179" lon="-7.456676">
        <ele>590.822</ele>
        <time>2022-08-20T08:51:29Z</time>
      </trkpt>
      <trkpt lat="42.769135" lon="-7.456722">
        <ele>591.009</ele>
        <time>2022-08-20T08:51:33Z</time>
      </trkpt>
      <trkpt lat="42.769087" lon="-7.456764">
        <ele>591.290</ele>
        <time>2022-08-20T08:51:37Z</time>
      </trkpt>
      <trkpt lat="42.769044" lon="-7.456816">
        <ele>591.520</ele>
        <time>2022-08-20T08:51:41Z</time>
      </trkpt>
      <trkpt lat="42.768997" lon="-7.456860">
        <ele>591.930</ele>
        <time>2022-08-20T08:51:45Z</time>
      </trkpt>
      <trkpt lat="42.768954" lon="-7.456913">
        <ele>592.141</ele>
        <time>2022-08-20T08:51:49Z</time>
      </trkpt>
      <trkpt lat="42.768916" lon="-7.456962">
        <ele>592.451</ele>
        <time>2022-08-20T08:51:53Z</time>
      </trkpt>
      <trkpt lat="42.768875" lon="-7.457009">
        <ele>592.614</ele>
        <time>2022-08-20T08:51:57Z</time>
      </trkpt>
      <trkpt lat="42.768846" lon="-7.457058">
        <ele>592.719</ele>
        <time>2022-08-20T08:52:02Z</time>
      </trkpt>
      <trkpt lat="42.768818" lon="-7.457120">
        <ele>592.989</ele>
        <time>2022-08-20T08:52:07Z</time>
      </trkpt>
      <trkpt lat="42.768806" lon="-7.457182">
        <ele>593.318</ele>
        <time>2022-08-20T08:52:11Z</time>
      </trkpt>
      <trkpt lat="42.768784" lon="-7.457247">
        <ele>593.843</ele>
        <time>2022-08-20T08:52:17Z</time>
      </trkpt>
      <trkpt lat="42.768769" lon="-7.457317">
        <ele>594.364</ele>
        <time>2022-08-20T08:52:22Z</time>
      </trkpt>
      <trkpt lat="42.768761" lon="-7.457382">
        <ele>594.810</ele>
        <time>2022-08-20T08:52:26Z</time>
      </trkpt>
      <trkpt lat="42.768744" lon="-7.457441">
        <ele>595.309</ele>
        <time>2022-08-20T08:52:30Z</time>
      </trkpt>
      <trkpt lat="42.768708" lon="-7.457488">
        <ele>595.545</ele>
        <time>2022-08-20T08:52:34Z</time>
      </trkpt>
      <trkpt lat="42.768679" lon="-7.457543">
        <ele>595.575</ele>
        <time>2022-08-20T08:52:40Z</time>
      </trkpt>
      <trkpt lat="42.768662" lon="-7.457618">
        <ele>595.595</ele>
        <time>2022-08-20T08:52:45Z</time>
      </trkpt>
      <trkpt lat="42.768630" lon="-7.457667">
        <ele>595.426</ele>
        <time>2022-08-20T08:52:49Z</time>
      </trkpt>
      <trkpt lat="42.768586" lon="-7.457721">
        <ele>595.416</ele>
        <time>2022-08-20T08:52:53Z</time>
      </trkpt>
      <trkpt lat="42.768549" lon="-7.457774">
        <ele>595.419</ele>
        <time>2022-08-20T08:52:57Z</time>
      </trkpt>
      <trkpt lat="42.768528" lon="-7.457832">
        <ele>595.464</ele>
        <time>2022-08-20T08:53:01Z</time>
      </trkpt>
      <trkpt lat="42.768497" lon="-7.457885">
        <ele>595.624</ele>
        <time>2022-08-20T08:53:04Z</time>
      </trkpt>
      <trkpt lat="42.768471" lon="-7.457946">
        <ele>595.823</ele>
        <time>2022-08-20T08:53:07Z</time>
      </trkpt>
      <trkpt lat="42.768459" lon="-7.458006">
        <ele>596.064</ele>
        <time>2022-08-20T08:53:11Z</time>
      </trkpt>
      <trkpt lat="42.768436" lon="-7.458071">
        <ele>596.206</ele>
        <time>2022-08-20T08:53:15Z</time>
      </trkpt>
      <trkpt lat="42.768417" lon="-7.458128">
        <ele>596.416</ele>
        <time>2022-08-20T08:53:19Z</time>
      </trkpt>
      <trkpt lat="42.768403" lon="-7.458190">
        <ele>596.509</ele>
        <time>2022-08-20T08:53:23Z</time>
      </trkpt>
      <trkpt lat="42.768393" lon="-7.458252">
        <ele>596.587</ele>
        <time>2022-08-20T08:53:27Z</time>
      </trkpt>
      <trkpt lat="42.768381" lon="-7.458314">
        <ele>596.547</ele>
        <time>2022-08-20T08:53:31Z</time>
      </trkpt>
      <trkpt lat="42.768362" lon="-7.458390">
        <ele>596.517</ele>
        <time>2022-08-20T08:53:35Z</time>
      </trkpt>
      <trkpt lat="42.768333" lon="-7.458455">
        <ele>596.558</ele>
        <time>2022-08-20T08:53:38Z</time>
      </trkpt>
      <trkpt lat="42.768314" lon="-7.458523">
        <ele>596.588</ele>
        <time>2022-08-20T08:53:41Z</time>
      </trkpt>
      <trkpt lat="42.768293" lon="-7.458579">
        <ele>596.511</ele>
        <time>2022-08-20T08:53:45Z</time>
      </trkpt>
      <trkpt lat="42.768276" lon="-7.458641">
        <ele>596.496</ele>
        <time>2022-08-20T08:53:48Z</time>
      </trkpt>
      <trkpt lat="42.768247" lon="-7.458698">
        <ele>596.336</ele>
        <time>2022-08-20T08:53:51Z</time>
      </trkpt>
      <trkpt lat="42.768213" lon="-7.458750">
        <ele>596.145</ele>
        <time>2022-08-20T08:53:55Z</time>
      </trkpt>
      <trkpt lat="42.768170" lon="-7.458798">
        <ele>595.935</ele>
        <time>2022-08-20T08:53:58Z</time>
      </trkpt>
      <trkpt lat="42.768127" lon="-7.458850">
        <ele>595.786</ele>
        <time>2022-08-20T08:54:02Z</time>
      </trkpt>
      <trkpt lat="42.768090" lon="-7.458903">
        <ele>595.514</ele>
        <time>2022-08-20T08:54:06Z</time>
      </trkpt>
      <trkpt lat="42.768071" lon="-7.458965">
        <ele>595.309</ele>
        <time>2022-08-20T08:54:10Z</time>
      </trkpt>
      <trkpt lat="42.768088" lon="-7.459029">
        <ele>595.024</ele>
        <time>2022-08-20T08:54:15Z</time>
      </trkpt>
      <trkpt lat="42.768117" lon="-7.459078">
        <ele>594.994</ele>
        <time>2022-08-20T08:54:18Z</time>
      </trkpt>
      <trkpt lat="42.768136" lon="-7.459134">
        <ele>594.924</ele>
        <time>2022-08-20T08:54:23Z</time>
      </trkpt>
      <trkpt lat="42.768163" lon="-7.459185">
        <ele>594.995</ele>
        <time>2022-08-20T08:54:27Z</time>
      </trkpt>
      <trkpt lat="42.768184" lon="-7.459242">
        <ele>595.165</ele>
        <time>2022-08-20T08:54:30Z</time>
      </trkpt>
      <trkpt lat="42.768222" lon="-7.459297">
        <ele>595.418</ele>
        <time>2022-08-20T08:54:34Z</time>
      </trkpt>
      <trkpt lat="42.768259" lon="-7.459339">
        <ele>595.693</ele>
        <time>2022-08-20T08:54:38Z</time>
      </trkpt>
      <trkpt lat="42.768293" lon="-7.459384">
        <ele>595.973</ele>
        <time>2022-08-20T08:54:41Z</time>
      </trkpt>
      <trkpt lat="42.768333" lon="-7.459424">
        <ele>596.362</ele>
        <time>2022-08-20T08:54:44Z</time>
      </trkpt>
      <trkpt lat="42.768364" lon="-7.459472">
        <ele>596.735</ele>
        <time>2022-08-20T08:54:47Z</time>
      </trkpt>
      <trkpt lat="42.768401" lon="-7.459512">
        <ele>596.986</ele>
        <time>2022-08-20T08:54:51Z</time>
      </trkpt>
      <trkpt lat="42.768450" lon="-7.459538">
        <ele>597.114</ele>
        <time>2022-08-20T08:54:55Z</time>
      </trkpt>
      <trkpt lat="42.768493" lon="-7.459561">
        <ele>597.309</ele>
        <time>2022-08-20T08:54:59Z</time>
      </trkpt>
      <trkpt lat="42.768545" lon="-7.459601">
        <ele>597.524</ele>
        <time>2022-08-20T08:55:03Z</time>
      </trkpt>
      <trkpt lat="42.768597" lon="-7.459632">
        <ele>597.754</ele>
        <time>2022-08-20T08:55:07Z</time>
      </trkpt>
      <trkpt lat="42.768643" lon="-7.459672">
        <ele>597.954</ele>
        <time>2022-08-20T08:55:11Z</time>
      </trkpt>
      <trkpt lat="42.768678" lon="-7.459721">
        <ele>598.015</ele>
        <time>2022-08-20T08:55:15Z</time>
      </trkpt>
      <trkpt lat="42.768716" lon="-7.459771">
        <ele>598.385</ele>
        <time>2022-08-20T08:55:19Z</time>
      </trkpt>
      <trkpt lat="42.768752" lon="-7.459834">
        <ele>598.598</ele>
        <time>2022-08-20T08:55:23Z</time>
      </trkpt>
      <trkpt lat="42.768776" lon="-7.459902">
        <ele>598.513</ele>
        <time>2022-08-20T08:55:28Z</time>
      </trkpt>
      <trkpt lat="42.768806" lon="-7.459963">
        <ele>598.543</ele>
        <time>2022-08-20T08:55:32Z</time>
      </trkpt>
      <trkpt lat="42.768836" lon="-7.460014">
        <ele>598.562</ele>
        <time>2022-08-20T08:55:37Z</time>
      </trkpt>
      <trkpt lat="42.768866" lon="-7.460070">
        <ele>598.455</ele>
        <time>2022-08-20T08:55:41Z</time>
      </trkpt>
      <trkpt lat="42.768894" lon="-7.460131">
        <ele>598.207</ele>
        <time>2022-08-20T08:55:46Z</time>
      </trkpt>
      <trkpt lat="42.768931" lon="-7.460179">
        <ele>598.117</ele>
        <time>2022-08-20T08:55:50Z</time>
      </trkpt>
      <trkpt lat="42.768947" lon="-7.460241">
        <ele>598.009</ele>
        <time>2022-08-20T08:55:55Z</time>
      </trkpt>
      <trkpt lat="42.768959" lon="-7.460310">
        <ele>597.866</ele>
        <time>2022-08-20T08:56:01Z</time>
      </trkpt>
      <trkpt lat="42.768983" lon="-7.460370">
        <ele>597.516</ele>
        <time>2022-08-20T08:56:06Z</time>
      </trkpt>
      <trkpt lat="42.769015" lon="-7.460433">
        <ele>597.026</ele>
        <time>2022-08-20T08:56:10Z</time>
      </trkpt>
      <trkpt lat="42.769040" lon="-7.460500">
        <ele>596.427</ele>
        <time>2022-08-20T08:56:14Z</time>
      </trkpt>
      <trkpt lat="42.769069" lon="-7.460557">
        <ele>596.037</ele>
        <time>2022-08-20T08:56:17Z</time>
      </trkpt>
      <trkpt lat="42.769095" lon="-7.460610">
        <ele>595.820</ele>
        <time>2022-08-20T08:56:20Z</time>
      </trkpt>
      <trkpt lat="42.769130" lon="-7.460677">
        <ele>595.685</ele>
        <time>2022-08-20T08:56:24Z</time>
      </trkpt>
      <trkpt lat="42.769148" lon="-7.460745">
        <ele>595.625</ele>
        <time>2022-08-20T08:56:27Z</time>
      </trkpt>
      <trkpt lat="42.769167" lon="-7.460817">
        <ele>595.674</ele>
        <time>2022-08-20T08:56:30Z</time>
      </trkpt>
      <trkpt lat="42.769176" lon="-7.460885">
        <ele>595.681</ele>
        <time>2022-08-20T08:56:33Z</time>
      </trkpt>
      <trkpt lat="42.769188" lon="-7.460965">
        <ele>595.661</ele>
        <time>2022-08-20T08:56:37Z</time>
      </trkpt>
      <trkpt lat="42.769188" lon="-7.461038">
        <ele>595.617</ele>
        <time>2022-08-20T08:56:40Z</time>
      </trkpt>
      <trkpt lat="42.769180" lon="-7.461099">
        <ele>595.709</ele>
        <time>2022-08-20T08:56:43Z</time>
      </trkpt>
      <trkpt lat="42.769173" lon="-7.461161">
        <ele>595.959</ele>
        <time>2022-08-20T08:56:46Z</time>
      </trkpt>
      <trkpt lat="42.769165" lon="-7.461235">
        <ele>596.189</ele>
        <time>2022-08-20T08:56:50Z</time>
      </trkpt>
      <trkpt lat="42.769157" lon="-7.461316">
        <ele>596.329</ele>
        <time>2022-08-20T08:56:54Z</time>
      </trkpt>
      <trkpt lat="42.769153" lon="-7.461378">
        <ele>596.610</ele>
        <time>2022-08-20T08:56:57Z</time>
      </trkpt>
      <trkpt lat="42.769156" lon="-7.461459">
        <ele>596.960</ele>
        <time>2022-08-20T08:57:01Z</time>
      </trkpt>
      <trkpt lat="42.769160" lon="-7.461538">
        <ele>597.413</ele>
        <time>2022-08-20T08:57:05Z</time>
      </trkpt>
      <trkpt lat="42.769164" lon="-7.461613">
        <ele>597.858</ele>
        <time>2022-08-20T08:57:09Z</time>
      </trkpt>
      <trkpt lat="42.769163" lon="-7.461690">
        <ele>598.188</ele>
        <time>2022-08-20T08:57:13Z</time>
      </trkpt>
      <trkpt lat="42.769170" lon="-7.461762">
        <ele>598.477</ele>
        <time>2022-08-20T08:57:17Z</time>
      </trkpt>
      <trkpt lat="42.769187" lon="-7.461828">
        <ele>598.756</ele>
        <time>2022-08-20T08:57:21Z</time>
      </trkpt>
      <trkpt lat="42.769199" lon="-7.461903">
        <ele>599.059</ele>
        <time>2022-08-20T08:57:25Z</time>
      </trkpt>
      <trkpt lat="42.769217" lon="-7.461967">
        <ele>599.214</ele>
        <time>2022-08-20T08:57:29Z</time>
      </trkpt>
      <trkpt lat="42.769232" lon="-7.462033">
        <ele>599.509</ele>
        <time>2022-08-20T08:57:33Z</time>
      </trkpt>
      <trkpt lat="42.769246" lon="-7.462098">
        <ele>599.846</ele>
        <time>2022-08-20T08:57:37Z</time>
      </trkpt>
      <trkpt lat="42.769265" lon="-7.462162">
        <ele>600.256</ele>
        <time>2022-08-20T08:57:41Z</time>
      </trkpt>
      <trkpt lat="42.769281" lon="-7.462226">
        <ele>600.526</ele>
        <time>2022-08-20T08:57:45Z</time>
      </trkpt>
      <trkpt lat="42.769289" lon="-7.462294">
        <ele>600.887</ele>
        <time>2022-08-20T08:57:49Z</time>
      </trkpt>
      <trkpt lat="42.769312" lon="-7.462368">
        <ele>601.247</ele>
        <time>2022-08-20T08:57:53Z</time>
      </trkpt>
      <trkpt lat="42.769325" lon="-7.462439">
        <ele>601.760</ele>
        <time>2022-08-20T08:57:57Z</time>
      </trkpt>
      <trkpt lat="42.769338" lon="-7.462508">
        <ele>602.265</ele>
        <time>2022-08-20T08:58:01Z</time>
      </trkpt>
      <trkpt lat="42.769343" lon="-7.462573">
        <ele>602.785</ele>
        <time>2022-08-20T08:58:08Z</time>
      </trkpt>
      <trkpt lat="42.769342" lon="-7.462642">
        <ele>603.284</ele>
        <time>2022-08-20T08:58:15Z</time>
      </trkpt>
      <trkpt lat="42.769351" lon="-7.462705">
        <ele>603.861</ele>
        <time>2022-08-20T08:58:20Z</time>
      </trkpt>
      <trkpt lat="42.769342" lon="-7.462784">
        <ele>604.621</ele>
        <time>2022-08-20T08:58:24Z</time>
      </trkpt>
      <trkpt lat="42.769333" lon="-7.462848">
        <ele>605.313</ele>
        <time>2022-08-20T08:58:29Z</time>
      </trkpt>
      <trkpt lat="42.769322" lon="-7.462908">
        <ele>605.909</ele>
        <time>2022-08-20T08:58:33Z</time>
      </trkpt>
      <trkpt lat="42.769322" lon="-7.462974">
        <ele>606.537</ele>
        <time>2022-08-20T08:58:37Z</time>
      </trkpt>
      <trkpt lat="42.769306" lon="-7.463040">
        <ele>607.137</ele>
        <time>2022-08-20T08:58:42Z</time>
      </trkpt>
      <trkpt lat="42.769278" lon="-7.463109">
        <ele>607.667</ele>
        <time>2022-08-20T08:58:46Z</time>
      </trkpt>
      <trkpt lat="42.769286" lon="-7.463175">
        <ele>608.238</ele>
        <time>2022-08-20T08:58:50Z</time>
      </trkpt>
      <trkpt lat="42.769292" lon="-7.463241">
        <ele>608.988</ele>
        <time>2022-08-20T08:58:54Z</time>
      </trkpt>
      <trkpt lat="42.769323" lon="-7.463313">
        <ele>609.731</ele>
        <time>2022-08-20T08:58:57Z</time>
      </trkpt>
      <trkpt lat="42.769340" lon="-7.463385">
        <ele>610.936</ele>
        <time>2022-08-20T08:59:01Z</time>
      </trkpt>
      <trkpt lat="42.769367" lon="-7.463444">
        <ele>611.136</ele>
        <time>2022-08-20T08:59:06Z</time>
      </trkpt>
      <trkpt lat="42.769402" lon="-7.463488">
        <ele>611.735</ele>
        <time>2022-08-20T08:59:10Z</time>
      </trkpt>
      <trkpt lat="42.769431" lon="-7.463539">
        <ele>612.479</ele>
        <time>2022-08-20T08:59:14Z</time>
      </trkpt>
      <trkpt lat="42.769473" lon="-7.463593">
        <ele>613.105</ele>
        <time>2022-08-20T08:59:18Z</time>
      </trkpt>
      <trkpt lat="42.769507" lon="-7.463634">
        <ele>613.825</ele>
        <time>2022-08-20T08:59:21Z</time>
      </trkpt>
      <trkpt lat="42.769541" lon="-7.463685">
        <ele>614.509</ele>
        <time>2022-08-20T08:59:24Z</time>
      </trkpt>
      <trkpt lat="42.769575" lon="-7.463741">
        <ele>615.138</ele>
        <time>2022-08-20T08:59:29Z</time>
      </trkpt>
      <trkpt lat="42.769598" lon="-7.463796">
        <ele>615.538</ele>
        <time>2022-08-20T08:59:33Z</time>
      </trkpt>
      <trkpt lat="42.769608" lon="-7.463866">
        <ele>616.128</ele>
        <time>2022-08-20T08:59:39Z</time>
      </trkpt>
      <trkpt lat="42.769614" lon="-7.463935">
        <ele>616.889</ele>
        <time>2022-08-20T08:59:44Z</time>
      </trkpt>
      <trkpt lat="42.769629" lon="-7.464007">
        <ele>617.669</ele>
        <time>2022-08-20T08:59:49Z</time>
      </trkpt>
      <trkpt lat="42.769645" lon="-7.464076">
        <ele>618.322</ele>
        <time>2022-08-20T08:59:53Z</time>
      </trkpt>
      <trkpt lat="42.769660" lon="-7.464145">
        <ele>618.847</ele>
        <time>2022-08-20T08:59:58Z</time>
      </trkpt>
      <trkpt lat="42.769664" lon="-7.464227">
        <ele>619.437</ele>
        <time>2022-08-20T09:00:02Z</time>
      </trkpt>
      <trkpt lat="42.769677" lon="-7.464293">
        <ele>619.856</ele>
        <time>2022-08-20T09:00:05Z</time>
      </trkpt>
      <trkpt lat="42.769681" lon="-7.464359">
        <ele>620.022</ele>
        <time>2022-08-20T09:00:08Z</time>
      </trkpt>
      <trkpt lat="42.769674" lon="-7.464439">
        <ele>620.462</ele>
        <time>2022-08-20T09:00:11Z</time>
      </trkpt>
      <trkpt lat="42.769682" lon="-7.464500">
        <ele>620.508</ele>
        <time>2022-08-20T09:00:14Z</time>
      </trkpt>
      <trkpt lat="42.769682" lon="-7.464569">
        <ele>620.709</ele>
        <time>2022-08-20T09:00:18Z</time>
      </trkpt>
      <trkpt lat="42.769685" lon="-7.464641">
        <ele>620.913</ele>
        <time>2022-08-20T09:00:22Z</time>
      </trkpt>
      <trkpt lat="42.769680" lon="-7.464708">
        <ele>621.273</ele>
        <time>2022-08-20T09:00:26Z</time>
      </trkpt>
      <trkpt lat="42.769685" lon="-7.464777">
        <ele>621.653</ele>
        <time>2022-08-20T09:00:30Z</time>
      </trkpt>
      <trkpt lat="42.769715" lon="-7.464835">
        <ele>622.044</ele>
        <time>2022-08-20T09:00:35Z</time>
      </trkpt>
      <trkpt lat="42.769755" lon="-7.464883">
        <ele>622.444</ele>
        <time>2022-08-20T09:00:40Z</time>
      </trkpt>
      <trkpt lat="42.769808" lon="-7.464919">
        <ele>622.777</ele>
        <time>2022-08-20T09:00:47Z</time>
      </trkpt>
      <trkpt lat="42.769851" lon="-7.464976">
        <ele>623.312</ele>
        <time>2022-08-20T09:00:51Z</time>
      </trkpt>
      <trkpt lat="42.769883" lon="-7.465025">
        <ele>624.032</ele>
        <time>2022-08-20T09:00:54Z</time>
      </trkpt>
      <trkpt lat="42.769914" lon="-7.465075">
        <ele>624.261</ele>
        <time>2022-08-20T09:00:59Z</time>
      </trkpt>
      <trkpt lat="42.769956" lon="-7.465127">
        <ele>624.698</ele>
        <time>2022-08-20T09:01:03Z</time>
      </trkpt>
      <trkpt lat="42.769986" lon="-7.465190">
        <ele>624.715</ele>
        <time>2022-08-20T09:01:06Z</time>
      </trkpt>
      <trkpt lat="42.770009" lon="-7.465247">
        <ele>624.926</ele>
        <time>2022-08-20T09:01:09Z</time>
      </trkpt>
      <trkpt lat="42.770034" lon="-7.465302">
        <ele>625.109</ele>
        <time>2022-08-20T09:01:12Z</time>
      </trkpt>
      <trkpt lat="42.770051" lon="-7.465370">
        <ele>625.370</ele>
        <time>2022-08-20T09:01:16Z</time>
      </trkpt>
      <trkpt lat="42.770074" lon="-7.465438">
        <ele>625.570</ele>
        <time>2022-08-20T09:01:20Z</time>
      </trkpt>
      <trkpt lat="42.770083" lon="-7.465505">
        <ele>625.890</ele>
        <time>2022-08-20T09:01:24Z</time>
      </trkpt>
      <trkpt lat="42.770093" lon="-7.465572">
        <ele>626.151</ele>
        <time>2022-08-20T09:01:27Z</time>
      </trkpt>
      <trkpt lat="42.770101" lon="-7.465657">
        <ele>626.651</ele>
        <time>2022-08-20T09:01:31Z</time>
      </trkpt>
      <trkpt lat="42.770111" lon="-7.465726">
        <ele>626.824</ele>
        <time>2022-08-20T09:01:34Z</time>
      </trkpt>
      <trkpt lat="42.770097" lon="-7.465786">
        <ele>626.979</ele>
        <time>2022-08-20T09:01:37Z</time>
      </trkpt>
      <trkpt lat="42.770102" lon="-7.465851">
        <ele>627.289</ele>
        <time>2022-08-20T09:01:41Z</time>
      </trkpt>
      <trkpt lat="42.770113" lon="-7.465923">
        <ele>627.458</ele>
        <time>2022-08-20T09:01:45Z</time>
      </trkpt>
      <trkpt lat="42.770115" lon="-7.465996">
        <ele>627.748</ele>
        <time>2022-08-20T09:01:49Z</time>
      </trkpt>
      <trkpt lat="42.770121" lon="-7.466064">
        <ele>628.161</ele>
        <time>2022-08-20T09:01:53Z</time>
      </trkpt>
      <trkpt lat="42.770137" lon="-7.466134">
        <ele>628.517</ele>
        <time>2022-08-20T09:01:58Z</time>
      </trkpt>
      <trkpt lat="42.770155" lon="-7.466203">
        <ele>628.909</ele>
        <time>2022-08-20T09:02:03Z</time>
      </trkpt>
      <trkpt lat="42.770175" lon="-7.466273">
        <ele>629.365</ele>
        <time>2022-08-20T09:02:08Z</time>
      </trkpt>
      <trkpt lat="42.770195" lon="-7.466344">
        <ele>629.735</ele>
        <time>2022-08-20T09:02:12Z</time>
      </trkpt>
      <trkpt lat="42.770221" lon="-7.466395">
        <ele>629.995</ele>
        <time>2022-08-20T09:02:16Z</time>
      </trkpt>
      <trkpt lat="42.770262" lon="-7.466435">
        <ele>630.176</ele>
        <time>2022-08-20T09:02:22Z</time>
      </trkpt>
      <trkpt lat="42.770308" lon="-7.466467">
        <ele>630.286</ele>
        <time>2022-08-20T09:02:25Z</time>
      </trkpt>
      <trkpt lat="42.770345" lon="-7.466518">
        <ele>630.259</ele>
        <time>2022-08-20T09:02:28Z</time>
      </trkpt>
      <trkpt lat="42.770382" lon="-7.466554">
        <ele>630.224</ele>
        <time>2022-08-20T09:02:31Z</time>
      </trkpt>
      <trkpt lat="42.770425" lon="-7.466586">
        <ele>630.214</ele>
        <time>2022-08-20T09:02:34Z</time>
      </trkpt>
      <trkpt lat="42.770464" lon="-7.466616">
        <ele>630.253</ele>
        <time>2022-08-20T09:02:38Z</time>
      </trkpt>
      <trkpt lat="42.770508" lon="-7.466635">
        <ele>630.268</ele>
        <time>2022-08-20T09:02:42Z</time>
      </trkpt>
      <trkpt lat="42.770562" lon="-7.466650">
        <ele>630.242</ele>
        <time>2022-08-20T09:02:46Z</time>
      </trkpt>
      <trkpt lat="42.770611" lon="-7.466671">
        <ele>630.226</ele>
        <time>2022-08-20T09:02:50Z</time>
      </trkpt>
      <trkpt lat="42.770661" lon="-7.466685">
        <ele>630.209</ele>
        <time>2022-08-20T09:02:54Z</time>
      </trkpt>
      <trkpt lat="42.770711" lon="-7.466701">
        <ele>630.257</ele>
        <time>2022-08-20T09:02:58Z</time>
      </trkpt>
      <trkpt lat="42.770762" lon="-7.466730">
        <ele>630.297</ele>
        <time>2022-08-20T09:03:02Z</time>
      </trkpt>
      <trkpt lat="42.770810" lon="-7.466754">
        <ele>630.147</ele>
        <time>2022-08-20T09:03:06Z</time>
      </trkpt>
      <trkpt lat="42.770835" lon="-7.466823">
        <ele>630.018</ele>
        <time>2022-08-20T09:03:11Z</time>
      </trkpt>
      <trkpt lat="42.770850" lon="-7.466882">
        <ele>630.068</ele>
        <time>2022-08-20T09:03:15Z</time>
      </trkpt>
      <trkpt lat="42.770878" lon="-7.466944">
        <ele>630.011</ele>
        <time>2022-08-20T09:03:19Z</time>
      </trkpt>
      <trkpt lat="42.770920" lon="-7.466989">
        <ele>630.076</ele>
        <time>2022-08-20T09:03:23Z</time>
      </trkpt>
      <trkpt lat="42.770948" lon="-7.467050">
        <ele>630.036</ele>
        <time>2022-08-20T09:03:28Z</time>
      </trkpt>
      <trkpt lat="42.770982" lon="-7.467091">
        <ele>630.055</ele>
        <time>2022-08-20T09:03:32Z</time>
      </trkpt>
      <trkpt lat="42.771016" lon="-7.467139">
        <ele>630.072</ele>
        <time>2022-08-20T09:03:36Z</time>
      </trkpt>
      <trkpt lat="42.771046" lon="-7.467191">
        <ele>629.913</ele>
        <time>2022-08-20T09:03:40Z</time>
      </trkpt>
      <trkpt lat="42.771084" lon="-7.467224">
        <ele>629.914</ele>
        <time>2022-08-20T09:03:44Z</time>
      </trkpt>
      <trkpt lat="42.771118" lon="-7.467264">
        <ele>629.909</ele>
        <time>2022-08-20T09:03:48Z</time>
      </trkpt>
      <trkpt lat="42.771164" lon="-7.467266">
        <ele>629.858</ele>
        <time>2022-08-20T09:03:53Z</time>
      </trkpt>
      <trkpt lat="42.771214" lon="-7.467239">
        <ele>629.878</ele>
        <time>2022-08-20T09:04:00Z</time>
      </trkpt>
      <trkpt lat="42.771265" lon="-7.467215">
        <ele>629.828</ele>
        <time>2022-08-20T09:04:04Z</time>
      </trkpt>
      <trkpt lat="42.771315" lon="-7.467193">
        <ele>629.789</ele>
        <time>2022-08-20T09:04:08Z</time>
      </trkpt>
      <trkpt lat="42.771368" lon="-7.467167">
        <ele>629.689</ele>
        <time>2022-08-20T09:04:12Z</time>
      </trkpt>
      <trkpt lat="42.771426" lon="-7.467150">
        <ele>629.592</ele>
        <time>2022-08-20T09:04:16Z</time>
      </trkpt>
      <trkpt lat="42.771476" lon="-7.467149">
        <ele>629.517</ele>
        <time>2022-08-20T09:04:19Z</time>
      </trkpt>
      <trkpt lat="42.771521" lon="-7.467185">
        <ele>629.427</ele>
        <time>2022-08-20T09:04:24Z</time>
      </trkpt>
      <trkpt lat="42.771571" lon="-7.467195">
        <ele>629.396</ele>
        <time>2022-08-20T09:04:28Z</time>
      </trkpt>
      <trkpt lat="42.771613" lon="-7.467224">
        <ele>629.199</ele>
        <time>2022-08-20T09:04:33Z</time>
      </trkpt>
      <trkpt lat="42.771659" lon="-7.467272">
        <ele>629.007</ele>
        <time>2022-08-20T09:04:38Z</time>
      </trkpt>
      <trkpt lat="42.771702" lon="-7.467311">
        <ele>628.927</ele>
        <time>2022-08-20T09:04:42Z</time>
      </trkpt>
      <trkpt lat="42.771739" lon="-7.467353">
        <ele>628.809</ele>
        <time>2022-08-20T09:04:46Z</time>
      </trkpt>
      <trkpt lat="42.771783" lon="-7.467391">
        <ele>628.730</ele>
        <time>2022-08-20T09:04:51Z</time>
      </trkpt>
      <trkpt lat="42.771814" lon="-7.467442">
        <ele>628.630</ele>
        <time>2022-08-20T09:04:55Z</time>
      </trkpt>
      <trkpt lat="42.771849" lon="-7.467484">
        <ele>628.490</ele>
        <time>2022-08-20T09:04:59Z</time>
      </trkpt>
      <trkpt lat="42.771894" lon="-7.467541">
        <ele>628.371</ele>
        <time>2022-08-20T09:05:03Z</time>
      </trkpt>
      <trkpt lat="42.771927" lon="-7.467586">
        <ele>628.231</ele>
        <time>2022-08-20T09:05:06Z</time>
      </trkpt>
      <trkpt lat="42.771965" lon="-7.467621">
        <ele>628.194</ele>
        <time>2022-08-20T09:05:09Z</time>
      </trkpt>
      <trkpt lat="42.772012" lon="-7.467662">
        <ele>628.089</ele>
        <time>2022-08-20T09:05:14Z</time>
      </trkpt>
      <trkpt lat="42.772062" lon="-7.467693">
        <ele>627.999</ele>
        <time>2022-08-20T09:05:18Z</time>
      </trkpt>
      <trkpt lat="42.772105" lon="-7.467721">
        <ele>627.748</ele>
        <time>2022-08-20T09:05:22Z</time>
      </trkpt>
      <trkpt lat="42.772141" lon="-7.467767">
        <ele>627.521</ele>
        <time>2022-08-20T09:05:27Z</time>
      </trkpt>
      <trkpt lat="42.772178" lon="-7.467815">
        <ele>627.441</ele>
        <time>2022-08-20T09:05:31Z</time>
      </trkpt>
      <trkpt lat="42.772225" lon="-7.467857">
        <ele>627.205</ele>
        <time>2022-08-20T09:05:35Z</time>
      </trkpt>
      <trkpt lat="42.772258" lon="-7.467915">
        <ele>627.009</ele>
        <time>2022-08-20T09:05:39Z</time>
      </trkpt>
      <trkpt lat="42.772287" lon="-7.467964">
        <ele>626.843</ele>
        <time>2022-08-20T09:05:42Z</time>
      </trkpt>
      <trkpt lat="42.772327" lon="-7.468008">
        <ele>626.733</ele>
        <time>2022-08-20T09:05:45Z</time>
      </trkpt>
      <trkpt lat="42.772374" lon="-7.468054">
        <ele>626.663</ele>
        <time>2022-08-20T09:05:50Z</time>
      </trkpt>
      <trkpt lat="42.772416" lon="-7.468095">
        <ele>626.524</ele>
        <time>2022-08-20T09:05:55Z</time>
      </trkpt>
      <trkpt lat="42.772465" lon="-7.468128">
        <ele>626.444</ele>
        <time>2022-08-20T09:05:59Z</time>
      </trkpt>
      <trkpt lat="42.772506" lon="-7.468159">
        <ele>626.347</ele>
        <time>2022-08-20T09:06:02Z</time>
      </trkpt>
      <trkpt lat="42.772549" lon="-7.468209">
        <ele>626.232</ele>
        <time>2022-08-20T09:06:07Z</time>
      </trkpt>
      <trkpt lat="42.772581" lon="-7.468259">
        <ele>626.132</ele>
        <time>2022-08-20T09:06:09Z</time>
      </trkpt>
      <trkpt lat="42.772609" lon="-7.468312">
        <ele>626.031</ele>
        <time>2022-08-20T09:06:11Z</time>
      </trkpt>
      <trkpt lat="42.772649" lon="-7.468365">
        <ele>625.937</ele>
        <time>2022-08-20T09:06:14Z</time>
      </trkpt>
      <trkpt lat="42.772694" lon="-7.468428">
        <ele>625.849</ele>
        <time>2022-08-20T09:06:18Z</time>
      </trkpt>
      <trkpt lat="42.772739" lon="-7.468487">
        <ele>625.713</ele>
        <time>2022-08-20T09:06:22Z</time>
      </trkpt>
      <trkpt lat="42.772771" lon="-7.468536">
        <ele>625.509</ele>
        <time>2022-08-20T09:06:25Z</time>
      </trkpt>
      <trkpt lat="42.772796" lon="-7.468590">
        <ele>625.364</ele>
        <time>2022-08-20T09:06:29Z</time>
      </trkpt>
      <trkpt lat="42.772830" lon="-7.468653">
        <ele>625.264</ele>
        <time>2022-08-20T09:06:33Z</time>
      </trkpt>
      <trkpt lat="42.772876" lon="-7.468702">
        <ele>625.074</ele>
        <time>2022-08-20T09:06:37Z</time>
      </trkpt>
      <trkpt lat="42.772906" lon="-7.468751">
        <ele>625.095</ele>
        <time>2022-08-20T09:06:41Z</time>
      </trkpt>
      <trkpt lat="42.772936" lon="-7.468808">
        <ele>624.945</ele>
        <time>2022-08-20T09:06:45Z</time>
      </trkpt>
      <trkpt lat="42.772968" lon="-7.468869">
        <ele>624.828</ele>
        <time>2022-08-20T09:06:49Z</time>
      </trkpt>
      <trkpt lat="42.773012" lon="-7.468922">
        <ele>624.613</ele>
        <time>2022-08-20T09:06:53Z</time>
      </trkpt>
      <trkpt lat="42.773061" lon="-7.468963">
        <ele>624.513</ele>
        <time>2022-08-20T09:06:57Z</time>
      </trkpt>
      <trkpt lat="42.773096" lon="-7.469011">
        <ele>624.222</ele>
        <time>2022-08-20T09:07:02Z</time>
      </trkpt>
      <trkpt lat="42.773133" lon="-7.469055">
        <ele>624.126</ele>
        <time>2022-08-20T09:07:06Z</time>
      </trkpt>
      <trkpt lat="42.773166" lon="-7.469100">
        <ele>623.947</ele>
        <time>2022-08-20T09:07:10Z</time>
      </trkpt>
      <trkpt lat="42.773203" lon="-7.469142">
        <ele>623.711</ele>
        <time>2022-08-20T09:07:13Z</time>
      </trkpt>
      <trkpt lat="42.773234" lon="-7.469197">
        <ele>623.509</ele>
        <time>2022-08-20T09:07:17Z</time>
      </trkpt>
      <trkpt lat="42.773261" lon="-7.469254">
        <ele>623.493</ele>
        <time>2022-08-20T09:07:21Z</time>
      </trkpt>
      <trkpt lat="42.773290" lon="-7.469304">
        <ele>623.313</ele>
        <time>2022-08-20T09:07:26Z</time>
      </trkpt>
      <trkpt lat="42.773324" lon="-7.469372">
        <ele>623.133</ele>
        <time>2022-08-20T09:07:31Z</time>
      </trkpt>
      <trkpt lat="42.773351" lon="-7.469434">
        <ele>622.824</ele>
        <time>2022-08-20T09:07:35Z</time>
      </trkpt>
      <trkpt lat="42.773379" lon="-7.469492">
        <ele>622.424</ele>
        <time>2022-08-20T09:07:38Z</time>
      </trkpt>
      <trkpt lat="42.773404" lon="-7.469557">
        <ele>622.277</ele>
        <time>2022-08-20T09:07:41Z</time>
      </trkpt>
      <trkpt lat="42.773428" lon="-7.469612">
        <ele>622.042</ele>
        <time>2022-08-20T09:07:44Z</time>
      </trkpt>
      <trkpt lat="42.773458" lon="-7.469682">
        <ele>621.832</ele>
        <time>2022-08-20T09:07:49Z</time>
      </trkpt>
      <trkpt lat="42.773487" lon="-7.469741">
        <ele>621.661</ele>
        <time>2022-08-20T09:07:53Z</time>
      </trkpt>
      <trkpt lat="42.773514" lon="-7.469792">
        <ele>621.349</ele>
        <time>2022-08-20T09:07:58Z</time>
      </trkpt>
      <trkpt lat="42.773556" lon="-7.469836">
        <ele>621.002</ele>
        <time>2022-08-20T09:08:03Z</time>
      </trkpt>
      <trkpt lat="42.773584" lon="-7.469886">
        <ele>620.822</ele>
        <time>2022-08-20T09:08:06Z</time>
      </trkpt>
      <trkpt lat="42.773619" lon="-7.469931">
        <ele>620.509</ele>
        <time>2022-08-20T09:08:10Z</time>
      </trkpt>
      <trkpt lat="42.773655" lon="-7.469975">
        <ele>620.385</ele>
        <time>2022-08-20T09:08:14Z</time>
      </trkpt>
      <trkpt lat="42.773706" lon="-7.470033">
        <ele>620.165</ele>
        <time>2022-08-20T09:08:18Z</time>
      </trkpt>
      <trkpt lat="42.773742" lon="-7.470081">
        <ele>619.965</ele>
        <time>2022-08-20T09:08:21Z</time>
      </trkpt>
      <trkpt lat="42.773774" lon="-7.470129">
        <ele>619.666</ele>
        <time>2022-08-20T09:08:25Z</time>
      </trkpt>
      <trkpt lat="42.773803" lon="-7.470189">
        <ele>619.476</ele>
        <time>2022-08-20T09:08:29Z</time>
      </trkpt>
      <trkpt lat="42.773834" lon="-7.470248">
        <ele>619.119</ele>
        <time>2022-08-20T09:08:35Z</time>
      </trkpt>
      <trkpt lat="42.773859" lon="-7.470305">
        <ele>619.054</ele>
        <time>2022-08-20T09:08:41Z</time>
      </trkpt>
      <trkpt lat="42.773900" lon="-7.470360">
        <ele>618.854</ele>
        <time>2022-08-20T09:08:47Z</time>
      </trkpt>
      <trkpt lat="42.773941" lon="-7.470409">
        <ele>618.683</ele>
        <time>2022-08-20T09:08:51Z</time>
      </trkpt>
      <trkpt lat="42.773975" lon="-7.470453">
        <ele>618.562</ele>
        <time>2022-08-20T09:08:56Z</time>
      </trkpt>
      <trkpt lat="42.773998" lon="-7.470511">
        <ele>618.583</ele>
        <time>2022-08-20T09:09:00Z</time>
      </trkpt>
      <trkpt lat="42.774030" lon="-7.470576">
        <ele>618.411</ele>
        <time>2022-08-20T09:09:04Z</time>
      </trkpt>
      <trkpt lat="42.774054" lon="-7.470629">
        <ele>618.309</ele>
        <time>2022-08-20T09:09:08Z</time>
      </trkpt>
      <trkpt lat="42.774077" lon="-7.470687">
        <ele>618.297</ele>
        <time>2022-08-20T09:09:11Z</time>
      </trkpt>
      <trkpt lat="42.774099" lon="-7.470747">
        <ele>618.277</ele>
        <time>2022-08-20T09:09:14Z</time>
      </trkpt>
      <trkpt lat="42.774131" lon="-7.470801">
        <ele>618.217</ele>
        <time>2022-08-20T09:09:18Z</time>
      </trkpt>
      <trkpt lat="42.774172" lon="-7.470831">
        <ele>618.238</ele>
        <time>2022-08-20T09:09:21Z</time>
      </trkpt>
      <trkpt lat="42.774220" lon="-7.470864">
        <ele>618.248</ele>
        <time>2022-08-20T09:09:24Z</time>
      </trkpt>
      <trkpt lat="42.774266" lon="-7.470913">
        <ele>618.261</ele>
        <time>2022-08-20T09:09:28Z</time>
      </trkpt>
      <trkpt lat="42.774304" lon="-7.470952">
        <ele>618.236</ele>
        <time>2022-08-20T09:09:31Z</time>
      </trkpt>
      <trkpt lat="42.774343" lon="-7.470996">
        <ele>618.256</ele>
        <time>2022-08-20T09:09:35Z</time>
      </trkpt>
      <trkpt lat="42.774383" lon="-7.471036">
        <ele>618.395</ele>
        <time>2022-08-20T09:09:38Z</time>
      </trkpt>
      <trkpt lat="42.774428" lon="-7.471073">
        <ele>618.368</ele>
        <time>2022-08-20T09:09:41Z</time>
      </trkpt>
      <trkpt lat="42.774469" lon="-7.471119">
        <ele>618.342</ele>
        <time>2022-08-20T09:09:45Z</time>
      </trkpt>
      <trkpt lat="42.774514" lon="-7.471166">
        <ele>618.326</ele>
        <time>2022-08-20T09:09:49Z</time>
      </trkpt>
      <trkpt lat="42.774569" lon="-7.471213">
        <ele>618.309</ele>
        <time>2022-08-20T09:09:53Z</time>
      </trkpt>
      <trkpt lat="42.774615" lon="-7.471252">
        <ele>618.467</ele>
        <time>2022-08-20T09:09:56Z</time>
      </trkpt>
      <trkpt lat="42.774657" lon="-7.471295">
        <ele>618.597</ele>
        <time>2022-08-20T09:10:00Z</time>
      </trkpt>
      <trkpt lat="42.774700" lon="-7.471327">
        <ele>618.547</ele>
        <time>2022-08-20T09:10:03Z</time>
      </trkpt>
      <trkpt lat="42.774741" lon="-7.471362">
        <ele>618.588</ele>
        <time>2022-08-20T09:10:06Z</time>
      </trkpt>
      <trkpt lat="42.774773" lon="-7.471407">
        <ele>618.578</ele>
        <time>2022-08-20T09:10:09Z</time>
      </trkpt>
      <trkpt lat="42.774805" lon="-7.471466">
        <ele>618.571</ele>
        <time>2022-08-20T09:10:13Z</time>
      </trkpt>
      <trkpt lat="42.774845" lon="-7.471511">
        <ele>618.696</ele>
        <time>2022-08-20T09:10:19Z</time>
      </trkpt>
      <trkpt lat="42.774885" lon="-7.471566">
        <ele>618.726</ele>
        <time>2022-08-20T09:10:23Z</time>
      </trkpt>
      <trkpt lat="42.774910" lon="-7.471627">
        <ele>618.855</ele>
        <time>2022-08-20T09:10:27Z</time>
      </trkpt>
      <trkpt lat="42.774940" lon="-7.471684">
        <ele>618.996</ele>
        <time>2022-08-20T09:10:31Z</time>
      </trkpt>
      <trkpt lat="42.774965" lon="-7.471749">
        <ele>619.031</ele>
        <time>2022-08-20T09:10:35Z</time>
      </trkpt>
      <trkpt lat="42.774988" lon="-7.471804">
        <ele>619.124</ele>
        <time>2022-08-20T09:10:38Z</time>
      </trkpt>
      <trkpt lat="42.774991" lon="-7.471870">
        <ele>619.209</ele>
        <time>2022-08-20T09:10:42Z</time>
      </trkpt>
      <trkpt lat="42.774978" lon="-7.471935">
        <ele>619.290</ele>
        <time>2022-08-20T09:10:45Z</time>
      </trkpt>
      <trkpt lat="42.774964" lon="-7.472001">
        <ele>619.230</ele>
        <time>2022-08-20T09:10:50Z</time>
      </trkpt>
      <trkpt lat="42.774959" lon="-7.472079">
        <ele>619.260</ele>
        <time>2022-08-20T09:10:54Z</time>
      </trkpt>
      <trkpt lat="42.774951" lon="-7.472144">
        <ele>619.131</ele>
        <time>2022-08-20T09:10:58Z</time>
      </trkpt>
      <trkpt lat="42.774938" lon="-7.472204">
        <ele>618.931</ele>
        <time>2022-08-20T09:11:03Z</time>
      </trkpt>
      <trkpt lat="42.774919" lon="-7.472272">
        <ele>618.734</ele>
        <time>2022-08-20T09:11:07Z</time>
      </trkpt>
      <trkpt lat="42.774898" lon="-7.472339">
        <ele>618.549</ele>
        <time>2022-08-20T09:11:11Z</time>
      </trkpt>
      <trkpt lat="42.774883" lon="-7.472404">
        <ele>618.319</ele>
        <time>2022-08-20T09:11:15Z</time>
      </trkpt>
      <trkpt lat="42.774862" lon="-7.472459">
        <ele>618.128</ele>
        <time>2022-08-20T09:11:18Z</time>
      </trkpt>
      <trkpt lat="42.774843" lon="-7.472529">
        <ele>617.955</ele>
        <time>2022-08-20T09:11:21Z</time>
      </trkpt>
      <trkpt lat="42.774815" lon="-7.472594">
        <ele>617.807</ele>
        <time>2022-08-20T09:11:25Z</time>
      </trkpt>
      <trkpt lat="42.774793" lon="-7.472651">
        <ele>617.717</ele>
        <time>2022-08-20T09:11:28Z</time>
      </trkpt>
      <trkpt lat="42.774767" lon="-7.472726">
        <ele>617.609</ele>
        <time>2022-08-20T09:11:33Z</time>
      </trkpt>
      <trkpt lat="42.774754" lon="-7.472787">
        <ele>617.566</ele>
        <time>2022-08-20T09:11:36Z</time>
      </trkpt>
      <trkpt lat="42.774736" lon="-7.472848">
        <ele>617.496</ele>
        <time>2022-08-20T09:11:40Z</time>
      </trkpt>
      <trkpt lat="42.774718" lon="-7.472917">
        <ele>617.326</ele>
        <time>2022-08-20T09:11:44Z</time>
      </trkpt>
      <trkpt lat="42.774691" lon="-7.472986">
        <ele>617.267</ele>
        <time>2022-08-20T09:11:48Z</time>
      </trkpt>
      <trkpt lat="42.774673" lon="-7.473059">
        <ele>617.047</ele>
        <time>2022-08-20T09:11:52Z</time>
      </trkpt>
      <trkpt lat="42.774653" lon="-7.473121">
        <ele>616.850</ele>
        <time>2022-08-20T09:11:56Z</time>
      </trkpt>
      <trkpt lat="42.774627" lon="-7.473186">
        <ele>616.485</ele>
        <time>2022-08-20T09:12:00Z</time>
      </trkpt>
      <trkpt lat="42.774606" lon="-7.473253">
        <ele>616.285</ele>
        <time>2022-08-20T09:12:05Z</time>
      </trkpt>
      <trkpt lat="42.774595" lon="-7.473319">
        <ele>616.184</ele>
        <time>2022-08-20T09:12:08Z</time>
      </trkpt>
      <trkpt lat="42.774575" lon="-7.473383">
        <ele>615.942</ele>
        <time>2022-08-20T09:12:12Z</time>
      </trkpt>
      <trkpt lat="42.774550" lon="-7.473452">
        <ele>615.722</ele>
        <time>2022-08-20T09:12:16Z</time>
      </trkpt>
      <trkpt lat="42.774519" lon="-7.473518">
        <ele>615.514</ele>
        <time>2022-08-20T09:12:21Z</time>
      </trkpt>
      <trkpt lat="42.774509" lon="-7.473591">
        <ele>615.209</ele>
        <time>2022-08-20T09:12:25Z</time>
      </trkpt>
      <trkpt lat="42.774493" lon="-7.473649">
        <ele>615.195</ele>
        <time>2022-08-20T09:12:29Z</time>
      </trkpt>
      <trkpt lat="42.774464" lon="-7.473716">
        <ele>614.765</ele>
        <time>2022-08-20T09:12:33Z</time>
      </trkpt>
      <trkpt lat="42.774446" lon="-7.473784">
        <ele>614.625</ele>
        <time>2022-08-20T09:12:37Z</time>
      </trkpt>
      <trkpt lat="42.774437" lon="-7.473848">
        <ele>614.416</ele>
        <time>2022-08-20T09:12:41Z</time>
      </trkpt>
      <trkpt lat="42.774408" lon="-7.473916">
        <ele>614.246</ele>
        <time>2022-08-20T09:12:46Z</time>
      </trkpt>
      <trkpt lat="42.774385" lon="-7.473977">
        <ele>614.049</ele>
        <time>2022-08-20T09:12:49Z</time>
      </trkpt>
      <trkpt lat="42.774377" lon="-7.474053">
        <ele>613.834</ele>
        <time>2022-08-20T09:12:52Z</time>
      </trkpt>
      <trkpt lat="42.774351" lon="-7.474115">
        <ele>613.784</ele>
        <time>2022-08-20T09:12:57Z</time>
      </trkpt>
      <trkpt lat="42.774326" lon="-7.474168">
        <ele>613.613</ele>
        <time>2022-08-20T09:13:01Z</time>
      </trkpt>
      <trkpt lat="42.774306" lon="-7.474224">
        <ele>613.589</ele>
        <time>2022-08-20T09:13:05Z</time>
      </trkpt>
      <trkpt lat="42.774287" lon="-7.474284">
        <ele>613.306</ele>
        <time>2022-08-20T09:13:08Z</time>
      </trkpt>
      <trkpt lat="42.774268" lon="-7.474355">
        <ele>613.226</ele>
        <time>2022-08-20T09:13:11Z</time>
      </trkpt>
      <trkpt lat="42.774244" lon="-7.474419">
        <ele>613.109</ele>
        <time>2022-08-20T09:13:14Z</time>
      </trkpt>
      <trkpt lat="42.774215" lon="-7.474489">
        <ele>613.099</ele>
        <time>2022-08-20T09:13:18Z</time>
      </trkpt>
      <trkpt lat="42.774189" lon="-7.474560">
        <ele>612.859</ele>
        <time>2022-08-20T09:13:22Z</time>
      </trkpt>
      <trkpt lat="42.774170" lon="-7.474629">
        <ele>612.699</ele>
        <time>2022-08-20T09:13:26Z</time>
      </trkpt>
      <trkpt lat="42.774141" lon="-7.474698">
        <ele>612.410</ele>
        <time>2022-08-20T09:13:30Z</time>
      </trkpt>
      <trkpt lat="42.774120" lon="-7.474754">
        <ele>612.250</ele>
        <time>2022-08-20T09:13:33Z</time>
      </trkpt>
      <trkpt lat="42.774101" lon="-7.474830">
        <ele>612.183</ele>
        <time>2022-08-20T09:13:37Z</time>
      </trkpt>
      <trkpt lat="42.774083" lon="-7.474902">
        <ele>612.038</ele>
        <time>2022-08-20T09:13:41Z</time>
      </trkpt>
      <trkpt lat="42.774062" lon="-7.474968">
        <ele>611.828</ele>
        <time>2022-08-20T09:13:45Z</time>
      </trkpt>
      <trkpt lat="42.774040" lon="-7.475039">
        <ele>611.757</ele>
        <time>2022-08-20T09:13:49Z</time>
      </trkpt>
      <trkpt lat="42.774022" lon="-7.475112">
        <ele>611.626</ele>
        <time>2022-08-20T09:13:53Z</time>
      </trkpt>
      <trkpt lat="42.774003" lon="-7.475173">
        <ele>611.447</ele>
        <time>2022-08-20T09:13:58Z</time>
      </trkpt>
      <trkpt lat="42.773991" lon="-7.475232">
        <ele>611.311</ele>
        <time>2022-08-20T09:14:03Z</time>
      </trkpt>
      <trkpt lat="42.773985" lon="-7.475309">
        <ele>611.009</ele>
        <time>2022-08-20T09:14:10Z</time>
      </trkpt>
      <trkpt lat="42.773967" lon="-7.475368">
        <ele>610.793</ele>
        <time>2022-08-20T09:14:14Z</time>
      </trkpt>
      <trkpt lat="42.773952" lon="-7.475440">
        <ele>610.353</ele>
        <time>2022-08-20T09:14:19Z</time>
      </trkpt>
      <trkpt lat="42.773928" lon="-7.475494">
        <ele>610.083</ele>
        <time>2022-08-20T09:14:23Z</time>
      </trkpt>
      <trkpt lat="42.773901" lon="-7.475559">
        <ele>609.814</ele>
        <time>2022-08-20T09:14:28Z</time>
      </trkpt>
      <trkpt lat="42.773875" lon="-7.475620">
        <ele>609.634</ele>
        <time>2022-08-20T09:14:32Z</time>
      </trkpt>
      <trkpt lat="42.773852" lon="-7.475675">
        <ele>609.417</ele>
        <time>2022-08-20T09:14:35Z</time>
      </trkpt>
      <trkpt lat="42.773828" lon="-7.475730">
        <ele>609.372</ele>
        <time>2022-08-20T09:14:38Z</time>
      </trkpt>
      <trkpt lat="42.773810" lon="-7.475799">
        <ele>609.242</ele>
        <time>2022-08-20T09:14:42Z</time>
      </trkpt>
      <trkpt lat="42.773784" lon="-7.475865">
        <ele>609.181</ele>
        <time>2022-08-20T09:14:46Z</time>
      </trkpt>
      <trkpt lat="42.773753" lon="-7.475918">
        <ele>609.048</ele>
        <time>2022-08-20T09:14:49Z</time>
      </trkpt>
      <trkpt lat="42.773721" lon="-7.475976">
        <ele>608.961</ele>
        <time>2022-08-20T09:14:52Z</time>
      </trkpt>
      <trkpt lat="42.773694" lon="-7.476034">
        <ele>608.817</ele>
        <time>2022-08-20T09:14:56Z</time>
      </trkpt>
      <trkpt lat="42.773653" lon="-7.476085">
        <ele>608.709</ele>
        <time>2022-08-20T09:15:01Z</time>
      </trkpt>
      <trkpt lat="42.773610" lon="-7.476117">
        <ele>608.645</ele>
        <time>2022-08-20T09:15:06Z</time>
      </trkpt>
      <trkpt lat="42.773576" lon="-7.476170">
        <ele>608.425</ele>
        <time>2022-08-20T09:15:10Z</time>
      </trkpt>
      <trkpt lat="42.773552" lon="-7.476235">
        <ele>608.215</ele>
        <time>2022-08-20T09:15:14Z</time>
      </trkpt>
      <trkpt lat="42.773544" lon="-7.476296">
        <ele>608.096</ele>
        <time>2022-08-20T09:15:18Z</time>
      </trkpt>
      <trkpt lat="42.773518" lon="-7.476354">
        <ele>607.836</ele>
        <time>2022-08-20T09:15:21Z</time>
      </trkpt>
      <trkpt lat="42.773505" lon="-7.476426">
        <ele>607.669</ele>
        <time>2022-08-20T09:15:25Z</time>
      </trkpt>
      <trkpt lat="42.773498" lon="-7.476489">
        <ele>607.484</ele>
        <time>2022-08-20T09:15:28Z</time>
      </trkpt>
      <trkpt lat="42.773489" lon="-7.476559">
        <ele>607.254</ele>
        <time>2022-08-20T09:15:33Z</time>
      </trkpt>
      <trkpt lat="42.773479" lon="-7.476623">
        <ele>607.143</ele>
        <time>2022-08-20T09:15:37Z</time>
      </trkpt>
      <trkpt lat="42.773462" lon="-7.476694">
        <ele>607.028</ele>
        <time>2022-08-20T09:15:41Z</time>
      </trkpt>
      <trkpt lat="42.773430" lon="-7.476753">
        <ele>606.889</ele>
        <time>2022-08-20T09:15:46Z</time>
      </trkpt>
      <trkpt lat="42.773387" lon="-7.476813">
        <ele>606.317</ele>
        <time>2022-08-20T09:15:50Z</time>
      </trkpt>
      <trkpt lat="42.773350" lon="-7.476854">
        <ele>606.309</ele>
        <time>2022-08-20T09:15:54Z</time>
      </trkpt>
      <trkpt lat="42.773316" lon="-7.476902">
        <ele>606.363</ele>
        <time>2022-08-20T09:15:58Z</time>
      </trkpt>
      <trkpt lat="42.773273" lon="-7.476948">
        <ele>606.243</ele>
        <time>2022-08-20T09:16:02Z</time>
      </trkpt>
      <trkpt lat="42.773234" lon="-7.476994">
        <ele>606.293</ele>
        <time>2022-08-20T09:16:06Z</time>
      </trkpt>
      <trkpt lat="42.773203" lon="-7.477038">
        <ele>606.174</ele>
        <time>2022-08-20T09:16:09Z</time>
      </trkpt>
      <trkpt lat="42.773182" lon="-7.477097">
        <ele>605.934</ele>
        <time>2022-08-20T09:16:13Z</time>
      </trkpt>
      <trkpt lat="42.773189" lon="-7.477160">
        <ele>605.867</ele>
        <time>2022-08-20T09:16:16Z</time>
      </trkpt>
      <trkpt lat="42.773164" lon="-7.477224">
        <ele>605.732</ele>
        <time>2022-08-20T09:16:22Z</time>
      </trkpt>
      <trkpt lat="42.773158" lon="-7.477289">
        <ele>605.662</ele>
        <time>2022-08-20T09:16:27Z</time>
      </trkpt>
      <trkpt lat="42.773135" lon="-7.477355">
        <ele>605.491</ele>
        <time>2022-08-20T09:16:30Z</time>
      </trkpt>
      <trkpt lat="42.773133" lon="-7.477423">
        <ele>605.139</ele>
        <time>2022-08-20T09:16:35Z</time>
      </trkpt>
      <trkpt lat="42.773137" lon="-7.477498">
        <ele>604.801</ele>
        <time>2022-08-20T09:16:39Z</time>
      </trkpt>
      <trkpt lat="42.773130" lon="-7.477567">
        <ele>604.621</ele>
        <time>2022-08-20T09:16:43Z</time>
      </trkpt>
      <trkpt lat="42.773129" lon="-7.477630">
        <ele>604.509</ele>
        <time>2022-08-20T09:16:47Z</time>
      </trkpt>
      <trkpt lat="42.773134" lon="-7.477704">
        <ele>604.334</ele>
        <time>2022-08-20T09:16:52Z</time>
      </trkpt>
      <trkpt lat="42.773123" lon="-7.477766">
        <ele>604.024</ele>
        <time>2022-08-20T09:16:56Z</time>
      </trkpt>
      <trkpt lat="42.773113" lon="-7.477831">
        <ele>603.754</ele>
        <time>2022-08-20T09:17:00Z</time>
      </trkpt>
      <trkpt lat="42.773099" lon="-7.477916">
        <ele>603.415</ele>
        <time>2022-08-20T09:17:05Z</time>
      </trkpt>
      <trkpt lat="42.773095" lon="-7.478003">
        <ele>603.135</ele>
        <time>2022-08-20T09:17:11Z</time>
      </trkpt>
      <trkpt lat="42.773100" lon="-7.478084">
        <ele>602.918</ele>
        <time>2022-08-20T09:17:16Z</time>
      </trkpt>
      <trkpt lat="42.773081" lon="-7.478150">
        <ele>602.543</ele>
        <time>2022-08-20T09:17:19Z</time>
      </trkpt>
      <trkpt lat="42.773080" lon="-7.478212">
        <ele>602.043</ele>
        <time>2022-08-20T09:17:23Z</time>
      </trkpt>
      <trkpt lat="42.773054" lon="-7.478273">
        <ele>601.862</ele>
        <time>2022-08-20T09:17:26Z</time>
      </trkpt>
      <trkpt lat="42.773019" lon="-7.478337">
        <ele>601.738</ele>
        <time>2022-08-20T09:17:31Z</time>
      </trkpt>
      <trkpt lat="42.772987" lon="-7.478403">
        <ele>601.570</ele>
        <time>2022-08-20T09:17:35Z</time>
      </trkpt>
      <trkpt lat="42.772962" lon="-7.478467">
        <ele>601.417</ele>
        <time>2022-08-20T09:17:39Z</time>
      </trkpt>
      <trkpt lat="42.772932" lon="-7.478524">
        <ele>601.209</ele>
        <time>2022-08-20T09:17:44Z</time>
      </trkpt>
      <trkpt lat="42.772903" lon="-7.478571">
        <ele>601.184</ele>
        <time>2022-08-20T09:17:48Z</time>
      </trkpt>
      <trkpt lat="42.772870" lon="-7.478635">
        <ele>601.084</ele>
        <time>2022-08-20T09:17:52Z</time>
      </trkpt>
      <trkpt lat="42.772845" lon="-7.478698">
        <ele>600.934</ele>
        <time>2022-08-20T09:17:56Z</time>
      </trkpt>
      <trkpt lat="42.772821" lon="-7.478773">
        <ele>600.865</ele>
        <time>2022-08-20T09:18:00Z</time>
      </trkpt>
      <trkpt lat="42.772812" lon="-7.478849">
        <ele>600.685</ele>
        <time>2022-08-20T09:18:04Z</time>
      </trkpt>
      <trkpt lat="42.772804" lon="-7.478914">
        <ele>600.628</ele>
        <time>2022-08-20T09:18:08Z</time>
      </trkpt>
      <trkpt lat="42.772785" lon="-7.478989">
        <ele>600.523</ele>
        <time>2022-08-20T09:18:12Z</time>
      </trkpt>
      <trkpt lat="42.772755" lon="-7.479059">
        <ele>600.593</ele>
        <time>2022-08-20T09:18:17Z</time>
      </trkpt>
      <trkpt lat="42.772737" lon="-7.479126">
        <ele>600.532</ele>
        <time>2022-08-20T09:18:21Z</time>
      </trkpt>
      <trkpt lat="42.772708" lon="-7.479185">
        <ele>600.425</ele>
        <time>2022-08-20T09:18:26Z</time>
      </trkpt>
      <trkpt lat="42.772679" lon="-7.479261">
        <ele>600.326</ele>
        <time>2022-08-20T09:18:30Z</time>
      </trkpt>
      <trkpt lat="42.772664" lon="-7.479334">
        <ele>600.208</ele>
        <time>2022-08-20T09:18:33Z</time>
      </trkpt>
      <trkpt lat="42.772652" lon="-7.479401">
        <ele>600.109</ele>
        <time>2022-08-20T09:18:37Z</time>
      </trkpt>
      <trkpt lat="42.772624" lon="-7.479469">
        <ele>600.083</ele>
        <time>2022-08-20T09:18:42Z</time>
      </trkpt>
      <trkpt lat="42.772598" lon="-7.479542">
        <ele>599.983</ele>
        <time>2022-08-20T09:18:46Z</time>
      </trkpt>
      <trkpt lat="42.772581" lon="-7.479607">
        <ele>599.713</ele>
        <time>2022-08-20T09:18:49Z</time>
      </trkpt>
      <trkpt lat="42.772570" lon="-7.479675">
        <ele>599.674</ele>
        <time>2022-08-20T09:18:53Z</time>
      </trkpt>
      <trkpt lat="42.772561" lon="-7.479735">
        <ele>599.514</ele>
        <time>2022-08-20T09:18:56Z</time>
      </trkpt>
      <trkpt lat="42.772560" lon="-7.479803">
        <ele>599.367</ele>
        <time>2022-08-20T09:19:00Z</time>
      </trkpt>
      <trkpt lat="42.772587" lon="-7.479857">
        <ele>599.162</ele>
        <time>2022-08-20T09:19:04Z</time>
      </trkpt>
      <trkpt lat="42.772612" lon="-7.479909">
        <ele>598.992</ele>
        <time>2022-08-20T09:19:08Z</time>
      </trkpt>
      <trkpt lat="42.772660" lon="-7.479941">
        <ele>598.631</ele>
        <time>2022-08-20T09:19:12Z</time>
      </trkpt>
      <trkpt lat="42.772709" lon="-7.479961">
        <ele>598.366</ele>
        <time>2022-08-20T09:19:16Z</time>
      </trkpt>
      <trkpt lat="42.772757" lon="-7.479982">
        <ele>598.029</ele>
        <time>2022-08-20T09:19:20Z</time>
      </trkpt>
      <trkpt lat="42.772806" lon="-7.480000">
        <ele>597.721</ele>
        <time>2022-08-20T09:19:24Z</time>
      </trkpt>
      <trkpt lat="42.772861" lon="-7.480017">
        <ele>597.409</ele>
        <time>2022-08-20T09:19:28Z</time>
      </trkpt>
      <trkpt lat="42.772908" lon="-7.480012">
        <ele>597.027</ele>
        <time>2022-08-20T09:19:32Z</time>
      </trkpt>
      <trkpt lat="42.772951" lon="-7.479967">
        <ele>596.567</ele>
        <time>2022-08-20T09:19:37Z</time>
      </trkpt>
      <trkpt lat="42.772994" lon="-7.479925">
        <ele>596.087</ele>
        <time>2022-08-20T09:19:41Z</time>
      </trkpt>
      <trkpt lat="42.773038" lon="-7.479898">
        <ele>595.718</ele>
        <time>2022-08-20T09:19:45Z</time>
      </trkpt>
      <trkpt lat="42.773084" lon="-7.479867">
        <ele>595.528</ele>
        <time>2022-08-20T09:19:49Z</time>
      </trkpt>
      <trkpt lat="42.773128" lon="-7.479836">
        <ele>595.321</ele>
        <time>2022-08-20T09:19:53Z</time>
      </trkpt>
      <trkpt lat="42.773179" lon="-7.479824">
        <ele>595.236</ele>
        <time>2022-08-20T09:19:58Z</time>
      </trkpt>
      <trkpt lat="42.773242" lon="-7.479836">
        <ele>595.036</ele>
        <time>2022-08-20T09:20:03Z</time>
      </trkpt>
      <trkpt lat="42.773289" lon="-7.479825">
        <ele>594.785</ele>
        <time>2022-08-20T09:20:07Z</time>
      </trkpt>
      <trkpt lat="42.773348" lon="-7.479836">
        <ele>593.692</ele>
        <time>2022-08-20T09:20:13Z</time>
      </trkpt>
      <trkpt lat="42.773397" lon="-7.479834">
        <ele>593.173</ele>
        <time>2022-08-20T09:20:19Z</time>
      </trkpt>
      <trkpt lat="42.773446" lon="-7.479836">
        <ele>593.120</ele>
        <time>2022-08-20T09:20:23Z</time>
      </trkpt>
      <trkpt lat="42.773496" lon="-7.479838">
        <ele>593.109</ele>
        <time>2022-08-20T09:20:26Z</time>
      </trkpt>
      <trkpt lat="42.773553" lon="-7.479831">
        <ele>593.160</ele>
        <time>2022-08-20T09:20:29Z</time>
      </trkpt>
      <trkpt lat="42.773602" lon="-7.479815">
        <ele>593.280</ele>
        <time>2022-08-20T09:20:33Z</time>
      </trkpt>
      <trkpt lat="42.773660" lon="-7.479817">
        <ele>593.420</ele>
        <time>2022-08-20T09:20:37Z</time>
      </trkpt>
      <trkpt lat="42.773712" lon="-7.479827">
        <ele>593.771</ele>
        <time>2022-08-20T09:20:40Z</time>
      </trkpt>
      <trkpt lat="42.773771" lon="-7.479854">
        <ele>594.321</ele>
        <time>2022-08-20T09:20:44Z</time>
      </trkpt>
      <trkpt lat="42.773828" lon="-7.479885">
        <ele>594.584</ele>
        <time>2022-08-20T09:20:48Z</time>
      </trkpt>
      <trkpt lat="42.773882" lon="-7.479899">
        <ele>594.989</ele>
        <time>2022-08-20T09:20:52Z</time>
      </trkpt>
      <trkpt lat="42.773932" lon="-7.479913">
        <ele>595.259</ele>
        <time>2022-08-20T09:20:56Z</time>
      </trkpt>
      <trkpt lat="42.773984" lon="-7.479916">
        <ele>595.648</ele>
        <time>2022-08-20T09:21:00Z</time>
      </trkpt>
      <trkpt lat="42.774036" lon="-7.479930">
        <ele>596.039</ele>
        <time>2022-08-20T09:21:04Z</time>
      </trkpt>
      <trkpt lat="42.774083" lon="-7.479944">
        <ele>596.201</ele>
        <time>2022-08-20T09:21:09Z</time>
      </trkpt>
      <trkpt lat="42.774126" lon="-7.479968">
        <ele>596.621</ele>
        <time>2022-08-20T09:21:13Z</time>
      </trkpt>
      <trkpt lat="42.774179" lon="-7.479991">
        <ele>597.009</ele>
        <time>2022-08-20T09:21:18Z</time>
      </trkpt>
      <trkpt lat="42.774230" lon="-7.480017">
        <ele>597.474</ele>
        <time>2022-08-20T09:21:23Z</time>
      </trkpt>
      <trkpt lat="42.774279" lon="-7.480038">
        <ele>597.854</ele>
        <time>2022-08-20T09:21:26Z</time>
      </trkpt>
      <trkpt lat="42.774328" lon="-7.480045">
        <ele>598.254</ele>
        <time>2022-08-20T09:21:31Z</time>
      </trkpt>
      <trkpt lat="42.774378" lon="-7.480070">
        <ele>598.465</ele>
        <time>2022-08-20T09:21:35Z</time>
      </trkpt>
      <trkpt lat="42.774423" lon="-7.480092">
        <ele>598.615</ele>
        <time>2022-08-20T09:21:39Z</time>
      </trkpt>
      <trkpt lat="42.774476" lon="-7.480118">
        <ele>598.928</ele>
        <time>2022-08-20T09:21:44Z</time>
      </trkpt>
      <trkpt lat="42.774521" lon="-7.480158">
        <ele>599.383</ele>
        <time>2022-08-20T09:21:48Z</time>
      </trkpt>
      <trkpt lat="42.774562" lon="-7.480188">
        <ele>599.653</ele>
        <time>2022-08-20T09:21:52Z</time>
      </trkpt>
      <trkpt lat="42.774606" lon="-7.480219">
        <ele>599.872</ele>
        <time>2022-08-20T09:21:56Z</time>
      </trkpt>
      <trkpt lat="42.774641" lon="-7.480259">
        <ele>600.031</ele>
        <time>2022-08-20T09:21:59Z</time>
      </trkpt>
      <trkpt lat="42.774683" lon="-7.480299">
        <ele>600.361</ele>
        <time>2022-08-20T09:22:03Z</time>
      </trkpt>
      <trkpt lat="42.774724" lon="-7.480345">
        <ele>600.607</ele>
        <time>2022-08-20T09:22:08Z</time>
      </trkpt>
      <trkpt lat="42.774766" lon="-7.480376">
        <ele>600.909</ele>
        <time>2022-08-20T09:22:11Z</time>
      </trkpt>
      <trkpt lat="42.774808" lon="-7.480410">
        <ele>601.274</ele>
        <time>2022-08-20T09:22:14Z</time>
      </trkpt>
      <trkpt lat="42.774849" lon="-7.480446">
        <ele>601.594</ele>
        <time>2022-08-20T09:22:17Z</time>
      </trkpt>
      <trkpt lat="42.774888" lon="-7.480484">
        <ele>601.714</ele>
        <time>2022-08-20T09:22:20Z</time>
      </trkpt>
      <trkpt lat="42.774931" lon="-7.480519">
        <ele>602.015</ele>
        <time>2022-08-20T09:22:24Z</time>
      </trkpt>
      <trkpt lat="42.774968" lon="-7.480559">
        <ele>602.325</ele>
        <time>2022-08-20T09:22:27Z</time>
      </trkpt>
      <trkpt lat="42.774998" lon="-7.480606">
        <ele>602.698</ele>
        <time>2022-08-20T09:22:30Z</time>
      </trkpt>
      <trkpt lat="42.775031" lon="-7.480660">
        <ele>602.953</ele>
        <time>2022-08-20T09:22:33Z</time>
      </trkpt>
      <trkpt lat="42.775068" lon="-7.480696">
        <ele>603.243</ele>
        <time>2022-08-20T09:22:37Z</time>
      </trkpt>
      <trkpt lat="42.775125" lon="-7.480681">
        <ele>603.542</ele>
        <time>2022-08-20T09:22:41Z</time>
      </trkpt>
      <trkpt lat="42.775175" lon="-7.480672">
        <ele>603.928</ele>
        <time>2022-08-20T09:22:45Z</time>
      </trkpt>
      <trkpt lat="42.775222" lon="-7.480668">
        <ele>604.389</ele>
        <time>2022-08-20T09:22:50Z</time>
      </trkpt>
      <trkpt lat="42.775271" lon="-7.480681">
        <ele>604.617</ele>
        <time>2022-08-20T09:22:53Z</time>
      </trkpt>
      <trkpt lat="42.775316" lon="-7.480694">
        <ele>604.809</ele>
        <time>2022-08-20T09:22:56Z</time>
      </trkpt>
      <trkpt lat="42.775369" lon="-7.480717">
        <ele>604.983</ele>
        <time>2022-08-20T09:23:00Z</time>
      </trkpt>
      <trkpt lat="42.775427" lon="-7.480746">
        <ele>605.083</ele>
        <time>2022-08-20T09:23:04Z</time>
      </trkpt>
      <trkpt lat="42.775479" lon="-7.480763">
        <ele>605.173</ele>
        <time>2022-08-20T09:23:08Z</time>
      </trkpt>
      <trkpt lat="42.775528" lon="-7.480785">
        <ele>605.274</ele>
        <time>2022-08-20T09:23:12Z</time>
      </trkpt>
      <trkpt lat="42.775579" lon="-7.480810">
        <ele>605.444</ele>
        <time>2022-08-20T09:23:16Z</time>
      </trkpt>
      <trkpt lat="42.775628" lon="-7.480828">
        <ele>605.557</ele>
        <time>2022-08-20T09:23:20Z</time>
      </trkpt>
      <trkpt lat="42.775681" lon="-7.480857">
        <ele>605.522</ele>
        <time>2022-08-20T09:23:24Z</time>
      </trkpt>
      <trkpt lat="42.775731" lon="-7.480878">
        <ele>605.652</ele>
        <time>2022-08-20T09:23:28Z</time>
      </trkpt>
      <trkpt lat="42.775786" lon="-7.480900">
        <ele>605.971</ele>
        <time>2022-08-20T09:23:32Z</time>
      </trkpt>
      <trkpt lat="42.775843" lon="-7.480909">
        <ele>606.177</ele>
        <time>2022-08-20T09:23:36Z</time>
      </trkpt>
      <trkpt lat="42.775892" lon="-7.480936">
        <ele>606.361</ele>
        <time>2022-08-20T09:23:40Z</time>
      </trkpt>
      <trkpt lat="42.775940" lon="-7.480965">
        <ele>606.527</ele>
        <time>2022-08-20T09:23:44Z</time>
      </trkpt>
      <trkpt lat="42.775990" lon="-7.480994">
        <ele>606.909</ele>
        <time>2022-08-20T09:23:48Z</time>
      </trkpt>
      <trkpt lat="42.776042" lon="-7.481019">
        <ele>607.148</ele>
        <time>2022-08-20T09:23:52Z</time>
      </trkpt>
      <trkpt lat="42.776096" lon="-7.481034">
        <ele>607.278</ele>
        <time>2022-08-20T09:23:56Z</time>
      </trkpt>
      <trkpt lat="42.776142" lon="-7.481053">
        <ele>607.218</ele>
        <time>2022-08-20T09:24:00Z</time>
      </trkpt>
      <trkpt lat="42.776186" lon="-7.481066">
        <ele>607.379</ele>
        <time>2022-08-20T09:24:04Z</time>
      </trkpt>
      <trkpt lat="42.776233" lon="-7.481089">
        <ele>607.499</ele>
        <time>2022-08-20T09:24:08Z</time>
      </trkpt>
      <trkpt lat="42.776286" lon="-7.481106">
        <ele>607.572</ele>
        <time>2022-08-20T09:24:12Z</time>
      </trkpt>
      <trkpt lat="42.776335" lon="-7.481127">
        <ele>607.697</ele>
        <time>2022-08-20T09:24:16Z</time>
      </trkpt>
      <trkpt lat="42.776386" lon="-7.481148">
        <ele>607.817</ele>
        <time>2022-08-20T09:24:20Z</time>
      </trkpt>
      <trkpt lat="42.776434" lon="-7.481167">
        <ele>607.936</ele>
        <time>2022-08-20T09:24:24Z</time>
      </trkpt>
      <trkpt lat="42.776482" lon="-7.481190">
        <ele>608.152</ele>
        <time>2022-08-20T09:24:28Z</time>
      </trkpt>
      <trkpt lat="42.776531" lon="-7.481216">
        <ele>608.353</ele>
        <time>2022-08-20T09:24:32Z</time>
      </trkpt>
      <trkpt lat="42.776581" lon="-7.481244">
        <ele>608.508</ele>
        <time>2022-08-20T09:24:36Z</time>
      </trkpt>
      <trkpt lat="42.776628" lon="-7.481273">
        <ele>608.709</ele>
        <time>2022-08-20T09:24:40Z</time>
      </trkpt>
      <trkpt lat="42.776678" lon="-7.481308">
        <ele>608.986</ele>
        <time>2022-08-20T09:24:44Z</time>
      </trkpt>
      <trkpt lat="42.776718" lon="-7.481342">
        <ele>609.146</ele>
        <time>2022-08-20T09:24:48Z</time>
      </trkpt>
      <trkpt lat="42.776763" lon="-7.481378">
        <ele>609.356</ele>
        <time>2022-08-20T09:24:52Z</time>
      </trkpt>
      <trkpt lat="42.776809" lon="-7.481413">
        <ele>609.537</ele>
        <time>2022-08-20T09:24:56Z</time>
      </trkpt>
      <trkpt lat="42.776854" lon="-7.481450">
        <ele>609.797</ele>
        <time>2022-08-20T09:25:00Z</time>
      </trkpt>
      <trkpt lat="42.776898" lon="-7.481488">
        <ele>609.970</ele>
        <time>2022-08-20T09:25:04Z</time>
      </trkpt>
      <trkpt lat="42.776942" lon="-7.481519">
        <ele>610.175</ele>
        <time>2022-08-20T09:25:08Z</time>
      </trkpt>
      <trkpt lat="42.776986" lon="-7.481558">
        <ele>610.365</ele>
        <time>2022-08-20T09:25:12Z</time>
      </trkpt>
      <trkpt lat="42.777031" lon="-7.481576">
        <ele>610.594</ele>
        <time>2022-08-20T09:25:16Z</time>
      </trkpt>
      <trkpt lat="42.777077" lon="-7.481576">
        <ele>610.754</ele>
        <time>2022-08-20T09:25:20Z</time>
      </trkpt>
      <trkpt lat="42.777127" lon="-7.481602">
        <ele>611.056</ele>
        <time>2022-08-20T09:25:24Z</time>
      </trkpt>
      <trkpt lat="42.777182" lon="-7.481608">
        <ele>611.411</ele>
        <time>2022-08-20T09:25:28Z</time>
      </trkpt>
      <trkpt lat="42.777232" lon="-7.481627">
        <ele>611.709</ele>
        <time>2022-08-20T09:25:32Z</time>
      </trkpt>
      <trkpt lat="42.777272" lon="-7.481684">
        <ele>611.836</ele>
        <time>2022-08-20T09:25:36Z</time>
      </trkpt>
      <trkpt lat="42.777327" lon="-7.481699">
        <ele>612.126</ele>
        <time>2022-08-20T09:25:40Z</time>
      </trkpt>
      <trkpt lat="42.777376" lon="-7.481716">
        <ele>612.296</ele>
        <time>2022-08-20T09:25:44Z</time>
      </trkpt>
      <trkpt lat="42.777424" lon="-7.481736">
        <ele>612.357</ele>
        <time>2022-08-20T09:25:48Z</time>
      </trkpt>
      <trkpt lat="42.777479" lon="-7.481754">
        <ele>612.667</ele>
        <time>2022-08-20T09:25:52Z</time>
      </trkpt>
      <trkpt lat="42.777531" lon="-7.481767">
        <ele>612.760</ele>
        <time>2022-08-20T09:25:56Z</time>
      </trkpt>
      <trkpt lat="42.777582" lon="-7.481778">
        <ele>612.955</ele>
        <time>2022-08-20T09:26:00Z</time>
      </trkpt>
      <trkpt lat="42.777628" lon="-7.481794">
        <ele>613.135</ele>
        <time>2022-08-20T09:26:04Z</time>
      </trkpt>
      <trkpt lat="42.777676" lon="-7.481801">
        <ele>613.314</ele>
        <time>2022-08-20T09:26:08Z</time>
      </trkpt>
      <trkpt lat="42.777724" lon="-7.481809">
        <ele>613.521</ele>
        <time>2022-08-20T09:26:12Z</time>
      </trkpt>
      <trkpt lat="42.777771" lon="-7.481836">
        <ele>613.741</ele>
        <time>2022-08-20T09:26:16Z</time>
      </trkpt>
      <trkpt lat="42.777819" lon="-7.481853">
        <ele>613.905</ele>
        <time>2022-08-20T09:26:20Z</time>
      </trkpt>
      <trkpt lat="42.777866" lon="-7.481868">
        <ele>614.109</ele>
        <time>2022-08-20T09:26:24Z</time>
      </trkpt>
      <trkpt lat="42.777912" lon="-7.481885">
        <ele>614.383</ele>
        <time>2022-08-20T09:26:28Z</time>
      </trkpt>
      <trkpt lat="42.777959" lon="-7.481910">
        <ele>614.543</ele>
        <time>2022-08-20T09:26:32Z</time>
      </trkpt>
      <trkpt lat="42.778010" lon="-7.481923">
        <ele>614.783</ele>
        <time>2022-08-20T09:26:36Z</time>
      </trkpt>
      <trkpt lat="42.778054" lon="-7.481944">
        <ele>614.914</ele>
        <time>2022-08-20T09:26:40Z</time>
      </trkpt>
      <trkpt lat="42.778095" lon="-7.481972">
        <ele>615.184</ele>
        <time>2022-08-20T09:26:44Z</time>
      </trkpt>
      <trkpt lat="42.778138" lon="-7.481993">
        <ele>615.327</ele>
        <time>2022-08-20T09:26:48Z</time>
      </trkpt>
      <trkpt lat="42.778188" lon="-7.482015">
        <ele>615.452</ele>
        <time>2022-08-20T09:26:52Z</time>
      </trkpt>
      <trkpt lat="42.778240" lon="-7.482052">
        <ele>615.622</ele>
        <time>2022-08-20T09:26:56Z</time>
      </trkpt>
      <trkpt lat="42.778289" lon="-7.482074">
        <ele>615.871</ele>
        <time>2022-08-20T09:27:00Z</time>
      </trkpt>
      <trkpt lat="42.778334" lon="-7.482108">
        <ele>616.073</ele>
        <time>2022-08-20T09:27:04Z</time>
      </trkpt>
      <trkpt lat="42.778383" lon="-7.482145">
        <ele>616.485</ele>
        <time>2022-08-20T09:27:08Z</time>
      </trkpt>
      <trkpt lat="42.778426" lon="-7.482185">
        <ele>616.713</ele>
        <time>2022-08-20T09:27:12Z</time>
      </trkpt>
      <trkpt lat="42.778471" lon="-7.482219">
        <ele>616.809</ele>
        <time>2022-08-20T09:27:16Z</time>
      </trkpt>
      <trkpt lat="42.778516" lon="-7.482252">
        <ele>617.068</ele>
        <time>2022-08-20T09:27:20Z</time>
      </trkpt>
      <trkpt lat="42.778559" lon="-7.482284">
        <ele>617.228</ele>
        <time>2022-08-20T09:27:24Z</time>
      </trkpt>
      <trkpt lat="42.778602" lon="-7.482316">
        <ele>617.458</ele>
        <time>2022-08-20T09:27:28Z</time>
      </trkpt>
      <trkpt lat="42.778649" lon="-7.482348">
        <ele>617.699</ele>
        <time>2022-08-20T09:27:32Z</time>
      </trkpt>
      <trkpt lat="42.778691" lon="-7.482384">
        <ele>617.859</ele>
        <time>2022-08-20T09:27:36Z</time>
      </trkpt>
      <trkpt lat="42.778738" lon="-7.482414">
        <ele>618.052</ele>
        <time>2022-08-20T09:27:40Z</time>
      </trkpt>
      <trkpt lat="42.778782" lon="-7.482452">
        <ele>618.287</ele>
        <time>2022-08-20T09:27:44Z</time>
      </trkpt>
      <trkpt lat="42.778827" lon="-7.482485">
        <ele>618.577</ele>
        <time>2022-08-20T09:27:48Z</time>
      </trkpt>
      <trkpt lat="42.778870" lon="-7.482508">
        <ele>618.886</ele>
        <time>2022-08-20T09:27:52Z</time>
      </trkpt>
      <trkpt lat="42.778914" lon="-7.482538">
        <ele>619.113</ele>
        <time>2022-08-20T09:27:56Z</time>
      </trkpt>
      <trkpt lat="42.778956" lon="-7.482570">
        <ele>619.443</ele>
        <time>2022-08-20T09:28:00Z</time>
      </trkpt>
      <trkpt lat="42.779003" lon="-7.482597">
        <ele>619.707</ele>
        <time>2022-08-20T09:28:04Z</time>
      </trkpt>
      <trkpt lat="42.779055" lon="-7.482635">
        <ele>620.109</ele>
        <time>2022-08-20T09:28:09Z</time>
      </trkpt>
      <trkpt lat="42.779101" lon="-7.482668">
        <ele>620.532</ele>
        <time>2022-08-20T09:28:13Z</time>
      </trkpt>
      <trkpt lat="42.779148" lon="-7.482693">
        <ele>620.962</ele>
        <time>2022-08-20T09:28:17Z</time>
      </trkpt>
      <trkpt lat="42.779195" lon="-7.482724">
        <ele>621.372</ele>
        <time>2022-08-20T09:28:21Z</time>
      </trkpt>
      <trkpt lat="42.779253" lon="-7.482742">
        <ele>622.073</ele>
        <time>2022-08-20T09:28:26Z</time>
      </trkpt>
      <trkpt lat="42.779295" lon="-7.482766">
        <ele>622.213</ele>
        <time>2022-08-20T09:28:30Z</time>
      </trkpt>
      <trkpt lat="42.779352" lon="-7.482798">
        <ele>622.716</ele>
        <time>2022-08-20T09:28:35Z</time>
      </trkpt>
      <trkpt lat="42.779399" lon="-7.482829">
        <ele>623.521</ele>
        <time>2022-08-20T09:28:39Z</time>
      </trkpt>
      <trkpt lat="42.779444" lon="-7.482844">
        <ele>623.871</ele>
        <time>2022-08-20T09:28:42Z</time>
      </trkpt>
      <trkpt lat="42.779495" lon="-7.482847">
        <ele>624.380</ele>
        <time>2022-08-20T09:28:46Z</time>
      </trkpt>
      <trkpt lat="42.779546" lon="-7.482874">
        <ele>624.795</ele>
        <time>2022-08-20T09:28:51Z</time>
      </trkpt>
      <trkpt lat="42.779590" lon="-7.482906">
        <ele>625.149</ele>
        <time>2022-08-20T09:28:55Z</time>
      </trkpt>
      <trkpt lat="42.779631" lon="-7.482940">
        <ele>625.523</ele>
        <time>2022-08-20T09:28:59Z</time>
      </trkpt>
      <trkpt lat="42.779677" lon="-7.482954">
        <ele>625.809</ele>
        <time>2022-08-20T09:29:02Z</time>
      </trkpt>
      <trkpt lat="42.779725" lon="-7.482980">
        <ele>626.180</ele>
        <time>2022-08-20T09:29:06Z</time>
      </trkpt>
      <trkpt lat="42.779769" lon="-7.483007">
        <ele>626.430</ele>
        <time>2022-08-20T09:29:10Z</time>
      </trkpt>
      <trkpt lat="42.779814" lon="-7.483031">
        <ele>626.790</ele>
        <time>2022-08-20T09:29:14Z</time>
      </trkpt>
      <trkpt lat="42.779867" lon="-7.483061">
        <ele>627.071</ele>
        <time>2022-08-20T09:29:18Z</time>
      </trkpt>
      <trkpt lat="42.779911" lon="-7.483079">
        <ele>627.361</ele>
        <time>2022-08-20T09:29:22Z</time>
      </trkpt>
      <trkpt lat="42.779955" lon="-7.483106">
        <ele>627.654</ele>
        <time>2022-08-20T09:29:25Z</time>
      </trkpt>
      <trkpt lat="42.780009" lon="-7.483135">
        <ele>627.919</ele>
        <time>2022-08-20T09:29:29Z</time>
      </trkpt>
      <trkpt lat="42.780050" lon="-7.483167">
        <ele>628.119</ele>
        <time>2022-08-20T09:29:33Z</time>
      </trkpt>
      <trkpt lat="42.780094" lon="-7.483198">
        <ele>628.468</ele>
        <time>2022-08-20T09:29:37Z</time>
      </trkpt>
      <trkpt lat="42.780146" lon="-7.483230">
        <ele>628.798</ele>
        <time>2022-08-20T09:29:42Z</time>
      </trkpt>
      <trkpt lat="42.780191" lon="-7.483240">
        <ele>629.015</ele>
        <time>2022-08-20T09:29:46Z</time>
      </trkpt>
      <trkpt lat="42.780248" lon="-7.483230">
        <ele>629.326</ele>
        <time>2022-08-20T09:29:50Z</time>
      </trkpt>
      <trkpt lat="42.780301" lon="-7.483227">
        <ele>629.509</ele>
        <time>2022-08-20T09:29:54Z</time>
      </trkpt>
      <trkpt lat="42.780350" lon="-7.483220">
        <ele>629.770</ele>
        <time>2022-08-20T09:29:58Z</time>
      </trkpt>
      <trkpt lat="42.780399" lon="-7.483234">
        <ele>629.840</ele>
        <time>2022-08-20T09:30:01Z</time>
      </trkpt>
      <trkpt lat="42.780456" lon="-7.483255">
        <ele>629.970</ele>
        <time>2022-08-20T09:30:05Z</time>
      </trkpt>
      <trkpt lat="42.780509" lon="-7.483268">
        <ele>629.991</ele>
        <time>2022-08-20T09:30:09Z</time>
      </trkpt>
      <trkpt lat="42.780558" lon="-7.483299">
        <ele>629.971</ele>
        <time>2022-08-20T09:30:13Z</time>
      </trkpt>
      <trkpt lat="42.780605" lon="-7.483339">
        <ele>629.914</ele>
        <time>2022-08-20T09:30:17Z</time>
      </trkpt>
      <trkpt lat="42.780648" lon="-7.483394">
        <ele>629.939</ele>
        <time>2022-08-20T09:30:21Z</time>
      </trkpt>
      <trkpt lat="42.780691" lon="-7.483447">
        <ele>629.969</ele>
        <time>2022-08-20T09:30:25Z</time>
      </trkpt>
      <trkpt lat="42.780730" lon="-7.483489">
        <ele>629.928</ele>
        <time>2022-08-20T09:30:29Z</time>
      </trkpt>
      <trkpt lat="42.780778" lon="-7.483527">
        <ele>629.931</ele>
        <time>2022-08-20T09:30:34Z</time>
      </trkpt>
      <trkpt lat="42.780822" lon="-7.483548">
        <ele>629.961</ele>
        <time>2022-08-20T09:30:40Z</time>
      </trkpt>
      <trkpt lat="42.780860" lon="-7.483591">
        <ele>629.907</ele>
        <time>2022-08-20T09:30:44Z</time>
      </trkpt>
      <trkpt lat="42.780897" lon="-7.483641">
        <ele>629.909</ele>
        <time>2022-08-20T09:30:48Z</time>
      </trkpt>
      <trkpt lat="42.780930" lon="-7.483691">
        <ele>630.054</ele>
        <time>2022-08-20T09:30:51Z</time>
      </trkpt>
      <trkpt lat="42.780962" lon="-7.483752">
        <ele>630.084</ele>
        <time>2022-08-20T09:30:54Z</time>
      </trkpt>
      <trkpt lat="42.780990" lon="-7.483801">
        <ele>630.094</ele>
        <time>2022-08-20T09:30:57Z</time>
      </trkpt>
      <trkpt lat="42.781020" lon="-7.483856">
        <ele>630.025</ele>
        <time>2022-08-20T09:31:00Z</time>
      </trkpt>
      <trkpt lat="42.781056" lon="-7.483917">
        <ele>630.015</ele>
        <time>2022-08-20T09:31:03Z</time>
      </trkpt>
      <trkpt lat="42.781091" lon="-7.483968">
        <ele>630.038</ele>
        <time>2022-08-20T09:31:06Z</time>
      </trkpt>
      <trkpt lat="42.781116" lon="-7.484032">
        <ele>630.093</ele>
        <time>2022-08-20T09:31:10Z</time>
      </trkpt>
      <trkpt lat="42.781138" lon="-7.484092">
        <ele>630.063</ele>
        <time>2022-08-20T09:31:14Z</time>
      </trkpt>
      <trkpt lat="42.781155" lon="-7.484151">
        <ele>630.062</ele>
        <time>2022-08-20T09:31:17Z</time>
      </trkpt>
      <trkpt lat="42.781171" lon="-7.484217">
        <ele>630.014</ele>
        <time>2022-08-20T09:31:21Z</time>
      </trkpt>
      <trkpt lat="42.781185" lon="-7.484289">
        <ele>630.054</ele>
        <time>2022-08-20T09:31:25Z</time>
      </trkpt>
      <trkpt lat="42.781186" lon="-7.484366">
        <ele>630.009</ele>
        <time>2022-08-20T09:31:29Z</time>
      </trkpt>
      <trkpt lat="42.781177" lon="-7.484439">
        <ele>630.009</ele>
        <time>2022-08-20T09:31:33Z</time>
      </trkpt>
      <trkpt lat="42.781177" lon="-7.484503">
        <ele>630.072</ele>
        <time>2022-08-20T09:31:36Z</time>
      </trkpt>
      <trkpt lat="42.781159" lon="-7.484560">
        <ele>630.042</ele>
        <time>2022-08-20T09:31:39Z</time>
      </trkpt>
      <trkpt lat="42.781155" lon="-7.484638">
        <ele>630.062</ele>
        <time>2022-08-20T09:31:43Z</time>
      </trkpt>
      <trkpt lat="42.781138" lon="-7.484707">
        <ele>630.063</ele>
        <time>2022-08-20T09:31:47Z</time>
      </trkpt>
      <trkpt lat="42.781129" lon="-7.484770">
        <ele>630.093</ele>
        <time>2022-08-20T09:31:51Z</time>
      </trkpt>
      <trkpt lat="42.781135" lon="-7.484844">
        <ele>630.086</ele>
        <time>2022-08-20T09:31:56Z</time>
      </trkpt>
      <trkpt lat="42.781133" lon="-7.484920">
        <ele>630.091</ele>
        <time>2022-08-20T09:32:00Z</time>
      </trkpt>
      <trkpt lat="42.781131" lon="-7.484984">
        <ele>630.031</ele>
        <time>2022-08-20T09:32:04Z</time>
      </trkpt>
      <trkpt lat="42.781116" lon="-7.485057">
        <ele>630.020</ele>
        <time>2022-08-20T09:32:08Z</time>
      </trkpt>
      <trkpt lat="42.781103" lon="-7.485125">
        <ele>630.039</ele>
        <time>2022-08-20T09:32:12Z</time>
      </trkpt>
      <trkpt lat="42.781085" lon="-7.485197">
        <ele>630.001</ele>
        <time>2022-08-20T09:32:16Z</time>
      </trkpt>
      <trkpt lat="42.781078" lon="-7.485266">
        <ele>630.121</ele>
        <time>2022-08-20T09:32:20Z</time>
      </trkpt>
      <trkpt lat="42.781067" lon="-7.485334">
        <ele>630.209</ele>
        <time>2022-08-20T09:32:24Z</time>
      </trkpt>
      <trkpt lat="42.781055" lon="-7.485401">
        <ele>630.384</ele>
        <time>2022-08-20T09:32:28Z</time>
      </trkpt>
      <trkpt lat="42.781041" lon="-7.485471">
        <ele>630.324</ele>
        <time>2022-08-20T09:32:32Z</time>
      </trkpt>
      <trkpt lat="42.781027" lon="-7.485541">
        <ele>630.344</ele>
        <time>2022-08-20T09:32:36Z</time>
      </trkpt>
      <trkpt lat="42.781017" lon="-7.485612">
        <ele>630.315</ele>
        <time>2022-08-20T09:32:40Z</time>
      </trkpt>
      <trkpt lat="42.781004" lon="-7.485681">
        <ele>630.325</ele>
        <time>2022-08-20T09:32:44Z</time>
      </trkpt>
      <trkpt lat="42.780990" lon="-7.485752">
        <ele>630.388</ele>
        <time>2022-08-20T09:32:48Z</time>
      </trkpt>
      <trkpt lat="42.780980" lon="-7.485817">
        <ele>630.363</ele>
        <time>2022-08-20T09:32:52Z</time>
      </trkpt>
      <trkpt lat="42.780967" lon="-7.485888">
        <ele>630.393</ele>
        <time>2022-08-20T09:32:56Z</time>
      </trkpt>
      <trkpt lat="42.780960" lon="-7.485957">
        <ele>630.332</ele>
        <time>2022-08-20T09:33:00Z</time>
      </trkpt>
      <trkpt lat="42.780956" lon="-7.486025">
        <ele>630.379</ele>
        <time>2022-08-20T09:33:04Z</time>
      </trkpt>
      <trkpt lat="42.780951" lon="-7.486089">
        <ele>630.305</ele>
        <time>2022-08-20T09:33:08Z</time>
      </trkpt>
      <trkpt lat="42.780951" lon="-7.486165">
        <ele>630.325</ele>
        <time>2022-08-20T09:33:13Z</time>
      </trkpt>
      <trkpt lat="42.780959" lon="-7.486237">
        <ele>630.309</ele>
        <time>2022-08-20T09:33:17Z</time>
      </trkpt>
      <trkpt lat="42.780962" lon="-7.486316">
        <ele>630.398</ele>
        <time>2022-08-20T09:33:22Z</time>
      </trkpt>
      <trkpt lat="42.780960" lon="-7.486388">
        <ele>630.398</ele>
        <time>2022-08-20T09:33:26Z</time>
      </trkpt>
      <trkpt lat="42.780958" lon="-7.486456">
        <ele>630.368</ele>
        <time>2022-08-20T09:33:30Z</time>
      </trkpt>
      <trkpt lat="42.780957" lon="-7.486532">
        <ele>630.369</ele>
        <time>2022-08-20T09:33:35Z</time>
      </trkpt>
      <trkpt lat="42.780957" lon="-7.486599">
        <ele>630.369</ele>
        <time>2022-08-20T09:33:39Z</time>
      </trkpt>
      <trkpt lat="42.780965" lon="-7.486666">
        <ele>630.382</ele>
        <time>2022-08-20T09:33:43Z</time>
      </trkpt>
      <trkpt lat="42.780991" lon="-7.486739">
        <ele>630.467</ele>
        <time>2022-08-20T09:33:47Z</time>
      </trkpt>
      <trkpt lat="42.781000" lon="-7.486814">
        <ele>630.477</ele>
        <time>2022-08-20T09:33:51Z</time>
      </trkpt>
      <trkpt lat="42.780995" lon="-7.486875">
        <ele>630.486</ele>
        <time>2022-08-20T09:33:54Z</time>
      </trkpt>
      <trkpt lat="42.780998" lon="-7.486936">
        <ele>630.515</ele>
        <time>2022-08-20T09:33:57Z</time>
      </trkpt>
      <trkpt lat="42.781005" lon="-7.487015">
        <ele>630.565</ele>
        <time>2022-08-20T09:34:01Z</time>
      </trkpt>
      <trkpt lat="42.781008" lon="-7.487095">
        <ele>630.511</ele>
        <time>2022-08-20T09:34:05Z</time>
      </trkpt>
      <trkpt lat="42.781000" lon="-7.487173">
        <ele>630.509</ele>
        <time>2022-08-20T09:34:09Z</time>
      </trkpt>
      <trkpt lat="42.780992" lon="-7.487247">
        <ele>630.582</ele>
        <time>2022-08-20T09:34:13Z</time>
      </trkpt>
      <trkpt lat="42.780982" lon="-7.487327">
        <ele>630.552</ele>
        <time>2022-08-20T09:34:18Z</time>
      </trkpt>
      <trkpt lat="42.780971" lon="-7.487393">
        <ele>630.692</ele>
        <time>2022-08-20T09:34:22Z</time>
      </trkpt>
      <trkpt lat="42.780973" lon="-7.487467">
        <ele>630.663</ele>
        <time>2022-08-20T09:34:26Z</time>
      </trkpt>
      <trkpt lat="42.780979" lon="-7.487533">
        <ele>630.653</ele>
        <time>2022-08-20T09:34:30Z</time>
      </trkpt>
      <trkpt lat="42.780990" lon="-7.487595">
        <ele>630.626</ele>
        <time>2022-08-20T09:34:34Z</time>
      </trkpt>
      <trkpt lat="42.781005" lon="-7.487661">
        <ele>630.671</ele>
        <time>2022-08-20T09:34:38Z</time>
      </trkpt>
      <trkpt lat="42.781020" lon="-7.487721">
        <ele>630.611</ele>
        <time>2022-08-20T09:34:42Z</time>
      </trkpt>
      <trkpt lat="42.781035" lon="-7.487787">
        <ele>630.620</ele>
        <time>2022-08-20T09:34:46Z</time>
      </trkpt>
      <trkpt lat="42.781049" lon="-7.487859">
        <ele>630.636</ele>
        <time>2022-08-20T09:34:50Z</time>
      </trkpt>
      <trkpt lat="42.781064" lon="-7.487922">
        <ele>630.617</ele>
        <time>2022-08-20T09:34:54Z</time>
      </trkpt>
      <trkpt lat="42.781078" lon="-7.487990">
        <ele>630.618</ele>
        <time>2022-08-20T09:34:58Z</time>
      </trkpt>
      <trkpt lat="42.781089" lon="-7.488061">
        <ele>630.609</ele>
        <time>2022-08-20T09:35:02Z</time>
      </trkpt>
      <trkpt lat="42.781093" lon="-7.488128">
        <ele>630.624</ele>
        <time>2022-08-20T09:35:06Z</time>
      </trkpt>
      <trkpt lat="42.781101" lon="-7.488196">
        <ele>630.694</ele>
        <time>2022-08-20T09:35:10Z</time>
      </trkpt>
      <trkpt lat="42.781103" lon="-7.488270">
        <ele>630.634</ele>
        <time>2022-08-20T09:35:14Z</time>
      </trkpt>
      <trkpt lat="42.781105" lon="-7.488340">
        <ele>630.615</ele>
        <time>2022-08-20T09:35:18Z</time>
      </trkpt>
      <trkpt lat="42.781105" lon="-7.488413">
        <ele>630.765</ele>
        <time>2022-08-20T09:35:22Z</time>
      </trkpt>
      <trkpt lat="42.781100" lon="-7.488482">
        <ele>630.788</ele>
        <time>2022-08-20T09:35:26Z</time>
      </trkpt>
      <trkpt lat="42.781101" lon="-7.488554">
        <ele>630.773</ele>
        <time>2022-08-20T09:35:30Z</time>
      </trkpt>
      <trkpt lat="42.781098" lon="-7.488632">
        <ele>630.713</ele>
        <time>2022-08-20T09:35:34Z</time>
      </trkpt>
      <trkpt lat="42.781100" lon="-7.488706">
        <ele>630.792</ele>
        <time>2022-08-20T09:35:38Z</time>
      </trkpt>
      <trkpt lat="42.781096" lon="-7.488784">
        <ele>630.834</ele>
        <time>2022-08-20T09:35:42Z</time>
      </trkpt>
      <trkpt lat="42.781091" lon="-7.488857">
        <ele>630.855</ele>
        <time>2022-08-20T09:35:46Z</time>
      </trkpt>
      <trkpt lat="42.781090" lon="-7.488931">
        <ele>630.910</ele>
        <time>2022-08-20T09:35:50Z</time>
      </trkpt>
      <trkpt lat="42.781084" lon="-7.489005">
        <ele>630.909</ele>
        <time>2022-08-20T09:35:54Z</time>
      </trkpt>
      <trkpt lat="42.781079" lon="-7.489081">
        <ele>630.974</ele>
        <time>2022-08-20T09:35:58Z</time>
      </trkpt>
      <trkpt lat="42.781074" lon="-7.489154">
        <ele>631.074</ele>
        <time>2022-08-20T09:36:02Z</time>
      </trkpt>
      <trkpt lat="42.781063" lon="-7.489226">
        <ele>631.154</ele>
        <time>2022-08-20T09:36:07Z</time>
      </trkpt>
      <trkpt lat="42.781056" lon="-7.489302">
        <ele>631.155</ele>
        <time>2022-08-20T09:36:11Z</time>
      </trkpt>
      <trkpt lat="42.781051" lon="-7.489375">
        <ele>631.285</ele>
        <time>2022-08-20T09:36:15Z</time>
      </trkpt>
      <trkpt lat="42.781050" lon="-7.489445">
        <ele>631.458</ele>
        <time>2022-08-20T09:36:19Z</time>
      </trkpt>
      <trkpt lat="42.781043" lon="-7.489508">
        <ele>631.563</ele>
        <time>2022-08-20T09:36:23Z</time>
      </trkpt>
      <trkpt lat="42.781038" lon="-7.489588">
        <ele>631.763</ele>
        <time>2022-08-20T09:36:27Z</time>
      </trkpt>
      <trkpt lat="42.781035" lon="-7.489651">
        <ele>631.982</ele>
        <time>2022-08-20T09:36:31Z</time>
      </trkpt>
      <trkpt lat="42.781031" lon="-7.489730">
        <ele>632.121</ele>
        <time>2022-08-20T09:36:35Z</time>
      </trkpt>
      <trkpt lat="42.781034" lon="-7.489801">
        <ele>632.341</ele>
        <time>2022-08-20T09:36:39Z</time>
      </trkpt>
      <trkpt lat="42.781032" lon="-7.489873">
        <ele>632.505</ele>
        <time>2022-08-20T09:36:43Z</time>
      </trkpt>
      <trkpt lat="42.781026" lon="-7.489950">
        <ele>632.709</ele>
        <time>2022-08-20T09:36:48Z</time>
      </trkpt>
      <trkpt lat="42.781026" lon="-7.490017">
        <ele>632.983</ele>
        <time>2022-08-20T09:36:52Z</time>
      </trkpt>
      <trkpt lat="42.781028" lon="-7.490086">
        <ele>633.093</ele>
        <time>2022-08-20T09:36:56Z</time>
      </trkpt>
      <trkpt lat="42.781025" lon="-7.490153">
        <ele>633.133</ele>
        <time>2022-08-20T09:37:00Z</time>
      </trkpt>
      <trkpt lat="42.781028" lon="-7.490227">
        <ele>633.254</ele>
        <time>2022-08-20T09:37:04Z</time>
      </trkpt>
      <trkpt lat="42.781031" lon="-7.490298">
        <ele>633.344</ele>
        <time>2022-08-20T09:37:08Z</time>
      </trkpt>
      <trkpt lat="42.781030" lon="-7.490368">
        <ele>633.437</ele>
        <time>2022-08-20T09:37:12Z</time>
      </trkpt>
      <trkpt lat="42.781030" lon="-7.490441">
        <ele>633.582</ele>
        <time>2022-08-20T09:37:16Z</time>
      </trkpt>
      <trkpt lat="42.781024" lon="-7.490504">
        <ele>633.562</ele>
        <time>2022-08-20T09:37:20Z</time>
      </trkpt>
      <trkpt lat="42.781026" lon="-7.490571">
        <ele>633.581</ele>
        <time>2022-08-20T09:37:24Z</time>
      </trkpt>
      <trkpt lat="42.781028" lon="-7.490638">
        <ele>633.522</ele>
        <time>2022-08-20T09:37:28Z</time>
      </trkpt>
      <trkpt lat="42.781035" lon="-7.490714">
        <ele>633.562</ele>
        <time>2022-08-20T09:37:32Z</time>
      </trkpt>
      <trkpt lat="42.781041" lon="-7.490784">
        <ele>633.508</ele>
        <time>2022-08-20T09:37:36Z</time>
      </trkpt>
      <trkpt lat="42.781031" lon="-7.490861">
        <ele>633.609</ele>
        <time>2022-08-20T09:37:40Z</time>
      </trkpt>
      <trkpt lat="42.781019" lon="-7.490937">
        <ele>634.113</ele>
        <time>2022-08-20T09:37:44Z</time>
      </trkpt>
      <trkpt lat="42.781012" lon="-7.491014">
        <ele>634.413</ele>
        <time>2022-08-20T09:37:48Z</time>
      </trkpt>
      <trkpt lat="42.781001" lon="-7.491092">
        <ele>634.553</ele>
        <time>2022-08-20T09:37:52Z</time>
      </trkpt>
      <trkpt lat="42.780986" lon="-7.491150">
        <ele>634.644</ele>
        <time>2022-08-20T09:37:55Z</time>
      </trkpt>
      <trkpt lat="42.780975" lon="-7.491225">
        <ele>634.784</ele>
        <time>2022-08-20T09:37:59Z</time>
      </trkpt>
      <trkpt lat="42.780967" lon="-7.491301">
        <ele>634.887</ele>
        <time>2022-08-20T09:38:03Z</time>
      </trkpt>
      <trkpt lat="42.780954" lon="-7.491376">
        <ele>634.972</ele>
        <time>2022-08-20T09:38:07Z</time>
      </trkpt>
      <trkpt lat="42.780933" lon="-7.491449">
        <ele>634.972</ele>
        <time>2022-08-20T09:38:11Z</time>
      </trkpt>
      <trkpt lat="42.780921" lon="-7.491520">
        <ele>635.011</ele>
        <time>2022-08-20T09:38:15Z</time>
      </trkpt>
      <trkpt lat="42.780908" lon="-7.491581">
        <ele>635.063</ele>
        <time>2022-08-20T09:38:19Z</time>
      </trkpt>
      <trkpt lat="42.780893" lon="-7.491645">
        <ele>635.044</ele>
        <time>2022-08-20T09:38:23Z</time>
      </trkpt>
      <trkpt lat="42.780891" lon="-7.491708">
        <ele>635.118</ele>
        <time>2022-08-20T09:38:27Z</time>
      </trkpt>
      <trkpt lat="42.780865" lon="-7.491758">
        <ele>635.209</ele>
        <time>2022-08-20T09:38:30Z</time>
      </trkpt>
      <trkpt lat="42.780839" lon="-7.491825">
        <ele>635.327</ele>
        <time>2022-08-20T09:38:34Z</time>
      </trkpt>
      <trkpt lat="42.780819" lon="-7.491893">
        <ele>635.497</ele>
        <time>2022-08-20T09:38:39Z</time>
      </trkpt>
      <trkpt lat="42.780821" lon="-7.491966">
        <ele>635.487</ele>
        <time>2022-08-20T09:38:45Z</time>
      </trkpt>
      <trkpt lat="42.780806" lon="-7.492031">
        <ele>635.568</ele>
        <time>2022-08-20T09:38:49Z</time>
      </trkpt>
      <trkpt lat="42.780786" lon="-7.492095">
        <ele>635.668</ele>
        <time>2022-08-20T09:38:53Z</time>
      </trkpt>
      <trkpt lat="42.780756" lon="-7.492140">
        <ele>635.751</ele>
        <time>2022-08-20T09:38:56Z</time>
      </trkpt>
      <trkpt lat="42.780735" lon="-7.492194">
        <ele>635.926</ele>
        <time>2022-08-20T09:38:59Z</time>
      </trkpt>
      <trkpt lat="42.780722" lon="-7.492254">
        <ele>636.016</ele>
        <time>2022-08-20T09:39:02Z</time>
      </trkpt>
      <trkpt lat="42.780707" lon="-7.492314">
        <ele>636.185</ele>
        <time>2022-08-20T09:39:05Z</time>
      </trkpt>
      <trkpt lat="42.780687" lon="-7.492379">
        <ele>636.291</ele>
        <time>2022-08-20T09:39:09Z</time>
      </trkpt>
      <trkpt lat="42.780676" lon="-7.492446">
        <ele>636.381</ele>
        <time>2022-08-20T09:39:13Z</time>
      </trkpt>
      <trkpt lat="42.780666" lon="-7.492522">
        <ele>636.419</ele>
        <time>2022-08-20T09:39:18Z</time>
      </trkpt>
      <trkpt lat="42.780666" lon="-7.492585">
        <ele>636.509</ele>
        <time>2022-08-20T09:39:22Z</time>
      </trkpt>
      <trkpt lat="42.780660" lon="-7.492654">
        <ele>636.620</ele>
        <time>2022-08-20T09:39:26Z</time>
      </trkpt>
      <trkpt lat="42.780649" lon="-7.492728">
        <ele>636.710</ele>
        <time>2022-08-20T09:39:31Z</time>
      </trkpt>
      <trkpt lat="42.780627" lon="-7.492796">
        <ele>636.720</ele>
        <time>2022-08-20T09:39:35Z</time>
      </trkpt>
      <trkpt lat="42.780618" lon="-7.492859">
        <ele>636.751</ele>
        <time>2022-08-20T09:39:39Z</time>
      </trkpt>
      <trkpt lat="42.780588" lon="-7.492920">
        <ele>636.721</ele>
        <time>2022-08-20T09:39:43Z</time>
      </trkpt>
      <trkpt lat="42.780596" lon="-7.492992">
        <ele>636.614</ele>
        <time>2022-08-20T09:39:47Z</time>
      </trkpt>
      <trkpt lat="42.780584" lon="-7.493059">
        <ele>636.499</ele>
        <time>2022-08-20T09:39:51Z</time>
      </trkpt>
      <trkpt lat="42.780563" lon="-7.493129">
        <ele>636.379</ele>
        <time>2022-08-20T09:39:55Z</time>
      </trkpt>
      <trkpt lat="42.780546" lon="-7.493194">
        <ele>636.268</ele>
        <time>2022-08-20T09:39:59Z</time>
      </trkpt>
      <trkpt lat="42.780542" lon="-7.493271">
        <ele>636.136</ele>
        <time>2022-08-20T09:40:04Z</time>
      </trkpt>
      <trkpt lat="42.780536" lon="-7.493338">
        <ele>635.917</ele>
        <time>2022-08-20T09:40:08Z</time>
      </trkpt>
      <trkpt lat="42.780530" lon="-7.493402">
        <ele>635.718</ele>
        <time>2022-08-20T09:40:12Z</time>
      </trkpt>
      <trkpt lat="42.780518" lon="-7.493474">
        <ele>635.609</ele>
        <time>2022-08-20T09:40:16Z</time>
      </trkpt>
      <trkpt lat="42.780502" lon="-7.493532">
        <ele>635.574</ele>
        <time>2022-08-20T09:40:21Z</time>
      </trkpt>
      <trkpt lat="42.780463" lon="-7.493572">
        <ele>635.354</ele>
        <time>2022-08-20T09:40:25Z</time>
      </trkpt>
      <trkpt lat="42.780430" lon="-7.493618">
        <ele>635.134</ele>
        <time>2022-08-20T09:40:29Z</time>
      </trkpt>
      <trkpt lat="42.780382" lon="-7.493668">
        <ele>634.975</ele>
        <time>2022-08-20T09:40:33Z</time>
      </trkpt>
      <trkpt lat="42.780355" lon="-7.493718">
        <ele>634.895</ele>
        <time>2022-08-20T09:40:36Z</time>
      </trkpt>
      <trkpt lat="42.780319" lon="-7.493781">
        <ele>634.788</ele>
        <time>2022-08-20T09:40:40Z</time>
      </trkpt>
      <trkpt lat="42.780313" lon="-7.493847">
        <ele>634.753</ele>
        <time>2022-08-20T09:40:44Z</time>
      </trkpt>
      <trkpt lat="42.780281" lon="-7.493915">
        <ele>634.633</ele>
        <time>2022-08-20T09:40:48Z</time>
      </trkpt>
      <trkpt lat="42.780267" lon="-7.493988">
        <ele>634.562</ele>
        <time>2022-08-20T09:40:52Z</time>
      </trkpt>
      <trkpt lat="42.780239" lon="-7.494043">
        <ele>634.218</ele>
        <time>2022-08-20T09:40:56Z</time>
      </trkpt>
      <trkpt lat="42.780223" lon="-7.494115">
        <ele>634.198</ele>
        <time>2022-08-20T09:41:00Z</time>
      </trkpt>
      <trkpt lat="42.780205" lon="-7.494188">
        <ele>633.717</ele>
        <time>2022-08-20T09:41:04Z</time>
      </trkpt>
      <trkpt lat="42.780198" lon="-7.494265">
        <ele>633.309</ele>
        <time>2022-08-20T09:41:08Z</time>
      </trkpt>
      <trkpt lat="42.780192" lon="-7.494330">
        <ele>633.112</ele>
        <time>2022-08-20T09:41:12Z</time>
      </trkpt>
      <trkpt lat="42.780188" lon="-7.494396">
        <ele>632.872</ele>
        <time>2022-08-20T09:41:16Z</time>
      </trkpt>
      <trkpt lat="42.780216" lon="-7.494453">
        <ele>632.542</ele>
        <time>2022-08-20T09:41:21Z</time>
      </trkpt>
      <trkpt lat="42.780263" lon="-7.494482">
        <ele>632.313</ele>
        <time>2022-08-20T09:41:25Z</time>
      </trkpt>
      <trkpt lat="42.780308" lon="-7.494505">
        <ele>632.123</ele>
        <time>2022-08-20T09:41:28Z</time>
      </trkpt>
      <trkpt lat="42.780353" lon="-7.494537">
        <ele>631.976</ele>
        <time>2022-08-20T09:41:32Z</time>
      </trkpt>
      <trkpt lat="42.780396" lon="-7.494572">
        <ele>631.941</ele>
        <time>2022-08-20T09:41:36Z</time>
      </trkpt>
      <trkpt lat="42.780442" lon="-7.494613">
        <ele>631.981</ele>
        <time>2022-08-20T09:41:40Z</time>
      </trkpt>
      <trkpt lat="42.780484" lon="-7.494666">
        <ele>631.970</ele>
        <time>2022-08-20T09:41:44Z</time>
      </trkpt>
      <trkpt lat="42.780516" lon="-7.494728">
        <ele>632.015</ele>
        <time>2022-08-20T09:41:48Z</time>
      </trkpt>
      <trkpt lat="42.780550" lon="-7.494780">
        <ele>632.065</ele>
        <time>2022-08-20T09:41:52Z</time>
      </trkpt>
      <trkpt lat="42.780578" lon="-7.494835">
        <ele>632.011</ele>
        <time>2022-08-20T09:41:56Z</time>
      </trkpt>
      <trkpt lat="42.780605" lon="-7.494888">
        <ele>632.009</ele>
        <time>2022-08-20T09:42:00Z</time>
      </trkpt>
      <trkpt lat="42.780639" lon="-7.494933">
        <ele>632.092</ele>
        <time>2022-08-20T09:42:03Z</time>
      </trkpt>
      <trkpt lat="42.780671" lon="-7.494976">
        <ele>632.042</ele>
        <time>2022-08-20T09:42:06Z</time>
      </trkpt>
      <trkpt lat="42.780709" lon="-7.495031">
        <ele>632.082</ele>
        <time>2022-08-20T09:42:10Z</time>
      </trkpt>
      <trkpt lat="42.780742" lon="-7.495086">
        <ele>632.013</ele>
        <time>2022-08-20T09:42:16Z</time>
      </trkpt>
      <trkpt lat="42.780779" lon="-7.495144">
        <ele>632.093</ele>
        <time>2022-08-20T09:42:20Z</time>
      </trkpt>
      <trkpt lat="42.780812" lon="-7.495187">
        <ele>632.016</ele>
        <time>2022-08-20T09:42:23Z</time>
      </trkpt>
      <trkpt lat="42.780837" lon="-7.495252">
        <ele>632.081</ele>
        <time>2022-08-20T09:42:27Z</time>
      </trkpt>
      <trkpt lat="42.780863" lon="-7.495310">
        <ele>632.041</ele>
        <time>2022-08-20T09:42:30Z</time>
      </trkpt>
      <trkpt lat="42.780895" lon="-7.495372">
        <ele>632.150</ele>
        <time>2022-08-20T09:42:34Z</time>
      </trkpt>
      <trkpt lat="42.780920" lon="-7.495444">
        <ele>632.281</ele>
        <time>2022-08-20T09:42:38Z</time>
      </trkpt>
      <trkpt lat="42.780946" lon="-7.495516">
        <ele>632.461</ele>
        <time>2022-08-20T09:42:42Z</time>
      </trkpt>
      <trkpt lat="42.780969" lon="-7.495581">
        <ele>632.617</ele>
        <time>2022-08-20T09:42:46Z</time>
      </trkpt>
      <trkpt lat="42.780974" lon="-7.495660">
        <ele>632.809</ele>
        <time>2022-08-20T09:42:50Z</time>
      </trkpt>
      <trkpt lat="42.780950" lon="-7.495722">
        <ele>632.989</ele>
        <time>2022-08-20T09:42:56Z</time>
      </trkpt>
      <trkpt lat="42.780910" lon="-7.495764">
        <ele>633.149</ele>
        <time>2022-08-20T09:43:01Z</time>
      </trkpt>
      <trkpt lat="42.780854" lon="-7.495793">
        <ele>633.729</ele>
        <time>2022-08-20T09:43:05Z</time>
      </trkpt>
      <trkpt lat="42.780812" lon="-7.495820">
        <ele>634.070</ele>
        <time>2022-08-20T09:43:09Z</time>
      </trkpt>
      <trkpt lat="42.780761" lon="-7.495849">
        <ele>634.490</ele>
        <time>2022-08-20T09:43:12Z</time>
      </trkpt>
      <trkpt lat="42.780718" lon="-7.495894">
        <ele>634.513</ele>
        <time>2022-08-20T09:43:17Z</time>
      </trkpt>
      <trkpt lat="42.780670" lon="-7.495923">
        <ele>634.678</ele>
        <time>2022-08-20T09:43:22Z</time>
      </trkpt>
      <trkpt lat="42.780618" lon="-7.495932">
        <ele>634.788</ele>
        <time>2022-08-20T09:43:27Z</time>
      </trkpt>
      <trkpt lat="42.780568" lon="-7.495944">
        <ele>634.897</ele>
        <time>2022-08-20T09:43:31Z</time>
      </trkpt>
      <trkpt lat="42.780518" lon="-7.495928">
        <ele>635.027</ele>
        <time>2022-08-20T09:43:37Z</time>
      </trkpt>
      <trkpt lat="42.780463" lon="-7.495926">
        <ele>635.268</ele>
        <time>2022-08-20T09:43:41Z</time>
      </trkpt>
      <trkpt lat="42.780418" lon="-7.495920">
        <ele>635.414</ele>
        <time>2022-08-20T09:43:44Z</time>
      </trkpt>
      <trkpt lat="42.780363" lon="-7.495922">
        <ele>635.609</ele>
        <time>2022-08-20T09:43:48Z</time>
      </trkpt>
      <trkpt lat="42.780316" lon="-7.495910">
        <ele>635.723</ele>
        <time>2022-08-20T09:43:51Z</time>
      </trkpt>
      <trkpt lat="42.780268" lon="-7.495889">
        <ele>635.863</ele>
        <time>2022-08-20T09:43:55Z</time>
      </trkpt>
      <trkpt lat="42.780220" lon="-7.495877">
        <ele>635.973</ele>
        <time>2022-08-20T09:43:58Z</time>
      </trkpt>
      <trkpt lat="42.780165" lon="-7.495867">
        <ele>636.184</ele>
        <time>2022-08-20T09:44:01Z</time>
      </trkpt>
      <trkpt lat="42.780121" lon="-7.495855">
        <ele>636.394</ele>
        <time>2022-08-20T09:44:06Z</time>
      </trkpt>
      <trkpt lat="42.780072" lon="-7.495841">
        <ele>636.497</ele>
        <time>2022-08-20T09:44:09Z</time>
      </trkpt>
      <trkpt lat="42.780017" lon="-7.495842">
        <ele>636.622</ele>
        <time>2022-08-20T09:44:13Z</time>
      </trkpt>
      <trkpt lat="42.779968" lon="-7.495848">
        <ele>636.822</ele>
        <time>2022-08-20T09:44:16Z</time>
      </trkpt>
      <trkpt lat="42.779924" lon="-7.495866">
        <ele>637.081</ele>
        <time>2022-08-20T09:44:20Z</time>
      </trkpt>
      <trkpt lat="42.779874" lon="-7.495862">
        <ele>637.223</ele>
        <time>2022-08-20T09:44:24Z</time>
      </trkpt>
      <trkpt lat="42.779829" lon="-7.495858">
        <ele>637.483</ele>
        <time>2022-08-20T09:44:27Z</time>
      </trkpt>
      <trkpt lat="42.779782" lon="-7.495867">
        <ele>637.811</ele>
        <time>2022-08-20T09:44:31Z</time>
      </trkpt>
      <trkpt lat="42.779743" lon="-7.495902">
        <ele>638.209</ele>
        <time>2022-08-20T09:44:35Z</time>
      </trkpt>
      <trkpt lat="42.779708" lon="-7.495949">
        <ele>638.673</ele>
        <time>2022-08-20T09:44:41Z</time>
      </trkpt>
      <trkpt lat="42.779670" lon="-7.495998">
        <ele>639.043</ele>
        <time>2022-08-20T09:44:46Z</time>
      </trkpt>
      <trkpt lat="42.779633" lon="-7.496053">
        <ele>639.413</ele>
        <time>2022-08-20T09:44:50Z</time>
      </trkpt>
      <trkpt lat="42.779601" lon="-7.496108">
        <ele>639.874</ele>
        <time>2022-08-20T09:44:54Z</time>
      </trkpt>
      <trkpt lat="42.779578" lon="-7.496165">
        <ele>640.074</ele>
        <time>2022-08-20T09:44:58Z</time>
      </trkpt>
      <trkpt lat="42.779563" lon="-7.496227">
        <ele>640.277</ele>
        <time>2022-08-20T09:45:02Z</time>
      </trkpt>
      <trkpt lat="42.779536" lon="-7.496295">
        <ele>640.572</ele>
        <time>2022-08-20T09:45:06Z</time>
      </trkpt>
      <trkpt lat="42.779514" lon="-7.496359">
        <ele>640.892</ele>
        <time>2022-08-20T09:45:10Z</time>
      </trkpt>
      <trkpt lat="42.779500" lon="-7.496428">
        <ele>641.121</ele>
        <time>2022-08-20T09:45:14Z</time>
      </trkpt>
      <trkpt lat="42.779486" lon="-7.496498">
        <ele>641.467</ele>
        <time>2022-08-20T09:45:18Z</time>
      </trkpt>
      <trkpt lat="42.779479" lon="-7.496582">
        <ele>641.781</ele>
        <time>2022-08-20T09:45:22Z</time>
      </trkpt>
      <trkpt lat="42.779471" lon="-7.496648">
        <ele>641.819</ele>
        <time>2022-08-20T09:45:26Z</time>
      </trkpt>
      <trkpt lat="42.779467" lon="-7.496714">
        <ele>641.909</ele>
        <time>2022-08-20T09:45:30Z</time>
      </trkpt>
      <trkpt lat="42.779465" lon="-7.496777">
        <ele>641.937</ele>
        <time>2022-08-20T09:45:33Z</time>
      </trkpt>
      <trkpt lat="42.779464" lon="-7.496854">
        <ele>641.997</ele>
        <time>2022-08-20T09:45:37Z</time>
      </trkpt>
      <trkpt lat="42.779458" lon="-7.496918">
        <ele>641.927</ele>
        <time>2022-08-20T09:45:40Z</time>
      </trkpt>
      <trkpt lat="42.779441" lon="-7.496983">
        <ele>641.878</ele>
        <time>2022-08-20T09:45:43Z</time>
      </trkpt>
      <trkpt lat="42.779440" lon="-7.497053">
        <ele>641.788</ele>
        <time>2022-08-20T09:45:47Z</time>
      </trkpt>
      <trkpt lat="42.779418" lon="-7.497107">
        <ele>641.691</ele>
        <time>2022-08-20T09:45:50Z</time>
      </trkpt>
      <trkpt lat="42.779390" lon="-7.497167">
        <ele>641.466</ele>
        <time>2022-08-20T09:45:54Z</time>
      </trkpt>
      <trkpt lat="42.779371" lon="-7.497239">
        <ele>641.256</ele>
        <time>2022-08-20T09:45:58Z</time>
      </trkpt>
      <trkpt lat="42.779361" lon="-7.497318">
        <ele>641.055</ele>
        <time>2022-08-20T09:46:02Z</time>
      </trkpt>
      <trkpt lat="42.779354" lon="-7.497395">
        <ele>640.844</ele>
        <time>2022-08-20T09:46:06Z</time>
      </trkpt>
      <trkpt lat="42.779345" lon="-7.497470">
        <ele>640.805</ele>
        <time>2022-08-20T09:46:10Z</time>
      </trkpt>
      <trkpt lat="42.779334" lon="-7.497545">
        <ele>640.715</ele>
        <time>2022-08-20T09:46:14Z</time>
      </trkpt>
      <trkpt lat="42.779330" lon="-7.497614">
        <ele>640.609</ele>
        <time>2022-08-20T09:46:18Z</time>
      </trkpt>
      <trkpt lat="42.779317" lon="-7.497690">
        <ele>640.485</ele>
        <time>2022-08-20T09:46:22Z</time>
      </trkpt>
      <trkpt lat="42.779316" lon="-7.497753">
        <ele>640.315</ele>
        <time>2022-08-20T09:46:26Z</time>
      </trkpt>
      <trkpt lat="42.779312" lon="-7.497827">
        <ele>640.225</ele>
        <time>2022-08-20T09:46:30Z</time>
      </trkpt>
      <trkpt lat="42.779305" lon="-7.497902">
        <ele>640.166</ele>
        <time>2022-08-20T09:46:34Z</time>
      </trkpt>
      <trkpt lat="42.779296" lon="-7.497970">
        <ele>640.086</ele>
        <time>2022-08-20T09:46:38Z</time>
      </trkpt>
      <trkpt lat="42.779284" lon="-7.498038">
        <ele>639.999</ele>
        <time>2022-08-20T09:46:42Z</time>
      </trkpt>
      <trkpt lat="42.779268" lon="-7.498100">
        <ele>639.874</ele>
        <time>2022-08-20T09:46:46Z</time>
      </trkpt>
      <trkpt lat="42.779256" lon="-7.498177">
        <ele>639.644</ele>
        <time>2022-08-20T09:46:50Z</time>
      </trkpt>
      <trkpt lat="42.779244" lon="-7.498249">
        <ele>639.493</ele>
        <time>2022-08-20T09:46:54Z</time>
      </trkpt>
      <trkpt lat="42.779231" lon="-7.498315">
        <ele>639.385</ele>
        <time>2022-08-20T09:46:58Z</time>
      </trkpt>
      <trkpt lat="42.779221" lon="-7.498380">
        <ele>639.289</ele>
        <time>2022-08-20T09:47:02Z</time>
      </trkpt>
      <trkpt lat="42.779194" lon="-7.498439">
        <ele>639.117</ele>
        <time>2022-08-20T09:47:06Z</time>
      </trkpt>
      <trkpt lat="42.779175" lon="-7.498516">
        <ele>639.009</ele>
        <time>2022-08-20T09:47:10Z</time>
      </trkpt>
      <trkpt lat="42.779162" lon="-7.498590">
        <ele>638.969</ele>
        <time>2022-08-20T09:47:14Z</time>
      </trkpt>
      <trkpt lat="42.779143" lon="-7.498655">
        <ele>638.739</ele>
        <time>2022-08-20T09:47:17Z</time>
      </trkpt>
      <trkpt lat="42.779130" lon="-7.498727">
        <ele>638.439</ele>
        <time>2022-08-20T09:47:21Z</time>
      </trkpt>
      <trkpt lat="42.779110" lon="-7.498793">
        <ele>638.220</ele>
        <time>2022-08-20T09:47:25Z</time>
      </trkpt>
      <trkpt lat="42.779104" lon="-7.498856">
        <ele>638.010</ele>
        <time>2022-08-20T09:47:29Z</time>
      </trkpt>
      <trkpt lat="42.779092" lon="-7.498919">
        <ele>637.573</ele>
        <time>2022-08-20T09:47:33Z</time>
      </trkpt>
      <trkpt lat="42.779064" lon="-7.498999">
        <ele>637.248</ele>
        <time>2022-08-20T09:47:38Z</time>
      </trkpt>
      <trkpt lat="42.779029" lon="-7.499060">
        <ele>637.088</ele>
        <time>2022-08-20T09:47:42Z</time>
      </trkpt>
      <trkpt lat="42.779005" lon="-7.499128">
        <ele>636.777</ele>
        <time>2022-08-20T09:47:46Z</time>
      </trkpt>
      <trkpt lat="42.778991" lon="-7.499197">
        <ele>636.574</ele>
        <time>2022-08-20T09:47:52Z</time>
      </trkpt>
      <trkpt lat="42.778971" lon="-7.499261">
        <ele>636.456</ele>
        <time>2022-08-20T09:47:57Z</time>
      </trkpt>
      <trkpt lat="42.778945" lon="-7.499325">
        <ele>636.421</ele>
        <time>2022-08-20T09:48:01Z</time>
      </trkpt>
      <trkpt lat="42.778906" lon="-7.499361">
        <ele>636.309</ele>
        <time>2022-08-20T09:48:04Z</time>
      </trkpt>
      <trkpt lat="42.778861" lon="-7.499386">
        <ele>636.258</ele>
        <time>2022-08-20T09:48:07Z</time>
      </trkpt>
      <trkpt lat="42.778824" lon="-7.499434">
        <ele>636.148</ele>
        <time>2022-08-20T09:48:11Z</time>
      </trkpt>
      <trkpt lat="42.778780" lon="-7.499472">
        <ele>636.048</ele>
        <time>2022-08-20T09:48:16Z</time>
      </trkpt>
      <trkpt lat="42.778741" lon="-7.499509">
        <ele>635.879</ele>
        <time>2022-08-20T09:48:20Z</time>
      </trkpt>
      <trkpt lat="42.778702" lon="-7.499548">
        <ele>635.629</ele>
        <time>2022-08-20T09:48:26Z</time>
      </trkpt>
      <trkpt lat="42.778654" lon="-7.499595">
        <ele>635.332</ele>
        <time>2022-08-20T09:48:30Z</time>
      </trkpt>
      <trkpt lat="42.778611" lon="-7.499629">
        <ele>635.127</ele>
        <time>2022-08-20T09:48:34Z</time>
      </trkpt>
      <trkpt lat="42.778571" lon="-7.499668">
        <ele>634.917</ele>
        <time>2022-08-20T09:48:38Z</time>
      </trkpt>
      <trkpt lat="42.778519" lon="-7.499700">
        <ele>634.886</ele>
        <time>2022-08-20T09:48:42Z</time>
      </trkpt>
      <trkpt lat="42.778472" lon="-7.499724">
        <ele>634.889</ele>
        <time>2022-08-20T09:48:45Z</time>
      </trkpt>
      <trkpt lat="42.778418" lon="-7.499777">
        <ele>634.806</ele>
        <time>2022-08-20T09:48:49Z</time>
      </trkpt>
      <trkpt lat="42.778371" lon="-7.499820">
        <ele>634.926</ele>
        <time>2022-08-20T09:48:52Z</time>
      </trkpt>
      <trkpt lat="42.778340" lon="-7.499865">
        <ele>634.909</ele>
        <time>2022-08-20T09:48:55Z</time>
      </trkpt>
      <trkpt lat="42.778295" lon="-7.499903">
        <ele>635.019</ele>
        <time>2022-08-20T09:48:58Z</time>
      </trkpt>
      <trkpt lat="42.778258" lon="-7.499939">
        <ele>635.149</ele>
        <time>2022-08-20T09:49:01Z</time>
      </trkpt>
      <trkpt lat="42.778229" lon="-7.499988">
        <ele>635.259</ele>
        <time>2022-08-20T09:49:04Z</time>
      </trkpt>
      <trkpt lat="42.778191" lon="-7.500035">
        <ele>635.330</ele>
        <time>2022-08-20T09:49:08Z</time>
      </trkpt>
      <trkpt lat="42.778156" lon="-7.500078">
        <ele>635.490</ele>
        <time>2022-08-20T09:49:14Z</time>
      </trkpt>
      <trkpt lat="42.778112" lon="-7.500132">
        <ele>635.633</ele>
        <time>2022-08-20T09:49:18Z</time>
      </trkpt>
      <trkpt lat="42.778072" lon="-7.500174">
        <ele>635.988</ele>
        <time>2022-08-20T09:49:22Z</time>
      </trkpt>
      <trkpt lat="42.778026" lon="-7.500213">
        <ele>636.228</ele>
        <time>2022-08-20T09:49:26Z</time>
      </trkpt>
      <trkpt lat="42.778000" lon="-7.500266">
        <ele>636.447</ele>
        <time>2022-08-20T09:49:30Z</time>
      </trkpt>
      <trkpt lat="42.777956" lon="-7.500306">
        <ele>636.431</ele>
        <time>2022-08-20T09:49:34Z</time>
      </trkpt>
      <trkpt lat="42.777918" lon="-7.500360">
        <ele>636.461</ele>
        <time>2022-08-20T09:49:38Z</time>
      </trkpt>
      <trkpt lat="42.777893" lon="-7.500430">
        <ele>636.407</ele>
        <time>2022-08-20T09:49:43Z</time>
      </trkpt>
      <trkpt lat="42.777858" lon="-7.500482">
        <ele>636.209</ele>
        <time>2022-08-20T09:49:47Z</time>
      </trkpt>
      <trkpt lat="42.777829" lon="-7.500529">
        <ele>636.054</ele>
        <time>2022-08-20T09:49:50Z</time>
      </trkpt>
      <trkpt lat="42.777814" lon="-7.500611">
        <ele>635.844</ele>
        <time>2022-08-20T09:49:54Z</time>
      </trkpt>
      <trkpt lat="42.777811" lon="-7.500683">
        <ele>635.984</ele>
        <time>2022-08-20T09:49:58Z</time>
      </trkpt>
      <trkpt lat="42.777819" lon="-7.500755">
        <ele>635.995</ele>
        <time>2022-08-20T09:50:02Z</time>
      </trkpt>
      <trkpt lat="42.777818" lon="-7.500832">
        <ele>636.085</ele>
        <time>2022-08-20T09:50:06Z</time>
      </trkpt>
      <trkpt lat="42.777815" lon="-7.500895">
        <ele>636.428</ele>
        <time>2022-08-20T09:50:09Z</time>
      </trkpt>
      <trkpt lat="42.777801" lon="-7.500955">
        <ele>636.793</ele>
        <time>2022-08-20T09:50:12Z</time>
      </trkpt>
      <trkpt lat="42.777784" lon="-7.501029">
        <ele>637.243</ele>
        <time>2022-08-20T09:50:16Z</time>
      </trkpt>
      <trkpt lat="42.777775" lon="-7.501097">
        <ele>637.542</ele>
        <time>2022-08-20T09:50:20Z</time>
      </trkpt>
      <trkpt lat="42.777757" lon="-7.501167">
        <ele>637.817</ele>
        <time>2022-08-20T09:50:25Z</time>
      </trkpt>
      <trkpt lat="42.777734" lon="-7.501227">
        <ele>638.087</ele>
        <time>2022-08-20T09:50:29Z</time>
      </trkpt>
      <trkpt lat="42.777713" lon="-7.501282">
        <ele>638.115</ele>
        <time>2022-08-20T09:50:32Z</time>
      </trkpt>
      <trkpt lat="42.777696" lon="-7.501347">
        <ele>638.209</ele>
        <time>2022-08-20T09:50:36Z</time>
      </trkpt>
      <trkpt lat="42.777677" lon="-7.501408">
        <ele>638.312</ele>
        <time>2022-08-20T09:50:40Z</time>
      </trkpt>
      <trkpt lat="42.777666" lon="-7.501482">
        <ele>638.462</ele>
        <time>2022-08-20T09:50:45Z</time>
      </trkpt>
      <trkpt lat="42.777650" lon="-7.501539">
        <ele>638.532</ele>
        <time>2022-08-20T09:50:49Z</time>
      </trkpt>
      <trkpt lat="42.777624" lon="-7.501601">
        <ele>638.763</ele>
        <time>2022-08-20T09:50:55Z</time>
      </trkpt>
      <trkpt lat="42.777606" lon="-7.501659">
        <ele>638.893</ele>
        <time>2022-08-20T09:51:00Z</time>
      </trkpt>
      <trkpt lat="42.777593" lon="-7.501721">
        <ele>638.966</ele>
        <time>2022-08-20T09:51:06Z</time>
      </trkpt>
      <trkpt lat="42.777575" lon="-7.501778">
        <ele>638.981</ele>
        <time>2022-08-20T09:51:15Z</time>
      </trkpt>
      <trkpt lat="42.777551" lon="-7.501842">
        <ele>638.951</ele>
        <time>2022-08-20T09:51:20Z</time>
      </trkpt>
      <trkpt lat="42.777527" lon="-7.501908">
        <ele>638.970</ele>
        <time>2022-08-20T09:51:25Z</time>
      </trkpt>
      <trkpt lat="42.777493" lon="-7.501962">
        <ele>638.942</ele>
        <time>2022-08-20T09:51:29Z</time>
      </trkpt>
      <trkpt lat="42.777482" lon="-7.502037">
        <ele>639.022</ele>
        <time>2022-08-20T09:51:33Z</time>
      </trkpt>
      <trkpt lat="42.777461" lon="-7.502095">
        <ele>639.014</ele>
        <time>2022-08-20T09:51:36Z</time>
      </trkpt>
      <trkpt lat="42.777452" lon="-7.502155">
        <ele>639.009</ele>
        <time>2022-08-20T09:51:39Z</time>
      </trkpt>
      <trkpt lat="42.777421" lon="-7.502219">
        <ele>639.185</ele>
        <time>2022-08-20T09:51:43Z</time>
      </trkpt>
      <trkpt lat="42.777428" lon="-7.502286">
        <ele>639.345</ele>
        <time>2022-08-20T09:51:47Z</time>
      </trkpt>
      <trkpt lat="42.777414" lon="-7.502355">
        <ele>639.565</ele>
        <time>2022-08-20T09:51:51Z</time>
      </trkpt>
      <trkpt lat="42.777406" lon="-7.502417">
        <ele>639.696</ele>
        <time>2022-08-20T09:51:55Z</time>
      </trkpt>
      <trkpt lat="42.777381" lon="-7.502482">
        <ele>639.836</ele>
        <time>2022-08-20T09:51:59Z</time>
      </trkpt>
      <trkpt lat="42.777365" lon="-7.502552">
        <ele>640.289</ele>
        <time>2022-08-20T09:52:04Z</time>
      </trkpt>
      <trkpt lat="42.777346" lon="-7.502626">
        <ele>640.774</ele>
        <time>2022-08-20T09:52:08Z</time>
      </trkpt>
      <trkpt lat="42.777323" lon="-7.502693">
        <ele>641.484</ele>
        <time>2022-08-20T09:52:12Z</time>
      </trkpt>
      <trkpt lat="42.777304" lon="-7.502772">
        <ele>642.433</ele>
        <time>2022-08-20T09:52:16Z</time>
      </trkpt>
      <trkpt lat="42.777289" lon="-7.502850">
        <ele>642.683</ele>
        <time>2022-08-20T09:52:20Z</time>
      </trkpt>
      <trkpt lat="42.777282" lon="-7.502925">
        <ele>642.725</ele>
        <time>2022-08-20T09:52:24Z</time>
      </trkpt>
      <trkpt lat="42.777288" lon="-7.502995">
        <ele>642.717</ele>
        <time>2022-08-20T09:52:28Z</time>
      </trkpt>
      <trkpt lat="42.777296" lon="-7.503063">
        <ele>642.709</ele>
        <time>2022-08-20T09:52:32Z</time>
      </trkpt>
      <trkpt lat="42.777307" lon="-7.503132">
        <ele>643.179</ele>
        <time>2022-08-20T09:52:36Z</time>
      </trkpt>
      <trkpt lat="42.777302" lon="-7.503206">
        <ele>643.319</ele>
        <time>2022-08-20T09:52:40Z</time>
      </trkpt>
      <trkpt lat="42.777287" lon="-7.503272">
        <ele>643.789</ele>
        <time>2022-08-20T09:52:44Z</time>
      </trkpt>
      <trkpt lat="42.777281" lon="-7.503338">
        <ele>644.060</ele>
        <time>2022-08-20T09:52:48Z</time>
      </trkpt>
      <trkpt lat="42.777291" lon="-7.503404">
        <ele>644.350</ele>
        <time>2022-08-20T09:52:53Z</time>
      </trkpt>
      <trkpt lat="42.777310" lon="-7.503469">
        <ele>644.553</ele>
        <time>2022-08-20T09:52:57Z</time>
      </trkpt>
      <trkpt lat="42.777336" lon="-7.503527">
        <ele>644.778</ele>
        <time>2022-08-20T09:53:01Z</time>
      </trkpt>
      <trkpt lat="42.777383" lon="-7.503572">
        <ele>644.998</ele>
        <time>2022-08-20T09:53:05Z</time>
      </trkpt>
      <trkpt lat="42.777418" lon="-7.503619">
        <ele>645.027</ele>
        <time>2022-08-20T09:53:09Z</time>
      </trkpt>
      <trkpt lat="42.777447" lon="-7.503673">
        <ele>645.148</ele>
        <time>2022-08-20T09:53:13Z</time>
      </trkpt>
      <trkpt lat="42.777464" lon="-7.503732">
        <ele>645.561</ele>
        <time>2022-08-20T09:53:16Z</time>
      </trkpt>
      <trkpt lat="42.777487" lon="-7.503803">
        <ele>645.917</ele>
        <time>2022-08-20T09:53:20Z</time>
      </trkpt>
      <trkpt lat="42.777498" lon="-7.503870">
        <ele>645.909</ele>
        <time>2022-08-20T09:53:24Z</time>
      </trkpt>
      <trkpt lat="42.777500" lon="-7.503938">
        <ele>645.925</ele>
        <time>2022-08-20T09:53:28Z</time>
      </trkpt>
      <trkpt lat="42.777501" lon="-7.504001">
        <ele>645.935</ele>
        <time>2022-08-20T09:53:32Z</time>
      </trkpt>
      <trkpt lat="42.777496" lon="-7.504077">
        <ele>645.545</ele>
        <time>2022-08-20T09:53:36Z</time>
      </trkpt>
      <trkpt lat="42.777504" lon="-7.504142">
        <ele>645.076</ele>
        <time>2022-08-20T09:53:40Z</time>
      </trkpt>
      <trkpt lat="42.777506" lon="-7.504223">
        <ele>644.536</ele>
        <time>2022-08-20T09:53:44Z</time>
      </trkpt>
      <trkpt lat="42.777501" lon="-7.504309">
        <ele>643.769</ele>
        <time>2022-08-20T09:53:48Z</time>
      </trkpt>
      <trkpt lat="42.777491" lon="-7.504385">
        <ele>643.054</ele>
        <time>2022-08-20T09:53:52Z</time>
      </trkpt>
      <trkpt lat="42.777497" lon="-7.504462">
        <ele>642.334</ele>
        <time>2022-08-20T09:53:56Z</time>
      </trkpt>
      <trkpt lat="42.777492" lon="-7.504539">
        <ele>641.743</ele>
        <time>2022-08-20T09:54:00Z</time>
      </trkpt>
      <trkpt lat="42.777484" lon="-7.504605">
        <ele>641.224</ele>
        <time>2022-08-20T09:54:04Z</time>
      </trkpt>
      <trkpt lat="42.777470" lon="-7.504671">
        <ele>640.804</ele>
        <time>2022-08-20T09:54:08Z</time>
      </trkpt>
      <trkpt lat="42.777447" lon="-7.504744">
        <ele>640.514</ele>
        <time>2022-08-20T09:54:13Z</time>
      </trkpt>
      <trkpt lat="42.777423" lon="-7.504802">
        <ele>640.409</ele>
        <time>2022-08-20T09:54:17Z</time>
      </trkpt>
      <trkpt lat="42.777389" lon="-7.504860">
        <ele>640.273</ele>
        <time>2022-08-20T09:54:21Z</time>
      </trkpt>
      <trkpt lat="42.777357" lon="-7.504905">
        <ele>640.023</ele>
        <time>2022-08-20T09:54:25Z</time>
      </trkpt>
      <trkpt lat="42.777318" lon="-7.504964">
        <ele>639.943</ele>
        <time>2022-08-20T09:54:29Z</time>
      </trkpt>
      <trkpt lat="42.777292" lon="-7.505025">
        <ele>639.884</ele>
        <time>2022-08-20T09:54:33Z</time>
      </trkpt>
      <trkpt lat="42.777261" lon="-7.505086">
        <ele>639.764</ele>
        <time>2022-08-20T09:54:37Z</time>
      </trkpt>
      <trkpt lat="42.777237" lon="-7.505161">
        <ele>639.627</ele>
        <time>2022-08-20T09:54:41Z</time>
      </trkpt>
      <trkpt lat="42.777228" lon="-7.505234">
        <ele>639.662</ele>
        <time>2022-08-20T09:54:45Z</time>
      </trkpt>
      <trkpt lat="42.777217" lon="-7.505307">
        <ele>639.562</ele>
        <time>2022-08-20T09:54:49Z</time>
      </trkpt>
      <trkpt lat="42.777207" lon="-7.505375">
        <ele>639.471</ele>
        <time>2022-08-20T09:54:53Z</time>
      </trkpt>
      <trkpt lat="42.777193" lon="-7.505441">
        <ele>639.322</ele>
        <time>2022-08-20T09:54:57Z</time>
      </trkpt>
      <trkpt lat="42.777189" lon="-7.505507">
        <ele>639.262</ele>
        <time>2022-08-20T09:55:01Z</time>
      </trkpt>
      <trkpt lat="42.777181" lon="-7.505573">
        <ele>639.108</ele>
        <time>2022-08-20T09:55:05Z</time>
      </trkpt>
      <trkpt lat="42.777168" lon="-7.505646">
        <ele>638.909</ele>
        <time>2022-08-20T09:55:09Z</time>
      </trkpt>
      <trkpt lat="42.777159" lon="-7.505712">
        <ele>638.663</ele>
        <time>2022-08-20T09:55:13Z</time>
      </trkpt>
      <trkpt lat="42.777155" lon="-7.505778">
        <ele>638.323</ele>
        <time>2022-08-20T09:55:17Z</time>
      </trkpt>
      <trkpt lat="42.777156" lon="-7.505852">
        <ele>638.133</ele>
        <time>2022-08-20T09:55:21Z</time>
      </trkpt>
      <trkpt lat="42.777153" lon="-7.505925">
        <ele>637.914</ele>
        <time>2022-08-20T09:55:26Z</time>
      </trkpt>
      <trkpt lat="42.777158" lon="-7.505991">
        <ele>637.634</ele>
        <time>2022-08-20T09:55:30Z</time>
      </trkpt>
      <trkpt lat="42.777174" lon="-7.506056">
        <ele>637.237</ele>
        <time>2022-08-20T09:55:34Z</time>
      </trkpt>
      <trkpt lat="42.777204" lon="-7.506113">
        <ele>636.872</ele>
        <time>2022-08-20T09:55:38Z</time>
      </trkpt>
      <trkpt lat="42.777220" lon="-7.506170">
        <ele>636.522</ele>
        <time>2022-08-20T09:55:41Z</time>
      </trkpt>
      <trkpt lat="42.777259" lon="-7.506227">
        <ele>636.341</ele>
        <time>2022-08-20T09:55:45Z</time>
      </trkpt>
      <trkpt lat="42.777285" lon="-7.506290">
        <ele>636.113</ele>
        <time>2022-08-20T09:55:49Z</time>
      </trkpt>
      <trkpt lat="42.777311" lon="-7.506356">
        <ele>635.743</ele>
        <time>2022-08-20T09:55:53Z</time>
      </trkpt>
      <trkpt lat="42.777327" lon="-7.506415">
        <ele>635.007</ele>
        <time>2022-08-20T09:55:57Z</time>
      </trkpt>
      <trkpt lat="42.777354" lon="-7.506475">
        <ele>634.309</ele>
        <time>2022-08-20T09:56:01Z</time>
      </trkpt>
      <trkpt lat="42.777382" lon="-7.506541">
        <ele>633.792</ele>
        <time>2022-08-20T09:56:06Z</time>
      </trkpt>
      <trkpt lat="42.777401" lon="-7.506613">
        <ele>633.232</ele>
        <time>2022-08-20T09:56:11Z</time>
      </trkpt>
      <trkpt lat="42.777425" lon="-7.506666">
        <ele>632.522</ele>
        <time>2022-08-20T09:56:15Z</time>
      </trkpt>
      <trkpt lat="42.777457" lon="-7.506715">
        <ele>631.783</ele>
        <time>2022-08-20T09:56:18Z</time>
      </trkpt>
      <trkpt lat="42.777497" lon="-7.506764">
        <ele>631.013</ele>
        <time>2022-08-20T09:56:22Z</time>
      </trkpt>
      <trkpt lat="42.777546" lon="-7.506815">
        <ele>630.446</ele>
        <time>2022-08-20T09:56:26Z</time>
      </trkpt>
      <trkpt lat="42.777577" lon="-7.506867">
        <ele>629.871</ele>
        <time>2022-08-20T09:56:29Z</time>
      </trkpt>
      <trkpt lat="42.777615" lon="-7.506929">
        <ele>628.921</ele>
        <time>2022-08-20T09:56:33Z</time>
      </trkpt>
      <trkpt lat="42.777661" lon="-7.506983">
        <ele>628.620</ele>
        <time>2022-08-20T09:56:37Z</time>
      </trkpt>
      <trkpt lat="42.777689" lon="-7.507034">
        <ele>628.364</ele>
        <time>2022-08-20T09:56:41Z</time>
      </trkpt>
      <trkpt lat="42.777721" lon="-7.507087">
        <ele>628.206</ele>
        <time>2022-08-20T09:56:45Z</time>
      </trkpt>
      <trkpt lat="42.777757" lon="-7.507138">
        <ele>628.016</ele>
        <time>2022-08-20T09:56:49Z</time>
      </trkpt>
      <trkpt lat="42.777786" lon="-7.507191">
        <ele>627.909</ele>
        <time>2022-08-20T09:56:52Z</time>
      </trkpt>
      <trkpt lat="42.777818" lon="-7.507253">
        <ele>627.747</ele>
        <time>2022-08-20T09:56:56Z</time>
      </trkpt>
      <trkpt lat="42.777858" lon="-7.507308">
        <ele>627.617</ele>
        <time>2022-08-20T09:57:00Z</time>
      </trkpt>
      <trkpt lat="42.777896" lon="-7.507365">
        <ele>627.387</ele>
        <time>2022-08-20T09:57:04Z</time>
      </trkpt>
      <trkpt lat="42.777936" lon="-7.507428">
        <ele>627.018</ele>
        <time>2022-08-20T09:57:08Z</time>
      </trkpt>
      <trkpt lat="42.777968" lon="-7.507479">
        <ele>626.458</ele>
        <time>2022-08-20T09:57:11Z</time>
      </trkpt>
      <trkpt lat="42.778000" lon="-7.507524">
        <ele>625.611</ele>
        <time>2022-08-20T09:57:14Z</time>
      </trkpt>
      <trkpt lat="42.778039" lon="-7.507579">
        <ele>625.466</ele>
        <time>2022-08-20T09:57:18Z</time>
      </trkpt>
      <trkpt lat="42.778078" lon="-7.507637">
        <ele>624.836</ele>
        <time>2022-08-20T09:57:22Z</time>
      </trkpt>
      <trkpt lat="42.778120" lon="-7.507685">
        <ele>624.655</ele>
        <time>2022-08-20T09:57:26Z</time>
      </trkpt>
      <trkpt lat="42.778149" lon="-7.507733">
        <ele>624.376</ele>
        <time>2022-08-20T09:57:29Z</time>
      </trkpt>
      <trkpt lat="42.778180" lon="-7.507782">
        <ele>624.090</ele>
        <time>2022-08-20T09:57:32Z</time>
      </trkpt>
      <trkpt lat="42.778211" lon="-7.507853">
        <ele>623.719</ele>
        <time>2022-08-20T09:57:36Z</time>
      </trkpt>
      <trkpt lat="42.778247" lon="-7.507899">
        <ele>623.509</ele>
        <time>2022-08-20T09:57:40Z</time>
      </trkpt>
      <trkpt lat="42.778292" lon="-7.507940">
        <ele>623.328</ele>
        <time>2022-08-20T09:57:45Z</time>
      </trkpt>
      <trkpt lat="42.778329" lon="-7.507980">
        <ele>623.178</ele>
        <time>2022-08-20T09:57:48Z</time>
      </trkpt>
      <trkpt lat="42.778362" lon="-7.508042">
        <ele>622.828</ele>
        <time>2022-08-20T09:57:52Z</time>
      </trkpt>
      <trkpt lat="42.778387" lon="-7.508093">
        <ele>622.589</ele>
        <time>2022-08-20T09:57:55Z</time>
      </trkpt>
      <trkpt lat="42.778435" lon="-7.508139">
        <ele>622.089</ele>
        <time>2022-08-20T09:58:00Z</time>
      </trkpt>
      <trkpt lat="42.778473" lon="-7.508171">
        <ele>621.232</ele>
        <time>2022-08-20T09:58:04Z</time>
      </trkpt>
      <trkpt lat="42.778522" lon="-7.508184">
        <ele>620.177</ele>
        <time>2022-08-20T09:58:08Z</time>
      </trkpt>
      <trkpt lat="42.778564" lon="-7.508219">
        <ele>619.067</ele>
        <time>2022-08-20T09:58:12Z</time>
      </trkpt>
      <trkpt lat="42.778615" lon="-7.508254">
        <ele>618.196</ele>
        <time>2022-08-20T09:58:17Z</time>
      </trkpt>
      <trkpt lat="42.778660" lon="-7.508290">
        <ele>617.224</ele>
        <time>2022-08-20T09:58:21Z</time>
      </trkpt>
      <trkpt lat="42.778706" lon="-7.508335">
        <ele>616.304</ele>
        <time>2022-08-20T09:58:25Z</time>
      </trkpt>
      <trkpt lat="42.778740" lon="-7.508380">
        <ele>615.614</ele>
        <time>2022-08-20T09:58:28Z</time>
      </trkpt>
      <trkpt lat="42.778760" lon="-7.508438">
        <ele>615.109</ele>
        <time>2022-08-20T09:58:32Z</time>
      </trkpt>
      <trkpt lat="42.778768" lon="-7.508524">
        <ele>614.543</ele>
        <time>2022-08-20T09:58:37Z</time>
      </trkpt>
      <trkpt lat="42.778755" lon="-7.508590">
        <ele>613.833</ele>
        <time>2022-08-20T09:58:40Z</time>
      </trkpt>
      <trkpt lat="42.778730" lon="-7.508647">
        <ele>613.053</ele>
        <time>2022-08-20T09:58:44Z</time>
      </trkpt>
      <trkpt lat="42.778705" lon="-7.508709">
        <ele>612.594</ele>
        <time>2022-08-20T09:58:48Z</time>
      </trkpt>
      <trkpt lat="42.778689" lon="-7.508772">
        <ele>612.264</ele>
        <time>2022-08-20T09:58:52Z</time>
      </trkpt>
      <trkpt lat="42.778704" lon="-7.508844">
        <ele>611.917</ele>
        <time>2022-08-20T09:58:56Z</time>
      </trkpt>
      <trkpt lat="42.778700" lon="-7.508907">
        <ele>611.932</ele>
        <time>2022-08-20T09:59:00Z</time>
      </trkpt>
      <trkpt lat="42.778687" lon="-7.508971">
        <ele>611.922</ele>
        <time>2022-08-20T09:59:04Z</time>
      </trkpt>
      <trkpt lat="42.778668" lon="-7.509028">
        <ele>612.021</ele>
        <time>2022-08-20T09:59:08Z</time>
      </trkpt>
      <trkpt lat="42.778639" lon="-7.509086">
        <ele>612.411</ele>
        <time>2022-08-20T09:59:12Z</time>
      </trkpt>
      <trkpt lat="42.778612" lon="-7.509147">
        <ele>612.921</ele>
        <time>2022-08-20T09:59:17Z</time>
      </trkpt>
      <trkpt lat="42.778583" lon="-7.509199">
        <ele>613.403</ele>
        <time>2022-08-20T09:59:21Z</time>
      </trkpt>
      <trkpt lat="42.778557" lon="-7.509255">
        <ele>614.009</ele>
        <time>2022-08-20T09:59:26Z</time>
      </trkpt>
      <trkpt lat="42.778532" lon="-7.509312">
        <ele>614.752</ele>
        <time>2022-08-20T09:59:32Z</time>
      </trkpt>
      <trkpt lat="42.778495" lon="-7.509354">
        <ele>615.342</ele>
        <time>2022-08-20T09:59:37Z</time>
      </trkpt>
      <trkpt lat="42.778466" lon="-7.509405">
        <ele>616.162</ele>
        <time>2022-08-20T09:59:41Z</time>
      </trkpt>
      <trkpt lat="42.778434" lon="-7.509461">
        <ele>616.973</ele>
        <time>2022-08-20T09:59:46Z</time>
      </trkpt>
      <trkpt lat="42.778413" lon="-7.509519">
        <ele>617.513</ele>
        <time>2022-08-20T09:59:50Z</time>
      </trkpt>
      <trkpt lat="42.778400" lon="-7.509596">
        <ele>618.126</ele>
        <time>2022-08-20T09:59:55Z</time>
      </trkpt>
      <trkpt lat="42.778387" lon="-7.509660">
        <ele>618.881</ele>
        <time>2022-08-20T10:00:00Z</time>
      </trkpt>
      <trkpt lat="42.778372" lon="-7.509719">
        <ele>619.561</ele>
        <time>2022-08-20T10:00:04Z</time>
      </trkpt>
      <trkpt lat="42.778371" lon="-7.509799">
        <ele>620.230</ele>
        <time>2022-08-20T10:00:09Z</time>
      </trkpt>
      <trkpt lat="42.778373" lon="-7.509864">
        <ele>620.976</ele>
        <time>2022-08-20T10:00:13Z</time>
      </trkpt>
      <trkpt lat="42.778376" lon="-7.509942">
        <ele>621.790</ele>
        <time>2022-08-20T10:00:18Z</time>
      </trkpt>
      <trkpt lat="42.778376" lon="-7.510018">
        <ele>622.419</ele>
        <time>2022-08-20T10:00:22Z</time>
      </trkpt>
      <trkpt lat="42.778394" lon="-7.510090">
        <ele>623.309</ele>
        <time>2022-08-20T10:00:27Z</time>
      </trkpt>
      <trkpt lat="42.778422" lon="-7.510151">
        <ele>624.058</ele>
        <time>2022-08-20T10:00:31Z</time>
      </trkpt>
      <trkpt lat="42.778437" lon="-7.510210">
        <ele>624.458</ele>
        <time>2022-08-20T10:00:35Z</time>
      </trkpt>
      <trkpt lat="42.778453" lon="-7.510272">
        <ele>625.248</ele>
        <time>2022-08-20T10:00:38Z</time>
      </trkpt>
      <trkpt lat="42.778453" lon="-7.510337">
        <ele>626.039</ele>
        <time>2022-08-20T10:00:45Z</time>
      </trkpt>
      <trkpt lat="42.778459" lon="-7.510404">
        <ele>626.639</ele>
        <time>2022-08-20T10:00:50Z</time>
      </trkpt>
      <trkpt lat="42.778468" lon="-7.510466">
        <ele>627.492</ele>
        <time>2022-08-20T10:00:54Z</time>
      </trkpt>
      <trkpt lat="42.778484" lon="-7.510541">
        <ele>628.417</ele>
        <time>2022-08-20T10:00:59Z</time>
      </trkpt>
      <trkpt lat="42.778499" lon="-7.510604">
        <ele>629.137</ele>
        <time>2022-08-20T10:01:03Z</time>
      </trkpt>
      <trkpt lat="42.778517" lon="-7.510662">
        <ele>630.046</ele>
        <time>2022-08-20T10:01:06Z</time>
      </trkpt>
      <trkpt lat="42.778550" lon="-7.510727">
        <ele>630.917</ele>
        <time>2022-08-20T10:01:10Z</time>
      </trkpt>
      <trkpt lat="42.778567" lon="-7.510799">
        <ele>631.487</ele>
        <time>2022-08-20T10:01:13Z</time>
      </trkpt>
      <trkpt lat="42.778593" lon="-7.510866">
        <ele>632.015</ele>
        <time>2022-08-20T10:01:17Z</time>
      </trkpt>
      <trkpt lat="42.778601" lon="-7.510931">
        <ele>632.509</ele>
        <time>2022-08-20T10:01:21Z</time>
      </trkpt>
      <trkpt lat="42.778618" lon="-7.510991">
        <ele>632.842</ele>
        <time>2022-08-20T10:01:25Z</time>
      </trkpt>
      <trkpt lat="42.778637" lon="-7.511049">
        <ele>633.052</ele>
        <time>2022-08-20T10:01:28Z</time>
      </trkpt>
      <trkpt lat="42.778663" lon="-7.511128">
        <ele>633.332</ele>
        <time>2022-08-20T10:01:32Z</time>
      </trkpt>
      <trkpt lat="42.778696" lon="-7.511172">
        <ele>633.743</ele>
        <time>2022-08-20T10:01:35Z</time>
      </trkpt>
      <trkpt lat="42.778740" lon="-7.511227">
        <ele>634.333</ele>
        <time>2022-08-20T10:01:40Z</time>
      </trkpt>
      <trkpt lat="42.778768" lon="-7.511284">
        <ele>634.876</ele>
        <time>2022-08-20T10:01:45Z</time>
      </trkpt>
      <trkpt lat="42.778786" lon="-7.511358">
        <ele>635.521</ele>
        <time>2022-08-20T10:01:49Z</time>
      </trkpt>
      <trkpt lat="42.778785" lon="-7.511425">
        <ele>635.791</ele>
        <time>2022-08-20T10:01:53Z</time>
      </trkpt>
      <trkpt lat="42.778790" lon="-7.511496">
        <ele>636.010</ele>
        <time>2022-08-20T10:01:57Z</time>
      </trkpt>
      <trkpt lat="42.778776" lon="-7.511561">
        <ele>636.113</ele>
        <time>2022-08-20T10:02:02Z</time>
      </trkpt>
      <trkpt lat="42.778772" lon="-7.511622">
        <ele>636.243</ele>
        <time>2022-08-20T10:02:07Z</time>
      </trkpt>
      <trkpt lat="42.778774" lon="-7.511690">
        <ele>636.507</ele>
        <time>2022-08-20T10:02:12Z</time>
      </trkpt>
      <trkpt lat="42.778768" lon="-7.511751">
        <ele>636.909</ele>
        <time>2022-08-20T10:02:15Z</time>
      </trkpt>
      <trkpt lat="42.778762" lon="-7.511816">
        <ele>637.382</ele>
        <time>2022-08-20T10:02:19Z</time>
      </trkpt>
      <trkpt lat="42.778758" lon="-7.511884">
        <ele>637.772</ele>
        <time>2022-08-20T10:02:23Z</time>
      </trkpt>
      <trkpt lat="42.778756" lon="-7.511953">
        <ele>638.112</ele>
        <time>2022-08-20T10:02:28Z</time>
      </trkpt>
      <trkpt lat="42.778747" lon="-7.512018">
        <ele>638.513</ele>
        <time>2022-08-20T10:02:32Z</time>
      </trkpt>
      <trkpt lat="42.778738" lon="-7.512079">
        <ele>638.953</ele>
        <time>2022-08-20T10:02:35Z</time>
      </trkpt>
      <trkpt lat="42.778735" lon="-7.512150">
        <ele>639.366</ele>
        <time>2022-08-20T10:02:39Z</time>
      </trkpt>
      <trkpt lat="42.778723" lon="-7.512214">
        <ele>639.671</ele>
        <time>2022-08-20T10:02:42Z</time>
      </trkpt>
      <trkpt lat="42.778722" lon="-7.512281">
        <ele>639.821</ele>
        <time>2022-08-20T10:02:45Z</time>
      </trkpt>
      <trkpt lat="42.778701" lon="-7.512341">
        <ele>640.120</ele>
        <time>2022-08-20T10:02:49Z</time>
      </trkpt>
      <trkpt lat="42.778686" lon="-7.512413">
        <ele>640.432</ele>
        <time>2022-08-20T10:02:53Z</time>
      </trkpt>
      <trkpt lat="42.778689" lon="-7.512483">
        <ele>640.892</ele>
        <time>2022-08-20T10:02:57Z</time>
      </trkpt>
      <trkpt lat="42.778704" lon="-7.512552">
        <ele>641.311</ele>
        <time>2022-08-20T10:03:01Z</time>
      </trkpt>
      <trkpt lat="42.778718" lon="-7.512620">
        <ele>641.709</ele>
        <time>2022-08-20T10:03:05Z</time>
      </trkpt>
      <trkpt lat="42.778731" lon="-7.512679">
        <ele>642.024</ele>
        <time>2022-08-20T10:03:08Z</time>
      </trkpt>
      <trkpt lat="42.778741" lon="-7.512757">
        <ele>642.494</ele>
        <time>2022-08-20T10:03:12Z</time>
      </trkpt>
      <trkpt lat="42.778751" lon="-7.512825">
        <ele>642.884</ele>
        <time>2022-08-20T10:03:16Z</time>
      </trkpt>
      <trkpt lat="42.778760" lon="-7.512888">
        <ele>643.175</ele>
        <time>2022-08-20T10:03:20Z</time>
      </trkpt>
      <trkpt lat="42.778776" lon="-7.512954">
        <ele>643.575</ele>
        <time>2022-08-20T10:03:24Z</time>
      </trkpt>
      <trkpt lat="42.778784" lon="-7.513019">
        <ele>643.978</ele>
        <time>2022-08-20T10:03:28Z</time>
      </trkpt>
      <trkpt lat="42.778810" lon="-7.513084">
        <ele>644.473</ele>
        <time>2022-08-20T10:03:32Z</time>
      </trkpt>
      <trkpt lat="42.778833" lon="-7.513153">
        <ele>644.823</ele>
        <time>2022-08-20T10:03:36Z</time>
      </trkpt>
      <trkpt lat="42.778857" lon="-7.513214">
        <ele>645.292</ele>
        <time>2022-08-20T10:03:40Z</time>
      </trkpt>
      <trkpt lat="42.778879" lon="-7.513281">
        <ele>645.431</ele>
        <time>2022-08-20T10:03:44Z</time>
      </trkpt>
      <trkpt lat="42.778910" lon="-7.513338">
        <ele>645.661</ele>
        <time>2022-08-20T10:03:48Z</time>
      </trkpt>
      <trkpt lat="42.778934" lon="-7.513406">
        <ele>645.907</ele>
        <time>2022-08-20T10:03:52Z</time>
      </trkpt>
      <trkpt lat="42.778951" lon="-7.513472">
        <ele>646.209</ele>
        <time>2022-08-20T10:03:56Z</time>
      </trkpt>
      <trkpt lat="42.778964" lon="-7.513539">
        <ele>646.424</ele>
        <time>2022-08-20T10:04:00Z</time>
      </trkpt>
      <trkpt lat="42.778978" lon="-7.513607">
        <ele>646.644</ele>
        <time>2022-08-20T10:04:04Z</time>
      </trkpt>
      <trkpt lat="42.778990" lon="-7.513673">
        <ele>646.924</ele>
        <time>2022-08-20T10:04:08Z</time>
      </trkpt>
      <trkpt lat="42.778999" lon="-7.513744">
        <ele>647.395</ele>
        <time>2022-08-20T10:04:12Z</time>
      </trkpt>
      <trkpt lat="42.778999" lon="-7.513822">
        <ele>647.625</ele>
        <time>2022-08-20T10:04:16Z</time>
      </trkpt>
      <trkpt lat="42.778994" lon="-7.513898">
        <ele>647.848</ele>
        <time>2022-08-20T10:04:20Z</time>
      </trkpt>
      <trkpt lat="42.778981" lon="-7.513966">
        <ele>648.043</ele>
        <time>2022-08-20T10:04:24Z</time>
      </trkpt>
      <trkpt lat="42.778967" lon="-7.514033">
        <ele>648.263</ele>
        <time>2022-08-20T10:04:28Z</time>
      </trkpt>
      <trkpt lat="42.778958" lon="-7.514111">
        <ele>648.462</ele>
        <time>2022-08-20T10:04:32Z</time>
      </trkpt>
      <trkpt lat="42.778955" lon="-7.514186">
        <ele>648.674</ele>
        <time>2022-08-20T10:04:36Z</time>
      </trkpt>
      <trkpt lat="42.778946" lon="-7.514252">
        <ele>648.756</ele>
        <time>2022-08-20T10:04:40Z</time>
      </trkpt>
      <trkpt lat="42.778941" lon="-7.514324">
        <ele>648.921</ele>
        <time>2022-08-20T10:04:44Z</time>
      </trkpt>
      <trkpt lat="42.778948" lon="-7.514402">
        <ele>649.209</ele>
        <time>2022-08-20T10:04:49Z</time>
      </trkpt>
      <trkpt lat="42.778961" lon="-7.514465">
        <ele>649.368</ele>
        <time>2022-08-20T10:04:54Z</time>
      </trkpt>
      <trkpt lat="42.778998" lon="-7.514515">
        <ele>649.648</ele>
        <time>2022-08-20T10:04:59Z</time>
      </trkpt>
      <trkpt lat="42.779030" lon="-7.514560">
        <ele>650.118</ele>
        <time>2022-08-20T10:05:03Z</time>
      </trkpt>
      <trkpt lat="42.779062" lon="-7.514614">
        <ele>650.799</ele>
        <time>2022-08-20T10:05:08Z</time>
      </trkpt>
      <trkpt lat="42.779100" lon="-7.514654">
        <ele>651.379</ele>
        <time>2022-08-20T10:05:12Z</time>
      </trkpt>
      <trkpt lat="42.779135" lon="-7.514702">
        <ele>652.162</ele>
        <time>2022-08-20T10:05:17Z</time>
      </trkpt>
      <trkpt lat="42.779162" lon="-7.514751">
        <ele>652.997</ele>
        <time>2022-08-20T10:05:21Z</time>
      </trkpt>
      <trkpt lat="42.779188" lon="-7.514812">
        <ele>653.817</ele>
        <time>2022-08-20T10:05:25Z</time>
      </trkpt>
      <trkpt lat="42.779195" lon="-7.514879">
        <ele>654.736</ele>
        <time>2022-08-20T10:05:29Z</time>
      </trkpt>
      <trkpt lat="42.779196" lon="-7.514956">
        <ele>655.419</ele>
        <time>2022-08-20T10:05:33Z</time>
      </trkpt>
      <trkpt lat="42.779197" lon="-7.515028">
        <ele>656.009</ele>
        <time>2022-08-20T10:05:37Z</time>
      </trkpt>
      <trkpt lat="42.779197" lon="-7.515094">
        <ele>656.519</ele>
        <time>2022-08-20T10:05:41Z</time>
      </trkpt>
      <trkpt lat="42.779206" lon="-7.515162">
        <ele>657.009</ele>
        <time>2022-08-20T10:05:45Z</time>
      </trkpt>
      <trkpt lat="42.779233" lon="-7.515215">
        <ele>657.592</ele>
        <time>2022-08-20T10:05:49Z</time>
      </trkpt>
      <trkpt lat="42.779269" lon="-7.515258">
        <ele>657.992</ele>
        <time>2022-08-20T10:05:54Z</time>
      </trkpt>
      <trkpt lat="42.779302" lon="-7.515307">
        <ele>658.472</ele>
        <time>2022-08-20T10:05:58Z</time>
      </trkpt>
      <trkpt lat="42.779335" lon="-7.515350">
        <ele>659.073</ele>
        <time>2022-08-20T10:06:02Z</time>
      </trkpt>
      <trkpt lat="42.779377" lon="-7.515387">
        <ele>659.543</ele>
        <time>2022-08-20T10:06:06Z</time>
      </trkpt>
      <trkpt lat="42.779424" lon="-7.515439">
        <ele>659.846</ele>
        <time>2022-08-20T10:06:11Z</time>
      </trkpt>
      <trkpt lat="42.779462" lon="-7.515484">
        <ele>660.061</ele>
        <time>2022-08-20T10:06:15Z</time>
      </trkpt>
      <trkpt lat="42.779493" lon="-7.515538">
        <ele>660.221</ele>
        <time>2022-08-20T10:06:19Z</time>
      </trkpt>
      <trkpt lat="42.779533" lon="-7.515579">
        <ele>660.520</ele>
        <time>2022-08-20T10:06:23Z</time>
      </trkpt>
      <trkpt lat="42.779549" lon="-7.515646">
        <ele>660.955</ele>
        <time>2022-08-20T10:06:26Z</time>
      </trkpt>
      <trkpt lat="42.779561" lon="-7.515720">
        <ele>661.307</ele>
        <time>2022-08-20T10:06:31Z</time>
      </trkpt>
      <trkpt lat="42.779576" lon="-7.515801">
        <ele>661.717</ele>
        <time>2022-08-20T10:06:35Z</time>
      </trkpt>
      <trkpt lat="42.779594" lon="-7.515869">
        <ele>661.909</ele>
        <time>2022-08-20T10:06:40Z</time>
      </trkpt>
      <trkpt lat="42.779612" lon="-7.515933">
        <ele>661.956</ele>
        <time>2022-08-20T10:06:44Z</time>
      </trkpt>
      <trkpt lat="42.779627" lon="-7.516007">
        <ele>661.946</ele>
        <time>2022-08-20T10:06:48Z</time>
      </trkpt>
      <trkpt lat="42.779632" lon="-7.516081">
        <ele>661.756</ele>
        <time>2022-08-20T10:06:52Z</time>
      </trkpt>
      <trkpt lat="42.779635" lon="-7.516145">
        <ele>661.687</ele>
        <time>2022-08-20T10:06:56Z</time>
      </trkpt>
      <trkpt lat="42.779650" lon="-7.516211">
        <ele>661.497</ele>
        <time>2022-08-20T10:07:00Z</time>
      </trkpt>
      <trkpt lat="42.779653" lon="-7.516280">
        <ele>661.250</ele>
        <time>2022-08-20T10:07:04Z</time>
      </trkpt>
      <trkpt lat="42.779650" lon="-7.516356">
        <ele>661.035</ele>
        <time>2022-08-20T10:07:10Z</time>
      </trkpt>
      <trkpt lat="42.779671" lon="-7.516420">
        <ele>660.865</ele>
        <time>2022-08-20T10:07:15Z</time>
      </trkpt>
      <trkpt lat="42.779672" lon="-7.516498">
        <ele>660.624</ele>
        <time>2022-08-20T10:07:21Z</time>
      </trkpt>
      <trkpt lat="42.779687" lon="-7.516560">
        <ele>660.442</ele>
        <time>2022-08-20T10:07:26Z</time>
      </trkpt>
      <trkpt lat="42.779690" lon="-7.516676">
        <ele>660.222</ele>
        <time>2022-08-20T10:07:55Z</time>
      </trkpt>
      <trkpt lat="42.779698" lon="-7.516750">
        <ele>660.214</ele>
        <time>2022-08-20T10:08:02Z</time>
      </trkpt>
      <trkpt lat="42.779679" lon="-7.516527">
        <ele>660.109</ele>
        <time>2022-08-20T10:08:32Z</time>
      </trkpt>
      <trkpt lat="42.779670" lon="-7.516465">
        <ele>660.145</ele>
        <time>2022-08-20T10:08:37Z</time>
      </trkpt>
      <trkpt lat="42.779664" lon="-7.516402">
        <ele>660.185</ele>
        <time>2022-08-20T10:08:42Z</time>
      </trkpt>
      <trkpt lat="42.779716" lon="-7.516396">
        <ele>660.285</ele>
        <time>2022-08-20T10:08:57Z</time>
      </trkpt>
      <trkpt lat="42.779677" lon="-7.516360">
        <ele>660.346</ele>
        <time>2022-08-20T10:25:18Z</time>
      </trkpt>
      <trkpt lat="42.779719" lon="-7.516390">
        <ele>660.476</ele>
        <time>2022-08-20T10:42:38Z</time>
      </trkpt>
      <trkpt lat="42.779683" lon="-7.516429">
        <ele>660.539</ele>
        <time>2022-08-20T10:42:49Z</time>
      </trkpt>
      <trkpt lat="42.779678" lon="-7.516503">
        <ele>660.574</ele>
        <time>2022-08-20T10:42:58Z</time>
      </trkpt>
      <trkpt lat="42.779664" lon="-7.516574">
        <ele>660.584</ele>
        <time>2022-08-20T10:43:04Z</time>
      </trkpt>
      <trkpt lat="42.779660" lon="-7.516644">
        <ele>660.283</ele>
        <time>2022-08-20T10:43:09Z</time>
      </trkpt>
      <trkpt lat="42.779674" lon="-7.516708">
        <ele>659.993</ele>
        <time>2022-08-20T10:43:13Z</time>
      </trkpt>
      <trkpt lat="42.779690" lon="-7.516773">
        <ele>659.865</ele>
        <time>2022-08-20T10:43:18Z</time>
      </trkpt>
      <trkpt lat="42.779706" lon="-7.516845">
        <ele>659.821</ele>
        <time>2022-08-20T10:43:23Z</time>
      </trkpt>
      <trkpt lat="42.779730" lon="-7.516904">
        <ele>659.809</ele>
        <time>2022-08-20T10:43:27Z</time>
      </trkpt>
      <trkpt lat="42.779757" lon="-7.516968">
        <ele>659.820</ele>
        <time>2022-08-20T10:43:31Z</time>
      </trkpt>
      <trkpt lat="42.779781" lon="-7.517031">
        <ele>659.810</ele>
        <time>2022-08-20T10:43:35Z</time>
      </trkpt>
      <trkpt lat="42.779810" lon="-7.517107">
        <ele>659.920</ele>
        <time>2022-08-20T10:43:40Z</time>
      </trkpt>
      <trkpt lat="42.779833" lon="-7.517162">
        <ele>659.981</ele>
        <time>2022-08-20T10:43:44Z</time>
      </trkpt>
      <trkpt lat="42.779862" lon="-7.517225">
        <ele>660.011</ele>
        <time>2022-08-20T10:43:48Z</time>
      </trkpt>
      <trkpt lat="42.779884" lon="-7.517282">
        <ele>660.124</ele>
        <time>2022-08-20T10:43:52Z</time>
      </trkpt>
      <trkpt lat="42.779912" lon="-7.517338">
        <ele>660.219</ele>
        <time>2022-08-20T10:43:57Z</time>
      </trkpt>
      <trkpt lat="42.779938" lon="-7.517393">
        <ele>660.449</ele>
        <time>2022-08-20T10:44:01Z</time>
      </trkpt>
      <trkpt lat="42.779967" lon="-7.517456">
        <ele>660.778</ele>
        <time>2022-08-20T10:44:05Z</time>
      </trkpt>
      <trkpt lat="42.779984" lon="-7.517517">
        <ele>660.919</ele>
        <time>2022-08-20T10:44:08Z</time>
      </trkpt>
      <trkpt lat="42.780012" lon="-7.517585">
        <ele>661.009</ele>
        <time>2022-08-20T10:44:12Z</time>
      </trkpt>
      <trkpt lat="42.780035" lon="-7.517655">
        <ele>661.119</ele>
        <time>2022-08-20T10:44:16Z</time>
      </trkpt>
      <trkpt lat="42.780060" lon="-7.517715">
        <ele>661.209</ele>
        <time>2022-08-20T10:44:20Z</time>
      </trkpt>
      <trkpt lat="42.780075" lon="-7.517784">
        <ele>661.382</ele>
        <time>2022-08-20T10:44:25Z</time>
      </trkpt>
      <trkpt lat="42.780093" lon="-7.517852">
        <ele>661.722</ele>
        <time>2022-08-20T10:44:29Z</time>
      </trkpt>
      <trkpt lat="42.780109" lon="-7.517922">
        <ele>662.042</ele>
        <time>2022-08-20T10:44:33Z</time>
      </trkpt>
      <trkpt lat="42.780122" lon="-7.517983">
        <ele>662.683</ele>
        <time>2022-08-20T10:44:37Z</time>
      </trkpt>
      <trkpt lat="42.780140" lon="-7.518047">
        <ele>663.163</ele>
        <time>2022-08-20T10:44:41Z</time>
      </trkpt>
      <trkpt lat="42.780159" lon="-7.518120">
        <ele>663.596</ele>
        <time>2022-08-20T10:44:45Z</time>
      </trkpt>
      <trkpt lat="42.780175" lon="-7.518196">
        <ele>663.861</ele>
        <time>2022-08-20T10:44:49Z</time>
      </trkpt>
      <trkpt lat="42.780195" lon="-7.518266">
        <ele>664.391</ele>
        <time>2022-08-20T10:44:53Z</time>
      </trkpt>
      <trkpt lat="42.780212" lon="-7.518332">
        <ele>665.180</ele>
        <time>2022-08-20T10:44:57Z</time>
      </trkpt>
      <trkpt lat="42.780227" lon="-7.518400">
        <ele>665.489</ele>
        <time>2022-08-20T10:45:01Z</time>
      </trkpt>
      <trkpt lat="42.780246" lon="-7.518466">
        <ele>665.606</ele>
        <time>2022-08-20T10:45:05Z</time>
      </trkpt>
      <trkpt lat="42.780258" lon="-7.518531">
        <ele>665.926</ele>
        <time>2022-08-20T10:45:09Z</time>
      </trkpt>
      <trkpt lat="42.780289" lon="-7.518583">
        <ele>666.209</ele>
        <time>2022-08-20T10:45:14Z</time>
      </trkpt>
      <trkpt lat="42.780313" lon="-7.518649">
        <ele>666.499</ele>
        <time>2022-08-20T10:45:19Z</time>
      </trkpt>
      <trkpt lat="42.780329" lon="-7.518722">
        <ele>666.619</ele>
        <time>2022-08-20T10:45:23Z</time>
      </trkpt>
      <trkpt lat="42.780333" lon="-7.518789">
        <ele>666.999</ele>
        <time>2022-08-20T10:45:27Z</time>
      </trkpt>
      <trkpt lat="42.780346" lon="-7.518851">
        <ele>667.390</ele>
        <time>2022-08-20T10:45:31Z</time>
      </trkpt>
      <trkpt lat="42.780345" lon="-7.518913">
        <ele>667.750</ele>
        <time>2022-08-20T10:45:35Z</time>
      </trkpt>
      <trkpt lat="42.780356" lon="-7.518981">
        <ele>667.923</ele>
        <time>2022-08-20T10:45:39Z</time>
      </trkpt>
      <trkpt lat="42.780373" lon="-7.519047">
        <ele>667.928</ele>
        <time>2022-08-20T10:45:43Z</time>
      </trkpt>
      <trkpt lat="42.780389" lon="-7.519115">
        <ele>667.998</ele>
        <time>2022-08-20T10:45:48Z</time>
      </trkpt>
      <trkpt lat="42.780412" lon="-7.519175">
        <ele>667.967</ele>
        <time>2022-08-20T10:45:53Z</time>
      </trkpt>
      <trkpt lat="42.780441" lon="-7.519246">
        <ele>667.731</ele>
        <time>2022-08-20T10:45:58Z</time>
      </trkpt>
      <trkpt lat="42.780471" lon="-7.519301">
        <ele>667.461</ele>
        <time>2022-08-20T10:46:03Z</time>
      </trkpt>
      <trkpt lat="42.780512" lon="-7.519351">
        <ele>667.107</ele>
        <time>2022-08-20T10:46:07Z</time>
      </trkpt>
      <trkpt lat="42.780545" lon="-7.519407">
        <ele>666.709</ele>
        <time>2022-08-20T10:46:12Z</time>
      </trkpt>
      <trkpt lat="42.780582" lon="-7.519461">
        <ele>665.924</ele>
        <time>2022-08-20T10:46:16Z</time>
      </trkpt>
      <trkpt lat="42.780629" lon="-7.519506">
        <ele>665.674</ele>
        <time>2022-08-20T10:46:20Z</time>
      </trkpt>
      <trkpt lat="42.780676" lon="-7.519546">
        <ele>664.884</ele>
        <time>2022-08-20T10:46:24Z</time>
      </trkpt>
      <trkpt lat="42.780706" lon="-7.519614">
        <ele>664.375</ele>
        <time>2022-08-20T10:47:08Z</time>
      </trkpt>
      <trkpt lat="42.780754" lon="-7.519585">
        <ele>663.725</ele>
        <time>2022-08-20T10:47:13Z</time>
      </trkpt>
      <trkpt lat="42.780800" lon="-7.519619">
        <ele>662.968</ele>
        <time>2022-08-20T10:47:18Z</time>
      </trkpt>
      <trkpt lat="42.780840" lon="-7.519663">
        <ele>662.943</ele>
        <time>2022-08-20T10:47:23Z</time>
      </trkpt>
      <trkpt lat="42.780872" lon="-7.519706">
        <ele>662.643</ele>
        <time>2022-08-20T10:47:27Z</time>
      </trkpt>
      <trkpt lat="42.780913" lon="-7.519750">
        <ele>662.152</ele>
        <time>2022-08-20T10:47:31Z</time>
      </trkpt>
      <trkpt lat="42.780948" lon="-7.519798">
        <ele>661.783</ele>
        <time>2022-08-20T10:47:36Z</time>
      </trkpt>
      <trkpt lat="42.780988" lon="-7.519843">
        <ele>661.525</ele>
        <time>2022-08-20T10:47:40Z</time>
      </trkpt>
      <trkpt lat="42.781027" lon="-7.519887">
        <ele>661.317</ele>
        <time>2022-08-20T10:47:44Z</time>
      </trkpt>
      <trkpt lat="42.781071" lon="-7.519939">
        <ele>661.209</ele>
        <time>2022-08-20T10:47:48Z</time>
      </trkpt>
      <trkpt lat="42.781101" lon="-7.519985">
        <ele>661.289</ele>
        <time>2022-08-20T10:47:51Z</time>
      </trkpt>
      <trkpt lat="42.781135" lon="-7.520040">
        <ele>661.119</ele>
        <time>2022-08-20T10:47:55Z</time>
      </trkpt>
      <trkpt lat="42.781160" lon="-7.520104">
        <ele>661.079</ele>
        <time>2022-08-20T10:47:59Z</time>
      </trkpt>
      <trkpt lat="42.781189" lon="-7.520163">
        <ele>660.920</ele>
        <time>2022-08-20T10:48:03Z</time>
      </trkpt>
      <trkpt lat="42.781212" lon="-7.520227">
        <ele>660.770</ele>
        <time>2022-08-20T10:48:07Z</time>
      </trkpt>
      <trkpt lat="42.781230" lon="-7.520297">
        <ele>660.533</ele>
        <time>2022-08-20T10:48:11Z</time>
      </trkpt>
      <trkpt lat="42.781251" lon="-7.520361">
        <ele>660.348</ele>
        <time>2022-08-20T10:48:15Z</time>
      </trkpt>
      <trkpt lat="42.781277" lon="-7.520422">
        <ele>659.928</ele>
        <time>2022-08-20T10:48:19Z</time>
      </trkpt>
      <trkpt lat="42.781305" lon="-7.520484">
        <ele>659.517</ele>
        <time>2022-08-20T10:48:23Z</time>
      </trkpt>
      <trkpt lat="42.781331" lon="-7.520545">
        <ele>659.246</ele>
        <time>2022-08-20T10:48:27Z</time>
      </trkpt>
      <trkpt lat="42.781352" lon="-7.520611">
        <ele>659.088</ele>
        <time>2022-08-20T10:48:31Z</time>
      </trkpt>
      <trkpt lat="42.781382" lon="-7.520672">
        <ele>658.916</ele>
        <time>2022-08-20T10:48:35Z</time>
      </trkpt>
      <trkpt lat="42.781416" lon="-7.520726">
        <ele>658.709</ele>
        <time>2022-08-20T10:48:39Z</time>
      </trkpt>
      <trkpt lat="42.781461" lon="-7.520764">
        <ele>658.675</ele>
        <time>2022-08-20T10:48:43Z</time>
      </trkpt>
      <trkpt lat="42.781514" lon="-7.520784">
        <ele>658.585</ele>
        <time>2022-08-20T10:48:47Z</time>
      </trkpt>
      <trkpt lat="42.781567" lon="-7.520783">
        <ele>658.265</ele>
        <time>2022-08-20T10:48:51Z</time>
      </trkpt>
      <trkpt lat="42.781619" lon="-7.520773">
        <ele>657.956</ele>
        <time>2022-08-20T10:48:55Z</time>
      </trkpt>
      <trkpt lat="42.781670" lon="-7.520757">
        <ele>657.856</ele>
        <time>2022-08-20T10:48:59Z</time>
      </trkpt>
      <trkpt lat="42.781721" lon="-7.520743">
        <ele>657.729</ele>
        <time>2022-08-20T10:49:03Z</time>
      </trkpt>
      <trkpt lat="42.781773" lon="-7.520735">
        <ele>657.674</ele>
        <time>2022-08-20T10:49:07Z</time>
      </trkpt>
      <trkpt lat="42.781826" lon="-7.520749">
        <ele>657.554</ele>
        <time>2022-08-20T10:49:11Z</time>
      </trkpt>
      <trkpt lat="42.781877" lon="-7.520773">
        <ele>657.453</ele>
        <time>2022-08-20T10:49:15Z</time>
      </trkpt>
      <trkpt lat="42.781914" lon="-7.520819">
        <ele>657.344</ele>
        <time>2022-08-20T10:49:19Z</time>
      </trkpt>
      <trkpt lat="42.781944" lon="-7.520872">
        <ele>657.205</ele>
        <time>2022-08-20T10:49:23Z</time>
      </trkpt>
      <trkpt lat="42.781976" lon="-7.520935">
        <ele>657.115</ele>
        <time>2022-08-20T10:49:28Z</time>
      </trkpt>
      <trkpt lat="42.781998" lon="-7.521004">
        <ele>657.009</ele>
        <time>2022-08-20T10:49:32Z</time>
      </trkpt>
      <trkpt lat="42.782026" lon="-7.521074">
        <ele>657.085</ele>
        <time>2022-08-20T10:49:37Z</time>
      </trkpt>
      <trkpt lat="42.782056" lon="-7.521127">
        <ele>656.975</ele>
        <time>2022-08-20T10:49:41Z</time>
      </trkpt>
      <trkpt lat="42.782094" lon="-7.521162">
        <ele>656.645</ele>
        <time>2022-08-20T10:49:45Z</time>
      </trkpt>
      <trkpt lat="42.782137" lon="-7.521188">
        <ele>656.436</ele>
        <time>2022-08-20T10:49:49Z</time>
      </trkpt>
      <trkpt lat="42.782188" lon="-7.521209">
        <ele>656.266</ele>
        <time>2022-08-20T10:49:53Z</time>
      </trkpt>
      <trkpt lat="42.782239" lon="-7.521212">
        <ele>655.869</ele>
        <time>2022-08-20T10:49:57Z</time>
      </trkpt>
      <trkpt lat="42.782287" lon="-7.521213">
        <ele>655.294</ele>
        <time>2022-08-20T10:50:01Z</time>
      </trkpt>
      <trkpt lat="42.782333" lon="-7.521206">
        <ele>654.654</ele>
        <time>2022-08-20T10:50:05Z</time>
      </trkpt>
      <trkpt lat="42.782379" lon="-7.521185">
        <ele>654.133</ele>
        <time>2022-08-20T10:50:09Z</time>
      </trkpt>
      <trkpt lat="42.782427" lon="-7.521142">
        <ele>653.795</ele>
        <time>2022-08-20T10:50:14Z</time>
      </trkpt>
      <trkpt lat="42.782467" lon="-7.521105">
        <ele>653.549</ele>
        <time>2022-08-20T10:50:19Z</time>
      </trkpt>
      <trkpt lat="42.782521" lon="-7.521085">
        <ele>653.323</ele>
        <time>2022-08-20T10:50:24Z</time>
      </trkpt>
      <trkpt lat="42.782571" lon="-7.521110">
        <ele>653.109</ele>
        <time>2022-08-20T10:50:28Z</time>
      </trkpt>
      <trkpt lat="42.782628" lon="-7.521108">
        <ele>652.730</ele>
        <time>2022-08-20T10:50:33Z</time>
      </trkpt>
      <trkpt lat="42.782683" lon="-7.521105">
        <ele>652.630</ele>
        <time>2022-08-20T10:50:37Z</time>
      </trkpt>
      <trkpt lat="42.782737" lon="-7.521100">
        <ele>652.540</ele>
        <time>2022-08-20T10:50:42Z</time>
      </trkpt>
      <trkpt lat="42.782786" lon="-7.521114">
        <ele>652.591</ele>
        <time>2022-08-20T10:50:46Z</time>
      </trkpt>
      <trkpt lat="42.782836" lon="-7.521144">
        <ele>652.471</ele>
        <time>2022-08-20T10:50:50Z</time>
      </trkpt>
      <trkpt lat="42.782883" lon="-7.521185">
        <ele>652.454</ele>
        <time>2022-08-20T10:50:54Z</time>
      </trkpt>
      <trkpt lat="42.782931" lon="-7.521216">
        <ele>652.449</ele>
        <time>2022-08-20T10:50:58Z</time>
      </trkpt>
      <trkpt lat="42.782987" lon="-7.521228">
        <ele>652.489</ele>
        <time>2022-08-20T10:51:02Z</time>
      </trkpt>
      <trkpt lat="42.783039" lon="-7.521219">
        <ele>652.518</ele>
        <time>2022-08-20T10:51:06Z</time>
      </trkpt>
      <trkpt lat="42.783090" lon="-7.521211">
        <ele>652.557</ele>
        <time>2022-08-20T10:51:10Z</time>
      </trkpt>
      <trkpt lat="42.783144" lon="-7.521214">
        <ele>652.500</ele>
        <time>2022-08-20T10:51:15Z</time>
      </trkpt>
      <trkpt lat="42.783193" lon="-7.521215">
        <ele>652.520</ele>
        <time>2022-08-20T10:51:19Z</time>
      </trkpt>
      <trkpt lat="42.783249" lon="-7.521228">
        <ele>652.509</ele>
        <time>2022-08-20T10:51:25Z</time>
      </trkpt>
      <trkpt lat="42.783300" lon="-7.521249">
        <ele>652.266</ele>
        <time>2022-08-20T10:51:30Z</time>
      </trkpt>
      <trkpt lat="42.783344" lon="-7.521277">
        <ele>651.466</ele>
        <time>2022-08-20T10:51:35Z</time>
      </trkpt>
      <trkpt lat="42.783385" lon="-7.521321">
        <ele>650.646</ele>
        <time>2022-08-20T10:51:39Z</time>
      </trkpt>
      <trkpt lat="42.783430" lon="-7.521330">
        <ele>649.897</ele>
        <time>2022-08-20T10:51:43Z</time>
      </trkpt>
      <trkpt lat="42.783476" lon="-7.521337">
        <ele>649.057</ele>
        <time>2022-08-20T10:51:46Z</time>
      </trkpt>
      <trkpt lat="42.783527" lon="-7.521329">
        <ele>648.380</ele>
        <time>2022-08-20T10:51:50Z</time>
      </trkpt>
      <trkpt lat="42.783574" lon="-7.521309">
        <ele>647.755</ele>
        <time>2022-08-20T10:51:54Z</time>
      </trkpt>
      <trkpt lat="42.783624" lon="-7.521298">
        <ele>647.255</ele>
        <time>2022-08-20T10:51:58Z</time>
      </trkpt>
      <trkpt lat="42.783673" lon="-7.521292">
        <ele>646.534</ele>
        <time>2022-08-20T10:52:02Z</time>
      </trkpt>
      <trkpt lat="42.783722" lon="-7.521280">
        <ele>645.882</ele>
        <time>2022-08-20T10:52:08Z</time>
      </trkpt>
      <trkpt lat="42.783759" lon="-7.521235">
        <ele>645.343</ele>
        <time>2022-08-20T10:52:12Z</time>
      </trkpt>
      <trkpt lat="42.783810" lon="-7.521211">
        <ele>644.917</ele>
        <time>2022-08-20T10:52:17Z</time>
      </trkpt>
      <trkpt lat="42.783869" lon="-7.521168">
        <ele>644.609</ele>
        <time>2022-08-20T10:52:21Z</time>
      </trkpt>
      <trkpt lat="42.783913" lon="-7.521149">
        <ele>644.449</ele>
        <time>2022-08-20T10:52:24Z</time>
      </trkpt>
      <trkpt lat="42.783960" lon="-7.521136">
        <ele>644.239</ele>
        <time>2022-08-20T10:52:28Z</time>
      </trkpt>
      <trkpt lat="42.784005" lon="-7.521129">
        <ele>644.139</ele>
        <time>2022-08-20T10:52:31Z</time>
      </trkpt>
      <trkpt lat="42.784056" lon="-7.521097">
        <ele>644.060</ele>
        <time>2022-08-20T10:52:35Z</time>
      </trkpt>
      <trkpt lat="42.784104" lon="-7.521105">
        <ele>643.850</ele>
        <time>2022-08-20T10:52:39Z</time>
      </trkpt>
      <trkpt lat="42.784157" lon="-7.521111">
        <ele>643.673</ele>
        <time>2022-08-20T10:52:43Z</time>
      </trkpt>
      <trkpt lat="42.784209" lon="-7.521134">
        <ele>643.468</ele>
        <time>2022-08-20T10:52:47Z</time>
      </trkpt>
      <trkpt lat="42.784255" lon="-7.521149">
        <ele>643.418</ele>
        <time>2022-08-20T10:52:51Z</time>
      </trkpt>
      <trkpt lat="42.784300" lon="-7.521165">
        <ele>643.417</ele>
        <time>2022-08-20T10:52:56Z</time>
      </trkpt>
      <trkpt lat="42.784352" lon="-7.521182">
        <ele>643.614</ele>
        <time>2022-08-20T10:53:01Z</time>
      </trkpt>
      <trkpt lat="42.784398" lon="-7.521200">
        <ele>644.154</ele>
        <time>2022-08-20T10:53:05Z</time>
      </trkpt>
      <trkpt lat="42.784444" lon="-7.521224">
        <ele>644.609</ele>
        <time>2022-08-20T10:53:09Z</time>
      </trkpt>
      <trkpt lat="42.784491" lon="-7.521247">
        <ele>645.109</ele>
        <time>2022-08-20T10:53:13Z</time>
      </trkpt>
      <trkpt lat="42.784536" lon="-7.521273">
        <ele>645.652</ele>
        <time>2022-08-20T10:53:17Z</time>
      </trkpt>
      <trkpt lat="42.784587" lon="-7.521306">
        <ele>646.262</ele>
        <time>2022-08-20T10:53:22Z</time>
      </trkpt>
      <trkpt lat="42.784641" lon="-7.521329">
        <ele>646.912</ele>
        <time>2022-08-20T10:53:26Z</time>
      </trkpt>
      <trkpt lat="42.784695" lon="-7.521348">
        <ele>647.633</ele>
        <time>2022-08-20T10:53:31Z</time>
      </trkpt>
      <trkpt lat="42.784748" lon="-7.521371">
        <ele>648.443</ele>
        <time>2022-08-20T10:53:35Z</time>
      </trkpt>
      <trkpt lat="42.784798" lon="-7.521403">
        <ele>649.236</ele>
        <time>2022-08-20T10:53:40Z</time>
      </trkpt>
      <trkpt lat="42.784839" lon="-7.521438">
        <ele>649.831</ele>
        <time>2022-08-20T10:53:44Z</time>
      </trkpt>
      <trkpt lat="42.784884" lon="-7.521474">
        <ele>650.021</ele>
        <time>2022-08-20T10:53:49Z</time>
      </trkpt>
      <trkpt lat="42.784925" lon="-7.521520">
        <ele>650.350</ele>
        <time>2022-08-20T10:53:54Z</time>
      </trkpt>
      <trkpt lat="42.784958" lon="-7.521566">
        <ele>650.554</ele>
        <time>2022-08-20T10:53:58Z</time>
      </trkpt>
      <trkpt lat="42.785005" lon="-7.521620">
        <ele>650.856</ele>
        <time>2022-08-20T10:54:03Z</time>
      </trkpt>
      <trkpt lat="42.785038" lon="-7.521665">
        <ele>651.011</ele>
        <time>2022-08-20T10:54:06Z</time>
      </trkpt>
      <trkpt lat="42.785062" lon="-7.521717">
        <ele>651.209</ele>
        <time>2022-08-20T10:54:09Z</time>
      </trkpt>
      <trkpt lat="42.785085" lon="-7.521777">
        <ele>651.436</ele>
        <time>2022-08-20T10:54:13Z</time>
      </trkpt>
      <trkpt lat="42.785118" lon="-7.521837">
        <ele>651.666</ele>
        <time>2022-08-20T10:54:17Z</time>
      </trkpt>
      <trkpt lat="42.785144" lon="-7.521887">
        <ele>651.736</ele>
        <time>2022-08-20T10:54:20Z</time>
      </trkpt>
      <trkpt lat="42.785181" lon="-7.521939">
        <ele>651.877</ele>
        <time>2022-08-20T10:54:24Z</time>
      </trkpt>
      <trkpt lat="42.785210" lon="-7.521997">
        <ele>651.987</ele>
        <time>2022-08-20T10:54:28Z</time>
      </trkpt>
      <trkpt lat="42.785237" lon="-7.522061">
        <ele>652.160</ele>
        <time>2022-08-20T10:54:32Z</time>
      </trkpt>
      <trkpt lat="42.785251" lon="-7.522127">
        <ele>652.455</ele>
        <time>2022-08-20T10:54:36Z</time>
      </trkpt>
      <trkpt lat="42.785255" lon="-7.522197">
        <ele>652.885</ele>
        <time>2022-08-20T10:54:40Z</time>
      </trkpt>
      <trkpt lat="42.785250" lon="-7.522269">
        <ele>653.234</ele>
        <time>2022-08-20T10:54:45Z</time>
      </trkpt>
      <trkpt lat="42.785249" lon="-7.522342">
        <ele>653.734</ele>
        <time>2022-08-20T10:54:49Z</time>
      </trkpt>
      <trkpt lat="42.785242" lon="-7.522403">
        <ele>654.155</ele>
        <time>2022-08-20T10:54:53Z</time>
      </trkpt>
      <trkpt lat="42.785233" lon="-7.522466">
        <ele>654.510</ele>
        <time>2022-08-20T10:54:58Z</time>
      </trkpt>
      <trkpt lat="42.785216" lon="-7.522530">
        <ele>655.009</ele>
        <time>2022-08-20T10:55:02Z</time>
      </trkpt>
      <trkpt lat="42.785204" lon="-7.522594">
        <ele>655.724</ele>
        <time>2022-08-20T10:55:06Z</time>
      </trkpt>
      <trkpt lat="42.785183" lon="-7.522649">
        <ele>656.354</ele>
        <time>2022-08-20T10:55:09Z</time>
      </trkpt>
      <trkpt lat="42.785168" lon="-7.522722">
        <ele>656.854</ele>
        <time>2022-08-20T10:55:13Z</time>
      </trkpt>
      <trkpt lat="42.785149" lon="-7.522791">
        <ele>657.285</ele>
        <time>2022-08-20T10:55:17Z</time>
      </trkpt>
      <trkpt lat="42.785139" lon="-7.522857">
        <ele>657.495</ele>
        <time>2022-08-20T10:55:21Z</time>
      </trkpt>
      <trkpt lat="42.785109" lon="-7.522905">
        <ele>657.728</ele>
        <time>2022-08-20T10:55:24Z</time>
      </trkpt>
      <trkpt lat="42.785081" lon="-7.522961">
        <ele>658.033</ele>
        <time>2022-08-20T10:55:28Z</time>
      </trkpt>
      <trkpt lat="42.785055" lon="-7.523020">
        <ele>658.323</ele>
        <time>2022-08-20T10:55:33Z</time>
      </trkpt>
      <trkpt lat="42.785039" lon="-7.523093">
        <ele>658.672</ele>
        <time>2022-08-20T10:55:38Z</time>
      </trkpt>
      <trkpt lat="42.785024" lon="-7.523164">
        <ele>659.093</ele>
        <time>2022-08-20T10:55:44Z</time>
      </trkpt>
      <trkpt lat="42.784988" lon="-7.523234">
        <ele>659.465</ele>
        <time>2022-08-20T10:55:49Z</time>
      </trkpt>
      <trkpt lat="42.784965" lon="-7.523294">
        <ele>659.721</ele>
        <time>2022-08-20T10:55:53Z</time>
      </trkpt>
      <trkpt lat="42.784940" lon="-7.523359">
        <ele>660.009</ele>
        <time>2022-08-20T10:55:58Z</time>
      </trkpt>
      <trkpt lat="42.784912" lon="-7.523409">
        <ele>660.110</ele>
        <time>2022-08-20T10:56:02Z</time>
      </trkpt>
      <trkpt lat="42.784878" lon="-7.523460">
        <ele>660.440</ele>
        <time>2022-08-20T10:56:06Z</time>
      </trkpt>
      <trkpt lat="42.784851" lon="-7.523526">
        <ele>660.790</ele>
        <time>2022-08-20T10:56:11Z</time>
      </trkpt>
      <trkpt lat="42.784819" lon="-7.523585">
        <ele>660.941</ele>
        <time>2022-08-20T10:56:15Z</time>
      </trkpt>
      <trkpt lat="42.784772" lon="-7.523632">
        <ele>661.191</ele>
        <time>2022-08-20T10:56:18Z</time>
      </trkpt>
      <trkpt lat="42.784751" lon="-7.523701">
        <ele>661.494</ele>
        <time>2022-08-20T10:56:22Z</time>
      </trkpt>
      <trkpt lat="42.784727" lon="-7.523755">
        <ele>661.599</ele>
        <time>2022-08-20T10:56:25Z</time>
      </trkpt>
      <trkpt lat="42.784702" lon="-7.523813">
        <ele>661.859</ele>
        <time>2022-08-20T10:56:29Z</time>
      </trkpt>
      <trkpt lat="42.784665" lon="-7.523860">
        <ele>662.168</ele>
        <time>2022-08-20T10:56:32Z</time>
      </trkpt>
      <trkpt lat="42.784642" lon="-7.523930">
        <ele>662.415</ele>
        <time>2022-08-20T10:56:37Z</time>
      </trkpt>
      <trkpt lat="42.784636" lon="-7.523997">
        <ele>662.665</ele>
        <time>2022-08-20T10:56:41Z</time>
      </trkpt>
      <trkpt lat="42.784618" lon="-7.524066">
        <ele>662.911</ele>
        <time>2022-08-20T10:56:45Z</time>
      </trkpt>
      <trkpt lat="42.784598" lon="-7.524141">
        <ele>663.209</ele>
        <time>2022-08-20T10:56:49Z</time>
      </trkpt>
      <trkpt lat="42.784570" lon="-7.524211">
        <ele>663.572</ele>
        <time>2022-08-20T10:56:53Z</time>
      </trkpt>
      <trkpt lat="42.784547" lon="-7.524268">
        <ele>663.642</ele>
        <time>2022-08-20T10:56:56Z</time>
      </trkpt>
      <trkpt lat="42.784517" lon="-7.524335">
        <ele>663.812</ele>
        <time>2022-08-20T10:57:00Z</time>
      </trkpt>
      <trkpt lat="42.784498" lon="-7.524402">
        <ele>663.833</ele>
        <time>2022-08-20T10:57:04Z</time>
      </trkpt>
      <trkpt lat="42.784479" lon="-7.524469">
        <ele>663.843</ele>
        <time>2022-08-20T10:57:08Z</time>
      </trkpt>
      <trkpt lat="42.784450" lon="-7.524531">
        <ele>663.826</ele>
        <time>2022-08-20T10:57:12Z</time>
      </trkpt>
      <trkpt lat="42.784430" lon="-7.524596">
        <ele>663.751</ele>
        <time>2022-08-20T10:57:16Z</time>
      </trkpt>
      <trkpt lat="42.784412" lon="-7.524663">
        <ele>663.691</ele>
        <time>2022-08-20T10:57:20Z</time>
      </trkpt>
      <trkpt lat="42.784394" lon="-7.524726">
        <ele>663.590</ele>
        <time>2022-08-20T10:57:24Z</time>
      </trkpt>
      <trkpt lat="42.784378" lon="-7.524790">
        <ele>663.484</ele>
        <time>2022-08-20T10:57:28Z</time>
      </trkpt>
      <trkpt lat="42.784356" lon="-7.524850">
        <ele>663.407</ele>
        <time>2022-08-20T10:57:32Z</time>
      </trkpt>
      <trkpt lat="42.784339" lon="-7.524917">
        <ele>663.417</ele>
        <time>2022-08-20T10:57:36Z</time>
      </trkpt>
      <trkpt lat="42.784320" lon="-7.524988">
        <ele>663.309</ele>
        <time>2022-08-20T10:57:40Z</time>
      </trkpt>
      <trkpt lat="42.784301" lon="-7.525056">
        <ele>663.219</ele>
        <time>2022-08-20T10:57:44Z</time>
      </trkpt>
      <trkpt lat="42.784277" lon="-7.525123">
        <ele>663.169</ele>
        <time>2022-08-20T10:57:48Z</time>
      </trkpt>
      <trkpt lat="42.784252" lon="-7.525188">
        <ele>663.069</ele>
        <time>2022-08-20T10:57:52Z</time>
      </trkpt>
      <trkpt lat="42.784222" lon="-7.525248">
        <ele>662.840</ele>
        <time>2022-08-20T10:57:56Z</time>
      </trkpt>
      <trkpt lat="42.784199" lon="-7.525304">
        <ele>662.740</ele>
        <time>2022-08-20T10:58:00Z</time>
      </trkpt>
      <trkpt lat="42.784175" lon="-7.525360">
        <ele>662.683</ele>
        <time>2022-08-20T10:58:04Z</time>
      </trkpt>
      <trkpt lat="42.784145" lon="-7.525407">
        <ele>662.548</ele>
        <time>2022-08-20T10:58:08Z</time>
      </trkpt>
      <trkpt lat="42.784116" lon="-7.525471">
        <ele>662.428</ele>
        <time>2022-08-20T10:58:13Z</time>
      </trkpt>
      <trkpt lat="42.784088" lon="-7.525525">
        <ele>662.337</ele>
        <time>2022-08-20T10:58:17Z</time>
      </trkpt>
      <trkpt lat="42.784076" lon="-7.525586">
        <ele>662.276</ele>
        <time>2022-08-20T10:58:22Z</time>
      </trkpt>
      <trkpt lat="42.784068" lon="-7.525661">
        <ele>662.090</ele>
        <time>2022-08-20T10:58:26Z</time>
      </trkpt>
      <trkpt lat="42.784051" lon="-7.525727">
        <ele>661.719</ele>
        <time>2022-08-20T10:58:30Z</time>
      </trkpt>
      <trkpt lat="42.784045" lon="-7.525804">
        <ele>661.309</ele>
        <time>2022-08-20T10:58:34Z</time>
      </trkpt>
      <trkpt lat="42.784038" lon="-7.525867">
        <ele>660.828</ele>
        <time>2022-08-20T10:58:37Z</time>
      </trkpt>
      <trkpt lat="42.784045" lon="-7.525945">
        <ele>660.468</ele>
        <time>2022-08-20T10:58:41Z</time>
      </trkpt>
      <trkpt lat="42.784045" lon="-7.526014">
        <ele>660.228</ele>
        <time>2022-08-20T10:58:45Z</time>
      </trkpt>
      <trkpt lat="42.784049" lon="-7.526084">
        <ele>660.079</ele>
        <time>2022-08-20T10:58:49Z</time>
      </trkpt>
      <trkpt lat="42.784058" lon="-7.526157">
        <ele>659.999</ele>
        <time>2022-08-20T10:58:53Z</time>
      </trkpt>
      <trkpt lat="42.784064" lon="-7.526222">
        <ele>659.852</ele>
        <time>2022-08-20T10:58:57Z</time>
      </trkpt>
      <trkpt lat="42.784067" lon="-7.526288">
        <ele>659.727</ele>
        <time>2022-08-20T10:59:01Z</time>
      </trkpt>
      <trkpt lat="42.784061" lon="-7.526353">
        <ele>659.657</ele>
        <time>2022-08-20T10:59:05Z</time>
      </trkpt>
      <trkpt lat="42.784043" lon="-7.526426">
        <ele>659.646</ele>
        <time>2022-08-20T10:59:10Z</time>
      </trkpt>
      <trkpt lat="42.784023" lon="-7.526491">
        <ele>659.485</ele>
        <time>2022-08-20T10:59:14Z</time>
      </trkpt>
      <trkpt lat="42.784003" lon="-7.526551">
        <ele>659.289</ele>
        <time>2022-08-20T10:59:18Z</time>
      </trkpt>
      <trkpt lat="42.783979" lon="-7.526621">
        <ele>659.017</ele>
        <time>2022-08-20T10:59:22Z</time>
      </trkpt>
      <trkpt lat="42.783947" lon="-7.526682">
        <ele>658.909</ele>
        <time>2022-08-20T10:59:26Z</time>
      </trkpt>
      <trkpt lat="42.783916" lon="-7.526737">
        <ele>658.889</ele>
        <time>2022-08-20T10:59:30Z</time>
      </trkpt>
      <trkpt lat="42.783885" lon="-7.526800">
        <ele>658.769</ele>
        <time>2022-08-20T10:59:34Z</time>
      </trkpt>
      <trkpt lat="42.783855" lon="-7.526860">
        <ele>658.699</ele>
        <time>2022-08-20T10:59:38Z</time>
      </trkpt>
      <trkpt lat="42.783828" lon="-7.526913">
        <ele>658.690</ele>
        <time>2022-08-20T10:59:42Z</time>
      </trkpt>
      <trkpt lat="42.783790" lon="-7.526974">
        <ele>658.670</ele>
        <time>2022-08-20T10:59:46Z</time>
      </trkpt>
      <trkpt lat="42.783770" lon="-7.527031">
        <ele>658.633</ele>
        <time>2022-08-20T10:59:50Z</time>
      </trkpt>
      <trkpt lat="42.783746" lon="-7.527088">
        <ele>658.688</ele>
        <time>2022-08-20T10:59:54Z</time>
      </trkpt>
      <trkpt lat="42.783731" lon="-7.527147">
        <ele>658.668</ele>
        <time>2022-08-20T10:59:58Z</time>
      </trkpt>
      <trkpt lat="42.783711" lon="-7.527208">
        <ele>658.647</ele>
        <time>2022-08-20T11:00:02Z</time>
      </trkpt>
      <trkpt lat="42.783692" lon="-7.527265">
        <ele>658.685</ele>
        <time>2022-08-20T11:00:06Z</time>
      </trkpt>
      <trkpt lat="42.783667" lon="-7.527323">
        <ele>658.589</ele>
        <time>2022-08-20T11:00:10Z</time>
      </trkpt>
      <trkpt lat="42.783657" lon="-7.527389">
        <ele>658.317</ele>
        <time>2022-08-20T11:00:14Z</time>
      </trkpt>
      <trkpt lat="42.783643" lon="-7.527462">
        <ele>658.109</ele>
        <time>2022-08-20T11:00:19Z</time>
      </trkpt>
      <trkpt lat="42.783632" lon="-7.527524">
        <ele>658.089</ele>
        <time>2022-08-20T11:00:23Z</time>
      </trkpt>
      <trkpt lat="42.783638" lon="-7.527591">
        <ele>658.039</ele>
        <time>2022-08-20T11:00:27Z</time>
      </trkpt>
      <trkpt lat="42.783632" lon="-7.527657">
        <ele>658.069</ele>
        <time>2022-08-20T11:00:31Z</time>
      </trkpt>
      <trkpt lat="42.783637" lon="-7.527724">
        <ele>658.160</ele>
        <time>2022-08-20T11:00:35Z</time>
      </trkpt>
      <trkpt lat="42.783642" lon="-7.527798">
        <ele>658.120</ele>
        <time>2022-08-20T11:00:40Z</time>
      </trkpt>
      <trkpt lat="42.783632" lon="-7.527876">
        <ele>658.133</ele>
        <time>2022-08-20T11:00:45Z</time>
      </trkpt>
      <trkpt lat="42.783627" lon="-7.527942">
        <ele>658.198</ele>
        <time>2022-08-20T11:00:49Z</time>
      </trkpt>
      <trkpt lat="42.783617" lon="-7.528008">
        <ele>658.028</ele>
        <time>2022-08-20T11:00:53Z</time>
      </trkpt>
      <trkpt lat="42.783618" lon="-7.528070">
        <ele>657.927</ele>
        <time>2022-08-20T11:00:57Z</time>
      </trkpt>
      <trkpt lat="42.783625" lon="-7.528142">
        <ele>657.886</ele>
        <time>2022-08-20T11:01:01Z</time>
      </trkpt>
      <trkpt lat="42.783649" lon="-7.528210">
        <ele>657.760</ele>
        <time>2022-08-20T11:01:06Z</time>
      </trkpt>
      <trkpt lat="42.783666" lon="-7.528269">
        <ele>657.726</ele>
        <time>2022-08-20T11:01:09Z</time>
      </trkpt>
      <trkpt lat="42.783684" lon="-7.528338">
        <ele>657.709</ele>
        <time>2022-08-20T11:01:13Z</time>
      </trkpt>
      <trkpt lat="42.783697" lon="-7.528408">
        <ele>657.759</ele>
        <time>2022-08-20T11:01:18Z</time>
      </trkpt>
      <trkpt lat="42.783706" lon="-7.528478">
        <ele>657.659</ele>
        <time>2022-08-20T11:01:23Z</time>
      </trkpt>
      <trkpt lat="42.783707" lon="-7.528540">
        <ele>657.649</ele>
        <time>2022-08-20T11:01:27Z</time>
      </trkpt>
      <trkpt lat="42.783716" lon="-7.528612">
        <ele>657.580</ele>
        <time>2022-08-20T11:01:31Z</time>
      </trkpt>
      <trkpt lat="42.783726" lon="-7.528674">
        <ele>657.470</ele>
        <time>2022-08-20T11:01:35Z</time>
      </trkpt>
      <trkpt lat="42.783727" lon="-7.528743">
        <ele>657.323</ele>
        <time>2022-08-20T11:01:39Z</time>
      </trkpt>
      <trkpt lat="42.783735" lon="-7.528824">
        <ele>657.238</ele>
        <time>2022-08-20T11:01:43Z</time>
      </trkpt>
      <trkpt lat="42.783732" lon="-7.528902">
        <ele>657.218</ele>
        <time>2022-08-20T11:01:47Z</time>
      </trkpt>
      <trkpt lat="42.783734" lon="-7.528967">
        <ele>657.227</ele>
        <time>2022-08-20T11:01:51Z</time>
      </trkpt>
      <trkpt lat="42.783757" lon="-7.529027">
        <ele>657.159</ele>
        <time>2022-08-20T11:01:54Z</time>
      </trkpt>
      <trkpt lat="42.783768" lon="-7.529107">
        <ele>657.003</ele>
        <time>2022-08-20T11:01:58Z</time>
      </trkpt>
      <trkpt lat="42.783781" lon="-7.529169">
        <ele>656.923</ele>
        <time>2022-08-20T11:02:01Z</time>
      </trkpt>
      <trkpt lat="42.783787" lon="-7.529238">
        <ele>656.709</ele>
        <time>2022-08-20T11:02:04Z</time>
      </trkpt>
      <trkpt lat="42.783793" lon="-7.529301">
        <ele>656.426</ele>
        <time>2022-08-20T11:02:07Z</time>
      </trkpt>
      <trkpt lat="42.783791" lon="-7.529364">
        <ele>656.246</ele>
        <time>2022-08-20T11:02:10Z</time>
      </trkpt>
      <trkpt lat="42.783799" lon="-7.529438">
        <ele>656.186</ele>
        <time>2022-08-20T11:02:14Z</time>
      </trkpt>
      <trkpt lat="42.783799" lon="-7.529508">
        <ele>656.017</ele>
        <time>2022-08-20T11:02:18Z</time>
      </trkpt>
      <trkpt lat="42.783824" lon="-7.529559">
        <ele>656.097</ele>
        <time>2022-08-20T11:02:23Z</time>
      </trkpt>
      <trkpt lat="42.783862" lon="-7.529602">
        <ele>656.050</ele>
        <time>2022-08-20T11:02:27Z</time>
      </trkpt>
      <trkpt lat="42.783890" lon="-7.529665">
        <ele>656.015</ele>
        <time>2022-08-20T11:02:31Z</time>
      </trkpt>
      <trkpt lat="42.783902" lon="-7.529726">
        <ele>656.325</ele>
        <time>2022-08-20T11:02:35Z</time>
      </trkpt>
      <trkpt lat="42.783901" lon="-7.529797">
        <ele>656.994</ele>
        <time>2022-08-20T11:02:39Z</time>
      </trkpt>
      <trkpt lat="42.783907" lon="-7.529864">
        <ele>657.438</ele>
        <time>2022-08-20T11:02:43Z</time>
      </trkpt>
      <trkpt lat="42.783912" lon="-7.529929">
        <ele>657.970</ele>
        <time>2022-08-20T11:02:48Z</time>
      </trkpt>
      <trkpt lat="42.783914" lon="-7.529996">
        <ele>658.417</ele>
        <time>2022-08-20T11:02:53Z</time>
      </trkpt>
      <trkpt lat="42.783925" lon="-7.530061">
        <ele>659.009</ele>
        <time>2022-08-20T11:02:57Z</time>
      </trkpt>
      <trkpt lat="42.783929" lon="-7.530129">
        <ele>659.614</ele>
        <time>2022-08-20T11:03:00Z</time>
      </trkpt>
      <trkpt lat="42.783927" lon="-7.530193">
        <ele>660.134</ele>
        <time>2022-08-20T11:03:03Z</time>
      </trkpt>
      <trkpt lat="42.783929" lon="-7.530261">
        <ele>660.524</ele>
        <time>2022-08-20T11:03:07Z</time>
      </trkpt>
      <trkpt lat="42.783941" lon="-7.530323">
        <ele>660.895</ele>
        <time>2022-08-20T11:03:11Z</time>
      </trkpt>
      <trkpt lat="42.783950" lon="-7.530400">
        <ele>661.125</ele>
        <time>2022-08-20T11:03:16Z</time>
      </trkpt>
      <trkpt lat="42.783946" lon="-7.530476">
        <ele>661.448</ele>
        <time>2022-08-20T11:03:20Z</time>
      </trkpt>
      <trkpt lat="42.783934" lon="-7.530547">
        <ele>661.773</ele>
        <time>2022-08-20T11:03:24Z</time>
      </trkpt>
      <trkpt lat="42.783924" lon="-7.530618">
        <ele>661.953</ele>
        <time>2022-08-20T11:03:28Z</time>
      </trkpt>
      <trkpt lat="42.783902" lon="-7.530680">
        <ele>662.012</ele>
        <time>2022-08-20T11:03:32Z</time>
      </trkpt>
      <trkpt lat="42.783881" lon="-7.530755">
        <ele>662.057</ele>
        <time>2022-08-20T11:03:37Z</time>
      </trkpt>
      <trkpt lat="42.783854" lon="-7.530806">
        <ele>662.000</ele>
        <time>2022-08-20T11:03:40Z</time>
      </trkpt>
      <trkpt lat="42.783821" lon="-7.530855">
        <ele>661.920</ele>
        <time>2022-08-20T11:03:44Z</time>
      </trkpt>
      <trkpt lat="42.783773" lon="-7.530907">
        <ele>661.809</ele>
        <time>2022-08-20T11:03:48Z</time>
      </trkpt>
      <trkpt lat="42.783728" lon="-7.530959">
        <ele>661.636</ele>
        <time>2022-08-20T11:03:53Z</time>
      </trkpt>
      <trkpt lat="42.783687" lon="-7.531012">
        <ele>661.496</ele>
        <time>2022-08-20T11:03:57Z</time>
      </trkpt>
      <trkpt lat="42.783644" lon="-7.531056">
        <ele>661.376</ele>
        <time>2022-08-20T11:04:01Z</time>
      </trkpt>
      <trkpt lat="42.783607" lon="-7.531113">
        <ele>661.287</ele>
        <time>2022-08-20T11:04:05Z</time>
      </trkpt>
      <trkpt lat="42.783577" lon="-7.531169">
        <ele>661.137</ele>
        <time>2022-08-20T11:04:09Z</time>
      </trkpt>
      <trkpt lat="42.783550" lon="-7.531220">
        <ele>661.040</ele>
        <time>2022-08-20T11:04:13Z</time>
      </trkpt>
      <trkpt lat="42.783525" lon="-7.531277">
        <ele>660.885</ele>
        <time>2022-08-20T11:04:17Z</time>
      </trkpt>
      <trkpt lat="42.783514" lon="-7.531345">
        <ele>660.685</ele>
        <time>2022-08-20T11:04:22Z</time>
      </trkpt>
      <trkpt lat="42.783506" lon="-7.531416">
        <ele>660.564</ele>
        <time>2022-08-20T11:04:27Z</time>
      </trkpt>
      <trkpt lat="42.783500" lon="-7.531485">
        <ele>660.558</ele>
        <time>2022-08-20T11:04:31Z</time>
      </trkpt>
      <trkpt lat="42.783503" lon="-7.531555">
        <ele>660.552</ele>
        <time>2022-08-20T11:04:36Z</time>
      </trkpt>
      <trkpt lat="42.783496" lon="-7.531617">
        <ele>660.617</ele>
        <time>2022-08-20T11:04:39Z</time>
      </trkpt>
      <trkpt lat="42.783488" lon="-7.531692">
        <ele>660.809</ele>
        <time>2022-08-20T11:04:44Z</time>
      </trkpt>
      <trkpt lat="42.783487" lon="-7.531754">
        <ele>661.086</ele>
        <time>2022-08-20T11:04:48Z</time>
      </trkpt>
      <trkpt lat="42.783494" lon="-7.531829">
        <ele>661.216</ele>
        <time>2022-08-20T11:04:53Z</time>
      </trkpt>
      <trkpt lat="42.783485" lon="-7.531907">
        <ele>661.586</ele>
        <time>2022-08-20T11:04:57Z</time>
      </trkpt>
      <trkpt lat="42.783494" lon="-7.531969">
        <ele>661.827</ele>
        <time>2022-08-20T11:05:01Z</time>
      </trkpt>
      <trkpt lat="42.783509" lon="-7.532039">
        <ele>662.057</ele>
        <time>2022-08-20T11:05:05Z</time>
      </trkpt>
      <trkpt lat="42.783507" lon="-7.532112">
        <ele>662.250</ele>
        <time>2022-08-20T11:05:09Z</time>
      </trkpt>
      <trkpt lat="42.783510" lon="-7.532177">
        <ele>662.465</ele>
        <time>2022-08-20T11:05:12Z</time>
      </trkpt>
      <trkpt lat="42.783515" lon="-7.532256">
        <ele>662.695</ele>
        <time>2022-08-20T11:05:16Z</time>
      </trkpt>
      <trkpt lat="42.783529" lon="-7.532326">
        <ele>662.854</ele>
        <time>2022-08-20T11:05:20Z</time>
      </trkpt>
      <trkpt lat="42.783535" lon="-7.532393">
        <ele>662.939</ele>
        <time>2022-08-20T11:05:23Z</time>
      </trkpt>
      <trkpt lat="42.783545" lon="-7.532459">
        <ele>663.001</ele>
        <time>2022-08-20T11:05:26Z</time>
      </trkpt>
      <trkpt lat="42.783547" lon="-7.532542">
        <ele>663.221</ele>
        <time>2022-08-20T11:05:30Z</time>
      </trkpt>
      <trkpt lat="42.783548" lon="-7.532622">
        <ele>663.309</ele>
        <time>2022-08-20T11:05:34Z</time>
      </trkpt>
      <trkpt lat="42.783558" lon="-7.532687">
        <ele>663.494</ele>
        <time>2022-08-20T11:05:38Z</time>
      </trkpt>
      <trkpt lat="42.783560" lon="-7.532758">
        <ele>663.614</ele>
        <time>2022-08-20T11:05:42Z</time>
      </trkpt>
      <trkpt lat="42.783552" lon="-7.532826">
        <ele>663.864</ele>
        <time>2022-08-20T11:05:46Z</time>
      </trkpt>
      <trkpt lat="42.783563" lon="-7.532886">
        <ele>663.945</ele>
        <time>2022-08-20T11:05:50Z</time>
      </trkpt>
      <trkpt lat="42.783572" lon="-7.532955">
        <ele>664.065</ele>
        <time>2022-08-20T11:05:54Z</time>
      </trkpt>
      <trkpt lat="42.783569" lon="-7.533035">
        <ele>664.188</ele>
        <time>2022-08-20T11:05:58Z</time>
      </trkpt>
      <trkpt lat="42.783574" lon="-7.533096">
        <ele>664.253</ele>
        <time>2022-08-20T11:06:01Z</time>
      </trkpt>
      <trkpt lat="42.783583" lon="-7.533156">
        <ele>664.323</ele>
        <time>2022-08-20T11:06:04Z</time>
      </trkpt>
      <trkpt lat="42.783599" lon="-7.533213">
        <ele>664.462</ele>
        <time>2022-08-20T11:06:08Z</time>
      </trkpt>
      <trkpt lat="42.783608" lon="-7.533288">
        <ele>664.414</ele>
        <time>2022-08-20T11:06:12Z</time>
      </trkpt>
      <trkpt lat="42.783600" lon="-7.533361">
        <ele>664.454</ele>
        <time>2022-08-20T11:06:16Z</time>
      </trkpt>
      <trkpt lat="42.783566" lon="-7.533414">
        <ele>664.409</ele>
        <time>2022-08-20T11:06:21Z</time>
      </trkpt>
      <trkpt lat="42.783529" lon="-7.533451">
        <ele>664.409</ele>
        <time>2022-08-20T11:06:26Z</time>
      </trkpt>
      <trkpt lat="42.783509" lon="-7.533515">
        <ele>664.442</ele>
        <time>2022-08-20T11:06:31Z</time>
      </trkpt>
      <trkpt lat="42.783506" lon="-7.533581">
        <ele>664.252</ele>
        <time>2022-08-20T11:06:35Z</time>
      </trkpt>
      <trkpt lat="42.783505" lon="-7.533657">
        <ele>663.952</ele>
        <time>2022-08-20T11:06:39Z</time>
      </trkpt>
      <trkpt lat="42.783496" lon="-7.533732">
        <ele>663.653</ele>
        <time>2022-08-20T11:06:43Z</time>
      </trkpt>
      <trkpt lat="42.783482" lon="-7.533805">
        <ele>663.373</ele>
        <time>2022-08-20T11:06:47Z</time>
      </trkpt>
      <trkpt lat="42.783480" lon="-7.533876">
        <ele>663.016</ele>
        <time>2022-08-20T11:06:52Z</time>
      </trkpt>
      <trkpt lat="42.783485" lon="-7.533955">
        <ele>662.651</ele>
        <time>2022-08-20T11:06:57Z</time>
      </trkpt>
      <trkpt lat="42.783493" lon="-7.534020">
        <ele>662.351</ele>
        <time>2022-08-20T11:07:01Z</time>
      </trkpt>
      <trkpt lat="42.783506" lon="-7.534099">
        <ele>662.110</ele>
        <time>2022-08-20T11:07:06Z</time>
      </trkpt>
      <trkpt lat="42.783507" lon="-7.534181">
        <ele>661.819</ele>
        <time>2022-08-20T11:07:11Z</time>
      </trkpt>
      <trkpt lat="42.783507" lon="-7.534258">
        <ele>661.409</ele>
        <time>2022-08-20T11:07:15Z</time>
      </trkpt>
      <trkpt lat="42.783498" lon="-7.534322">
        <ele>660.819</ele>
        <time>2022-08-20T11:07:18Z</time>
      </trkpt>
      <trkpt lat="42.783492" lon="-7.534407">
        <ele>660.309</ele>
        <time>2022-08-20T11:07:23Z</time>
      </trkpt>
      <trkpt lat="42.783498" lon="-7.534481">
        <ele>659.982</ele>
        <time>2022-08-20T11:07:27Z</time>
      </trkpt>
      <trkpt lat="42.783499" lon="-7.534547">
        <ele>659.212</ele>
        <time>2022-08-20T11:07:31Z</time>
      </trkpt>
      <trkpt lat="42.783504" lon="-7.534608">
        <ele>658.972</ele>
        <time>2022-08-20T11:07:34Z</time>
      </trkpt>
      <trkpt lat="42.783505" lon="-7.534676">
        <ele>658.383</ele>
        <time>2022-08-20T11:07:38Z</time>
      </trkpt>
      <trkpt lat="42.783505" lon="-7.534744">
        <ele>657.843</ele>
        <time>2022-08-20T11:07:42Z</time>
      </trkpt>
      <trkpt lat="42.783506" lon="-7.534815">
        <ele>657.396</ele>
        <time>2022-08-20T11:07:46Z</time>
      </trkpt>
      <trkpt lat="42.783513" lon="-7.534885">
        <ele>656.741</ele>
        <time>2022-08-20T11:07:50Z</time>
      </trkpt>
      <trkpt lat="42.783523" lon="-7.534951">
        <ele>656.091</ele>
        <time>2022-08-20T11:07:54Z</time>
      </trkpt>
      <trkpt lat="42.783530" lon="-7.535022">
        <ele>655.290</ele>
        <time>2022-08-20T11:07:58Z</time>
      </trkpt>
      <trkpt lat="42.783538" lon="-7.535092">
        <ele>654.466</ele>
        <time>2022-08-20T11:08:02Z</time>
      </trkpt>
      <trkpt lat="42.783551" lon="-7.535164">
        <ele>653.729</ele>
        <time>2022-08-20T11:08:06Z</time>
      </trkpt>
      <trkpt lat="42.783556" lon="-7.535229">
        <ele>653.121</ele>
        <time>2022-08-20T11:08:10Z</time>
      </trkpt>
      <trkpt lat="42.783572" lon="-7.535301">
        <ele>652.509</ele>
        <time>2022-08-20T11:08:14Z</time>
      </trkpt>
      <trkpt lat="42.783588" lon="-7.535369">
        <ele>651.837</ele>
        <time>2022-08-20T11:08:18Z</time>
      </trkpt>
      <trkpt lat="42.783602" lon="-7.535441">
        <ele>651.157</ele>
        <time>2022-08-20T11:08:22Z</time>
      </trkpt>
      <trkpt lat="42.783617" lon="-7.535507">
        <ele>650.327</ele>
        <time>2022-08-20T11:08:26Z</time>
      </trkpt>
      <trkpt lat="42.783633" lon="-7.535579">
        <ele>649.098</ele>
        <time>2022-08-20T11:08:30Z</time>
      </trkpt>
      <trkpt lat="42.783646" lon="-7.535643">
        <ele>648.578</ele>
        <time>2022-08-20T11:08:34Z</time>
      </trkpt>
      <trkpt lat="42.783663" lon="-7.535714">
        <ele>647.611</ele>
        <time>2022-08-20T11:08:38Z</time>
      </trkpt>
      <trkpt lat="42.783673" lon="-7.535775">
        <ele>646.686</ele>
        <time>2022-08-20T11:08:41Z</time>
      </trkpt>
      <trkpt lat="42.783689" lon="-7.535848">
        <ele>645.646</ele>
        <time>2022-08-20T11:08:45Z</time>
      </trkpt>
      <trkpt lat="42.783704" lon="-7.535921">
        <ele>644.735</ele>
        <time>2022-08-20T11:08:49Z</time>
      </trkpt>
      <trkpt lat="42.783726" lon="-7.535985">
        <ele>643.725</ele>
        <time>2022-08-20T11:08:53Z</time>
      </trkpt>
      <trkpt lat="42.783727" lon="-7.536050">
        <ele>642.726</ele>
        <time>2022-08-20T11:08:57Z</time>
      </trkpt>
      <trkpt lat="42.783735" lon="-7.536112">
        <ele>641.908</ele>
        <time>2022-08-20T11:09:00Z</time>
      </trkpt>
      <trkpt lat="42.783744" lon="-7.536189">
        <ele>641.009</ele>
        <time>2022-08-20T11:09:04Z</time>
      </trkpt>
      <trkpt lat="42.783748" lon="-7.536267">
        <ele>640.253</ele>
        <time>2022-08-20T11:09:08Z</time>
      </trkpt>
      <trkpt lat="42.783761" lon="-7.536336">
        <ele>639.693</ele>
        <time>2022-08-20T11:09:12Z</time>
      </trkpt>
      <trkpt lat="42.783772" lon="-7.536403">
        <ele>639.073</ele>
        <time>2022-08-20T11:09:16Z</time>
      </trkpt>
      <trkpt lat="42.783778" lon="-7.536464">
        <ele>638.674</ele>
        <time>2022-08-20T11:09:20Z</time>
      </trkpt>
      <trkpt lat="42.783794" lon="-7.536527">
        <ele>638.334</ele>
        <time>2022-08-20T11:09:24Z</time>
      </trkpt>
      <trkpt lat="42.783805" lon="-7.536596">
        <ele>638.187</ele>
        <time>2022-08-20T11:09:28Z</time>
      </trkpt>
      <trkpt lat="42.783823" lon="-7.536665">
        <ele>638.082</ele>
        <time>2022-08-20T11:09:32Z</time>
      </trkpt>
      <trkpt lat="42.783829" lon="-7.536728">
        <ele>637.942</ele>
        <time>2022-08-20T11:09:36Z</time>
      </trkpt>
      <trkpt lat="42.783833" lon="-7.536800">
        <ele>637.941</ele>
        <time>2022-08-20T11:09:40Z</time>
      </trkpt>
      <trkpt lat="42.783839" lon="-7.536867">
        <ele>637.935</ele>
        <time>2022-08-20T11:09:44Z</time>
      </trkpt>
      <trkpt lat="42.783842" lon="-7.536935">
        <ele>637.986</ele>
        <time>2022-08-20T11:09:48Z</time>
      </trkpt>
      <trkpt lat="42.783848" lon="-7.537005">
        <ele>637.914</ele>
        <time>2022-08-20T11:09:53Z</time>
      </trkpt>
      <trkpt lat="42.783846" lon="-7.537075">
        <ele>638.009</ele>
        <time>2022-08-20T11:09:57Z</time>
      </trkpt>
      <trkpt lat="42.783856" lon="-7.537151">
        <ele>638.264</ele>
        <time>2022-08-20T11:10:01Z</time>
      </trkpt>
      <trkpt lat="42.783856" lon="-7.537221">
        <ele>638.364</ele>
        <time>2022-08-20T11:10:05Z</time>
      </trkpt>
      <trkpt lat="42.783858" lon="-7.537295">
        <ele>638.454</ele>
        <time>2022-08-20T11:10:09Z</time>
      </trkpt>
      <trkpt lat="42.783865" lon="-7.537360">
        <ele>638.545</ele>
        <time>2022-08-20T11:10:13Z</time>
      </trkpt>
      <trkpt lat="42.783879" lon="-7.537426">
        <ele>638.665</ele>
        <time>2022-08-20T11:10:17Z</time>
      </trkpt>
      <trkpt lat="42.783898" lon="-7.537499">
        <ele>638.788</ele>
        <time>2022-08-20T11:10:21Z</time>
      </trkpt>
      <trkpt lat="42.783910" lon="-7.537573">
        <ele>638.853</ele>
        <time>2022-08-20T11:10:25Z</time>
      </trkpt>
      <trkpt lat="42.783921" lon="-7.537643">
        <ele>639.083</ele>
        <time>2022-08-20T11:10:29Z</time>
      </trkpt>
      <trkpt lat="42.783938" lon="-7.537716">
        <ele>639.372</ele>
        <time>2022-08-20T11:10:34Z</time>
      </trkpt>
      <trkpt lat="42.783949" lon="-7.537778">
        <ele>639.441</ele>
        <time>2022-08-20T11:10:38Z</time>
      </trkpt>
      <trkpt lat="42.783966" lon="-7.537850">
        <ele>639.781</ele>
        <time>2022-08-20T11:10:43Z</time>
      </trkpt>
      <trkpt lat="42.783981" lon="-7.537921">
        <ele>640.009</ele>
        <time>2022-08-20T11:10:47Z</time>
      </trkpt>
      <trkpt lat="42.783997" lon="-7.537992">
        <ele>640.309</ele>
        <time>2022-08-20T11:10:51Z</time>
      </trkpt>
      <trkpt lat="42.784018" lon="-7.538059">
        <ele>640.665</ele>
        <time>2022-08-20T11:10:55Z</time>
      </trkpt>
      <trkpt lat="42.784035" lon="-7.538125">
        <ele>641.075</ele>
        <time>2022-08-20T11:10:59Z</time>
      </trkpt>
      <trkpt lat="42.784051" lon="-7.538196">
        <ele>641.285</ele>
        <time>2022-08-20T11:11:03Z</time>
      </trkpt>
      <trkpt lat="42.784071" lon="-7.538262">
        <ele>641.576</ele>
        <time>2022-08-20T11:11:07Z</time>
      </trkpt>
      <trkpt lat="42.784099" lon="-7.538325">
        <ele>641.926</ele>
        <time>2022-08-20T11:11:11Z</time>
      </trkpt>
      <trkpt lat="42.784122" lon="-7.538388">
        <ele>642.479</ele>
        <time>2022-08-20T11:11:15Z</time>
      </trkpt>
      <trkpt lat="42.784133" lon="-7.538450">
        <ele>642.964</ele>
        <time>2022-08-20T11:11:19Z</time>
      </trkpt>
      <trkpt lat="42.784148" lon="-7.538510">
        <ele>643.374</ele>
        <time>2022-08-20T11:11:23Z</time>
      </trkpt>
      <trkpt lat="42.784167" lon="-7.538575">
        <ele>643.713</ele>
        <time>2022-08-20T11:11:28Z</time>
      </trkpt>
      <trkpt lat="42.784187" lon="-7.538645">
        <ele>644.199</ele>
        <time>2022-08-20T11:11:32Z</time>
      </trkpt>
      <trkpt lat="42.784200" lon="-7.538714">
        <ele>644.507</ele>
        <time>2022-08-20T11:11:37Z</time>
      </trkpt>
      <trkpt lat="42.784209" lon="-7.538794">
        <ele>644.927</ele>
        <time>2022-08-20T11:11:42Z</time>
      </trkpt>
      <trkpt lat="42.784221" lon="-7.538874">
        <ele>645.509</ele>
        <time>2022-08-20T11:11:46Z</time>
      </trkpt>
      <trkpt lat="42.784232" lon="-7.538947">
        <ele>646.040</ele>
        <time>2022-08-20T11:11:50Z</time>
      </trkpt>
      <trkpt lat="42.784236" lon="-7.539018">
        <ele>646.430</ele>
        <time>2022-08-20T11:11:54Z</time>
      </trkpt>
      <trkpt lat="42.784234" lon="-7.539090">
        <ele>646.760</ele>
        <time>2022-08-20T11:11:58Z</time>
      </trkpt>
      <trkpt lat="42.784241" lon="-7.539169">
        <ele>647.071</ele>
        <time>2022-08-20T11:12:02Z</time>
      </trkpt>
      <trkpt lat="42.784243" lon="-7.539233">
        <ele>647.251</ele>
        <time>2022-08-20T11:12:06Z</time>
      </trkpt>
      <trkpt lat="42.784236" lon="-7.539294">
        <ele>647.524</ele>
        <time>2022-08-20T11:12:10Z</time>
      </trkpt>
      <trkpt lat="42.784234" lon="-7.539357">
        <ele>647.869</ele>
        <time>2022-08-20T11:12:14Z</time>
      </trkpt>
      <trkpt lat="42.784233" lon="-7.539434">
        <ele>647.889</ele>
        <time>2022-08-20T11:12:18Z</time>
      </trkpt>
      <trkpt lat="42.784227" lon="-7.539496">
        <ele>647.818</ele>
        <time>2022-08-20T11:12:23Z</time>
      </trkpt>
      <trkpt lat="42.784232" lon="-7.539568">
        <ele>647.762</ele>
        <time>2022-08-20T11:12:27Z</time>
      </trkpt>
      <trkpt lat="42.784238" lon="-7.539631">
        <ele>647.283</ele>
        <time>2022-08-20T11:12:31Z</time>
      </trkpt>
      <trkpt lat="42.784242" lon="-7.539704">
        <ele>646.811</ele>
        <time>2022-08-20T11:12:35Z</time>
      </trkpt>
      <trkpt lat="42.784249" lon="-7.539773">
        <ele>646.509</ele>
        <time>2022-08-20T11:12:39Z</time>
      </trkpt>
      <trkpt lat="42.784249" lon="-7.539843">
        <ele>646.197</ele>
        <time>2022-08-20T11:12:43Z</time>
      </trkpt>
      <trkpt lat="42.784254" lon="-7.539908">
        <ele>645.847</ele>
        <time>2022-08-20T11:12:47Z</time>
      </trkpt>
      <trkpt lat="42.784257" lon="-7.539975">
        <ele>645.647</ele>
        <time>2022-08-20T11:12:52Z</time>
      </trkpt>
      <trkpt lat="42.784262" lon="-7.540040">
        <ele>645.568</ele>
        <time>2022-08-20T11:12:56Z</time>
      </trkpt>
      <trkpt lat="42.784277" lon="-7.540118">
        <ele>645.368</ele>
        <time>2022-08-20T11:13:00Z</time>
      </trkpt>
      <trkpt lat="42.784287" lon="-7.540187">
        <ele>645.141</ele>
        <time>2022-08-20T11:13:03Z</time>
      </trkpt>
      <trkpt lat="42.784303" lon="-7.540258">
        <ele>644.976</ele>
        <time>2022-08-20T11:13:07Z</time>
      </trkpt>
      <trkpt lat="42.784310" lon="-7.540329">
        <ele>644.766</ele>
        <time>2022-08-20T11:13:11Z</time>
      </trkpt>
      <trkpt lat="42.784321" lon="-7.540395">
        <ele>644.455</ele>
        <time>2022-08-20T11:13:15Z</time>
      </trkpt>
      <trkpt lat="42.784331" lon="-7.540477">
        <ele>644.099</ele>
        <time>2022-08-20T11:13:20Z</time>
      </trkpt>
      <trkpt lat="42.784354" lon="-7.540542">
        <ele>643.807</ele>
        <time>2022-08-20T11:13:24Z</time>
      </trkpt>
      <trkpt lat="42.784384" lon="-7.540601">
        <ele>643.627</ele>
        <time>2022-08-20T11:13:28Z</time>
      </trkpt>
      <trkpt lat="42.784410" lon="-7.540659">
        <ele>643.509</ele>
        <time>2022-08-20T11:13:32Z</time>
      </trkpt>
      <trkpt lat="42.784434" lon="-7.540714">
        <ele>643.340</ele>
        <time>2022-08-20T11:13:36Z</time>
      </trkpt>
      <trkpt lat="42.784464" lon="-7.540769">
        <ele>643.180</ele>
        <time>2022-08-20T11:13:40Z</time>
      </trkpt>
      <trkpt lat="42.784490" lon="-7.540824">
        <ele>642.990</ele>
        <time>2022-08-20T11:13:45Z</time>
      </trkpt>
      <trkpt lat="42.784513" lon="-7.540886">
        <ele>642.611</ele>
        <time>2022-08-20T11:13:49Z</time>
      </trkpt>
      <trkpt lat="42.784535" lon="-7.540944">
        <ele>642.281</ele>
        <time>2022-08-20T11:13:52Z</time>
      </trkpt>
      <trkpt lat="42.784576" lon="-7.540997">
        <ele>641.894</ele>
        <time>2022-08-20T11:13:57Z</time>
      </trkpt>
      <trkpt lat="42.784605" lon="-7.541052">
        <ele>641.549</ele>
        <time>2022-08-20T11:14:01Z</time>
      </trkpt>
      <trkpt lat="42.784635" lon="-7.541112">
        <ele>641.319</ele>
        <time>2022-08-20T11:14:05Z</time>
      </trkpt>
      <trkpt lat="42.784678" lon="-7.541173">
        <ele>641.118</ele>
        <time>2022-08-20T11:14:09Z</time>
      </trkpt>
      <trkpt lat="42.784711" lon="-7.541228">
        <ele>640.926</ele>
        <time>2022-08-20T11:14:13Z</time>
      </trkpt>
      <trkpt lat="42.784742" lon="-7.541284">
        <ele>640.947</ele>
        <time>2022-08-20T11:14:17Z</time>
      </trkpt>
      <trkpt lat="42.784769" lon="-7.541341">
        <ele>640.811</ele>
        <time>2022-08-20T11:14:21Z</time>
      </trkpt>
      <trkpt lat="42.784799" lon="-7.541396">
        <ele>640.709</ele>
        <time>2022-08-20T11:14:24Z</time>
      </trkpt>
      <trkpt lat="42.784816" lon="-7.541461">
        <ele>640.773</ele>
        <time>2022-08-20T11:14:28Z</time>
      </trkpt>
      <trkpt lat="42.784845" lon="-7.541513">
        <ele>640.763</ele>
        <time>2022-08-20T11:14:32Z</time>
      </trkpt>
      <trkpt lat="42.784872" lon="-7.541568">
        <ele>640.723</ele>
        <time>2022-08-20T11:14:36Z</time>
      </trkpt>
      <trkpt lat="42.784900" lon="-7.541622">
        <ele>640.784</ele>
        <time>2022-08-20T11:14:40Z</time>
      </trkpt>
      <trkpt lat="42.784922" lon="-7.541686">
        <ele>640.744</ele>
        <time>2022-08-20T11:14:44Z</time>
      </trkpt>
      <trkpt lat="42.784934" lon="-7.541749">
        <ele>640.747</ele>
        <time>2022-08-20T11:14:48Z</time>
      </trkpt>
      <trkpt lat="42.784948" lon="-7.541824">
        <ele>640.762</ele>
        <time>2022-08-20T11:14:52Z</time>
      </trkpt>
      <trkpt lat="42.784961" lon="-7.541890">
        <ele>640.792</ele>
        <time>2022-08-20T11:14:57Z</time>
      </trkpt>
      <trkpt lat="42.784987" lon="-7.541967">
        <ele>640.671</ele>
        <time>2022-08-20T11:15:01Z</time>
      </trkpt>
      <trkpt lat="42.785012" lon="-7.542035">
        <ele>640.453</ele>
        <time>2022-08-20T11:15:05Z</time>
      </trkpt>
      <trkpt lat="42.785030" lon="-7.542097">
        <ele>640.404</ele>
        <time>2022-08-20T11:15:09Z</time>
      </trkpt>
      <trkpt lat="42.785048" lon="-7.542165">
        <ele>640.414</ele>
        <time>2022-08-20T11:15:13Z</time>
      </trkpt>
      <trkpt lat="42.785069" lon="-7.542232">
        <ele>640.309</ele>
        <time>2022-08-20T11:15:17Z</time>
      </trkpt>
      <trkpt lat="42.785076" lon="-7.542298">
        <ele>640.316</ele>
        <time>2022-08-20T11:15:21Z</time>
      </trkpt>
      <trkpt lat="42.785052" lon="-7.542358">
        <ele>640.316</ele>
        <time>2022-08-20T11:15:26Z</time>
      </trkpt>
      <trkpt lat="42.785001" lon="-7.542380">
        <ele>640.336</ele>
        <time>2022-08-20T11:15:31Z</time>
      </trkpt>
      <trkpt lat="42.784956" lon="-7.542399">
        <ele>640.397</ele>
        <time>2022-08-20T11:15:35Z</time>
      </trkpt>
      <trkpt lat="42.784907" lon="-7.542432">
        <ele>640.287</ele>
        <time>2022-08-20T11:15:39Z</time>
      </trkpt>
      <trkpt lat="42.784856" lon="-7.542473">
        <ele>640.130</ele>
        <time>2022-08-20T11:15:43Z</time>
      </trkpt>
      <trkpt lat="42.784811" lon="-7.542514">
        <ele>639.955</ele>
        <time>2022-08-20T11:15:47Z</time>
      </trkpt>
      <trkpt lat="42.784762" lon="-7.542552">
        <ele>639.565</ele>
        <time>2022-08-20T11:15:51Z</time>
      </trkpt>
      <trkpt lat="42.784737" lon="-7.542614">
        <ele>639.264</ele>
        <time>2022-08-20T11:15:55Z</time>
      </trkpt>
      <trkpt lat="42.784737" lon="-7.542682">
        <ele>638.961</ele>
        <time>2022-08-20T11:15:59Z</time>
      </trkpt>
      <trkpt lat="42.784754" lon="-7.542749">
        <ele>638.821</ele>
        <time>2022-08-20T11:16:03Z</time>
      </trkpt>
      <trkpt lat="42.784774" lon="-7.542810">
        <ele>638.713</ele>
        <time>2022-08-20T11:16:07Z</time>
      </trkpt>
      <trkpt lat="42.784768" lon="-7.542877">
        <ele>638.709</ele>
        <time>2022-08-20T11:16:13Z</time>
      </trkpt>
      <trkpt lat="42.784777" lon="-7.542937">
        <ele>638.657</ele>
        <time>2022-08-20T11:16:18Z</time>
      </trkpt>
      <trkpt lat="42.784761" lon="-7.543015">
        <ele>638.497</ele>
        <time>2022-08-20T11:16:21Z</time>
      </trkpt>
      <trkpt lat="42.784771" lon="-7.543079">
        <ele>638.177</ele>
        <time>2022-08-20T11:16:26Z</time>
      </trkpt>
      <trkpt lat="42.784805" lon="-7.543136">
        <ele>637.878</ele>
        <time>2022-08-20T11:16:31Z</time>
      </trkpt>
      <trkpt lat="42.784833" lon="-7.543199">
        <ele>637.448</ele>
        <time>2022-08-20T11:16:36Z</time>
      </trkpt>
      <trkpt lat="42.784840" lon="-7.543279">
        <ele>637.171</ele>
        <time>2022-08-20T11:16:40Z</time>
      </trkpt>
      <trkpt lat="42.784857" lon="-7.543357">
        <ele>636.636</ele>
        <time>2022-08-20T11:16:44Z</time>
      </trkpt>
      <trkpt lat="42.784884" lon="-7.543420">
        <ele>636.156</ele>
        <time>2022-08-20T11:16:48Z</time>
      </trkpt>
      <trkpt lat="42.784909" lon="-7.543476">
        <ele>635.575</ele>
        <time>2022-08-20T11:16:52Z</time>
      </trkpt>
      <trkpt lat="42.784921" lon="-7.543548">
        <ele>634.596</ele>
        <time>2022-08-20T11:16:56Z</time>
      </trkpt>
      <trkpt lat="42.784929" lon="-7.543620">
        <ele>633.931</ele>
        <time>2022-08-20T11:17:00Z</time>
      </trkpt>
      <trkpt lat="42.784934" lon="-7.543697">
        <ele>632.824</ele>
        <time>2022-08-20T11:17:04Z</time>
      </trkpt>
      <trkpt lat="42.784939" lon="-7.543773">
        <ele>631.909</ele>
        <time>2022-08-20T11:17:08Z</time>
      </trkpt>
      <trkpt lat="42.784940" lon="-7.543848">
        <ele>630.750</ele>
        <time>2022-08-20T11:17:12Z</time>
      </trkpt>
      <trkpt lat="42.784943" lon="-7.543916">
        <ele>629.650</ele>
        <time>2022-08-20T11:17:16Z</time>
      </trkpt>
      <trkpt lat="42.784943" lon="-7.543980">
        <ele>629.220</ele>
        <time>2022-08-20T11:17:20Z</time>
      </trkpt>
      <trkpt lat="42.784938" lon="-7.544054">
        <ele>628.481</ele>
        <time>2022-08-20T11:17:25Z</time>
      </trkpt>
      <trkpt lat="42.784921" lon="-7.544115">
        <ele>627.981</ele>
        <time>2022-08-20T11:17:28Z</time>
      </trkpt>
      <trkpt lat="42.784912" lon="-7.544198">
        <ele>627.694</ele>
        <time>2022-08-20T11:17:32Z</time>
      </trkpt>
      <trkpt lat="42.784906" lon="-7.544270">
        <ele>627.559</ele>
        <time>2022-08-20T11:17:36Z</time>
      </trkpt>
      <trkpt lat="42.784904" lon="-7.544333">
        <ele>627.439</ele>
        <time>2022-08-20T11:17:39Z</time>
      </trkpt>
      <trkpt lat="42.784899" lon="-7.544410">
        <ele>627.238</ele>
        <time>2022-08-20T11:17:44Z</time>
      </trkpt>
      <trkpt lat="42.784895" lon="-7.544476">
        <ele>626.911</ele>
        <time>2022-08-20T11:17:48Z</time>
      </trkpt>
      <trkpt lat="42.784891" lon="-7.544543">
        <ele>626.721</ele>
        <time>2022-08-20T11:17:51Z</time>
      </trkpt>
      <trkpt lat="42.784880" lon="-7.544604">
        <ele>626.703</ele>
        <time>2022-08-20T11:17:55Z</time>
      </trkpt>
      <trkpt lat="42.784865" lon="-7.544669">
        <ele>626.709</ele>
        <time>2022-08-20T11:17:59Z</time>
      </trkpt>
      <trkpt lat="42.784848" lon="-7.544732">
        <ele>626.772</ele>
        <time>2022-08-20T11:18:04Z</time>
      </trkpt>
      <trkpt lat="42.784817" lon="-7.544799">
        <ele>626.792</ele>
        <time>2022-08-20T11:18:09Z</time>
      </trkpt>
      <trkpt lat="42.784773" lon="-7.544845">
        <ele>626.842</ele>
        <time>2022-08-20T11:18:14Z</time>
      </trkpt>
      <trkpt lat="42.784734" lon="-7.544898">
        <ele>627.293</ele>
        <time>2022-08-20T11:18:18Z</time>
      </trkpt>
      <trkpt lat="42.784705" lon="-7.544950">
        <ele>628.083</ele>
        <time>2022-08-20T11:18:23Z</time>
      </trkpt>
      <trkpt lat="42.784671" lon="-7.545004">
        <ele>629.176</ele>
        <time>2022-08-20T11:18:27Z</time>
      </trkpt>
      <trkpt lat="42.784637" lon="-7.545058">
        <ele>629.511</ele>
        <time>2022-08-20T11:18:31Z</time>
      </trkpt>
      <trkpt lat="42.784605" lon="-7.545119">
        <ele>630.121</ele>
        <time>2022-08-20T11:18:35Z</time>
      </trkpt>
      <trkpt lat="42.784577" lon="-7.545180">
        <ele>630.520</ele>
        <time>2022-08-20T11:18:39Z</time>
      </trkpt>
      <trkpt lat="42.784553" lon="-7.545253">
        <ele>630.834</ele>
        <time>2022-08-20T11:18:43Z</time>
      </trkpt>
      <trkpt lat="42.784527" lon="-7.545317">
        <ele>630.955</ele>
        <time>2022-08-20T11:18:47Z</time>
      </trkpt>
      <trkpt lat="42.784490" lon="-7.545376">
        <ele>631.110</ele>
        <time>2022-08-20T11:18:51Z</time>
      </trkpt>
      <trkpt lat="42.784452" lon="-7.545432">
        <ele>631.309</ele>
        <time>2022-08-20T11:18:55Z</time>
      </trkpt>
      <trkpt lat="42.784422" lon="-7.545499">
        <ele>631.674</ele>
        <time>2022-08-20T11:18:59Z</time>
      </trkpt>
      <trkpt lat="42.784409" lon="-7.545563">
        <ele>631.874</ele>
        <time>2022-08-20T11:19:03Z</time>
      </trkpt>
      <trkpt lat="42.784397" lon="-7.545631">
        <ele>632.194</ele>
        <time>2022-08-20T11:19:07Z</time>
      </trkpt>
      <trkpt lat="42.784395" lon="-7.545707">
        <ele>632.245</ele>
        <time>2022-08-20T11:19:11Z</time>
      </trkpt>
      <trkpt lat="42.784388" lon="-7.545768">
        <ele>632.335</ele>
        <time>2022-08-20T11:19:14Z</time>
      </trkpt>
      <trkpt lat="42.784385" lon="-7.545843">
        <ele>632.468</ele>
        <time>2022-08-20T11:19:18Z</time>
      </trkpt>
      <trkpt lat="42.784385" lon="-7.545923">
        <ele>632.683</ele>
        <time>2022-08-20T11:19:22Z</time>
      </trkpt>
      <trkpt lat="42.784408" lon="-7.545991">
        <ele>632.933</ele>
        <time>2022-08-20T11:19:26Z</time>
      </trkpt>
      <trkpt lat="42.784446" lon="-7.546025">
        <ele>633.232</ele>
        <time>2022-08-20T11:19:31Z</time>
      </trkpt>
      <trkpt lat="42.784488" lon="-7.546050">
        <ele>633.683</ele>
        <time>2022-08-20T11:19:35Z</time>
      </trkpt>
      <trkpt lat="42.784539" lon="-7.546082">
        <ele>634.225</ele>
        <time>2022-08-20T11:19:40Z</time>
      </trkpt>
      <trkpt lat="42.784588" lon="-7.546109">
        <ele>635.017</ele>
        <time>2022-08-20T11:19:45Z</time>
      </trkpt>
      <trkpt lat="42.784639" lon="-7.546142">
        <ele>635.909</ele>
        <time>2022-08-20T11:19:50Z</time>
      </trkpt>
      <trkpt lat="42.784682" lon="-7.546168">
        <ele>636.959</ele>
        <time>2022-08-20T11:19:54Z</time>
      </trkpt>
      <trkpt lat="42.784733" lon="-7.546196">
        <ele>637.729</ele>
        <time>2022-08-20T11:19:59Z</time>
      </trkpt>
      <trkpt lat="42.784781" lon="-7.546217">
        <ele>638.349</ele>
        <time>2022-08-20T11:20:03Z</time>
      </trkpt>
      <trkpt lat="42.784826" lon="-7.546228">
        <ele>638.990</ele>
        <time>2022-08-20T11:20:07Z</time>
      </trkpt>
      <trkpt lat="42.784872" lon="-7.546248">
        <ele>639.540</ele>
        <time>2022-08-20T11:20:11Z</time>
      </trkpt>
      <trkpt lat="42.784926" lon="-7.546263">
        <ele>640.083</ele>
        <time>2022-08-20T11:20:17Z</time>
      </trkpt>
      <trkpt lat="42.784974" lon="-7.546279">
        <ele>640.648</ele>
        <time>2022-08-20T11:20:23Z</time>
      </trkpt>
      <trkpt lat="42.785023" lon="-7.546309">
        <ele>641.438</ele>
        <time>2022-08-20T11:20:28Z</time>
      </trkpt>
      <trkpt lat="42.785052" lon="-7.546366">
        <ele>642.527</ele>
        <time>2022-08-20T11:20:34Z</time>
      </trkpt>
      <trkpt lat="42.785045" lon="-7.546440">
        <ele>643.766</ele>
        <time>2022-08-20T11:20:39Z</time>
      </trkpt>
      <trkpt lat="42.785029" lon="-7.546502">
        <ele>645.029</ele>
        <time>2022-08-20T11:20:44Z</time>
      </trkpt>
      <trkpt lat="42.785012" lon="-7.546576">
        <ele>645.921</ele>
        <time>2022-08-20T11:20:49Z</time>
      </trkpt>
      <trkpt lat="42.785001" lon="-7.546646">
        <ele>646.209</ele>
        <time>2022-08-20T11:20:52Z</time>
      </trkpt>
      <trkpt lat="42.784974" lon="-7.546698">
        <ele>646.237</ele>
        <time>2022-08-20T11:20:56Z</time>
      </trkpt>
      <trkpt lat="42.784949" lon="-7.546760">
        <ele>646.227</ele>
        <time>2022-08-20T11:21:00Z</time>
      </trkpt>
      <trkpt lat="42.784917" lon="-7.546819">
        <ele>646.237</ele>
        <time>2022-08-20T11:21:03Z</time>
      </trkpt>
      <trkpt lat="42.784891" lon="-7.546872">
        <ele>646.278</ele>
        <time>2022-08-20T11:21:06Z</time>
      </trkpt>
      <trkpt lat="42.784854" lon="-7.546924">
        <ele>646.278</ele>
        <time>2022-08-20T11:21:10Z</time>
      </trkpt>
      <trkpt lat="42.784809" lon="-7.546971">
        <ele>646.211</ele>
        <time>2022-08-20T11:21:14Z</time>
      </trkpt>
      <trkpt lat="42.784758" lon="-7.547006">
        <ele>646.276</ele>
        <time>2022-08-20T11:21:18Z</time>
      </trkpt>
      <trkpt lat="42.784725" lon="-7.547048">
        <ele>646.246</ele>
        <time>2022-08-20T11:21:21Z</time>
      </trkpt>
      <trkpt lat="42.784676" lon="-7.547087">
        <ele>646.245</ele>
        <time>2022-08-20T11:21:25Z</time>
      </trkpt>
      <trkpt lat="42.784630" lon="-7.547135">
        <ele>646.289</ele>
        <time>2022-08-20T11:21:29Z</time>
      </trkpt>
      <trkpt lat="42.784589" lon="-7.547189">
        <ele>646.206</ele>
        <time>2022-08-20T11:21:33Z</time>
      </trkpt>
      <trkpt lat="42.784561" lon="-7.547257">
        <ele>646.126</ele>
        <time>2022-08-20T11:21:37Z</time>
      </trkpt>
      <trkpt lat="42.784537" lon="-7.547317">
        <ele>646.109</ele>
        <time>2022-08-20T11:21:41Z</time>
      </trkpt>
      <trkpt lat="42.784523" lon="-7.547383">
        <ele>646.179</ele>
        <time>2022-08-20T11:21:45Z</time>
      </trkpt>
      <trkpt lat="42.784502" lon="-7.547451">
        <ele>646.129</ele>
        <time>2022-08-20T11:21:49Z</time>
      </trkpt>
      <trkpt lat="42.784486" lon="-7.547526">
        <ele>646.139</ele>
        <time>2022-08-20T11:21:53Z</time>
      </trkpt>
      <trkpt lat="42.784474" lon="-7.547600">
        <ele>646.140</ele>
        <time>2022-08-20T11:21:57Z</time>
      </trkpt>
      <trkpt lat="42.784460" lon="-7.547674">
        <ele>646.110</ele>
        <time>2022-08-20T11:22:01Z</time>
      </trkpt>
      <trkpt lat="42.784440" lon="-7.547745">
        <ele>646.043</ele>
        <time>2022-08-20T11:22:05Z</time>
      </trkpt>
      <trkpt lat="42.784419" lon="-7.547812">
        <ele>646.068</ele>
        <time>2022-08-20T11:22:09Z</time>
      </trkpt>
      <trkpt lat="42.784396" lon="-7.547879">
        <ele>645.998</ele>
        <time>2022-08-20T11:22:13Z</time>
      </trkpt>
      <trkpt lat="42.784361" lon="-7.547933">
        <ele>645.967</ele>
        <time>2022-08-20T11:22:17Z</time>
      </trkpt>
      <trkpt lat="42.784330" lon="-7.547982">
        <ele>645.968</ele>
        <time>2022-08-20T11:22:21Z</time>
      </trkpt>
      <trkpt lat="42.784291" lon="-7.548037">
        <ele>645.842</ele>
        <time>2022-08-20T11:22:25Z</time>
      </trkpt>
      <trkpt lat="42.784256" lon="-7.548096">
        <ele>645.626</ele>
        <time>2022-08-20T11:22:29Z</time>
      </trkpt>
      <trkpt lat="42.784216" lon="-7.548150">
        <ele>645.409</ele>
        <time>2022-08-20T11:22:33Z</time>
      </trkpt>
      <trkpt lat="42.784186" lon="-7.548206">
        <ele>645.227</ele>
        <time>2022-08-20T11:22:37Z</time>
      </trkpt>
      <trkpt lat="42.784156" lon="-7.548265">
        <ele>644.937</ele>
        <time>2022-08-20T11:22:41Z</time>
      </trkpt>
      <trkpt lat="42.784135" lon="-7.548327">
        <ele>644.817</ele>
        <time>2022-08-20T11:22:46Z</time>
      </trkpt>
      <trkpt lat="42.784117" lon="-7.548388">
        <ele>644.778</ele>
        <time>2022-08-20T11:22:50Z</time>
      </trkpt>
      <trkpt lat="42.784103" lon="-7.548453">
        <ele>644.698</ele>
        <time>2022-08-20T11:22:54Z</time>
      </trkpt>
      <trkpt lat="42.784087" lon="-7.548518">
        <ele>644.571</ele>
        <time>2022-08-20T11:22:58Z</time>
      </trkpt>
      <trkpt lat="42.784070" lon="-7.548585">
        <ele>644.466</ele>
        <time>2022-08-20T11:23:03Z</time>
      </trkpt>
      <trkpt lat="42.784061" lon="-7.548649">
        <ele>644.466</ele>
        <time>2022-08-20T11:23:07Z</time>
      </trkpt>
      <trkpt lat="42.784056" lon="-7.548730">
        <ele>644.445</ele>
        <time>2022-08-20T11:23:11Z</time>
      </trkpt>
      <trkpt lat="42.784045" lon="-7.548796">
        <ele>644.431</ele>
        <time>2022-08-20T11:23:15Z</time>
      </trkpt>
      <trkpt lat="42.784031" lon="-7.548858">
        <ele>644.461</ele>
        <time>2022-08-20T11:23:18Z</time>
      </trkpt>
      <trkpt lat="42.784014" lon="-7.548937">
        <ele>644.407</ele>
        <time>2022-08-20T11:23:22Z</time>
      </trkpt>
      <trkpt lat="42.784011" lon="-7.549008">
        <ele>644.409</ele>
        <time>2022-08-20T11:23:26Z</time>
      </trkpt>
      <trkpt lat="42.784002" lon="-7.549081">
        <ele>644.444</ele>
        <time>2022-08-20T11:23:30Z</time>
      </trkpt>
      <trkpt lat="42.783988" lon="-7.549141">
        <ele>644.474</ele>
        <time>2022-08-20T11:23:33Z</time>
      </trkpt>
      <trkpt lat="42.783982" lon="-7.549214">
        <ele>644.464</ele>
        <time>2022-08-20T11:23:37Z</time>
      </trkpt>
      <trkpt lat="42.783977" lon="-7.549280">
        <ele>644.485</ele>
        <time>2022-08-20T11:23:41Z</time>
      </trkpt>
      <trkpt lat="42.783977" lon="-7.549352">
        <ele>644.345</ele>
        <time>2022-08-20T11:23:46Z</time>
      </trkpt>
      <trkpt lat="42.783976" lon="-7.549429">
        <ele>644.218</ele>
        <time>2022-08-20T11:23:50Z</time>
      </trkpt>
      <trkpt lat="42.783967" lon="-7.549503">
        <ele>644.063</ele>
        <time>2022-08-20T11:23:54Z</time>
      </trkpt>
      <trkpt lat="42.783958" lon="-7.549563">
        <ele>643.873</ele>
        <time>2022-08-20T11:23:59Z</time>
      </trkpt>
      <trkpt lat="42.783969" lon="-7.549627">
        <ele>643.742</ele>
        <time>2022-08-20T11:24:03Z</time>
      </trkpt>
      <trkpt lat="42.783967" lon="-7.549698">
        <ele>643.633</ele>
        <time>2022-08-20T11:24:07Z</time>
      </trkpt>
      <trkpt lat="42.783965" lon="-7.549762">
        <ele>643.523</ele>
        <time>2022-08-20T11:24:12Z</time>
      </trkpt>
      <trkpt lat="42.783968" lon="-7.549825">
        <ele>643.415</ele>
        <time>2022-08-20T11:24:15Z</time>
      </trkpt>
      <trkpt lat="42.783968" lon="-7.549893">
        <ele>643.309</ele>
        <time>2022-08-20T11:24:19Z</time>
      </trkpt>
      <trkpt lat="42.783976" lon="-7.549954">
        <ele>643.164</ele>
        <time>2022-08-20T11:24:22Z</time>
      </trkpt>
      <trkpt lat="42.783977" lon="-7.550020">
        <ele>642.724</ele>
        <time>2022-08-20T11:24:26Z</time>
      </trkpt>
      <trkpt lat="42.783983" lon="-7.550090">
        <ele>642.214</ele>
        <time>2022-08-20T11:24:30Z</time>
      </trkpt>
      <trkpt lat="42.784015" lon="-7.550133">
        <ele>641.795</ele>
        <time>2022-08-20T11:24:33Z</time>
      </trkpt>
      <trkpt lat="42.784026" lon="-7.550194">
        <ele>641.115</ele>
        <time>2022-08-20T11:24:36Z</time>
      </trkpt>
      <trkpt lat="42.784041" lon="-7.550262">
        <ele>640.628</ele>
        <time>2022-08-20T11:24:40Z</time>
      </trkpt>
      <trkpt lat="42.784063" lon="-7.550331">
        <ele>640.243</ele>
        <time>2022-08-20T11:24:44Z</time>
      </trkpt>
      <trkpt lat="42.784084" lon="-7.550397">
        <ele>639.953</ele>
        <time>2022-08-20T11:24:48Z</time>
      </trkpt>
      <trkpt lat="42.784106" lon="-7.550458">
        <ele>639.682</ele>
        <time>2022-08-20T11:24:52Z</time>
      </trkpt>
      <trkpt lat="42.784132" lon="-7.550523">
        <ele>639.324</ele>
        <time>2022-08-20T11:24:56Z</time>
      </trkpt>
      <trkpt lat="42.784155" lon="-7.550585">
        <ele>639.104</ele>
        <time>2022-08-20T11:25:00Z</time>
      </trkpt>
      <trkpt lat="42.784179" lon="-7.550650">
        <ele>638.914</ele>
        <time>2022-08-20T11:25:04Z</time>
      </trkpt>
      <trkpt lat="42.784197" lon="-7.550718">
        <ele>638.709</ele>
        <time>2022-08-20T11:25:08Z</time>
      </trkpt>
      <trkpt lat="42.784212" lon="-7.550780">
        <ele>638.543</ele>
        <time>2022-08-20T11:25:11Z</time>
      </trkpt>
      <trkpt lat="42.784227" lon="-7.550856">
        <ele>638.323</ele>
        <time>2022-08-20T11:25:15Z</time>
      </trkpt>
      <trkpt lat="42.784240" lon="-7.550933">
        <ele>638.273</ele>
        <time>2022-08-20T11:25:19Z</time>
      </trkpt>
      <trkpt lat="42.784254" lon="-7.550996">
        <ele>638.154</ele>
        <time>2022-08-20T11:25:22Z</time>
      </trkpt>
      <trkpt lat="42.784265" lon="-7.551074">
        <ele>637.934</ele>
        <time>2022-08-20T11:25:26Z</time>
      </trkpt>
      <trkpt lat="42.784267" lon="-7.551152">
        <ele>637.927</ele>
        <time>2022-08-20T11:25:30Z</time>
      </trkpt>
      <trkpt lat="42.784268" lon="-7.551228">
        <ele>637.852</ele>
        <time>2022-08-20T11:25:34Z</time>
      </trkpt>
      <trkpt lat="42.784262" lon="-7.551303">
        <ele>637.682</ele>
        <time>2022-08-20T11:25:38Z</time>
      </trkpt>
      <trkpt lat="42.784251" lon="-7.551374">
        <ele>637.571</ele>
        <time>2022-08-20T11:25:42Z</time>
      </trkpt>
      <trkpt lat="42.784234" lon="-7.551441">
        <ele>637.339</ele>
        <time>2022-08-20T11:25:46Z</time>
      </trkpt>
      <trkpt lat="42.784222" lon="-7.551511">
        <ele>637.101</ele>
        <time>2022-08-20T11:25:50Z</time>
      </trkpt>
      <trkpt lat="42.784207" lon="-7.551578">
        <ele>637.021</ele>
        <time>2022-08-20T11:25:54Z</time>
      </trkpt>
      <trkpt lat="42.784193" lon="-7.551647">
        <ele>636.909</ele>
        <time>2022-08-20T11:25:58Z</time>
      </trkpt>
      <trkpt lat="42.784188" lon="-7.551716">
        <ele>636.714</ele>
        <time>2022-08-20T11:26:02Z</time>
      </trkpt>
      <trkpt lat="42.784185" lon="-7.551777">
        <ele>636.554</ele>
        <time>2022-08-20T11:26:06Z</time>
      </trkpt>
      <trkpt lat="42.784192" lon="-7.551848">
        <ele>636.424</ele>
        <time>2022-08-20T11:26:10Z</time>
      </trkpt>
      <trkpt lat="42.784194" lon="-7.551928">
        <ele>636.465</ele>
        <time>2022-08-20T11:26:15Z</time>
      </trkpt>
      <trkpt lat="42.784203" lon="-7.551990">
        <ele>636.485</ele>
        <time>2022-08-20T11:26:19Z</time>
      </trkpt>
      <trkpt lat="42.784212" lon="-7.552067">
        <ele>636.468</ele>
        <time>2022-08-20T11:26:24Z</time>
      </trkpt>
      <trkpt lat="42.784212" lon="-7.552141">
        <ele>636.643</ele>
        <time>2022-08-20T11:26:28Z</time>
      </trkpt>
      <trkpt lat="42.784211" lon="-7.552203">
        <ele>636.843</ele>
        <time>2022-08-20T11:26:32Z</time>
      </trkpt>
      <trkpt lat="42.784206" lon="-7.552280">
        <ele>637.162</ele>
        <time>2022-08-20T11:26:36Z</time>
      </trkpt>
      <trkpt lat="42.784199" lon="-7.552341">
        <ele>637.392</ele>
        <time>2022-08-20T11:26:40Z</time>
      </trkpt>
      <trkpt lat="42.784195" lon="-7.552402">
        <ele>637.573</ele>
        <time>2022-08-20T11:26:44Z</time>
      </trkpt>
      <trkpt lat="42.784198" lon="-7.552470">
        <ele>637.720</ele>
        <time>2022-08-20T11:26:48Z</time>
      </trkpt>
      <trkpt lat="42.784180" lon="-7.552530">
        <ele>637.909</ele>
        <time>2022-08-20T11:26:51Z</time>
      </trkpt>
      <trkpt lat="42.784159" lon="-7.552590">
        <ele>638.150</ele>
        <time>2022-08-20T11:26:56Z</time>
      </trkpt>
      <trkpt lat="42.784137" lon="-7.552649">
        <ele>638.390</ele>
        <time>2022-08-20T11:27:01Z</time>
      </trkpt>
      <trkpt lat="42.784104" lon="-7.552711">
        <ele>638.530</ele>
        <time>2022-08-20T11:27:06Z</time>
      </trkpt>
      <trkpt lat="42.784077" lon="-7.552776">
        <ele>638.791</ele>
        <time>2022-08-20T11:27:12Z</time>
      </trkpt>
      <trkpt lat="42.784061" lon="-7.552848">
        <ele>638.881</ele>
        <time>2022-08-20T11:27:17Z</time>
      </trkpt>
      <trkpt lat="42.784032" lon="-7.552917">
        <ele>639.094</ele>
        <time>2022-08-20T11:27:22Z</time>
      </trkpt>
      <trkpt lat="42.784005" lon="-7.552982">
        <ele>639.239</ele>
        <time>2022-08-20T11:27:26Z</time>
      </trkpt>
      <trkpt lat="42.783983" lon="-7.553061">
        <ele>639.229</ele>
        <time>2022-08-20T11:27:29Z</time>
      </trkpt>
      <trkpt lat="42.783969" lon="-7.553126">
        <ele>639.278</ele>
        <time>2022-08-20T11:27:32Z</time>
      </trkpt>
      <trkpt lat="42.783964" lon="-7.553187">
        <ele>639.142</ele>
        <time>2022-08-20T11:27:35Z</time>
      </trkpt>
      <trkpt lat="42.783960" lon="-7.553261">
        <ele>639.122</ele>
        <time>2022-08-20T11:27:38Z</time>
      </trkpt>
      <trkpt lat="42.783959" lon="-7.553333">
        <ele>639.114</ele>
        <time>2022-08-20T11:27:43Z</time>
      </trkpt>
      <trkpt lat="42.783954" lon="-7.553403">
        <ele>639.209</ele>
        <time>2022-08-20T11:27:46Z</time>
      </trkpt>
      <trkpt lat="42.783951" lon="-7.553480">
        <ele>639.735</ele>
        <time>2022-08-20T11:27:50Z</time>
      </trkpt>
      <trkpt lat="42.783938" lon="-7.553558">
        <ele>640.385</ele>
        <time>2022-08-20T11:27:54Z</time>
      </trkpt>
      <trkpt lat="42.783920" lon="-7.553629">
        <ele>640.795</ele>
        <time>2022-08-20T11:27:57Z</time>
      </trkpt>
      <trkpt lat="42.783924" lon="-7.553692">
        <ele>640.986</ele>
        <time>2022-08-20T11:28:00Z</time>
      </trkpt>
      <trkpt lat="42.783912" lon="-7.553769">
        <ele>641.536</ele>
        <time>2022-08-20T11:28:05Z</time>
      </trkpt>
      <trkpt lat="42.783898" lon="-7.553843">
        <ele>641.829</ele>
        <time>2022-08-20T11:28:10Z</time>
      </trkpt>
      <trkpt lat="42.783885" lon="-7.553907">
        <ele>641.924</ele>
        <time>2022-08-20T11:28:14Z</time>
      </trkpt>
      <trkpt lat="42.783863" lon="-7.553971">
        <ele>642.034</ele>
        <time>2022-08-20T11:28:19Z</time>
      </trkpt>
      <trkpt lat="42.783840" lon="-7.554047">
        <ele>642.033</ele>
        <time>2022-08-20T11:28:23Z</time>
      </trkpt>
      <trkpt lat="42.783823" lon="-7.554104">
        <ele>642.053</ele>
        <time>2022-08-20T11:28:26Z</time>
      </trkpt>
      <trkpt lat="42.783810" lon="-7.554173">
        <ele>642.004</ele>
        <time>2022-08-20T11:28:30Z</time>
      </trkpt>
      <trkpt lat="42.783780" lon="-7.554233">
        <ele>642.014</ele>
        <time>2022-08-20T11:28:35Z</time>
      </trkpt>
      <trkpt lat="42.783749" lon="-7.554287">
        <ele>642.109</ele>
        <time>2022-08-20T11:28:39Z</time>
      </trkpt>
      <trkpt lat="42.783722" lon="-7.554337">
        <ele>642.316</ele>
        <time>2022-08-20T11:28:42Z</time>
      </trkpt>
      <trkpt lat="42.783689" lon="-7.554397">
        <ele>642.686</ele>
        <time>2022-08-20T11:28:46Z</time>
      </trkpt>
      <trkpt lat="42.783659" lon="-7.554444">
        <ele>642.896</ele>
        <time>2022-08-20T11:28:50Z</time>
      </trkpt>
      <trkpt lat="42.783625" lon="-7.554486">
        <ele>643.017</ele>
        <time>2022-08-20T11:28:54Z</time>
      </trkpt>
      <trkpt lat="42.783592" lon="-7.554534">
        <ele>643.157</ele>
        <time>2022-08-20T11:28:58Z</time>
      </trkpt>
      <trkpt lat="42.783552" lon="-7.554587">
        <ele>643.250</ele>
        <time>2022-08-20T11:29:02Z</time>
      </trkpt>
      <trkpt lat="42.783516" lon="-7.554633">
        <ele>643.315</ele>
        <time>2022-08-20T11:29:06Z</time>
      </trkpt>
      <trkpt lat="42.783471" lon="-7.554677">
        <ele>643.475</ele>
        <time>2022-08-20T11:29:10Z</time>
      </trkpt>
      <trkpt lat="42.783431" lon="-7.554737">
        <ele>643.524</ele>
        <time>2022-08-20T11:29:15Z</time>
      </trkpt>
      <trkpt lat="42.783403" lon="-7.554791">
        <ele>643.773</ele>
        <time>2022-08-20T11:29:20Z</time>
      </trkpt>
      <trkpt lat="42.783361" lon="-7.554836">
        <ele>644.085</ele>
        <time>2022-08-20T11:29:24Z</time>
      </trkpt>
      <trkpt lat="42.783321" lon="-7.554890">
        <ele>644.413</ele>
        <time>2022-08-20T11:29:29Z</time>
      </trkpt>
      <trkpt lat="42.783279" lon="-7.554941">
        <ele>644.609</ele>
        <time>2022-08-20T11:29:33Z</time>
      </trkpt>
      <trkpt lat="42.783237" lon="-7.554984">
        <ele>644.968</ele>
        <time>2022-08-20T11:29:37Z</time>
      </trkpt>
      <trkpt lat="42.783199" lon="-7.555036">
        <ele>645.628</ele>
        <time>2022-08-20T11:29:41Z</time>
      </trkpt>
      <trkpt lat="42.783161" lon="-7.555074">
        <ele>645.748</ele>
        <time>2022-08-20T11:29:44Z</time>
      </trkpt>
      <trkpt lat="42.783117" lon="-7.555123">
        <ele>645.919</ele>
        <time>2022-08-20T11:29:48Z</time>
      </trkpt>
      <trkpt lat="42.783075" lon="-7.555164">
        <ele>646.129</ele>
        <time>2022-08-20T11:29:52Z</time>
      </trkpt>
      <trkpt lat="42.783031" lon="-7.555211">
        <ele>646.392</ele>
        <time>2022-08-20T11:29:56Z</time>
      </trkpt>
      <trkpt lat="42.782992" lon="-7.555277">
        <ele>646.717</ele>
        <time>2022-08-20T11:30:01Z</time>
      </trkpt>
      <trkpt lat="42.782946" lon="-7.555329">
        <ele>647.117</ele>
        <time>2022-08-20T11:30:05Z</time>
      </trkpt>
      <trkpt lat="42.782893" lon="-7.555383">
        <ele>647.116</ele>
        <time>2022-08-20T11:30:09Z</time>
      </trkpt>
      <trkpt lat="42.782861" lon="-7.555437">
        <ele>647.142</ele>
        <time>2022-08-20T11:30:13Z</time>
      </trkpt>
      <trkpt lat="42.782837" lon="-7.555499">
        <ele>646.722</ele>
        <time>2022-08-20T11:30:17Z</time>
      </trkpt>
      <trkpt lat="42.782817" lon="-7.555559">
        <ele>646.014</ele>
        <time>2022-08-20T11:30:21Z</time>
      </trkpt>
      <trkpt lat="42.782806" lon="-7.555628">
        <ele>645.809</ele>
        <time>2022-08-20T11:30:25Z</time>
      </trkpt>
      <trkpt lat="42.782816" lon="-7.555688">
        <ele>645.485</ele>
        <time>2022-08-20T11:30:28Z</time>
      </trkpt>
      <trkpt lat="42.782826" lon="-7.555764">
        <ele>645.135</ele>
        <time>2022-08-20T11:30:32Z</time>
      </trkpt>
      <trkpt lat="42.782847" lon="-7.555825">
        <ele>645.065</ele>
        <time>2022-08-20T11:30:35Z</time>
      </trkpt>
      <trkpt lat="42.782862" lon="-7.555884">
        <ele>645.066</ele>
        <time>2022-08-20T11:30:38Z</time>
      </trkpt>
      <trkpt lat="42.782888" lon="-7.555955">
        <ele>645.096</ele>
        <time>2022-08-20T11:30:42Z</time>
      </trkpt>
      <trkpt lat="42.782902" lon="-7.556030">
        <ele>645.099</ele>
        <time>2022-08-20T11:30:46Z</time>
      </trkpt>
      <trkpt lat="42.782914" lon="-7.556106">
        <ele>645.064</ele>
        <time>2022-08-20T11:30:50Z</time>
      </trkpt>
      <trkpt lat="42.782928" lon="-7.556180">
        <ele>644.944</ele>
        <time>2022-08-20T11:30:54Z</time>
      </trkpt>
      <trkpt lat="42.782939" lon="-7.556255">
        <ele>644.823</ele>
        <time>2022-08-20T11:30:58Z</time>
      </trkpt>
      <trkpt lat="42.782955" lon="-7.556327">
        <ele>644.826</ele>
        <time>2022-08-20T11:31:02Z</time>
      </trkpt>
      <trkpt lat="42.782976" lon="-7.556398">
        <ele>644.647</ele>
        <time>2022-08-20T11:31:06Z</time>
      </trkpt>
      <trkpt lat="42.783009" lon="-7.556462">
        <ele>644.411</ele>
        <time>2022-08-20T11:31:10Z</time>
      </trkpt>
      <trkpt lat="42.783046" lon="-7.556522">
        <ele>644.109</ele>
        <time>2022-08-20T11:31:14Z</time>
      </trkpt>
      <trkpt lat="42.783076" lon="-7.556569">
        <ele>643.673</ele>
        <time>2022-08-20T11:31:18Z</time>
      </trkpt>
      <trkpt lat="42.783113" lon="-7.556611">
        <ele>643.553</ele>
        <time>2022-08-20T11:31:22Z</time>
      </trkpt>
      <trkpt lat="42.783151" lon="-7.556656">
        <ele>643.323</ele>
        <time>2022-08-20T11:31:27Z</time>
      </trkpt>
      <trkpt lat="42.783195" lon="-7.556700">
        <ele>643.234</ele>
        <time>2022-08-20T11:31:31Z</time>
      </trkpt>
      <trkpt lat="42.783245" lon="-7.556738">
        <ele>643.294</ele>
        <time>2022-08-20T11:31:35Z</time>
      </trkpt>
      <trkpt lat="42.783289" lon="-7.556787">
        <ele>643.227</ele>
        <time>2022-08-20T11:31:39Z</time>
      </trkpt>
      <trkpt lat="42.783333" lon="-7.556836">
        <ele>643.152</ele>
        <time>2022-08-20T11:31:43Z</time>
      </trkpt>
      <trkpt lat="42.783381" lon="-7.556871">
        <ele>642.882</ele>
        <time>2022-08-20T11:31:47Z</time>
      </trkpt>
      <trkpt lat="42.783437" lon="-7.556892">
        <ele>642.311</ele>
        <time>2022-08-20T11:31:51Z</time>
      </trkpt>
      <trkpt lat="42.783492" lon="-7.556912">
        <ele>641.839</ele>
        <time>2022-08-20T11:31:55Z</time>
      </trkpt>
      <trkpt lat="42.783543" lon="-7.556940">
        <ele>641.701</ele>
        <time>2022-08-20T11:31:59Z</time>
      </trkpt>
      <trkpt lat="42.783599" lon="-7.556952">
        <ele>641.621</ele>
        <time>2022-08-20T11:32:03Z</time>
      </trkpt>
      <trkpt lat="42.783637" lon="-7.556989">
        <ele>641.609</ele>
        <time>2022-08-20T11:32:07Z</time>
      </trkpt>
      <trkpt lat="42.783689" lon="-7.557023">
        <ele>641.114</ele>
        <time>2022-08-20T11:32:13Z</time>
      </trkpt>
      <trkpt lat="42.783738" lon="-7.557042">
        <ele>640.884</ele>
        <time>2022-08-20T11:32:18Z</time>
      </trkpt>
      <trkpt lat="42.783783" lon="-7.557057">
        <ele>640.414</ele>
        <time>2022-08-20T11:32:22Z</time>
      </trkpt>
      <trkpt lat="42.783829" lon="-7.557092">
        <ele>640.225</ele>
        <time>2022-08-20T11:32:26Z</time>
      </trkpt>
      <trkpt lat="42.783872" lon="-7.557120">
        <ele>640.195</ele>
        <time>2022-08-20T11:32:30Z</time>
      </trkpt>
      <trkpt lat="42.783916" lon="-7.557163">
        <ele>640.168</ele>
        <time>2022-08-20T11:32:35Z</time>
      </trkpt>
      <trkpt lat="42.783962" lon="-7.557201">
        <ele>640.093</ele>
        <time>2022-08-20T11:32:39Z</time>
      </trkpt>
      <trkpt lat="42.784015" lon="-7.557229">
        <ele>639.863</ele>
        <time>2022-08-20T11:32:43Z</time>
      </trkpt>
      <trkpt lat="42.784056" lon="-7.557256">
        <ele>639.592</ele>
        <time>2022-08-20T11:32:47Z</time>
      </trkpt>
      <trkpt lat="42.784107" lon="-7.557280">
        <ele>639.271</ele>
        <time>2022-08-20T11:32:50Z</time>
      </trkpt>
      <trkpt lat="42.784148" lon="-7.557321">
        <ele>638.941</ele>
        <time>2022-08-20T11:32:53Z</time>
      </trkpt>
      <trkpt lat="42.784190" lon="-7.557357">
        <ele>638.615</ele>
        <time>2022-08-20T11:32:56Z</time>
      </trkpt>
      <trkpt lat="42.784229" lon="-7.557418">
        <ele>638.409</ele>
        <time>2022-08-20T11:33:00Z</time>
      </trkpt>
      <trkpt lat="42.784264" lon="-7.557461">
        <ele>638.178</ele>
        <time>2022-08-20T11:33:03Z</time>
      </trkpt>
      <trkpt lat="42.784304" lon="-7.557520">
        <ele>637.838</ele>
        <time>2022-08-20T11:33:07Z</time>
      </trkpt>
      <trkpt lat="42.784335" lon="-7.557569">
        <ele>637.568</ele>
        <time>2022-08-20T11:33:10Z</time>
      </trkpt>
      <trkpt lat="42.784367" lon="-7.557633">
        <ele>636.769</ele>
        <time>2022-08-20T11:33:14Z</time>
      </trkpt>
      <trkpt lat="42.784404" lon="-7.557682">
        <ele>636.649</ele>
        <time>2022-08-20T11:33:17Z</time>
      </trkpt>
      <trkpt lat="42.784432" lon="-7.557749">
        <ele>636.032</ele>
        <time>2022-08-20T11:33:21Z</time>
      </trkpt>
      <trkpt lat="42.784464" lon="-7.557810">
        <ele>635.957</ele>
        <time>2022-08-20T11:33:25Z</time>
      </trkpt>
      <trkpt lat="42.784483" lon="-7.557880">
        <ele>635.567</ele>
        <time>2022-08-20T11:33:28Z</time>
      </trkpt>
      <trkpt lat="42.784519" lon="-7.557939">
        <ele>635.326</ele>
        <time>2022-08-20T11:33:32Z</time>
      </trkpt>
      <trkpt lat="42.784542" lon="-7.558004">
        <ele>635.051</ele>
        <time>2022-08-20T11:33:36Z</time>
      </trkpt>
      <trkpt lat="42.784566" lon="-7.558074">
        <ele>634.401</ele>
        <time>2022-08-20T11:33:40Z</time>
      </trkpt>
      <trkpt lat="42.784585" lon="-7.558134">
        <ele>634.211</ele>
        <time>2022-08-20T11:33:44Z</time>
      </trkpt>
      <trkpt lat="42.784600" lon="-7.558199">
        <ele>633.909</ele>
        <time>2022-08-20T11:33:48Z</time>
      </trkpt>
      <trkpt lat="42.784621" lon="-7.558269">
        <ele>633.596</ele>
        <time>2022-08-20T11:33:52Z</time>
      </trkpt>
      <trkpt lat="42.784643" lon="-7.558323">
        <ele>633.096</ele>
        <time>2022-08-20T11:33:55Z</time>
      </trkpt>
      <trkpt lat="42.784641" lon="-7.558401">
        <ele>632.686</ele>
        <time>2022-08-20T11:34:01Z</time>
      </trkpt>
      <trkpt lat="42.784625" lon="-7.558468">
        <ele>632.267</ele>
        <time>2022-08-20T11:34:06Z</time>
      </trkpt>
      <trkpt lat="42.784609" lon="-7.558535">
        <ele>631.797</ele>
        <time>2022-08-20T11:34:10Z</time>
      </trkpt>
      <trkpt lat="42.784606" lon="-7.558604">
        <ele>631.120</ele>
        <time>2022-08-20T11:34:15Z</time>
      </trkpt>
      <trkpt lat="42.784581" lon="-7.558657">
        <ele>630.785</ele>
        <time>2022-08-20T11:34:19Z</time>
      </trkpt>
      <trkpt lat="42.784566" lon="-7.558726">
        <ele>630.475</ele>
        <time>2022-08-20T11:34:23Z</time>
      </trkpt>
      <trkpt lat="42.784557" lon="-7.558789">
        <ele>630.284</ele>
        <time>2022-08-20T11:34:26Z</time>
      </trkpt>
      <trkpt lat="42.784551" lon="-7.558858">
        <ele>630.093</ele>
        <time>2022-08-20T11:34:30Z</time>
      </trkpt>
      <trkpt lat="42.784548" lon="-7.558937">
        <ele>629.865</ele>
        <time>2022-08-20T11:34:34Z</time>
      </trkpt>
      <trkpt lat="42.784547" lon="-7.559002">
        <ele>629.421</ele>
        <time>2022-08-20T11:34:37Z</time>
      </trkpt>
      <trkpt lat="42.784547" lon="-7.559072">
        <ele>629.009</ele>
        <time>2022-08-20T11:34:41Z</time>
      </trkpt>
      <trkpt lat="42.784579" lon="-7.559128">
        <ele>628.820</ele>
        <time>2022-08-20T11:34:47Z</time>
      </trkpt>
      <trkpt lat="42.784624" lon="-7.559158">
        <ele>628.640</ele>
        <time>2022-08-20T11:34:53Z</time>
      </trkpt>
      <trkpt lat="42.784667" lon="-7.559187">
        <ele>628.230</ele>
        <time>2022-08-20T11:34:57Z</time>
      </trkpt>
      <trkpt lat="42.784714" lon="-7.559211">
        <ele>627.711</ele>
        <time>2022-08-20T11:35:01Z</time>
      </trkpt>
      <trkpt lat="42.784750" lon="-7.559259">
        <ele>627.481</ele>
        <time>2022-08-20T11:35:06Z</time>
      </trkpt>
      <trkpt lat="42.784787" lon="-7.559305">
        <ele>627.194</ele>
        <time>2022-08-20T11:35:09Z</time>
      </trkpt>
      <trkpt lat="42.784826" lon="-7.559356">
        <ele>626.739</ele>
        <time>2022-08-20T11:35:14Z</time>
      </trkpt>
      <trkpt lat="42.784859" lon="-7.559410">
        <ele>626.489</ele>
        <time>2022-08-20T11:35:17Z</time>
      </trkpt>
      <trkpt lat="42.784891" lon="-7.559456">
        <ele>626.218</ele>
        <time>2022-08-20T11:35:20Z</time>
      </trkpt>
      <trkpt lat="42.784931" lon="-7.559534">
        <ele>625.815</ele>
        <time>2022-08-20T11:35:27Z</time>
      </trkpt>
      <trkpt lat="42.784969" lon="-7.559595">
        <ele>625.665</ele>
        <time>2022-08-20T11:35:30Z</time>
      </trkpt>
      <trkpt lat="42.784998" lon="-7.559652">
        <ele>625.411</ele>
        <time>2022-08-20T11:35:34Z</time>
      </trkpt>
      <trkpt lat="42.785031" lon="-7.559709">
        <ele>625.109</ele>
        <time>2022-08-20T11:35:38Z</time>
      </trkpt>
      <trkpt lat="42.785072" lon="-7.559765">
        <ele>624.472</ele>
        <time>2022-08-20T11:35:42Z</time>
      </trkpt>
      <trkpt lat="42.785123" lon="-7.559809">
        <ele>623.892</ele>
        <time>2022-08-20T11:35:46Z</time>
      </trkpt>
      <trkpt lat="42.785160" lon="-7.559851">
        <ele>623.562</ele>
        <time>2022-08-20T11:35:51Z</time>
      </trkpt>
      <trkpt lat="42.785192" lon="-7.559894">
        <ele>623.373</ele>
        <time>2022-08-20T11:35:55Z</time>
      </trkpt>
      <trkpt lat="42.785227" lon="-7.559939">
        <ele>622.873</ele>
        <time>2022-08-20T11:36:01Z</time>
      </trkpt>
      <trkpt lat="42.785274" lon="-7.559983">
        <ele>622.196</ele>
        <time>2022-08-20T11:36:05Z</time>
      </trkpt>
      <trkpt lat="42.785314" lon="-7.560023">
        <ele>621.061</ele>
        <time>2022-08-20T11:36:09Z</time>
      </trkpt>
      <trkpt lat="42.785359" lon="-7.560072">
        <ele>619.891</ele>
        <time>2022-08-20T11:36:14Z</time>
      </trkpt>
      <trkpt lat="42.785394" lon="-7.560112">
        <ele>619.060</ele>
        <time>2022-08-20T11:36:18Z</time>
      </trkpt>
      <trkpt lat="42.785432" lon="-7.560151">
        <ele>618.261</ele>
        <time>2022-08-20T11:36:23Z</time>
      </trkpt>
      <trkpt lat="42.785472" lon="-7.560194">
        <ele>617.621</ele>
        <time>2022-08-20T11:36:27Z</time>
      </trkpt>
      <trkpt lat="42.785509" lon="-7.560240">
        <ele>617.213</ele>
        <time>2022-08-20T11:36:30Z</time>
      </trkpt>
      <trkpt lat="42.785555" lon="-7.560283">
        <ele>616.909</ele>
        <time>2022-08-20T11:36:34Z</time>
      </trkpt>
      <trkpt lat="42.785595" lon="-7.560334">
        <ele>616.797</ele>
        <time>2022-08-20T11:36:38Z</time>
      </trkpt>
      <trkpt lat="42.785626" lon="-7.560390">
        <ele>616.437</ele>
        <time>2022-08-20T11:36:42Z</time>
      </trkpt>
      <trkpt lat="42.785662" lon="-7.560455">
        <ele>615.957</ele>
        <time>2022-08-20T11:36:45Z</time>
      </trkpt>
      <trkpt lat="42.785701" lon="-7.560512">
        <ele>615.658</ele>
        <time>2022-08-20T11:36:49Z</time>
      </trkpt>
      <trkpt lat="42.785737" lon="-7.560568">
        <ele>615.428</ele>
        <time>2022-08-20T11:36:53Z</time>
      </trkpt>
      <trkpt lat="42.785781" lon="-7.560616">
        <ele>615.361</ele>
        <time>2022-08-20T11:36:57Z</time>
      </trkpt>
      <trkpt lat="42.785822" lon="-7.560651">
        <ele>615.196</ele>
        <time>2022-08-20T11:37:02Z</time>
      </trkpt>
      <trkpt lat="42.785862" lon="-7.560697">
        <ele>615.036</ele>
        <time>2022-08-20T11:37:06Z</time>
      </trkpt>
      <trkpt lat="42.785896" lon="-7.560754">
        <ele>614.825</ele>
        <time>2022-08-20T11:37:11Z</time>
      </trkpt>
      <trkpt lat="42.785925" lon="-7.560811">
        <ele>614.686</ele>
        <time>2022-08-20T11:37:16Z</time>
      </trkpt>
      <trkpt lat="42.785955" lon="-7.560870">
        <ele>614.360</ele>
        <time>2022-08-20T11:37:19Z</time>
      </trkpt>
      <trkpt lat="42.785978" lon="-7.560931">
        <ele>613.926</ele>
        <time>2022-08-20T11:37:23Z</time>
      </trkpt>
      <trkpt lat="42.786000" lon="-7.561007">
        <ele>613.609</ele>
        <time>2022-08-20T11:37:27Z</time>
      </trkpt>
      <trkpt lat="42.786012" lon="-7.561073">
        <ele>613.479</ele>
        <time>2022-08-20T11:37:30Z</time>
      </trkpt>
      <trkpt lat="42.786030" lon="-7.561145">
        <ele>613.179</ele>
        <time>2022-08-20T11:37:33Z</time>
      </trkpt>
      <trkpt lat="42.786040" lon="-7.561210">
        <ele>612.829</ele>
        <time>2022-08-20T11:37:37Z</time>
      </trkpt>
      <trkpt lat="42.786035" lon="-7.561275">
        <ele>612.520</ele>
        <time>2022-08-20T11:37:40Z</time>
      </trkpt>
      <trkpt lat="42.786041" lon="-7.561348">
        <ele>612.170</ele>
        <time>2022-08-20T11:37:44Z</time>
      </trkpt>
      <trkpt lat="42.786050" lon="-7.561416">
        <ele>611.733</ele>
        <time>2022-08-20T11:37:48Z</time>
      </trkpt>
      <trkpt lat="42.786063" lon="-7.561477">
        <ele>611.128</ele>
        <time>2022-08-20T11:37:51Z</time>
      </trkpt>
      <trkpt lat="42.786073" lon="-7.561551">
        <ele>610.428</ele>
        <time>2022-08-20T11:37:56Z</time>
      </trkpt>
      <trkpt lat="42.786083" lon="-7.561612">
        <ele>610.087</ele>
        <time>2022-08-20T11:37:59Z</time>
      </trkpt>
      <trkpt lat="42.786106" lon="-7.561683">
        <ele>609.874</ele>
        <time>2022-08-20T11:38:03Z</time>
      </trkpt>
      <trkpt lat="42.786131" lon="-7.561753">
        <ele>609.656</ele>
        <time>2022-08-20T11:38:07Z</time>
      </trkpt>
      <trkpt lat="42.786156" lon="-7.561815">
        <ele>609.321</ele>
        <time>2022-08-20T11:38:11Z</time>
      </trkpt>
      <trkpt lat="42.786181" lon="-7.561881">
        <ele>608.909</ele>
        <time>2022-08-20T11:38:15Z</time>
      </trkpt>
      <trkpt lat="42.786202" lon="-7.561947">
        <ele>608.118</ele>
        <time>2022-08-20T11:38:19Z</time>
      </trkpt>
      <trkpt lat="42.786221" lon="-7.562015">
        <ele>607.378</ele>
        <time>2022-08-20T11:38:23Z</time>
      </trkpt>
      <trkpt lat="42.786235" lon="-7.562078">
        <ele>606.838</ele>
        <time>2022-08-20T11:38:29Z</time>
      </trkpt>
      <trkpt lat="42.786255" lon="-7.562142">
        <ele>606.019</ele>
        <time>2022-08-20T11:38:33Z</time>
      </trkpt>
      <trkpt lat="42.786293" lon="-7.562196">
        <ele>605.239</ele>
        <time>2022-08-20T11:38:37Z</time>
      </trkpt>
      <trkpt lat="42.786329" lon="-7.562254">
        <ele>604.392</ele>
        <time>2022-08-20T11:38:41Z</time>
      </trkpt>
      <trkpt lat="42.786371" lon="-7.562302">
        <ele>603.137</ele>
        <time>2022-08-20T11:38:45Z</time>
      </trkpt>
      <trkpt lat="42.786407" lon="-7.562361">
        <ele>601.177</ele>
        <time>2022-08-20T11:38:49Z</time>
      </trkpt>
      <trkpt lat="42.786449" lon="-7.562411">
        <ele>600.176</ele>
        <time>2022-08-20T11:38:53Z</time>
      </trkpt>
      <trkpt lat="42.786489" lon="-7.562464">
        <ele>599.383</ele>
        <time>2022-08-20T11:38:57Z</time>
      </trkpt>
      <trkpt lat="42.786526" lon="-7.562519">
        <ele>598.525</ele>
        <time>2022-08-20T11:39:01Z</time>
      </trkpt>
      <trkpt lat="42.786567" lon="-7.562568">
        <ele>597.717</ele>
        <time>2022-08-20T11:39:05Z</time>
      </trkpt>
      <trkpt lat="42.786605" lon="-7.562621">
        <ele>597.109</ele>
        <time>2022-08-20T11:39:09Z</time>
      </trkpt>
      <trkpt lat="42.786636" lon="-7.562677">
        <ele>596.569</ele>
        <time>2022-08-20T11:39:13Z</time>
      </trkpt>
      <trkpt lat="42.786676" lon="-7.562727">
        <ele>596.059</ele>
        <time>2022-08-20T11:39:17Z</time>
      </trkpt>
      <trkpt lat="42.786724" lon="-7.562760">
        <ele>595.879</ele>
        <time>2022-08-20T11:39:21Z</time>
      </trkpt>
      <trkpt lat="42.786773" lon="-7.562777">
        <ele>595.510</ele>
        <time>2022-08-20T11:39:25Z</time>
      </trkpt>
      <trkpt lat="42.786827" lon="-7.562785">
        <ele>595.240</ele>
        <time>2022-08-20T11:39:30Z</time>
      </trkpt>
      <trkpt lat="42.786875" lon="-7.562824">
        <ele>594.913</ele>
        <time>2022-08-20T11:39:35Z</time>
      </trkpt>
      <trkpt lat="42.786901" lon="-7.562892">
        <ele>593.978</ele>
        <time>2022-08-20T11:39:39Z</time>
      </trkpt>
      <trkpt lat="42.786919" lon="-7.562960">
        <ele>592.918</ele>
        <time>2022-08-20T11:39:43Z</time>
      </trkpt>
      <trkpt lat="42.786946" lon="-7.563025">
        <ele>591.117</ele>
        <time>2022-08-20T11:39:47Z</time>
      </trkpt>
      <trkpt lat="42.786969" lon="-7.563100">
        <ele>590.759</ele>
        <time>2022-08-20T11:39:52Z</time>
      </trkpt>
      <trkpt lat="42.786968" lon="-7.563168">
        <ele>589.903</ele>
        <time>2022-08-20T11:39:56Z</time>
      </trkpt>
      <trkpt lat="42.786951" lon="-7.563241">
        <ele>588.323</ele>
        <time>2022-08-20T11:40:01Z</time>
      </trkpt>
      <trkpt lat="42.786946" lon="-7.563315">
        <ele>587.209</ele>
        <time>2022-08-20T11:40:05Z</time>
      </trkpt>
      <trkpt lat="42.786954" lon="-7.563393">
        <ele>586.416</ele>
        <time>2022-08-20T11:40:09Z</time>
      </trkpt>
      <trkpt lat="42.786970" lon="-7.563459">
        <ele>586.076</ele>
        <time>2022-08-20T11:40:13Z</time>
      </trkpt>
      <trkpt lat="42.787007" lon="-7.563514">
        <ele>585.636</ele>
        <time>2022-08-20T11:40:17Z</time>
      </trkpt>
      <trkpt lat="42.787024" lon="-7.563584">
        <ele>585.337</ele>
        <time>2022-08-20T11:40:21Z</time>
      </trkpt>
      <trkpt lat="42.787049" lon="-7.563655">
        <ele>584.557</ele>
        <time>2022-08-20T11:40:26Z</time>
      </trkpt>
      <trkpt lat="42.787073" lon="-7.563714">
        <ele>584.240</ele>
        <time>2022-08-20T11:40:30Z</time>
      </trkpt>
      <trkpt lat="42.787108" lon="-7.563772">
        <ele>583.125</ele>
        <time>2022-08-20T11:40:34Z</time>
      </trkpt>
      <trkpt lat="42.787130" lon="-7.563831">
        <ele>582.955</ele>
        <time>2022-08-20T11:40:38Z</time>
      </trkpt>
      <trkpt lat="42.787153" lon="-7.563889">
        <ele>582.764</ele>
        <time>2022-08-20T11:40:42Z</time>
      </trkpt>
      <trkpt lat="42.787184" lon="-7.563946">
        <ele>582.661</ele>
        <time>2022-08-20T11:40:46Z</time>
      </trkpt>
      <trkpt lat="42.787218" lon="-7.563995">
        <ele>582.421</ele>
        <time>2022-08-20T11:40:50Z</time>
      </trkpt>
      <trkpt lat="42.787255" lon="-7.564057">
        <ele>582.113</ele>
        <time>2022-08-20T11:40:55Z</time>
      </trkpt>
      <trkpt lat="42.787288" lon="-7.564100">
        <ele>581.809</ele>
        <time>2022-08-20T11:40:58Z</time>
      </trkpt>
      <trkpt lat="42.787316" lon="-7.564157">
        <ele>581.317</ele>
        <time>2022-08-20T11:41:02Z</time>
      </trkpt>
      <trkpt lat="42.787342" lon="-7.564228">
        <ele>580.847</ele>
        <time>2022-08-20T11:41:06Z</time>
      </trkpt>
      <trkpt lat="42.787366" lon="-7.564296">
        <ele>580.367</ele>
        <time>2022-08-20T11:41:10Z</time>
      </trkpt>
      <trkpt lat="42.787385" lon="-7.564368">
        <ele>579.658</ele>
        <time>2022-08-20T11:41:14Z</time>
      </trkpt>
      <trkpt lat="42.787410" lon="-7.564437">
        <ele>578.218</ele>
        <time>2022-08-20T11:41:18Z</time>
      </trkpt>
      <trkpt lat="42.787432" lon="-7.564509">
        <ele>577.131</ele>
        <time>2022-08-20T11:41:22Z</time>
      </trkpt>
      <trkpt lat="42.787450" lon="-7.564568">
        <ele>576.226</ele>
        <time>2022-08-20T11:41:25Z</time>
      </trkpt>
      <trkpt lat="42.787465" lon="-7.564641">
        <ele>575.426</ele>
        <time>2022-08-20T11:41:29Z</time>
      </trkpt>
      <trkpt lat="42.787486" lon="-7.564715">
        <ele>574.865</ele>
        <time>2022-08-20T11:41:33Z</time>
      </trkpt>
      <trkpt lat="42.787507" lon="-7.564788">
        <ele>573.969</ele>
        <time>2022-08-20T11:41:37Z</time>
      </trkpt>
      <trkpt lat="42.787529" lon="-7.564862">
        <ele>573.104</ele>
        <time>2022-08-20T11:41:41Z</time>
      </trkpt>
      <trkpt lat="42.787548" lon="-7.564937">
        <ele>572.524</ele>
        <time>2022-08-20T11:41:45Z</time>
      </trkpt>
      <trkpt lat="42.787569" lon="-7.565010">
        <ele>571.909</ele>
        <time>2022-08-20T11:41:49Z</time>
      </trkpt>
      <trkpt lat="42.787592" lon="-7.565080">
        <ele>571.467</ele>
        <time>2022-08-20T11:41:53Z</time>
      </trkpt>
      <trkpt lat="42.787617" lon="-7.565147">
        <ele>571.017</ele>
        <time>2022-08-20T11:41:57Z</time>
      </trkpt>
      <trkpt lat="42.787639" lon="-7.565214">
        <ele>570.657</ele>
        <time>2022-08-20T11:42:01Z</time>
      </trkpt>
      <trkpt lat="42.787669" lon="-7.565278">
        <ele>570.268</ele>
        <time>2022-08-20T11:42:05Z</time>
      </trkpt>
      <trkpt lat="42.787697" lon="-7.565340">
        <ele>569.998</ele>
        <time>2022-08-20T11:42:09Z</time>
      </trkpt>
      <trkpt lat="42.787721" lon="-7.565404">
        <ele>569.591</ele>
        <time>2022-08-20T11:42:13Z</time>
      </trkpt>
      <trkpt lat="42.787747" lon="-7.565465">
        <ele>569.496</ele>
        <time>2022-08-20T11:42:17Z</time>
      </trkpt>
      <trkpt lat="42.787780" lon="-7.565528">
        <ele>569.296</ele>
        <time>2022-08-20T11:42:21Z</time>
      </trkpt>
      <trkpt lat="42.787810" lon="-7.565586">
        <ele>569.175</ele>
        <time>2022-08-20T11:42:25Z</time>
      </trkpt>
      <trkpt lat="42.787849" lon="-7.565636">
        <ele>568.961</ele>
        <time>2022-08-20T11:42:29Z</time>
      </trkpt>
      <trkpt lat="42.787885" lon="-7.565680">
        <ele>568.821</ele>
        <time>2022-08-20T11:42:33Z</time>
      </trkpt>
      <trkpt lat="42.787918" lon="-7.565728">
        <ele>568.713</ele>
        <time>2022-08-20T11:42:37Z</time>
      </trkpt>
      <trkpt lat="42.787945" lon="-7.565786">
        <ele>568.709</ele>
        <time>2022-08-20T11:42:42Z</time>
      </trkpt>
      <trkpt lat="42.787968" lon="-7.565842">
        <ele>568.737</ele>
        <time>2022-08-20T11:42:49Z</time>
      </trkpt>
      <trkpt lat="42.787956" lon="-7.565905">
        <ele>568.667</ele>
        <time>2022-08-20T11:42:59Z</time>
      </trkpt>
      <trkpt lat="42.787960" lon="-7.565968">
        <ele>568.367</ele>
        <time>2022-08-20T11:43:02Z</time>
      </trkpt>
      <trkpt lat="42.787981" lon="-7.566031">
        <ele>567.898</ele>
        <time>2022-08-20T11:43:06Z</time>
      </trkpt>
      <trkpt lat="42.787993" lon="-7.566104">
        <ele>567.398</ele>
        <time>2022-08-20T11:43:10Z</time>
      </trkpt>
      <trkpt lat="42.788013" lon="-7.566170">
        <ele>567.021</ele>
        <time>2022-08-20T11:43:14Z</time>
      </trkpt>
      <trkpt lat="42.788021" lon="-7.566241">
        <ele>566.746</ele>
        <time>2022-08-20T11:43:18Z</time>
      </trkpt>
      <trkpt lat="42.788039" lon="-7.566300">
        <ele>566.546</ele>
        <time>2022-08-20T11:43:22Z</time>
      </trkpt>
      <trkpt lat="42.788054" lon="-7.566360">
        <ele>566.355</ele>
        <time>2022-08-20T11:43:25Z</time>
      </trkpt>
      <trkpt lat="42.788074" lon="-7.566429">
        <ele>566.157</ele>
        <time>2022-08-20T11:43:29Z</time>
      </trkpt>
      <trkpt lat="42.788098" lon="-7.566502">
        <ele>565.900</ele>
        <time>2022-08-20T11:43:33Z</time>
      </trkpt>
      <trkpt lat="42.788127" lon="-7.566568">
        <ele>565.820</ele>
        <time>2022-08-20T11:43:37Z</time>
      </trkpt>
      <trkpt lat="42.788157" lon="-7.566630">
        <ele>565.609</ele>
        <time>2022-08-20T11:43:41Z</time>
      </trkpt>
      <trkpt lat="42.788191" lon="-7.566686">
        <ele>565.346</ele>
        <time>2022-08-20T11:43:45Z</time>
      </trkpt>
      <trkpt lat="42.788229" lon="-7.566734">
        <ele>564.816</ele>
        <time>2022-08-20T11:43:49Z</time>
      </trkpt>
      <trkpt lat="42.788272" lon="-7.566785">
        <ele>564.466</ele>
        <time>2022-08-20T11:43:53Z</time>
      </trkpt>
      <trkpt lat="42.788320" lon="-7.566834">
        <ele>564.047</ele>
        <time>2022-08-20T11:43:57Z</time>
      </trkpt>
      <trkpt lat="42.788364" lon="-7.566883">
        <ele>563.777</ele>
        <time>2022-08-20T11:44:01Z</time>
      </trkpt>
      <trkpt lat="42.788407" lon="-7.566938">
        <ele>563.550</ele>
        <time>2022-08-20T11:44:05Z</time>
      </trkpt>
      <trkpt lat="42.788449" lon="-7.566988">
        <ele>563.145</ele>
        <time>2022-08-20T11:44:09Z</time>
      </trkpt>
      <trkpt lat="42.788473" lon="-7.567041">
        <ele>563.095</ele>
        <time>2022-08-20T11:44:12Z</time>
      </trkpt>
      <trkpt lat="42.788498" lon="-7.567112">
        <ele>563.064</ele>
        <time>2022-08-20T11:44:16Z</time>
      </trkpt>
      <trkpt lat="42.788503" lon="-7.567190">
        <ele>562.876</ele>
        <time>2022-08-20T11:44:20Z</time>
      </trkpt>
      <trkpt lat="42.788500" lon="-7.567265">
        <ele>562.490</ele>
        <time>2022-08-20T11:44:24Z</time>
      </trkpt>
      <trkpt lat="42.788505" lon="-7.567332">
        <ele>562.319</ele>
        <time>2022-08-20T11:44:28Z</time>
      </trkpt>
      <trkpt lat="42.788495" lon="-7.567411">
        <ele>562.009</ele>
        <time>2022-08-20T11:44:32Z</time>
      </trkpt>
      <trkpt lat="42.788486" lon="-7.567474">
        <ele>562.058</ele>
        <time>2022-08-20T11:44:36Z</time>
      </trkpt>
      <trkpt lat="42.788493" lon="-7.567541">
        <ele>561.838</ele>
        <time>2022-08-20T11:44:40Z</time>
      </trkpt>
      <trkpt lat="42.788523" lon="-7.567602">
        <ele>561.498</ele>
        <time>2022-08-20T11:44:44Z</time>
      </trkpt>
      <trkpt lat="42.788554" lon="-7.567663">
        <ele>560.979</ele>
        <time>2022-08-20T11:44:48Z</time>
      </trkpt>
      <trkpt lat="42.788581" lon="-7.567725">
        <ele>560.599</ele>
        <time>2022-08-20T11:44:52Z</time>
      </trkpt>
      <trkpt lat="42.788606" lon="-7.567791">
        <ele>559.942</ele>
        <time>2022-08-20T11:44:56Z</time>
      </trkpt>
      <trkpt lat="42.788641" lon="-7.567834">
        <ele>559.097</ele>
        <time>2022-08-20T11:45:00Z</time>
      </trkpt>
      <trkpt lat="42.788677" lon="-7.567894">
        <ele>558.117</ele>
        <time>2022-08-20T11:45:03Z</time>
      </trkpt>
      <trkpt lat="42.788690" lon="-7.567964">
        <ele>557.276</ele>
        <time>2022-08-20T11:45:07Z</time>
      </trkpt>
      <trkpt lat="42.788692" lon="-7.568038">
        <ele>556.425</ele>
        <time>2022-08-20T11:45:13Z</time>
      </trkpt>
      <trkpt lat="42.788690" lon="-7.568112">
        <ele>555.626</ele>
        <time>2022-08-20T11:45:17Z</time>
      </trkpt>
      <trkpt lat="42.788692" lon="-7.568193">
        <ele>553.608</ele>
        <time>2022-08-20T11:45:22Z</time>
      </trkpt>
      <trkpt lat="42.788689" lon="-7.568274">
        <ele>552.909</ele>
        <time>2022-08-20T11:45:25Z</time>
      </trkpt>
      <trkpt lat="42.788688" lon="-7.568353">
        <ele>552.263</ele>
        <time>2022-08-20T11:45:29Z</time>
      </trkpt>
      <trkpt lat="42.788674" lon="-7.568430">
        <ele>551.663</ele>
        <time>2022-08-20T11:45:33Z</time>
      </trkpt>
      <trkpt lat="42.788660" lon="-7.568506">
        <ele>550.843</ele>
        <time>2022-08-20T11:45:37Z</time>
      </trkpt>
      <trkpt lat="42.788656" lon="-7.568570">
        <ele>550.064</ele>
        <time>2022-08-20T11:45:40Z</time>
      </trkpt>
      <trkpt lat="42.788658" lon="-7.568633">
        <ele>549.634</ele>
        <time>2022-08-20T11:45:43Z</time>
      </trkpt>
      <trkpt lat="42.788671" lon="-7.568695">
        <ele>548.927</ele>
        <time>2022-08-20T11:45:46Z</time>
      </trkpt>
      <trkpt lat="42.788698" lon="-7.568765">
        <ele>548.422</ele>
        <time>2022-08-20T11:45:50Z</time>
      </trkpt>
      <trkpt lat="42.788724" lon="-7.568829">
        <ele>548.162</ele>
        <time>2022-08-20T11:45:54Z</time>
      </trkpt>
      <trkpt lat="42.788729" lon="-7.568904">
        <ele>547.861</ele>
        <time>2022-08-20T11:45:59Z</time>
      </trkpt>
      <trkpt lat="42.788738" lon="-7.568966">
        <ele>547.595</ele>
        <time>2022-08-20T11:46:05Z</time>
      </trkpt>
      <trkpt lat="42.788749" lon="-7.569030">
        <ele>547.249</ele>
        <time>2022-08-20T11:46:09Z</time>
      </trkpt>
      <trkpt lat="42.788754" lon="-7.569094">
        <ele>546.623</ele>
        <time>2022-08-20T11:46:12Z</time>
      </trkpt>
      <trkpt lat="42.788766" lon="-7.569156">
        <ele>545.809</ele>
        <time>2022-08-20T11:46:15Z</time>
      </trkpt>
      <trkpt lat="42.788769" lon="-7.569218">
        <ele>545.240</ele>
        <time>2022-08-20T11:46:19Z</time>
      </trkpt>
      <trkpt lat="42.788786" lon="-7.569299">
        <ele>544.850</ele>
        <time>2022-08-20T11:46:23Z</time>
      </trkpt>
      <trkpt lat="42.788802" lon="-7.569362">
        <ele>544.510</ele>
        <time>2022-08-20T11:46:26Z</time>
      </trkpt>
      <trkpt lat="42.788825" lon="-7.569429">
        <ele>544.211</ele>
        <time>2022-08-20T11:46:30Z</time>
      </trkpt>
      <trkpt lat="42.788846" lon="-7.569498">
        <ele>544.081</ele>
        <time>2022-08-20T11:46:34Z</time>
      </trkpt>
      <trkpt lat="42.788881" lon="-7.569563">
        <ele>543.664</ele>
        <time>2022-08-20T11:46:38Z</time>
      </trkpt>
      <trkpt lat="42.788913" lon="-7.569628">
        <ele>543.459</ele>
        <time>2022-08-20T11:46:42Z</time>
      </trkpt>
      <trkpt lat="42.788939" lon="-7.569684">
        <ele>543.299</ele>
        <time>2022-08-20T11:46:46Z</time>
      </trkpt>
      <trkpt lat="42.788967" lon="-7.569737">
        <ele>543.148</ele>
        <time>2022-08-20T11:46:50Z</time>
      </trkpt>
      <trkpt lat="42.789007" lon="-7.569799">
        <ele>542.965</ele>
        <time>2022-08-20T11:46:54Z</time>
      </trkpt>
      <trkpt lat="42.789038" lon="-7.569857">
        <ele>542.868</ele>
        <time>2022-08-20T11:46:58Z</time>
      </trkpt>
      <trkpt lat="42.789060" lon="-7.569911">
        <ele>542.714</ele>
        <time>2022-08-20T11:47:01Z</time>
      </trkpt>
      <trkpt lat="42.789087" lon="-7.569962">
        <ele>542.609</ele>
        <time>2022-08-20T11:47:04Z</time>
      </trkpt>
      <trkpt lat="42.789118" lon="-7.570030">
        <ele>542.587</ele>
        <time>2022-08-20T11:47:08Z</time>
      </trkpt>
      <trkpt lat="42.789143" lon="-7.570092">
        <ele>542.437</ele>
        <time>2022-08-20T11:47:12Z</time>
      </trkpt>
      <trkpt lat="42.789169" lon="-7.570165">
        <ele>542.257</ele>
        <time>2022-08-20T11:47:16Z</time>
      </trkpt>
      <trkpt lat="42.789203" lon="-7.570214">
        <ele>542.088</ele>
        <time>2022-08-20T11:47:20Z</time>
      </trkpt>
      <trkpt lat="42.789230" lon="-7.570279">
        <ele>541.878</ele>
        <time>2022-08-20T11:47:24Z</time>
      </trkpt>
      <trkpt lat="42.789264" lon="-7.570343">
        <ele>541.721</ele>
        <time>2022-08-20T11:47:28Z</time>
      </trkpt>
      <trkpt lat="42.789302" lon="-7.570395">
        <ele>541.416</ele>
        <time>2022-08-20T11:47:32Z</time>
      </trkpt>
      <trkpt lat="42.789337" lon="-7.570457">
        <ele>541.086</ele>
        <time>2022-08-20T11:47:36Z</time>
      </trkpt>
      <trkpt lat="42.789365" lon="-7.570508">
        <ele>540.495</ele>
        <time>2022-08-20T11:47:40Z</time>
      </trkpt>
      <trkpt lat="42.789403" lon="-7.570556">
        <ele>540.213</ele>
        <time>2022-08-20T11:47:44Z</time>
      </trkpt>
      <trkpt lat="42.789436" lon="-7.570618">
        <ele>539.843</ele>
        <time>2022-08-20T11:47:48Z</time>
      </trkpt>
      <trkpt lat="42.789468" lon="-7.570678">
        <ele>539.507</ele>
        <time>2022-08-20T11:47:52Z</time>
      </trkpt>
      <trkpt lat="42.789501" lon="-7.570738">
        <ele>539.409</ele>
        <time>2022-08-20T11:47:56Z</time>
      </trkpt>
      <trkpt lat="42.789544" lon="-7.570790">
        <ele>539.392</ele>
        <time>2022-08-20T11:48:00Z</time>
      </trkpt>
      <trkpt lat="42.789593" lon="-7.570825">
        <ele>539.112</ele>
        <time>2022-08-20T11:48:04Z</time>
      </trkpt>
      <trkpt lat="42.789639" lon="-7.570840">
        <ele>538.842</ele>
        <time>2022-08-20T11:48:08Z</time>
      </trkpt>
      <trkpt lat="42.789692" lon="-7.570869">
        <ele>537.573</ele>
        <time>2022-08-20T11:48:13Z</time>
      </trkpt>
      <trkpt lat="42.789735" lon="-7.570907">
        <ele>537.383</ele>
        <time>2022-08-20T11:48:17Z</time>
      </trkpt>
      <trkpt lat="42.789779" lon="-7.570956">
        <ele>536.986</ele>
        <time>2022-08-20T11:48:21Z</time>
      </trkpt>
      <trkpt lat="42.789819" lon="-7.570994">
        <ele>536.851</ele>
        <time>2022-08-20T11:48:25Z</time>
      </trkpt>
      <trkpt lat="42.789870" lon="-7.571046">
        <ele>536.761</ele>
        <time>2022-08-20T11:48:30Z</time>
      </trkpt>
      <trkpt lat="42.789911" lon="-7.571102">
        <ele>536.860</ele>
        <time>2022-08-20T11:48:34Z</time>
      </trkpt>
      <trkpt lat="42.789950" lon="-7.571160">
        <ele>537.296</ele>
        <time>2022-08-20T11:48:38Z</time>
      </trkpt>
      <trkpt lat="42.789981" lon="-7.571208">
        <ele>537.331</ele>
        <time>2022-08-20T11:48:41Z</time>
      </trkpt>
      <trkpt lat="42.790019" lon="-7.571244">
        <ele>537.424</ele>
        <time>2022-08-20T11:48:44Z</time>
      </trkpt>
      <trkpt lat="42.790059" lon="-7.571276">
        <ele>537.509</ele>
        <time>2022-08-20T11:48:47Z</time>
      </trkpt>
      <trkpt lat="42.790100" lon="-7.571306">
        <ele>537.770</ele>
        <time>2022-08-20T11:48:50Z</time>
      </trkpt>
      <trkpt lat="42.790141" lon="-7.571352">
        <ele>537.820</ele>
        <time>2022-08-20T11:48:54Z</time>
      </trkpt>
      <trkpt lat="42.790185" lon="-7.571398">
        <ele>537.870</ele>
        <time>2022-08-20T11:48:59Z</time>
      </trkpt>
      <trkpt lat="42.790221" lon="-7.571435">
        <ele>537.861</ele>
        <time>2022-08-20T11:49:02Z</time>
      </trkpt>
      <trkpt lat="42.790266" lon="-7.571479">
        <ele>537.821</ele>
        <time>2022-08-20T11:49:06Z</time>
      </trkpt>
      <trkpt lat="42.790311" lon="-7.571522">
        <ele>537.994</ele>
        <time>2022-08-20T11:49:10Z</time>
      </trkpt>
      <trkpt lat="42.790352" lon="-7.571569">
        <ele>538.099</ele>
        <time>2022-08-20T11:49:14Z</time>
      </trkpt>
      <trkpt lat="42.790393" lon="-7.571617">
        <ele>538.199</ele>
        <time>2022-08-20T11:49:18Z</time>
      </trkpt>
      <trkpt lat="42.790434" lon="-7.571669">
        <ele>538.118</ele>
        <time>2022-08-20T11:49:22Z</time>
      </trkpt>
      <trkpt lat="42.790472" lon="-7.571722">
        <ele>538.123</ele>
        <time>2022-08-20T11:49:26Z</time>
      </trkpt>
      <trkpt lat="42.790511" lon="-7.571777">
        <ele>538.183</ele>
        <time>2022-08-20T11:49:30Z</time>
      </trkpt>
      <trkpt lat="42.790551" lon="-7.571828">
        <ele>538.211</ele>
        <time>2022-08-20T11:49:34Z</time>
      </trkpt>
      <trkpt lat="42.790592" lon="-7.571877">
        <ele>538.309</ele>
        <time>2022-08-20T11:49:38Z</time>
      </trkpt>
      <trkpt lat="42.790631" lon="-7.571932">
        <ele>538.443</ele>
        <time>2022-08-20T11:49:42Z</time>
      </trkpt>
      <trkpt lat="42.790672" lon="-7.571982">
        <ele>538.423</ele>
        <time>2022-08-20T11:49:46Z</time>
      </trkpt>
      <trkpt lat="42.790715" lon="-7.572031">
        <ele>538.633</ele>
        <time>2022-08-20T11:49:50Z</time>
      </trkpt>
      <trkpt lat="42.790754" lon="-7.572084">
        <ele>538.774</ele>
        <time>2022-08-20T11:49:54Z</time>
      </trkpt>
      <trkpt lat="42.790787" lon="-7.572145">
        <ele>538.744</ele>
        <time>2022-08-20T11:49:58Z</time>
      </trkpt>
      <trkpt lat="42.790814" lon="-7.572211">
        <ele>538.797</ele>
        <time>2022-08-20T11:50:02Z</time>
      </trkpt>
      <trkpt lat="42.790850" lon="-7.572276">
        <ele>538.772</ele>
        <time>2022-08-20T11:50:07Z</time>
      </trkpt>
      <trkpt lat="42.790860" lon="-7.572348">
        <ele>538.732</ele>
        <time>2022-08-20T11:50:11Z</time>
      </trkpt>
      <trkpt lat="42.790880" lon="-7.572409">
        <ele>538.781</ele>
        <time>2022-08-20T11:50:15Z</time>
      </trkpt>
      <trkpt lat="42.790892" lon="-7.572474">
        <ele>538.776</ele>
        <time>2022-08-20T11:50:19Z</time>
      </trkpt>
      <trkpt lat="42.790913" lon="-7.572536">
        <ele>538.690</ele>
        <time>2022-08-20T11:50:23Z</time>
      </trkpt>
      <trkpt lat="42.790927" lon="-7.572608">
        <ele>538.519</ele>
        <time>2022-08-20T11:50:27Z</time>
      </trkpt>
      <trkpt lat="42.790933" lon="-7.572684">
        <ele>538.409</ele>
        <time>2022-08-20T11:50:31Z</time>
      </trkpt>
      <trkpt lat="42.790934" lon="-7.572752">
        <ele>538.458</ele>
        <time>2022-08-20T11:50:35Z</time>
      </trkpt>
      <trkpt lat="42.790941" lon="-7.572814">
        <ele>538.448</ele>
        <time>2022-08-20T11:50:38Z</time>
      </trkpt>
      <trkpt lat="42.790948" lon="-7.572885">
        <ele>538.438</ele>
        <time>2022-08-20T11:50:42Z</time>
      </trkpt>
      <trkpt lat="42.790942" lon="-7.572954">
        <ele>538.499</ele>
        <time>2022-08-20T11:50:46Z</time>
      </trkpt>
      <trkpt lat="42.790946" lon="-7.573015">
        <ele>538.589</ele>
        <time>2022-08-20T11:50:49Z</time>
      </trkpt>
      <trkpt lat="42.790950" lon="-7.573087">
        <ele>538.762</ele>
        <time>2022-08-20T11:50:53Z</time>
      </trkpt>
      <trkpt lat="42.790969" lon="-7.573158">
        <ele>538.987</ele>
        <time>2022-08-20T11:50:58Z</time>
      </trkpt>
      <trkpt lat="42.790968" lon="-7.573234">
        <ele>539.077</ele>
        <time>2022-08-20T11:51:02Z</time>
      </trkpt>
      <trkpt lat="42.790969" lon="-7.573312">
        <ele>539.356</ele>
        <time>2022-08-20T11:51:06Z</time>
      </trkpt>
      <trkpt lat="42.790966" lon="-7.573378">
        <ele>539.911</ele>
        <time>2022-08-20T11:51:09Z</time>
      </trkpt>
      <trkpt lat="42.790979" lon="-7.573451">
        <ele>540.421</ele>
        <time>2022-08-20T11:51:13Z</time>
      </trkpt>
      <trkpt lat="42.790983" lon="-7.573529">
        <ele>540.803</ele>
        <time>2022-08-20T11:51:17Z</time>
      </trkpt>
      <trkpt lat="42.790988" lon="-7.573597">
        <ele>541.409</ele>
        <time>2022-08-20T11:51:21Z</time>
      </trkpt>
      <trkpt lat="42.790994" lon="-7.573666">
        <ele>541.922</ele>
        <time>2022-08-20T11:51:25Z</time>
      </trkpt>
      <trkpt lat="42.791001" lon="-7.573736">
        <ele>542.882</ele>
        <time>2022-08-20T11:51:29Z</time>
      </trkpt>
      <trkpt lat="42.791002" lon="-7.573812">
        <ele>543.532</ele>
        <time>2022-08-20T11:51:33Z</time>
      </trkpt>
      <trkpt lat="42.790989" lon="-7.573881">
        <ele>544.193</ele>
        <time>2022-08-20T11:51:37Z</time>
      </trkpt>
      <trkpt lat="42.790977" lon="-7.573960">
        <ele>544.833</ele>
        <time>2022-08-20T11:51:41Z</time>
      </trkpt>
      <trkpt lat="42.790971" lon="-7.574036">
        <ele>545.186</ele>
        <time>2022-08-20T11:51:45Z</time>
      </trkpt>
      <trkpt lat="42.790956" lon="-7.574108">
        <ele>545.341</ele>
        <time>2022-08-20T11:51:49Z</time>
      </trkpt>
      <trkpt lat="42.790951" lon="-7.574181">
        <ele>545.461</ele>
        <time>2022-08-20T11:51:54Z</time>
      </trkpt>
      <trkpt lat="42.790945" lon="-7.574261">
        <ele>545.690</ele>
        <time>2022-08-20T11:51:59Z</time>
      </trkpt>
      <trkpt lat="42.790944" lon="-7.574326">
        <ele>546.073</ele>
        <time>2022-08-20T11:52:03Z</time>
      </trkpt>
      <trkpt lat="42.790937" lon="-7.574389">
        <ele>546.285</ele>
        <time>2022-08-20T11:52:07Z</time>
      </trkpt>
      <trkpt lat="42.790931" lon="-7.574454">
        <ele>546.613</ele>
        <time>2022-08-20T11:52:11Z</time>
      </trkpt>
      <trkpt lat="42.790929" lon="-7.574518">
        <ele>547.009</ele>
        <time>2022-08-20T11:52:15Z</time>
      </trkpt>
      <trkpt lat="42.790924" lon="-7.574586">
        <ele>547.468</ele>
        <time>2022-08-20T11:52:20Z</time>
      </trkpt>
      <trkpt lat="42.790913" lon="-7.574648">
        <ele>547.998</ele>
        <time>2022-08-20T11:52:23Z</time>
      </trkpt>
      <trkpt lat="42.790914" lon="-7.574723">
        <ele>548.558</ele>
        <time>2022-08-20T11:52:27Z</time>
      </trkpt>
      <trkpt lat="42.790923" lon="-7.574803">
        <ele>549.069</ele>
        <time>2022-08-20T11:52:31Z</time>
      </trkpt>
      <trkpt lat="42.790932" lon="-7.574875">
        <ele>549.419</ele>
        <time>2022-08-20T11:52:35Z</time>
      </trkpt>
      <trkpt lat="42.790939" lon="-7.574955">
        <ele>550.132</ele>
        <time>2022-08-20T11:52:39Z</time>
      </trkpt>
      <trkpt lat="42.790955" lon="-7.575027">
        <ele>550.647</ele>
        <time>2022-08-20T11:52:43Z</time>
      </trkpt>
      <trkpt lat="42.790966" lon="-7.575100">
        <ele>551.027</ele>
        <time>2022-08-20T11:52:47Z</time>
      </trkpt>
      <trkpt lat="42.790987" lon="-7.575163">
        <ele>551.586</ele>
        <time>2022-08-20T11:52:52Z</time>
      </trkpt>
      <trkpt lat="42.790998" lon="-7.575233">
        <ele>552.067</ele>
        <time>2022-08-20T11:52:56Z</time>
      </trkpt>
      <trkpt lat="42.791003" lon="-7.575294">
        <ele>552.281</ele>
        <time>2022-08-20T11:53:00Z</time>
      </trkpt>
      <trkpt lat="42.791017" lon="-7.575359">
        <ele>552.719</ele>
        <time>2022-08-20T11:53:04Z</time>
      </trkpt>
      <trkpt lat="42.791033" lon="-7.575433">
        <ele>553.209</ele>
        <time>2022-08-20T11:53:09Z</time>
      </trkpt>
      <trkpt lat="42.791038" lon="-7.575508">
        <ele>553.757</ele>
        <time>2022-08-20T11:53:13Z</time>
      </trkpt>
      <trkpt lat="42.791037" lon="-7.575574">
        <ele>554.387</ele>
        <time>2022-08-20T11:53:17Z</time>
      </trkpt>
      <trkpt lat="42.791040" lon="-7.575651">
        <ele>554.867</ele>
        <time>2022-08-20T11:53:21Z</time>
      </trkpt>
      <trkpt lat="42.791052" lon="-7.575728">
        <ele>555.768</ele>
        <time>2022-08-20T11:53:25Z</time>
      </trkpt>
      <trkpt lat="42.791056" lon="-7.575802">
        <ele>556.358</ele>
        <time>2022-08-20T11:53:29Z</time>
      </trkpt>
      <trkpt lat="42.791060" lon="-7.575877">
        <ele>556.811</ele>
        <time>2022-08-20T11:53:33Z</time>
      </trkpt>
      <trkpt lat="42.791065" lon="-7.575955">
        <ele>557.266</ele>
        <time>2022-08-20T11:53:37Z</time>
      </trkpt>
      <trkpt lat="42.791067" lon="-7.576031">
        <ele>557.626</ele>
        <time>2022-08-20T11:53:41Z</time>
      </trkpt>
      <trkpt lat="42.791059" lon="-7.576109">
        <ele>558.045</ele>
        <time>2022-08-20T11:53:45Z</time>
      </trkpt>
      <trkpt lat="42.791063" lon="-7.576184">
        <ele>558.465</ele>
        <time>2022-08-20T11:53:49Z</time>
      </trkpt>
      <trkpt lat="42.791060" lon="-7.576261">
        <ele>558.768</ele>
        <time>2022-08-20T11:53:53Z</time>
      </trkpt>
      <trkpt lat="42.791055" lon="-7.576333">
        <ele>558.914</ele>
        <time>2022-08-20T11:53:57Z</time>
      </trkpt>
      <trkpt lat="42.791045" lon="-7.576413">
        <ele>559.209</ele>
        <time>2022-08-20T11:54:01Z</time>
      </trkpt>
      <trkpt lat="42.791036" lon="-7.576489">
        <ele>559.497</ele>
        <time>2022-08-20T11:54:05Z</time>
      </trkpt>
      <trkpt lat="42.791032" lon="-7.576563">
        <ele>559.567</ele>
        <time>2022-08-20T11:54:09Z</time>
      </trkpt>
      <trkpt lat="42.791035" lon="-7.576628">
        <ele>559.627</ele>
        <time>2022-08-20T11:54:13Z</time>
      </trkpt>
      <trkpt lat="42.791033" lon="-7.576698">
        <ele>559.778</ele>
        <time>2022-08-20T11:54:17Z</time>
      </trkpt>
      <trkpt lat="42.791025" lon="-7.576766">
        <ele>559.778</ele>
        <time>2022-08-20T11:54:21Z</time>
      </trkpt>
      <trkpt lat="42.791021" lon="-7.576832">
        <ele>559.851</ele>
        <time>2022-08-20T11:54:25Z</time>
      </trkpt>
      <trkpt lat="42.791016" lon="-7.576903">
        <ele>559.846</ele>
        <time>2022-08-20T11:54:29Z</time>
      </trkpt>
      <trkpt lat="42.791007" lon="-7.576975">
        <ele>559.856</ele>
        <time>2022-08-20T11:54:34Z</time>
      </trkpt>
      <trkpt lat="42.790989" lon="-7.577043">
        <ele>559.885</ele>
        <time>2022-08-20T11:54:38Z</time>
      </trkpt>
      <trkpt lat="42.790976" lon="-7.577110">
        <ele>559.829</ele>
        <time>2022-08-20T11:54:42Z</time>
      </trkpt>
      <trkpt lat="42.790970" lon="-7.577171">
        <ele>559.800</ele>
        <time>2022-08-20T11:54:46Z</time>
      </trkpt>
      <trkpt lat="42.790956" lon="-7.577242">
        <ele>559.820</ele>
        <time>2022-08-20T11:54:50Z</time>
      </trkpt>
      <trkpt lat="42.790943" lon="-7.577315">
        <ele>559.809</ele>
        <time>2022-08-20T11:54:55Z</time>
      </trkpt>
      <trkpt lat="42.790933" lon="-7.577382">
        <ele>559.853</ele>
        <time>2022-08-20T11:54:59Z</time>
      </trkpt>
      <trkpt lat="42.790914" lon="-7.577460">
        <ele>559.863</ele>
        <time>2022-08-20T11:55:04Z</time>
      </trkpt>
      <trkpt lat="42.790902" lon="-7.577521">
        <ele>559.923</ele>
        <time>2022-08-20T11:55:08Z</time>
      </trkpt>
      <trkpt lat="42.790896" lon="-7.577598">
        <ele>560.044</ele>
        <time>2022-08-20T11:55:12Z</time>
      </trkpt>
      <trkpt lat="42.790889" lon="-7.577669">
        <ele>560.014</ele>
        <time>2022-08-20T11:55:15Z</time>
      </trkpt>
      <trkpt lat="42.790885" lon="-7.577744">
        <ele>560.017</ele>
        <time>2022-08-20T11:55:19Z</time>
      </trkpt>
      <trkpt lat="42.790867" lon="-7.577818">
        <ele>560.042</ele>
        <time>2022-08-20T11:55:23Z</time>
      </trkpt>
      <trkpt lat="42.790860" lon="-7.577889">
        <ele>559.972</ele>
        <time>2022-08-20T11:55:27Z</time>
      </trkpt>
      <trkpt lat="42.790849" lon="-7.577955">
        <ele>559.961</ele>
        <time>2022-08-20T11:55:31Z</time>
      </trkpt>
      <trkpt lat="42.790843" lon="-7.578027">
        <ele>559.966</ele>
        <time>2022-08-20T11:55:35Z</time>
      </trkpt>
      <trkpt lat="42.790831" lon="-7.578100">
        <ele>559.829</ele>
        <time>2022-08-20T11:55:39Z</time>
      </trkpt>
      <trkpt lat="42.790831" lon="-7.578166">
        <ele>559.821</ele>
        <time>2022-08-20T11:55:43Z</time>
      </trkpt>
      <trkpt lat="42.790821" lon="-7.578226">
        <ele>559.809</ele>
        <time>2022-08-20T11:55:46Z</time>
      </trkpt>
      <trkpt lat="42.790811" lon="-7.578301">
        <ele>559.867</ele>
        <time>2022-08-20T11:55:50Z</time>
      </trkpt>
      <trkpt lat="42.790796" lon="-7.578373">
        <ele>559.877</ele>
        <time>2022-08-20T11:55:54Z</time>
      </trkpt>
      <trkpt lat="42.790795" lon="-7.578448">
        <ele>559.817</ele>
        <time>2022-08-20T11:55:58Z</time>
      </trkpt>
      <trkpt lat="42.790786" lon="-7.578525">
        <ele>559.898</ele>
        <time>2022-08-20T11:56:02Z</time>
      </trkpt>
      <trkpt lat="42.790776" lon="-7.578602">
        <ele>559.858</ele>
        <time>2022-08-20T11:56:06Z</time>
      </trkpt>
      <trkpt lat="42.790770" lon="-7.578678">
        <ele>559.851</ele>
        <time>2022-08-20T11:56:10Z</time>
      </trkpt>
      <trkpt lat="42.790769" lon="-7.578752">
        <ele>559.926</ele>
        <time>2022-08-20T11:56:14Z</time>
      </trkpt>
      <trkpt lat="42.790769" lon="-7.578827">
        <ele>560.046</ele>
        <time>2022-08-20T11:56:18Z</time>
      </trkpt>
      <trkpt lat="42.790768" lon="-7.578903">
        <ele>560.055</ele>
        <time>2022-08-20T11:56:22Z</time>
      </trkpt>
      <trkpt lat="42.790767" lon="-7.578977">
        <ele>560.134</ele>
        <time>2022-08-20T11:56:26Z</time>
      </trkpt>
      <trkpt lat="42.790766" lon="-7.579051">
        <ele>560.155</ele>
        <time>2022-08-20T11:56:30Z</time>
      </trkpt>
      <trkpt lat="42.790775" lon="-7.579125">
        <ele>560.210</ele>
        <time>2022-08-20T11:56:34Z</time>
      </trkpt>
      <trkpt lat="42.790775" lon="-7.579202">
        <ele>560.409</ele>
        <time>2022-08-20T11:56:38Z</time>
      </trkpt>
      <trkpt lat="42.790785" lon="-7.579274">
        <ele>560.414</ele>
        <time>2022-08-20T11:56:42Z</time>
      </trkpt>
      <trkpt lat="42.790787" lon="-7.579345">
        <ele>560.424</ele>
        <time>2022-08-20T11:56:46Z</time>
      </trkpt>
      <trkpt lat="42.790794" lon="-7.579417">
        <ele>560.464</ele>
        <time>2022-08-20T11:56:50Z</time>
      </trkpt>
      <trkpt lat="42.790797" lon="-7.579487">
        <ele>560.485</ele>
        <time>2022-08-20T11:56:54Z</time>
      </trkpt>
      <trkpt lat="42.790807" lon="-7.579551">
        <ele>560.425</ele>
        <time>2022-08-20T11:56:59Z</time>
      </trkpt>
      <trkpt lat="42.790820" lon="-7.579621">
        <ele>560.498</ele>
        <time>2022-08-20T11:57:04Z</time>
      </trkpt>
      <trkpt lat="42.790834" lon="-7.579682">
        <ele>560.423</ele>
        <time>2022-08-20T11:57:08Z</time>
      </trkpt>
      <trkpt lat="42.790841" lon="-7.579754">
        <ele>560.423</ele>
        <time>2022-08-20T11:57:13Z</time>
      </trkpt>
      <trkpt lat="42.790852" lon="-7.579825">
        <ele>560.442</ele>
        <time>2022-08-20T11:57:18Z</time>
      </trkpt>
      <trkpt lat="42.790850" lon="-7.579888">
        <ele>560.416</ele>
        <time>2022-08-20T11:57:22Z</time>
      </trkpt>
      <trkpt lat="42.790853" lon="-7.579950">
        <ele>560.476</ele>
        <time>2022-08-20T11:57:26Z</time>
      </trkpt>
      <trkpt lat="42.790857" lon="-7.580024">
        <ele>560.413</ele>
        <time>2022-08-20T11:57:30Z</time>
      </trkpt>
      <trkpt lat="42.790871" lon="-7.580099">
        <ele>560.409</ele>
        <time>2022-08-20T11:57:34Z</time>
      </trkpt>
      <trkpt lat="42.790879" lon="-7.580166">
        <ele>560.342</ele>
        <time>2022-08-20T11:57:38Z</time>
      </trkpt>
      <trkpt lat="42.790883" lon="-7.580242">
        <ele>560.252</ele>
        <time>2022-08-20T11:57:42Z</time>
      </trkpt>
      <trkpt lat="42.790900" lon="-7.580319">
        <ele>560.062</ele>
        <time>2022-08-20T11:57:46Z</time>
      </trkpt>
      <trkpt lat="42.790911" lon="-7.580394">
        <ele>559.913</ele>
        <time>2022-08-20T11:57:50Z</time>
      </trkpt>
      <trkpt lat="42.790921" lon="-7.580467">
        <ele>559.853</ele>
        <time>2022-08-20T11:57:54Z</time>
      </trkpt>
      <trkpt lat="42.790927" lon="-7.580530">
        <ele>559.746</ele>
        <time>2022-08-20T11:57:58Z</time>
      </trkpt>
      <trkpt lat="42.790934" lon="-7.580596">
        <ele>559.641</ele>
        <time>2022-08-20T11:58:02Z</time>
      </trkpt>
      <trkpt lat="42.790939" lon="-7.580671">
        <ele>559.491</ele>
        <time>2022-08-20T11:58:06Z</time>
      </trkpt>
      <trkpt lat="42.790953" lon="-7.580744">
        <ele>559.240</ele>
        <time>2022-08-20T11:58:10Z</time>
      </trkpt>
      <trkpt lat="42.790961" lon="-7.580815">
        <ele>558.954</ele>
        <time>2022-08-20T11:58:14Z</time>
      </trkpt>
      <trkpt lat="42.790963" lon="-7.580890">
        <ele>558.756</ele>
        <time>2022-08-20T11:58:19Z</time>
      </trkpt>
      <trkpt lat="42.790971" lon="-7.580957">
        <ele>558.411</ele>
        <time>2022-08-20T11:58:23Z</time>
      </trkpt>
      <trkpt lat="42.790982" lon="-7.581033">
        <ele>557.809</ele>
        <time>2022-08-20T11:58:27Z</time>
      </trkpt>
      <trkpt lat="42.790992" lon="-7.581108">
        <ele>557.696</ele>
        <time>2022-08-20T11:58:31Z</time>
      </trkpt>
      <trkpt lat="42.791002" lon="-7.581174">
        <ele>557.596</ele>
        <time>2022-08-20T11:58:35Z</time>
      </trkpt>
      <trkpt lat="42.791008" lon="-7.581239">
        <ele>557.346</ele>
        <time>2022-08-20T11:58:39Z</time>
      </trkpt>
      <trkpt lat="42.791012" lon="-7.581306">
        <ele>557.077</ele>
        <time>2022-08-20T11:58:44Z</time>
      </trkpt>
      <trkpt lat="42.791025" lon="-7.581371">
        <ele>556.767</ele>
        <time>2022-08-20T11:58:48Z</time>
      </trkpt>
      <trkpt lat="42.791038" lon="-7.581444">
        <ele>556.420</ele>
        <time>2022-08-20T11:58:53Z</time>
      </trkpt>
      <trkpt lat="42.791051" lon="-7.581515">
        <ele>556.145</ele>
        <time>2022-08-20T11:58:57Z</time>
      </trkpt>
      <trkpt lat="42.791052" lon="-7.581584">
        <ele>555.915</ele>
        <time>2022-08-20T11:59:01Z</time>
      </trkpt>
      <trkpt lat="42.791067" lon="-7.581648">
        <ele>555.834</ele>
        <time>2022-08-20T11:59:05Z</time>
      </trkpt>
      <trkpt lat="42.791076" lon="-7.581725">
        <ele>555.592</ele>
        <time>2022-08-20T11:59:09Z</time>
      </trkpt>
      <trkpt lat="42.791088" lon="-7.581800">
        <ele>555.273</ele>
        <time>2022-08-20T11:59:14Z</time>
      </trkpt>
      <trkpt lat="42.791098" lon="-7.581867">
        <ele>555.020</ele>
        <time>2022-08-20T11:59:18Z</time>
      </trkpt>
      <trkpt lat="42.791106" lon="-7.581936">
        <ele>554.409</ele>
        <time>2022-08-20T11:59:22Z</time>
      </trkpt>
      <trkpt lat="42.791119" lon="-7.581996">
        <ele>553.780</ele>
        <time>2022-08-20T11:59:26Z</time>
      </trkpt>
      <trkpt lat="42.791130" lon="-7.582062">
        <ele>553.450</ele>
        <time>2022-08-20T11:59:30Z</time>
      </trkpt>
      <trkpt lat="42.791144" lon="-7.582129">
        <ele>553.370</ele>
        <time>2022-08-20T11:59:34Z</time>
      </trkpt>
      <trkpt lat="42.791162" lon="-7.582192">
        <ele>553.131</ele>
        <time>2022-08-20T11:59:37Z</time>
      </trkpt>
      <trkpt lat="42.791173" lon="-7.582260">
        <ele>552.861</ele>
        <time>2022-08-20T11:59:41Z</time>
      </trkpt>
      <trkpt lat="42.791188" lon="-7.582321">
        <ele>552.694</ele>
        <time>2022-08-20T11:59:45Z</time>
      </trkpt>
      <trkpt lat="42.791198" lon="-7.582387">
        <ele>552.359</ele>
        <time>2022-08-20T11:59:49Z</time>
      </trkpt>
      <trkpt lat="42.791207" lon="-7.582457">
        <ele>551.999</ele>
        <time>2022-08-20T11:59:53Z</time>
      </trkpt>
      <trkpt lat="42.791215" lon="-7.582523">
        <ele>551.558</ele>
        <time>2022-08-20T11:59:57Z</time>
      </trkpt>
      <trkpt lat="42.791233" lon="-7.582590">
        <ele>551.131</ele>
        <time>2022-08-20T12:00:01Z</time>
      </trkpt>
      <trkpt lat="42.791252" lon="-7.582661">
        <ele>550.661</ele>
        <time>2022-08-20T12:00:05Z</time>
      </trkpt>
      <trkpt lat="42.791272" lon="-7.582734">
        <ele>550.107</ele>
        <time>2022-08-20T12:00:09Z</time>
      </trkpt>
      <trkpt lat="42.791298" lon="-7.582798">
        <ele>549.509</ele>
        <time>2022-08-20T12:00:13Z</time>
      </trkpt>
      <trkpt lat="42.791334" lon="-7.582854">
        <ele>548.654</ele>
        <time>2022-08-20T12:00:17Z</time>
      </trkpt>
      <trkpt lat="42.791354" lon="-7.582925">
        <ele>548.154</ele>
        <time>2022-08-20T12:00:21Z</time>
      </trkpt>
      <trkpt lat="42.791367" lon="-7.582999">
        <ele>547.624</ele>
        <time>2022-08-20T12:00:25Z</time>
      </trkpt>
      <trkpt lat="42.791395" lon="-7.583060">
        <ele>547.265</ele>
        <time>2022-08-20T12:00:29Z</time>
      </trkpt>
      <trkpt lat="42.791397" lon="-7.583136">
        <ele>546.485</ele>
        <time>2022-08-20T12:00:33Z</time>
      </trkpt>
      <trkpt lat="42.791397" lon="-7.583209">
        <ele>545.678</ele>
        <time>2022-08-20T12:00:37Z</time>
      </trkpt>
      <trkpt lat="42.791434" lon="-7.583264">
        <ele>545.053</ele>
        <time>2022-08-20T12:00:41Z</time>
      </trkpt>
      <trkpt lat="42.791444" lon="-7.583327">
        <ele>544.753</ele>
        <time>2022-08-20T12:00:45Z</time>
      </trkpt>
      <trkpt lat="42.791460" lon="-7.583386">
        <ele>544.172</ele>
        <time>2022-08-20T12:00:49Z</time>
      </trkpt>
      <trkpt lat="42.791494" lon="-7.583442">
        <ele>543.433</ele>
        <time>2022-08-20T12:00:53Z</time>
      </trkpt>
      <trkpt lat="42.791545" lon="-7.583481">
        <ele>542.923</ele>
        <time>2022-08-20T12:00:57Z</time>
      </trkpt>
      <trkpt lat="42.791584" lon="-7.583513">
        <ele>542.515</ele>
        <time>2022-08-20T12:01:01Z</time>
      </trkpt>
      <trkpt lat="42.791621" lon="-7.583554">
        <ele>541.909</ele>
        <time>2022-08-20T12:01:04Z</time>
      </trkpt>
      <trkpt lat="42.791663" lon="-7.583594">
        <ele>541.344</ele>
        <time>2022-08-20T12:01:08Z</time>
      </trkpt>
      <trkpt lat="42.791711" lon="-7.583643">
        <ele>540.834</ele>
        <time>2022-08-20T12:01:12Z</time>
      </trkpt>
      <trkpt lat="42.791756" lon="-7.583676">
        <ele>540.364</ele>
        <time>2022-08-20T12:01:16Z</time>
      </trkpt>
      <trkpt lat="42.791801" lon="-7.583717">
        <ele>539.715</ele>
        <time>2022-08-20T12:01:20Z</time>
      </trkpt>
      <trkpt lat="42.791840" lon="-7.583773">
        <ele>538.885</ele>
        <time>2022-08-20T12:01:24Z</time>
      </trkpt>
      <trkpt lat="42.791876" lon="-7.583816">
        <ele>538.268</ele>
        <time>2022-08-20T12:01:28Z</time>
      </trkpt>
      <trkpt lat="42.791925" lon="-7.583850">
        <ele>537.923</ele>
        <time>2022-08-20T12:01:32Z</time>
      </trkpt>
      <trkpt lat="42.791969" lon="-7.583887">
        <ele>537.553</ele>
        <time>2022-08-20T12:01:36Z</time>
      </trkpt>
      <trkpt lat="42.792025" lon="-7.583924">
        <ele>536.972</ele>
        <time>2022-08-20T12:01:41Z</time>
      </trkpt>
      <trkpt lat="42.792077" lon="-7.583943">
        <ele>536.572</ele>
        <time>2022-08-20T12:01:45Z</time>
      </trkpt>
      <trkpt lat="42.792135" lon="-7.583937">
        <ele>536.013</ele>
        <time>2022-08-20T12:01:49Z</time>
      </trkpt>
      <trkpt lat="42.792192" lon="-7.583923">
        <ele>535.614</ele>
        <time>2022-08-20T12:01:53Z</time>
      </trkpt>
      <trkpt lat="42.792247" lon="-7.583912">
        <ele>535.409</ele>
        <time>2022-08-20T12:01:57Z</time>
      </trkpt>
      <trkpt lat="42.792299" lon="-7.583921">
        <ele>535.138</ele>
        <time>2022-08-20T12:02:01Z</time>
      </trkpt>
      <trkpt lat="42.792348" lon="-7.583956">
        <ele>534.858</ele>
        <time>2022-08-20T12:02:05Z</time>
      </trkpt>
      <trkpt lat="42.792397" lon="-7.583997">
        <ele>534.638</ele>
        <time>2022-08-20T12:02:09Z</time>
      </trkpt>
      <trkpt lat="42.792444" lon="-7.584032">
        <ele>534.269</ele>
        <time>2022-08-20T12:02:13Z</time>
      </trkpt>
      <trkpt lat="42.792487" lon="-7.584081">
        <ele>533.889</ele>
        <time>2022-08-20T12:02:17Z</time>
      </trkpt>
      <trkpt lat="42.792530" lon="-7.584130">
        <ele>533.452</ele>
        <time>2022-08-20T12:02:21Z</time>
      </trkpt>
      <trkpt lat="42.792570" lon="-7.584186">
        <ele>532.867</ele>
        <time>2022-08-20T12:02:25Z</time>
      </trkpt>
      <trkpt lat="42.792606" lon="-7.584237">
        <ele>532.227</ele>
        <time>2022-08-20T12:02:29Z</time>
      </trkpt>
      <trkpt lat="42.792650" lon="-7.584284">
        <ele>531.486</ele>
        <time>2022-08-20T12:02:33Z</time>
      </trkpt>
      <trkpt lat="42.792699" lon="-7.584315">
        <ele>530.662</ele>
        <time>2022-08-20T12:02:37Z</time>
      </trkpt>
      <trkpt lat="42.792746" lon="-7.584354">
        <ele>530.083</ele>
        <time>2022-08-20T12:02:41Z</time>
      </trkpt>
      <trkpt lat="42.792796" lon="-7.584385">
        <ele>529.411</ele>
        <time>2022-08-20T12:02:45Z</time>
      </trkpt>
      <trkpt lat="42.792846" lon="-7.584412">
        <ele>528.809</ele>
        <time>2022-08-20T12:02:49Z</time>
      </trkpt>
      <trkpt lat="42.792895" lon="-7.584440">
        <ele>528.087</ele>
        <time>2022-08-20T12:02:53Z</time>
      </trkpt>
      <trkpt lat="42.792943" lon="-7.584464">
        <ele>527.737</ele>
        <time>2022-08-20T12:02:57Z</time>
      </trkpt>
      <trkpt lat="42.792990" lon="-7.584500">
        <ele>527.157</ele>
        <time>2022-08-20T12:03:01Z</time>
      </trkpt>
      <trkpt lat="42.793037" lon="-7.584542">
        <ele>526.758</ele>
        <time>2022-08-20T12:03:05Z</time>
      </trkpt>
      <trkpt lat="42.793067" lon="-7.584609">
        <ele>526.068</ele>
        <time>2022-08-20T12:03:09Z</time>
      </trkpt>
      <trkpt lat="42.793109" lon="-7.584656">
        <ele>525.281</ele>
        <time>2022-08-20T12:03:13Z</time>
      </trkpt>
      <trkpt lat="42.793151" lon="-7.584700">
        <ele>524.356</ele>
        <time>2022-08-20T12:03:17Z</time>
      </trkpt>
      <trkpt lat="42.793186" lon="-7.584759">
        <ele>523.726</ele>
        <time>2022-08-20T12:03:21Z</time>
      </trkpt>
      <trkpt lat="42.793217" lon="-7.584820">
        <ele>523.145</ele>
        <time>2022-08-20T12:03:25Z</time>
      </trkpt>
      <trkpt lat="42.793243" lon="-7.584887">
        <ele>522.478</ele>
        <time>2022-08-20T12:03:29Z</time>
      </trkpt>
      <trkpt lat="42.793264" lon="-7.584960">
        <ele>521.533</ele>
        <time>2022-08-20T12:03:33Z</time>
      </trkpt>
      <trkpt lat="42.793276" lon="-7.585035">
        <ele>520.626</ele>
        <time>2022-08-20T12:03:37Z</time>
      </trkpt>
      <trkpt lat="42.793303" lon="-7.585104">
        <ele>519.809</ele>
        <time>2022-08-20T12:03:41Z</time>
      </trkpt>
      <trkpt lat="42.793332" lon="-7.585171">
        <ele>519.038</ele>
        <time>2022-08-20T12:03:45Z</time>
      </trkpt>
      <trkpt lat="42.793361" lon="-7.585240">
        <ele>518.418</ele>
        <time>2022-08-20T12:03:49Z</time>
      </trkpt>
      <trkpt lat="42.793384" lon="-7.585293">
        <ele>517.688</ele>
        <time>2022-08-20T12:03:52Z</time>
      </trkpt>
      <trkpt lat="42.793402" lon="-7.585350">
        <ele>517.159</ele>
        <time>2022-08-20T12:03:55Z</time>
      </trkpt>
      <trkpt lat="42.793425" lon="-7.585404">
        <ele>516.359</ele>
        <time>2022-08-20T12:03:58Z</time>
      </trkpt>
      <trkpt lat="42.793454" lon="-7.585474">
        <ele>515.682</ele>
        <time>2022-08-20T12:04:02Z</time>
      </trkpt>
      <trkpt lat="42.793481" lon="-7.585545">
        <ele>515.077</ele>
        <time>2022-08-20T12:04:06Z</time>
      </trkpt>
      <trkpt lat="42.793502" lon="-7.585620">
        <ele>514.317</ele>
        <time>2022-08-20T12:04:10Z</time>
      </trkpt>
      <trkpt lat="42.793529" lon="-7.585693">
        <ele>513.036</ele>
        <time>2022-08-20T12:04:14Z</time>
      </trkpt>
      <trkpt lat="42.793548" lon="-7.585750">
        <ele>512.144</ele>
        <time>2022-08-20T12:04:17Z</time>
      </trkpt>
      <trkpt lat="42.793573" lon="-7.585824">
        <ele>511.205</ele>
        <time>2022-08-20T12:04:21Z</time>
      </trkpt>
      <trkpt lat="42.793593" lon="-7.585901">
        <ele>510.715</ele>
        <time>2022-08-20T12:04:25Z</time>
      </trkpt>
      <trkpt lat="42.793611" lon="-7.585958">
        <ele>510.009</ele>
        <time>2022-08-20T12:04:28Z</time>
      </trkpt>
      <trkpt lat="42.793647" lon="-7.586019">
        <ele>509.725</ele>
        <time>2022-08-20T12:04:32Z</time>
      </trkpt>
      <trkpt lat="42.793668" lon="-7.586092">
        <ele>509.015</ele>
        <time>2022-08-20T12:04:36Z</time>
      </trkpt>
      <trkpt lat="42.793684" lon="-7.586166">
        <ele>508.465</ele>
        <time>2022-08-20T12:04:40Z</time>
      </trkpt>
      <trkpt lat="42.793699" lon="-7.586239">
        <ele>507.866</ele>
        <time>2022-08-20T12:04:44Z</time>
      </trkpt>
      <trkpt lat="42.793733" lon="-7.586296">
        <ele>507.236</ele>
        <time>2022-08-20T12:04:48Z</time>
      </trkpt>
      <trkpt lat="42.793760" lon="-7.586354">
        <ele>506.629</ele>
        <time>2022-08-20T12:04:52Z</time>
      </trkpt>
      <trkpt lat="42.793805" lon="-7.586404">
        <ele>506.064</ele>
        <time>2022-08-20T12:04:56Z</time>
      </trkpt>
      <trkpt lat="42.793842" lon="-7.586469">
        <ele>505.494</ele>
        <time>2022-08-20T12:05:00Z</time>
      </trkpt>
      <trkpt lat="42.793876" lon="-7.586534">
        <ele>504.533</ele>
        <time>2022-08-20T12:05:04Z</time>
      </trkpt>
      <trkpt lat="42.793909" lon="-7.586591">
        <ele>503.885</ele>
        <time>2022-08-20T12:05:08Z</time>
      </trkpt>
      <trkpt lat="42.793941" lon="-7.586652">
        <ele>503.289</ele>
        <time>2022-08-20T12:05:12Z</time>
      </trkpt>
      <trkpt lat="42.793969" lon="-7.586719">
        <ele>502.617</ele>
        <time>2022-08-20T12:05:16Z</time>
      </trkpt>
      <trkpt lat="42.793993" lon="-7.586783">
        <ele>502.009</ele>
        <time>2022-08-20T12:05:20Z</time>
      </trkpt>
      <trkpt lat="42.794012" lon="-7.586844">
        <ele>501.849</ele>
        <time>2022-08-20T12:05:23Z</time>
      </trkpt>
      <trkpt lat="42.794025" lon="-7.586908">
        <ele>501.429</ele>
        <time>2022-08-20T12:05:26Z</time>
      </trkpt>
      <trkpt lat="42.794034" lon="-7.586977">
        <ele>501.189</ele>
        <time>2022-08-20T12:05:29Z</time>
      </trkpt>
      <trkpt lat="42.794039" lon="-7.587056">
        <ele>500.730</ele>
        <time>2022-08-20T12:05:33Z</time>
      </trkpt>
      <trkpt lat="42.794045" lon="-7.587129">
        <ele>500.270</ele>
        <time>2022-08-20T12:05:37Z</time>
      </trkpt>
      <trkpt lat="42.794049" lon="-7.587193">
        <ele>499.763</ele>
        <time>2022-08-20T12:05:41Z</time>
      </trkpt>
      <trkpt lat="42.794024" lon="-7.587261">
        <ele>499.298</ele>
        <time>2022-08-20T12:05:45Z</time>
      </trkpt>
      <trkpt lat="42.794014" lon="-7.587323">
        <ele>498.818</ele>
        <time>2022-08-20T12:05:49Z</time>
      </trkpt>
      <trkpt lat="42.793982" lon="-7.587386">
        <ele>498.487</ele>
        <time>2022-08-20T12:05:53Z</time>
      </trkpt>
      <trkpt lat="42.793959" lon="-7.587452">
        <ele>497.972</ele>
        <time>2022-08-20T12:05:57Z</time>
      </trkpt>
      <trkpt lat="42.793935" lon="-7.587520">
        <ele>497.413</ele>
        <time>2022-08-20T12:06:01Z</time>
      </trkpt>
      <trkpt lat="42.793925" lon="-7.587581">
        <ele>497.014</ele>
        <time>2022-08-20T12:06:04Z</time>
      </trkpt>
      <trkpt lat="42.793927" lon="-7.587644">
        <ele>496.409</ele>
        <time>2022-08-20T12:06:07Z</time>
      </trkpt>
      <trkpt lat="42.793932" lon="-7.587722">
        <ele>495.828</ele>
        <time>2022-08-20T12:06:11Z</time>
      </trkpt>
      <trkpt lat="42.793945" lon="-7.587793">
        <ele>495.328</ele>
        <time>2022-08-20T12:06:15Z</time>
      </trkpt>
      <trkpt lat="42.793954" lon="-7.587855">
        <ele>494.858</ele>
        <time>2022-08-20T12:06:19Z</time>
      </trkpt>
      <trkpt lat="42.793960" lon="-7.587930">
        <ele>494.339</ele>
        <time>2022-08-20T12:06:23Z</time>
      </trkpt>
      <trkpt lat="42.793968" lon="-7.588003">
        <ele>493.699</ele>
        <time>2022-08-20T12:06:27Z</time>
      </trkpt>
      <trkpt lat="42.793990" lon="-7.588057">
        <ele>492.992</ele>
        <time>2022-08-20T12:06:31Z</time>
      </trkpt>
      <trkpt lat="42.794020" lon="-7.588108">
        <ele>492.137</ele>
        <time>2022-08-20T12:06:36Z</time>
      </trkpt>
      <trkpt lat="42.794058" lon="-7.588159">
        <ele>491.267</ele>
        <time>2022-08-20T12:06:40Z</time>
      </trkpt>
      <trkpt lat="42.794072" lon="-7.588233">
        <ele>490.466</ele>
        <time>2022-08-20T12:06:44Z</time>
      </trkpt>
      <trkpt lat="42.794078" lon="-7.588300">
        <ele>489.818</ele>
        <time>2022-08-20T12:06:48Z</time>
      </trkpt>
      <trkpt lat="42.794106" lon="-7.588373">
        <ele>489.398</ele>
        <time>2022-08-20T12:06:52Z</time>
      </trkpt>
      <trkpt lat="42.794120" lon="-7.588438">
        <ele>488.917</ele>
        <time>2022-08-20T12:06:55Z</time>
      </trkpt>
      <trkpt lat="42.794134" lon="-7.588513">
        <ele>488.509</ele>
        <time>2022-08-20T12:06:59Z</time>
      </trkpt>
      <trkpt lat="42.794146" lon="-7.588579">
        <ele>488.492</ele>
        <time>2022-08-20T12:07:03Z</time>
      </trkpt>
      <trkpt lat="42.794154" lon="-7.588640">
        <ele>488.362</ele>
        <time>2022-08-20T12:07:06Z</time>
      </trkpt>
      <trkpt lat="42.794164" lon="-7.588712">
        <ele>488.242</ele>
        <time>2022-08-20T12:07:10Z</time>
      </trkpt>
      <trkpt lat="42.794165" lon="-7.588776">
        <ele>488.163</ele>
        <time>2022-08-20T12:07:13Z</time>
      </trkpt>
      <trkpt lat="42.794175" lon="-7.588840">
        <ele>488.083</ele>
        <time>2022-08-20T12:07:17Z</time>
      </trkpt>
      <trkpt lat="42.794183" lon="-7.588903">
        <ele>487.986</ele>
        <time>2022-08-20T12:07:20Z</time>
      </trkpt>
      <trkpt lat="42.794196" lon="-7.588977">
        <ele>487.821</ele>
        <time>2022-08-20T12:07:24Z</time>
      </trkpt>
      <trkpt lat="42.794208" lon="-7.589054">
        <ele>487.761</ele>
        <time>2022-08-20T12:07:28Z</time>
      </trkpt>
      <trkpt lat="42.794218" lon="-7.589121">
        <ele>487.690</ele>
        <time>2022-08-20T12:07:32Z</time>
      </trkpt>
      <trkpt lat="42.794221" lon="-7.589197">
        <ele>487.524</ele>
        <time>2022-08-20T12:07:36Z</time>
      </trkpt>
      <trkpt lat="42.794233" lon="-7.589271">
        <ele>487.404</ele>
        <time>2022-08-20T12:07:40Z</time>
      </trkpt>
      <trkpt lat="42.794242" lon="-7.589343">
        <ele>487.314</ele>
        <time>2022-08-20T12:07:44Z</time>
      </trkpt>
      <trkpt lat="42.794253" lon="-7.589415">
        <ele>487.209</ele>
        <time>2022-08-20T12:07:48Z</time>
      </trkpt>
      <trkpt lat="42.794265" lon="-7.589490">
        <ele>487.063</ele>
        <time>2022-08-20T12:07:52Z</time>
      </trkpt>
      <trkpt lat="42.794278" lon="-7.589570">
        <ele>487.023</ele>
        <time>2022-08-20T12:07:56Z</time>
      </trkpt>
      <trkpt lat="42.794291" lon="-7.589648">
        <ele>487.043</ele>
        <time>2022-08-20T12:08:00Z</time>
      </trkpt>
      <trkpt lat="42.794304" lon="-7.589719">
        <ele>487.034</ele>
        <time>2022-08-20T12:08:04Z</time>
      </trkpt>
      <trkpt lat="42.794310" lon="-7.589790">
        <ele>486.814</ele>
        <time>2022-08-20T12:08:08Z</time>
      </trkpt>
      <trkpt lat="42.794325" lon="-7.589861">
        <ele>486.547</ele>
        <time>2022-08-20T12:08:12Z</time>
      </trkpt>
      <trkpt lat="42.794332" lon="-7.589922">
        <ele>486.452</ele>
        <time>2022-08-20T12:08:15Z</time>
      </trkpt>
      <trkpt lat="42.794339" lon="-7.590000">
        <ele>486.392</ele>
        <time>2022-08-20T12:08:19Z</time>
      </trkpt>
      <trkpt lat="42.794347" lon="-7.590061">
        <ele>486.231</ele>
        <time>2022-08-20T12:08:22Z</time>
      </trkpt>
      <trkpt lat="42.794357" lon="-7.590131">
        <ele>486.098</ele>
        <time>2022-08-20T12:08:26Z</time>
      </trkpt>
      <trkpt lat="42.794359" lon="-7.590192">
        <ele>485.915</ele>
        <time>2022-08-20T12:08:29Z</time>
      </trkpt>
      <trkpt lat="42.794362" lon="-7.590267">
        <ele>485.926</ele>
        <time>2022-08-20T12:08:33Z</time>
      </trkpt>
      <trkpt lat="42.794363" lon="-7.590341">
        <ele>485.809</ele>
        <time>2022-08-20T12:08:37Z</time>
      </trkpt>
      <trkpt lat="42.794358" lon="-7.590420">
        <ele>485.630</ele>
        <time>2022-08-20T12:08:41Z</time>
      </trkpt>
      <trkpt lat="42.794362" lon="-7.590491">
        <ele>485.460</ele>
        <time>2022-08-20T12:08:45Z</time>
      </trkpt>
      <trkpt lat="42.794367" lon="-7.590570">
        <ele>485.140</ele>
        <time>2022-08-20T12:08:49Z</time>
      </trkpt>
      <trkpt lat="42.794359" lon="-7.590646">
        <ele>484.941</ele>
        <time>2022-08-20T12:08:53Z</time>
      </trkpt>
      <trkpt lat="42.794356" lon="-7.590718">
        <ele>484.881</ele>
        <time>2022-08-20T12:08:57Z</time>
      </trkpt>
      <trkpt lat="42.794341" lon="-7.590793">
        <ele>484.864</ele>
        <time>2022-08-20T12:09:01Z</time>
      </trkpt>
      <trkpt lat="42.794333" lon="-7.590866">
        <ele>484.769</ele>
        <time>2022-08-20T12:09:05Z</time>
      </trkpt>
      <trkpt lat="42.794326" lon="-7.590938">
        <ele>484.639</ele>
        <time>2022-08-20T12:09:09Z</time>
      </trkpt>
      <trkpt lat="42.794318" lon="-7.590999">
        <ele>484.488</ele>
        <time>2022-08-20T12:09:12Z</time>
      </trkpt>
      <trkpt lat="42.794312" lon="-7.591078">
        <ele>484.273</ele>
        <time>2022-08-20T12:09:16Z</time>
      </trkpt>
      <trkpt lat="42.794310" lon="-7.591154">
        <ele>484.185</ele>
        <time>2022-08-20T12:09:20Z</time>
      </trkpt>
      <trkpt lat="42.794302" lon="-7.591232">
        <ele>484.013</ele>
        <time>2022-08-20T12:09:24Z</time>
      </trkpt>
      <trkpt lat="42.794311" lon="-7.591304">
        <ele>483.909</ele>
        <time>2022-08-20T12:09:28Z</time>
      </trkpt>
      <trkpt lat="42.794321" lon="-7.591371">
        <ele>483.868</ele>
        <time>2022-08-20T12:09:32Z</time>
      </trkpt>
      <trkpt lat="42.794335" lon="-7.591435">
        <ele>483.758</ele>
        <time>2022-08-20T12:09:36Z</time>
      </trkpt>
      <trkpt lat="42.794359" lon="-7.591499">
        <ele>483.598</ele>
        <time>2022-08-20T12:09:40Z</time>
      </trkpt>
      <trkpt lat="42.794380" lon="-7.591560">
        <ele>483.319</ele>
        <time>2022-08-20T12:09:44Z</time>
      </trkpt>
      <trkpt lat="42.794398" lon="-7.591622">
        <ele>483.029</ele>
        <time>2022-08-20T12:09:48Z</time>
      </trkpt>
      <trkpt lat="42.794414" lon="-7.591679">
        <ele>482.572</ele>
        <time>2022-08-20T12:09:52Z</time>
      </trkpt>
      <trkpt lat="42.794432" lon="-7.591749">
        <ele>482.017</ele>
        <time>2022-08-20T12:09:56Z</time>
      </trkpt>
      <trkpt lat="42.794449" lon="-7.591819">
        <ele>481.697</ele>
        <time>2022-08-20T12:10:00Z</time>
      </trkpt>
      <trkpt lat="42.794454" lon="-7.591893">
        <ele>481.366</ele>
        <time>2022-08-20T12:10:04Z</time>
      </trkpt>
      <trkpt lat="42.794470" lon="-7.591965">
        <ele>481.169</ele>
        <time>2022-08-20T12:10:08Z</time>
      </trkpt>
      <trkpt lat="42.794482" lon="-7.592034">
        <ele>480.904</ele>
        <time>2022-08-20T12:10:12Z</time>
      </trkpt>
      <trkpt lat="42.794498" lon="-7.592101">
        <ele>480.824</ele>
        <time>2022-08-20T12:10:16Z</time>
      </trkpt>
      <trkpt lat="42.794519" lon="-7.592168">
        <ele>480.609</ele>
        <time>2022-08-20T12:10:20Z</time>
      </trkpt>
      <trkpt lat="42.794541" lon="-7.592236">
        <ele>480.457</ele>
        <time>2022-08-20T12:10:24Z</time>
      </trkpt>
      <trkpt lat="42.794560" lon="-7.592304">
        <ele>480.237</ele>
        <time>2022-08-20T12:10:28Z</time>
      </trkpt>
      <trkpt lat="42.794585" lon="-7.592374">
        <ele>479.867</ele>
        <time>2022-08-20T12:10:32Z</time>
      </trkpt>
      <trkpt lat="42.794608" lon="-7.592438">
        <ele>479.448</ele>
        <time>2022-08-20T12:10:36Z</time>
      </trkpt>
      <trkpt lat="42.794635" lon="-7.592502">
        <ele>479.028</ele>
        <time>2022-08-20T12:10:40Z</time>
      </trkpt>
      <trkpt lat="42.794659" lon="-7.592568">
        <ele>478.521</ele>
        <time>2022-08-20T12:10:44Z</time>
      </trkpt>
      <trkpt lat="42.794676" lon="-7.592635">
        <ele>478.116</ele>
        <time>2022-08-20T12:10:48Z</time>
      </trkpt>
      <trkpt lat="42.794695" lon="-7.592702">
        <ele>478.026</ele>
        <time>2022-08-20T12:10:52Z</time>
      </trkpt>
      <trkpt lat="42.794708" lon="-7.592767">
        <ele>477.885</ele>
        <time>2022-08-20T12:10:56Z</time>
      </trkpt>
      <trkpt lat="42.794726" lon="-7.592825">
        <ele>477.626</ele>
        <time>2022-08-20T12:11:00Z</time>
      </trkpt>
      <trkpt lat="42.794738" lon="-7.592896">
        <ele>477.447</ele>
        <time>2022-08-20T12:11:04Z</time>
      </trkpt>
      <trkpt lat="42.794759" lon="-7.592967">
        <ele>477.311</ele>
        <time>2022-08-20T12:11:08Z</time>
      </trkpt>
      <trkpt lat="42.794773" lon="-7.593035">
        <ele>477.109</ele>
        <time>2022-08-20T12:11:12Z</time>
      </trkpt>
      <trkpt lat="42.794791" lon="-7.593099">
        <ele>476.983</ele>
        <time>2022-08-20T12:11:16Z</time>
      </trkpt>
      <trkpt lat="42.794806" lon="-7.593171">
        <ele>476.633</ele>
        <time>2022-08-20T12:11:20Z</time>
      </trkpt>
      <trkpt lat="42.794816" lon="-7.593247">
        <ele>476.323</ele>
        <time>2022-08-20T12:11:24Z</time>
      </trkpt>
      <trkpt lat="42.794828" lon="-7.593322">
        <ele>476.344</ele>
        <time>2022-08-20T12:11:28Z</time>
      </trkpt>
      <trkpt lat="42.794843" lon="-7.593396">
        <ele>476.354</ele>
        <time>2022-08-20T12:11:32Z</time>
      </trkpt>
      <trkpt lat="42.794853" lon="-7.593474">
        <ele>476.237</ele>
        <time>2022-08-20T12:11:36Z</time>
      </trkpt>
      <trkpt lat="42.794874" lon="-7.593540">
        <ele>476.032</ele>
        <time>2022-08-20T12:11:40Z</time>
      </trkpt>
      <trkpt lat="42.794887" lon="-7.593614">
        <ele>475.942</ele>
        <time>2022-08-20T12:11:44Z</time>
      </trkpt>
      <trkpt lat="42.794898" lon="-7.593690">
        <ele>475.761</ele>
        <time>2022-08-20T12:11:48Z</time>
      </trkpt>
      <trkpt lat="42.794902" lon="-7.593754">
        <ele>475.528</ele>
        <time>2022-08-20T12:11:52Z</time>
      </trkpt>
      <trkpt lat="42.794900" lon="-7.593817">
        <ele>475.489</ele>
        <time>2022-08-20T12:11:55Z</time>
      </trkpt>
      <trkpt lat="42.794900" lon="-7.593890">
        <ele>475.317</ele>
        <time>2022-08-20T12:11:59Z</time>
      </trkpt>
      <trkpt lat="42.794905" lon="-7.593963">
        <ele>475.209</ele>
        <time>2022-08-20T12:12:03Z</time>
      </trkpt>
      <trkpt lat="42.794904" lon="-7.594038">
        <ele>475.033</ele>
        <time>2022-08-20T12:12:08Z</time>
      </trkpt>
      <trkpt lat="42.794906" lon="-7.594108">
        <ele>474.933</ele>
        <time>2022-08-20T12:12:12Z</time>
      </trkpt>
      <trkpt lat="42.794907" lon="-7.594177">
        <ele>474.763</ele>
        <time>2022-08-20T12:12:16Z</time>
      </trkpt>
      <trkpt lat="42.794915" lon="-7.594244">
        <ele>474.444</ele>
        <time>2022-08-20T12:12:20Z</time>
      </trkpt>
      <trkpt lat="42.794925" lon="-7.594315">
        <ele>474.034</ele>
        <time>2022-08-20T12:12:24Z</time>
      </trkpt>
      <trkpt lat="42.794941" lon="-7.594377">
        <ele>473.597</ele>
        <time>2022-08-20T12:12:28Z</time>
      </trkpt>
      <trkpt lat="42.794956" lon="-7.594436">
        <ele>473.022</ele>
        <time>2022-08-20T12:12:32Z</time>
      </trkpt>
      <trkpt lat="42.794976" lon="-7.594496">
        <ele>472.652</ele>
        <time>2022-08-20T12:12:36Z</time>
      </trkpt>
      <trkpt lat="42.794991" lon="-7.594554">
        <ele>472.381</ele>
        <time>2022-08-20T12:12:42Z</time>
      </trkpt>
      <trkpt lat="42.795005" lon="-7.594614">
        <ele>471.923</ele>
        <time>2022-08-20T12:12:45Z</time>
      </trkpt>
      <trkpt lat="42.795013" lon="-7.594682">
        <ele>471.283</ele>
        <time>2022-08-20T12:12:49Z</time>
      </trkpt>
      <trkpt lat="42.795034" lon="-7.594743">
        <ele>470.311</ele>
        <time>2022-08-20T12:12:53Z</time>
      </trkpt>
      <trkpt lat="42.795041" lon="-7.594812">
        <ele>469.509</ele>
        <time>2022-08-20T12:12:58Z</time>
      </trkpt>
      <trkpt lat="42.795055" lon="-7.594875">
        <ele>468.783</ele>
        <time>2022-08-20T12:13:02Z</time>
      </trkpt>
      <trkpt lat="42.795075" lon="-7.594931">
        <ele>467.983</ele>
        <time>2022-08-20T12:13:06Z</time>
      </trkpt>
      <trkpt lat="42.795086" lon="-7.595005">
        <ele>466.933</ele>
        <time>2022-08-20T12:13:10Z</time>
      </trkpt>
      <trkpt lat="42.795104" lon="-7.595075">
        <ele>465.954</ele>
        <time>2022-08-20T12:13:13Z</time>
      </trkpt>
      <trkpt lat="42.795125" lon="-7.595144">
        <ele>465.334</ele>
        <time>2022-08-20T12:13:16Z</time>
      </trkpt>
      <trkpt lat="42.795138" lon="-7.595208">
        <ele>465.067</ele>
        <time>2022-08-20T12:13:19Z</time>
      </trkpt>
      <trkpt lat="42.795148" lon="-7.595270">
        <ele>464.722</ele>
        <time>2022-08-20T12:13:22Z</time>
      </trkpt>
      <trkpt lat="42.795167" lon="-7.595339">
        <ele>464.192</ele>
        <time>2022-08-20T12:13:26Z</time>
      </trkpt>
      <trkpt lat="42.795180" lon="-7.595402">
        <ele>463.531</ele>
        <time>2022-08-20T12:13:29Z</time>
      </trkpt>
      <trkpt lat="42.795193" lon="-7.595464">
        <ele>462.981</ele>
        <time>2022-08-20T12:13:32Z</time>
      </trkpt>
      <trkpt lat="42.795196" lon="-7.595547">
        <ele>462.361</ele>
        <time>2022-08-20T12:13:36Z</time>
      </trkpt>
      <trkpt lat="42.795202" lon="-7.595615">
        <ele>461.517</ele>
        <time>2022-08-20T12:13:39Z</time>
      </trkpt>
      <trkpt lat="42.795217" lon="-7.595675">
        <ele>460.509</ele>
        <time>2022-08-20T12:13:42Z</time>
      </trkpt>
      <trkpt lat="42.795219" lon="-7.595740">
        <ele>459.759</ele>
        <time>2022-08-20T12:13:45Z</time>
      </trkpt>
      <trkpt lat="42.795228" lon="-7.595802">
        <ele>459.159</ele>
        <time>2022-08-20T12:13:48Z</time>
      </trkpt>
      <trkpt lat="42.795241" lon="-7.595881">
        <ele>458.559</ele>
        <time>2022-08-20T12:13:52Z</time>
      </trkpt>
      <trkpt lat="42.795251" lon="-7.595959">
        <ele>457.920</ele>
        <time>2022-08-20T12:13:56Z</time>
      </trkpt>
      <trkpt lat="42.795253" lon="-7.596037">
        <ele>457.230</ele>
        <time>2022-08-20T12:14:00Z</time>
      </trkpt>
      <trkpt lat="42.795256" lon="-7.596115">
        <ele>456.213</ele>
        <time>2022-08-20T12:14:04Z</time>
      </trkpt>
      <trkpt lat="42.795271" lon="-7.596185">
        <ele>455.558</ele>
        <time>2022-08-20T12:14:08Z</time>
      </trkpt>
      <trkpt lat="42.795285" lon="-7.596256">
        <ele>454.848</ele>
        <time>2022-08-20T12:14:12Z</time>
      </trkpt>
      <trkpt lat="42.795289" lon="-7.596319">
        <ele>454.697</ele>
        <time>2022-08-20T12:14:16Z</time>
      </trkpt>
      <trkpt lat="42.795286" lon="-7.596394">
        <ele>454.219</ele>
        <time>2022-08-20T12:14:20Z</time>
      </trkpt>
      <trkpt lat="42.795295" lon="-7.596454">
        <ele>453.809</ele>
        <time>2022-08-20T12:14:24Z</time>
      </trkpt>
      <trkpt lat="42.795290" lon="-7.596523">
        <ele>453.419</ele>
        <time>2022-08-20T12:14:28Z</time>
      </trkpt>
      <trkpt lat="42.795272" lon="-7.596594">
        <ele>453.009</ele>
        <time>2022-08-20T12:14:31Z</time>
      </trkpt>
      <trkpt lat="42.795258" lon="-7.596661">
        <ele>452.622</ele>
        <time>2022-08-20T12:14:34Z</time>
      </trkpt>
      <trkpt lat="42.795252" lon="-7.596741">
        <ele>452.282</ele>
        <time>2022-08-20T12:14:38Z</time>
      </trkpt>
      <trkpt lat="42.795243" lon="-7.596808">
        <ele>451.782</ele>
        <time>2022-08-20T12:14:41Z</time>
      </trkpt>
      <trkpt lat="42.795232" lon="-7.596885">
        <ele>450.733</ele>
        <time>2022-08-20T12:14:45Z</time>
      </trkpt>
      <trkpt lat="42.795228" lon="-7.596961">
        <ele>450.313</ele>
        <time>2022-08-20T12:14:49Z</time>
      </trkpt>
      <trkpt lat="42.795225" lon="-7.597034">
        <ele>450.046</ele>
        <time>2022-08-20T12:14:53Z</time>
      </trkpt>
      <trkpt lat="42.795239" lon="-7.597101">
        <ele>449.981</ele>
        <time>2022-08-20T12:14:58Z</time>
      </trkpt>
      <trkpt lat="42.795258" lon="-7.597175">
        <ele>449.531</ele>
        <time>2022-08-20T12:15:02Z</time>
      </trkpt>
      <trkpt lat="42.795274" lon="-7.597233">
        <ele>449.440</ele>
        <time>2022-08-20T12:15:05Z</time>
      </trkpt>
      <trkpt lat="42.795299" lon="-7.597305">
        <ele>449.159</ele>
        <time>2022-08-20T12:15:09Z</time>
      </trkpt>
      <trkpt lat="42.795310" lon="-7.597365">
        <ele>448.803</ele>
        <time>2022-08-20T12:15:12Z</time>
      </trkpt>
      <trkpt lat="42.795327" lon="-7.597423">
        <ele>448.323</ele>
        <time>2022-08-20T12:15:15Z</time>
      </trkpt>
      <trkpt lat="42.795346" lon="-7.597499">
        <ele>447.709</ele>
        <time>2022-08-20T12:15:19Z</time>
      </trkpt>
      <trkpt lat="42.795370" lon="-7.597571">
        <ele>447.326</ele>
        <time>2022-08-20T12:15:23Z</time>
      </trkpt>
      <trkpt lat="42.795390" lon="-7.597639">
        <ele>446.996</ele>
        <time>2022-08-20T12:15:27Z</time>
      </trkpt>
      <trkpt lat="42.795402" lon="-7.597704">
        <ele>446.596</ele>
        <time>2022-08-20T12:15:31Z</time>
      </trkpt>
      <trkpt lat="42.795410" lon="-7.597774">
        <ele>445.797</ele>
        <time>2022-08-20T12:15:35Z</time>
      </trkpt>
      <trkpt lat="42.795424" lon="-7.597848">
        <ele>445.427</ele>
        <time>2022-08-20T12:15:39Z</time>
      </trkpt>
      <trkpt lat="42.795439" lon="-7.597915">
        <ele>444.930</ele>
        <time>2022-08-20T12:15:43Z</time>
      </trkpt>
      <trkpt lat="42.795456" lon="-7.597985">
        <ele>444.415</ele>
        <time>2022-08-20T12:15:47Z</time>
      </trkpt>
      <trkpt lat="42.795471" lon="-7.598058">
        <ele>443.435</ele>
        <time>2022-08-20T12:15:51Z</time>
      </trkpt>
      <trkpt lat="42.795481" lon="-7.598127">
        <ele>443.144</ele>
        <time>2022-08-20T12:15:55Z</time>
      </trkpt>
      <trkpt lat="42.795498" lon="-7.598198">
        <ele>442.694</ele>
        <time>2022-08-20T12:15:59Z</time>
      </trkpt>
      <trkpt lat="42.795517" lon="-7.598270">
        <ele>441.857</ele>
        <time>2022-08-20T12:16:03Z</time>
      </trkpt>
      <trkpt lat="42.795531" lon="-7.598337">
        <ele>441.222</ele>
        <time>2022-08-20T12:16:07Z</time>
      </trkpt>
      <trkpt lat="42.795539" lon="-7.598413">
        <ele>440.709</ele>
        <time>2022-08-20T12:16:11Z</time>
      </trkpt>
      <trkpt lat="42.795545" lon="-7.598485">
        <ele>440.170</ele>
        <time>2022-08-20T12:16:15Z</time>
      </trkpt>
      <trkpt lat="42.795541" lon="-7.598564">
        <ele>439.480</ele>
        <time>2022-08-20T12:16:19Z</time>
      </trkpt>
      <trkpt lat="42.795544" lon="-7.598634">
        <ele>438.880</ele>
        <time>2022-08-20T12:16:23Z</time>
      </trkpt>
      <trkpt lat="42.795546" lon="-7.598699">
        <ele>438.571</ele>
        <time>2022-08-20T12:16:27Z</time>
      </trkpt>
      <trkpt lat="42.795548" lon="-7.598769">
        <ele>438.161</ele>
        <time>2022-08-20T12:16:31Z</time>
      </trkpt>
      <trkpt lat="42.795542" lon="-7.598833">
        <ele>437.874</ele>
        <time>2022-08-20T12:16:34Z</time>
      </trkpt>
      <trkpt lat="42.795539" lon="-7.598902">
        <ele>437.699</ele>
        <time>2022-08-20T12:16:38Z</time>
      </trkpt>
      <trkpt lat="42.795526" lon="-7.598961">
        <ele>437.569</ele>
        <time>2022-08-20T12:16:41Z</time>
      </trkpt>
      <trkpt lat="42.795513" lon="-7.599034">
        <ele>437.358</ele>
        <time>2022-08-20T12:16:45Z</time>
      </trkpt>
      <trkpt lat="42.795505" lon="-7.599112">
        <ele>437.135</ele>
        <time>2022-08-20T12:16:49Z</time>
      </trkpt>
      <trkpt lat="42.795498" lon="-7.599173">
        <ele>436.986</ele>
        <time>2022-08-20T12:16:52Z</time>
      </trkpt>
      <trkpt lat="42.795496" lon="-7.599234">
        <ele>436.814</ele>
        <time>2022-08-20T12:16:55Z</time>
      </trkpt>
      <trkpt lat="42.795503" lon="-7.599310">
        <ele>436.709</ele>
        <time>2022-08-20T12:16:59Z</time>
      </trkpt>
      <trkpt lat="42.795503" lon="-7.599383">
        <ele>436.694</ele>
        <time>2022-08-20T12:17:03Z</time>
      </trkpt>
      <trkpt lat="42.795509" lon="-7.599458">
        <ele>436.584</ele>
        <time>2022-08-20T12:17:07Z</time>
      </trkpt>
      <trkpt lat="42.795510" lon="-7.599533">
        <ele>436.414</ele>
        <time>2022-08-20T12:17:11Z</time>
      </trkpt>
      <trkpt lat="42.795517" lon="-7.599608">
        <ele>436.235</ele>
        <time>2022-08-20T12:17:15Z</time>
      </trkpt>
      <trkpt lat="42.795520" lon="-7.599681">
        <ele>436.285</ele>
        <time>2022-08-20T12:17:19Z</time>
      </trkpt>
      <trkpt lat="42.795524" lon="-7.599754">
        <ele>436.068</ele>
        <time>2022-08-20T12:17:23Z</time>
      </trkpt>
      <trkpt lat="42.795531" lon="-7.599826">
        <ele>435.953</ele>
        <time>2022-08-20T12:17:27Z</time>
      </trkpt>
      <trkpt lat="42.795531" lon="-7.599900">
        <ele>435.813</ele>
        <time>2022-08-20T12:17:31Z</time>
      </trkpt>
      <trkpt lat="42.795535" lon="-7.599974">
        <ele>435.712</ele>
        <time>2022-08-20T12:17:35Z</time>
      </trkpt>
      <trkpt lat="42.795547" lon="-7.600044">
        <ele>435.715</ele>
        <time>2022-08-20T12:17:39Z</time>
      </trkpt>
      <trkpt lat="42.795552" lon="-7.600119">
        <ele>435.765</ele>
        <time>2022-08-20T12:17:43Z</time>
      </trkpt>
      <trkpt lat="42.795559" lon="-7.600194">
        <ele>435.711</ele>
        <time>2022-08-20T12:17:47Z</time>
      </trkpt>
      <trkpt lat="42.795564" lon="-7.600266">
        <ele>435.809</ele>
        <time>2022-08-20T12:17:51Z</time>
      </trkpt>
      <trkpt lat="42.795575" lon="-7.600334">
        <ele>435.852</ele>
        <time>2022-08-20T12:17:55Z</time>
      </trkpt>
      <trkpt lat="42.795591" lon="-7.600411">
        <ele>435.812</ele>
        <time>2022-08-20T12:17:59Z</time>
      </trkpt>
      <trkpt lat="42.795602" lon="-7.600477">
        <ele>435.832</ele>
        <time>2022-08-20T12:18:03Z</time>
      </trkpt>
      <trkpt lat="42.795614" lon="-7.600548">
        <ele>435.833</ele>
        <time>2022-08-20T12:18:07Z</time>
      </trkpt>
      <trkpt lat="42.795619" lon="-7.600622">
        <ele>435.823</ele>
        <time>2022-08-20T12:18:11Z</time>
      </trkpt>
      <trkpt lat="42.795621" lon="-7.600698">
        <ele>435.836</ele>
        <time>2022-08-20T12:18:15Z</time>
      </trkpt>
      <trkpt lat="42.795609" lon="-7.600777">
        <ele>435.781</ele>
        <time>2022-08-20T12:18:19Z</time>
      </trkpt>
      <trkpt lat="42.795592" lon="-7.600847">
        <ele>435.651</ele>
        <time>2022-08-20T12:18:23Z</time>
      </trkpt>
      <trkpt lat="42.795571" lon="-7.600916">
        <ele>435.590</ele>
        <time>2022-08-20T12:18:27Z</time>
      </trkpt>
      <trkpt lat="42.795554" lon="-7.600985">
        <ele>435.472</ele>
        <time>2022-08-20T12:18:31Z</time>
      </trkpt>
      <trkpt lat="42.795537" lon="-7.601055">
        <ele>435.313</ele>
        <time>2022-08-20T12:18:35Z</time>
      </trkpt>
      <trkpt lat="42.795537" lon="-7.601123">
        <ele>435.214</ele>
        <time>2022-08-20T12:18:39Z</time>
      </trkpt>
      <trkpt lat="42.795524" lon="-7.601182">
        <ele>435.109</ele>
        <time>2022-08-20T12:18:43Z</time>
      </trkpt>
      <trkpt lat="42.795523" lon="-7.601249">
        <ele>435.128</ele>
        <time>2022-08-20T12:18:47Z</time>
      </trkpt>
      <trkpt lat="42.795516" lon="-7.601316">
        <ele>435.138</ele>
        <time>2022-08-20T12:18:51Z</time>
      </trkpt>
      <trkpt lat="42.795512" lon="-7.601389">
        <ele>435.178</ele>
        <time>2022-08-20T12:18:55Z</time>
      </trkpt>
      <trkpt lat="42.795510" lon="-7.601454">
        <ele>435.289</ele>
        <time>2022-08-20T12:18:59Z</time>
      </trkpt>
      <trkpt lat="42.795499" lon="-7.601527">
        <ele>435.299</ele>
        <time>2022-08-20T12:19:03Z</time>
      </trkpt>
      <trkpt lat="42.795493" lon="-7.601594">
        <ele>435.262</ele>
        <time>2022-08-20T12:19:07Z</time>
      </trkpt>
      <trkpt lat="42.795480" lon="-7.601670">
        <ele>435.237</ele>
        <time>2022-08-20T12:19:11Z</time>
      </trkpt>
      <trkpt lat="42.795459" lon="-7.601724">
        <ele>435.277</ele>
        <time>2022-08-20T12:19:14Z</time>
      </trkpt>
      <trkpt lat="42.795455" lon="-7.601794">
        <ele>435.226</ele>
        <time>2022-08-20T12:19:18Z</time>
      </trkpt>
      <trkpt lat="42.795466" lon="-7.601860">
        <ele>435.118</ele>
        <time>2022-08-20T12:19:22Z</time>
      </trkpt>
      <trkpt lat="42.795466" lon="-7.601931">
        <ele>435.198</ele>
        <time>2022-08-20T12:19:26Z</time>
      </trkpt>
      <trkpt lat="42.795478" lon="-7.602002">
        <ele>435.017</ele>
        <time>2022-08-20T12:19:30Z</time>
      </trkpt>
      <trkpt lat="42.795491" lon="-7.602070">
        <ele>434.809</ele>
        <time>2022-08-20T12:19:34Z</time>
      </trkpt>
      <trkpt lat="42.795519" lon="-7.602119">
        <ele>434.642</ele>
        <time>2022-08-20T12:19:38Z</time>
      </trkpt>
      <trkpt lat="42.795558" lon="-7.602165">
        <ele>434.512</ele>
        <time>2022-08-20T12:19:42Z</time>
      </trkpt>
      <trkpt lat="42.795594" lon="-7.602208">
        <ele>434.452</ele>
        <time>2022-08-20T12:19:46Z</time>
      </trkpt>
      <trkpt lat="42.795636" lon="-7.602253">
        <ele>434.223</ele>
        <time>2022-08-20T12:19:51Z</time>
      </trkpt>
      <trkpt lat="42.795657" lon="-7.602321">
        <ele>434.013</ele>
        <time>2022-08-20T12:19:55Z</time>
      </trkpt>
      <trkpt lat="42.795670" lon="-7.602388">
        <ele>433.826</ele>
        <time>2022-08-20T12:20:00Z</time>
      </trkpt>
      <trkpt lat="42.795671" lon="-7.602459">
        <ele>433.581</ele>
        <time>2022-08-20T12:20:04Z</time>
      </trkpt>
      <trkpt lat="42.795672" lon="-7.602544">
        <ele>433.131</ele>
        <time>2022-08-20T12:20:08Z</time>
      </trkpt>
      <trkpt lat="42.795666" lon="-7.602613">
        <ele>433.090</ele>
        <time>2022-08-20T12:20:13Z</time>
      </trkpt>
      <trkpt lat="42.795668" lon="-7.602681">
        <ele>432.841</ele>
        <time>2022-08-20T12:20:16Z</time>
      </trkpt>
      <trkpt lat="42.795677" lon="-7.602743">
        <ele>432.481</ele>
        <time>2022-08-20T12:20:20Z</time>
      </trkpt>
      <trkpt lat="42.795680" lon="-7.602816">
        <ele>432.009</ele>
        <time>2022-08-20T12:20:24Z</time>
      </trkpt>
      <trkpt lat="42.795679" lon="-7.602884">
        <ele>431.809</ele>
        <time>2022-08-20T12:20:28Z</time>
      </trkpt>
      <trkpt lat="42.795667" lon="-7.602947">
        <ele>431.795</ele>
        <time>2022-08-20T12:20:33Z</time>
      </trkpt>
      <trkpt lat="42.795662" lon="-7.603028">
        <ele>431.545</ele>
        <time>2022-08-20T12:20:37Z</time>
      </trkpt>
      <trkpt lat="42.795663" lon="-7.603093">
        <ele>431.415</ele>
        <time>2022-08-20T12:20:41Z</time>
      </trkpt>
      <trkpt lat="42.795660" lon="-7.603162">
        <ele>431.356</ele>
        <time>2022-08-20T12:20:44Z</time>
      </trkpt>
      <trkpt lat="42.795656" lon="-7.603223">
        <ele>431.146</ele>
        <time>2022-08-20T12:20:47Z</time>
      </trkpt>
      <trkpt lat="42.795645" lon="-7.603304">
        <ele>430.839</ele>
        <time>2022-08-20T12:20:51Z</time>
      </trkpt>
      <trkpt lat="42.795626" lon="-7.603376">
        <ele>430.554</ele>
        <time>2022-08-20T12:20:55Z</time>
      </trkpt>
      <trkpt lat="42.795618" lon="-7.603438">
        <ele>430.244</ele>
        <time>2022-08-20T12:20:59Z</time>
      </trkpt>
      <trkpt lat="42.795588" lon="-7.603489">
        <ele>430.013</ele>
        <time>2022-08-20T12:21:03Z</time>
      </trkpt>
      <trkpt lat="42.795553" lon="-7.603531">
        <ele>429.828</ele>
        <time>2022-08-20T12:21:07Z</time>
      </trkpt>
      <trkpt lat="42.795494" lon="-7.603558">
        <ele>429.889</ele>
        <time>2022-08-20T12:21:11Z</time>
      </trkpt>
      <trkpt lat="42.795451" lon="-7.603586">
        <ele>429.817</ele>
        <time>2022-08-20T12:21:15Z</time>
      </trkpt>
      <trkpt lat="42.795411" lon="-7.603625">
        <ele>429.809</ele>
        <time>2022-08-20T12:21:19Z</time>
      </trkpt>
      <trkpt lat="42.795369" lon="-7.603668">
        <ele>430.163</ele>
        <time>2022-08-20T12:21:23Z</time>
      </trkpt>
      <trkpt lat="42.795338" lon="-7.603728">
        <ele>430.463</ele>
        <time>2022-08-20T12:21:27Z</time>
      </trkpt>
      <trkpt lat="42.795316" lon="-7.603798">
        <ele>430.623</ele>
        <time>2022-08-20T12:21:31Z</time>
      </trkpt>
      <trkpt lat="42.795291" lon="-7.603853">
        <ele>430.834</ele>
        <time>2022-08-20T12:21:35Z</time>
      </trkpt>
      <trkpt lat="42.795251" lon="-7.603890">
        <ele>430.934</ele>
        <time>2022-08-20T12:21:39Z</time>
      </trkpt>
      <trkpt lat="42.795217" lon="-7.603942">
        <ele>430.947</ele>
        <time>2022-08-20T12:21:43Z</time>
      </trkpt>
      <trkpt lat="42.795186" lon="-7.603987">
        <ele>430.972</ele>
        <time>2022-08-20T12:21:46Z</time>
      </trkpt>
      <trkpt lat="42.795150" lon="-7.604033">
        <ele>430.852</ele>
        <time>2022-08-20T12:21:50Z</time>
      </trkpt>
      <trkpt lat="42.795116" lon="-7.604085">
        <ele>430.631</ele>
        <time>2022-08-20T12:21:54Z</time>
      </trkpt>
      <trkpt lat="42.795095" lon="-7.604152">
        <ele>430.542</ele>
        <time>2022-08-20T12:21:58Z</time>
      </trkpt>
      <trkpt lat="42.795084" lon="-7.604222">
        <ele>430.322</ele>
        <time>2022-08-20T12:22:02Z</time>
      </trkpt>
      <trkpt lat="42.795079" lon="-7.604295">
        <ele>430.214</ele>
        <time>2022-08-20T12:22:06Z</time>
      </trkpt>
      <trkpt lat="42.795076" lon="-7.604372">
        <ele>430.209</ele>
        <time>2022-08-20T12:22:10Z</time>
      </trkpt>
      <trkpt lat="42.795083" lon="-7.604451">
        <ele>430.215</ele>
        <time>2022-08-20T12:22:14Z</time>
      </trkpt>
      <trkpt lat="42.795083" lon="-7.604515">
        <ele>430.185</ele>
        <time>2022-08-20T12:22:18Z</time>
      </trkpt>
      <trkpt lat="42.795089" lon="-7.604590">
        <ele>429.865</ele>
        <time>2022-08-20T12:22:22Z</time>
      </trkpt>
      <trkpt lat="42.795101" lon="-7.604661">
        <ele>429.626</ele>
        <time>2022-08-20T12:22:26Z</time>
      </trkpt>
      <trkpt lat="42.795114" lon="-7.604736">
        <ele>429.446</ele>
        <time>2022-08-20T12:22:31Z</time>
      </trkpt>
      <trkpt lat="42.795123" lon="-7.604809">
        <ele>429.359</ele>
        <time>2022-08-20T12:22:35Z</time>
      </trkpt>
      <trkpt lat="42.795138" lon="-7.604876">
        <ele>429.234</ele>
        <time>2022-08-20T12:22:39Z</time>
      </trkpt>
      <trkpt lat="42.795157" lon="-7.604940">
        <ele>429.154</ele>
        <time>2022-08-20T12:22:43Z</time>
      </trkpt>
      <trkpt lat="42.795172" lon="-7.605006">
        <ele>428.933</ele>
        <time>2022-08-20T12:22:47Z</time>
      </trkpt>
      <trkpt lat="42.795198" lon="-7.605073">
        <ele>428.754</ele>
        <time>2022-08-20T12:22:51Z</time>
      </trkpt>
      <trkpt lat="42.795218" lon="-7.605132">
        <ele>428.456</ele>
        <time>2022-08-20T12:22:54Z</time>
      </trkpt>
      <trkpt lat="42.795240" lon="-7.605208">
        <ele>428.111</ele>
        <time>2022-08-20T12:22:58Z</time>
      </trkpt>
      <trkpt lat="42.795254" lon="-7.605273">
        <ele>427.909</ele>
        <time>2022-08-20T12:23:02Z</time>
      </trkpt>
      <trkpt lat="42.795259" lon="-7.605336">
        <ele>427.756</ele>
        <time>2022-08-20T12:23:06Z</time>
      </trkpt>
      <trkpt lat="42.795271" lon="-7.605399">
        <ele>427.536</ele>
        <time>2022-08-20T12:23:10Z</time>
      </trkpt>
      <trkpt lat="42.795286" lon="-7.605461">
        <ele>427.416</ele>
        <time>2022-08-20T12:23:14Z</time>
      </trkpt>
      <trkpt lat="42.795304" lon="-7.605518">
        <ele>427.337</ele>
        <time>2022-08-20T12:23:17Z</time>
      </trkpt>
      <trkpt lat="42.795330" lon="-7.605577">
        <ele>427.167</ele>
        <time>2022-08-20T12:23:21Z</time>
      </trkpt>
      <trkpt lat="42.795356" lon="-7.605643">
        <ele>426.810</ele>
        <time>2022-08-20T12:23:25Z</time>
      </trkpt>
      <trkpt lat="42.795388" lon="-7.605711">
        <ele>426.695</ele>
        <time>2022-08-20T12:23:29Z</time>
      </trkpt>
      <trkpt lat="42.795408" lon="-7.605773">
        <ele>426.445</ele>
        <time>2022-08-20T12:23:32Z</time>
      </trkpt>
      <trkpt lat="42.795430" lon="-7.605829">
        <ele>426.364</ele>
        <time>2022-08-20T12:23:35Z</time>
      </trkpt>
      <trkpt lat="42.795444" lon="-7.605888">
        <ele>426.289</ele>
        <time>2022-08-20T12:23:38Z</time>
      </trkpt>
      <trkpt lat="42.795463" lon="-7.605964">
        <ele>426.106</ele>
        <time>2022-08-20T12:23:42Z</time>
      </trkpt>
      <trkpt lat="42.795468" lon="-7.606025">
        <ele>426.026</ele>
        <time>2022-08-20T12:23:45Z</time>
      </trkpt>
      <trkpt lat="42.795482" lon="-7.606100">
        <ele>426.009</ele>
        <time>2022-08-20T12:23:49Z</time>
      </trkpt>
      <trkpt lat="42.795493" lon="-7.606177">
        <ele>426.019</ele>
        <time>2022-08-20T12:23:53Z</time>
      </trkpt>
      <trkpt lat="42.795501" lon="-7.606251">
        <ele>426.099</ele>
        <time>2022-08-20T12:23:57Z</time>
      </trkpt>
      <trkpt lat="42.795509" lon="-7.606326">
        <ele>426.069</ele>
        <time>2022-08-20T12:24:01Z</time>
      </trkpt>
      <trkpt lat="42.795525" lon="-7.606395">
        <ele>426.230</ele>
        <time>2022-08-20T12:24:05Z</time>
      </trkpt>
      <trkpt lat="42.795538" lon="-7.606468">
        <ele>426.460</ele>
        <time>2022-08-20T12:24:09Z</time>
      </trkpt>
      <trkpt lat="42.795552" lon="-7.606542">
        <ele>426.693</ele>
        <time>2022-08-20T12:24:13Z</time>
      </trkpt>
      <trkpt lat="42.795566" lon="-7.606614">
        <ele>426.618</ele>
        <time>2022-08-20T12:24:17Z</time>
      </trkpt>
      <trkpt lat="42.795585" lon="-7.606689">
        <ele>426.798</ele>
        <time>2022-08-20T12:24:21Z</time>
      </trkpt>
      <trkpt lat="42.795593" lon="-7.606758">
        <ele>426.747</ele>
        <time>2022-08-20T12:24:25Z</time>
      </trkpt>
      <trkpt lat="42.795608" lon="-7.606816">
        <ele>426.755</ele>
        <time>2022-08-20T12:24:28Z</time>
      </trkpt>
      <trkpt lat="42.795615" lon="-7.606891">
        <ele>426.807</ele>
        <time>2022-08-20T12:24:32Z</time>
      </trkpt>
      <trkpt lat="42.795624" lon="-7.606967">
        <ele>426.917</ele>
        <time>2022-08-20T12:24:36Z</time>
      </trkpt>
      <trkpt lat="42.795630" lon="-7.607044">
        <ele>426.909</ele>
        <time>2022-08-20T12:24:40Z</time>
      </trkpt>
      <trkpt lat="42.795637" lon="-7.607120">
        <ele>426.976</ele>
        <time>2022-08-20T12:24:44Z</time>
      </trkpt>
      <trkpt lat="42.795645" lon="-7.607197">
        <ele>427.046</ele>
        <time>2022-08-20T12:24:48Z</time>
      </trkpt>
      <trkpt lat="42.795651" lon="-7.607270">
        <ele>427.176</ele>
        <time>2022-08-20T12:24:52Z</time>
      </trkpt>
      <trkpt lat="42.795661" lon="-7.607343">
        <ele>427.277</ele>
        <time>2022-08-20T12:24:56Z</time>
      </trkpt>
      <trkpt lat="42.795670" lon="-7.607420">
        <ele>427.337</ele>
        <time>2022-08-20T12:25:00Z</time>
      </trkpt>
      <trkpt lat="42.795676" lon="-7.607494">
        <ele>427.440</ele>
        <time>2022-08-20T12:25:04Z</time>
      </trkpt>
      <trkpt lat="42.795676" lon="-7.607573">
        <ele>427.585</ele>
        <time>2022-08-20T12:25:08Z</time>
      </trkpt>
      <trkpt lat="42.795683" lon="-7.607648">
        <ele>427.785</ele>
        <time>2022-08-20T12:25:12Z</time>
      </trkpt>
      <trkpt lat="42.795686" lon="-7.607726">
        <ele>427.784</ele>
        <time>2022-08-20T12:25:16Z</time>
      </trkpt>
      <trkpt lat="42.795695" lon="-7.607802">
        <ele>427.868</ele>
        <time>2022-08-20T12:25:20Z</time>
      </trkpt>
      <trkpt lat="42.795708" lon="-7.607879">
        <ele>427.942</ele>
        <time>2022-08-20T12:25:24Z</time>
      </trkpt>
      <trkpt lat="42.795722" lon="-7.607953">
        <ele>428.026</ele>
        <time>2022-08-20T12:25:28Z</time>
      </trkpt>
      <trkpt lat="42.795742" lon="-7.608021">
        <ele>428.109</ele>
        <time>2022-08-20T12:25:32Z</time>
      </trkpt>
      <trkpt lat="42.795771" lon="-7.608081">
        <ele>428.137</ele>
        <time>2022-08-20T12:25:36Z</time>
      </trkpt>
      <trkpt lat="42.795790" lon="-7.608150">
        <ele>428.297</ele>
        <time>2022-08-20T12:25:40Z</time>
      </trkpt>
      <trkpt lat="42.795814" lon="-7.608217">
        <ele>428.427</ele>
        <time>2022-08-20T12:25:44Z</time>
      </trkpt>
      <trkpt lat="42.795846" lon="-7.608278">
        <ele>428.518</ele>
        <time>2022-08-20T12:25:48Z</time>
      </trkpt>
      <trkpt lat="42.795872" lon="-7.608343">
        <ele>428.658</ele>
        <time>2022-08-20T12:25:52Z</time>
      </trkpt>
      <trkpt lat="42.795888" lon="-7.608415">
        <ele>428.681</ele>
        <time>2022-08-20T12:25:56Z</time>
      </trkpt>
      <trkpt lat="42.795903" lon="-7.608487">
        <ele>428.636</ele>
        <time>2022-08-20T12:26:00Z</time>
      </trkpt>
      <trkpt lat="42.795918" lon="-7.608559">
        <ele>428.676</ele>
        <time>2022-08-20T12:26:04Z</time>
      </trkpt>
      <trkpt lat="42.795928" lon="-7.608629">
        <ele>428.635</ele>
        <time>2022-08-20T12:26:08Z</time>
      </trkpt>
      <trkpt lat="42.795939" lon="-7.608702">
        <ele>428.669</ele>
        <time>2022-08-20T12:26:12Z</time>
      </trkpt>
      <trkpt lat="42.795950" lon="-7.608770">
        <ele>428.604</ele>
        <time>2022-08-20T12:26:16Z</time>
      </trkpt>
      <trkpt lat="42.795965" lon="-7.608839">
        <ele>428.724</ele>
        <time>2022-08-20T12:26:20Z</time>
      </trkpt>
      <trkpt lat="42.795975" lon="-7.608910">
        <ele>428.809</ele>
        <time>2022-08-20T12:26:24Z</time>
      </trkpt>
      <trkpt lat="42.795987" lon="-7.608984">
        <ele>428.947</ele>
        <time>2022-08-20T12:26:28Z</time>
      </trkpt>
      <trkpt lat="42.796008" lon="-7.609053">
        <ele>428.927</ele>
        <time>2022-08-20T12:26:32Z</time>
      </trkpt>
      <trkpt lat="42.796029" lon="-7.609116">
        <ele>428.977</ele>
        <time>2022-08-20T12:26:36Z</time>
      </trkpt>
      <trkpt lat="42.796068" lon="-7.609161">
        <ele>428.988</ele>
        <time>2022-08-20T12:26:40Z</time>
      </trkpt>
      <trkpt lat="42.796112" lon="-7.609197">
        <ele>428.948</ele>
        <time>2022-08-20T12:26:44Z</time>
      </trkpt>
      <trkpt lat="42.796157" lon="-7.609224">
        <ele>428.951</ele>
        <time>2022-08-20T12:26:48Z</time>
      </trkpt>
      <trkpt lat="42.796201" lon="-7.609240">
        <ele>428.956</ele>
        <time>2022-08-20T12:26:52Z</time>
      </trkpt>
      <trkpt lat="42.796253" lon="-7.609275">
        <ele>428.966</ele>
        <time>2022-08-20T12:26:56Z</time>
      </trkpt>
      <trkpt lat="42.796303" lon="-7.609271">
        <ele>428.985</ele>
        <time>2022-08-20T12:27:01Z</time>
      </trkpt>
      <trkpt lat="42.796346" lon="-7.609248">
        <ele>428.961</ele>
        <time>2022-08-20T12:27:09Z</time>
      </trkpt>
      <trkpt lat="42.796382" lon="-7.609195">
        <ele>428.921</ele>
        <time>2022-08-20T12:27:15Z</time>
      </trkpt>
      <trkpt lat="42.796420" lon="-7.609153">
        <ele>428.913</ele>
        <time>2022-08-20T12:27:19Z</time>
      </trkpt>
      <trkpt lat="42.796459" lon="-7.609116">
        <ele>428.909</ele>
        <time>2022-08-20T12:27:23Z</time>
      </trkpt>
      <trkpt lat="42.796503" lon="-7.609091">
        <ele>428.917</ele>
        <time>2022-08-20T12:27:27Z</time>
      </trkpt>
      <trkpt lat="42.796551" lon="-7.609127">
        <ele>428.967</ele>
        <time>2022-08-20T12:27:31Z</time>
      </trkpt>
      <trkpt lat="42.796564" lon="-7.609201">
        <ele>428.957</ele>
        <time>2022-08-20T12:27:35Z</time>
      </trkpt>
      <trkpt lat="42.796565" lon="-7.609267">
        <ele>428.948</ele>
        <time>2022-08-20T12:27:39Z</time>
      </trkpt>
      <trkpt lat="42.796558" lon="-7.609339">
        <ele>428.748</ele>
        <time>2022-08-20T12:27:43Z</time>
      </trkpt>
      <trkpt lat="42.796556" lon="-7.609410">
        <ele>428.491</ele>
        <time>2022-08-20T12:27:47Z</time>
      </trkpt>
      <trkpt lat="42.796555" lon="-7.609481">
        <ele>428.246</ele>
        <time>2022-08-20T12:27:51Z</time>
      </trkpt>
      <trkpt lat="42.796553" lon="-7.609543">
        <ele>428.026</ele>
        <time>2022-08-20T12:27:55Z</time>
      </trkpt>
      <trkpt lat="42.796545" lon="-7.609472">
        <ele>427.925</ele>
        <time>2022-08-20T12:28:03Z</time>
      </trkpt>
      <trkpt lat="42.796513" lon="-7.609395">
        <ele>427.716</ele>
        <time>2022-08-20T12:28:07Z</time>
      </trkpt>
      <trkpt lat="42.796506" lon="-7.609328">
        <ele>427.676</ele>
        <time>2022-08-20T12:28:12Z</time>
      </trkpt>
      <trkpt lat="42.796491" lon="-7.609268">
        <ele>427.613</ele>
        <time>2022-08-20T12:28:16Z</time>
      </trkpt>
      <trkpt lat="42.796487" lon="-7.609199">
        <ele>427.609</ele>
        <time>2022-08-20T12:28:20Z</time>
      </trkpt>
      <trkpt lat="42.796538" lon="-7.609242">
        <ele>428.032</ele>
        <time>2022-08-20T12:28:58Z</time>
      </trkpt>
      <trkpt lat="42.796560" lon="-7.609307">
        <ele>428.242</ele>
        <time>2022-08-20T12:29:03Z</time>
      </trkpt>
      <trkpt lat="42.796554" lon="-7.609379">
        <ele>428.592</ele>
        <time>2022-08-20T12:29:08Z</time>
      </trkpt>
      <trkpt lat="42.796551" lon="-7.609445">
        <ele>428.513</ele>
        <time>2022-08-20T12:29:12Z</time>
      </trkpt>
      <trkpt lat="42.796548" lon="-7.609524">
        <ele>428.633</ele>
        <time>2022-08-20T12:29:17Z</time>
      </trkpt>
      <trkpt lat="42.796545" lon="-7.609599">
        <ele>428.366</ele>
        <time>2022-08-20T12:29:21Z</time>
      </trkpt>
      <trkpt lat="42.796540" lon="-7.609669">
        <ele>427.731</ele>
        <time>2022-08-20T12:29:25Z</time>
      </trkpt>
      <trkpt lat="42.796530" lon="-7.609738">
        <ele>427.381</ele>
        <time>2022-08-20T12:29:29Z</time>
      </trkpt>
      <trkpt lat="42.796513" lon="-7.609811">
        <ele>426.610</ele>
        <time>2022-08-20T12:29:34Z</time>
      </trkpt>
      <trkpt lat="42.796500" lon="-7.609883">
        <ele>426.153</ele>
        <time>2022-08-20T12:29:38Z</time>
      </trkpt>
      <trkpt lat="42.796481" lon="-7.609949">
        <ele>425.804</ele>
        <time>2022-08-20T12:29:42Z</time>
      </trkpt>
      <trkpt lat="42.796465" lon="-7.610020">
        <ele>425.214</ele>
        <time>2022-08-20T12:29:46Z</time>
      </trkpt>
      <trkpt lat="42.796449" lon="-7.610086">
        <ele>424.709</ele>
        <time>2022-08-20T12:29:50Z</time>
      </trkpt>
      <trkpt lat="42.796430" lon="-7.610151">
        <ele>424.236</ele>
        <time>2022-08-20T12:29:54Z</time>
      </trkpt>
      <trkpt lat="42.796413" lon="-7.610219">
        <ele>423.446</ele>
        <time>2022-08-20T12:29:58Z</time>
      </trkpt>
      <trkpt lat="42.796402" lon="-7.610287">
        <ele>422.666</ele>
        <time>2022-08-20T12:30:02Z</time>
      </trkpt>
      <trkpt lat="42.796393" lon="-7.610357">
        <ele>422.187</ele>
        <time>2022-08-20T12:30:06Z</time>
      </trkpt>
      <trkpt lat="42.796381" lon="-7.610427">
        <ele>421.527</ele>
        <time>2022-08-20T12:30:10Z</time>
      </trkpt>
      <trkpt lat="42.796388" lon="-7.610497">
        <ele>420.990</ele>
        <time>2022-08-20T12:30:14Z</time>
      </trkpt>
      <trkpt lat="42.796386" lon="-7.610561">
        <ele>420.475</ele>
        <time>2022-08-20T12:30:18Z</time>
      </trkpt>
      <trkpt lat="42.796409" lon="-7.610621">
        <ele>419.845</ele>
        <time>2022-08-20T12:30:22Z</time>
      </trkpt>
      <trkpt lat="42.796434" lon="-7.610681">
        <ele>419.344</ele>
        <time>2022-08-20T12:30:26Z</time>
      </trkpt>
      <trkpt lat="42.796468" lon="-7.610734">
        <ele>418.934</ele>
        <time>2022-08-20T12:30:30Z</time>
      </trkpt>
      <trkpt lat="42.796503" lon="-7.610782">
        <ele>418.455</ele>
        <time>2022-08-20T12:30:34Z</time>
      </trkpt>
      <trkpt lat="42.796537" lon="-7.610832">
        <ele>417.910</ele>
        <time>2022-08-20T12:30:38Z</time>
      </trkpt>
      <trkpt lat="42.796572" lon="-7.610878">
        <ele>417.409</ele>
        <time>2022-08-20T12:30:42Z</time>
      </trkpt>
      <trkpt lat="42.796610" lon="-7.610921">
        <ele>416.874</ele>
        <time>2022-08-20T12:30:46Z</time>
      </trkpt>
      <trkpt lat="42.796647" lon="-7.610959">
        <ele>416.264</ele>
        <time>2022-08-20T12:30:50Z</time>
      </trkpt>
      <trkpt lat="42.796690" lon="-7.611015">
        <ele>415.774</ele>
        <time>2022-08-20T12:30:55Z</time>
      </trkpt>
      <trkpt lat="42.796723" lon="-7.611071">
        <ele>415.485</ele>
        <time>2022-08-20T12:30:59Z</time>
      </trkpt>
      <trkpt lat="42.796765" lon="-7.611105">
        <ele>414.965</ele>
        <time>2022-08-20T12:31:03Z</time>
      </trkpt>
      <trkpt lat="42.796810" lon="-7.611149">
        <ele>414.388</ele>
        <time>2022-08-20T12:31:07Z</time>
      </trkpt>
      <trkpt lat="42.796847" lon="-7.611187">
        <ele>413.833</ele>
        <time>2022-08-20T12:31:11Z</time>
      </trkpt>
      <trkpt lat="42.796887" lon="-7.611232">
        <ele>413.593</ele>
        <time>2022-08-20T12:31:15Z</time>
      </trkpt>
      <trkpt lat="42.796931" lon="-7.611274">
        <ele>413.322</ele>
        <time>2022-08-20T12:31:19Z</time>
      </trkpt>
      <trkpt lat="42.796973" lon="-7.611323">
        <ele>413.052</ele>
        <time>2022-08-20T12:31:23Z</time>
      </trkpt>
      <trkpt lat="42.797018" lon="-7.611369">
        <ele>412.753</ele>
        <time>2022-08-20T12:31:27Z</time>
      </trkpt>
      <trkpt lat="42.797061" lon="-7.611400">
        <ele>412.208</ele>
        <time>2022-08-20T12:31:31Z</time>
      </trkpt>
      <trkpt lat="42.797108" lon="-7.611441">
        <ele>411.609</ele>
        <time>2022-08-20T12:31:35Z</time>
      </trkpt>
      <trkpt lat="42.797147" lon="-7.611485">
        <ele>411.486</ele>
        <time>2022-08-20T12:31:39Z</time>
      </trkpt>
      <trkpt lat="42.797188" lon="-7.611535">
        <ele>411.116</ele>
        <time>2022-08-20T12:31:43Z</time>
      </trkpt>
      <trkpt lat="42.797233" lon="-7.611578">
        <ele>410.996</ele>
        <time>2022-08-20T12:31:47Z</time>
      </trkpt>
      <trkpt lat="42.797277" lon="-7.611622">
        <ele>410.577</ele>
        <time>2022-08-20T12:31:51Z</time>
      </trkpt>
      <trkpt lat="42.797318" lon="-7.611675">
        <ele>410.067</ele>
        <time>2022-08-20T12:31:55Z</time>
      </trkpt>
      <trkpt lat="42.797361" lon="-7.611717">
        <ele>409.640</ele>
        <time>2022-08-20T12:31:59Z</time>
      </trkpt>
      <trkpt lat="42.797400" lon="-7.611754">
        <ele>409.555</ele>
        <time>2022-08-20T12:32:02Z</time>
      </trkpt>
      <trkpt lat="42.797443" lon="-7.611797">
        <ele>409.425</ele>
        <time>2022-08-20T12:32:06Z</time>
      </trkpt>
      <trkpt lat="42.797488" lon="-7.611845">
        <ele>409.254</ele>
        <time>2022-08-20T12:32:10Z</time>
      </trkpt>
      <trkpt lat="42.797531" lon="-7.611889">
        <ele>408.983</ele>
        <time>2022-08-20T12:32:14Z</time>
      </trkpt>
      <trkpt lat="42.797567" lon="-7.611929">
        <ele>408.725</ele>
        <time>2022-08-20T12:32:17Z</time>
      </trkpt>
      <trkpt lat="42.797611" lon="-7.611971">
        <ele>408.617</ele>
        <time>2022-08-20T12:32:21Z</time>
      </trkpt>
      <trkpt lat="42.797653" lon="-7.612018">
        <ele>408.509</ele>
        <time>2022-08-20T12:32:25Z</time>
      </trkpt>
      <trkpt lat="42.797699" lon="-7.612058">
        <ele>408.369</ele>
        <time>2022-08-20T12:32:29Z</time>
      </trkpt>
      <trkpt lat="42.797743" lon="-7.612101">
        <ele>408.189</ele>
        <time>2022-08-20T12:32:33Z</time>
      </trkpt>
      <trkpt lat="42.797780" lon="-7.612140">
        <ele>408.019</ele>
        <time>2022-08-20T12:32:36Z</time>
      </trkpt>
      <trkpt lat="42.797819" lon="-7.612200">
        <ele>408.070</ele>
        <time>2022-08-20T12:32:40Z</time>
      </trkpt>
      <trkpt lat="42.797859" lon="-7.612252">
        <ele>408.060</ele>
        <time>2022-08-20T12:32:44Z</time>
      </trkpt>
      <trkpt lat="42.797894" lon="-7.612308">
        <ele>408.043</ele>
        <time>2022-08-20T12:32:48Z</time>
      </trkpt>
      <trkpt lat="42.797928" lon="-7.612357">
        <ele>408.068</ele>
        <time>2022-08-20T12:32:52Z</time>
      </trkpt>
      <trkpt lat="42.797967" lon="-7.612415">
        <ele>408.138</ele>
        <time>2022-08-20T12:32:56Z</time>
      </trkpt>
      <trkpt lat="42.798002" lon="-7.612460">
        <ele>408.147</ele>
        <time>2022-08-20T12:33:00Z</time>
      </trkpt>
      <trkpt lat="42.798048" lon="-7.612494">
        <ele>408.176</ele>
        <time>2022-08-20T12:33:04Z</time>
      </trkpt>
      <trkpt lat="42.798099" lon="-7.612509">
        <ele>408.190</ele>
        <time>2022-08-20T12:33:08Z</time>
      </trkpt>
      <trkpt lat="42.798151" lon="-7.612533">
        <ele>408.119</ele>
        <time>2022-08-20T12:33:12Z</time>
      </trkpt>
      <trkpt lat="42.798204" lon="-7.612552">
        <ele>408.109</ele>
        <time>2022-08-20T12:33:16Z</time>
      </trkpt>
      <trkpt lat="42.798258" lon="-7.612577">
        <ele>407.848</ele>
        <time>2022-08-20T12:33:20Z</time>
      </trkpt>
      <trkpt lat="42.798306" lon="-7.612601">
        <ele>407.528</ele>
        <time>2022-08-20T12:33:24Z</time>
      </trkpt>
      <trkpt lat="42.798354" lon="-7.612627">
        <ele>407.138</ele>
        <time>2022-08-20T12:33:28Z</time>
      </trkpt>
      <trkpt lat="42.798403" lon="-7.612665">
        <ele>406.729</ele>
        <time>2022-08-20T12:33:32Z</time>
      </trkpt>
      <trkpt lat="42.798455" lon="-7.612704">
        <ele>406.749</ele>
        <time>2022-08-20T12:33:36Z</time>
      </trkpt>
      <trkpt lat="42.798501" lon="-7.612742">
        <ele>406.652</ele>
        <time>2022-08-20T12:33:40Z</time>
      </trkpt>
      <trkpt lat="42.798548" lon="-7.612765">
        <ele>406.547</ele>
        <time>2022-08-20T12:33:44Z</time>
      </trkpt>
      <trkpt lat="42.798591" lon="-7.612798">
        <ele>406.457</ele>
        <time>2022-08-20T12:33:48Z</time>
      </trkpt>
      <trkpt lat="42.798632" lon="-7.612832">
        <ele>406.396</ele>
        <time>2022-08-20T12:33:52Z</time>
      </trkpt>
      <trkpt lat="42.798677" lon="-7.612865">
        <ele>406.221</ele>
        <time>2022-08-20T12:33:56Z</time>
      </trkpt>
      <trkpt lat="42.798732" lon="-7.612892">
        <ele>406.141</ele>
        <time>2022-08-20T12:34:01Z</time>
      </trkpt>
      <trkpt lat="42.798766" lon="-7.612944">
        <ele>406.005</ele>
        <time>2022-08-20T12:34:06Z</time>
      </trkpt>
      <trkpt lat="42.798813" lon="-7.612982">
        <ele>405.809</ele>
        <time>2022-08-20T12:34:10Z</time>
      </trkpt>
      <trkpt lat="42.798857" lon="-7.613020">
        <ele>405.533</ele>
        <time>2022-08-20T12:34:14Z</time>
      </trkpt>
      <trkpt lat="42.798896" lon="-7.613068">
        <ele>405.383</ele>
        <time>2022-08-20T12:34:18Z</time>
      </trkpt>
      <trkpt lat="42.798941" lon="-7.613117">
        <ele>405.223</ele>
        <time>2022-08-20T12:34:22Z</time>
      </trkpt>
      <trkpt lat="42.798978" lon="-7.613180">
        <ele>404.934</ele>
        <time>2022-08-20T12:34:27Z</time>
      </trkpt>
      <trkpt lat="42.798997" lon="-7.613238">
        <ele>404.884</ele>
        <time>2022-08-20T12:34:30Z</time>
      </trkpt>
      <trkpt lat="42.799024" lon="-7.613290">
        <ele>404.597</ele>
        <time>2022-08-20T12:34:33Z</time>
      </trkpt>
      <trkpt lat="42.799054" lon="-7.613361">
        <ele>404.112</ele>
        <time>2022-08-20T12:34:38Z</time>
      </trkpt>
      <trkpt lat="42.799089" lon="-7.613421">
        <ele>404.032</ele>
        <time>2022-08-20T12:34:42Z</time>
      </trkpt>
      <trkpt lat="42.799116" lon="-7.613484">
        <ele>403.641</ele>
        <time>2022-08-20T12:34:46Z</time>
      </trkpt>
      <trkpt lat="42.799142" lon="-7.613537">
        <ele>403.317</ele>
        <time>2022-08-20T12:34:49Z</time>
      </trkpt>
      <trkpt lat="42.799167" lon="-7.613606">
        <ele>402.987</ele>
        <time>2022-08-20T12:34:53Z</time>
      </trkpt>
      <trkpt lat="42.799191" lon="-7.613663">
        <ele>402.815</ele>
        <time>2022-08-20T12:34:57Z</time>
      </trkpt>
      <trkpt lat="42.799211" lon="-7.613729">
        <ele>402.609</ele>
        <time>2022-08-20T12:35:02Z</time>
      </trkpt>
      <trkpt lat="42.799221" lon="-7.613789">
        <ele>402.322</ele>
        <time>2022-08-20T12:35:06Z</time>
      </trkpt>
      <trkpt lat="42.799237" lon="-7.613865">
        <ele>402.092</ele>
        <time>2022-08-20T12:35:10Z</time>
      </trkpt>
      <trkpt lat="42.799251" lon="-7.613941">
        <ele>401.892</ele>
        <time>2022-08-20T12:35:14Z</time>
      </trkpt>
      <trkpt lat="42.799267" lon="-7.614011">
        <ele>401.713</ele>
        <time>2022-08-20T12:35:18Z</time>
      </trkpt>
      <trkpt lat="42.799297" lon="-7.614064">
        <ele>401.553</ele>
        <time>2022-08-20T12:35:22Z</time>
      </trkpt>
      <trkpt lat="42.799328" lon="-7.614110">
        <ele>401.346</ele>
        <time>2022-08-20T12:35:26Z</time>
      </trkpt>
      <trkpt lat="42.799365" lon="-7.614155">
        <ele>401.261</ele>
        <time>2022-08-20T12:35:30Z</time>
      </trkpt>
      <trkpt lat="42.799406" lon="-7.614192">
        <ele>401.191</ele>
        <time>2022-08-20T12:35:34Z</time>
      </trkpt>
      <trkpt lat="42.799448" lon="-7.614233">
        <ele>400.860</ele>
        <time>2022-08-20T12:35:38Z</time>
      </trkpt>
      <trkpt lat="42.799492" lon="-7.614265">
        <ele>400.558</ele>
        <time>2022-08-20T12:35:42Z</time>
      </trkpt>
      <trkpt lat="42.799539" lon="-7.614310">
        <ele>400.252</ele>
        <time>2022-08-20T12:35:46Z</time>
      </trkpt>
      <trkpt lat="42.799577" lon="-7.614355">
        <ele>399.917</ele>
        <time>2022-08-20T12:35:50Z</time>
      </trkpt>
      <trkpt lat="42.799619" lon="-7.614400">
        <ele>399.609</ele>
        <time>2022-08-20T12:35:54Z</time>
      </trkpt>
      <trkpt lat="42.799655" lon="-7.614439">
        <ele>399.596</ele>
        <time>2022-08-20T12:35:57Z</time>
      </trkpt>
      <trkpt lat="42.799707" lon="-7.614474">
        <ele>399.416</ele>
        <time>2022-08-20T12:36:01Z</time>
      </trkpt>
      <trkpt lat="42.799758" lon="-7.614505">
        <ele>399.346</ele>
        <time>2022-08-20T12:36:05Z</time>
      </trkpt>
      <trkpt lat="42.799807" lon="-7.614547">
        <ele>399.117</ele>
        <time>2022-08-20T12:36:09Z</time>
      </trkpt>
      <trkpt lat="42.799849" lon="-7.614593">
        <ele>399.037</ele>
        <time>2022-08-20T12:36:13Z</time>
      </trkpt>
      <trkpt lat="42.799891" lon="-7.614647">
        <ele>398.870</ele>
        <time>2022-08-20T12:36:17Z</time>
      </trkpt>
      <trkpt lat="42.799924" lon="-7.614699">
        <ele>398.825</ele>
        <time>2022-08-20T12:36:21Z</time>
      </trkpt>
      <trkpt lat="42.799956" lon="-7.614745">
        <ele>398.725</ele>
        <time>2022-08-20T12:36:25Z</time>
      </trkpt>
      <trkpt lat="42.799989" lon="-7.614795">
        <ele>398.644</ele>
        <time>2022-08-20T12:36:29Z</time>
      </trkpt>
      <trkpt lat="42.800023" lon="-7.614858">
        <ele>398.599</ele>
        <time>2022-08-20T12:36:33Z</time>
      </trkpt>
      <trkpt lat="42.800046" lon="-7.614915">
        <ele>398.407</ele>
        <time>2022-08-20T12:36:36Z</time>
      </trkpt>
      <trkpt lat="42.800070" lon="-7.614975">
        <ele>398.327</ele>
        <time>2022-08-20T12:36:39Z</time>
      </trkpt>
      <trkpt lat="42.800091" lon="-7.615029">
        <ele>398.209</ele>
        <time>2022-08-20T12:36:42Z</time>
      </trkpt>
      <trkpt lat="42.800114" lon="-7.615096">
        <ele>398.140</ele>
        <time>2022-08-20T12:36:46Z</time>
      </trkpt>
      <trkpt lat="42.800136" lon="-7.615160">
        <ele>398.050</ele>
        <time>2022-08-20T12:36:50Z</time>
      </trkpt>
      <trkpt lat="42.800157" lon="-7.615223">
        <ele>397.970</ele>
        <time>2022-08-20T12:36:54Z</time>
      </trkpt>
      <trkpt lat="42.800174" lon="-7.615290">
        <ele>397.771</ele>
        <time>2022-08-20T12:36:58Z</time>
      </trkpt>
      <trkpt lat="42.800190" lon="-7.615348">
        <ele>397.581</ele>
        <time>2022-08-20T12:37:01Z</time>
      </trkpt>
      <trkpt lat="42.800206" lon="-7.615419">
        <ele>397.394</ele>
        <time>2022-08-20T12:37:05Z</time>
      </trkpt>
      <trkpt lat="42.800224" lon="-7.615478">
        <ele>397.199</ele>
        <time>2022-08-20T12:37:09Z</time>
      </trkpt>
      <trkpt lat="42.800232" lon="-7.615552">
        <ele>396.979</ele>
        <time>2022-08-20T12:37:14Z</time>
      </trkpt>
      <trkpt lat="42.800267" lon="-7.615615">
        <ele>396.658</ele>
        <time>2022-08-20T12:37:18Z</time>
      </trkpt>
      <trkpt lat="42.800303" lon="-7.615662">
        <ele>396.032</ele>
        <time>2022-08-20T12:37:22Z</time>
      </trkpt>
      <trkpt lat="42.800336" lon="-7.615703">
        <ele>395.192</ele>
        <time>2022-08-20T12:37:26Z</time>
      </trkpt>
      <trkpt lat="42.800371" lon="-7.615752">
        <ele>394.111</ele>
        <time>2022-08-20T12:37:31Z</time>
      </trkpt>
      <trkpt lat="42.800402" lon="-7.615802">
        <ele>393.009</ele>
        <time>2022-08-20T12:37:35Z</time>
      </trkpt>
      <trkpt lat="42.800438" lon="-7.615857">
        <ele>391.764</ele>
        <time>2022-08-20T12:37:39Z</time>
      </trkpt>
      <trkpt lat="42.800466" lon="-7.615906">
        <ele>390.414</ele>
        <time>2022-08-20T12:37:44Z</time>
      </trkpt>
      <trkpt lat="42.800490" lon="-7.615968">
        <ele>389.374</ele>
        <time>2022-08-20T12:37:49Z</time>
      </trkpt>
      <trkpt lat="42.800521" lon="-7.616017">
        <ele>388.165</ele>
        <time>2022-08-20T12:37:55Z</time>
      </trkpt>
      <trkpt lat="42.800590" lon="-7.616127">
        <ele>386.225</ele>
        <time>2022-08-20T12:38:24Z</time>
      </trkpt>
      <trkpt lat="42.800583" lon="-7.616192">
        <ele>384.878</ele>
        <time>2022-08-20T12:38:32Z</time>
      </trkpt>
      <trkpt lat="42.800580" lon="-7.616274">
        <ele>381.653</ele>
        <time>2022-08-20T12:38:40Z</time>
      </trkpt>
      <trkpt lat="42.800583" lon="-7.616341">
        <ele>379.953</ele>
        <time>2022-08-20T12:38:46Z</time>
      </trkpt>
      <trkpt lat="42.800606" lon="-7.616402">
        <ele>378.252</ele>
        <time>2022-08-20T12:38:51Z</time>
      </trkpt>
      <trkpt lat="42.800636" lon="-7.616450">
        <ele>377.539</ele>
        <time>2022-08-20T12:38:56Z</time>
      </trkpt>
      <trkpt lat="42.800655" lon="-7.616532">
        <ele>376.101</ele>
        <time>2022-08-20T12:39:13Z</time>
      </trkpt>
      <trkpt lat="42.800665" lon="-7.616597">
        <ele>375.821</ele>
        <time>2022-08-20T12:39:20Z</time>
      </trkpt>
      <trkpt lat="42.800666" lon="-7.616658">
        <ele>374.609</ele>
        <time>2022-08-20T12:39:25Z</time>
      </trkpt>
      <trkpt lat="42.800673" lon="-7.616720">
        <ele>373.294</ele>
        <time>2022-08-20T12:39:30Z</time>
      </trkpt>
      <trkpt lat="42.800728" lon="-7.616887">
        <ele>371.954</ele>
        <time>2022-08-20T12:40:09Z</time>
      </trkpt>
      <trkpt lat="42.800742" lon="-7.616947">
        <ele>369.814</ele>
        <time>2022-08-20T12:40:17Z</time>
      </trkpt>
      <trkpt lat="42.800771" lon="-7.617007">
        <ele>367.375</ele>
        <time>2022-08-20T12:40:24Z</time>
      </trkpt>
      <trkpt lat="42.800802" lon="-7.617081">
        <ele>366.065</ele>
        <time>2022-08-20T12:40:36Z</time>
      </trkpt>
      <trkpt lat="42.800847" lon="-7.617100">
        <ele>365.548</ele>
        <time>2022-08-20T12:40:44Z</time>
      </trkpt>
      <trkpt lat="42.800894" lon="-7.617072">
        <ele>364.923</ele>
        <time>2022-08-20T12:40:49Z</time>
      </trkpt>
      <trkpt lat="42.800944" lon="-7.617067">
        <ele>363.513</ele>
        <time>2022-08-20T12:40:53Z</time>
      </trkpt>
      <trkpt lat="42.800989" lon="-7.617049">
        <ele>362.642</ele>
        <time>2022-08-20T12:40:57Z</time>
      </trkpt>
      <trkpt lat="42.801022" lon="-7.616997">
        <ele>362.428</ele>
        <time>2022-08-20T12:41:02Z</time>
      </trkpt>
      <trkpt lat="42.801058" lon="-7.616943">
        <ele>362.389</ele>
        <time>2022-08-20T12:41:07Z</time>
      </trkpt>
      <trkpt lat="42.801098" lon="-7.616901">
        <ele>362.117</ele>
        <time>2022-08-20T12:41:12Z</time>
      </trkpt>
      <trkpt lat="42.801135" lon="-7.616851">
        <ele>361.809</ele>
        <time>2022-08-20T12:41:17Z</time>
      </trkpt>
      <trkpt lat="42.801182" lon="-7.616812">
        <ele>361.563</ele>
        <time>2022-08-20T12:41:23Z</time>
      </trkpt>
      <trkpt lat="42.801212" lon="-7.616760">
        <ele>361.323</ele>
        <time>2022-08-20T12:41:27Z</time>
      </trkpt>
      <trkpt lat="42.801238" lon="-7.616699">
        <ele>361.243</ele>
        <time>2022-08-20T12:41:32Z</time>
      </trkpt>
      <trkpt lat="42.801265" lon="-7.616648">
        <ele>360.954</ele>
        <time>2022-08-20T12:41:36Z</time>
      </trkpt>
      <trkpt lat="42.801291" lon="-7.616593">
        <ele>360.634</ele>
        <time>2022-08-20T12:41:40Z</time>
      </trkpt>
      <trkpt lat="42.801333" lon="-7.616549">
        <ele>360.437</ele>
        <time>2022-08-20T12:41:44Z</time>
      </trkpt>
      <trkpt lat="42.801375" lon="-7.616498">
        <ele>360.252</ele>
        <time>2022-08-20T12:41:48Z</time>
      </trkpt>
      <trkpt lat="42.801414" lon="-7.616444">
        <ele>360.082</ele>
        <time>2022-08-20T12:41:52Z</time>
      </trkpt>
      <trkpt lat="42.801458" lon="-7.616390">
        <ele>359.651</ele>
        <time>2022-08-20T12:41:56Z</time>
      </trkpt>
      <trkpt lat="42.801490" lon="-7.616341">
        <ele>359.312</ele>
        <time>2022-08-20T12:42:00Z</time>
      </trkpt>
      <trkpt lat="42.801526" lon="-7.616279">
        <ele>358.932</ele>
        <time>2022-08-20T12:42:04Z</time>
      </trkpt>
      <trkpt lat="42.801553" lon="-7.616227">
        <ele>358.705</ele>
        <time>2022-08-20T12:42:08Z</time>
      </trkpt>
      <trkpt lat="42.801584" lon="-7.616162">
        <ele>358.409</ele>
        <time>2022-08-20T12:42:12Z</time>
      </trkpt>
      <trkpt lat="42.801614" lon="-7.616110">
        <ele>358.182</ele>
        <time>2022-08-20T12:42:16Z</time>
      </trkpt>
      <trkpt lat="42.801648" lon="-7.616059">
        <ele>357.942</ele>
        <time>2022-08-20T12:42:20Z</time>
      </trkpt>
      <trkpt lat="42.801693" lon="-7.616020">
        <ele>357.612</ele>
        <time>2022-08-20T12:42:24Z</time>
      </trkpt>
      <trkpt lat="42.801732" lon="-7.615973">
        <ele>357.423</ele>
        <time>2022-08-20T12:42:28Z</time>
      </trkpt>
      <trkpt lat="42.801762" lon="-7.615927">
        <ele>357.283</ele>
        <time>2022-08-20T12:42:31Z</time>
      </trkpt>
      <trkpt lat="42.801801" lon="-7.615874">
        <ele>357.076</ele>
        <time>2022-08-20T12:42:35Z</time>
      </trkpt>
      <trkpt lat="42.801843" lon="-7.615824">
        <ele>356.941</ele>
        <time>2022-08-20T12:42:39Z</time>
      </trkpt>
      <trkpt lat="42.801876" lon="-7.615773">
        <ele>356.881</ele>
        <time>2022-08-20T12:42:43Z</time>
      </trkpt>
      <trkpt lat="42.801918" lon="-7.615723">
        <ele>356.710</ele>
        <time>2022-08-20T12:42:48Z</time>
      </trkpt>
      <trkpt lat="42.801955" lon="-7.615680">
        <ele>356.689</ele>
        <time>2022-08-20T12:42:52Z</time>
      </trkpt>
      <trkpt lat="42.801984" lon="-7.615627">
        <ele>356.606</ele>
        <time>2022-08-20T12:42:56Z</time>
      </trkpt>
      <trkpt lat="42.802031" lon="-7.615611">
        <ele>356.626</ele>
        <time>2022-08-20T12:43:04Z</time>
      </trkpt>
      <trkpt lat="42.802071" lon="-7.615572">
        <ele>356.609</ele>
        <time>2022-08-20T12:43:50Z</time>
      </trkpt>
      <trkpt lat="42.802045" lon="-7.615517">
        <ele>356.459</ele>
        <time>2022-08-20T12:44:04Z</time>
      </trkpt>
      <trkpt lat="42.802044" lon="-7.615437">
        <ele>356.349</ele>
        <time>2022-08-20T12:44:10Z</time>
      </trkpt>
      <trkpt lat="42.802070" lon="-7.615368">
        <ele>356.379</ele>
        <time>2022-08-20T12:44:14Z</time>
      </trkpt>
      <trkpt lat="42.802072" lon="-7.615301">
        <ele>356.340</ele>
        <time>2022-08-20T12:44:17Z</time>
      </trkpt>
      <trkpt lat="42.802084" lon="-7.615242">
        <ele>356.490</ele>
        <time>2022-08-20T12:44:21Z</time>
      </trkpt>
      <trkpt lat="42.802092" lon="-7.615181">
        <ele>356.483</ele>
        <time>2022-08-20T12:44:25Z</time>
      </trkpt>
      <trkpt lat="42.802124" lon="-7.615123">
        <ele>356.488</ele>
        <time>2022-08-20T12:44:29Z</time>
      </trkpt>
      <trkpt lat="42.802168" lon="-7.615085">
        <ele>356.418</ele>
        <time>2022-08-20T12:44:33Z</time>
      </trkpt>
      <trkpt lat="42.802217" lon="-7.615076">
        <ele>356.497</ele>
        <time>2022-08-20T12:44:38Z</time>
      </trkpt>
      <trkpt lat="42.802267" lon="-7.615098">
        <ele>356.461</ele>
        <time>2022-08-20T12:44:45Z</time>
      </trkpt>
      <trkpt lat="42.802313" lon="-7.615111">
        <ele>356.421</ele>
        <time>2022-08-20T12:44:57Z</time>
      </trkpt>
      <trkpt lat="42.802365" lon="-7.615141">
        <ele>356.413</ele>
        <time>2022-08-20T12:45:03Z</time>
      </trkpt>
      <trkpt lat="42.802413" lon="-7.615167">
        <ele>356.309</ele>
        <time>2022-08-20T12:45:08Z</time>
      </trkpt>
      <trkpt lat="42.802461" lon="-7.615192">
        <ele>356.297</ele>
        <time>2022-08-20T12:45:13Z</time>
      </trkpt>
      <trkpt lat="42.802515" lon="-7.615218">
        <ele>356.157</ele>
        <time>2022-08-20T12:45:19Z</time>
      </trkpt>
      <trkpt lat="42.802561" lon="-7.615243">
        <ele>356.197</ele>
        <time>2022-08-20T12:45:23Z</time>
      </trkpt>
      <trkpt lat="42.802611" lon="-7.615256">
        <ele>356.138</ele>
        <time>2022-08-20T12:45:28Z</time>
      </trkpt>
      <trkpt lat="42.802649" lon="-7.615291">
        <ele>356.148</ele>
        <time>2022-08-20T12:45:32Z</time>
      </trkpt>
      <trkpt lat="42.802692" lon="-7.615316">
        <ele>356.121</ele>
        <time>2022-08-20T12:45:36Z</time>
      </trkpt>
      <trkpt lat="42.802737" lon="-7.615329">
        <ele>356.236</ele>
        <time>2022-08-20T12:45:40Z</time>
      </trkpt>
      <trkpt lat="42.802779" lon="-7.615358">
        <ele>356.316</ele>
        <time>2022-08-20T12:45:44Z</time>
      </trkpt>
      <trkpt lat="42.802834" lon="-7.615388">
        <ele>356.365</ele>
        <time>2022-08-20T12:45:49Z</time>
      </trkpt>
      <trkpt lat="42.802877" lon="-7.615414">
        <ele>356.362</ele>
        <time>2022-08-20T12:45:53Z</time>
      </trkpt>
      <trkpt lat="42.802920" lon="-7.615452">
        <ele>356.383</ele>
        <time>2022-08-20T12:45:57Z</time>
      </trkpt>
      <trkpt lat="42.802973" lon="-7.615480">
        <ele>356.311</ele>
        <time>2022-08-20T12:46:02Z</time>
      </trkpt>
      <trkpt lat="42.803015" lon="-7.615504">
        <ele>356.309</ele>
        <time>2022-08-20T12:46:06Z</time>
      </trkpt>
      <trkpt lat="42.803064" lon="-7.615524">
        <ele>356.397</ele>
        <time>2022-08-20T12:46:10Z</time>
      </trkpt>
      <trkpt lat="42.803108" lon="-7.615553">
        <ele>356.417</ele>
        <time>2022-08-20T12:46:14Z</time>
      </trkpt>
      <trkpt lat="42.803152" lon="-7.615583">
        <ele>356.477</ele>
        <time>2022-08-20T12:46:18Z</time>
      </trkpt>
      <trkpt lat="42.803193" lon="-7.615612">
        <ele>356.428</ele>
        <time>2022-08-20T12:46:22Z</time>
      </trkpt>
      <trkpt lat="42.803248" lon="-7.615636">
        <ele>356.458</ele>
        <time>2022-08-20T12:46:27Z</time>
      </trkpt>
      <trkpt lat="42.803295" lon="-7.615663">
        <ele>356.391</ele>
        <time>2022-08-20T12:46:31Z</time>
      </trkpt>
      <trkpt lat="42.803334" lon="-7.615693">
        <ele>356.226</ele>
        <time>2022-08-20T12:46:35Z</time>
      </trkpt>
      <trkpt lat="42.803379" lon="-7.615731">
        <ele>356.216</ele>
        <time>2022-08-20T12:46:39Z</time>
      </trkpt>
      <trkpt lat="42.803428" lon="-7.615763">
        <ele>356.295</ele>
        <time>2022-08-20T12:46:43Z</time>
      </trkpt>
      <trkpt lat="42.803475" lon="-7.615801">
        <ele>356.245</ele>
        <time>2022-08-20T12:46:47Z</time>
      </trkpt>
      <trkpt lat="42.803525" lon="-7.615831">
        <ele>356.347</ele>
        <time>2022-08-20T12:46:51Z</time>
      </trkpt>
      <trkpt lat="42.803568" lon="-7.615857">
        <ele>356.411</ele>
        <time>2022-08-20T12:46:55Z</time>
      </trkpt>
      <trkpt lat="42.803616" lon="-7.615888">
        <ele>356.409</ele>
        <time>2022-08-20T12:46:59Z</time>
      </trkpt>
      <trkpt lat="42.803663" lon="-7.615933">
        <ele>356.455</ele>
        <time>2022-08-20T12:47:03Z</time>
      </trkpt>
      <trkpt lat="42.803716" lon="-7.615971">
        <ele>356.485</ele>
        <time>2022-08-20T12:47:07Z</time>
      </trkpt>
      <trkpt lat="42.803765" lon="-7.616012">
        <ele>356.495</ele>
        <time>2022-08-20T12:47:11Z</time>
      </trkpt>
      <trkpt lat="42.803805" lon="-7.616046">
        <ele>356.546</ele>
        <time>2022-08-20T12:47:14Z</time>
      </trkpt>
      <trkpt lat="42.803853" lon="-7.616078">
        <ele>356.566</ele>
        <time>2022-08-20T12:47:18Z</time>
      </trkpt>
      <trkpt lat="42.803901" lon="-7.616115">
        <ele>356.599</ele>
        <time>2022-08-20T12:47:22Z</time>
      </trkpt>
      <trkpt lat="42.803951" lon="-7.616141">
        <ele>356.524</ele>
        <time>2022-08-20T12:47:26Z</time>
      </trkpt>
      <trkpt lat="42.803997" lon="-7.616170">
        <ele>356.554</ele>
        <time>2022-08-20T12:47:30Z</time>
      </trkpt>
      <trkpt lat="42.804044" lon="-7.616199">
        <ele>356.563</ele>
        <time>2022-08-20T12:47:34Z</time>
      </trkpt>
      <trkpt lat="42.804087" lon="-7.616237">
        <ele>356.536</ele>
        <time>2022-08-20T12:47:38Z</time>
      </trkpt>
      <trkpt lat="42.804131" lon="-7.616274">
        <ele>356.517</ele>
        <time>2022-08-20T12:47:42Z</time>
      </trkpt>
      <trkpt lat="42.804172" lon="-7.616314">
        <ele>356.618</ele>
        <time>2022-08-20T12:47:46Z</time>
      </trkpt>
      <trkpt lat="42.804217" lon="-7.616349">
        <ele>356.609</ele>
        <time>2022-08-20T12:47:50Z</time>
      </trkpt>
      <trkpt lat="42.804261" lon="-7.616376">
        <ele>356.664</ele>
        <time>2022-08-20T12:47:54Z</time>
      </trkpt>
      <trkpt lat="42.804308" lon="-7.616407">
        <ele>356.694</ele>
        <time>2022-08-20T12:47:59Z</time>
      </trkpt>
      <trkpt lat="42.804350" lon="-7.616440">
        <ele>356.694</ele>
        <time>2022-08-20T12:48:03Z</time>
      </trkpt>
      <trkpt lat="42.804392" lon="-7.616465">
        <ele>356.685</ele>
        <time>2022-08-20T12:48:07Z</time>
      </trkpt>
      <trkpt lat="42.804439" lon="-7.616496">
        <ele>356.675</ele>
        <time>2022-08-20T12:48:12Z</time>
      </trkpt>
      <trkpt lat="42.804483" lon="-7.616524">
        <ele>356.688</ele>
        <time>2022-08-20T12:48:16Z</time>
      </trkpt>
      <trkpt lat="42.804531" lon="-7.616559">
        <ele>356.693</ele>
        <time>2022-08-20T12:48:21Z</time>
      </trkpt>
      <trkpt lat="42.804576" lon="-7.616588">
        <ele>356.663</ele>
        <time>2022-08-20T12:48:25Z</time>
      </trkpt>
      <trkpt lat="42.804625" lon="-7.616626">
        <ele>356.792</ele>
        <time>2022-08-20T12:48:30Z</time>
      </trkpt>
      <trkpt lat="42.804672" lon="-7.616658">
        <ele>356.829</ele>
        <time>2022-08-20T12:48:35Z</time>
      </trkpt>
      <trkpt lat="42.804720" lon="-7.616675">
        <ele>356.800</ele>
        <time>2022-08-20T12:48:40Z</time>
      </trkpt>
      <trkpt lat="42.804784" lon="-7.616715">
        <ele>356.820</ele>
        <time>2022-08-20T12:48:54Z</time>
      </trkpt>
      <trkpt lat="42.804823" lon="-7.616745">
        <ele>356.809</ele>
        <time>2022-08-20T12:49:00Z</time>
      </trkpt>
      <trkpt lat="42.804862" lon="-7.616777">
        <ele>356.873</ele>
        <time>2022-08-20T12:49:04Z</time>
      </trkpt>
      <trkpt lat="42.804907" lon="-7.616794">
        <ele>356.843</ele>
        <time>2022-08-20T12:49:09Z</time>
      </trkpt>
      <trkpt lat="42.804951" lon="-7.616816">
        <ele>356.873</ele>
        <time>2022-08-20T12:49:14Z</time>
      </trkpt>
      <trkpt lat="42.805000" lon="-7.616832">
        <ele>356.814</ele>
        <time>2022-08-20T12:49:24Z</time>
      </trkpt>
      <trkpt lat="42.805043" lon="-7.616861">
        <ele>356.884</ele>
        <time>2022-08-20T12:49:34Z</time>
      </trkpt>
      <trkpt lat="42.805086" lon="-7.616892">
        <ele>357.367</ele>
        <time>2022-08-20T12:49:43Z</time>
      </trkpt>
      <trkpt lat="42.805129" lon="-7.616920">
        <ele>359.332</ele>
        <time>2022-08-20T12:49:48Z</time>
      </trkpt>
      <trkpt lat="42.805172" lon="-7.616954">
        <ele>362.312</ele>
        <time>2022-08-20T12:49:52Z</time>
      </trkpt>
      <trkpt lat="42.805221" lon="-7.616976">
        <ele>364.591</ele>
        <time>2022-08-20T12:49:58Z</time>
      </trkpt>
      <trkpt lat="42.805270" lon="-7.616996">
        <ele>365.384</ele>
        <time>2022-08-20T12:50:03Z</time>
      </trkpt>
      <trkpt lat="42.805320" lon="-7.617035">
        <ele>365.407</ele>
        <time>2022-08-20T12:50:14Z</time>
      </trkpt>
      <trkpt lat="42.805364" lon="-7.617080">
        <ele>365.417</ele>
        <time>2022-08-20T12:50:20Z</time>
      </trkpt>
      <trkpt lat="42.805409" lon="-7.617117">
        <ele>366.209</ele>
        <time>2022-08-20T12:50:26Z</time>
      </trkpt>
      <trkpt lat="42.805462" lon="-7.617138">
        <ele>367.989</ele>
        <time>2022-08-20T12:50:32Z</time>
      </trkpt>
      <trkpt lat="42.805514" lon="-7.617120">
        <ele>369.099</ele>
        <time>2022-08-20T12:50:37Z</time>
      </trkpt>
      <trkpt lat="42.805559" lon="-7.617105">
        <ele>369.749</ele>
        <time>2022-08-20T12:50:42Z</time>
      </trkpt>
      <trkpt lat="42.805608" lon="-7.617117">
        <ele>370.830</ele>
        <time>2022-08-20T12:50:48Z</time>
      </trkpt>
      <trkpt lat="42.805652" lon="-7.617087">
        <ele>371.810</ele>
        <time>2022-08-20T12:51:11Z</time>
      </trkpt>
      <trkpt lat="42.805694" lon="-7.617044">
        <ele>372.823</ele>
        <time>2022-08-20T12:51:17Z</time>
      </trkpt>
      <trkpt lat="42.805755" lon="-7.617083">
        <ele>373.838</ele>
        <time>2022-08-20T12:51:31Z</time>
      </trkpt>
      <trkpt lat="42.805769" lon="-7.617142">
        <ele>374.818</ele>
        <time>2022-08-20T12:51:36Z</time>
      </trkpt>
      <trkpt lat="42.805787" lon="-7.617211">
        <ele>375.587</ele>
        <time>2022-08-20T12:51:43Z</time>
      </trkpt>
      <trkpt lat="42.805802" lon="-7.617272">
        <ele>375.879</ele>
        <time>2022-08-20T12:51:49Z</time>
      </trkpt>
      <trkpt lat="42.805795" lon="-7.617340">
        <ele>375.805</ele>
        <time>2022-08-20T12:52:14Z</time>
      </trkpt>
      <trkpt lat="42.805806" lon="-7.617408">
        <ele>375.825</ele>
        <time>2022-08-20T12:52:18Z</time>
      </trkpt>
      <trkpt lat="42.805810" lon="-7.617477">
        <ele>375.809</ele>
        <time>2022-08-20T12:52:24Z</time>
      </trkpt>
      <trkpt lat="42.805839" lon="-7.617531">
        <ele>375.938</ele>
        <time>2022-08-20T12:52:28Z</time>
      </trkpt>
      <trkpt lat="42.805858" lon="-7.617607">
        <ele>376.058</ele>
        <time>2022-08-20T12:52:32Z</time>
      </trkpt>
      <trkpt lat="42.805866" lon="-7.617676">
        <ele>376.038</ele>
        <time>2022-08-20T12:52:37Z</time>
      </trkpt>
      <trkpt lat="42.805874" lon="-7.617746">
        <ele>376.039</ele>
        <time>2022-08-20T12:52:42Z</time>
      </trkpt>
      <trkpt lat="42.805869" lon="-7.617820">
        <ele>376.169</ele>
        <time>2022-08-20T12:52:49Z</time>
      </trkpt>
      <trkpt lat="42.805893" lon="-7.617892">
        <ele>376.362</ele>
        <time>2022-08-20T12:52:53Z</time>
      </trkpt>
      <trkpt lat="42.805899" lon="-7.617963">
        <ele>376.687</ele>
        <time>2022-08-20T12:52:58Z</time>
      </trkpt>
      <trkpt lat="42.805905" lon="-7.618024">
        <ele>376.967</ele>
        <time>2022-08-20T12:53:02Z</time>
      </trkpt>
      <trkpt lat="42.805920" lon="-7.618084">
        <ele>376.946</ele>
        <time>2022-08-20T12:53:06Z</time>
      </trkpt>
      <trkpt lat="42.805960" lon="-7.618132">
        <ele>376.939</ele>
        <time>2022-08-20T12:53:12Z</time>
      </trkpt>
      <trkpt lat="42.806006" lon="-7.618142">
        <ele>376.901</ele>
        <time>2022-08-20T12:53:18Z</time>
      </trkpt>
      <trkpt lat="42.806063" lon="-7.618111">
        <ele>377.121</ele>
        <time>2022-08-20T12:53:23Z</time>
      </trkpt>
      <trkpt lat="42.806102" lon="-7.618079">
        <ele>377.509</ele>
        <time>2022-08-20T12:53:26Z</time>
      </trkpt>
      <trkpt lat="42.806154" lon="-7.618040">
        <ele>378.194</ele>
        <time>2022-08-20T12:53:38Z</time>
      </trkpt>
      <trkpt lat="42.806148" lon="-7.617969">
        <ele>378.734</ele>
        <time>2022-08-20T12:53:44Z</time>
      </trkpt>
      <trkpt lat="42.806126" lon="-7.617900">
        <ele>380.694</ele>
        <time>2022-08-20T12:53:50Z</time>
      </trkpt>
      <trkpt lat="42.806105" lon="-7.617835">
        <ele>380.995</ele>
        <time>2022-08-20T12:53:56Z</time>
      </trkpt>
      <trkpt lat="42.806080" lon="-7.617784">
        <ele>381.325</ele>
        <time>2022-08-20T12:54:00Z</time>
      </trkpt>
      <trkpt lat="42.806067" lon="-7.617710">
        <ele>381.638</ele>
        <time>2022-08-20T12:54:05Z</time>
      </trkpt>
      <trkpt lat="42.806069" lon="-7.617641">
        <ele>381.633</ele>
        <time>2022-08-20T12:54:10Z</time>
      </trkpt>
      <trkpt lat="42.806123" lon="-7.617396">
        <ele>375.793</ele>
        <time>2022-08-21T07:02:23Z</time>
      </trkpt>
      <trkpt lat="42.806142" lon="-7.617460">
        <ele>375.465</ele>
        <time>2022-08-21T07:02:27Z</time>
      </trkpt>
      <trkpt lat="42.806152" lon="-7.617529">
        <ele>375.121</ele>
        <time>2022-08-21T07:02:31Z</time>
      </trkpt>
      <trkpt lat="42.806163" lon="-7.617600">
        <ele>375.309</ele>
        <time>2022-08-21T07:02:35Z</time>
      </trkpt>
      <trkpt lat="42.806160" lon="-7.617664">
        <ele>375.580</ele>
        <time>2022-08-21T07:02:38Z</time>
      </trkpt>
      <trkpt lat="42.806200" lon="-7.617710">
        <ele>375.630</ele>
        <time>2022-08-21T07:02:46Z</time>
      </trkpt>
      <trkpt lat="42.806200" lon="-7.617779">
        <ele>375.650</ele>
        <time>2022-08-21T07:03:03Z</time>
      </trkpt>
      <trkpt lat="42.806218" lon="-7.617853">
        <ele>375.892</ele>
        <time>2022-08-21T07:03:08Z</time>
      </trkpt>
      <trkpt lat="42.806225" lon="-7.617914">
        <ele>375.824</ele>
        <time>2022-08-21T07:03:12Z</time>
      </trkpt>
      <trkpt lat="42.806235" lon="-7.617976">
        <ele>375.819</ele>
        <time>2022-08-21T07:03:16Z</time>
      </trkpt>
      <trkpt lat="42.806247" lon="-7.618041">
        <ele>375.889</ele>
        <time>2022-08-21T07:03:20Z</time>
      </trkpt>
      <trkpt lat="42.806266" lon="-7.618107">
        <ele>375.562</ele>
        <time>2022-08-21T07:03:24Z</time>
      </trkpt>
      <trkpt lat="42.806275" lon="-7.618176">
        <ele>375.134</ele>
        <time>2022-08-21T07:03:28Z</time>
      </trkpt>
      <trkpt lat="42.806292" lon="-7.618255">
        <ele>374.858</ele>
        <time>2022-08-21T07:03:32Z</time>
      </trkpt>
      <trkpt lat="42.806310" lon="-7.618314">
        <ele>374.452</ele>
        <time>2022-08-21T07:03:36Z</time>
      </trkpt>
      <trkpt lat="42.806328" lon="-7.618380">
        <ele>373.917</ele>
        <time>2022-08-21T07:03:40Z</time>
      </trkpt>
      <trkpt lat="42.806336" lon="-7.618442">
        <ele>373.409</ele>
        <time>2022-08-21T07:03:44Z</time>
      </trkpt>
      <trkpt lat="42.806353" lon="-7.618510">
        <ele>373.016</ele>
        <time>2022-08-21T07:03:48Z</time>
      </trkpt>
      <trkpt lat="42.806367" lon="-7.618577">
        <ele>372.636</ele>
        <time>2022-08-21T07:03:52Z</time>
      </trkpt>
      <trkpt lat="42.806384" lon="-7.618646">
        <ele>372.476</ele>
        <time>2022-08-21T07:03:56Z</time>
      </trkpt>
      <trkpt lat="42.806389" lon="-7.618712">
        <ele>372.168</ele>
        <time>2022-08-21T07:03:59Z</time>
      </trkpt>
      <trkpt lat="42.806403" lon="-7.618777">
        <ele>371.790</ele>
        <time>2022-08-21T07:04:03Z</time>
      </trkpt>
      <trkpt lat="42.806419" lon="-7.618846">
        <ele>371.325</ele>
        <time>2022-08-21T07:04:08Z</time>
      </trkpt>
      <trkpt lat="42.806438" lon="-7.618907">
        <ele>370.815</ele>
        <time>2022-08-21T07:04:13Z</time>
      </trkpt>
      <trkpt lat="42.806457" lon="-7.618976">
        <ele>370.378</ele>
        <time>2022-08-21T07:04:17Z</time>
      </trkpt>
      <trkpt lat="42.806477" lon="-7.619047">
        <ele>369.870</ele>
        <time>2022-08-21T07:04:21Z</time>
      </trkpt>
      <trkpt lat="42.806497" lon="-7.619105">
        <ele>369.381</ele>
        <time>2022-08-21T07:04:25Z</time>
      </trkpt>
      <trkpt lat="42.806512" lon="-7.619175">
        <ele>368.861</ele>
        <time>2022-08-21T07:04:29Z</time>
      </trkpt>
      <trkpt lat="42.806520" lon="-7.619248">
        <ele>368.217</ele>
        <time>2022-08-21T07:04:33Z</time>
      </trkpt>
      <trkpt lat="42.806539" lon="-7.619326">
        <ele>367.309</ele>
        <time>2022-08-21T07:04:38Z</time>
      </trkpt>
      <trkpt lat="42.806549" lon="-7.619403">
        <ele>366.899</ele>
        <time>2022-08-21T07:04:42Z</time>
      </trkpt>
      <trkpt lat="42.806552" lon="-7.619470">
        <ele>366.289</ele>
        <time>2022-08-21T07:04:46Z</time>
      </trkpt>
      <trkpt lat="42.806551" lon="-7.619541">
        <ele>365.819</ele>
        <time>2022-08-21T07:04:50Z</time>
      </trkpt>
      <trkpt lat="42.806550" lon="-7.619611">
        <ele>365.391</ele>
        <time>2022-08-21T07:04:55Z</time>
      </trkpt>
      <trkpt lat="42.806547" lon="-7.619683">
        <ele>365.063</ele>
        <time>2022-08-21T07:04:59Z</time>
      </trkpt>
      <trkpt lat="42.806542" lon="-7.619748">
        <ele>364.438</ele>
        <time>2022-08-21T07:05:02Z</time>
      </trkpt>
      <trkpt lat="42.806529" lon="-7.619821">
        <ele>363.868</ele>
        <time>2022-08-21T07:05:06Z</time>
      </trkpt>
      <trkpt lat="42.806534" lon="-7.619884">
        <ele>363.461</ele>
        <time>2022-08-21T07:05:09Z</time>
      </trkpt>
      <trkpt lat="42.806530" lon="-7.619962">
        <ele>363.173</ele>
        <time>2022-08-21T07:05:13Z</time>
      </trkpt>
      <trkpt lat="42.806526" lon="-7.620040">
        <ele>362.974</ele>
        <time>2022-08-21T07:05:17Z</time>
      </trkpt>
      <trkpt lat="42.806520" lon="-7.620115">
        <ele>362.656</ele>
        <time>2022-08-21T07:05:21Z</time>
      </trkpt>
      <trkpt lat="42.806513" lon="-7.620189">
        <ele>362.421</ele>
        <time>2022-08-21T07:05:25Z</time>
      </trkpt>
      <trkpt lat="42.806507" lon="-7.620264">
        <ele>362.109</ele>
        <time>2022-08-21T07:05:29Z</time>
      </trkpt>
      <trkpt lat="42.806499" lon="-7.620338">
        <ele>361.868</ele>
        <time>2022-08-21T07:05:34Z</time>
      </trkpt>
      <trkpt lat="42.806501" lon="-7.620406">
        <ele>361.518</ele>
        <time>2022-08-21T07:05:39Z</time>
      </trkpt>
      <trkpt lat="42.806495" lon="-7.620477">
        <ele>361.378</ele>
        <time>2022-08-21T07:05:43Z</time>
      </trkpt>
      <trkpt lat="42.806491" lon="-7.620542">
        <ele>361.060</ele>
        <time>2022-08-21T07:05:47Z</time>
      </trkpt>
      <trkpt lat="42.806488" lon="-7.620606">
        <ele>360.632</ele>
        <time>2022-08-21T07:05:51Z</time>
      </trkpt>
      <trkpt lat="42.806488" lon="-7.620668">
        <ele>360.347</ele>
        <time>2022-08-21T07:05:55Z</time>
      </trkpt>
      <trkpt lat="42.806484" lon="-7.620739">
        <ele>360.097</ele>
        <time>2022-08-21T07:05:59Z</time>
      </trkpt>
      <trkpt lat="42.806482" lon="-7.620809">
        <ele>359.720</ele>
        <time>2022-08-21T07:06:03Z</time>
      </trkpt>
      <trkpt lat="42.806476" lon="-7.620872">
        <ele>359.522</ele>
        <time>2022-08-21T07:06:07Z</time>
      </trkpt>
      <trkpt lat="42.806427" lon="-7.620904">
        <ele>359.421</ele>
        <time>2022-08-21T07:06:12Z</time>
      </trkpt>
      <trkpt lat="42.806375" lon="-7.620880">
        <ele>359.341</ele>
        <time>2022-08-21T07:06:16Z</time>
      </trkpt>
      <trkpt lat="42.806350" lon="-7.620824">
        <ele>358.805</ele>
        <time>2022-08-21T07:06:20Z</time>
      </trkpt>
      <trkpt lat="42.806343" lon="-7.620758">
        <ele>358.009</ele>
        <time>2022-08-21T07:06:25Z</time>
      </trkpt>
      <trkpt lat="42.806337" lon="-7.620683">
        <ele>357.563</ele>
        <time>2022-08-21T07:06:29Z</time>
      </trkpt>
      <trkpt lat="42.806345" lon="-7.620606">
        <ele>357.263</ele>
        <time>2022-08-21T07:06:34Z</time>
      </trkpt>
      <trkpt lat="42.806343" lon="-7.620527">
        <ele>356.963</ele>
        <time>2022-08-21T07:06:39Z</time>
      </trkpt>
      <trkpt lat="42.806340" lon="-7.620446">
        <ele>356.315</ele>
        <time>2022-08-21T07:06:44Z</time>
      </trkpt>
      <trkpt lat="42.806336" lon="-7.620382">
        <ele>355.827</ele>
        <time>2022-08-21T07:06:48Z</time>
      </trkpt>
      <trkpt lat="42.806330" lon="-7.620308">
        <ele>355.642</ele>
        <time>2022-08-21T07:06:53Z</time>
      </trkpt>
      <trkpt lat="42.806325" lon="-7.620239">
        <ele>355.342</ele>
        <time>2022-08-21T07:06:57Z</time>
      </trkpt>
      <trkpt lat="42.806318" lon="-7.620162">
        <ele>355.065</ele>
        <time>2022-08-21T07:07:01Z</time>
      </trkpt>
      <trkpt lat="42.806314" lon="-7.620085">
        <ele>354.577</ele>
        <time>2022-08-21T07:07:06Z</time>
      </trkpt>
      <trkpt lat="42.806316" lon="-7.620013">
        <ele>353.922</ele>
        <time>2022-08-21T07:07:10Z</time>
      </trkpt>
      <trkpt lat="42.806319" lon="-7.619936">
        <ele>353.562</ele>
        <time>2022-08-21T07:07:14Z</time>
      </trkpt>
      <trkpt lat="42.806324" lon="-7.619875">
        <ele>353.408</ele>
        <time>2022-08-21T07:07:18Z</time>
      </trkpt>
      <trkpt lat="42.806310" lon="-7.619817">
        <ele>353.109</ele>
        <time>2022-08-21T07:07:22Z</time>
      </trkpt>
      <trkpt lat="42.806287" lon="-7.619755">
        <ele>352.883</ele>
        <time>2022-08-21T07:07:27Z</time>
      </trkpt>
      <trkpt lat="42.806265" lon="-7.619687">
        <ele>352.543</ele>
        <time>2022-08-21T07:07:31Z</time>
      </trkpt>
      <trkpt lat="42.806249" lon="-7.619629">
        <ele>352.383</ele>
        <time>2022-08-21T07:07:35Z</time>
      </trkpt>
      <trkpt lat="42.806228" lon="-7.619563">
        <ele>352.125</ele>
        <time>2022-08-21T07:07:39Z</time>
      </trkpt>
      <trkpt lat="42.806208" lon="-7.619504">
        <ele>351.997</ele>
        <time>2022-08-21T07:07:43Z</time>
      </trkpt>
      <trkpt lat="42.806184" lon="-7.619429">
        <ele>351.782</ele>
        <time>2022-08-21T07:07:47Z</time>
      </trkpt>
      <trkpt lat="42.806150" lon="-7.619363">
        <ele>351.542</ele>
        <time>2022-08-21T07:07:51Z</time>
      </trkpt>
      <trkpt lat="42.806129" lon="-7.619289">
        <ele>351.355</ele>
        <time>2022-08-21T07:07:55Z</time>
      </trkpt>
      <trkpt lat="42.806097" lon="-7.619232">
        <ele>351.397</ele>
        <time>2022-08-21T07:07:59Z</time>
      </trkpt>
      <trkpt lat="42.806064" lon="-7.619173">
        <ele>351.279</ele>
        <time>2022-08-21T07:08:03Z</time>
      </trkpt>
      <trkpt lat="42.806022" lon="-7.619142">
        <ele>351.205</ele>
        <time>2022-08-21T07:08:07Z</time>
      </trkpt>
      <trkpt lat="42.805984" lon="-7.619096">
        <ele>351.225</ele>
        <time>2022-08-21T07:08:11Z</time>
      </trkpt>
      <trkpt lat="42.805942" lon="-7.619068">
        <ele>351.209</ele>
        <time>2022-08-21T07:08:15Z</time>
      </trkpt>
      <trkpt lat="42.805897" lon="-7.619028">
        <ele>351.188</ele>
        <time>2022-08-21T07:08:19Z</time>
      </trkpt>
      <trkpt lat="42.805848" lon="-7.619000">
        <ele>351.168</ele>
        <time>2022-08-21T07:08:23Z</time>
      </trkpt>
      <trkpt lat="42.805799" lon="-7.618989">
        <ele>351.188</ele>
        <time>2022-08-21T07:08:27Z</time>
      </trkpt>
      <trkpt lat="42.805751" lon="-7.619019">
        <ele>351.060</ele>
        <time>2022-08-21T07:08:31Z</time>
      </trkpt>
      <trkpt lat="42.805722" lon="-7.619083">
        <ele>350.912</ele>
        <time>2022-08-21T07:08:35Z</time>
      </trkpt>
      <trkpt lat="42.805697" lon="-7.619151">
        <ele>350.997</ele>
        <time>2022-08-21T07:08:39Z</time>
      </trkpt>
      <trkpt lat="42.805675" lon="-7.619217">
        <ele>350.947</ele>
        <time>2022-08-21T07:08:43Z</time>
      </trkpt>
      <trkpt lat="42.805652" lon="-7.619280">
        <ele>350.940</ele>
        <time>2022-08-21T07:08:47Z</time>
      </trkpt>
      <trkpt lat="42.805629" lon="-7.619335">
        <ele>350.952</ele>
        <time>2022-08-21T07:08:51Z</time>
      </trkpt>
      <trkpt lat="42.805605" lon="-7.619394">
        <ele>350.895</ele>
        <time>2022-08-21T07:08:55Z</time>
      </trkpt>
      <trkpt lat="42.805578" lon="-7.619456">
        <ele>350.749</ele>
        <time>2022-08-21T07:08:59Z</time>
      </trkpt>
      <trkpt lat="42.805555" lon="-7.619514">
        <ele>350.623</ele>
        <time>2022-08-21T07:09:03Z</time>
      </trkpt>
      <trkpt lat="42.805526" lon="-7.619572">
        <ele>350.509</ele>
        <time>2022-08-21T07:09:07Z</time>
      </trkpt>
      <trkpt lat="42.805504" lon="-7.619641">
        <ele>350.470</ele>
        <time>2022-08-21T07:09:12Z</time>
      </trkpt>
      <trkpt lat="42.805473" lon="-7.619704">
        <ele>350.310</ele>
        <time>2022-08-21T07:09:16Z</time>
      </trkpt>
      <trkpt lat="42.805443" lon="-7.619762">
        <ele>350.210</ele>
        <time>2022-08-21T07:09:20Z</time>
      </trkpt>
      <trkpt lat="42.805415" lon="-7.619820">
        <ele>350.122</ele>
        <time>2022-08-21T07:09:24Z</time>
      </trkpt>
      <trkpt lat="42.805391" lon="-7.619883">
        <ele>350.074</ele>
        <time>2022-08-21T07:09:28Z</time>
      </trkpt>
      <trkpt lat="42.805378" lon="-7.619950">
        <ele>349.919</ele>
        <time>2022-08-21T07:09:32Z</time>
      </trkpt>
      <trkpt lat="42.805386" lon="-7.620022">
        <ele>349.829</ele>
        <time>2022-08-21T07:09:36Z</time>
      </trkpt>
      <trkpt lat="42.805411" lon="-7.620086">
        <ele>349.652</ele>
        <time>2022-08-21T07:09:41Z</time>
      </trkpt>
      <trkpt lat="42.805440" lon="-7.620152">
        <ele>349.464</ele>
        <time>2022-08-21T07:09:45Z</time>
      </trkpt>
      <trkpt lat="42.805476" lon="-7.620206">
        <ele>349.399</ele>
        <time>2022-08-21T07:09:50Z</time>
      </trkpt>
      <trkpt lat="42.805498" lon="-7.620262">
        <ele>349.207</ele>
        <time>2022-08-21T07:09:54Z</time>
      </trkpt>
      <trkpt lat="42.805503" lon="-7.620324">
        <ele>349.127</ele>
        <time>2022-08-21T07:09:57Z</time>
      </trkpt>
      <trkpt lat="42.805505" lon="-7.620401">
        <ele>349.009</ele>
        <time>2022-08-21T07:10:01Z</time>
      </trkpt>
      <trkpt lat="42.805515" lon="-7.620465">
        <ele>348.880</ele>
        <time>2022-08-21T07:10:06Z</time>
      </trkpt>
      <trkpt lat="42.805495" lon="-7.620525">
        <ele>348.460</ele>
        <time>2022-08-21T07:10:10Z</time>
      </trkpt>
      <trkpt lat="42.805469" lon="-7.620597">
        <ele>348.180</ele>
        <time>2022-08-21T07:10:13Z</time>
      </trkpt>
      <trkpt lat="42.805434" lon="-7.620642">
        <ele>348.142</ele>
        <time>2022-08-21T07:10:16Z</time>
      </trkpt>
      <trkpt lat="42.805415" lon="-7.620699">
        <ele>348.134</ele>
        <time>2022-08-21T07:10:20Z</time>
      </trkpt>
      <trkpt lat="42.805395" lon="-7.620755">
        <ele>348.279</ele>
        <time>2022-08-21T07:10:23Z</time>
      </trkpt>
      <trkpt lat="42.805366" lon="-7.620826">
        <ele>348.539</ele>
        <time>2022-08-21T07:10:27Z</time>
      </trkpt>
      <trkpt lat="42.805339" lon="-7.620890">
        <ele>348.732</ele>
        <time>2022-08-21T07:10:31Z</time>
      </trkpt>
      <trkpt lat="42.805310" lon="-7.620948">
        <ele>349.014</ele>
        <time>2022-08-21T07:10:35Z</time>
      </trkpt>
      <trkpt lat="42.805287" lon="-7.621001">
        <ele>349.419</ele>
        <time>2022-08-21T07:10:39Z</time>
      </trkpt>
      <trkpt lat="42.805261" lon="-7.621052">
        <ele>349.909</ele>
        <time>2022-08-21T07:10:43Z</time>
      </trkpt>
      <trkpt lat="42.805243" lon="-7.621124">
        <ele>350.419</ele>
        <time>2022-08-21T07:10:47Z</time>
      </trkpt>
      <trkpt lat="42.805205" lon="-7.621180">
        <ele>351.009</ele>
        <time>2022-08-21T07:10:52Z</time>
      </trkpt>
      <trkpt lat="42.805194" lon="-7.621259">
        <ele>351.672</ele>
        <time>2022-08-21T07:10:57Z</time>
      </trkpt>
      <trkpt lat="42.805203" lon="-7.621329">
        <ele>352.272</ele>
        <time>2022-08-21T07:11:01Z</time>
      </trkpt>
      <trkpt lat="42.805215" lon="-7.621401">
        <ele>353.242</ele>
        <time>2022-08-21T07:11:05Z</time>
      </trkpt>
      <trkpt lat="42.805233" lon="-7.621483">
        <ele>353.744</ele>
        <time>2022-08-21T07:11:10Z</time>
      </trkpt>
      <trkpt lat="42.805230" lon="-7.621544">
        <ele>354.066</ele>
        <time>2022-08-21T07:11:14Z</time>
      </trkpt>
      <trkpt lat="42.805232" lon="-7.621607">
        <ele>354.181</ele>
        <time>2022-08-21T07:11:19Z</time>
      </trkpt>
      <trkpt lat="42.805232" lon="-7.621674">
        <ele>354.321</ele>
        <time>2022-08-21T07:11:25Z</time>
      </trkpt>
      <trkpt lat="42.805227" lon="-7.621737">
        <ele>354.674</ele>
        <time>2022-08-21T07:11:31Z</time>
      </trkpt>
      <trkpt lat="42.805229" lon="-7.621807">
        <ele>355.146</ele>
        <time>2022-08-21T07:11:36Z</time>
      </trkpt>
      <trkpt lat="42.805226" lon="-7.621884">
        <ele>355.834</ele>
        <time>2022-08-21T07:11:40Z</time>
      </trkpt>
      <trkpt lat="42.805228" lon="-7.621957">
        <ele>356.555</ele>
        <time>2022-08-21T07:11:45Z</time>
      </trkpt>
      <trkpt lat="42.805218" lon="-7.622030">
        <ele>357.010</ele>
        <time>2022-08-21T07:11:49Z</time>
      </trkpt>
      <trkpt lat="42.805219" lon="-7.622120">
        <ele>358.009</ele>
        <time>2022-08-21T07:11:56Z</time>
      </trkpt>
      <trkpt lat="42.805215" lon="-7.622195">
        <ele>358.684</ele>
        <time>2022-08-21T07:12:00Z</time>
      </trkpt>
      <trkpt lat="42.805199" lon="-7.622256">
        <ele>359.774</ele>
        <time>2022-08-21T07:12:06Z</time>
      </trkpt>
      <trkpt lat="42.805178" lon="-7.622310">
        <ele>360.064</ele>
        <time>2022-08-21T07:12:11Z</time>
      </trkpt>
      <trkpt lat="42.805153" lon="-7.622374">
        <ele>360.876</ele>
        <time>2022-08-21T07:12:16Z</time>
      </trkpt>
      <trkpt lat="42.805129" lon="-7.622431">
        <ele>361.718</ele>
        <time>2022-08-21T07:12:20Z</time>
      </trkpt>
      <trkpt lat="42.805097" lon="-7.622481">
        <ele>362.463</ele>
        <time>2022-08-21T07:12:25Z</time>
      </trkpt>
      <trkpt lat="42.805066" lon="-7.622545">
        <ele>363.123</ele>
        <time>2022-08-21T07:12:29Z</time>
      </trkpt>
      <trkpt lat="42.805049" lon="-7.622605">
        <ele>364.026</ele>
        <time>2022-08-21T07:12:34Z</time>
      </trkpt>
      <trkpt lat="42.805031" lon="-7.622674">
        <ele>364.858</ele>
        <time>2022-08-21T07:12:40Z</time>
      </trkpt>
      <trkpt lat="42.805018" lon="-7.622747">
        <ele>365.634</ele>
        <time>2022-08-21T07:12:44Z</time>
      </trkpt>
      <trkpt lat="42.804989" lon="-7.622805">
        <ele>366.655</ele>
        <time>2022-08-21T07:12:48Z</time>
      </trkpt>
      <trkpt lat="42.804962" lon="-7.622875">
        <ele>367.410</ele>
        <time>2022-08-21T07:12:53Z</time>
      </trkpt>
      <trkpt lat="42.804950" lon="-7.622941">
        <ele>368.009</ele>
        <time>2022-08-21T07:12:58Z</time>
      </trkpt>
      <trkpt lat="42.804930" lon="-7.623005">
        <ele>368.624</ele>
        <time>2022-08-21T07:13:02Z</time>
      </trkpt>
      <trkpt lat="42.804893" lon="-7.623067">
        <ele>369.754</ele>
        <time>2022-08-21T07:13:07Z</time>
      </trkpt>
      <trkpt lat="42.804870" lon="-7.623128">
        <ele>370.034</ele>
        <time>2022-08-21T07:13:13Z</time>
      </trkpt>
      <trkpt lat="42.804848" lon="-7.623186">
        <ele>370.776</ele>
        <time>2022-08-21T07:13:19Z</time>
      </trkpt>
      <trkpt lat="42.804828" lon="-7.623254">
        <ele>371.578</ele>
        <time>2022-08-21T07:13:23Z</time>
      </trkpt>
      <trkpt lat="42.804810" lon="-7.623313">
        <ele>372.493</ele>
        <time>2022-08-21T07:13:28Z</time>
      </trkpt>
      <trkpt lat="42.804788" lon="-7.623377">
        <ele>373.133</ele>
        <time>2022-08-21T07:13:33Z</time>
      </trkpt>
      <trkpt lat="42.804762" lon="-7.623444">
        <ele>373.666</ele>
        <time>2022-08-21T07:13:38Z</time>
      </trkpt>
      <trkpt lat="42.804739" lon="-7.623511">
        <ele>374.278</ele>
        <time>2022-08-21T07:13:43Z</time>
      </trkpt>
      <trkpt lat="42.804721" lon="-7.623570">
        <ele>374.952</ele>
        <time>2022-08-21T07:13:48Z</time>
      </trkpt>
      <trkpt lat="42.804713" lon="-7.623631">
        <ele>375.753</ele>
        <time>2022-08-21T07:13:52Z</time>
      </trkpt>
      <trkpt lat="42.804698" lon="-7.623711">
        <ele>376.408</ele>
        <time>2022-08-21T07:13:58Z</time>
      </trkpt>
      <trkpt lat="42.804689" lon="-7.623782">
        <ele>377.009</ele>
        <time>2022-08-21T07:14:03Z</time>
      </trkpt>
      <trkpt lat="42.804675" lon="-7.623857">
        <ele>377.946</ele>
        <time>2022-08-21T07:14:08Z</time>
      </trkpt>
      <trkpt lat="42.804658" lon="-7.623939">
        <ele>379.386</ele>
        <time>2022-08-21T07:14:12Z</time>
      </trkpt>
      <trkpt lat="42.804656" lon="-7.624011">
        <ele>380.056</ele>
        <time>2022-08-21T07:14:16Z</time>
      </trkpt>
      <trkpt lat="42.804660" lon="-7.624084">
        <ele>380.258</ele>
        <time>2022-08-21T07:14:21Z</time>
      </trkpt>
      <trkpt lat="42.804665" lon="-7.624146">
        <ele>380.320</ele>
        <time>2022-08-21T07:14:24Z</time>
      </trkpt>
      <trkpt lat="42.804669" lon="-7.624222">
        <ele>380.635</ele>
        <time>2022-08-21T07:14:29Z</time>
      </trkpt>
      <trkpt lat="42.804683" lon="-7.624296">
        <ele>380.715</ele>
        <time>2022-08-21T07:14:33Z</time>
      </trkpt>
      <trkpt lat="42.804692" lon="-7.624368">
        <ele>381.058</ele>
        <time>2022-08-21T07:14:37Z</time>
      </trkpt>
      <trkpt lat="42.804701" lon="-7.624435">
        <ele>381.220</ele>
        <time>2022-08-21T07:14:41Z</time>
      </trkpt>
      <trkpt lat="42.804712" lon="-7.624505">
        <ele>381.365</ele>
        <time>2022-08-21T07:14:45Z</time>
      </trkpt>
      <trkpt lat="42.804720" lon="-7.624579">
        <ele>381.568</ele>
        <time>2022-08-21T07:14:49Z</time>
      </trkpt>
      <trkpt lat="42.804727" lon="-7.624641">
        <ele>381.714</ele>
        <time>2022-08-21T07:14:53Z</time>
      </trkpt>
      <trkpt lat="42.804714" lon="-7.624718">
        <ele>381.909</ele>
        <time>2022-08-21T07:15:00Z</time>
      </trkpt>
      <trkpt lat="42.804708" lon="-7.624798">
        <ele>382.237</ele>
        <time>2022-08-21T07:15:06Z</time>
      </trkpt>
      <trkpt lat="42.804696" lon="-7.624871">
        <ele>382.717</ele>
        <time>2022-08-21T07:15:11Z</time>
      </trkpt>
      <trkpt lat="42.804685" lon="-7.624936">
        <ele>383.027</ele>
        <time>2022-08-21T07:15:15Z</time>
      </trkpt>
      <trkpt lat="42.804671" lon="-7.624999">
        <ele>383.839</ele>
        <time>2022-08-21T07:15:20Z</time>
      </trkpt>
      <trkpt lat="42.804660" lon="-7.625084">
        <ele>384.241</ele>
        <time>2022-08-21T07:15:29Z</time>
      </trkpt>
      <trkpt lat="42.804674" lon="-7.625156">
        <ele>384.856</ele>
        <time>2022-08-21T07:15:35Z</time>
      </trkpt>
      <trkpt lat="42.804700" lon="-7.625206">
        <ele>385.396</ele>
        <time>2022-08-21T07:15:41Z</time>
      </trkpt>
      <trkpt lat="42.804721" lon="-7.625262">
        <ele>386.039</ele>
        <time>2022-08-21T07:15:45Z</time>
      </trkpt>
      <trkpt lat="42.804763" lon="-7.625327">
        <ele>386.461</ele>
        <time>2022-08-21T07:15:49Z</time>
      </trkpt>
      <trkpt lat="42.804805" lon="-7.625373">
        <ele>386.596</ele>
        <time>2022-08-21T07:15:54Z</time>
      </trkpt>
      <trkpt lat="42.804838" lon="-7.625423">
        <ele>386.631</ele>
        <time>2022-08-21T07:15:58Z</time>
      </trkpt>
      <trkpt lat="42.804865" lon="-7.625478">
        <ele>386.724</ele>
        <time>2022-08-21T07:16:03Z</time>
      </trkpt>
      <trkpt lat="42.804892" lon="-7.625536">
        <ele>386.909</ele>
        <time>2022-08-21T07:16:07Z</time>
      </trkpt>
      <trkpt lat="42.804926" lon="-7.625603">
        <ele>387.390</ele>
        <time>2022-08-21T07:16:10Z</time>
      </trkpt>
      <trkpt lat="42.804948" lon="-7.625657">
        <ele>387.730</ele>
        <time>2022-08-21T07:16:13Z</time>
      </trkpt>
      <trkpt lat="42.804970" lon="-7.625710">
        <ele>387.960</ele>
        <time>2022-08-21T07:16:16Z</time>
      </trkpt>
      <trkpt lat="42.804992" lon="-7.625770">
        <ele>388.272</ele>
        <time>2022-08-21T07:16:21Z</time>
      </trkpt>
      <trkpt lat="42.805012" lon="-7.625855">
        <ele>388.694</ele>
        <time>2022-08-21T07:16:25Z</time>
      </trkpt>
      <trkpt lat="42.805009" lon="-7.625929">
        <ele>389.059</ele>
        <time>2022-08-21T07:16:29Z</time>
      </trkpt>
      <trkpt lat="42.805015" lon="-7.626001">
        <ele>389.469</ele>
        <time>2022-08-21T07:16:33Z</time>
      </trkpt>
      <trkpt lat="42.805012" lon="-7.626067">
        <ele>390.042</ele>
        <time>2022-08-21T07:16:37Z</time>
      </trkpt>
      <trkpt lat="42.805030" lon="-7.626136">
        <ele>390.334</ele>
        <time>2022-08-21T07:16:43Z</time>
      </trkpt>
      <trkpt lat="42.805036" lon="-7.626202">
        <ele>390.495</ele>
        <time>2022-08-21T07:16:48Z</time>
      </trkpt>
      <trkpt lat="42.805053" lon="-7.626278">
        <ele>390.849</ele>
        <time>2022-08-21T07:16:53Z</time>
      </trkpt>
      <trkpt lat="42.805062" lon="-7.626340">
        <ele>391.223</ele>
        <time>2022-08-21T07:16:57Z</time>
      </trkpt>
      <trkpt lat="42.805072" lon="-7.626410">
        <ele>391.709</ele>
        <time>2022-08-21T07:17:01Z</time>
      </trkpt>
      <trkpt lat="42.805089" lon="-7.626472">
        <ele>392.160</ele>
        <time>2022-08-21T07:17:05Z</time>
      </trkpt>
      <trkpt lat="42.805101" lon="-7.626543">
        <ele>392.530</ele>
        <time>2022-08-21T07:17:10Z</time>
      </trkpt>
      <trkpt lat="42.805105" lon="-7.626613">
        <ele>392.950</ele>
        <time>2022-08-21T07:17:14Z</time>
      </trkpt>
      <trkpt lat="42.805110" lon="-7.626675">
        <ele>393.392</ele>
        <time>2022-08-21T07:17:18Z</time>
      </trkpt>
      <trkpt lat="42.805107" lon="-7.626748">
        <ele>393.734</ele>
        <time>2022-08-21T07:17:22Z</time>
      </trkpt>
      <trkpt lat="42.805129" lon="-7.626815">
        <ele>394.129</ele>
        <time>2022-08-21T07:17:27Z</time>
      </trkpt>
      <trkpt lat="42.805147" lon="-7.626880">
        <ele>394.629</ele>
        <time>2022-08-21T07:17:32Z</time>
      </trkpt>
      <trkpt lat="42.805158" lon="-7.626955">
        <ele>395.252</ele>
        <time>2022-08-21T07:17:36Z</time>
      </trkpt>
      <trkpt lat="42.805157" lon="-7.627019">
        <ele>395.964</ele>
        <time>2022-08-21T07:17:41Z</time>
      </trkpt>
      <trkpt lat="42.805166" lon="-7.627097">
        <ele>396.661</ele>
        <time>2022-08-21T07:17:45Z</time>
      </trkpt>
      <trkpt lat="42.805192" lon="-7.627148">
        <ele>397.321</ele>
        <time>2022-08-21T07:17:49Z</time>
      </trkpt>
      <trkpt lat="42.805214" lon="-7.627203">
        <ele>397.913</ele>
        <time>2022-08-21T07:17:54Z</time>
      </trkpt>
      <trkpt lat="42.805236" lon="-7.627279">
        <ele>398.309</ele>
        <time>2022-08-21T07:17:59Z</time>
      </trkpt>
      <trkpt lat="42.805248" lon="-7.627358">
        <ele>398.727</ele>
        <time>2022-08-21T07:18:04Z</time>
      </trkpt>
      <trkpt lat="42.805256" lon="-7.627422">
        <ele>399.157</ele>
        <time>2022-08-21T07:18:08Z</time>
      </trkpt>
      <trkpt lat="42.805270" lon="-7.627489">
        <ele>399.487</ele>
        <time>2022-08-21T07:18:13Z</time>
      </trkpt>
      <trkpt lat="42.805295" lon="-7.627555">
        <ele>400.079</ele>
        <time>2022-08-21T07:18:17Z</time>
      </trkpt>
      <trkpt lat="42.805304" lon="-7.627621">
        <ele>400.371</ele>
        <time>2022-08-21T07:18:21Z</time>
      </trkpt>
      <trkpt lat="42.805319" lon="-7.627692">
        <ele>400.686</ele>
        <time>2022-08-21T07:18:24Z</time>
      </trkpt>
      <trkpt lat="42.805333" lon="-7.627760">
        <ele>400.756</ele>
        <time>2022-08-21T07:18:29Z</time>
      </trkpt>
      <trkpt lat="42.805343" lon="-7.627826">
        <ele>400.859</ele>
        <time>2022-08-21T07:18:33Z</time>
      </trkpt>
      <trkpt lat="42.805367" lon="-7.627890">
        <ele>401.031</ele>
        <time>2022-08-21T07:18:36Z</time>
      </trkpt>
      <trkpt lat="42.805373" lon="-7.627951">
        <ele>401.267</ele>
        <time>2022-08-21T07:18:40Z</time>
      </trkpt>
      <trkpt lat="42.805376" lon="-7.628012">
        <ele>401.481</ele>
        <time>2022-08-21T07:18:45Z</time>
      </trkpt>
      <trkpt lat="42.805386" lon="-7.628082">
        <ele>401.619</ele>
        <time>2022-08-21T07:18:50Z</time>
      </trkpt>
      <trkpt lat="42.805402" lon="-7.628144">
        <ele>401.809</ele>
        <time>2022-08-21T07:18:53Z</time>
      </trkpt>
      <trkpt lat="42.805413" lon="-7.628218">
        <ele>402.197</ele>
        <time>2022-08-21T07:18:57Z</time>
      </trkpt>
      <trkpt lat="42.805417" lon="-7.628280">
        <ele>402.527</ele>
        <time>2022-08-21T07:19:02Z</time>
      </trkpt>
      <trkpt lat="42.805438" lon="-7.628350">
        <ele>402.927</ele>
        <time>2022-08-21T07:19:07Z</time>
      </trkpt>
      <trkpt lat="42.805470" lon="-7.628455">
        <ele>403.639</ele>
        <time>2022-08-21T07:19:16Z</time>
      </trkpt>
      <trkpt lat="42.805496" lon="-7.628515">
        <ele>404.171</ele>
        <time>2022-08-21T07:19:20Z</time>
      </trkpt>
      <trkpt lat="42.805518" lon="-7.628569">
        <ele>404.876</ele>
        <time>2022-08-21T07:19:24Z</time>
      </trkpt>
      <trkpt lat="42.805543" lon="-7.628636">
        <ele>405.076</ele>
        <time>2022-08-21T07:19:28Z</time>
      </trkpt>
      <trkpt lat="42.805561" lon="-7.628697">
        <ele>405.399</ele>
        <time>2022-08-21T07:19:31Z</time>
      </trkpt>
      <trkpt lat="42.805580" lon="-7.628758">
        <ele>405.581</ele>
        <time>2022-08-21T07:19:34Z</time>
      </trkpt>
      <trkpt lat="42.805611" lon="-7.628813">
        <ele>405.821</ele>
        <time>2022-08-21T07:19:37Z</time>
      </trkpt>
      <trkpt lat="42.805635" lon="-7.628887">
        <ele>406.041</ele>
        <time>2022-08-21T07:19:42Z</time>
      </trkpt>
      <trkpt lat="42.805667" lon="-7.628954">
        <ele>406.205</ele>
        <time>2022-08-21T07:19:47Z</time>
      </trkpt>
      <trkpt lat="42.805687" lon="-7.629010">
        <ele>406.409</ele>
        <time>2022-08-21T07:19:51Z</time>
      </trkpt>
      <trkpt lat="42.805710" lon="-7.629075">
        <ele>406.673</ele>
        <time>2022-08-21T07:19:57Z</time>
      </trkpt>
      <trkpt lat="42.805735" lon="-7.629127">
        <ele>406.833</ele>
        <time>2022-08-21T07:20:00Z</time>
      </trkpt>
      <trkpt lat="42.805757" lon="-7.629183">
        <ele>407.063</ele>
        <time>2022-08-21T07:20:03Z</time>
      </trkpt>
      <trkpt lat="42.805784" lon="-7.629249">
        <ele>407.225</ele>
        <time>2022-08-21T07:20:07Z</time>
      </trkpt>
      <trkpt lat="42.805809" lon="-7.629308">
        <ele>407.357</ele>
        <time>2022-08-21T07:20:12Z</time>
      </trkpt>
      <trkpt lat="42.805831" lon="-7.629370">
        <ele>407.562</ele>
        <time>2022-08-21T07:20:16Z</time>
      </trkpt>
      <trkpt lat="42.805856" lon="-7.629423">
        <ele>407.822</ele>
        <time>2022-08-21T07:20:22Z</time>
      </trkpt>
      <trkpt lat="42.805866" lon="-7.629487">
        <ele>408.145</ele>
        <time>2022-08-21T07:20:27Z</time>
      </trkpt>
      <trkpt lat="42.805872" lon="-7.629548">
        <ele>408.487</ele>
        <time>2022-08-21T07:20:30Z</time>
      </trkpt>
      <trkpt lat="42.805875" lon="-7.629615">
        <ele>408.892</ele>
        <time>2022-08-21T07:20:34Z</time>
      </trkpt>
      <trkpt lat="42.805880" lon="-7.629684">
        <ele>409.173</ele>
        <time>2022-08-21T07:20:38Z</time>
      </trkpt>
      <trkpt lat="42.805891" lon="-7.629750">
        <ele>409.320</ele>
        <time>2022-08-21T07:20:42Z</time>
      </trkpt>
      <trkpt lat="42.805906" lon="-7.629823">
        <ele>409.509</ele>
        <time>2022-08-21T07:20:47Z</time>
      </trkpt>
      <trkpt lat="42.805918" lon="-7.629885">
        <ele>409.780</ele>
        <time>2022-08-21T07:20:50Z</time>
      </trkpt>
      <trkpt lat="42.805919" lon="-7.629960">
        <ele>410.050</ele>
        <time>2022-08-21T07:20:53Z</time>
      </trkpt>
      <trkpt lat="42.805932" lon="-7.630021">
        <ele>410.340</ele>
        <time>2022-08-21T07:20:57Z</time>
      </trkpt>
      <trkpt lat="42.805941" lon="-7.630092">
        <ele>410.542</ele>
        <time>2022-08-21T07:21:01Z</time>
      </trkpt>
      <trkpt lat="42.805955" lon="-7.630154">
        <ele>410.864</ele>
        <time>2022-08-21T07:21:05Z</time>
      </trkpt>
      <trkpt lat="42.805963" lon="-7.630221">
        <ele>411.249</ele>
        <time>2022-08-21T07:21:09Z</time>
      </trkpt>
      <trkpt lat="42.805976" lon="-7.630283">
        <ele>411.529</ele>
        <time>2022-08-21T07:21:14Z</time>
      </trkpt>
      <trkpt lat="42.805991" lon="-7.630350">
        <ele>411.982</ele>
        <time>2022-08-21T07:21:18Z</time>
      </trkpt>
      <trkpt lat="42.806001" lon="-7.630418">
        <ele>412.324</ele>
        <time>2022-08-21T07:21:22Z</time>
      </trkpt>
      <trkpt lat="42.806007" lon="-7.630513">
        <ele>412.917</ele>
        <time>2022-08-21T07:21:30Z</time>
      </trkpt>
      <trkpt lat="42.806021" lon="-7.630587">
        <ele>413.387</ele>
        <time>2022-08-21T07:21:35Z</time>
      </trkpt>
      <trkpt lat="42.806047" lon="-7.630642">
        <ele>414.015</ele>
        <time>2022-08-21T07:21:39Z</time>
      </trkpt>
      <trkpt lat="42.806080" lon="-7.630715">
        <ele>414.309</ele>
        <time>2022-08-21T07:21:45Z</time>
      </trkpt>
      <trkpt lat="42.806105" lon="-7.630769">
        <ele>414.682</ele>
        <time>2022-08-21T07:21:48Z</time>
      </trkpt>
      <trkpt lat="42.806126" lon="-7.630834">
        <ele>414.912</ele>
        <time>2022-08-21T07:21:52Z</time>
      </trkpt>
      <trkpt lat="42.806152" lon="-7.630900">
        <ele>415.482</ele>
        <time>2022-08-21T07:21:56Z</time>
      </trkpt>
      <trkpt lat="42.806188" lon="-7.630946">
        <ele>415.834</ele>
        <time>2022-08-21T07:21:59Z</time>
      </trkpt>
      <trkpt lat="42.806217" lon="-7.630995">
        <ele>416.296</ele>
        <time>2022-08-21T07:22:02Z</time>
      </trkpt>
      <trkpt lat="42.806242" lon="-7.631060">
        <ele>416.521</ele>
        <time>2022-08-21T07:22:07Z</time>
      </trkpt>
      <trkpt lat="42.806278" lon="-7.631113">
        <ele>416.861</ele>
        <time>2022-08-21T07:22:11Z</time>
      </trkpt>
      <trkpt lat="42.806310" lon="-7.631163">
        <ele>417.424</ele>
        <time>2022-08-21T07:22:15Z</time>
      </trkpt>
      <trkpt lat="42.806345" lon="-7.631212">
        <ele>418.176</ele>
        <time>2022-08-21T07:22:19Z</time>
      </trkpt>
      <trkpt lat="42.806372" lon="-7.631269">
        <ele>418.755</ele>
        <time>2022-08-21T07:22:23Z</time>
      </trkpt>
      <trkpt lat="42.806402" lon="-7.631334">
        <ele>419.107</ele>
        <time>2022-08-21T07:22:28Z</time>
      </trkpt>
      <trkpt lat="42.806426" lon="-7.631388">
        <ele>419.517</ele>
        <time>2022-08-21T07:22:33Z</time>
      </trkpt>
      <trkpt lat="42.806461" lon="-7.631439">
        <ele>420.009</ele>
        <time>2022-08-21T07:22:38Z</time>
      </trkpt>
      <trkpt lat="42.806499" lon="-7.631475">
        <ele>420.686</ele>
        <time>2022-08-21T07:22:42Z</time>
      </trkpt>
      <trkpt lat="42.806534" lon="-7.631517">
        <ele>421.216</ele>
        <time>2022-08-21T07:22:46Z</time>
      </trkpt>
      <trkpt lat="42.806557" lon="-7.631582">
        <ele>421.726</ele>
        <time>2022-08-21T07:22:50Z</time>
      </trkpt>
      <trkpt lat="42.806589" lon="-7.631639">
        <ele>422.188</ele>
        <time>2022-08-21T07:22:54Z</time>
      </trkpt>
      <trkpt lat="42.806617" lon="-7.631687">
        <ele>422.590</ele>
        <time>2022-08-21T07:22:57Z</time>
      </trkpt>
      <trkpt lat="42.806661" lon="-7.631732">
        <ele>422.965</ele>
        <time>2022-08-21T07:23:02Z</time>
      </trkpt>
      <trkpt lat="42.806702" lon="-7.631783">
        <ele>423.395</ele>
        <time>2022-08-21T07:23:06Z</time>
      </trkpt>
      <trkpt lat="42.806743" lon="-7.631836">
        <ele>423.848</ele>
        <time>2022-08-21T07:23:11Z</time>
      </trkpt>
      <trkpt lat="42.806776" lon="-7.631878">
        <ele>424.350</ele>
        <time>2022-08-21T07:23:15Z</time>
      </trkpt>
      <trkpt lat="42.806812" lon="-7.631924">
        <ele>424.993</ele>
        <time>2022-08-21T07:23:19Z</time>
      </trkpt>
      <trkpt lat="42.806847" lon="-7.631975">
        <ele>425.665</ele>
        <time>2022-08-21T07:23:23Z</time>
      </trkpt>
      <trkpt lat="42.806884" lon="-7.632010">
        <ele>426.221</ele>
        <time>2022-08-21T07:23:27Z</time>
      </trkpt>
      <trkpt lat="42.806931" lon="-7.632044">
        <ele>426.809</ele>
        <time>2022-08-21T07:23:31Z</time>
      </trkpt>
      <trkpt lat="42.806974" lon="-7.632098">
        <ele>427.360</ele>
        <time>2022-08-21T07:23:36Z</time>
      </trkpt>
      <trkpt lat="42.807006" lon="-7.632152">
        <ele>427.710</ele>
        <time>2022-08-21T07:23:41Z</time>
      </trkpt>
      <trkpt lat="42.807039" lon="-7.632201">
        <ele>428.240</ele>
        <time>2022-08-21T07:23:46Z</time>
      </trkpt>
      <trkpt lat="42.807071" lon="-7.632266">
        <ele>428.992</ele>
        <time>2022-08-21T07:23:51Z</time>
      </trkpt>
      <trkpt lat="42.807104" lon="-7.632321">
        <ele>429.764</ele>
        <time>2022-08-21T07:23:54Z</time>
      </trkpt>
      <trkpt lat="42.807131" lon="-7.632378">
        <ele>430.359</ele>
        <time>2022-08-21T07:23:57Z</time>
      </trkpt>
      <trkpt lat="42.807163" lon="-7.632446">
        <ele>430.729</ele>
        <time>2022-08-21T07:24:02Z</time>
      </trkpt>
      <trkpt lat="42.807186" lon="-7.632508">
        <ele>431.252</ele>
        <time>2022-08-21T07:24:06Z</time>
      </trkpt>
      <trkpt lat="42.807212" lon="-7.632584">
        <ele>431.774</ele>
        <time>2022-08-21T07:24:10Z</time>
      </trkpt>
      <trkpt lat="42.807242" lon="-7.632646">
        <ele>432.127</ele>
        <time>2022-08-21T07:24:14Z</time>
      </trkpt>
      <trkpt lat="42.807268" lon="-7.632707">
        <ele>432.568</ele>
        <time>2022-08-21T07:24:19Z</time>
      </trkpt>
      <trkpt lat="42.807293" lon="-7.632770">
        <ele>432.914</ele>
        <time>2022-08-21T07:24:23Z</time>
      </trkpt>
      <trkpt lat="42.807315" lon="-7.632825">
        <ele>433.209</ele>
        <time>2022-08-21T07:24:27Z</time>
      </trkpt>
      <trkpt lat="42.807343" lon="-7.632892">
        <ele>433.783</ele>
        <time>2022-08-21T07:24:32Z</time>
      </trkpt>
      <trkpt lat="42.807379" lon="-7.632956">
        <ele>434.233</ele>
        <time>2022-08-21T07:24:39Z</time>
      </trkpt>
      <trkpt lat="42.807401" lon="-7.633025">
        <ele>435.143</ele>
        <time>2022-08-21T07:24:43Z</time>
      </trkpt>
      <trkpt lat="42.807418" lon="-7.633092">
        <ele>436.175</ele>
        <time>2022-08-21T07:24:48Z</time>
      </trkpt>
      <trkpt lat="42.807435" lon="-7.633165">
        <ele>436.627</ele>
        <time>2022-08-21T07:24:52Z</time>
      </trkpt>
      <trkpt lat="42.807456" lon="-7.633238">
        <ele>437.362</ele>
        <time>2022-08-21T07:24:55Z</time>
      </trkpt>
      <trkpt lat="42.807475" lon="-7.633307">
        <ele>437.982</ele>
        <time>2022-08-21T07:24:59Z</time>
      </trkpt>
      <trkpt lat="42.807500" lon="-7.633378">
        <ele>438.485</ele>
        <time>2022-08-21T07:25:03Z</time>
      </trkpt>
      <trkpt lat="42.807515" lon="-7.633449">
        <ele>439.157</ele>
        <time>2022-08-21T07:25:07Z</time>
      </trkpt>
      <trkpt lat="42.807531" lon="-7.633515">
        <ele>439.784</ele>
        <time>2022-08-21T07:25:11Z</time>
      </trkpt>
      <trkpt lat="42.807549" lon="-7.633572">
        <ele>440.007</ele>
        <time>2022-08-21T07:25:14Z</time>
      </trkpt>
      <trkpt lat="42.807565" lon="-7.633644">
        <ele>440.517</ele>
        <time>2022-08-21T07:25:18Z</time>
      </trkpt>
      <trkpt lat="42.807579" lon="-7.633711">
        <ele>440.809</ele>
        <time>2022-08-21T07:25:22Z</time>
      </trkpt>
      <trkpt lat="42.807588" lon="-7.633781">
        <ele>441.039</ele>
        <time>2022-08-21T07:25:26Z</time>
      </trkpt>
      <trkpt lat="42.807592" lon="-7.633856">
        <ele>441.299</ele>
        <time>2022-08-21T07:25:30Z</time>
      </trkpt>
      <trkpt lat="42.807594" lon="-7.633920">
        <ele>441.429</ele>
        <time>2022-08-21T07:25:34Z</time>
      </trkpt>
      <trkpt lat="42.807585" lon="-7.633981">
        <ele>441.651</ele>
        <time>2022-08-21T07:25:38Z</time>
      </trkpt>
      <trkpt lat="42.807572" lon="-7.634044">
        <ele>441.943</ele>
        <time>2022-08-21T07:25:43Z</time>
      </trkpt>
      <trkpt lat="42.807552" lon="-7.634114">
        <ele>442.248</ele>
        <time>2022-08-21T07:25:48Z</time>
      </trkpt>
      <trkpt lat="42.807532" lon="-7.634179">
        <ele>442.598</ele>
        <time>2022-08-21T07:25:52Z</time>
      </trkpt>
      <trkpt lat="42.807508" lon="-7.634240">
        <ele>442.941</ele>
        <time>2022-08-21T07:25:56Z</time>
      </trkpt>
      <trkpt lat="42.807480" lon="-7.634297">
        <ele>443.243</ele>
        <time>2022-08-21T07:26:01Z</time>
      </trkpt>
      <trkpt lat="42.807452" lon="-7.634356">
        <ele>443.551</ele>
        <time>2022-08-21T07:26:06Z</time>
      </trkpt>
      <trkpt lat="42.807429" lon="-7.634411">
        <ele>443.801</ele>
        <time>2022-08-21T07:26:10Z</time>
      </trkpt>
      <trkpt lat="42.807401" lon="-7.634482">
        <ele>444.111</ele>
        <time>2022-08-21T07:26:15Z</time>
      </trkpt>
      <trkpt lat="42.807373" lon="-7.634540">
        <ele>444.409</ele>
        <time>2022-08-21T07:26:20Z</time>
      </trkpt>
      <trkpt lat="42.807339" lon="-7.634608">
        <ele>444.776</ele>
        <time>2022-08-21T07:26:24Z</time>
      </trkpt>
      <trkpt lat="42.807328" lon="-7.634668">
        <ele>444.936</ele>
        <time>2022-08-21T07:26:28Z</time>
      </trkpt>
      <trkpt lat="42.807302" lon="-7.634729">
        <ele>445.086</ele>
        <time>2022-08-21T07:26:32Z</time>
      </trkpt>
      <trkpt lat="42.807284" lon="-7.634791">
        <ele>445.098</ele>
        <time>2022-08-21T07:26:36Z</time>
      </trkpt>
      <trkpt lat="42.807259" lon="-7.634845">
        <ele>445.060</ele>
        <time>2022-08-21T07:26:40Z</time>
      </trkpt>
      <trkpt lat="42.807238" lon="-7.634912">
        <ele>445.065</ele>
        <time>2022-08-21T07:26:44Z</time>
      </trkpt>
      <trkpt lat="42.807218" lon="-7.634969">
        <ele>444.955</ele>
        <time>2022-08-21T07:26:48Z</time>
      </trkpt>
      <trkpt lat="42.807197" lon="-7.635027">
        <ele>444.958</ele>
        <time>2022-08-21T07:26:52Z</time>
      </trkpt>
      <trkpt lat="42.807176" lon="-7.635101">
        <ele>444.880</ele>
        <time>2022-08-21T07:26:57Z</time>
      </trkpt>
      <trkpt lat="42.807158" lon="-7.635162">
        <ele>444.738</ele>
        <time>2022-08-21T07:27:00Z</time>
      </trkpt>
      <trkpt lat="42.807143" lon="-7.635220">
        <ele>444.670</ele>
        <time>2022-08-21T07:27:04Z</time>
      </trkpt>
      <trkpt lat="42.807125" lon="-7.635276">
        <ele>444.517</ele>
        <time>2022-08-21T07:27:07Z</time>
      </trkpt>
      <trkpt lat="42.807106" lon="-7.635339">
        <ele>444.409</ele>
        <time>2022-08-21T07:27:10Z</time>
      </trkpt>
      <trkpt lat="42.807088" lon="-7.635397">
        <ele>444.354</ele>
        <time>2022-08-21T07:27:13Z</time>
      </trkpt>
      <trkpt lat="42.807073" lon="-7.635460">
        <ele>444.254</ele>
        <time>2022-08-21T07:27:16Z</time>
      </trkpt>
      <trkpt lat="42.807057" lon="-7.635537">
        <ele>444.194</ele>
        <time>2022-08-21T07:27:20Z</time>
      </trkpt>
      <trkpt lat="42.807042" lon="-7.635614">
        <ele>444.046</ele>
        <time>2022-08-21T07:27:24Z</time>
      </trkpt>
      <trkpt lat="42.807022" lon="-7.635672">
        <ele>443.938</ele>
        <time>2022-08-21T07:27:28Z</time>
      </trkpt>
      <trkpt lat="42.807001" lon="-7.635740">
        <ele>443.723</ele>
        <time>2022-08-21T07:27:32Z</time>
      </trkpt>
      <trkpt lat="42.806982" lon="-7.635799">
        <ele>443.533</ele>
        <time>2022-08-21T07:27:35Z</time>
      </trkpt>
      <trkpt lat="42.806967" lon="-7.635860">
        <ele>443.386</ele>
        <time>2022-08-21T07:27:39Z</time>
      </trkpt>
      <trkpt lat="42.806950" lon="-7.635922">
        <ele>443.188</ele>
        <time>2022-08-21T07:27:43Z</time>
      </trkpt>
      <trkpt lat="42.806928" lon="-7.635993">
        <ele>442.922</ele>
        <time>2022-08-21T07:27:47Z</time>
      </trkpt>
      <trkpt lat="42.806900" lon="-7.636062">
        <ele>442.762</ele>
        <time>2022-08-21T07:27:52Z</time>
      </trkpt>
      <trkpt lat="42.806877" lon="-7.636115">
        <ele>442.508</ele>
        <time>2022-08-21T07:27:56Z</time>
      </trkpt>
      <trkpt lat="42.806857" lon="-7.636172">
        <ele>442.309</ele>
        <time>2022-08-21T07:28:00Z</time>
      </trkpt>
      <trkpt lat="42.806835" lon="-7.636228">
        <ele>442.183</ele>
        <time>2022-08-21T07:28:04Z</time>
      </trkpt>
      <trkpt lat="42.806807" lon="-7.636282">
        <ele>441.973</ele>
        <time>2022-08-21T07:28:08Z</time>
      </trkpt>
      <trkpt lat="42.806782" lon="-7.636341">
        <ele>441.723</ele>
        <time>2022-08-21T07:28:13Z</time>
      </trkpt>
      <trkpt lat="42.806758" lon="-7.636394">
        <ele>441.535</ele>
        <time>2022-08-21T07:28:16Z</time>
      </trkpt>
      <trkpt lat="42.806730" lon="-7.636452">
        <ele>441.387</ele>
        <time>2022-08-21T07:28:20Z</time>
      </trkpt>
      <trkpt lat="42.806710" lon="-7.636518">
        <ele>441.132</ele>
        <time>2022-08-21T07:28:24Z</time>
      </trkpt>
      <trkpt lat="42.806688" lon="-7.636576">
        <ele>440.962</ele>
        <time>2022-08-21T07:28:27Z</time>
      </trkpt>
      <trkpt lat="42.806666" lon="-7.636635">
        <ele>440.735</ele>
        <time>2022-08-21T07:28:32Z</time>
      </trkpt>
      <trkpt lat="42.806652" lon="-7.636702">
        <ele>440.617</ele>
        <time>2022-08-21T07:28:35Z</time>
      </trkpt>
      <trkpt lat="42.806636" lon="-7.636770">
        <ele>440.499</ele>
        <time>2022-08-21T07:28:39Z</time>
      </trkpt>
      <trkpt lat="42.806621" lon="-7.636850">
        <ele>440.207</ele>
        <time>2022-08-21T07:28:43Z</time>
      </trkpt>
      <trkpt lat="42.806612" lon="-7.636919">
        <ele>440.127</ele>
        <time>2022-08-21T07:28:47Z</time>
      </trkpt>
      <trkpt lat="42.806611" lon="-7.636988">
        <ele>440.009</ele>
        <time>2022-08-21T07:28:51Z</time>
      </trkpt>
      <trkpt lat="42.806604" lon="-7.637063">
        <ele>440.090</ele>
        <time>2022-08-21T07:28:55Z</time>
      </trkpt>
      <trkpt lat="42.806600" lon="-7.637124">
        <ele>440.030</ele>
        <time>2022-08-21T07:28:59Z</time>
      </trkpt>
      <trkpt lat="42.806599" lon="-7.637200">
        <ele>440.080</ele>
        <time>2022-08-21T07:29:03Z</time>
      </trkpt>
      <trkpt lat="42.806602" lon="-7.637262">
        <ele>440.032</ele>
        <time>2022-08-21T07:29:06Z</time>
      </trkpt>
      <trkpt lat="42.806602" lon="-7.637341">
        <ele>440.014</ele>
        <time>2022-08-21T07:29:10Z</time>
      </trkpt>
      <trkpt lat="42.806607" lon="-7.637420">
        <ele>440.029</ele>
        <time>2022-08-21T07:29:14Z</time>
      </trkpt>
      <trkpt lat="42.806614" lon="-7.637495">
        <ele>440.049</ele>
        <time>2022-08-21T07:29:18Z</time>
      </trkpt>
      <trkpt lat="42.806623" lon="-7.637557">
        <ele>440.092</ele>
        <time>2022-08-21T07:29:21Z</time>
      </trkpt>
      <trkpt lat="42.806630" lon="-7.637620">
        <ele>440.084</ele>
        <time>2022-08-21T07:29:24Z</time>
      </trkpt>
      <trkpt lat="42.806636" lon="-7.637694">
        <ele>440.064</ele>
        <time>2022-08-21T07:29:28Z</time>
      </trkpt>
      <trkpt lat="42.806649" lon="-7.637769">
        <ele>440.006</ele>
        <time>2022-08-21T07:29:32Z</time>
      </trkpt>
      <trkpt lat="42.806671" lon="-7.637840">
        <ele>440.016</ele>
        <time>2022-08-21T07:29:36Z</time>
      </trkpt>
      <trkpt lat="42.806691" lon="-7.637907">
        <ele>440.009</ele>
        <time>2022-08-21T07:29:40Z</time>
      </trkpt>
      <trkpt lat="42.806710" lon="-7.637974">
        <ele>440.227</ele>
        <time>2022-08-21T07:29:44Z</time>
      </trkpt>
      <trkpt lat="42.806732" lon="-7.638037">
        <ele>440.277</ele>
        <time>2022-08-21T07:29:48Z</time>
      </trkpt>
      <trkpt lat="42.806751" lon="-7.638104">
        <ele>440.177</ele>
        <time>2022-08-21T07:29:52Z</time>
      </trkpt>
      <trkpt lat="42.806767" lon="-7.638171">
        <ele>440.129</ele>
        <time>2022-08-21T07:29:56Z</time>
      </trkpt>
      <trkpt lat="42.806781" lon="-7.638242">
        <ele>439.951</ele>
        <time>2022-08-21T07:30:00Z</time>
      </trkpt>
      <trkpt lat="42.806798" lon="-7.638305">
        <ele>439.776</ele>
        <time>2022-08-21T07:30:04Z</time>
      </trkpt>
      <trkpt lat="42.806809" lon="-7.638375">
        <ele>439.576</ele>
        <time>2022-08-21T07:30:09Z</time>
      </trkpt>
      <trkpt lat="42.806824" lon="-7.638444">
        <ele>439.259</ele>
        <time>2022-08-21T07:30:15Z</time>
      </trkpt>
      <trkpt lat="42.806840" lon="-7.638503">
        <ele>438.961</ele>
        <time>2022-08-21T07:30:21Z</time>
      </trkpt>
      <trkpt lat="42.806873" lon="-7.638552">
        <ele>438.794</ele>
        <time>2022-08-21T07:30:27Z</time>
      </trkpt>
      <trkpt lat="42.806892" lon="-7.638624">
        <ele>438.657</ele>
        <time>2022-08-21T07:30:33Z</time>
      </trkpt>
      <trkpt lat="42.806906" lon="-7.638692">
        <ele>438.522</ele>
        <time>2022-08-21T07:30:38Z</time>
      </trkpt>
      <trkpt lat="42.806923" lon="-7.638749">
        <ele>438.309</ele>
        <time>2022-08-21T07:30:42Z</time>
      </trkpt>
      <trkpt lat="42.806943" lon="-7.638807">
        <ele>438.240</ele>
        <time>2022-08-21T07:30:46Z</time>
      </trkpt>
      <trkpt lat="42.806961" lon="-7.638867">
        <ele>438.130</ele>
        <time>2022-08-21T07:30:50Z</time>
      </trkpt>
      <trkpt lat="42.806979" lon="-7.638935">
        <ele>438.190</ele>
        <time>2022-08-21T07:30:54Z</time>
      </trkpt>
      <trkpt lat="42.806985" lon="-7.639012">
        <ele>438.052</ele>
        <time>2022-08-21T07:30:58Z</time>
      </trkpt>
      <trkpt lat="42.807009" lon="-7.639077">
        <ele>437.934</ele>
        <time>2022-08-21T07:31:02Z</time>
      </trkpt>
      <trkpt lat="42.807037" lon="-7.639133">
        <ele>437.949</ele>
        <time>2022-08-21T07:31:06Z</time>
      </trkpt>
      <trkpt lat="42.807062" lon="-7.639188">
        <ele>437.899</ele>
        <time>2022-08-21T07:31:10Z</time>
      </trkpt>
      <trkpt lat="42.807094" lon="-7.639240">
        <ele>437.862</ele>
        <time>2022-08-21T07:31:14Z</time>
      </trkpt>
      <trkpt lat="42.807128" lon="-7.639292">
        <ele>437.894</ele>
        <time>2022-08-21T07:31:18Z</time>
      </trkpt>
      <trkpt lat="42.807170" lon="-7.639336">
        <ele>437.884</ele>
        <time>2022-08-21T07:31:22Z</time>
      </trkpt>
      <trkpt lat="42.807218" lon="-7.639368">
        <ele>437.807</ele>
        <time>2022-08-21T07:31:25Z</time>
      </trkpt>
      <trkpt lat="42.807265" lon="-7.639408">
        <ele>437.817</ele>
        <time>2022-08-21T07:31:29Z</time>
      </trkpt>
      <trkpt lat="42.807308" lon="-7.639440">
        <ele>437.809</ele>
        <time>2022-08-21T07:31:32Z</time>
      </trkpt>
      <trkpt lat="42.807363" lon="-7.639467">
        <ele>437.859</ele>
        <time>2022-08-21T07:31:36Z</time>
      </trkpt>
      <trkpt lat="42.807420" lon="-7.639500">
        <ele>437.829</ele>
        <time>2022-08-21T07:31:40Z</time>
      </trkpt>
      <trkpt lat="42.807474" lon="-7.639515">
        <ele>437.869</ele>
        <time>2022-08-21T07:31:44Z</time>
      </trkpt>
      <trkpt lat="42.807528" lon="-7.639527">
        <ele>437.891</ele>
        <time>2022-08-21T07:31:48Z</time>
      </trkpt>
      <trkpt lat="42.807575" lon="-7.639536">
        <ele>437.863</ele>
        <time>2022-08-21T07:31:52Z</time>
      </trkpt>
      <trkpt lat="42.807622" lon="-7.639545">
        <ele>437.858</ele>
        <time>2022-08-21T07:31:55Z</time>
      </trkpt>
      <trkpt lat="42.807675" lon="-7.639538">
        <ele>437.938</ele>
        <time>2022-08-21T07:31:59Z</time>
      </trkpt>
      <trkpt lat="42.807728" lon="-7.639549">
        <ele>438.081</ele>
        <time>2022-08-21T07:32:03Z</time>
      </trkpt>
      <trkpt lat="42.807785" lon="-7.639566">
        <ele>438.133</ele>
        <time>2022-08-21T07:32:07Z</time>
      </trkpt>
      <trkpt lat="42.807827" lon="-7.639592">
        <ele>438.224</ele>
        <time>2022-08-21T07:32:11Z</time>
      </trkpt>
      <trkpt lat="42.807869" lon="-7.639636">
        <ele>438.404</ele>
        <time>2022-08-21T07:32:15Z</time>
      </trkpt>
      <trkpt lat="42.807915" lon="-7.639686">
        <ele>438.714</ele>
        <time>2022-08-21T07:32:20Z</time>
      </trkpt>
      <trkpt lat="42.807953" lon="-7.639744">
        <ele>439.009</ele>
        <time>2022-08-21T07:32:24Z</time>
      </trkpt>
      <trkpt lat="42.807991" lon="-7.639800">
        <ele>439.493</ele>
        <time>2022-08-21T07:32:28Z</time>
      </trkpt>
      <trkpt lat="42.808024" lon="-7.639846">
        <ele>439.823</ele>
        <time>2022-08-21T07:32:32Z</time>
      </trkpt>
      <trkpt lat="42.808060" lon="-7.639907">
        <ele>440.243</ele>
        <time>2022-08-21T07:32:36Z</time>
      </trkpt>
      <trkpt lat="42.808091" lon="-7.639963">
        <ele>440.785</ele>
        <time>2022-08-21T07:32:40Z</time>
      </trkpt>
      <trkpt lat="42.808122" lon="-7.640015">
        <ele>440.987</ele>
        <time>2022-08-21T07:32:44Z</time>
      </trkpt>
      <trkpt lat="42.808152" lon="-7.640065">
        <ele>441.362</ele>
        <time>2022-08-21T07:32:47Z</time>
      </trkpt>
      <trkpt lat="42.808187" lon="-7.640115">
        <ele>441.792</ele>
        <time>2022-08-21T07:32:51Z</time>
      </trkpt>
      <trkpt lat="42.808226" lon="-7.640166">
        <ele>442.075</ele>
        <time>2022-08-21T07:32:55Z</time>
      </trkpt>
      <trkpt lat="42.808256" lon="-7.640227">
        <ele>442.357</ele>
        <time>2022-08-21T07:33:00Z</time>
      </trkpt>
      <trkpt lat="42.808285" lon="-7.640282">
        <ele>442.762</ele>
        <time>2022-08-21T07:33:04Z</time>
      </trkpt>
      <trkpt lat="42.808313" lon="-7.640330">
        <ele>443.083</ele>
        <time>2022-08-21T07:33:07Z</time>
      </trkpt>
      <trkpt lat="42.808300" lon="-7.640396">
        <ele>443.211</ele>
        <time>2022-08-21T07:33:12Z</time>
      </trkpt>
      <trkpt lat="42.808268" lon="-7.640440">
        <ele>443.209</ele>
        <time>2022-08-21T07:33:16Z</time>
      </trkpt>
      <trkpt lat="42.808231" lon="-7.640483">
        <ele>443.437</ele>
        <time>2022-08-21T07:33:21Z</time>
      </trkpt>
      <trkpt lat="42.808192" lon="-7.640526">
        <ele>443.787</ele>
        <time>2022-08-21T07:33:25Z</time>
      </trkpt>
      <trkpt lat="42.808149" lon="-7.640571">
        <ele>443.977</ele>
        <time>2022-08-21T07:33:30Z</time>
      </trkpt>
      <trkpt lat="42.808107" lon="-7.640611">
        <ele>444.159</ele>
        <time>2022-08-21T07:33:35Z</time>
      </trkpt>
      <trkpt lat="42.808066" lon="-7.640639">
        <ele>444.391</ele>
        <time>2022-08-21T07:33:39Z</time>
      </trkpt>
      <trkpt lat="42.808021" lon="-7.640675">
        <ele>444.676</ele>
        <time>2022-08-21T07:33:44Z</time>
      </trkpt>
      <trkpt lat="42.807974" lon="-7.640698">
        <ele>444.836</ele>
        <time>2022-08-21T07:33:47Z</time>
      </trkpt>
      <trkpt lat="42.807932" lon="-7.640736">
        <ele>445.189</ele>
        <time>2022-08-21T07:33:51Z</time>
      </trkpt>
      <trkpt lat="42.807895" lon="-7.640771">
        <ele>445.361</ele>
        <time>2022-08-21T07:33:54Z</time>
      </trkpt>
      <trkpt lat="42.807854" lon="-7.640815">
        <ele>445.559</ele>
        <time>2022-08-21T07:33:58Z</time>
      </trkpt>
      <trkpt lat="42.807805" lon="-7.640849">
        <ele>445.703</ele>
        <time>2022-08-21T07:34:02Z</time>
      </trkpt>
      <trkpt lat="42.807762" lon="-7.640879">
        <ele>445.923</ele>
        <time>2022-08-21T07:34:05Z</time>
      </trkpt>
      <trkpt lat="42.807716" lon="-7.640924">
        <ele>446.209</ele>
        <time>2022-08-21T07:34:09Z</time>
      </trkpt>
      <trkpt lat="42.807684" lon="-7.640971">
        <ele>446.416</ele>
        <time>2022-08-21T07:34:13Z</time>
      </trkpt>
      <trkpt lat="42.807633" lon="-7.641006">
        <ele>446.626</ele>
        <time>2022-08-21T07:34:17Z</time>
      </trkpt>
      <trkpt lat="42.807599" lon="-7.641056">
        <ele>446.826</ele>
        <time>2022-08-21T07:34:22Z</time>
      </trkpt>
      <trkpt lat="42.807561" lon="-7.641093">
        <ele>447.078</ele>
        <time>2022-08-21T07:34:25Z</time>
      </trkpt>
      <trkpt lat="42.807527" lon="-7.641137">
        <ele>447.280</ele>
        <time>2022-08-21T07:34:29Z</time>
      </trkpt>
      <trkpt lat="42.807493" lon="-7.641194">
        <ele>447.455</ele>
        <time>2022-08-21T07:34:33Z</time>
      </trkpt>
      <trkpt lat="42.807463" lon="-7.641250">
        <ele>447.635</ele>
        <time>2022-08-21T07:34:37Z</time>
      </trkpt>
      <trkpt lat="42.807432" lon="-7.641312">
        <ele>447.868</ele>
        <time>2022-08-21T07:34:41Z</time>
      </trkpt>
      <trkpt lat="42.807403" lon="-7.641380">
        <ele>447.960</ele>
        <time>2022-08-21T07:34:45Z</time>
      </trkpt>
      <trkpt lat="42.807383" lon="-7.641446">
        <ele>448.124</ele>
        <time>2022-08-21T07:34:49Z</time>
      </trkpt>
      <trkpt lat="42.807367" lon="-7.641507">
        <ele>448.104</ele>
        <time>2022-08-21T07:34:53Z</time>
      </trkpt>
      <trkpt lat="42.807362" lon="-7.641576">
        <ele>448.214</ele>
        <time>2022-08-21T07:34:57Z</time>
      </trkpt>
      <trkpt lat="42.807344" lon="-7.641647">
        <ele>448.309</ele>
        <time>2022-08-21T07:35:01Z</time>
      </trkpt>
      <trkpt lat="42.807335" lon="-7.641709">
        <ele>448.393</ele>
        <time>2022-08-21T07:35:05Z</time>
      </trkpt>
      <trkpt lat="42.807329" lon="-7.641777">
        <ele>448.343</ele>
        <time>2022-08-21T07:35:09Z</time>
      </trkpt>
      <trkpt lat="42.807316" lon="-7.641845">
        <ele>448.333</ele>
        <time>2022-08-21T07:35:13Z</time>
      </trkpt>
      <trkpt lat="42.807309" lon="-7.641911">
        <ele>448.215</ele>
        <time>2022-08-21T07:35:17Z</time>
      </trkpt>
      <trkpt lat="42.807310" lon="-7.641975">
        <ele>448.127</ele>
        <time>2022-08-21T07:35:21Z</time>
      </trkpt>
      <trkpt lat="42.807306" lon="-7.642041">
        <ele>448.062</ele>
        <time>2022-08-21T07:35:25Z</time>
      </trkpt>
      <trkpt lat="42.807304" lon="-7.642109">
        <ele>447.882</ele>
        <time>2022-08-21T07:35:29Z</time>
      </trkpt>
      <trkpt lat="42.807294" lon="-7.642179">
        <ele>447.615</ele>
        <time>2022-08-21T07:35:33Z</time>
      </trkpt>
      <trkpt lat="42.807292" lon="-7.642259">
        <ele>447.417</ele>
        <time>2022-08-21T07:35:38Z</time>
      </trkpt>
      <trkpt lat="42.807283" lon="-7.642337">
        <ele>447.289</ele>
        <time>2022-08-21T07:35:42Z</time>
      </trkpt>
      <trkpt lat="42.807282" lon="-7.642399">
        <ele>446.906</ele>
        <time>2022-08-21T07:35:46Z</time>
      </trkpt>
      <trkpt lat="42.807274" lon="-7.642464">
        <ele>446.626</ele>
        <time>2022-08-21T07:35:50Z</time>
      </trkpt>
      <trkpt lat="42.807282" lon="-7.642539">
        <ele>446.309</ele>
        <time>2022-08-21T07:35:55Z</time>
      </trkpt>
      <trkpt lat="42.807277" lon="-7.642601">
        <ele>446.159</ele>
        <time>2022-08-21T07:35:59Z</time>
      </trkpt>
      <trkpt lat="42.807289" lon="-7.642671">
        <ele>445.979</ele>
        <time>2022-08-21T07:36:04Z</time>
      </trkpt>
      <trkpt lat="42.807321" lon="-7.642725">
        <ele>445.759</ele>
        <time>2022-08-21T07:36:08Z</time>
      </trkpt>
      <trkpt lat="42.807367" lon="-7.642766">
        <ele>445.591</ele>
        <time>2022-08-21T07:36:13Z</time>
      </trkpt>
      <trkpt lat="42.807411" lon="-7.642804">
        <ele>445.313</ele>
        <time>2022-08-21T07:36:18Z</time>
      </trkpt>
      <trkpt lat="42.807458" lon="-7.642840">
        <ele>445.268</ele>
        <time>2022-08-21T07:36:23Z</time>
      </trkpt>
      <trkpt lat="42.807506" lon="-7.642869">
        <ele>445.228</ele>
        <time>2022-08-21T07:36:28Z</time>
      </trkpt>
      <trkpt lat="42.807551" lon="-7.642906">
        <ele>445.211</ele>
        <time>2022-08-21T07:36:33Z</time>
      </trkpt>
      <trkpt lat="42.807588" lon="-7.642943">
        <ele>445.363</ele>
        <time>2022-08-21T07:36:37Z</time>
      </trkpt>
      <trkpt lat="42.807639" lon="-7.642974">
        <ele>445.459</ele>
        <time>2022-08-21T07:36:42Z</time>
      </trkpt>
      <trkpt lat="42.807681" lon="-7.643007">
        <ele>445.503</ele>
        <time>2022-08-21T07:36:47Z</time>
      </trkpt>
      <trkpt lat="42.807722" lon="-7.643048">
        <ele>445.623</ele>
        <time>2022-08-21T07:36:51Z</time>
      </trkpt>
      <trkpt lat="42.807778" lon="-7.643046">
        <ele>445.709</ele>
        <time>2022-08-21T07:36:54Z</time>
      </trkpt>
      <trkpt lat="42.807828" lon="-7.643073">
        <ele>445.826</ele>
        <time>2022-08-21T07:36:58Z</time>
      </trkpt>
      <trkpt lat="42.807873" lon="-7.643093">
        <ele>445.956</ele>
        <time>2022-08-21T07:37:02Z</time>
      </trkpt>
      <trkpt lat="42.807920" lon="-7.643129">
        <ele>446.036</ele>
        <time>2022-08-21T07:37:06Z</time>
      </trkpt>
      <trkpt lat="42.807976" lon="-7.643163">
        <ele>446.178</ele>
        <time>2022-08-21T07:37:11Z</time>
      </trkpt>
      <trkpt lat="42.808026" lon="-7.643176">
        <ele>446.260</ele>
        <time>2022-08-21T07:37:14Z</time>
      </trkpt>
      <trkpt lat="42.808074" lon="-7.643189">
        <ele>446.395</ele>
        <time>2022-08-21T07:37:17Z</time>
      </trkpt>
      <trkpt lat="42.808129" lon="-7.643213">
        <ele>446.485</ele>
        <time>2022-08-21T07:37:21Z</time>
      </trkpt>
      <trkpt lat="42.808176" lon="-7.643240">
        <ele>446.578</ele>
        <time>2022-08-21T07:37:24Z</time>
      </trkpt>
      <trkpt lat="42.808232" lon="-7.643264">
        <ele>446.610</ele>
        <time>2022-08-21T07:37:28Z</time>
      </trkpt>
      <trkpt lat="42.808276" lon="-7.643297">
        <ele>446.857</ele>
        <time>2022-08-21T07:37:32Z</time>
      </trkpt>
      <trkpt lat="42.808314" lon="-7.643338">
        <ele>447.000</ele>
        <time>2022-08-21T07:37:36Z</time>
      </trkpt>
      <trkpt lat="42.808360" lon="-7.643367">
        <ele>447.220</ele>
        <time>2022-08-21T07:37:40Z</time>
      </trkpt>
      <trkpt lat="42.808405" lon="-7.643391">
        <ele>447.409</ele>
        <time>2022-08-21T07:37:43Z</time>
      </trkpt>
      <trkpt lat="42.808452" lon="-7.643397">
        <ele>447.516</ele>
        <time>2022-08-21T07:37:46Z</time>
      </trkpt>
      <trkpt lat="42.808499" lon="-7.643396">
        <ele>447.626</ele>
        <time>2022-08-21T07:37:51Z</time>
      </trkpt>
      <trkpt lat="42.808546" lon="-7.643421">
        <ele>447.686</ele>
        <time>2022-08-21T07:37:57Z</time>
      </trkpt>
      <trkpt lat="42.808590" lon="-7.643464">
        <ele>447.768</ele>
        <time>2022-08-21T07:38:01Z</time>
      </trkpt>
      <trkpt lat="42.808633" lon="-7.643489">
        <ele>447.880</ele>
        <time>2022-08-21T07:38:04Z</time>
      </trkpt>
      <trkpt lat="42.808685" lon="-7.643514">
        <ele>447.995</ele>
        <time>2022-08-21T07:38:08Z</time>
      </trkpt>
      <trkpt lat="42.808737" lon="-7.643540">
        <ele>448.075</ele>
        <time>2022-08-21T07:38:12Z</time>
      </trkpt>
      <trkpt lat="42.808792" lon="-7.643572">
        <ele>448.248</ele>
        <time>2022-08-21T07:38:16Z</time>
      </trkpt>
      <trkpt lat="42.808835" lon="-7.643599">
        <ele>448.250</ele>
        <time>2022-08-21T07:38:19Z</time>
      </trkpt>
      <trkpt lat="42.808883" lon="-7.643619">
        <ele>448.341</ele>
        <time>2022-08-21T07:38:23Z</time>
      </trkpt>
      <trkpt lat="42.808925" lon="-7.643642">
        <ele>448.481</ele>
        <time>2022-08-21T07:38:27Z</time>
      </trkpt>
      <trkpt lat="42.808978" lon="-7.643675">
        <ele>448.509</ele>
        <time>2022-08-21T07:38:31Z</time>
      </trkpt>
      <trkpt lat="42.809024" lon="-7.643693">
        <ele>448.609</ele>
        <time>2022-08-21T07:38:35Z</time>
      </trkpt>
      <trkpt lat="42.809071" lon="-7.643716">
        <ele>448.775</ele>
        <time>2022-08-21T07:38:40Z</time>
      </trkpt>
      <trkpt lat="42.809117" lon="-7.643743">
        <ele>448.875</ele>
        <time>2022-08-21T07:38:44Z</time>
      </trkpt>
      <trkpt lat="42.809172" lon="-7.643770">
        <ele>448.945</ele>
        <time>2022-08-21T07:38:49Z</time>
      </trkpt>
      <trkpt lat="42.809211" lon="-7.643800">
        <ele>449.097</ele>
        <time>2022-08-21T07:38:52Z</time>
      </trkpt>
      <trkpt lat="42.809253" lon="-7.643834">
        <ele>449.139</ele>
        <time>2022-08-21T07:38:55Z</time>
      </trkpt>
      <trkpt lat="42.809296" lon="-7.643868">
        <ele>449.214</ele>
        <time>2022-08-21T07:38:58Z</time>
      </trkpt>
      <trkpt lat="42.809342" lon="-7.643886">
        <ele>449.334</ele>
        <time>2022-08-21T07:39:02Z</time>
      </trkpt>
      <trkpt lat="42.809388" lon="-7.643919">
        <ele>449.347</ele>
        <time>2022-08-21T07:39:06Z</time>
      </trkpt>
      <trkpt lat="42.809434" lon="-7.643941">
        <ele>449.349</ele>
        <time>2022-08-21T07:39:10Z</time>
      </trkpt>
      <trkpt lat="42.809483" lon="-7.643962">
        <ele>449.351</ele>
        <time>2022-08-21T07:39:14Z</time>
      </trkpt>
      <trkpt lat="42.809529" lon="-7.643991">
        <ele>449.401</ele>
        <time>2022-08-21T07:39:18Z</time>
      </trkpt>
      <trkpt lat="42.809573" lon="-7.644024">
        <ele>449.411</ele>
        <time>2022-08-21T07:39:23Z</time>
      </trkpt>
      <trkpt lat="42.809619" lon="-7.644048">
        <ele>449.409</ele>
        <time>2022-08-21T07:39:27Z</time>
      </trkpt>
      <trkpt lat="42.809665" lon="-7.644090">
        <ele>449.446</ele>
        <time>2022-08-21T07:39:31Z</time>
      </trkpt>
      <trkpt lat="42.809722" lon="-7.644110">
        <ele>449.486</ele>
        <time>2022-08-21T07:39:34Z</time>
      </trkpt>
      <trkpt lat="42.809766" lon="-7.644126">
        <ele>449.316</ele>
        <time>2022-08-21T07:39:37Z</time>
      </trkpt>
      <trkpt lat="42.809819" lon="-7.644160">
        <ele>449.268</ele>
        <time>2022-08-21T07:39:41Z</time>
      </trkpt>
      <trkpt lat="42.809869" lon="-7.644179">
        <ele>449.110</ele>
        <time>2022-08-21T07:39:45Z</time>
      </trkpt>
      <trkpt lat="42.809910" lon="-7.644213">
        <ele>449.055</ele>
        <time>2022-08-21T07:39:49Z</time>
      </trkpt>
      <trkpt lat="42.809954" lon="-7.644235">
        <ele>448.955</ele>
        <time>2022-08-21T07:39:53Z</time>
      </trkpt>
      <trkpt lat="42.810006" lon="-7.644263">
        <ele>448.868</ele>
        <time>2022-08-21T07:39:57Z</time>
      </trkpt>
      <trkpt lat="42.810049" lon="-7.644282">
        <ele>448.750</ele>
        <time>2022-08-21T07:40:00Z</time>
      </trkpt>
      <trkpt lat="42.810103" lon="-7.644302">
        <ele>448.699</ele>
        <time>2022-08-21T07:40:04Z</time>
      </trkpt>
      <trkpt lat="42.810152" lon="-7.644336">
        <ele>448.507</ele>
        <time>2022-08-21T07:40:08Z</time>
      </trkpt>
      <trkpt lat="42.810203" lon="-7.644353">
        <ele>448.427</ele>
        <time>2022-08-21T07:40:12Z</time>
      </trkpt>
      <trkpt lat="42.810252" lon="-7.644382">
        <ele>448.209</ele>
        <time>2022-08-21T07:40:16Z</time>
      </trkpt>
      <trkpt lat="42.810296" lon="-7.644400">
        <ele>448.040</ele>
        <time>2022-08-21T07:40:20Z</time>
      </trkpt>
      <trkpt lat="42.810349" lon="-7.644432">
        <ele>447.890</ele>
        <time>2022-08-21T07:40:24Z</time>
      </trkpt>
      <trkpt lat="42.810399" lon="-7.644462">
        <ele>447.640</ele>
        <time>2022-08-21T07:40:28Z</time>
      </trkpt>
      <trkpt lat="42.810447" lon="-7.644490">
        <ele>447.472</ele>
        <time>2022-08-21T07:40:32Z</time>
      </trkpt>
      <trkpt lat="42.810494" lon="-7.644511">
        <ele>447.284</ele>
        <time>2022-08-21T07:40:36Z</time>
      </trkpt>
      <trkpt lat="42.810545" lon="-7.644541">
        <ele>447.029</ele>
        <time>2022-08-21T07:40:41Z</time>
      </trkpt>
      <trkpt lat="42.810590" lon="-7.644572">
        <ele>447.049</ele>
        <time>2022-08-21T07:40:45Z</time>
      </trkpt>
      <trkpt lat="42.810638" lon="-7.644596">
        <ele>446.932</ele>
        <time>2022-08-21T07:40:49Z</time>
      </trkpt>
      <trkpt lat="42.810685" lon="-7.644627">
        <ele>446.864</ele>
        <time>2022-08-21T07:40:53Z</time>
      </trkpt>
      <trkpt lat="42.810735" lon="-7.644629">
        <ele>446.756</ele>
        <time>2022-08-21T07:40:57Z</time>
      </trkpt>
      <trkpt lat="42.810784" lon="-7.644630">
        <ele>446.659</ele>
        <time>2022-08-21T07:41:01Z</time>
      </trkpt>
      <trkpt lat="42.810833" lon="-7.644625">
        <ele>446.614</ele>
        <time>2022-08-21T07:41:05Z</time>
      </trkpt>
      <trkpt lat="42.810885" lon="-7.644647">
        <ele>446.609</ele>
        <time>2022-08-21T07:41:10Z</time>
      </trkpt>
      <trkpt lat="42.810922" lon="-7.644690">
        <ele>446.656</ele>
        <time>2022-08-21T07:41:14Z</time>
      </trkpt>
      <trkpt lat="42.810957" lon="-7.644731">
        <ele>446.636</ele>
        <time>2022-08-21T07:41:18Z</time>
      </trkpt>
      <trkpt lat="42.810991" lon="-7.644772">
        <ele>446.646</ele>
        <time>2022-08-21T07:41:22Z</time>
      </trkpt>
      <trkpt lat="42.811028" lon="-7.644833">
        <ele>446.568</ele>
        <time>2022-08-21T07:41:26Z</time>
      </trkpt>
      <trkpt lat="42.811057" lon="-7.644883">
        <ele>446.380</ele>
        <time>2022-08-21T07:41:30Z</time>
      </trkpt>
      <trkpt lat="42.811087" lon="-7.644945">
        <ele>446.045</ele>
        <time>2022-08-21T07:41:34Z</time>
      </trkpt>
      <trkpt lat="42.811118" lon="-7.644994">
        <ele>445.735</ele>
        <time>2022-08-21T07:41:38Z</time>
      </trkpt>
      <trkpt lat="42.811151" lon="-7.645047">
        <ele>445.568</ele>
        <time>2022-08-21T07:41:42Z</time>
      </trkpt>
      <trkpt lat="42.811183" lon="-7.645091">
        <ele>445.450</ele>
        <time>2022-08-21T07:41:45Z</time>
      </trkpt>
      <trkpt lat="42.811215" lon="-7.645141">
        <ele>445.354</ele>
        <time>2022-08-21T07:41:49Z</time>
      </trkpt>
      <trkpt lat="42.811250" lon="-7.645202">
        <ele>445.256</ele>
        <time>2022-08-21T07:41:53Z</time>
      </trkpt>
      <trkpt lat="42.811280" lon="-7.645254">
        <ele>445.111</ele>
        <time>2022-08-21T07:41:57Z</time>
      </trkpt>
      <trkpt lat="42.811308" lon="-7.645313">
        <ele>445.009</ele>
        <time>2022-08-21T07:42:01Z</time>
      </trkpt>
      <trkpt lat="42.811336" lon="-7.645364">
        <ele>444.956</ele>
        <time>2022-08-21T07:42:05Z</time>
      </trkpt>
      <trkpt lat="42.811367" lon="-7.645425">
        <ele>444.916</ele>
        <time>2022-08-21T07:42:10Z</time>
      </trkpt>
      <trkpt lat="42.811393" lon="-7.645488">
        <ele>444.926</ele>
        <time>2022-08-21T07:42:14Z</time>
      </trkpt>
      <trkpt lat="42.811423" lon="-7.645556">
        <ele>444.958</ele>
        <time>2022-08-21T07:42:19Z</time>
      </trkpt>
      <trkpt lat="42.811457" lon="-7.645616">
        <ele>444.920</ele>
        <time>2022-08-21T07:42:23Z</time>
      </trkpt>
      <trkpt lat="42.811498" lon="-7.645677">
        <ele>444.915</ele>
        <time>2022-08-21T07:42:27Z</time>
      </trkpt>
      <trkpt lat="42.811533" lon="-7.645741">
        <ele>445.045</ele>
        <time>2022-08-21T07:42:31Z</time>
      </trkpt>
      <trkpt lat="42.811562" lon="-7.645804">
        <ele>445.138</ele>
        <time>2022-08-21T07:42:35Z</time>
      </trkpt>
      <trkpt lat="42.811592" lon="-7.645873">
        <ele>445.220</ele>
        <time>2022-08-21T07:42:39Z</time>
      </trkpt>
      <trkpt lat="42.811613" lon="-7.645930">
        <ele>445.272</ele>
        <time>2022-08-21T07:42:43Z</time>
      </trkpt>
      <trkpt lat="42.811636" lon="-7.645989">
        <ele>445.213</ele>
        <time>2022-08-21T07:42:47Z</time>
      </trkpt>
      <trkpt lat="42.811662" lon="-7.646039">
        <ele>445.314</ele>
        <time>2022-08-21T07:42:52Z</time>
      </trkpt>
      <trkpt lat="42.811679" lon="-7.646104">
        <ele>445.409</ele>
        <time>2022-08-21T07:42:56Z</time>
      </trkpt>
      <trkpt lat="42.811685" lon="-7.646178">
        <ele>445.598</ele>
        <time>2022-08-21T07:43:00Z</time>
      </trkpt>
      <trkpt lat="42.811699" lon="-7.646243">
        <ele>445.568</ele>
        <time>2022-08-21T07:43:04Z</time>
      </trkpt>
      <trkpt lat="42.811718" lon="-7.646311">
        <ele>445.658</ele>
        <time>2022-08-21T07:43:08Z</time>
      </trkpt>
      <trkpt lat="42.811727" lon="-7.646371">
        <ele>445.780</ele>
        <time>2022-08-21T07:43:11Z</time>
      </trkpt>
      <trkpt lat="42.811737" lon="-7.646442">
        <ele>445.892</ele>
        <time>2022-08-21T07:43:15Z</time>
      </trkpt>
      <trkpt lat="42.811738" lon="-7.646503">
        <ele>445.937</ele>
        <time>2022-08-21T07:43:18Z</time>
      </trkpt>
      <trkpt lat="42.811745" lon="-7.646573">
        <ele>446.077</ele>
        <time>2022-08-21T07:43:22Z</time>
      </trkpt>
      <trkpt lat="42.811749" lon="-7.646639">
        <ele>446.140</ele>
        <time>2022-08-21T07:43:26Z</time>
      </trkpt>
      <trkpt lat="42.811745" lon="-7.646710">
        <ele>446.212</ele>
        <time>2022-08-21T07:43:30Z</time>
      </trkpt>
      <trkpt lat="42.811747" lon="-7.646783">
        <ele>446.372</ele>
        <time>2022-08-21T07:43:34Z</time>
      </trkpt>
      <trkpt lat="42.811753" lon="-7.646855">
        <ele>446.313</ele>
        <time>2022-08-21T07:43:38Z</time>
      </trkpt>
      <trkpt lat="42.811756" lon="-7.646921">
        <ele>446.414</ele>
        <time>2022-08-21T07:43:41Z</time>
      </trkpt>
      <trkpt lat="42.811755" lon="-7.646999">
        <ele>446.509</ele>
        <time>2022-08-21T07:43:45Z</time>
      </trkpt>
      <trkpt lat="42.811759" lon="-7.647076">
        <ele>446.638</ele>
        <time>2022-08-21T07:43:49Z</time>
      </trkpt>
      <trkpt lat="42.811764" lon="-7.647153">
        <ele>446.688</ele>
        <time>2022-08-21T07:43:53Z</time>
      </trkpt>
      <trkpt lat="42.811763" lon="-7.647227">
        <ele>446.638</ele>
        <time>2022-08-21T07:43:57Z</time>
      </trkpt>
      <trkpt lat="42.811763" lon="-7.647301">
        <ele>446.690</ele>
        <time>2022-08-21T07:44:01Z</time>
      </trkpt>
      <trkpt lat="42.811764" lon="-7.647374">
        <ele>446.722</ele>
        <time>2022-08-21T07:44:05Z</time>
      </trkpt>
      <trkpt lat="42.811767" lon="-7.647451">
        <ele>446.817</ele>
        <time>2022-08-21T07:44:10Z</time>
      </trkpt>
      <trkpt lat="42.811767" lon="-7.647519">
        <ele>446.977</ele>
        <time>2022-08-21T07:44:14Z</time>
      </trkpt>
      <trkpt lat="42.811768" lon="-7.647581">
        <ele>447.090</ele>
        <time>2022-08-21T07:44:18Z</time>
      </trkpt>
      <trkpt lat="42.811771" lon="-7.647655">
        <ele>447.122</ele>
        <time>2022-08-21T07:44:22Z</time>
      </trkpt>
      <trkpt lat="42.811776" lon="-7.647719">
        <ele>447.219</ele>
        <time>2022-08-21T07:44:26Z</time>
      </trkpt>
      <trkpt lat="42.811776" lon="-7.647783">
        <ele>447.309</ele>
        <time>2022-08-21T07:44:30Z</time>
      </trkpt>
      <trkpt lat="42.811780" lon="-7.647853">
        <ele>447.419</ele>
        <time>2022-08-21T07:44:34Z</time>
      </trkpt>
      <trkpt lat="42.811784" lon="-7.647914">
        <ele>447.509</ele>
        <time>2022-08-21T07:44:38Z</time>
      </trkpt>
      <trkpt lat="42.811791" lon="-7.647996">
        <ele>447.652</ele>
        <time>2022-08-21T07:44:43Z</time>
      </trkpt>
      <trkpt lat="42.811790" lon="-7.648060">
        <ele>447.732</ele>
        <time>2022-08-21T07:44:47Z</time>
      </trkpt>
      <trkpt lat="42.811790" lon="-7.648139">
        <ele>447.882</ele>
        <time>2022-08-21T07:44:52Z</time>
      </trkpt>
      <trkpt lat="42.811796" lon="-7.648208">
        <ele>447.974</ele>
        <time>2022-08-21T07:44:56Z</time>
      </trkpt>
      <trkpt lat="42.811794" lon="-7.648271">
        <ele>448.096</ele>
        <time>2022-08-21T07:45:00Z</time>
      </trkpt>
      <trkpt lat="42.811795" lon="-7.648340">
        <ele>448.151</ele>
        <time>2022-08-21T07:45:05Z</time>
      </trkpt>
      <trkpt lat="42.811796" lon="-7.648415">
        <ele>448.321</ele>
        <time>2022-08-21T07:45:10Z</time>
      </trkpt>
      <trkpt lat="42.811797" lon="-7.648482">
        <ele>448.444</ele>
        <time>2022-08-21T07:45:14Z</time>
      </trkpt>
      <trkpt lat="42.811787" lon="-7.648542">
        <ele>448.556</ele>
        <time>2022-08-21T07:45:18Z</time>
      </trkpt>
      <trkpt lat="42.811793" lon="-7.648620">
        <ele>448.729</ele>
        <time>2022-08-21T07:45:22Z</time>
      </trkpt>
      <trkpt lat="42.811802" lon="-7.648691">
        <ele>448.900</ele>
        <time>2022-08-21T07:45:26Z</time>
      </trkpt>
      <trkpt lat="42.811804" lon="-7.648761">
        <ele>449.120</ele>
        <time>2022-08-21T07:45:30Z</time>
      </trkpt>
      <trkpt lat="42.811806" lon="-7.648822">
        <ele>449.309</ele>
        <time>2022-08-21T07:45:34Z</time>
      </trkpt>
      <trkpt lat="42.811803" lon="-7.648886">
        <ele>449.453</ele>
        <time>2022-08-21T07:45:37Z</time>
      </trkpt>
      <trkpt lat="42.811806" lon="-7.648951">
        <ele>449.673</ele>
        <time>2022-08-21T07:45:41Z</time>
      </trkpt>
      <trkpt lat="42.811816" lon="-7.649014">
        <ele>449.823</ele>
        <time>2022-08-21T07:45:44Z</time>
      </trkpt>
      <trkpt lat="42.811821" lon="-7.649082">
        <ele>450.025</ele>
        <time>2022-08-21T07:45:47Z</time>
      </trkpt>
      <trkpt lat="42.811822" lon="-7.649144">
        <ele>450.237</ele>
        <time>2022-08-21T07:45:50Z</time>
      </trkpt>
      <trkpt lat="42.811826" lon="-7.649208">
        <ele>450.362</ele>
        <time>2022-08-21T07:45:53Z</time>
      </trkpt>
      <trkpt lat="42.811826" lon="-7.649288">
        <ele>450.482</ele>
        <time>2022-08-21T07:45:57Z</time>
      </trkpt>
      <trkpt lat="42.811828" lon="-7.649367">
        <ele>450.685</ele>
        <time>2022-08-21T07:46:01Z</time>
      </trkpt>
      <trkpt lat="42.811826" lon="-7.649439">
        <ele>450.857</ele>
        <time>2022-08-21T07:46:05Z</time>
      </trkpt>
      <trkpt lat="42.811825" lon="-7.649502">
        <ele>451.067</ele>
        <time>2022-08-21T07:46:08Z</time>
      </trkpt>
      <trkpt lat="42.811826" lon="-7.649577">
        <ele>451.581</ele>
        <time>2022-08-21T07:46:12Z</time>
      </trkpt>
      <trkpt lat="42.811832" lon="-7.649648">
        <ele>451.619</ele>
        <time>2022-08-21T07:46:16Z</time>
      </trkpt>
      <trkpt lat="42.811836" lon="-7.649721">
        <ele>451.809</ele>
        <time>2022-08-21T07:46:20Z</time>
      </trkpt>
      <trkpt lat="42.811834" lon="-7.649790">
        <ele>452.137</ele>
        <time>2022-08-21T07:46:24Z</time>
      </trkpt>
      <trkpt lat="42.811838" lon="-7.649855">
        <ele>452.497</ele>
        <time>2022-08-21T07:46:28Z</time>
      </trkpt>
      <trkpt lat="42.811835" lon="-7.649925">
        <ele>452.717</ele>
        <time>2022-08-21T07:46:32Z</time>
      </trkpt>
      <trkpt lat="42.811840" lon="-7.649994">
        <ele>453.099</ele>
        <time>2022-08-21T07:46:36Z</time>
      </trkpt>
      <trkpt lat="42.811838" lon="-7.650058">
        <ele>453.311</ele>
        <time>2022-08-21T07:46:40Z</time>
      </trkpt>
      <trkpt lat="42.811845" lon="-7.650133">
        <ele>453.636</ele>
        <time>2022-08-21T07:46:44Z</time>
      </trkpt>
      <trkpt lat="42.811852" lon="-7.650201">
        <ele>453.956</ele>
        <time>2022-08-21T07:46:48Z</time>
      </trkpt>
      <trkpt lat="42.811851" lon="-7.650273">
        <ele>454.239</ele>
        <time>2022-08-21T07:46:52Z</time>
      </trkpt>
      <trkpt lat="42.811856" lon="-7.650353">
        <ele>454.521</ele>
        <time>2022-08-21T07:46:57Z</time>
      </trkpt>
      <trkpt lat="42.811859" lon="-7.650427">
        <ele>455.023</ele>
        <time>2022-08-21T07:47:01Z</time>
      </trkpt>
      <trkpt lat="42.811860" lon="-7.650504">
        <ele>455.383</ele>
        <time>2022-08-21T07:47:05Z</time>
      </trkpt>
      <trkpt lat="42.811864" lon="-7.650579">
        <ele>455.611</ele>
        <time>2022-08-21T07:47:09Z</time>
      </trkpt>
      <trkpt lat="42.811867" lon="-7.650652">
        <ele>455.909</ele>
        <time>2022-08-21T07:47:13Z</time>
      </trkpt>
      <trkpt lat="42.811864" lon="-7.650724">
        <ele>456.123</ele>
        <time>2022-08-21T07:47:17Z</time>
      </trkpt>
      <trkpt lat="42.811866" lon="-7.650787">
        <ele>456.233</ele>
        <time>2022-08-21T07:47:21Z</time>
      </trkpt>
      <trkpt lat="42.811869" lon="-7.650849">
        <ele>456.513</ele>
        <time>2022-08-21T07:47:25Z</time>
      </trkpt>
      <trkpt lat="42.811878" lon="-7.650925">
        <ele>456.815</ele>
        <time>2022-08-21T07:47:30Z</time>
      </trkpt>
      <trkpt lat="42.811878" lon="-7.650992">
        <ele>457.277</ele>
        <time>2022-08-21T07:47:34Z</time>
      </trkpt>
      <trkpt lat="42.811877" lon="-7.651065">
        <ele>457.762</ele>
        <time>2022-08-21T07:47:38Z</time>
      </trkpt>
      <trkpt lat="42.811877" lon="-7.651134">
        <ele>458.142</ele>
        <time>2022-08-21T07:47:42Z</time>
      </trkpt>
      <trkpt lat="42.811879" lon="-7.651204">
        <ele>458.455</ele>
        <time>2022-08-21T07:47:46Z</time>
      </trkpt>
      <trkpt lat="42.811880" lon="-7.651273">
        <ele>458.727</ele>
        <time>2022-08-21T07:47:50Z</time>
      </trkpt>
      <trkpt lat="42.811880" lon="-7.651340">
        <ele>458.947</ele>
        <time>2022-08-21T07:47:54Z</time>
      </trkpt>
      <trkpt lat="42.811874" lon="-7.651415">
        <ele>459.229</ele>
        <time>2022-08-21T07:47:59Z</time>
      </trkpt>
      <trkpt lat="42.811873" lon="-7.651495">
        <ele>459.521</ele>
        <time>2022-08-21T07:48:03Z</time>
      </trkpt>
      <trkpt lat="42.811877" lon="-7.651570">
        <ele>459.809</ele>
        <time>2022-08-21T07:48:07Z</time>
      </trkpt>
      <trkpt lat="42.811874" lon="-7.651631">
        <ele>460.135</ele>
        <time>2022-08-21T07:48:11Z</time>
      </trkpt>
      <trkpt lat="42.811888" lon="-7.651698">
        <ele>460.585</ele>
        <time>2022-08-21T07:48:15Z</time>
      </trkpt>
      <trkpt lat="42.811898" lon="-7.651764">
        <ele>460.875</ele>
        <time>2022-08-21T07:48:19Z</time>
      </trkpt>
      <trkpt lat="42.811891" lon="-7.651834">
        <ele>461.037</ele>
        <time>2022-08-21T07:48:23Z</time>
      </trkpt>
      <trkpt lat="42.811885" lon="-7.651901">
        <ele>461.299</ele>
        <time>2022-08-21T07:48:27Z</time>
      </trkpt>
      <trkpt lat="42.811887" lon="-7.651967">
        <ele>461.344</ele>
        <time>2022-08-21T07:48:30Z</time>
      </trkpt>
      <trkpt lat="42.811895" lon="-7.652035">
        <ele>461.594</ele>
        <time>2022-08-21T07:48:34Z</time>
      </trkpt>
      <trkpt lat="42.811899" lon="-7.652097">
        <ele>461.667</ele>
        <time>2022-08-21T07:48:38Z</time>
      </trkpt>
      <trkpt lat="42.811902" lon="-7.652168">
        <ele>461.689</ele>
        <time>2022-08-21T07:48:42Z</time>
      </trkpt>
      <trkpt lat="42.811909" lon="-7.652231">
        <ele>461.618</ele>
        <time>2022-08-21T07:48:46Z</time>
      </trkpt>
      <trkpt lat="42.811910" lon="-7.652301">
        <ele>461.798</ele>
        <time>2022-08-21T07:48:50Z</time>
      </trkpt>
      <trkpt lat="42.811908" lon="-7.652371">
        <ele>461.717</ele>
        <time>2022-08-21T07:48:54Z</time>
      </trkpt>
      <trkpt lat="42.811901" lon="-7.652436">
        <ele>461.709</ele>
        <time>2022-08-21T07:48:59Z</time>
      </trkpt>
      <trkpt lat="42.811905" lon="-7.652513">
        <ele>461.712</ele>
        <time>2022-08-21T07:49:03Z</time>
      </trkpt>
      <trkpt lat="42.811902" lon="-7.652576">
        <ele>461.792</ele>
        <time>2022-08-21T07:49:06Z</time>
      </trkpt>
      <trkpt lat="42.811903" lon="-7.652656">
        <ele>461.712</ele>
        <time>2022-08-21T07:49:10Z</time>
      </trkpt>
      <trkpt lat="42.811909" lon="-7.652724">
        <ele>461.764</ele>
        <time>2022-08-21T07:49:13Z</time>
      </trkpt>
      <trkpt lat="42.811911" lon="-7.652786">
        <ele>461.856</ele>
        <time>2022-08-21T07:49:16Z</time>
      </trkpt>
      <trkpt lat="42.811914" lon="-7.652851">
        <ele>461.821</ele>
        <time>2022-08-21T07:49:19Z</time>
      </trkpt>
      <trkpt lat="42.811914" lon="-7.652912">
        <ele>461.831</ele>
        <time>2022-08-21T07:49:22Z</time>
      </trkpt>
      <trkpt lat="42.811916" lon="-7.652992">
        <ele>461.854</ele>
        <time>2022-08-21T07:49:26Z</time>
      </trkpt>
      <trkpt lat="42.811920" lon="-7.653073">
        <ele>461.886</ele>
        <time>2022-08-21T07:49:30Z</time>
      </trkpt>
      <trkpt lat="42.811922" lon="-7.653152">
        <ele>461.818</ele>
        <time>2022-08-21T07:49:34Z</time>
      </trkpt>
      <trkpt lat="42.811928" lon="-7.653232">
        <ele>461.898</ele>
        <time>2022-08-21T07:49:38Z</time>
      </trkpt>
      <trkpt lat="42.811934" lon="-7.653294">
        <ele>461.817</ele>
        <time>2022-08-21T07:49:41Z</time>
      </trkpt>
      <trkpt lat="42.811941" lon="-7.653375">
        <ele>461.809</ele>
        <time>2022-08-21T07:49:45Z</time>
      </trkpt>
      <trkpt lat="42.811944" lon="-7.653456">
        <ele>461.862</ele>
        <time>2022-08-21T07:49:49Z</time>
      </trkpt>
      <trkpt lat="42.811943" lon="-7.653536">
        <ele>461.852</ele>
        <time>2022-08-21T07:49:53Z</time>
      </trkpt>
      <trkpt lat="42.811945" lon="-7.653615">
        <ele>461.862</ele>
        <time>2022-08-21T07:49:57Z</time>
      </trkpt>
      <trkpt lat="42.811944" lon="-7.653695">
        <ele>461.884</ele>
        <time>2022-08-21T07:50:01Z</time>
      </trkpt>
      <trkpt lat="42.811949" lon="-7.653774">
        <ele>461.856</ele>
        <time>2022-08-21T07:50:05Z</time>
      </trkpt>
      <trkpt lat="42.811954" lon="-7.653853">
        <ele>461.841</ele>
        <time>2022-08-21T07:50:09Z</time>
      </trkpt>
      <trkpt lat="42.811957" lon="-7.653931">
        <ele>461.891</ele>
        <time>2022-08-21T07:50:13Z</time>
      </trkpt>
      <trkpt lat="42.811962" lon="-7.654009">
        <ele>461.914</ele>
        <time>2022-08-21T07:50:17Z</time>
      </trkpt>
      <trkpt lat="42.811964" lon="-7.654087">
        <ele>461.926</ele>
        <time>2022-08-21T07:50:21Z</time>
      </trkpt>
      <trkpt lat="42.811966" lon="-7.654165">
        <ele>461.928</ele>
        <time>2022-08-21T07:50:25Z</time>
      </trkpt>
      <trkpt lat="42.811969" lon="-7.654239">
        <ele>461.989</ele>
        <time>2022-08-21T07:50:29Z</time>
      </trkpt>
      <trkpt lat="42.811973" lon="-7.654314">
        <ele>461.917</ele>
        <time>2022-08-21T07:50:33Z</time>
      </trkpt>
      <trkpt lat="42.811975" lon="-7.654393">
        <ele>461.909</ele>
        <time>2022-08-21T07:50:37Z</time>
      </trkpt>
      <trkpt lat="42.811980" lon="-7.654469">
        <ele>461.953</ele>
        <time>2022-08-21T07:50:41Z</time>
      </trkpt>
      <trkpt lat="42.811989" lon="-7.654545">
        <ele>461.923</ele>
        <time>2022-08-21T07:50:45Z</time>
      </trkpt>
      <trkpt lat="42.811991" lon="-7.654622">
        <ele>461.913</ele>
        <time>2022-08-21T07:50:49Z</time>
      </trkpt>
      <trkpt lat="42.811993" lon="-7.654696">
        <ele>462.015</ele>
        <time>2022-08-21T07:50:53Z</time>
      </trkpt>
      <trkpt lat="42.812000" lon="-7.654768">
        <ele>462.067</ele>
        <time>2022-08-21T07:50:57Z</time>
      </trkpt>
      <trkpt lat="42.812001" lon="-7.654841">
        <ele>462.252</ele>
        <time>2022-08-21T07:51:01Z</time>
      </trkpt>
      <trkpt lat="42.811998" lon="-7.654911">
        <ele>462.322</ele>
        <time>2022-08-21T07:51:05Z</time>
      </trkpt>
      <trkpt lat="42.812000" lon="-7.654984">
        <ele>462.445</ele>
        <time>2022-08-21T07:51:09Z</time>
      </trkpt>
      <trkpt lat="42.811999" lon="-7.655055">
        <ele>462.677</ele>
        <time>2022-08-21T07:51:13Z</time>
      </trkpt>
      <trkpt lat="42.812006" lon="-7.655125">
        <ele>462.896</ele>
        <time>2022-08-21T07:51:18Z</time>
      </trkpt>
      <trkpt lat="42.812007" lon="-7.655202">
        <ele>463.031</ele>
        <time>2022-08-21T07:51:23Z</time>
      </trkpt>
      <trkpt lat="42.812002" lon="-7.655266">
        <ele>463.224</ele>
        <time>2022-08-21T07:51:27Z</time>
      </trkpt>
      <trkpt lat="42.812003" lon="-7.655329">
        <ele>463.509</ele>
        <time>2022-08-21T07:51:31Z</time>
      </trkpt>
      <trkpt lat="42.812008" lon="-7.655405">
        <ele>463.740</ele>
        <time>2022-08-21T07:51:36Z</time>
      </trkpt>
      <trkpt lat="42.812010" lon="-7.655471">
        <ele>463.920</ele>
        <time>2022-08-21T07:51:40Z</time>
      </trkpt>
      <trkpt lat="42.812009" lon="-7.655541">
        <ele>464.260</ele>
        <time>2022-08-21T07:51:44Z</time>
      </trkpt>
      <trkpt lat="42.812017" lon="-7.655607">
        <ele>464.582</ele>
        <time>2022-08-21T07:51:48Z</time>
      </trkpt>
      <trkpt lat="42.812016" lon="-7.655679">
        <ele>464.784</ele>
        <time>2022-08-21T07:51:52Z</time>
      </trkpt>
      <trkpt lat="42.812021" lon="-7.655752">
        <ele>464.969</ele>
        <time>2022-08-21T07:51:56Z</time>
      </trkpt>
      <trkpt lat="42.812021" lon="-7.655821">
        <ele>465.169</ele>
        <time>2022-08-21T07:52:00Z</time>
      </trkpt>
      <trkpt lat="42.812025" lon="-7.655884">
        <ele>465.352</ele>
        <time>2022-08-21T07:52:04Z</time>
      </trkpt>
      <trkpt lat="42.812023" lon="-7.655947">
        <ele>465.564</ele>
        <time>2022-08-21T07:52:08Z</time>
      </trkpt>
      <trkpt lat="42.812025" lon="-7.656019">
        <ele>465.794</ele>
        <time>2022-08-21T07:52:12Z</time>
      </trkpt>
      <trkpt lat="42.812028" lon="-7.656087">
        <ele>465.957</ele>
        <time>2022-08-21T07:52:16Z</time>
      </trkpt>
      <trkpt lat="42.812026" lon="-7.656148">
        <ele>466.122</ele>
        <time>2022-08-21T07:52:20Z</time>
      </trkpt>
      <trkpt lat="42.812032" lon="-7.656221">
        <ele>466.409</ele>
        <time>2022-08-21T07:52:25Z</time>
      </trkpt>
      <trkpt lat="42.812032" lon="-7.656288">
        <ele>466.740</ele>
        <time>2022-08-21T07:52:29Z</time>
      </trkpt>
      <trkpt lat="42.812039" lon="-7.656352">
        <ele>467.050</ele>
        <time>2022-08-21T07:52:33Z</time>
      </trkpt>
      <trkpt lat="42.812039" lon="-7.656422">
        <ele>467.370</ele>
        <time>2022-08-21T07:52:37Z</time>
      </trkpt>
      <trkpt lat="42.812044" lon="-7.656496">
        <ele>467.522</ele>
        <time>2022-08-21T07:52:42Z</time>
      </trkpt>
      <trkpt lat="42.812050" lon="-7.656565">
        <ele>467.824</ele>
        <time>2022-08-21T07:52:46Z</time>
      </trkpt>
      <trkpt lat="42.812055" lon="-7.656635">
        <ele>468.179</ele>
        <time>2022-08-21T07:52:50Z</time>
      </trkpt>
      <trkpt lat="42.812059" lon="-7.656708">
        <ele>468.519</ele>
        <time>2022-08-21T07:52:54Z</time>
      </trkpt>
      <trkpt lat="42.812057" lon="-7.656774">
        <ele>468.852</ele>
        <time>2022-08-21T07:52:57Z</time>
      </trkpt>
      <trkpt lat="42.812053" lon="-7.656847">
        <ele>469.054</ele>
        <time>2022-08-21T07:53:01Z</time>
      </trkpt>
      <trkpt lat="42.812056" lon="-7.656916">
        <ele>469.378</ele>
        <time>2022-08-21T07:53:05Z</time>
      </trkpt>
      <trkpt lat="42.812054" lon="-7.656983">
        <ele>469.633</ele>
        <time>2022-08-21T07:53:09Z</time>
      </trkpt>
      <trkpt lat="42.812059" lon="-7.657047">
        <ele>470.026</ele>
        <time>2022-08-21T07:53:14Z</time>
      </trkpt>
      <trkpt lat="42.812057" lon="-7.657115">
        <ele>470.409</ele>
        <time>2022-08-21T07:53:18Z</time>
      </trkpt>
      <trkpt lat="42.812062" lon="-7.657186">
        <ele>470.848</ele>
        <time>2022-08-21T07:53:22Z</time>
      </trkpt>
      <trkpt lat="42.812066" lon="-7.657260">
        <ele>471.298</ele>
        <time>2022-08-21T07:53:26Z</time>
      </trkpt>
      <trkpt lat="42.812065" lon="-7.657324">
        <ele>471.538</ele>
        <time>2022-08-21T07:53:29Z</time>
      </trkpt>
      <trkpt lat="42.812070" lon="-7.657390">
        <ele>471.870</ele>
        <time>2022-08-21T07:53:33Z</time>
      </trkpt>
      <trkpt lat="42.812071" lon="-7.657462">
        <ele>472.132</ele>
        <time>2022-08-21T07:53:37Z</time>
      </trkpt>
      <trkpt lat="42.812072" lon="-7.657534">
        <ele>472.437</ele>
        <time>2022-08-21T07:53:41Z</time>
      </trkpt>
      <trkpt lat="42.812072" lon="-7.657602">
        <ele>472.787</ele>
        <time>2022-08-21T07:53:45Z</time>
      </trkpt>
      <trkpt lat="42.812072" lon="-7.657677">
        <ele>473.140</ele>
        <time>2022-08-21T07:53:49Z</time>
      </trkpt>
      <trkpt lat="42.812077" lon="-7.657748">
        <ele>473.512</ele>
        <time>2022-08-21T07:53:53Z</time>
      </trkpt>
      <trkpt lat="42.812085" lon="-7.657823">
        <ele>473.974</ele>
        <time>2022-08-21T07:53:58Z</time>
      </trkpt>
      <trkpt lat="42.812085" lon="-7.657894">
        <ele>474.256</ele>
        <time>2022-08-21T07:54:02Z</time>
      </trkpt>
      <trkpt lat="42.812092" lon="-7.657976">
        <ele>474.821</ele>
        <time>2022-08-21T07:54:06Z</time>
      </trkpt>
      <trkpt lat="42.812098" lon="-7.658051">
        <ele>475.209</ele>
        <time>2022-08-21T07:54:10Z</time>
      </trkpt>
      <trkpt lat="42.812105" lon="-7.658117">
        <ele>475.598</ele>
        <time>2022-08-21T07:54:14Z</time>
      </trkpt>
      <trkpt lat="42.812122" lon="-7.658183">
        <ele>475.788</ele>
        <time>2022-08-21T07:54:18Z</time>
      </trkpt>
      <trkpt lat="42.812132" lon="-7.658248">
        <ele>476.028</ele>
        <time>2022-08-21T07:54:22Z</time>
      </trkpt>
      <trkpt lat="42.812134" lon="-7.658318">
        <ele>476.490</ele>
        <time>2022-08-21T07:54:25Z</time>
      </trkpt>
      <trkpt lat="42.812143" lon="-7.658380">
        <ele>476.852</ele>
        <time>2022-08-21T07:54:29Z</time>
      </trkpt>
      <trkpt lat="42.812155" lon="-7.658450">
        <ele>477.297</ele>
        <time>2022-08-21T07:54:33Z</time>
      </trkpt>
      <trkpt lat="42.812163" lon="-7.658521">
        <ele>477.697</ele>
        <time>2022-08-21T07:54:37Z</time>
      </trkpt>
      <trkpt lat="42.812172" lon="-7.658593">
        <ele>478.060</ele>
        <time>2022-08-21T07:54:41Z</time>
      </trkpt>
      <trkpt lat="42.812180" lon="-7.658657">
        <ele>478.492</ele>
        <time>2022-08-21T07:54:45Z</time>
      </trkpt>
      <trkpt lat="42.812186" lon="-7.658721">
        <ele>478.839</ele>
        <time>2022-08-21T07:54:48Z</time>
      </trkpt>
      <trkpt lat="42.812194" lon="-7.658786">
        <ele>479.201</ele>
        <time>2022-08-21T07:54:52Z</time>
      </trkpt>
      <trkpt lat="42.812165" lon="-7.658854">
        <ele>479.521</ele>
        <time>2022-08-21T07:54:56Z</time>
      </trkpt>
      <trkpt lat="42.812125" lon="-7.658905">
        <ele>479.909</ele>
        <time>2022-08-21T07:55:00Z</time>
      </trkpt>
      <trkpt lat="42.812104" lon="-7.658970">
        <ele>480.244</ele>
        <time>2022-08-21T07:55:04Z</time>
      </trkpt>
      <trkpt lat="42.812104" lon="-7.659032">
        <ele>480.444</ele>
        <time>2022-08-21T07:55:08Z</time>
      </trkpt>
      <trkpt lat="42.812117" lon="-7.659096">
        <ele>480.534</ele>
        <time>2022-08-21T07:55:12Z</time>
      </trkpt>
      <trkpt lat="42.812133" lon="-7.659164">
        <ele>480.516</ele>
        <time>2022-08-21T07:55:16Z</time>
      </trkpt>
      <trkpt lat="42.812145" lon="-7.659224">
        <ele>480.578</ele>
        <time>2022-08-21T07:55:20Z</time>
      </trkpt>
      <trkpt lat="42.812155" lon="-7.659290">
        <ele>480.533</ele>
        <time>2022-08-21T07:55:24Z</time>
      </trkpt>
      <trkpt lat="42.812164" lon="-7.659362">
        <ele>480.673</ele>
        <time>2022-08-21T07:55:28Z</time>
      </trkpt>
      <trkpt lat="42.812175" lon="-7.659431">
        <ele>480.766</ele>
        <time>2022-08-21T07:55:32Z</time>
      </trkpt>
      <trkpt lat="42.812190" lon="-7.659506">
        <ele>480.848</ele>
        <time>2022-08-21T07:55:37Z</time>
      </trkpt>
      <trkpt lat="42.812194" lon="-7.659582">
        <ele>480.999</ele>
        <time>2022-08-21T07:55:41Z</time>
      </trkpt>
      <trkpt lat="42.812203" lon="-7.659651">
        <ele>481.007</ele>
        <time>2022-08-21T07:55:45Z</time>
      </trkpt>
      <trkpt lat="42.812217" lon="-7.659710">
        <ele>481.027</ele>
        <time>2022-08-21T07:55:48Z</time>
      </trkpt>
      <trkpt lat="42.812238" lon="-7.659776">
        <ele>481.009</ele>
        <time>2022-08-21T07:55:51Z</time>
      </trkpt>
      <trkpt lat="42.812255" lon="-7.659837">
        <ele>481.170</ele>
        <time>2022-08-21T07:55:54Z</time>
      </trkpt>
      <trkpt lat="42.812269" lon="-7.659899">
        <ele>481.260</ele>
        <time>2022-08-21T07:55:57Z</time>
      </trkpt>
      <trkpt lat="42.812277" lon="-7.659961">
        <ele>481.310</ele>
        <time>2022-08-21T07:56:00Z</time>
      </trkpt>
      <trkpt lat="42.812284" lon="-7.660025">
        <ele>481.442</ele>
        <time>2022-08-21T07:56:03Z</time>
      </trkpt>
      <trkpt lat="42.812277" lon="-7.660089">
        <ele>481.484</ele>
        <time>2022-08-21T07:56:06Z</time>
      </trkpt>
      <trkpt lat="42.812272" lon="-7.660156">
        <ele>481.429</ele>
        <time>2022-08-21T07:56:09Z</time>
      </trkpt>
      <trkpt lat="42.812276" lon="-7.660236">
        <ele>481.439</ele>
        <time>2022-08-21T07:56:13Z</time>
      </trkpt>
      <trkpt lat="42.812283" lon="-7.660315">
        <ele>481.552</ele>
        <time>2022-08-21T07:56:17Z</time>
      </trkpt>
      <trkpt lat="42.812295" lon="-7.660391">
        <ele>481.744</ele>
        <time>2022-08-21T07:56:21Z</time>
      </trkpt>
      <trkpt lat="42.812305" lon="-7.660467">
        <ele>481.789</ele>
        <time>2022-08-21T07:56:25Z</time>
      </trkpt>
      <trkpt lat="42.812315" lon="-7.660540">
        <ele>481.706</ele>
        <time>2022-08-21T07:56:29Z</time>
      </trkpt>
      <trkpt lat="42.812325" lon="-7.660615">
        <ele>481.726</ele>
        <time>2022-08-21T07:56:33Z</time>
      </trkpt>
      <trkpt lat="42.812337" lon="-7.660688">
        <ele>481.709</ele>
        <time>2022-08-21T07:56:37Z</time>
      </trkpt>
      <trkpt lat="42.812346" lon="-7.660759">
        <ele>481.829</ele>
        <time>2022-08-21T07:56:41Z</time>
      </trkpt>
      <trkpt lat="42.812360" lon="-7.660829">
        <ele>481.849</ele>
        <time>2022-08-21T07:56:45Z</time>
      </trkpt>
      <trkpt lat="42.812380" lon="-7.660902">
        <ele>481.879</ele>
        <time>2022-08-21T07:56:52Z</time>
      </trkpt>
      <trkpt lat="42.812397" lon="-7.660965">
        <ele>481.871</ele>
        <time>2022-08-21T07:56:56Z</time>
      </trkpt>
      <trkpt lat="42.812409" lon="-7.661027">
        <ele>481.873</ele>
        <time>2022-08-21T07:57:00Z</time>
      </trkpt>
      <trkpt lat="42.812423" lon="-7.661099">
        <ele>481.858</ele>
        <time>2022-08-21T07:57:04Z</time>
      </trkpt>
      <trkpt lat="42.812435" lon="-7.661167">
        <ele>481.748</ele>
        <time>2022-08-21T07:57:08Z</time>
      </trkpt>
      <trkpt lat="42.812447" lon="-7.661233">
        <ele>481.711</ele>
        <time>2022-08-21T07:57:12Z</time>
      </trkpt>
      <trkpt lat="42.812455" lon="-7.661301">
        <ele>481.773</ele>
        <time>2022-08-21T07:57:16Z</time>
      </trkpt>
      <trkpt lat="42.812464" lon="-7.661381">
        <ele>481.731</ele>
        <time>2022-08-21T07:57:20Z</time>
      </trkpt>
      <trkpt lat="42.812476" lon="-7.661459">
        <ele>481.861</ele>
        <time>2022-08-21T07:57:24Z</time>
      </trkpt>
      <trkpt lat="42.812490" lon="-7.661527">
        <ele>481.807</ele>
        <time>2022-08-21T07:57:28Z</time>
      </trkpt>
      <trkpt lat="42.812500" lon="-7.661592">
        <ele>481.809</ele>
        <time>2022-08-21T07:57:32Z</time>
      </trkpt>
      <trkpt lat="42.812516" lon="-7.661663">
        <ele>481.824</ele>
        <time>2022-08-21T07:57:36Z</time>
      </trkpt>
      <trkpt lat="42.812525" lon="-7.661737">
        <ele>481.824</ele>
        <time>2022-08-21T07:57:40Z</time>
      </trkpt>
      <trkpt lat="42.812536" lon="-7.661813">
        <ele>481.714</ele>
        <time>2022-08-21T07:57:44Z</time>
      </trkpt>
      <trkpt lat="42.812545" lon="-7.661886">
        <ele>481.146</ele>
        <time>2022-08-21T07:57:48Z</time>
      </trkpt>
      <trkpt lat="42.812557" lon="-7.661950">
        <ele>480.578</ele>
        <time>2022-08-21T07:57:52Z</time>
      </trkpt>
      <trkpt lat="42.812570" lon="-7.662025">
        <ele>480.293</ele>
        <time>2022-08-21T07:57:56Z</time>
      </trkpt>
      <trkpt lat="42.812578" lon="-7.662100">
        <ele>480.073</ele>
        <time>2022-08-21T07:58:00Z</time>
      </trkpt>
      <trkpt lat="42.812587" lon="-7.662176">
        <ele>480.016</ele>
        <time>2022-08-21T07:58:04Z</time>
      </trkpt>
      <trkpt lat="42.812593" lon="-7.662256">
        <ele>480.088</ele>
        <time>2022-08-21T07:58:08Z</time>
      </trkpt>
      <trkpt lat="42.812600" lon="-7.662332">
        <ele>480.092</ele>
        <time>2022-08-21T07:58:12Z</time>
      </trkpt>
      <trkpt lat="42.812604" lon="-7.662410">
        <ele>480.073</ele>
        <time>2022-08-21T07:58:16Z</time>
      </trkpt>
      <trkpt lat="42.812619" lon="-7.662483">
        <ele>480.120</ele>
        <time>2022-08-21T07:58:20Z</time>
      </trkpt>
      <trkpt lat="42.812626" lon="-7.662557">
        <ele>480.209</ele>
        <time>2022-08-21T07:58:24Z</time>
      </trkpt>
      <trkpt lat="42.812635" lon="-7.662632">
        <ele>480.460</ele>
        <time>2022-08-21T07:58:28Z</time>
      </trkpt>
      <trkpt lat="42.812640" lon="-7.662701">
        <ele>480.650</ele>
        <time>2022-08-21T07:58:32Z</time>
      </trkpt>
      <trkpt lat="42.812642" lon="-7.662768">
        <ele>480.710</ele>
        <time>2022-08-21T07:58:37Z</time>
      </trkpt>
      <trkpt lat="42.812651" lon="-7.662841">
        <ele>480.962</ele>
        <time>2022-08-21T07:58:43Z</time>
      </trkpt>
      <trkpt lat="42.812670" lon="-7.662917">
        <ele>481.274</ele>
        <time>2022-08-21T07:58:48Z</time>
      </trkpt>
      <trkpt lat="42.812685" lon="-7.662981">
        <ele>481.789</ele>
        <time>2022-08-21T07:58:52Z</time>
      </trkpt>
      <trkpt lat="42.812701" lon="-7.663046">
        <ele>482.499</ele>
        <time>2022-08-21T07:58:56Z</time>
      </trkpt>
      <trkpt lat="42.812725" lon="-7.663102">
        <ele>483.012</ele>
        <time>2022-08-21T07:59:00Z</time>
      </trkpt>
      <trkpt lat="42.812745" lon="-7.663164">
        <ele>483.514</ele>
        <time>2022-08-21T07:59:04Z</time>
      </trkpt>
      <trkpt lat="42.812752" lon="-7.663232">
        <ele>484.262</ele>
        <time>2022-08-21T07:59:09Z</time>
      </trkpt>
      <trkpt lat="42.812758" lon="-7.663296">
        <ele>484.983</ele>
        <time>2022-08-21T07:59:13Z</time>
      </trkpt>
      <trkpt lat="42.812740" lon="-7.663367">
        <ele>485.311</ele>
        <time>2022-08-21T07:59:18Z</time>
      </trkpt>
      <trkpt lat="42.812741" lon="-7.663432">
        <ele>485.409</ele>
        <time>2022-08-21T07:59:22Z</time>
      </trkpt>
      <trkpt lat="42.812734" lon="-7.663499">
        <ele>485.767</ele>
        <time>2022-08-21T07:59:26Z</time>
      </trkpt>
      <trkpt lat="42.812737" lon="-7.663564">
        <ele>486.187</ele>
        <time>2022-08-21T07:59:31Z</time>
      </trkpt>
      <trkpt lat="42.812738" lon="-7.663631">
        <ele>486.427</ele>
        <time>2022-08-21T07:59:35Z</time>
      </trkpt>
      <trkpt lat="42.812735" lon="-7.663701">
        <ele>486.859</ele>
        <time>2022-08-21T07:59:39Z</time>
      </trkpt>
      <trkpt lat="42.812744" lon="-7.663772">
        <ele>487.241</ele>
        <time>2022-08-21T07:59:43Z</time>
      </trkpt>
      <trkpt lat="42.812757" lon="-7.663848">
        <ele>487.786</ele>
        <time>2022-08-21T07:59:47Z</time>
      </trkpt>
      <trkpt lat="42.812785" lon="-7.663910">
        <ele>488.246</ele>
        <time>2022-08-21T07:59:51Z</time>
      </trkpt>
      <trkpt lat="42.812816" lon="-7.663969">
        <ele>488.829</ele>
        <time>2022-08-21T07:59:55Z</time>
      </trkpt>
      <trkpt lat="42.812852" lon="-7.664012">
        <ele>489.321</ele>
        <time>2022-08-21T07:59:59Z</time>
      </trkpt>
      <trkpt lat="42.812889" lon="-7.664062">
        <ele>489.844</ele>
        <time>2022-08-21T08:00:04Z</time>
      </trkpt>
      <trkpt lat="42.812929" lon="-7.664115">
        <ele>490.205</ele>
        <time>2022-08-21T08:00:08Z</time>
      </trkpt>
      <trkpt lat="42.812970" lon="-7.664152">
        <ele>490.515</ele>
        <time>2022-08-21T08:00:13Z</time>
      </trkpt>
      <trkpt lat="42.813008" lon="-7.664187">
        <ele>490.909</ele>
        <time>2022-08-21T08:00:17Z</time>
      </trkpt>
      <trkpt lat="42.813051" lon="-7.664214">
        <ele>491.395</ele>
        <time>2022-08-21T08:00:21Z</time>
      </trkpt>
      <trkpt lat="42.813094" lon="-7.664244">
        <ele>491.865</ele>
        <time>2022-08-21T08:00:25Z</time>
      </trkpt>
      <trkpt lat="42.813137" lon="-7.664282">
        <ele>492.335</ele>
        <time>2022-08-21T08:00:30Z</time>
      </trkpt>
      <trkpt lat="42.813185" lon="-7.664316">
        <ele>492.917</ele>
        <time>2022-08-21T08:00:34Z</time>
      </trkpt>
      <trkpt lat="42.813222" lon="-7.664365">
        <ele>493.639</ele>
        <time>2022-08-21T08:00:38Z</time>
      </trkpt>
      <trkpt lat="42.813268" lon="-7.664411">
        <ele>494.484</ele>
        <time>2022-08-21T08:00:43Z</time>
      </trkpt>
      <trkpt lat="42.813303" lon="-7.664453">
        <ele>495.284</ele>
        <time>2022-08-21T08:00:47Z</time>
      </trkpt>
      <trkpt lat="42.813334" lon="-7.664498">
        <ele>495.957</ele>
        <time>2022-08-21T08:00:51Z</time>
      </trkpt>
      <trkpt lat="42.813361" lon="-7.664551">
        <ele>496.469</ele>
        <time>2022-08-21T08:00:56Z</time>
      </trkpt>
      <trkpt lat="42.813397" lon="-7.664611">
        <ele>496.715</ele>
        <time>2022-08-21T08:01:02Z</time>
      </trkpt>
      <trkpt lat="42.813432" lon="-7.664666">
        <ele>497.165</ele>
        <time>2022-08-21T08:01:06Z</time>
      </trkpt>
      <trkpt lat="42.813460" lon="-7.664737">
        <ele>497.611</ele>
        <time>2022-08-21T08:01:11Z</time>
      </trkpt>
      <trkpt lat="42.813497" lon="-7.664790">
        <ele>497.909</ele>
        <time>2022-08-21T08:01:15Z</time>
      </trkpt>
      <trkpt lat="42.813530" lon="-7.664851">
        <ele>498.032</ele>
        <time>2022-08-21T08:01:19Z</time>
      </trkpt>
      <trkpt lat="42.813565" lon="-7.664913">
        <ele>498.152</ele>
        <time>2022-08-21T08:01:23Z</time>
      </trkpt>
      <trkpt lat="42.813597" lon="-7.664973">
        <ele>498.762</ele>
        <time>2022-08-21T08:01:27Z</time>
      </trkpt>
      <trkpt lat="42.813629" lon="-7.665026">
        <ele>499.364</ele>
        <time>2022-08-21T08:01:31Z</time>
      </trkpt>
      <trkpt lat="42.813652" lon="-7.665091">
        <ele>499.956</ele>
        <time>2022-08-21T08:01:35Z</time>
      </trkpt>
      <trkpt lat="42.813679" lon="-7.665145">
        <ele>500.261</ele>
        <time>2022-08-21T08:01:39Z</time>
      </trkpt>
      <trkpt lat="42.813702" lon="-7.665206">
        <ele>500.731</ele>
        <time>2022-08-21T08:01:43Z</time>
      </trkpt>
      <trkpt lat="42.813724" lon="-7.665263">
        <ele>501.184</ele>
        <time>2022-08-21T08:01:47Z</time>
      </trkpt>
      <trkpt lat="42.813745" lon="-7.665319">
        <ele>501.546</ele>
        <time>2022-08-21T08:01:51Z</time>
      </trkpt>
      <trkpt lat="42.813767" lon="-7.665374">
        <ele>501.928</ele>
        <time>2022-08-21T08:01:55Z</time>
      </trkpt>
      <trkpt lat="42.813797" lon="-7.665433">
        <ele>502.389</ele>
        <time>2022-08-21T08:01:59Z</time>
      </trkpt>
      <trkpt lat="42.813814" lon="-7.665497">
        <ele>502.717</ele>
        <time>2022-08-21T08:02:03Z</time>
      </trkpt>
      <trkpt lat="42.813830" lon="-7.665558">
        <ele>503.109</ele>
        <time>2022-08-21T08:02:07Z</time>
      </trkpt>
      <trkpt lat="42.813851" lon="-7.665622">
        <ele>503.573</ele>
        <time>2022-08-21T08:02:11Z</time>
      </trkpt>
      <trkpt lat="42.813875" lon="-7.665686">
        <ele>504.033</ele>
        <time>2022-08-21T08:02:15Z</time>
      </trkpt>
      <trkpt lat="42.813895" lon="-7.665745">
        <ele>504.423</ele>
        <time>2022-08-21T08:02:19Z</time>
      </trkpt>
      <trkpt lat="42.813920" lon="-7.665802">
        <ele>504.885</ele>
        <time>2022-08-21T08:02:23Z</time>
      </trkpt>
      <trkpt lat="42.813943" lon="-7.665870">
        <ele>505.257</ele>
        <time>2022-08-21T08:02:28Z</time>
      </trkpt>
      <trkpt lat="42.813967" lon="-7.665933">
        <ele>505.672</ele>
        <time>2022-08-21T08:02:32Z</time>
      </trkpt>
      <trkpt lat="42.813985" lon="-7.665999">
        <ele>506.172</ele>
        <time>2022-08-21T08:02:36Z</time>
      </trkpt>
      <trkpt lat="42.814011" lon="-7.666059">
        <ele>506.745</ele>
        <time>2022-08-21T08:02:40Z</time>
      </trkpt>
      <trkpt lat="42.814035" lon="-7.666115">
        <ele>507.247</ele>
        <time>2022-08-21T08:02:44Z</time>
      </trkpt>
      <trkpt lat="42.814061" lon="-7.666174">
        <ele>507.744</ele>
        <time>2022-08-21T08:02:48Z</time>
      </trkpt>
      <trkpt lat="42.814085" lon="-7.666237">
        <ele>508.205</ele>
        <time>2022-08-21T08:02:53Z</time>
      </trkpt>
      <trkpt lat="42.814114" lon="-7.666301">
        <ele>508.615</ele>
        <time>2022-08-21T08:02:58Z</time>
      </trkpt>
      <trkpt lat="42.814142" lon="-7.666367">
        <ele>509.109</ele>
        <time>2022-08-21T08:03:03Z</time>
      </trkpt>
      <trkpt lat="42.814172" lon="-7.666417">
        <ele>509.755</ele>
        <time>2022-08-21T08:03:07Z</time>
      </trkpt>
      <trkpt lat="42.814197" lon="-7.666472">
        <ele>510.275</ele>
        <time>2022-08-21T08:03:11Z</time>
      </trkpt>
      <trkpt lat="42.814229" lon="-7.666532">
        <ele>510.735</ele>
        <time>2022-08-21T08:03:16Z</time>
      </trkpt>
      <trkpt lat="42.814261" lon="-7.666594">
        <ele>511.227</ele>
        <time>2022-08-21T08:03:20Z</time>
      </trkpt>
      <trkpt lat="42.814292" lon="-7.666653">
        <ele>511.829</ele>
        <time>2022-08-21T08:03:24Z</time>
      </trkpt>
      <trkpt lat="42.814323" lon="-7.666714">
        <ele>512.494</ele>
        <time>2022-08-21T08:03:28Z</time>
      </trkpt>
      <trkpt lat="42.814352" lon="-7.666776">
        <ele>513.244</ele>
        <time>2022-08-21T08:03:32Z</time>
      </trkpt>
      <trkpt lat="42.814380" lon="-7.666834">
        <ele>513.537</ele>
        <time>2022-08-21T08:03:36Z</time>
      </trkpt>
      <trkpt lat="42.814404" lon="-7.666898">
        <ele>514.069</ele>
        <time>2022-08-21T08:03:40Z</time>
      </trkpt>
      <trkpt lat="42.814429" lon="-7.666963">
        <ele>514.531</ele>
        <time>2022-08-21T08:03:44Z</time>
      </trkpt>
      <trkpt lat="42.814455" lon="-7.667024">
        <ele>515.061</ele>
        <time>2022-08-21T08:03:48Z</time>
      </trkpt>
      <trkpt lat="42.814478" lon="-7.667089">
        <ele>515.507</ele>
        <time>2022-08-21T08:03:52Z</time>
      </trkpt>
      <trkpt lat="42.814506" lon="-7.667156">
        <ele>516.009</ele>
        <time>2022-08-21T08:03:56Z</time>
      </trkpt>
      <trkpt lat="42.814537" lon="-7.667216">
        <ele>516.544</ele>
        <time>2022-08-21T08:04:00Z</time>
      </trkpt>
      <trkpt lat="42.814568" lon="-7.667276">
        <ele>517.014</ele>
        <time>2022-08-21T08:04:04Z</time>
      </trkpt>
      <trkpt lat="42.814593" lon="-7.667339">
        <ele>517.444</ele>
        <time>2022-08-21T08:04:08Z</time>
      </trkpt>
      <trkpt lat="42.814619" lon="-7.667404">
        <ele>518.116</ele>
        <time>2022-08-21T08:04:12Z</time>
      </trkpt>
      <trkpt lat="42.814646" lon="-7.667471">
        <ele>518.528</ele>
        <time>2022-08-21T08:04:16Z</time>
      </trkpt>
      <trkpt lat="42.814670" lon="-7.667530">
        <ele>518.743</ele>
        <time>2022-08-21T08:04:20Z</time>
      </trkpt>
      <trkpt lat="42.814696" lon="-7.667592">
        <ele>519.163</ele>
        <time>2022-08-21T08:04:24Z</time>
      </trkpt>
      <trkpt lat="42.814721" lon="-7.667657">
        <ele>519.536</ele>
        <time>2022-08-21T08:04:28Z</time>
      </trkpt>
      <trkpt lat="42.814744" lon="-7.667720">
        <ele>519.968</ele>
        <time>2022-08-21T08:04:32Z</time>
      </trkpt>
      <trkpt lat="42.814766" lon="-7.667786">
        <ele>520.381</ele>
        <time>2022-08-21T08:04:36Z</time>
      </trkpt>
      <trkpt lat="42.814788" lon="-7.667849">
        <ele>520.761</ele>
        <time>2022-08-21T08:04:40Z</time>
      </trkpt>
      <trkpt lat="42.814810" lon="-7.667916">
        <ele>521.117</ele>
        <time>2022-08-21T08:04:44Z</time>
      </trkpt>
      <trkpt lat="42.814830" lon="-7.667977">
        <ele>521.409</ele>
        <time>2022-08-21T08:04:48Z</time>
      </trkpt>
      <trkpt lat="42.814845" lon="-7.668043">
        <ele>521.729</ele>
        <time>2022-08-21T08:04:52Z</time>
      </trkpt>
      <trkpt lat="42.814863" lon="-7.668111">
        <ele>522.089</ele>
        <time>2022-08-21T08:04:56Z</time>
      </trkpt>
      <trkpt lat="42.814882" lon="-7.668180">
        <ele>522.429</ele>
        <time>2022-08-21T08:05:00Z</time>
      </trkpt>
      <trkpt lat="42.814902" lon="-7.668252">
        <ele>522.881</ele>
        <time>2022-08-21T08:05:04Z</time>
      </trkpt>
      <trkpt lat="42.814914" lon="-7.668324">
        <ele>523.293</ele>
        <time>2022-08-21T08:05:08Z</time>
      </trkpt>
      <trkpt lat="42.814922" lon="-7.668388">
        <ele>523.588</ele>
        <time>2022-08-21T08:05:12Z</time>
      </trkpt>
      <trkpt lat="42.814935" lon="-7.668455">
        <ele>523.738</ele>
        <time>2022-08-21T08:05:16Z</time>
      </trkpt>
      <trkpt lat="42.814949" lon="-7.668522">
        <ele>524.011</ele>
        <time>2022-08-21T08:05:20Z</time>
      </trkpt>
      <trkpt lat="42.814974" lon="-7.668584">
        <ele>524.393</ele>
        <time>2022-08-21T08:05:24Z</time>
      </trkpt>
      <trkpt lat="42.815005" lon="-7.668640">
        <ele>524.565</ele>
        <time>2022-08-21T08:05:28Z</time>
      </trkpt>
      <trkpt lat="42.815035" lon="-7.668693">
        <ele>524.668</ele>
        <time>2022-08-21T08:05:32Z</time>
      </trkpt>
      <trkpt lat="42.815065" lon="-7.668755">
        <ele>524.714</ele>
        <time>2022-08-21T08:05:36Z</time>
      </trkpt>
      <trkpt lat="42.815091" lon="-7.668815">
        <ele>524.809</ele>
        <time>2022-08-21T08:05:40Z</time>
      </trkpt>
      <trkpt lat="42.815120" lon="-7.668874">
        <ele>524.997</ele>
        <time>2022-08-21T08:05:44Z</time>
      </trkpt>
      <trkpt lat="42.815144" lon="-7.668936">
        <ele>525.097</ele>
        <time>2022-08-21T08:05:48Z</time>
      </trkpt>
      <trkpt lat="42.815165" lon="-7.669003">
        <ele>525.087</ele>
        <time>2022-08-21T08:05:52Z</time>
      </trkpt>
      <trkpt lat="42.815182" lon="-7.669075">
        <ele>525.199</ele>
        <time>2022-08-21T08:05:56Z</time>
      </trkpt>
      <trkpt lat="42.815193" lon="-7.669146">
        <ele>525.291</ele>
        <time>2022-08-21T08:06:00Z</time>
      </trkpt>
      <trkpt lat="42.815206" lon="-7.669211">
        <ele>525.326</ele>
        <time>2022-08-21T08:06:04Z</time>
      </trkpt>
      <trkpt lat="42.815228" lon="-7.669279">
        <ele>525.336</ele>
        <time>2022-08-21T08:06:08Z</time>
      </trkpt>
      <trkpt lat="42.815250" lon="-7.669340">
        <ele>525.369</ele>
        <time>2022-08-21T08:06:12Z</time>
      </trkpt>
      <trkpt lat="42.815275" lon="-7.669402">
        <ele>525.351</ele>
        <time>2022-08-21T08:06:16Z</time>
      </trkpt>
      <trkpt lat="42.815295" lon="-7.669473">
        <ele>525.291</ele>
        <time>2022-08-21T08:06:20Z</time>
      </trkpt>
      <trkpt lat="42.815321" lon="-7.669539">
        <ele>525.281</ele>
        <time>2022-08-21T08:06:24Z</time>
      </trkpt>
      <trkpt lat="42.815344" lon="-7.669604">
        <ele>525.119</ele>
        <time>2022-08-21T08:06:28Z</time>
      </trkpt>
      <trkpt lat="42.815365" lon="-7.669673">
        <ele>524.809</ele>
        <time>2022-08-21T08:06:32Z</time>
      </trkpt>
      <trkpt lat="42.815386" lon="-7.669743">
        <ele>524.630</ele>
        <time>2022-08-21T08:06:36Z</time>
      </trkpt>
      <trkpt lat="42.815414" lon="-7.669807">
        <ele>524.530</ele>
        <time>2022-08-21T08:06:40Z</time>
      </trkpt>
      <trkpt lat="42.815450" lon="-7.669859">
        <ele>524.480</ele>
        <time>2022-08-21T08:06:44Z</time>
      </trkpt>
      <trkpt lat="42.815486" lon="-7.669910">
        <ele>524.392</ele>
        <time>2022-08-21T08:06:48Z</time>
      </trkpt>
      <trkpt lat="42.815513" lon="-7.669962">
        <ele>524.134</ele>
        <time>2022-08-21T08:06:52Z</time>
      </trkpt>
      <trkpt lat="42.815539" lon="-7.670017">
        <ele>523.969</ele>
        <time>2022-08-21T08:06:56Z</time>
      </trkpt>
      <trkpt lat="42.815561" lon="-7.670085">
        <ele>523.819</ele>
        <time>2022-08-21T08:07:01Z</time>
      </trkpt>
      <trkpt lat="42.815581" lon="-7.670142">
        <ele>523.712</ele>
        <time>2022-08-21T08:07:05Z</time>
      </trkpt>
      <trkpt lat="42.815611" lon="-7.670189">
        <ele>523.694</ele>
        <time>2022-08-21T08:07:10Z</time>
      </trkpt>
      <trkpt lat="42.815640" lon="-7.670239">
        <ele>523.547</ele>
        <time>2022-08-21T08:07:15Z</time>
      </trkpt>
      <trkpt lat="42.815657" lon="-7.670304">
        <ele>523.429</ele>
        <time>2022-08-21T08:07:21Z</time>
      </trkpt>
      <trkpt lat="42.815676" lon="-7.670361">
        <ele>523.321</ele>
        <time>2022-08-21T08:07:26Z</time>
      </trkpt>
      <trkpt lat="42.815704" lon="-7.670427">
        <ele>523.209</ele>
        <time>2022-08-21T08:07:30Z</time>
      </trkpt>
      <trkpt lat="42.815713" lon="-7.670500">
        <ele>523.025</ele>
        <time>2022-08-21T08:07:35Z</time>
      </trkpt>
      <trkpt lat="42.815748" lon="-7.670555">
        <ele>522.985</ele>
        <time>2022-08-21T08:07:39Z</time>
      </trkpt>
      <trkpt lat="42.815771" lon="-7.670629">
        <ele>522.875</ele>
        <time>2022-08-21T08:07:43Z</time>
      </trkpt>
      <trkpt lat="42.815795" lon="-7.670684">
        <ele>522.767</ele>
        <time>2022-08-21T08:07:47Z</time>
      </trkpt>
      <trkpt lat="42.815824" lon="-7.670744">
        <ele>522.669</ele>
        <time>2022-08-21T08:07:51Z</time>
      </trkpt>
      <trkpt lat="42.815833" lon="-7.670806">
        <ele>522.564</ele>
        <time>2022-08-21T08:07:54Z</time>
      </trkpt>
      <trkpt lat="42.815848" lon="-7.670870">
        <ele>522.494</ele>
        <time>2022-08-21T08:07:58Z</time>
      </trkpt>
      <trkpt lat="42.815865" lon="-7.670931">
        <ele>522.477</ele>
        <time>2022-08-21T08:08:01Z</time>
      </trkpt>
      <trkpt lat="42.815896" lon="-7.670987">
        <ele>522.479</ele>
        <time>2022-08-21T08:08:05Z</time>
      </trkpt>
      <trkpt lat="42.815913" lon="-7.671054">
        <ele>522.422</ele>
        <time>2022-08-21T08:08:10Z</time>
      </trkpt>
      <trkpt lat="42.815948" lon="-7.671111">
        <ele>522.462</ele>
        <time>2022-08-21T08:08:15Z</time>
      </trkpt>
      <trkpt lat="42.815969" lon="-7.671191">
        <ele>522.408</ele>
        <time>2022-08-21T08:08:19Z</time>
      </trkpt>
      <trkpt lat="42.815994" lon="-7.671257">
        <ele>522.409</ele>
        <time>2022-08-21T08:08:23Z</time>
      </trkpt>
      <trkpt lat="42.816011" lon="-7.671318">
        <ele>522.553</ele>
        <time>2022-08-21T08:08:26Z</time>
      </trkpt>
      <trkpt lat="42.816029" lon="-7.671375">
        <ele>522.573</ele>
        <time>2022-08-21T08:08:29Z</time>
      </trkpt>
      <trkpt lat="42.816051" lon="-7.671430">
        <ele>522.683</ele>
        <time>2022-08-21T08:08:32Z</time>
      </trkpt>
      <trkpt lat="42.816076" lon="-7.671483">
        <ele>522.685</ele>
        <time>2022-08-21T08:08:37Z</time>
      </trkpt>
      <trkpt lat="42.816092" lon="-7.671550">
        <ele>522.647</ele>
        <time>2022-08-21T08:08:41Z</time>
      </trkpt>
      <trkpt lat="42.816121" lon="-7.671618">
        <ele>522.682</ele>
        <time>2022-08-21T08:08:45Z</time>
      </trkpt>
      <trkpt lat="42.816144" lon="-7.671671">
        <ele>522.662</ele>
        <time>2022-08-21T08:08:49Z</time>
      </trkpt>
      <trkpt lat="42.816162" lon="-7.671745">
        <ele>522.665</ele>
        <time>2022-08-21T08:08:53Z</time>
      </trkpt>
      <trkpt lat="42.816180" lon="-7.671807">
        <ele>522.697</ele>
        <time>2022-08-21T08:08:57Z</time>
      </trkpt>
      <trkpt lat="42.816189" lon="-7.671872">
        <ele>522.695</ele>
        <time>2022-08-21T08:09:01Z</time>
      </trkpt>
      <trkpt lat="42.816218" lon="-7.671935">
        <ele>522.649</ele>
        <time>2022-08-21T08:09:06Z</time>
      </trkpt>
      <trkpt lat="42.816230" lon="-7.672017">
        <ele>522.623</ele>
        <time>2022-08-21T08:09:10Z</time>
      </trkpt>
      <trkpt lat="42.816241" lon="-7.672078">
        <ele>522.609</ele>
        <time>2022-08-21T08:09:13Z</time>
      </trkpt>
      <trkpt lat="42.816243" lon="-7.672151">
        <ele>522.730</ele>
        <time>2022-08-21T08:09:17Z</time>
      </trkpt>
      <trkpt lat="42.816239" lon="-7.672223">
        <ele>522.850</ele>
        <time>2022-08-21T08:09:22Z</time>
      </trkpt>
      <trkpt lat="42.816238" lon="-7.672295">
        <ele>522.910</ele>
        <time>2022-08-21T08:09:26Z</time>
      </trkpt>
      <trkpt lat="42.816239" lon="-7.672375">
        <ele>523.012</ele>
        <time>2022-08-21T08:09:31Z</time>
      </trkpt>
      <trkpt lat="42.816232" lon="-7.672447">
        <ele>523.154</ele>
        <time>2022-08-21T08:09:34Z</time>
      </trkpt>
      <trkpt lat="42.816236" lon="-7.672530">
        <ele>523.349</ele>
        <time>2022-08-21T08:09:38Z</time>
      </trkpt>
      <trkpt lat="42.816248" lon="-7.672604">
        <ele>523.449</ele>
        <time>2022-08-21T08:09:42Z</time>
      </trkpt>
      <trkpt lat="42.816248" lon="-7.672669">
        <ele>523.652</ele>
        <time>2022-08-21T08:09:45Z</time>
      </trkpt>
      <trkpt lat="42.816256" lon="-7.672736">
        <ele>523.754</ele>
        <time>2022-08-21T08:09:49Z</time>
      </trkpt>
      <trkpt lat="42.816257" lon="-7.672814">
        <ele>523.973</ele>
        <time>2022-08-21T08:09:53Z</time>
      </trkpt>
      <trkpt lat="42.816265" lon="-7.672885">
        <ele>524.085</ele>
        <time>2022-08-21T08:09:57Z</time>
      </trkpt>
      <trkpt lat="42.816265" lon="-7.672949">
        <ele>524.213</ele>
        <time>2022-08-21T08:10:00Z</time>
      </trkpt>
      <trkpt lat="42.816258" lon="-7.673011">
        <ele>524.409</ele>
        <time>2022-08-21T08:10:04Z</time>
      </trkpt>
      <trkpt lat="42.816258" lon="-7.673082">
        <ele>524.688</ele>
        <time>2022-08-21T08:10:08Z</time>
      </trkpt>
      <trkpt lat="42.816257" lon="-7.673152">
        <ele>524.848</ele>
        <time>2022-08-21T08:10:11Z</time>
      </trkpt>
      <trkpt lat="42.816265" lon="-7.673224">
        <ele>525.028</ele>
        <time>2022-08-21T08:10:15Z</time>
      </trkpt>
      <trkpt lat="42.816274" lon="-7.673307">
        <ele>525.280</ele>
        <time>2022-08-21T08:10:18Z</time>
      </trkpt>
      <trkpt lat="42.816285" lon="-7.673368">
        <ele>525.482</ele>
        <time>2022-08-21T08:10:21Z</time>
      </trkpt>
      <trkpt lat="42.816301" lon="-7.673437">
        <ele>525.687</ele>
        <time>2022-08-21T08:10:25Z</time>
      </trkpt>
      <trkpt lat="42.816315" lon="-7.673515">
        <ele>525.877</ele>
        <time>2022-08-21T08:10:29Z</time>
      </trkpt>
      <trkpt lat="42.816331" lon="-7.673592">
        <ele>525.990</ele>
        <time>2022-08-21T08:10:33Z</time>
      </trkpt>
      <trkpt lat="42.816343" lon="-7.673665">
        <ele>526.152</ele>
        <time>2022-08-21T08:10:36Z</time>
      </trkpt>
      <trkpt lat="42.816363" lon="-7.673724">
        <ele>526.259</ele>
        <time>2022-08-21T08:10:39Z</time>
      </trkpt>
      <trkpt lat="42.816379" lon="-7.673792">
        <ele>526.303</ele>
        <time>2022-08-21T08:10:42Z</time>
      </trkpt>
      <trkpt lat="42.816399" lon="-7.673859">
        <ele>526.423</ele>
        <time>2022-08-21T08:10:45Z</time>
      </trkpt>
      <trkpt lat="42.816418" lon="-7.673919">
        <ele>526.509</ele>
        <time>2022-08-21T08:10:48Z</time>
      </trkpt>
      <trkpt lat="42.816438" lon="-7.673978">
        <ele>526.796</ele>
        <time>2022-08-21T08:10:51Z</time>
      </trkpt>
      <trkpt lat="42.816457" lon="-7.674039">
        <ele>526.976</ele>
        <time>2022-08-21T08:10:54Z</time>
      </trkpt>
      <trkpt lat="42.816484" lon="-7.674103">
        <ele>527.046</ele>
        <time>2022-08-21T08:10:58Z</time>
      </trkpt>
      <trkpt lat="42.816516" lon="-7.674162">
        <ele>527.138</ele>
        <time>2022-08-21T08:11:02Z</time>
      </trkpt>
      <trkpt lat="42.816548" lon="-7.674224">
        <ele>527.240</ele>
        <time>2022-08-21T08:11:06Z</time>
      </trkpt>
      <trkpt lat="42.816583" lon="-7.674279">
        <ele>527.335</ele>
        <time>2022-08-21T08:11:10Z</time>
      </trkpt>
      <trkpt lat="42.816620" lon="-7.674335">
        <ele>527.515</ele>
        <time>2022-08-21T08:11:14Z</time>
      </trkpt>
      <trkpt lat="42.816654" lon="-7.674379">
        <ele>527.678</ele>
        <time>2022-08-21T08:11:17Z</time>
      </trkpt>
      <trkpt lat="42.816694" lon="-7.674440">
        <ele>527.830</ele>
        <time>2022-08-21T08:11:21Z</time>
      </trkpt>
      <trkpt lat="42.816731" lon="-7.674492">
        <ele>527.976</ele>
        <time>2022-08-21T08:11:25Z</time>
      </trkpt>
      <trkpt lat="42.816772" lon="-7.674537">
        <ele>528.090</ele>
        <time>2022-08-21T08:11:29Z</time>
      </trkpt>
      <trkpt lat="42.816811" lon="-7.674576">
        <ele>528.119</ele>
        <time>2022-08-21T08:11:33Z</time>
      </trkpt>
      <trkpt lat="42.816853" lon="-7.674623">
        <ele>528.209</ele>
        <time>2022-08-21T08:11:37Z</time>
      </trkpt>
      <trkpt lat="42.816899" lon="-7.674671">
        <ele>528.398</ele>
        <time>2022-08-21T08:11:41Z</time>
      </trkpt>
      <trkpt lat="42.816943" lon="-7.674721">
        <ele>528.578</ele>
        <time>2022-08-21T08:11:45Z</time>
      </trkpt>
      <trkpt lat="42.816985" lon="-7.674776">
        <ele>528.618</ele>
        <time>2022-08-21T08:11:49Z</time>
      </trkpt>
      <trkpt lat="42.817031" lon="-7.674819">
        <ele>528.710</ele>
        <time>2022-08-21T08:11:53Z</time>
      </trkpt>
      <trkpt lat="42.817073" lon="-7.674869">
        <ele>528.822</ele>
        <time>2022-08-21T08:11:57Z</time>
      </trkpt>
      <trkpt lat="42.817112" lon="-7.674923">
        <ele>528.867</ele>
        <time>2022-08-21T08:12:01Z</time>
      </trkpt>
      <trkpt lat="42.817155" lon="-7.674971">
        <ele>528.897</ele>
        <time>2022-08-21T08:12:05Z</time>
      </trkpt>
      <trkpt lat="42.817195" lon="-7.675005">
        <ele>528.830</ele>
        <time>2022-08-21T08:12:09Z</time>
      </trkpt>
      <trkpt lat="42.817239" lon="-7.675047">
        <ele>528.822</ele>
        <time>2022-08-21T08:12:14Z</time>
      </trkpt>
      <trkpt lat="42.817286" lon="-7.675086">
        <ele>528.832</ele>
        <time>2022-08-21T08:12:19Z</time>
      </trkpt>
      <trkpt lat="42.817325" lon="-7.675119">
        <ele>528.892</ele>
        <time>2022-08-21T08:12:22Z</time>
      </trkpt>
      <trkpt lat="42.817376" lon="-7.675155">
        <ele>528.811</ele>
        <time>2022-08-21T08:12:26Z</time>
      </trkpt>
      <trkpt lat="42.817424" lon="-7.675193">
        <ele>528.809</ele>
        <time>2022-08-21T08:12:30Z</time>
      </trkpt>
      <trkpt lat="42.817466" lon="-7.675236">
        <ele>528.894</ele>
        <time>2022-08-21T08:12:34Z</time>
      </trkpt>
      <trkpt lat="42.817516" lon="-7.675268">
        <ele>528.874</ele>
        <time>2022-08-21T08:12:38Z</time>
      </trkpt>
      <trkpt lat="42.817561" lon="-7.675310">
        <ele>528.834</ele>
        <time>2022-08-21T08:12:42Z</time>
      </trkpt>
      <trkpt lat="42.817610" lon="-7.675340">
        <ele>528.826</ele>
        <time>2022-08-21T08:12:46Z</time>
      </trkpt>
      <trkpt lat="42.817658" lon="-7.675377">
        <ele>528.888</ele>
        <time>2022-08-21T08:12:50Z</time>
      </trkpt>
      <trkpt lat="42.817707" lon="-7.675414">
        <ele>528.863</ele>
        <time>2022-08-21T08:12:54Z</time>
      </trkpt>
      <trkpt lat="42.817758" lon="-7.675450">
        <ele>528.853</ele>
        <time>2022-08-21T08:12:58Z</time>
      </trkpt>
      <trkpt lat="42.817807" lon="-7.675479">
        <ele>528.876</ele>
        <time>2022-08-21T08:13:02Z</time>
      </trkpt>
      <trkpt lat="42.817859" lon="-7.675499">
        <ele>528.818</ele>
        <time>2022-08-21T08:13:06Z</time>
      </trkpt>
      <trkpt lat="42.817909" lon="-7.675521">
        <ele>528.866</ele>
        <time>2022-08-21T08:13:10Z</time>
      </trkpt>
      <trkpt lat="42.817960" lon="-7.675541">
        <ele>528.829</ele>
        <time>2022-08-21T08:13:14Z</time>
      </trkpt>
      <trkpt lat="42.818014" lon="-7.675559">
        <ele>528.821</ele>
        <time>2022-08-21T08:13:18Z</time>
      </trkpt>
      <trkpt lat="42.818067" lon="-7.675577">
        <ele>528.809</ele>
        <time>2022-08-21T08:13:22Z</time>
      </trkpt>
      <trkpt lat="42.818114" lon="-7.675619">
        <ele>528.817</ele>
        <time>2022-08-21T08:13:26Z</time>
      </trkpt>
      <trkpt lat="42.818163" lon="-7.675656">
        <ele>528.867</ele>
        <time>2022-08-21T08:13:30Z</time>
      </trkpt>
      <trkpt lat="42.818215" lon="-7.675685">
        <ele>528.877</ele>
        <time>2022-08-21T08:13:34Z</time>
      </trkpt>
      <trkpt lat="42.818270" lon="-7.675697">
        <ele>528.899</ele>
        <time>2022-08-21T08:13:38Z</time>
      </trkpt>
      <trkpt lat="42.818312" lon="-7.675727">
        <ele>528.881</ele>
        <time>2022-08-21T08:13:42Z</time>
      </trkpt>
      <trkpt lat="42.818350" lon="-7.675774">
        <ele>528.876</ele>
        <time>2022-08-21T08:13:49Z</time>
      </trkpt>
      <trkpt lat="42.818380" lon="-7.675823">
        <ele>528.856</ele>
        <time>2022-08-21T08:13:55Z</time>
      </trkpt>
      <trkpt lat="42.818424" lon="-7.675868">
        <ele>528.849</ele>
        <time>2022-08-21T08:14:00Z</time>
      </trkpt>
      <trkpt lat="42.818466" lon="-7.675911">
        <ele>528.951</ele>
        <time>2022-08-21T08:14:05Z</time>
      </trkpt>
      <trkpt lat="42.818519" lon="-7.675934">
        <ele>529.095</ele>
        <time>2022-08-21T08:14:10Z</time>
      </trkpt>
      <trkpt lat="42.818561" lon="-7.675961">
        <ele>529.149</ele>
        <time>2022-08-21T08:14:14Z</time>
      </trkpt>
      <trkpt lat="42.818598" lon="-7.675996">
        <ele>529.223</ele>
        <time>2022-08-21T08:14:18Z</time>
      </trkpt>
      <trkpt lat="42.818640" lon="-7.676029">
        <ele>529.209</ele>
        <time>2022-08-21T08:14:21Z</time>
      </trkpt>
      <trkpt lat="42.818689" lon="-7.676079">
        <ele>529.230</ele>
        <time>2022-08-21T08:14:25Z</time>
      </trkpt>
      <trkpt lat="42.818729" lon="-7.676108">
        <ele>529.230</ele>
        <time>2022-08-21T08:14:28Z</time>
      </trkpt>
      <trkpt lat="42.818774" lon="-7.676154">
        <ele>529.240</ele>
        <time>2022-08-21T08:14:31Z</time>
      </trkpt>
      <trkpt lat="42.818816" lon="-7.676188">
        <ele>529.212</ele>
        <time>2022-08-21T08:14:35Z</time>
      </trkpt>
      <trkpt lat="42.818851" lon="-7.676232">
        <ele>529.234</ele>
        <time>2022-08-21T08:14:39Z</time>
      </trkpt>
      <trkpt lat="42.818895" lon="-7.676271">
        <ele>529.229</ele>
        <time>2022-08-21T08:14:44Z</time>
      </trkpt>
      <trkpt lat="42.818931" lon="-7.676332">
        <ele>529.379</ele>
        <time>2022-08-21T08:14:48Z</time>
      </trkpt>
      <trkpt lat="42.818967" lon="-7.676394">
        <ele>529.442</ele>
        <time>2022-08-21T08:14:52Z</time>
      </trkpt>
      <trkpt lat="42.819006" lon="-7.676432">
        <ele>529.544</ele>
        <time>2022-08-21T08:14:55Z</time>
      </trkpt>
      <trkpt lat="42.819043" lon="-7.676490">
        <ele>529.667</ele>
        <time>2022-08-21T08:14:59Z</time>
      </trkpt>
      <trkpt lat="42.819074" lon="-7.676540">
        <ele>529.681</ele>
        <time>2022-08-21T08:15:03Z</time>
      </trkpt>
      <trkpt lat="42.819111" lon="-7.676575">
        <ele>529.719</ele>
        <time>2022-08-21T08:15:06Z</time>
      </trkpt>
      <trkpt lat="42.819150" lon="-7.676624">
        <ele>529.809</ele>
        <time>2022-08-21T08:15:10Z</time>
      </trkpt>
      <trkpt lat="42.819200" lon="-7.676672">
        <ele>529.947</ele>
        <time>2022-08-21T08:15:14Z</time>
      </trkpt>
      <trkpt lat="42.819251" lon="-7.676687">
        <ele>530.187</ele>
        <time>2022-08-21T08:15:17Z</time>
      </trkpt>
      <trkpt lat="42.819301" lon="-7.676670">
        <ele>530.327</ele>
        <time>2022-08-21T08:15:20Z</time>
      </trkpt>
      <trkpt lat="42.819354" lon="-7.676649">
        <ele>530.679</ele>
        <time>2022-08-21T08:15:24Z</time>
      </trkpt>
      <trkpt lat="42.819399" lon="-7.676636">
        <ele>530.721</ele>
        <time>2022-08-21T08:15:27Z</time>
      </trkpt>
      <trkpt lat="42.819447" lon="-7.676607">
        <ele>530.976</ele>
        <time>2022-08-21T08:15:31Z</time>
      </trkpt>
      <trkpt lat="42.819494" lon="-7.676591">
        <ele>531.126</ele>
        <time>2022-08-21T08:15:36Z</time>
      </trkpt>
      <trkpt lat="42.819547" lon="-7.676587">
        <ele>531.349</ele>
        <time>2022-08-21T08:15:40Z</time>
      </trkpt>
      <trkpt lat="42.819599" lon="-7.676607">
        <ele>531.541</ele>
        <time>2022-08-21T08:15:45Z</time>
      </trkpt>
      <trkpt lat="42.819640" lon="-7.676666">
        <ele>531.771</ele>
        <time>2022-08-21T08:15:50Z</time>
      </trkpt>
      <trkpt lat="42.819676" lon="-7.676714">
        <ele>532.041</ele>
        <time>2022-08-21T08:15:54Z</time>
      </trkpt>
      <trkpt lat="42.819708" lon="-7.676759">
        <ele>532.315</ele>
        <time>2022-08-21T08:15:57Z</time>
      </trkpt>
      <trkpt lat="42.819748" lon="-7.676815">
        <ele>532.409</ele>
        <time>2022-08-21T08:16:01Z</time>
      </trkpt>
      <trkpt lat="42.819783" lon="-7.676871">
        <ele>532.448</ele>
        <time>2022-08-21T08:16:05Z</time>
      </trkpt>
      <trkpt lat="42.819813" lon="-7.676925">
        <ele>532.468</ele>
        <time>2022-08-21T08:16:09Z</time>
      </trkpt>
      <trkpt lat="42.819852" lon="-7.676981">
        <ele>532.448</ele>
        <time>2022-08-21T08:16:13Z</time>
      </trkpt>
      <trkpt lat="42.819885" lon="-7.677032">
        <ele>532.430</ele>
        <time>2022-08-21T08:16:17Z</time>
      </trkpt>
      <trkpt lat="42.819924" lon="-7.677088">
        <ele>532.462</ele>
        <time>2022-08-21T08:16:21Z</time>
      </trkpt>
      <trkpt lat="42.819960" lon="-7.677144">
        <ele>532.477</ele>
        <time>2022-08-21T08:16:25Z</time>
      </trkpt>
      <trkpt lat="42.819991" lon="-7.677192">
        <ele>532.437</ele>
        <time>2022-08-21T08:16:29Z</time>
      </trkpt>
      <trkpt lat="42.820022" lon="-7.677252">
        <ele>532.440</ele>
        <time>2022-08-21T08:16:33Z</time>
      </trkpt>
      <trkpt lat="42.820055" lon="-7.677312">
        <ele>532.462</ele>
        <time>2022-08-21T08:16:37Z</time>
      </trkpt>
      <trkpt lat="42.820086" lon="-7.677377">
        <ele>532.439</ele>
        <time>2022-08-21T08:16:41Z</time>
      </trkpt>
      <trkpt lat="42.820113" lon="-7.677441">
        <ele>532.401</ele>
        <time>2022-08-21T08:16:45Z</time>
      </trkpt>
      <trkpt lat="42.820146" lon="-7.677499">
        <ele>532.421</ele>
        <time>2022-08-21T08:16:49Z</time>
      </trkpt>
      <trkpt lat="42.820172" lon="-7.677554">
        <ele>532.409</ele>
        <time>2022-08-21T08:16:53Z</time>
      </trkpt>
      <trkpt lat="42.820189" lon="-7.677611">
        <ele>532.494</ele>
        <time>2022-08-21T08:16:56Z</time>
      </trkpt>
      <trkpt lat="42.820203" lon="-7.677672">
        <ele>532.454</ele>
        <time>2022-08-21T08:17:00Z</time>
      </trkpt>
      <trkpt lat="42.820214" lon="-7.677732">
        <ele>532.524</ele>
        <time>2022-08-21T08:17:04Z</time>
      </trkpt>
      <trkpt lat="42.820220" lon="-7.677797">
        <ele>532.616</ele>
        <time>2022-08-21T08:17:08Z</time>
      </trkpt>
      <trkpt lat="42.820235" lon="-7.677857">
        <ele>532.748</ele>
        <time>2022-08-21T08:17:12Z</time>
      </trkpt>
      <trkpt lat="42.820253" lon="-7.677913">
        <ele>532.943</ele>
        <time>2022-08-21T08:17:17Z</time>
      </trkpt>
      <trkpt lat="42.820268" lon="-7.677973">
        <ele>533.053</ele>
        <time>2022-08-21T08:17:22Z</time>
      </trkpt>
      <trkpt lat="42.820295" lon="-7.678029">
        <ele>533.116</ele>
        <time>2022-08-21T08:17:28Z</time>
      </trkpt>
      <trkpt lat="42.820323" lon="-7.678099">
        <ele>533.258</ele>
        <time>2022-08-21T08:17:32Z</time>
      </trkpt>
      <trkpt lat="42.820343" lon="-7.678160">
        <ele>533.377</ele>
        <time>2022-08-21T08:17:35Z</time>
      </trkpt>
      <trkpt lat="42.820367" lon="-7.678230">
        <ele>533.461</ele>
        <time>2022-08-21T08:17:39Z</time>
      </trkpt>
      <trkpt lat="42.820398" lon="-7.678282">
        <ele>533.527</ele>
        <time>2022-08-21T08:17:43Z</time>
      </trkpt>
      <trkpt lat="42.820439" lon="-7.678327">
        <ele>533.609</ele>
        <time>2022-08-21T08:17:47Z</time>
      </trkpt>
      <trkpt lat="42.820472" lon="-7.678377">
        <ele>533.748</ele>
        <time>2022-08-21T08:17:50Z</time>
      </trkpt>
      <trkpt lat="42.820512" lon="-7.678428">
        <ele>533.888</ele>
        <time>2022-08-21T08:17:54Z</time>
      </trkpt>
      <trkpt lat="42.820549" lon="-7.678472">
        <ele>533.918</ele>
        <time>2022-08-21T08:17:57Z</time>
      </trkpt>
      <trkpt lat="42.820593" lon="-7.678505">
        <ele>534.010</ele>
        <time>2022-08-21T08:18:01Z</time>
      </trkpt>
      <trkpt lat="42.820641" lon="-7.678552">
        <ele>534.192</ele>
        <time>2022-08-21T08:18:05Z</time>
      </trkpt>
      <trkpt lat="42.820687" lon="-7.678608">
        <ele>534.367</ele>
        <time>2022-08-21T08:18:09Z</time>
      </trkpt>
      <trkpt lat="42.820728" lon="-7.678660">
        <ele>534.437</ele>
        <time>2022-08-21T08:18:13Z</time>
      </trkpt>
      <trkpt lat="42.820767" lon="-7.678724">
        <ele>534.620</ele>
        <time>2022-08-21T08:18:17Z</time>
      </trkpt>
      <trkpt lat="42.820808" lon="-7.678781">
        <ele>534.982</ele>
        <time>2022-08-21T08:18:21Z</time>
      </trkpt>
      <trkpt lat="42.820845" lon="-7.678829">
        <ele>535.114</ele>
        <time>2022-08-21T08:18:25Z</time>
      </trkpt>
      <trkpt lat="42.820877" lon="-7.678886">
        <ele>535.454</ele>
        <time>2022-08-21T08:18:29Z</time>
      </trkpt>
      <trkpt lat="42.820904" lon="-7.678950">
        <ele>535.709</ele>
        <time>2022-08-21T08:18:33Z</time>
      </trkpt>
      <trkpt lat="42.820938" lon="-7.679009">
        <ele>536.009</ele>
        <time>2022-08-21T08:18:37Z</time>
      </trkpt>
      <trkpt lat="42.820968" lon="-7.679068">
        <ele>536.252</ele>
        <time>2022-08-21T08:18:41Z</time>
      </trkpt>
      <trkpt lat="42.820993" lon="-7.679127">
        <ele>536.572</ele>
        <time>2022-08-21T08:18:45Z</time>
      </trkpt>
      <trkpt lat="42.821015" lon="-7.679195">
        <ele>536.892</ele>
        <time>2022-08-21T08:18:49Z</time>
      </trkpt>
      <trkpt lat="42.821026" lon="-7.679257">
        <ele>537.134</ele>
        <time>2022-08-21T08:18:52Z</time>
      </trkpt>
      <trkpt lat="42.821050" lon="-7.679332">
        <ele>537.466</ele>
        <time>2022-08-21T08:18:56Z</time>
      </trkpt>
      <trkpt lat="42.821064" lon="-7.679392">
        <ele>537.511</ele>
        <time>2022-08-21T08:18:59Z</time>
      </trkpt>
      <trkpt lat="42.821076" lon="-7.679464">
        <ele>537.511</ele>
        <time>2022-08-21T08:19:03Z</time>
      </trkpt>
      <trkpt lat="42.821085" lon="-7.679537">
        <ele>537.594</ele>
        <time>2022-08-21T08:19:07Z</time>
      </trkpt>
      <trkpt lat="42.821108" lon="-7.679610">
        <ele>537.346</ele>
        <time>2022-08-21T08:19:11Z</time>
      </trkpt>
      <trkpt lat="42.821116" lon="-7.679690">
        <ele>537.327</ele>
        <time>2022-08-21T08:19:15Z</time>
      </trkpt>
      <trkpt lat="42.821129" lon="-7.679765">
        <ele>537.268</ele>
        <time>2022-08-21T08:19:19Z</time>
      </trkpt>
      <trkpt lat="42.821146" lon="-7.679837">
        <ele>537.114</ele>
        <time>2022-08-21T08:19:23Z</time>
      </trkpt>
      <trkpt lat="42.821159" lon="-7.679911">
        <ele>537.009</ele>
        <time>2022-08-21T08:19:27Z</time>
      </trkpt>
      <trkpt lat="42.821171" lon="-7.679979">
        <ele>536.613</ele>
        <time>2022-08-21T08:19:31Z</time>
      </trkpt>
      <trkpt lat="42.821175" lon="-7.680041">
        <ele>536.513</ele>
        <time>2022-08-21T08:19:34Z</time>
      </trkpt>
      <trkpt lat="42.821191" lon="-7.680113">
        <ele>536.233</ele>
        <time>2022-08-21T08:19:38Z</time>
      </trkpt>
      <trkpt lat="42.821206" lon="-7.680192">
        <ele>535.985</ele>
        <time>2022-08-21T08:19:42Z</time>
      </trkpt>
      <trkpt lat="42.821217" lon="-7.680259">
        <ele>535.727</ele>
        <time>2022-08-21T08:19:46Z</time>
      </trkpt>
      <trkpt lat="42.821225" lon="-7.680335">
        <ele>535.532</ele>
        <time>2022-08-21T08:19:50Z</time>
      </trkpt>
      <trkpt lat="42.821228" lon="-7.680413">
        <ele>535.082</ele>
        <time>2022-08-21T08:19:54Z</time>
      </trkpt>
      <trkpt lat="42.821237" lon="-7.680485">
        <ele>534.685</ele>
        <time>2022-08-21T08:19:58Z</time>
      </trkpt>
      <trkpt lat="42.821249" lon="-7.680563">
        <ele>534.257</ele>
        <time>2022-08-21T08:20:02Z</time>
      </trkpt>
      <trkpt lat="42.821270" lon="-7.680634">
        <ele>533.882</ele>
        <time>2022-08-21T08:20:06Z</time>
      </trkpt>
      <trkpt lat="42.821280" lon="-7.680707">
        <ele>533.443</ele>
        <time>2022-08-21T08:20:10Z</time>
      </trkpt>
      <trkpt lat="42.821295" lon="-7.680782">
        <ele>533.017</ele>
        <time>2022-08-21T08:20:14Z</time>
      </trkpt>
      <trkpt lat="42.821309" lon="-7.680854">
        <ele>532.609</ele>
        <time>2022-08-21T08:20:18Z</time>
      </trkpt>
      <trkpt lat="42.821333" lon="-7.680923">
        <ele>532.149</ele>
        <time>2022-08-21T08:20:22Z</time>
      </trkpt>
      <trkpt lat="42.821355" lon="-7.680991">
        <ele>531.589</ele>
        <time>2022-08-21T08:20:26Z</time>
      </trkpt>
      <trkpt lat="42.821366" lon="-7.681063">
        <ele>530.859</ele>
        <time>2022-08-21T08:20:30Z</time>
      </trkpt>
      <trkpt lat="42.821376" lon="-7.681132">
        <ele>530.311</ele>
        <time>2022-08-21T08:20:34Z</time>
      </trkpt>
      <trkpt lat="42.821386" lon="-7.681195">
        <ele>530.123</ele>
        <time>2022-08-21T08:20:38Z</time>
      </trkpt>
      <trkpt lat="42.821394" lon="-7.681259">
        <ele>529.758</ele>
        <time>2022-08-21T08:20:42Z</time>
      </trkpt>
      <trkpt lat="42.821405" lon="-7.681327">
        <ele>529.488</ele>
        <time>2022-08-21T08:20:46Z</time>
      </trkpt>
      <trkpt lat="42.821409" lon="-7.681409">
        <ele>529.141</ele>
        <time>2022-08-21T08:20:50Z</time>
      </trkpt>
      <trkpt lat="42.821437" lon="-7.681479">
        <ele>528.763</ele>
        <time>2022-08-21T08:20:54Z</time>
      </trkpt>
      <trkpt lat="42.821441" lon="-7.681541">
        <ele>528.388</ele>
        <time>2022-08-21T08:20:57Z</time>
      </trkpt>
      <trkpt lat="42.821453" lon="-7.681607">
        <ele>527.924</ele>
        <time>2022-08-21T08:21:01Z</time>
      </trkpt>
      <trkpt lat="42.821463" lon="-7.681681">
        <ele>527.326</ele>
        <time>2022-08-21T08:21:05Z</time>
      </trkpt>
      <trkpt lat="42.821477" lon="-7.681757">
        <ele>527.109</ele>
        <time>2022-08-21T08:21:09Z</time>
      </trkpt>
      <trkpt lat="42.821487" lon="-7.681823">
        <ele>526.799</ele>
        <time>2022-08-21T08:21:13Z</time>
      </trkpt>
      <trkpt lat="42.821500" lon="-7.681893">
        <ele>526.579</ele>
        <time>2022-08-21T08:21:17Z</time>
      </trkpt>
      <trkpt lat="42.821514" lon="-7.681954">
        <ele>526.229</ele>
        <time>2022-08-21T08:21:20Z</time>
      </trkpt>
      <trkpt lat="42.821525" lon="-7.682030">
        <ele>525.871</ele>
        <time>2022-08-21T08:21:24Z</time>
      </trkpt>
      <trkpt lat="42.821537" lon="-7.682103">
        <ele>525.523</ele>
        <time>2022-08-21T08:21:28Z</time>
      </trkpt>
      <trkpt lat="42.821545" lon="-7.682178">
        <ele>525.368</ele>
        <time>2022-08-21T08:21:32Z</time>
      </trkpt>
      <trkpt lat="42.821551" lon="-7.682258">
        <ele>525.058</ele>
        <time>2022-08-21T08:21:37Z</time>
      </trkpt>
      <trkpt lat="42.821565" lon="-7.682327">
        <ele>524.821</ele>
        <time>2022-08-21T08:21:40Z</time>
      </trkpt>
      <trkpt lat="42.821576" lon="-7.682386">
        <ele>524.773</ele>
        <time>2022-08-21T08:21:43Z</time>
      </trkpt>
      <trkpt lat="42.821588" lon="-7.682457">
        <ele>524.526</ele>
        <time>2022-08-21T08:21:48Z</time>
      </trkpt>
      <trkpt lat="42.821602" lon="-7.682519">
        <ele>524.447</ele>
        <time>2022-08-21T08:21:52Z</time>
      </trkpt>
      <trkpt lat="42.821616" lon="-7.682583">
        <ele>524.311</ele>
        <time>2022-08-21T08:21:55Z</time>
      </trkpt>
      <trkpt lat="42.821624" lon="-7.682647">
        <ele>524.209</ele>
        <time>2022-08-21T08:21:58Z</time>
      </trkpt>
      <trkpt lat="42.821641" lon="-7.682719">
        <ele>524.123</ele>
        <time>2022-08-21T08:22:02Z</time>
      </trkpt>
      <trkpt lat="42.821652" lon="-7.682795">
        <ele>524.053</ele>
        <time>2022-08-21T08:22:06Z</time>
      </trkpt>
      <trkpt lat="42.821660" lon="-7.682865">
        <ele>524.023</ele>
        <time>2022-08-21T08:22:10Z</time>
      </trkpt>
      <trkpt lat="42.821667" lon="-7.682937">
        <ele>523.975</ele>
        <time>2022-08-21T08:22:14Z</time>
      </trkpt>
      <trkpt lat="42.821676" lon="-7.682997">
        <ele>523.847</ele>
        <time>2022-08-21T08:22:17Z</time>
      </trkpt>
      <trkpt lat="42.821691" lon="-7.683061">
        <ele>523.772</ele>
        <time>2022-08-21T08:22:21Z</time>
      </trkpt>
      <trkpt lat="42.821688" lon="-7.683128">
        <ele>523.722</ele>
        <time>2022-08-21T08:22:26Z</time>
      </trkpt>
      <trkpt lat="42.821687" lon="-7.683201">
        <ele>523.795</ele>
        <time>2022-08-21T08:22:31Z</time>
      </trkpt>
      <trkpt lat="42.821701" lon="-7.683262">
        <ele>523.737</ele>
        <time>2022-08-21T08:22:34Z</time>
      </trkpt>
      <trkpt lat="42.821722" lon="-7.683324">
        <ele>523.745</ele>
        <time>2022-08-21T08:22:37Z</time>
      </trkpt>
      <trkpt lat="42.821738" lon="-7.683397">
        <ele>523.747</ele>
        <time>2022-08-21T08:22:41Z</time>
      </trkpt>
      <trkpt lat="42.821748" lon="-7.683465">
        <ele>523.711</ele>
        <time>2022-08-21T08:22:44Z</time>
      </trkpt>
      <trkpt lat="42.821760" lon="-7.683529">
        <ele>523.709</ele>
        <time>2022-08-21T08:22:47Z</time>
      </trkpt>
      <trkpt lat="42.821776" lon="-7.683592">
        <ele>523.895</ele>
        <time>2022-08-21T08:22:50Z</time>
      </trkpt>
      <trkpt lat="42.821788" lon="-7.683668">
        <ele>523.925</ele>
        <time>2022-08-21T08:22:54Z</time>
      </trkpt>
      <trkpt lat="42.821804" lon="-7.683736">
        <ele>524.025</ele>
        <time>2022-08-21T08:22:58Z</time>
      </trkpt>
      <trkpt lat="42.821813" lon="-7.683798">
        <ele>524.297</ele>
        <time>2022-08-21T08:23:02Z</time>
      </trkpt>
      <trkpt lat="42.821821" lon="-7.683867">
        <ele>524.499</ele>
        <time>2022-08-21T08:23:06Z</time>
      </trkpt>
      <trkpt lat="42.821829" lon="-7.683937">
        <ele>524.594</ele>
        <time>2022-08-21T08:23:10Z</time>
      </trkpt>
      <trkpt lat="42.821841" lon="-7.684012">
        <ele>524.654</ele>
        <time>2022-08-21T08:23:14Z</time>
      </trkpt>
      <trkpt lat="42.821850" lon="-7.684081">
        <ele>524.747</ele>
        <time>2022-08-21T08:23:18Z</time>
      </trkpt>
      <trkpt lat="42.821857" lon="-7.684149">
        <ele>524.969</ele>
        <time>2022-08-21T08:23:22Z</time>
      </trkpt>
      <trkpt lat="42.821870" lon="-7.684223">
        <ele>525.026</ele>
        <time>2022-08-21T08:23:26Z</time>
      </trkpt>
      <trkpt lat="42.821878" lon="-7.684292">
        <ele>525.147</ele>
        <time>2022-08-21T08:23:29Z</time>
      </trkpt>
      <trkpt lat="42.821894" lon="-7.684368">
        <ele>525.211</ele>
        <time>2022-08-21T08:23:33Z</time>
      </trkpt>
      <trkpt lat="42.821908" lon="-7.684443">
        <ele>525.509</ele>
        <time>2022-08-21T08:23:37Z</time>
      </trkpt>
      <trkpt lat="42.821921" lon="-7.684504">
        <ele>525.663</ele>
        <time>2022-08-21T08:23:41Z</time>
      </trkpt>
      <trkpt lat="42.821935" lon="-7.684576">
        <ele>525.883</ele>
        <time>2022-08-21T08:23:45Z</time>
      </trkpt>
      <trkpt lat="42.821934" lon="-7.684642">
        <ele>525.923</ele>
        <time>2022-08-21T08:23:49Z</time>
      </trkpt>
      <trkpt lat="42.821944" lon="-7.684716">
        <ele>526.035</ele>
        <time>2022-08-21T08:23:53Z</time>
      </trkpt>
      <trkpt lat="42.821946" lon="-7.684790">
        <ele>526.177</ele>
        <time>2022-08-21T08:23:57Z</time>
      </trkpt>
      <trkpt lat="42.821965" lon="-7.684850">
        <ele>526.262</ele>
        <time>2022-08-21T08:24:01Z</time>
      </trkpt>
      <trkpt lat="42.821973" lon="-7.684912">
        <ele>526.322</ele>
        <time>2022-08-21T08:24:05Z</time>
      </trkpt>
      <trkpt lat="42.821985" lon="-7.684976">
        <ele>526.465</ele>
        <time>2022-08-21T08:24:09Z</time>
      </trkpt>
      <trkpt lat="42.821985" lon="-7.685038">
        <ele>526.587</ele>
        <time>2022-08-21T08:24:13Z</time>
      </trkpt>
      <trkpt lat="42.821999" lon="-7.685099">
        <ele>526.582</ele>
        <time>2022-08-21T08:24:17Z</time>
      </trkpt>
      <trkpt lat="42.822013" lon="-7.685165">
        <ele>526.543</ele>
        <time>2022-08-21T08:24:20Z</time>
      </trkpt>
      <trkpt lat="42.822023" lon="-7.685228">
        <ele>526.517</ele>
        <time>2022-08-21T08:24:24Z</time>
      </trkpt>
      <trkpt lat="42.822036" lon="-7.685301">
        <ele>526.509</ele>
        <time>2022-08-21T08:24:28Z</time>
      </trkpt>
      <trkpt lat="42.822050" lon="-7.685372">
        <ele>526.569</ele>
        <time>2022-08-21T08:24:32Z</time>
      </trkpt>
      <trkpt lat="42.822056" lon="-7.685450">
        <ele>526.579</ele>
        <time>2022-08-21T08:24:37Z</time>
      </trkpt>
      <trkpt lat="42.822076" lon="-7.685516">
        <ele>526.529</ele>
        <time>2022-08-21T08:24:40Z</time>
      </trkpt>
      <trkpt lat="42.822083" lon="-7.685582">
        <ele>526.521</ele>
        <time>2022-08-21T08:24:44Z</time>
      </trkpt>
      <trkpt lat="42.822090" lon="-7.685657">
        <ele>526.523</ele>
        <time>2022-08-21T08:24:49Z</time>
      </trkpt>
      <trkpt lat="42.822104" lon="-7.685723">
        <ele>526.518</ele>
        <time>2022-08-21T08:24:53Z</time>
      </trkpt>
      <trkpt lat="42.822114" lon="-7.685794">
        <ele>526.488</ele>
        <time>2022-08-21T08:24:58Z</time>
      </trkpt>
      <trkpt lat="42.822127" lon="-7.685855">
        <ele>526.351</ele>
        <time>2022-08-21T08:25:01Z</time>
      </trkpt>
      <trkpt lat="42.822145" lon="-7.685913">
        <ele>526.113</ele>
        <time>2022-08-21T08:25:04Z</time>
      </trkpt>
      <trkpt lat="42.822166" lon="-7.685975">
        <ele>525.983</ele>
        <time>2022-08-21T08:25:07Z</time>
      </trkpt>
      <trkpt lat="42.822187" lon="-7.686043">
        <ele>525.725</ele>
        <time>2022-08-21T08:25:11Z</time>
      </trkpt>
      <trkpt lat="42.822206" lon="-7.686103">
        <ele>525.517</ele>
        <time>2022-08-21T08:25:15Z</time>
      </trkpt>
      <trkpt lat="42.822238" lon="-7.686165">
        <ele>525.309</ele>
        <time>2022-08-21T08:25:19Z</time>
      </trkpt>
      <trkpt lat="42.822260" lon="-7.686219">
        <ele>525.159</ele>
        <time>2022-08-21T08:25:23Z</time>
      </trkpt>
      <trkpt lat="42.822289" lon="-7.686286">
        <ele>524.969</ele>
        <time>2022-08-21T08:25:27Z</time>
      </trkpt>
      <trkpt lat="42.822315" lon="-7.686358">
        <ele>524.689</ele>
        <time>2022-08-21T08:25:31Z</time>
      </trkpt>
      <trkpt lat="42.822329" lon="-7.686426">
        <ele>524.371</ele>
        <time>2022-08-21T08:25:35Z</time>
      </trkpt>
      <trkpt lat="42.822357" lon="-7.686496">
        <ele>523.743</ele>
        <time>2022-08-21T08:25:39Z</time>
      </trkpt>
      <trkpt lat="42.822385" lon="-7.686558">
        <ele>523.288</ele>
        <time>2022-08-21T08:25:43Z</time>
      </trkpt>
      <trkpt lat="42.822419" lon="-7.686610">
        <ele>522.738</ele>
        <time>2022-08-21T08:25:47Z</time>
      </trkpt>
      <trkpt lat="42.822452" lon="-7.686673">
        <ele>522.311</ele>
        <time>2022-08-21T08:25:51Z</time>
      </trkpt>
      <trkpt lat="42.822489" lon="-7.686727">
        <ele>522.043</ele>
        <time>2022-08-21T08:25:55Z</time>
      </trkpt>
      <trkpt lat="42.822517" lon="-7.686776">
        <ele>521.846</ele>
        <time>2022-08-21T08:25:59Z</time>
      </trkpt>
      <trkpt lat="42.822546" lon="-7.686840">
        <ele>521.588</ele>
        <time>2022-08-21T08:26:03Z</time>
      </trkpt>
      <trkpt lat="42.822572" lon="-7.686902">
        <ele>521.316</ele>
        <time>2022-08-21T08:26:07Z</time>
      </trkpt>
      <trkpt lat="42.822612" lon="-7.686957">
        <ele>521.109</ele>
        <time>2022-08-21T08:26:11Z</time>
      </trkpt>
      <trkpt lat="42.822634" lon="-7.687012">
        <ele>521.015</ele>
        <time>2022-08-21T08:26:15Z</time>
      </trkpt>
      <trkpt lat="42.822658" lon="-7.687067">
        <ele>521.085</ele>
        <time>2022-08-21T08:26:19Z</time>
      </trkpt>
      <trkpt lat="42.822694" lon="-7.687121">
        <ele>520.985</ele>
        <time>2022-08-21T08:26:23Z</time>
      </trkpt>
      <trkpt lat="42.822729" lon="-7.687184">
        <ele>520.677</ele>
        <time>2022-08-21T08:26:28Z</time>
      </trkpt>
      <trkpt lat="42.822755" lon="-7.687235">
        <ele>520.339</ele>
        <time>2022-08-21T08:26:32Z</time>
      </trkpt>
      <trkpt lat="42.822795" lon="-7.687308">
        <ele>519.814</ele>
        <time>2022-08-21T08:26:36Z</time>
      </trkpt>
      <trkpt lat="42.822831" lon="-7.687364">
        <ele>519.634</ele>
        <time>2022-08-21T08:26:41Z</time>
      </trkpt>
      <trkpt lat="42.822865" lon="-7.687419">
        <ele>519.367</ele>
        <time>2022-08-21T08:26:45Z</time>
      </trkpt>
      <trkpt lat="42.822893" lon="-7.687471">
        <ele>519.249</ele>
        <time>2022-08-21T08:26:49Z</time>
      </trkpt>
      <trkpt lat="42.822922" lon="-7.687518">
        <ele>519.052</ele>
        <time>2022-08-21T08:26:52Z</time>
      </trkpt>
      <trkpt lat="42.822959" lon="-7.687568">
        <ele>518.853</ele>
        <time>2022-08-21T08:26:56Z</time>
      </trkpt>
      <trkpt lat="42.822994" lon="-7.687619">
        <ele>518.608</ele>
        <time>2022-08-21T08:27:00Z</time>
      </trkpt>
      <trkpt lat="42.823033" lon="-7.687678">
        <ele>518.509</ele>
        <time>2022-08-21T08:27:04Z</time>
      </trkpt>
      <trkpt lat="42.823065" lon="-7.687730">
        <ele>518.466</ele>
        <time>2022-08-21T08:27:08Z</time>
      </trkpt>
      <trkpt lat="42.823089" lon="-7.687782">
        <ele>518.336</ele>
        <time>2022-08-21T08:27:11Z</time>
      </trkpt>
      <trkpt lat="42.823127" lon="-7.687831">
        <ele>518.346</ele>
        <time>2022-08-21T08:27:15Z</time>
      </trkpt>
      <trkpt lat="42.823164" lon="-7.687885">
        <ele>518.328</ele>
        <time>2022-08-21T08:27:19Z</time>
      </trkpt>
      <trkpt lat="42.823198" lon="-7.687931">
        <ele>518.350</ele>
        <time>2022-08-21T08:27:23Z</time>
      </trkpt>
      <trkpt lat="42.823230" lon="-7.687989">
        <ele>518.315</ele>
        <time>2022-08-21T08:27:28Z</time>
      </trkpt>
      <trkpt lat="42.823263" lon="-7.688049">
        <ele>518.395</ele>
        <time>2022-08-21T08:27:33Z</time>
      </trkpt>
      <trkpt lat="42.823283" lon="-7.688109">
        <ele>518.318</ele>
        <time>2022-08-21T08:27:37Z</time>
      </trkpt>
      <trkpt lat="42.823310" lon="-7.688167">
        <ele>518.360</ele>
        <time>2022-08-21T08:27:41Z</time>
      </trkpt>
      <trkpt lat="42.823335" lon="-7.688228">
        <ele>518.369</ele>
        <time>2022-08-21T08:27:45Z</time>
      </trkpt>
      <trkpt lat="42.823358" lon="-7.688290">
        <ele>518.304</ele>
        <time>2022-08-21T08:27:49Z</time>
      </trkpt>
      <trkpt lat="42.823387" lon="-7.688341">
        <ele>518.224</ele>
        <time>2022-08-21T08:27:53Z</time>
      </trkpt>
      <trkpt lat="42.823419" lon="-7.688395">
        <ele>517.909</ele>
        <time>2022-08-21T08:27:58Z</time>
      </trkpt>
      <trkpt lat="42.823441" lon="-7.688457">
        <ele>517.467</ele>
        <time>2022-08-21T08:28:02Z</time>
      </trkpt>
      <trkpt lat="42.823475" lon="-7.688522">
        <ele>516.987</ele>
        <time>2022-08-21T08:28:06Z</time>
      </trkpt>
      <trkpt lat="42.823497" lon="-7.688584">
        <ele>516.717</ele>
        <time>2022-08-21T08:28:09Z</time>
      </trkpt>
      <trkpt lat="42.823527" lon="-7.688634">
        <ele>516.729</ele>
        <time>2022-08-21T08:28:13Z</time>
      </trkpt>
      <trkpt lat="42.823556" lon="-7.688687">
        <ele>516.711</ele>
        <time>2022-08-21T08:28:18Z</time>
      </trkpt>
      <trkpt lat="42.823579" lon="-7.688742">
        <ele>516.896</ele>
        <time>2022-08-21T08:28:22Z</time>
      </trkpt>
      <trkpt lat="42.823600" lon="-7.688801">
        <ele>516.996</ele>
        <time>2022-08-21T08:28:26Z</time>
      </trkpt>
      <trkpt lat="42.823614" lon="-7.688867">
        <ele>517.049</ele>
        <time>2022-08-21T08:28:29Z</time>
      </trkpt>
      <trkpt lat="42.823645" lon="-7.688926">
        <ele>517.161</ele>
        <time>2022-08-21T08:28:33Z</time>
      </trkpt>
      <trkpt lat="42.823675" lon="-7.689003">
        <ele>517.214</ele>
        <time>2022-08-21T08:28:37Z</time>
      </trkpt>
      <trkpt lat="42.823694" lon="-7.689065">
        <ele>517.454</ele>
        <time>2022-08-21T08:28:41Z</time>
      </trkpt>
      <trkpt lat="42.823737" lon="-7.689120">
        <ele>517.609</ele>
        <time>2022-08-21T08:28:44Z</time>
      </trkpt>
      <trkpt lat="42.823749" lon="-7.689186">
        <ele>517.809</ele>
        <time>2022-08-21T08:28:48Z</time>
      </trkpt>
      <trkpt lat="42.823766" lon="-7.689247">
        <ele>517.992</ele>
        <time>2022-08-21T08:28:52Z</time>
      </trkpt>
      <trkpt lat="42.823801" lon="-7.689303">
        <ele>518.082</ele>
        <time>2022-08-21T08:28:56Z</time>
      </trkpt>
      <trkpt lat="42.823834" lon="-7.689346">
        <ele>518.142</ele>
        <time>2022-08-21T08:28:59Z</time>
      </trkpt>
      <trkpt lat="42.823859" lon="-7.689400">
        <ele>518.254</ele>
        <time>2022-08-21T08:29:02Z</time>
      </trkpt>
      <trkpt lat="42.823891" lon="-7.689455">
        <ele>518.396</ele>
        <time>2022-08-21T08:29:06Z</time>
      </trkpt>
      <trkpt lat="42.823929" lon="-7.689505">
        <ele>518.411</ele>
        <time>2022-08-21T08:29:10Z</time>
      </trkpt>
      <trkpt lat="42.823974" lon="-7.689545">
        <ele>518.511</ele>
        <time>2022-08-21T08:29:14Z</time>
      </trkpt>
      <trkpt lat="42.823997" lon="-7.689598">
        <ele>518.754</ele>
        <time>2022-08-21T08:29:17Z</time>
      </trkpt>
      <trkpt lat="42.824023" lon="-7.689659">
        <ele>518.986</ele>
        <time>2022-08-21T08:29:21Z</time>
      </trkpt>
      <trkpt lat="42.824045" lon="-7.689717">
        <ele>519.134</ele>
        <time>2022-08-21T08:29:25Z</time>
      </trkpt>
      <trkpt lat="42.824069" lon="-7.689774">
        <ele>519.355</ele>
        <time>2022-08-21T08:29:28Z</time>
      </trkpt>
      <trkpt lat="42.824095" lon="-7.689841">
        <ele>519.510</ele>
        <time>2022-08-21T08:29:32Z</time>
      </trkpt>
      <trkpt lat="42.824124" lon="-7.689904">
        <ele>519.709</ele>
        <time>2022-08-21T08:29:36Z</time>
      </trkpt>
      <trkpt lat="42.824178" lon="-7.689947">
        <ele>519.954</ele>
        <time>2022-08-21T08:29:40Z</time>
      </trkpt>
      <trkpt lat="42.824221" lon="-7.689991">
        <ele>520.224</ele>
        <time>2022-08-21T08:29:43Z</time>
      </trkpt>
      <trkpt lat="42.824270" lon="-7.690041">
        <ele>520.434</ele>
        <time>2022-08-21T08:29:46Z</time>
      </trkpt>
      <trkpt lat="42.824315" lon="-7.690088">
        <ele>520.666</ele>
        <time>2022-08-21T08:29:49Z</time>
      </trkpt>
      <trkpt lat="42.824348" lon="-7.690133">
        <ele>520.948</ele>
        <time>2022-08-21T08:29:52Z</time>
      </trkpt>
      <trkpt lat="42.824386" lon="-7.690181">
        <ele>521.343</ele>
        <time>2022-08-21T08:29:56Z</time>
      </trkpt>
      <trkpt lat="42.824427" lon="-7.690240">
        <ele>521.793</ele>
        <time>2022-08-21T08:30:00Z</time>
      </trkpt>
      <trkpt lat="42.824462" lon="-7.690281">
        <ele>522.146</ele>
        <time>2022-08-21T08:30:04Z</time>
      </trkpt>
      <trkpt lat="42.824492" lon="-7.690334">
        <ele>522.818</ele>
        <time>2022-08-21T08:30:08Z</time>
      </trkpt>
      <trkpt lat="42.824526" lon="-7.690399">
        <ele>523.329</ele>
        <time>2022-08-21T08:30:12Z</time>
      </trkpt>
      <trkpt lat="42.824554" lon="-7.690459">
        <ele>523.700</ele>
        <time>2022-08-21T08:30:16Z</time>
      </trkpt>
      <trkpt lat="42.824584" lon="-7.690519">
        <ele>524.020</ele>
        <time>2022-08-21T08:30:20Z</time>
      </trkpt>
      <trkpt lat="42.824611" lon="-7.690583">
        <ele>524.209</ele>
        <time>2022-08-21T08:30:24Z</time>
      </trkpt>
      <trkpt lat="42.824635" lon="-7.690646">
        <ele>524.543</ele>
        <time>2022-08-21T08:30:28Z</time>
      </trkpt>
      <trkpt lat="42.824661" lon="-7.690709">
        <ele>524.743</ele>
        <time>2022-08-21T08:30:32Z</time>
      </trkpt>
      <trkpt lat="42.824677" lon="-7.690768">
        <ele>525.063</ele>
        <time>2022-08-21T08:30:36Z</time>
      </trkpt>
      <trkpt lat="42.824702" lon="-7.690843">
        <ele>525.345</ele>
        <time>2022-08-21T08:30:40Z</time>
      </trkpt>
      <trkpt lat="42.824727" lon="-7.690911">
        <ele>525.737</ele>
        <time>2022-08-21T08:30:44Z</time>
      </trkpt>
      <trkpt lat="42.824753" lon="-7.690975">
        <ele>526.152</ele>
        <time>2022-08-21T08:30:48Z</time>
      </trkpt>
      <trkpt lat="42.824779" lon="-7.691048">
        <ele>526.792</ele>
        <time>2022-08-21T08:30:52Z</time>
      </trkpt>
      <trkpt lat="42.824805" lon="-7.691113">
        <ele>527.195</ele>
        <time>2022-08-21T08:30:56Z</time>
      </trkpt>
      <trkpt lat="42.824826" lon="-7.691184">
        <ele>527.517</ele>
        <time>2022-08-21T08:31:00Z</time>
      </trkpt>
      <trkpt lat="42.824844" lon="-7.691254">
        <ele>527.961</ele>
        <time>2022-08-21T08:31:04Z</time>
      </trkpt>
      <trkpt lat="42.824866" lon="-7.691319">
        <ele>528.321</ele>
        <time>2022-08-21T08:31:08Z</time>
      </trkpt>
      <trkpt lat="42.824887" lon="-7.691387">
        <ele>528.713</ele>
        <time>2022-08-21T08:31:12Z</time>
      </trkpt>
      <trkpt lat="42.824908" lon="-7.691459">
        <ele>529.109</ele>
        <time>2022-08-21T08:31:16Z</time>
      </trkpt>
      <trkpt lat="42.824928" lon="-7.691526">
        <ele>529.557</ele>
        <time>2022-08-21T08:31:20Z</time>
      </trkpt>
      <trkpt lat="42.824951" lon="-7.691595">
        <ele>529.947</ele>
        <time>2022-08-21T08:31:24Z</time>
      </trkpt>
      <trkpt lat="42.824970" lon="-7.691662">
        <ele>530.267</ele>
        <time>2022-08-21T08:31:28Z</time>
      </trkpt>
      <trkpt lat="42.824990" lon="-7.691735">
        <ele>530.579</ele>
        <time>2022-08-21T08:31:32Z</time>
      </trkpt>
      <trkpt lat="42.825007" lon="-7.691799">
        <ele>530.721</ele>
        <time>2022-08-21T08:31:36Z</time>
      </trkpt>
      <trkpt lat="42.825027" lon="-7.691866">
        <ele>531.086</ele>
        <time>2022-08-21T08:31:40Z</time>
      </trkpt>
      <trkpt lat="42.825046" lon="-7.691930">
        <ele>531.396</ele>
        <time>2022-08-21T08:31:44Z</time>
      </trkpt>
      <trkpt lat="42.825060" lon="-7.691988">
        <ele>531.579</ele>
        <time>2022-08-21T08:31:47Z</time>
      </trkpt>
      <trkpt lat="42.825084" lon="-7.692047">
        <ele>531.741</ele>
        <time>2022-08-21T08:31:51Z</time>
      </trkpt>
      <trkpt lat="42.825102" lon="-7.692118">
        <ele>531.939</ele>
        <time>2022-08-21T08:31:55Z</time>
      </trkpt>
      <trkpt lat="42.825121" lon="-7.692193">
        <ele>532.001</ele>
        <time>2022-08-21T08:31:59Z</time>
      </trkpt>
      <trkpt lat="42.825141" lon="-7.692253">
        <ele>532.121</ele>
        <time>2022-08-21T08:32:02Z</time>
      </trkpt>
      <trkpt lat="42.825162" lon="-7.692325">
        <ele>532.209</ele>
        <time>2022-08-21T08:32:06Z</time>
      </trkpt>
      <trkpt lat="42.825184" lon="-7.692398">
        <ele>532.444</ele>
        <time>2022-08-21T08:32:10Z</time>
      </trkpt>
      <trkpt lat="42.825201" lon="-7.692461">
        <ele>532.544</ele>
        <time>2022-08-21T08:32:14Z</time>
      </trkpt>
      <trkpt lat="42.825221" lon="-7.692522">
        <ele>532.634</ele>
        <time>2022-08-21T08:32:18Z</time>
      </trkpt>
      <trkpt lat="42.825242" lon="-7.692587">
        <ele>532.786</ele>
        <time>2022-08-21T08:32:22Z</time>
      </trkpt>
      <trkpt lat="42.825265" lon="-7.692654">
        <ele>532.818</ele>
        <time>2022-08-21T08:32:26Z</time>
      </trkpt>
      <trkpt lat="42.825283" lon="-7.692712">
        <ele>533.043</ele>
        <time>2022-08-21T08:32:30Z</time>
      </trkpt>
      <trkpt lat="42.825304" lon="-7.692779">
        <ele>533.213</ele>
        <time>2022-08-21T08:32:34Z</time>
      </trkpt>
      <trkpt lat="42.825323" lon="-7.692841">
        <ele>533.456</ele>
        <time>2022-08-21T08:32:38Z</time>
      </trkpt>
      <trkpt lat="42.825344" lon="-7.692906">
        <ele>533.598</ele>
        <time>2022-08-21T08:32:42Z</time>
      </trkpt>
      <trkpt lat="42.825366" lon="-7.692977">
        <ele>533.666</ele>
        <time>2022-08-21T08:32:46Z</time>
      </trkpt>
      <trkpt lat="42.825389" lon="-7.693052">
        <ele>533.929</ele>
        <time>2022-08-21T08:32:50Z</time>
      </trkpt>
      <trkpt lat="42.825408" lon="-7.693127">
        <ele>534.121</ele>
        <time>2022-08-21T08:32:54Z</time>
      </trkpt>
      <trkpt lat="42.825429" lon="-7.693196">
        <ele>534.309</ele>
        <time>2022-08-21T08:32:58Z</time>
      </trkpt>
      <trkpt lat="42.825430" lon="-7.693271">
        <ele>534.517</ele>
        <time>2022-08-21T08:33:02Z</time>
      </trkpt>
      <trkpt lat="42.825442" lon="-7.693337">
        <ele>534.757</ele>
        <time>2022-08-21T08:33:06Z</time>
      </trkpt>
      <trkpt lat="42.825485" lon="-7.693378">
        <ele>534.867</ele>
        <time>2022-08-21T08:33:10Z</time>
      </trkpt>
      <trkpt lat="42.825511" lon="-7.693442">
        <ele>534.889</ele>
        <time>2022-08-21T08:33:14Z</time>
      </trkpt>
      <trkpt lat="42.825529" lon="-7.693510">
        <ele>535.061</ele>
        <time>2022-08-21T08:33:18Z</time>
      </trkpt>
      <trkpt lat="42.825552" lon="-7.693572">
        <ele>535.216</ele>
        <time>2022-08-21T08:33:22Z</time>
      </trkpt>
      <trkpt lat="42.825568" lon="-7.693642">
        <ele>535.346</ele>
        <time>2022-08-21T08:33:26Z</time>
      </trkpt>
      <trkpt lat="42.825583" lon="-7.693715">
        <ele>535.479</ele>
        <time>2022-08-21T08:33:30Z</time>
      </trkpt>
      <trkpt lat="42.825608" lon="-7.693781">
        <ele>535.581</ele>
        <time>2022-08-21T08:33:34Z</time>
      </trkpt>
      <trkpt lat="42.825630" lon="-7.693848">
        <ele>535.685</ele>
        <time>2022-08-21T08:33:38Z</time>
      </trkpt>
      <trkpt lat="42.825653" lon="-7.693914">
        <ele>535.889</ele>
        <time>2022-08-21T08:33:42Z</time>
      </trkpt>
      <trkpt lat="42.825676" lon="-7.693981">
        <ele>535.917</ele>
        <time>2022-08-21T08:33:46Z</time>
      </trkpt>
      <trkpt lat="42.825700" lon="-7.694047">
        <ele>536.009</ele>
        <time>2022-08-21T08:33:50Z</time>
      </trkpt>
      <trkpt lat="42.825713" lon="-7.694120">
        <ele>536.239</ele>
        <time>2022-08-21T08:33:54Z</time>
      </trkpt>
      <trkpt lat="42.825735" lon="-7.694190">
        <ele>536.469</ele>
        <time>2022-08-21T08:33:58Z</time>
      </trkpt>
      <trkpt lat="42.825756" lon="-7.694256">
        <ele>536.679</ele>
        <time>2022-08-21T08:34:02Z</time>
      </trkpt>
      <trkpt lat="42.825780" lon="-7.694323">
        <ele>536.721</ele>
        <time>2022-08-21T08:34:06Z</time>
      </trkpt>
      <trkpt lat="42.825800" lon="-7.694388">
        <ele>536.833</ele>
        <time>2022-08-21T08:34:10Z</time>
      </trkpt>
      <trkpt lat="42.825818" lon="-7.694454">
        <ele>536.938</ele>
        <time>2022-08-21T08:34:14Z</time>
      </trkpt>
      <trkpt lat="42.825842" lon="-7.694509">
        <ele>537.088</ele>
        <time>2022-08-21T08:34:18Z</time>
      </trkpt>
      <trkpt lat="42.825861" lon="-7.694578">
        <ele>537.151</ele>
        <time>2022-08-21T08:34:23Z</time>
      </trkpt>
      <trkpt lat="42.825876" lon="-7.694639">
        <ele>537.263</ele>
        <time>2022-08-21T08:34:27Z</time>
      </trkpt>
      <trkpt lat="42.825895" lon="-7.694701">
        <ele>537.411</ele>
        <time>2022-08-21T08:34:31Z</time>
      </trkpt>
      <trkpt lat="42.825916" lon="-7.694768">
        <ele>537.621</ele>
        <time>2022-08-21T08:34:35Z</time>
      </trkpt>
      <trkpt lat="42.825939" lon="-7.694836">
        <ele>537.703</ele>
        <time>2022-08-21T08:34:39Z</time>
      </trkpt>
      <trkpt lat="42.825958" lon="-7.694907">
        <ele>537.809</ele>
        <time>2022-08-21T08:34:43Z</time>
      </trkpt>
      <trkpt lat="42.825980" lon="-7.694980">
        <ele>538.232</ele>
        <time>2022-08-21T08:34:47Z</time>
      </trkpt>
      <trkpt lat="42.826002" lon="-7.695046">
        <ele>538.332</ele>
        <time>2022-08-21T08:34:51Z</time>
      </trkpt>
      <trkpt lat="42.826021" lon="-7.695117">
        <ele>538.482</ele>
        <time>2022-08-21T08:34:55Z</time>
      </trkpt>
      <trkpt lat="42.826045" lon="-7.695185">
        <ele>538.644</ele>
        <time>2022-08-21T08:34:59Z</time>
      </trkpt>
      <trkpt lat="42.826063" lon="-7.695257">
        <ele>538.836</ele>
        <time>2022-08-21T08:35:03Z</time>
      </trkpt>
      <trkpt lat="42.826085" lon="-7.695324">
        <ele>539.081</ele>
        <time>2022-08-21T08:35:07Z</time>
      </trkpt>
      <trkpt lat="42.826112" lon="-7.695391">
        <ele>539.251</ele>
        <time>2022-08-21T08:35:12Z</time>
      </trkpt>
      <trkpt lat="42.826142" lon="-7.695450">
        <ele>539.414</ele>
        <time>2022-08-21T08:35:16Z</time>
      </trkpt>
      <trkpt lat="42.826161" lon="-7.695520">
        <ele>539.766</ele>
        <time>2022-08-21T08:35:20Z</time>
      </trkpt>
      <trkpt lat="42.826185" lon="-7.695589">
        <ele>539.953</ele>
        <time>2022-08-21T08:35:24Z</time>
      </trkpt>
      <trkpt lat="42.826217" lon="-7.695650">
        <ele>540.104</ele>
        <time>2022-08-21T08:35:28Z</time>
      </trkpt>
      <trkpt lat="42.826238" lon="-7.695704">
        <ele>540.214</ele>
        <time>2022-08-21T08:35:32Z</time>
      </trkpt>
      <trkpt lat="42.826269" lon="-7.695762">
        <ele>540.409</ele>
        <time>2022-08-21T08:35:37Z</time>
      </trkpt>
      <trkpt lat="42.826291" lon="-7.695838">
        <ele>540.596</ele>
        <time>2022-08-21T08:35:42Z</time>
      </trkpt>
      <trkpt lat="42.826319" lon="-7.695904">
        <ele>540.776</ele>
        <time>2022-08-21T08:35:46Z</time>
      </trkpt>
      <trkpt lat="42.826344" lon="-7.695960">
        <ele>540.976</ele>
        <time>2022-08-21T08:35:50Z</time>
      </trkpt>
      <trkpt lat="42.826369" lon="-7.696029">
        <ele>541.138</ele>
        <time>2022-08-21T08:35:55Z</time>
      </trkpt>
      <trkpt lat="42.826386" lon="-7.696087">
        <ele>541.160</ele>
        <time>2022-08-21T08:35:58Z</time>
      </trkpt>
      <trkpt lat="42.826417" lon="-7.696143">
        <ele>541.235</ele>
        <time>2022-08-21T08:36:02Z</time>
      </trkpt>
      <trkpt lat="42.826454" lon="-7.696202">
        <ele>541.325</ele>
        <time>2022-08-21T08:36:06Z</time>
      </trkpt>
      <trkpt lat="42.826480" lon="-7.696265">
        <ele>541.448</ele>
        <time>2022-08-21T08:36:10Z</time>
      </trkpt>
      <trkpt lat="42.826505" lon="-7.696333">
        <ele>541.420</ele>
        <time>2022-08-21T08:36:14Z</time>
      </trkpt>
      <trkpt lat="42.826538" lon="-7.696387">
        <ele>541.432</ele>
        <time>2022-08-21T08:36:18Z</time>
      </trkpt>
      <trkpt lat="42.826577" lon="-7.696443">
        <ele>541.492</ele>
        <time>2022-08-21T08:36:22Z</time>
      </trkpt>
      <trkpt lat="42.826611" lon="-7.696498">
        <ele>541.411</ele>
        <time>2022-08-21T08:36:26Z</time>
      </trkpt>
      <trkpt lat="42.826647" lon="-7.696558">
        <ele>541.509</ele>
        <time>2022-08-21T08:36:30Z</time>
      </trkpt>
      <trkpt lat="42.826681" lon="-7.696619">
        <ele>541.674</ele>
        <time>2022-08-21T08:36:34Z</time>
      </trkpt>
      <trkpt lat="42.826714" lon="-7.696684">
        <ele>541.614</ele>
        <time>2022-08-21T08:36:38Z</time>
      </trkpt>
      <trkpt lat="42.826746" lon="-7.696742">
        <ele>541.694</ele>
        <time>2022-08-21T08:36:42Z</time>
      </trkpt>
      <trkpt lat="42.826785" lon="-7.696795">
        <ele>541.656</ele>
        <time>2022-08-21T08:36:46Z</time>
      </trkpt>
      <trkpt lat="42.826818" lon="-7.696854">
        <ele>541.638</ele>
        <time>2022-08-21T08:36:50Z</time>
      </trkpt>
      <trkpt lat="42.826855" lon="-7.696909">
        <ele>541.633</ele>
        <time>2022-08-21T08:36:54Z</time>
      </trkpt>
      <trkpt lat="42.826888" lon="-7.696967">
        <ele>541.743</ele>
        <time>2022-08-21T08:36:58Z</time>
      </trkpt>
      <trkpt lat="42.826921" lon="-7.697023">
        <ele>541.826</ele>
        <time>2022-08-21T08:37:02Z</time>
      </trkpt>
      <trkpt lat="42.826955" lon="-7.697078">
        <ele>541.998</ele>
        <time>2022-08-21T08:37:06Z</time>
      </trkpt>
      <trkpt lat="42.826986" lon="-7.697138">
        <ele>542.115</ele>
        <time>2022-08-21T08:37:11Z</time>
      </trkpt>
      <trkpt lat="42.826982" lon="-7.697206">
        <ele>542.365</ele>
        <time>2022-08-21T08:37:15Z</time>
      </trkpt>
      <trkpt lat="42.826974" lon="-7.697278">
        <ele>542.411</ele>
        <time>2022-08-21T08:37:19Z</time>
      </trkpt>
      <trkpt lat="42.826973" lon="-7.697342">
        <ele>542.409</ele>
        <time>2022-08-21T08:37:23Z</time>
      </trkpt>
      <trkpt lat="42.826973" lon="-7.697406">
        <ele>542.472</ele>
        <time>2022-08-21T08:37:27Z</time>
      </trkpt>
      <trkpt lat="42.826967" lon="-7.697480">
        <ele>542.382</ele>
        <time>2022-08-21T08:37:32Z</time>
      </trkpt>
      <trkpt lat="42.826952" lon="-7.697545">
        <ele>542.292</ele>
        <time>2022-08-21T08:37:36Z</time>
      </trkpt>
      <trkpt lat="42.826936" lon="-7.697607">
        <ele>542.234</ele>
        <time>2022-08-21T08:37:40Z</time>
      </trkpt>
      <trkpt lat="42.826922" lon="-7.697686">
        <ele>542.226</ele>
        <time>2022-08-21T08:37:44Z</time>
      </trkpt>
      <trkpt lat="42.826908" lon="-7.697762">
        <ele>542.311</ele>
        <time>2022-08-21T08:37:48Z</time>
      </trkpt>
      <trkpt lat="42.826879" lon="-7.697830">
        <ele>542.521</ele>
        <time>2022-08-21T08:37:52Z</time>
      </trkpt>
      <trkpt lat="42.826857" lon="-7.697896">
        <ele>542.974</ele>
        <time>2022-08-21T08:37:56Z</time>
      </trkpt>
      <trkpt lat="42.826836" lon="-7.697960">
        <ele>543.336</ele>
        <time>2022-08-21T08:38:00Z</time>
      </trkpt>
      <trkpt lat="42.826814" lon="-7.698028">
        <ele>543.813</ele>
        <time>2022-08-21T08:38:04Z</time>
      </trkpt>
      <trkpt lat="42.826790" lon="-7.698104">
        <ele>544.343</ele>
        <time>2022-08-21T08:38:09Z</time>
      </trkpt>
      <trkpt lat="42.826783" lon="-7.698168">
        <ele>544.607</ele>
        <time>2022-08-21T08:38:12Z</time>
      </trkpt>
      <trkpt lat="42.826802" lon="-7.698235">
        <ele>545.109</ele>
        <time>2022-08-21T08:38:17Z</time>
      </trkpt>
      <trkpt lat="42.826828" lon="-7.698291">
        <ele>545.512</ele>
        <time>2022-08-21T08:38:21Z</time>
      </trkpt>
      <trkpt lat="42.826854" lon="-7.698343">
        <ele>545.922</ele>
        <time>2022-08-21T08:38:24Z</time>
      </trkpt>
      <trkpt lat="42.826880" lon="-7.698409">
        <ele>546.552</ele>
        <time>2022-08-21T08:38:28Z</time>
      </trkpt>
      <trkpt lat="42.826893" lon="-7.698474">
        <ele>547.154</ele>
        <time>2022-08-21T08:38:32Z</time>
      </trkpt>
      <trkpt lat="42.826914" lon="-7.698537">
        <ele>547.666</ele>
        <time>2022-08-21T08:38:36Z</time>
      </trkpt>
      <trkpt lat="42.826937" lon="-7.698606">
        <ele>548.241</ele>
        <time>2022-08-21T08:38:40Z</time>
      </trkpt>
      <trkpt lat="42.826955" lon="-7.698671">
        <ele>548.891</ele>
        <time>2022-08-21T08:38:44Z</time>
      </trkpt>
      <trkpt lat="42.826979" lon="-7.698733">
        <ele>549.274</ele>
        <time>2022-08-21T08:38:48Z</time>
      </trkpt>
      <trkpt lat="42.827011" lon="-7.698785">
        <ele>549.646</ele>
        <time>2022-08-21T08:38:52Z</time>
      </trkpt>
      <trkpt lat="42.827043" lon="-7.698839">
        <ele>550.046</ele>
        <time>2022-08-21T08:38:56Z</time>
      </trkpt>
      <trkpt lat="42.827082" lon="-7.698891">
        <ele>550.488</ele>
        <time>2022-08-21T08:39:00Z</time>
      </trkpt>
      <trkpt lat="42.827120" lon="-7.698938">
        <ele>550.816</ele>
        <time>2022-08-21T08:39:04Z</time>
      </trkpt>
      <trkpt lat="42.827159" lon="-7.698978">
        <ele>551.209</ele>
        <time>2022-08-21T08:39:08Z</time>
      </trkpt>
      <trkpt lat="42.827198" lon="-7.699023">
        <ele>551.595</ele>
        <time>2022-08-21T08:39:12Z</time>
      </trkpt>
      <trkpt lat="42.827242" lon="-7.699067">
        <ele>551.855</ele>
        <time>2022-08-21T08:39:16Z</time>
      </trkpt>
      <trkpt lat="42.827287" lon="-7.699112">
        <ele>552.135</ele>
        <time>2022-08-21T08:39:20Z</time>
      </trkpt>
      <trkpt lat="42.827328" lon="-7.699157">
        <ele>552.427</ele>
        <time>2022-08-21T08:39:24Z</time>
      </trkpt>
      <trkpt lat="42.827363" lon="-7.699209">
        <ele>552.729</ele>
        <time>2022-08-21T08:39:28Z</time>
      </trkpt>
      <trkpt lat="42.827394" lon="-7.699264">
        <ele>553.114</ele>
        <time>2022-08-21T08:39:32Z</time>
      </trkpt>
      <trkpt lat="42.827423" lon="-7.699311">
        <ele>553.464</ele>
        <time>2022-08-21T08:39:36Z</time>
      </trkpt>
      <trkpt lat="42.827461" lon="-7.699364">
        <ele>553.687</ele>
        <time>2022-08-21T08:39:40Z</time>
      </trkpt>
      <trkpt lat="42.827501" lon="-7.699418">
        <ele>553.939</ele>
        <time>2022-08-21T08:39:45Z</time>
      </trkpt>
      <trkpt lat="42.827530" lon="-7.699466">
        <ele>554.258</ele>
        <time>2022-08-21T08:39:48Z</time>
      </trkpt>
      <trkpt lat="42.827564" lon="-7.699513">
        <ele>554.452</ele>
        <time>2022-08-21T08:39:52Z</time>
      </trkpt>
      <trkpt lat="42.827598" lon="-7.699573">
        <ele>554.617</ele>
        <time>2022-08-21T08:39:56Z</time>
      </trkpt>
      <trkpt lat="42.827636" lon="-7.699615">
        <ele>554.809</ele>
        <time>2022-08-21T08:40:00Z</time>
      </trkpt>
      <trkpt lat="42.827674" lon="-7.699669">
        <ele>555.016</ele>
        <time>2022-08-21T08:40:04Z</time>
      </trkpt>
      <trkpt lat="42.827705" lon="-7.699715">
        <ele>555.316</ele>
        <time>2022-08-21T08:40:07Z</time>
      </trkpt>
      <trkpt lat="42.827742" lon="-7.699759">
        <ele>555.756</ele>
        <time>2022-08-21T08:40:12Z</time>
      </trkpt>
      <trkpt lat="42.827777" lon="-7.699810">
        <ele>556.068</ele>
        <time>2022-08-21T08:40:16Z</time>
      </trkpt>
      <trkpt lat="42.827816" lon="-7.699854">
        <ele>556.420</ele>
        <time>2022-08-21T08:40:21Z</time>
      </trkpt>
      <trkpt lat="42.827851" lon="-7.699896">
        <ele>556.855</ele>
        <time>2022-08-21T08:40:25Z</time>
      </trkpt>
      <trkpt lat="42.827879" lon="-7.699947">
        <ele>557.295</ele>
        <time>2022-08-21T08:40:29Z</time>
      </trkpt>
      <trkpt lat="42.827913" lon="-7.699992">
        <ele>557.598</ele>
        <time>2022-08-21T08:40:33Z</time>
      </trkpt>
      <trkpt lat="42.827965" lon="-7.700045">
        <ele>557.890</ele>
        <time>2022-08-21T08:40:37Z</time>
      </trkpt>
      <trkpt lat="42.828000" lon="-7.700093">
        <ele>558.142</ele>
        <time>2022-08-21T08:40:41Z</time>
      </trkpt>
      <trkpt lat="42.828038" lon="-7.700137">
        <ele>558.522</ele>
        <time>2022-08-21T08:40:46Z</time>
      </trkpt>
      <trkpt lat="42.828070" lon="-7.700196">
        <ele>558.914</ele>
        <time>2022-08-21T08:40:50Z</time>
      </trkpt>
      <trkpt lat="42.828102" lon="-7.700239">
        <ele>559.309</ele>
        <time>2022-08-21T08:40:54Z</time>
      </trkpt>
      <trkpt lat="42.828138" lon="-7.700279">
        <ele>559.725</ele>
        <time>2022-08-21T08:40:58Z</time>
      </trkpt>
      <trkpt lat="42.828182" lon="-7.700345">
        <ele>560.115</ele>
        <time>2022-08-21T08:41:02Z</time>
      </trkpt>
      <trkpt lat="42.828216" lon="-7.700395">
        <ele>560.565</ele>
        <time>2022-08-21T08:41:06Z</time>
      </trkpt>
      <trkpt lat="42.828248" lon="-7.700451">
        <ele>560.937</ele>
        <time>2022-08-21T08:41:09Z</time>
      </trkpt>
      <trkpt lat="42.828272" lon="-7.700510">
        <ele>561.389</ele>
        <time>2022-08-21T08:41:13Z</time>
      </trkpt>
      <trkpt lat="42.828305" lon="-7.700576">
        <ele>561.754</ele>
        <time>2022-08-21T08:41:17Z</time>
      </trkpt>
      <trkpt lat="42.828325" lon="-7.700650">
        <ele>561.824</ele>
        <time>2022-08-21T08:41:21Z</time>
      </trkpt>
      <trkpt lat="42.828364" lon="-7.700699">
        <ele>562.277</ele>
        <time>2022-08-21T08:41:26Z</time>
      </trkpt>
      <trkpt lat="42.828401" lon="-7.700742">
        <ele>562.449</ele>
        <time>2022-08-21T08:41:30Z</time>
      </trkpt>
      <trkpt lat="42.828434" lon="-7.700785">
        <ele>562.881</ele>
        <time>2022-08-21T08:41:34Z</time>
      </trkpt>
      <trkpt lat="42.828472" lon="-7.700830">
        <ele>563.361</ele>
        <time>2022-08-21T08:41:38Z</time>
      </trkpt>
      <trkpt lat="42.828504" lon="-7.700875">
        <ele>563.817</ele>
        <time>2022-08-21T08:41:42Z</time>
      </trkpt>
      <trkpt lat="42.828543" lon="-7.700922">
        <ele>564.209</ele>
        <time>2022-08-21T08:41:46Z</time>
      </trkpt>
      <trkpt lat="42.828572" lon="-7.700971">
        <ele>564.519</ele>
        <time>2022-08-21T08:41:49Z</time>
      </trkpt>
      <trkpt lat="42.828600" lon="-7.701031">
        <ele>564.889</ele>
        <time>2022-08-21T08:41:53Z</time>
      </trkpt>
      <trkpt lat="42.828631" lon="-7.701076">
        <ele>565.279</ele>
        <time>2022-08-21T08:41:57Z</time>
      </trkpt>
      <trkpt lat="42.828658" lon="-7.701134">
        <ele>565.681</ele>
        <time>2022-08-21T08:42:01Z</time>
      </trkpt>
      <trkpt lat="42.828698" lon="-7.701188">
        <ele>566.083</ele>
        <time>2022-08-21T08:42:05Z</time>
      </trkpt>
      <trkpt lat="42.828739" lon="-7.701223">
        <ele>566.528</ele>
        <time>2022-08-21T08:42:09Z</time>
      </trkpt>
      <trkpt lat="42.828770" lon="-7.701282">
        <ele>566.938</ele>
        <time>2022-08-21T08:42:13Z</time>
      </trkpt>
      <trkpt lat="42.828813" lon="-7.701335">
        <ele>567.351</ele>
        <time>2022-08-21T08:42:18Z</time>
      </trkpt>
      <trkpt lat="42.828841" lon="-7.701394">
        <ele>567.723</ele>
        <time>2022-08-21T08:42:22Z</time>
      </trkpt>
      <trkpt lat="42.828885" lon="-7.701443">
        <ele>568.148</ele>
        <time>2022-08-21T08:42:27Z</time>
      </trkpt>
      <trkpt lat="42.828929" lon="-7.701481">
        <ele>568.561</ele>
        <time>2022-08-21T08:42:31Z</time>
      </trkpt>
      <trkpt lat="42.828966" lon="-7.701532">
        <ele>568.517</ele>
        <time>2022-08-21T08:42:35Z</time>
      </trkpt>
      <trkpt lat="42.829008" lon="-7.701573">
        <ele>568.509</ele>
        <time>2022-08-21T08:42:39Z</time>
      </trkpt>
      <trkpt lat="42.829050" lon="-7.701602">
        <ele>568.525</ele>
        <time>2022-08-21T08:42:42Z</time>
      </trkpt>
      <trkpt lat="42.829079" lon="-7.701659">
        <ele>568.445</ele>
        <time>2022-08-21T08:42:46Z</time>
      </trkpt>
      <trkpt lat="42.829122" lon="-7.701701">
        <ele>568.365</ele>
        <time>2022-08-21T08:42:50Z</time>
      </trkpt>
      <trkpt lat="42.829169" lon="-7.701750">
        <ele>568.357</ele>
        <time>2022-08-21T08:42:54Z</time>
      </trkpt>
      <trkpt lat="42.829216" lon="-7.701782">
        <ele>568.349</ele>
        <time>2022-08-21T08:42:57Z</time>
      </trkpt>
      <trkpt lat="42.829261" lon="-7.701811">
        <ele>568.364</ele>
        <time>2022-08-21T08:43:00Z</time>
      </trkpt>
      <trkpt lat="42.829305" lon="-7.701849">
        <ele>568.364</ele>
        <time>2022-08-21T08:43:03Z</time>
      </trkpt>
      <trkpt lat="42.829349" lon="-7.701884">
        <ele>568.357</ele>
        <time>2022-08-21T08:43:06Z</time>
      </trkpt>
      <trkpt lat="42.829388" lon="-7.701943">
        <ele>568.329</ele>
        <time>2022-08-21T08:43:10Z</time>
      </trkpt>
      <trkpt lat="42.829438" lon="-7.701983">
        <ele>568.325</ele>
        <time>2022-08-21T08:43:14Z</time>
      </trkpt>
      <trkpt lat="42.829485" lon="-7.702023">
        <ele>568.426</ele>
        <time>2022-08-21T08:43:18Z</time>
      </trkpt>
      <trkpt lat="42.829525" lon="-7.702053">
        <ele>568.508</ele>
        <time>2022-08-21T08:43:22Z</time>
      </trkpt>
      <trkpt lat="42.829575" lon="-7.702092">
        <ele>568.609</ele>
        <time>2022-08-21T08:43:26Z</time>
      </trkpt>
      <trkpt lat="42.829612" lon="-7.702154">
        <ele>568.713</ele>
        <time>2022-08-21T08:43:31Z</time>
      </trkpt>
      <trkpt lat="42.829632" lon="-7.702213">
        <ele>568.763</ele>
        <time>2022-08-21T08:43:37Z</time>
      </trkpt>
      <trkpt lat="42.829636" lon="-7.702275">
        <ele>568.823</ele>
        <time>2022-08-21T08:43:41Z</time>
      </trkpt>
      <trkpt lat="42.829636" lon="-7.702344">
        <ele>569.015</ele>
        <time>2022-08-21T08:43:46Z</time>
      </trkpt>
      <trkpt lat="42.829638" lon="-7.702417">
        <ele>569.247</ele>
        <time>2022-08-21T08:43:50Z</time>
      </trkpt>
      <trkpt lat="42.829644" lon="-7.702498">
        <ele>569.452</ele>
        <time>2022-08-21T08:43:54Z</time>
      </trkpt>
      <trkpt lat="42.829649" lon="-7.702563">
        <ele>569.662</ele>
        <time>2022-08-21T08:43:57Z</time>
      </trkpt>
      <trkpt lat="42.829657" lon="-7.702641">
        <ele>569.915</ele>
        <time>2022-08-21T08:44:01Z</time>
      </trkpt>
      <trkpt lat="42.829677" lon="-7.702717">
        <ele>570.197</ele>
        <time>2022-08-21T08:44:05Z</time>
      </trkpt>
      <trkpt lat="42.829704" lon="-7.702782">
        <ele>570.453</ele>
        <time>2022-08-21T08:44:10Z</time>
      </trkpt>
      <trkpt lat="42.829735" lon="-7.702847">
        <ele>570.904</ele>
        <time>2022-08-21T08:44:14Z</time>
      </trkpt>
      <trkpt lat="42.829762" lon="-7.702906">
        <ele>571.414</ele>
        <time>2022-08-21T08:44:18Z</time>
      </trkpt>
      <trkpt lat="42.829789" lon="-7.702958">
        <ele>571.609</ele>
        <time>2022-08-21T08:44:21Z</time>
      </trkpt>
      <trkpt lat="42.829812" lon="-7.703014">
        <ele>572.146</ele>
        <time>2022-08-21T08:44:25Z</time>
      </trkpt>
      <trkpt lat="42.829831" lon="-7.703075">
        <ele>572.696</ele>
        <time>2022-08-21T08:44:29Z</time>
      </trkpt>
      <trkpt lat="42.829849" lon="-7.703145">
        <ele>573.126</ele>
        <time>2022-08-21T08:44:33Z</time>
      </trkpt>
      <trkpt lat="42.829854" lon="-7.703224">
        <ele>573.638</ele>
        <time>2022-08-21T08:44:37Z</time>
      </trkpt>
      <trkpt lat="42.829865" lon="-7.703289">
        <ele>574.050</ele>
        <time>2022-08-21T08:44:41Z</time>
      </trkpt>
      <trkpt lat="42.829875" lon="-7.703365">
        <ele>574.215</ele>
        <time>2022-08-21T08:44:45Z</time>
      </trkpt>
      <trkpt lat="42.829892" lon="-7.703423">
        <ele>574.315</ele>
        <time>2022-08-21T08:44:49Z</time>
      </trkpt>
      <trkpt lat="42.829911" lon="-7.703483">
        <ele>574.388</ele>
        <time>2022-08-21T08:44:53Z</time>
      </trkpt>
      <trkpt lat="42.829929" lon="-7.703541">
        <ele>574.490</ele>
        <time>2022-08-21T08:44:57Z</time>
      </trkpt>
      <trkpt lat="42.829953" lon="-7.703606">
        <ele>574.662</ele>
        <time>2022-08-21T08:45:01Z</time>
      </trkpt>
      <trkpt lat="42.829969" lon="-7.703664">
        <ele>574.883</ele>
        <time>2022-08-21T08:45:05Z</time>
      </trkpt>
      <trkpt lat="42.829982" lon="-7.703729">
        <ele>575.011</ele>
        <time>2022-08-21T08:45:09Z</time>
      </trkpt>
      <trkpt lat="42.829992" lon="-7.703790">
        <ele>575.209</ele>
        <time>2022-08-21T08:45:13Z</time>
      </trkpt>
      <trkpt lat="42.830012" lon="-7.703853">
        <ele>575.427</ele>
        <time>2022-08-21T08:45:17Z</time>
      </trkpt>
      <trkpt lat="42.830040" lon="-7.703931">
        <ele>575.677</ele>
        <time>2022-08-21T08:45:22Z</time>
      </trkpt>
      <trkpt lat="42.830071" lon="-7.703997">
        <ele>575.827</ele>
        <time>2022-08-21T08:45:26Z</time>
      </trkpt>
      <trkpt lat="42.830097" lon="-7.704069">
        <ele>576.429</ele>
        <time>2022-08-21T08:45:30Z</time>
      </trkpt>
      <trkpt lat="42.830117" lon="-7.704130">
        <ele>576.761</ele>
        <time>2022-08-21T08:45:35Z</time>
      </trkpt>
      <trkpt lat="42.830147" lon="-7.704194">
        <ele>577.086</ele>
        <time>2022-08-21T08:45:40Z</time>
      </trkpt>
      <trkpt lat="42.830167" lon="-7.704259">
        <ele>577.426</ele>
        <time>2022-08-21T08:45:44Z</time>
      </trkpt>
      <trkpt lat="42.830187" lon="-7.704315">
        <ele>577.689</ele>
        <time>2022-08-21T08:45:47Z</time>
      </trkpt>
      <trkpt lat="42.830215" lon="-7.704386">
        <ele>577.971</ele>
        <time>2022-08-21T08:45:51Z</time>
      </trkpt>
      <trkpt lat="42.830244" lon="-7.704434">
        <ele>578.063</ele>
        <time>2022-08-21T08:45:55Z</time>
      </trkpt>
      <trkpt lat="42.830270" lon="-7.704496">
        <ele>578.144</ele>
        <time>2022-08-21T08:45:59Z</time>
      </trkpt>
      <trkpt lat="42.830295" lon="-7.704553">
        <ele>578.318</ele>
        <time>2022-08-21T08:46:03Z</time>
      </trkpt>
      <trkpt lat="42.830321" lon="-7.704616">
        <ele>578.609</ele>
        <time>2022-08-21T08:46:07Z</time>
      </trkpt>
      <trkpt lat="42.830352" lon="-7.704672">
        <ele>578.927</ele>
        <time>2022-08-21T08:46:10Z</time>
      </trkpt>
      <trkpt lat="42.830380" lon="-7.704724">
        <ele>579.177</ele>
        <time>2022-08-21T08:46:13Z</time>
      </trkpt>
      <trkpt lat="42.830413" lon="-7.704789">
        <ele>579.387</ele>
        <time>2022-08-21T08:46:17Z</time>
      </trkpt>
      <trkpt lat="42.830436" lon="-7.704842">
        <ele>579.579</ele>
        <time>2022-08-21T08:46:20Z</time>
      </trkpt>
      <trkpt lat="42.830473" lon="-7.704899">
        <ele>579.671</ele>
        <time>2022-08-21T08:46:24Z</time>
      </trkpt>
      <trkpt lat="42.830502" lon="-7.704967">
        <ele>579.746</ele>
        <time>2022-08-21T08:46:28Z</time>
      </trkpt>
      <trkpt lat="42.830527" lon="-7.705035">
        <ele>580.186</ele>
        <time>2022-08-21T08:46:32Z</time>
      </trkpt>
      <trkpt lat="42.830559" lon="-7.705096">
        <ele>580.349</ele>
        <time>2022-08-21T08:46:36Z</time>
      </trkpt>
      <trkpt lat="42.830589" lon="-7.705161">
        <ele>580.321</ele>
        <time>2022-08-21T08:46:40Z</time>
      </trkpt>
      <trkpt lat="42.830616" lon="-7.705227">
        <ele>580.352</ele>
        <time>2022-08-21T08:46:44Z</time>
      </trkpt>
      <trkpt lat="42.830649" lon="-7.705291">
        <ele>580.353</ele>
        <time>2022-08-21T08:46:48Z</time>
      </trkpt>
      <trkpt lat="42.830681" lon="-7.705355">
        <ele>580.308</ele>
        <time>2022-08-21T08:46:52Z</time>
      </trkpt>
      <trkpt lat="42.830719" lon="-7.705409">
        <ele>580.309</ele>
        <time>2022-08-21T08:46:56Z</time>
      </trkpt>
      <trkpt lat="42.830762" lon="-7.705453">
        <ele>580.476</ele>
        <time>2022-08-21T08:47:00Z</time>
      </trkpt>
      <trkpt lat="42.830806" lon="-7.705494">
        <ele>580.516</ele>
        <time>2022-08-21T08:47:04Z</time>
      </trkpt>
      <trkpt lat="42.830845" lon="-7.705535">
        <ele>580.686</ele>
        <time>2022-08-21T08:47:09Z</time>
      </trkpt>
      <trkpt lat="42.830869" lon="-7.705594">
        <ele>580.968</ele>
        <time>2022-08-21T08:47:13Z</time>
      </trkpt>
      <trkpt lat="42.830880" lon="-7.705664">
        <ele>581.450</ele>
        <time>2022-08-21T08:47:17Z</time>
      </trkpt>
      <trkpt lat="42.830894" lon="-7.705731">
        <ele>581.995</ele>
        <time>2022-08-21T08:47:21Z</time>
      </trkpt>
      <trkpt lat="42.830906" lon="-7.705797">
        <ele>582.065</ele>
        <time>2022-08-21T08:47:25Z</time>
      </trkpt>
      <trkpt lat="42.830924" lon="-7.705869">
        <ele>582.098</ele>
        <time>2022-08-21T08:47:29Z</time>
      </trkpt>
      <trkpt lat="42.830940" lon="-7.705940">
        <ele>582.020</ele>
        <time>2022-08-21T08:47:33Z</time>
      </trkpt>
      <trkpt lat="42.830959" lon="-7.706009">
        <ele>581.915</ele>
        <time>2022-08-21T08:47:37Z</time>
      </trkpt>
      <trkpt lat="42.830974" lon="-7.706079">
        <ele>581.865</ele>
        <time>2022-08-21T08:47:41Z</time>
      </trkpt>
      <trkpt lat="42.830981" lon="-7.706146">
        <ele>581.711</ele>
        <time>2022-08-21T08:47:46Z</time>
      </trkpt>
      <trkpt lat="42.831001" lon="-7.706207">
        <ele>581.709</ele>
        <time>2022-08-21T08:47:51Z</time>
      </trkpt>
      <trkpt lat="42.831020" lon="-7.706279">
        <ele>581.712</ele>
        <time>2022-08-21T08:47:55Z</time>
      </trkpt>
      <trkpt lat="42.831033" lon="-7.706347">
        <ele>581.712</ele>
        <time>2022-08-21T08:47:59Z</time>
      </trkpt>
      <trkpt lat="42.831067" lon="-7.706415">
        <ele>581.792</ele>
        <time>2022-08-21T08:48:05Z</time>
      </trkpt>
      <trkpt lat="42.831092" lon="-7.706489">
        <ele>581.724</ele>
        <time>2022-08-21T08:48:09Z</time>
      </trkpt>
      <trkpt lat="42.831108" lon="-7.706551">
        <ele>581.786</ele>
        <time>2022-08-21T08:48:12Z</time>
      </trkpt>
      <trkpt lat="42.831131" lon="-7.706627">
        <ele>581.871</ele>
        <time>2022-08-21T08:48:16Z</time>
      </trkpt>
      <trkpt lat="42.831151" lon="-7.706682">
        <ele>581.851</ele>
        <time>2022-08-21T08:48:19Z</time>
      </trkpt>
      <trkpt lat="42.831168" lon="-7.706754">
        <ele>581.854</ele>
        <time>2022-08-21T08:48:23Z</time>
      </trkpt>
      <trkpt lat="42.831182" lon="-7.706821">
        <ele>581.886</ele>
        <time>2022-08-21T08:48:27Z</time>
      </trkpt>
      <trkpt lat="42.831187" lon="-7.706884">
        <ele>581.882</ele>
        <time>2022-08-21T08:48:31Z</time>
      </trkpt>
      <trkpt lat="42.831204" lon="-7.706952">
        <ele>581.743</ele>
        <time>2022-08-21T08:48:35Z</time>
      </trkpt>
      <trkpt lat="42.831226" lon="-7.707021">
        <ele>581.517</ele>
        <time>2022-08-21T08:48:40Z</time>
      </trkpt>
      <trkpt lat="42.831244" lon="-7.707081">
        <ele>581.309</ele>
        <time>2022-08-21T08:48:44Z</time>
      </trkpt>
      <trkpt lat="42.831267" lon="-7.707154">
        <ele>581.119</ele>
        <time>2022-08-21T08:48:48Z</time>
      </trkpt>
      <trkpt lat="42.831291" lon="-7.707228">
        <ele>580.939</ele>
        <time>2022-08-21T08:48:52Z</time>
      </trkpt>
      <trkpt lat="42.831311" lon="-7.707289">
        <ele>580.829</ele>
        <time>2022-08-21T08:48:55Z</time>
      </trkpt>
      <trkpt lat="42.831329" lon="-7.707353">
        <ele>580.851</ele>
        <time>2022-08-21T08:48:59Z</time>
      </trkpt>
      <trkpt lat="42.831349" lon="-7.707422">
        <ele>580.813</ele>
        <time>2022-08-21T08:49:03Z</time>
      </trkpt>
      <trkpt lat="42.831374" lon="-7.707483">
        <ele>580.838</ele>
        <time>2022-08-21T08:49:07Z</time>
      </trkpt>
      <trkpt lat="42.831394" lon="-7.707547">
        <ele>580.878</ele>
        <time>2022-08-21T08:49:11Z</time>
      </trkpt>
      <trkpt lat="42.831418" lon="-7.707614">
        <ele>580.841</ele>
        <time>2022-08-21T08:49:14Z</time>
      </trkpt>
      <trkpt lat="42.831440" lon="-7.707690">
        <ele>580.823</ele>
        <time>2022-08-21T08:49:18Z</time>
      </trkpt>
      <trkpt lat="42.831454" lon="-7.707751">
        <ele>580.812</ele>
        <time>2022-08-21T08:49:21Z</time>
      </trkpt>
      <trkpt lat="42.831472" lon="-7.707830">
        <ele>580.832</ele>
        <time>2022-08-21T08:49:25Z</time>
      </trkpt>
      <trkpt lat="42.831487" lon="-7.707904">
        <ele>580.805</ele>
        <time>2022-08-21T08:49:29Z</time>
      </trkpt>
      <trkpt lat="42.831495" lon="-7.707978">
        <ele>580.909</ele>
        <time>2022-08-21T08:49:33Z</time>
      </trkpt>
      <trkpt lat="42.831505" lon="-7.708052">
        <ele>580.942</ele>
        <time>2022-08-21T08:49:37Z</time>
      </trkpt>
      <trkpt lat="42.831512" lon="-7.708126">
        <ele>580.942</ele>
        <time>2022-08-21T08:49:41Z</time>
      </trkpt>
      <trkpt lat="42.831514" lon="-7.708200">
        <ele>580.972</ele>
        <time>2022-08-21T08:49:45Z</time>
      </trkpt>
      <trkpt lat="42.831518" lon="-7.708271">
        <ele>581.024</ele>
        <time>2022-08-21T08:49:49Z</time>
      </trkpt>
      <trkpt lat="42.831516" lon="-7.708338">
        <ele>581.046</ele>
        <time>2022-08-21T08:49:53Z</time>
      </trkpt>
      <trkpt lat="42.831528" lon="-7.708402">
        <ele>581.191</ele>
        <time>2022-08-21T08:49:57Z</time>
      </trkpt>
      <trkpt lat="42.831556" lon="-7.708463">
        <ele>581.351</ele>
        <time>2022-08-21T08:50:02Z</time>
      </trkpt>
      <trkpt lat="42.831590" lon="-7.708508">
        <ele>581.584</ele>
        <time>2022-08-21T08:50:06Z</time>
      </trkpt>
      <trkpt lat="42.831628" lon="-7.708549">
        <ele>581.886</ele>
        <time>2022-08-21T08:50:10Z</time>
      </trkpt>
      <trkpt lat="42.831671" lon="-7.708588">
        <ele>582.273</ele>
        <time>2022-08-21T08:50:14Z</time>
      </trkpt>
      <trkpt lat="42.831704" lon="-7.708648">
        <ele>582.685</ele>
        <time>2022-08-21T08:50:19Z</time>
      </trkpt>
      <trkpt lat="42.831728" lon="-7.708700">
        <ele>583.113</ele>
        <time>2022-08-21T08:50:23Z</time>
      </trkpt>
      <trkpt lat="42.831739" lon="-7.708760">
        <ele>583.809</ele>
        <time>2022-08-21T08:50:27Z</time>
      </trkpt>
      <trkpt lat="42.831733" lon="-7.708827">
        <ele>584.588</ele>
        <time>2022-08-21T08:50:31Z</time>
      </trkpt>
      <trkpt lat="42.831727" lon="-7.708901">
        <ele>585.128</ele>
        <time>2022-08-21T08:50:35Z</time>
      </trkpt>
      <trkpt lat="42.831734" lon="-7.708962">
        <ele>585.688</ele>
        <time>2022-08-21T08:50:39Z</time>
      </trkpt>
      <trkpt lat="42.831755" lon="-7.709043">
        <ele>586.110</ele>
        <time>2022-08-21T08:50:43Z</time>
      </trkpt>
      <trkpt lat="42.831778" lon="-7.709097">
        <ele>586.532</ele>
        <time>2022-08-21T08:50:47Z</time>
      </trkpt>
      <trkpt lat="42.831803" lon="-7.709158">
        <ele>586.917</ele>
        <time>2022-08-21T08:50:51Z</time>
      </trkpt>
      <trkpt lat="42.831825" lon="-7.709218">
        <ele>587.357</ele>
        <time>2022-08-21T08:50:55Z</time>
      </trkpt>
      <trkpt lat="42.831841" lon="-7.709276">
        <ele>587.770</ele>
        <time>2022-08-21T08:50:59Z</time>
      </trkpt>
      <trkpt lat="42.831855" lon="-7.709344">
        <ele>588.012</ele>
        <time>2022-08-21T08:51:04Z</time>
      </trkpt>
      <trkpt lat="42.831874" lon="-7.709402">
        <ele>588.367</ele>
        <time>2022-08-21T08:51:07Z</time>
      </trkpt>
      <trkpt lat="42.831893" lon="-7.709461">
        <ele>588.681</ele>
        <time>2022-08-21T08:51:11Z</time>
      </trkpt>
      <trkpt lat="42.831916" lon="-7.709533">
        <ele>588.919</ele>
        <time>2022-08-21T08:51:15Z</time>
      </trkpt>
      <trkpt lat="42.831950" lon="-7.709599">
        <ele>589.109</ele>
        <time>2022-08-21T08:51:19Z</time>
      </trkpt>
      <trkpt lat="42.831988" lon="-7.709656">
        <ele>589.337</ele>
        <time>2022-08-21T08:51:23Z</time>
      </trkpt>
      <trkpt lat="42.832029" lon="-7.709703">
        <ele>589.867</ele>
        <time>2022-08-21T08:51:27Z</time>
      </trkpt>
      <trkpt lat="42.832063" lon="-7.709753">
        <ele>590.247</ele>
        <time>2022-08-21T08:51:31Z</time>
      </trkpt>
      <trkpt lat="42.832094" lon="-7.709811">
        <ele>590.779</ele>
        <time>2022-08-21T08:51:35Z</time>
      </trkpt>
      <trkpt lat="42.832115" lon="-7.709878">
        <ele>591.061</ele>
        <time>2022-08-21T08:51:39Z</time>
      </trkpt>
      <trkpt lat="42.832129" lon="-7.709952">
        <ele>591.686</ele>
        <time>2022-08-21T08:51:44Z</time>
      </trkpt>
      <trkpt lat="42.832143" lon="-7.710021">
        <ele>592.226</ele>
        <time>2022-08-21T08:51:49Z</time>
      </trkpt>
      <trkpt lat="42.832156" lon="-7.710088">
        <ele>593.079</ele>
        <time>2022-08-21T08:51:53Z</time>
      </trkpt>
      <trkpt lat="42.832179" lon="-7.710151">
        <ele>593.941</ele>
        <time>2022-08-21T08:51:57Z</time>
      </trkpt>
      <trkpt lat="42.832209" lon="-7.710211">
        <ele>594.799</ele>
        <time>2022-08-21T08:52:01Z</time>
      </trkpt>
      <trkpt lat="42.832240" lon="-7.710264">
        <ele>595.407</ele>
        <time>2022-08-21T08:52:05Z</time>
      </trkpt>
      <trkpt lat="42.832264" lon="-7.710324">
        <ele>596.027</ele>
        <time>2022-08-21T08:52:09Z</time>
      </trkpt>
      <trkpt lat="42.832295" lon="-7.710384">
        <ele>596.609</ele>
        <time>2022-08-21T08:52:14Z</time>
      </trkpt>
      <trkpt lat="42.832330" lon="-7.710447">
        <ele>597.360</ele>
        <time>2022-08-21T08:52:19Z</time>
      </trkpt>
      <trkpt lat="42.832365" lon="-7.710492">
        <ele>598.140</ele>
        <time>2022-08-21T08:52:23Z</time>
      </trkpt>
      <trkpt lat="42.832401" lon="-7.710554">
        <ele>598.980</ele>
        <time>2022-08-21T08:52:27Z</time>
      </trkpt>
      <trkpt lat="42.832434" lon="-7.710608">
        <ele>599.572</ele>
        <time>2022-08-21T08:52:31Z</time>
      </trkpt>
      <trkpt lat="42.832463" lon="-7.710664">
        <ele>600.184</ele>
        <time>2022-08-21T08:52:35Z</time>
      </trkpt>
      <trkpt lat="42.832494" lon="-7.710717">
        <ele>600.719</ele>
        <time>2022-08-21T08:52:39Z</time>
      </trkpt>
      <trkpt lat="42.832521" lon="-7.710766">
        <ele>601.349</ele>
        <time>2022-08-21T08:52:43Z</time>
      </trkpt>
      <trkpt lat="42.832551" lon="-7.710816">
        <ele>601.912</ele>
        <time>2022-08-21T08:52:47Z</time>
      </trkpt>
      <trkpt lat="42.832579" lon="-7.710871">
        <ele>602.534</ele>
        <time>2022-08-21T08:52:51Z</time>
      </trkpt>
      <trkpt lat="42.832615" lon="-7.710930">
        <ele>603.238</ele>
        <time>2022-08-21T08:52:55Z</time>
      </trkpt>
      <trkpt lat="42.832642" lon="-7.710985">
        <ele>603.970</ele>
        <time>2022-08-21T08:52:59Z</time>
      </trkpt>
      <trkpt lat="42.832677" lon="-7.711041">
        <ele>604.417</ele>
        <time>2022-08-21T08:53:03Z</time>
      </trkpt>
      <trkpt lat="42.832709" lon="-7.711101">
        <ele>604.909</ele>
        <time>2022-08-21T08:53:07Z</time>
      </trkpt>
      <trkpt lat="42.832737" lon="-7.711154">
        <ele>605.554</ele>
        <time>2022-08-21T08:53:11Z</time>
      </trkpt>
      <trkpt lat="42.832771" lon="-7.711216">
        <ele>606.144</ele>
        <time>2022-08-21T08:53:16Z</time>
      </trkpt>
      <trkpt lat="42.832802" lon="-7.711266">
        <ele>606.714</ele>
        <time>2022-08-21T08:53:20Z</time>
      </trkpt>
      <trkpt lat="42.832833" lon="-7.711323">
        <ele>607.356</ele>
        <time>2022-08-21T08:53:24Z</time>
      </trkpt>
      <trkpt lat="42.832865" lon="-7.711378">
        <ele>607.998</ele>
        <time>2022-08-21T08:53:28Z</time>
      </trkpt>
      <trkpt lat="42.832899" lon="-7.711439">
        <ele>608.453</ele>
        <time>2022-08-21T08:53:33Z</time>
      </trkpt>
      <trkpt lat="42.832928" lon="-7.711501">
        <ele>608.953</ele>
        <time>2022-08-21T08:53:38Z</time>
      </trkpt>
      <trkpt lat="42.832968" lon="-7.711563">
        <ele>609.936</ele>
        <time>2022-08-21T08:53:43Z</time>
      </trkpt>
      <trkpt lat="42.833000" lon="-7.711618">
        <ele>610.648</ele>
        <time>2022-08-21T08:53:47Z</time>
      </trkpt>
      <trkpt lat="42.833035" lon="-7.711673">
        <ele>611.239</ele>
        <time>2022-08-21T08:53:51Z</time>
      </trkpt>
      <trkpt lat="42.833062" lon="-7.711730">
        <ele>611.701</ele>
        <time>2022-08-21T08:53:55Z</time>
      </trkpt>
      <trkpt lat="42.833095" lon="-7.711783">
        <ele>612.021</ele>
        <time>2022-08-21T08:53:59Z</time>
      </trkpt>
      <trkpt lat="42.833130" lon="-7.711835">
        <ele>612.509</ele>
        <time>2022-08-21T08:54:03Z</time>
      </trkpt>
      <trkpt lat="42.833154" lon="-7.711903">
        <ele>613.054</ele>
        <time>2022-08-21T08:54:07Z</time>
      </trkpt>
      <trkpt lat="42.833166" lon="-7.711967">
        <ele>613.584</ele>
        <time>2022-08-21T08:54:11Z</time>
      </trkpt>
      <trkpt lat="42.833181" lon="-7.712039">
        <ele>614.014</ele>
        <time>2022-08-21T08:54:16Z</time>
      </trkpt>
      <trkpt lat="42.833184" lon="-7.712102">
        <ele>614.586</ele>
        <time>2022-08-21T08:54:20Z</time>
      </trkpt>
      <trkpt lat="42.833200" lon="-7.712161">
        <ele>615.118</ele>
        <time>2022-08-21T08:54:24Z</time>
      </trkpt>
      <trkpt lat="42.833228" lon="-7.712225">
        <ele>615.623</ele>
        <time>2022-08-21T08:54:28Z</time>
      </trkpt>
      <trkpt lat="42.833247" lon="-7.712290">
        <ele>615.983</ele>
        <time>2022-08-21T08:54:32Z</time>
      </trkpt>
      <trkpt lat="42.833271" lon="-7.712348">
        <ele>616.186</ele>
        <time>2022-08-21T08:54:36Z</time>
      </trkpt>
      <trkpt lat="42.833299" lon="-7.712404">
        <ele>616.448</ele>
        <time>2022-08-21T08:54:40Z</time>
      </trkpt>
      <trkpt lat="42.833321" lon="-7.712467">
        <ele>616.739</ele>
        <time>2022-08-21T08:54:44Z</time>
      </trkpt>
      <trkpt lat="42.833343" lon="-7.712528">
        <ele>617.001</ele>
        <time>2022-08-21T08:54:48Z</time>
      </trkpt>
      <trkpt lat="42.833364" lon="-7.712582">
        <ele>617.321</ele>
        <time>2022-08-21T08:54:51Z</time>
      </trkpt>
      <trkpt lat="42.833390" lon="-7.712647">
        <ele>617.709</ele>
        <time>2022-08-21T08:54:55Z</time>
      </trkpt>
      <trkpt lat="42.833415" lon="-7.712710">
        <ele>618.084</ele>
        <time>2022-08-21T08:54:59Z</time>
      </trkpt>
      <trkpt lat="42.833441" lon="-7.712770">
        <ele>618.324</ele>
        <time>2022-08-21T08:55:03Z</time>
      </trkpt>
      <trkpt lat="42.833465" lon="-7.712835">
        <ele>618.664</ele>
        <time>2022-08-21T08:55:08Z</time>
      </trkpt>
      <trkpt lat="42.833490" lon="-7.712886">
        <ele>619.036</ele>
        <time>2022-08-21T08:55:12Z</time>
      </trkpt>
      <trkpt lat="42.833514" lon="-7.712945">
        <ele>619.528</ele>
        <time>2022-08-21T08:55:16Z</time>
      </trkpt>
      <trkpt lat="42.833538" lon="-7.713009">
        <ele>620.043</ele>
        <time>2022-08-21T08:55:21Z</time>
      </trkpt>
      <trkpt lat="42.833559" lon="-7.713067">
        <ele>620.493</ele>
        <time>2022-08-21T08:55:25Z</time>
      </trkpt>
      <trkpt lat="42.833577" lon="-7.713129">
        <ele>620.876</ele>
        <time>2022-08-21T08:55:29Z</time>
      </trkpt>
      <trkpt lat="42.833591" lon="-7.713188">
        <ele>621.268</ele>
        <time>2022-08-21T08:55:33Z</time>
      </trkpt>
      <trkpt lat="42.833608" lon="-7.713250">
        <ele>621.666</ele>
        <time>2022-08-21T08:55:37Z</time>
      </trkpt>
      <trkpt lat="42.833623" lon="-7.713323">
        <ele>622.129</ele>
        <time>2022-08-21T08:55:42Z</time>
      </trkpt>
      <trkpt lat="42.833637" lon="-7.713390">
        <ele>622.621</ele>
        <time>2022-08-21T08:55:46Z</time>
      </trkpt>
      <trkpt lat="42.833648" lon="-7.713460">
        <ele>623.109</ele>
        <time>2022-08-21T08:55:50Z</time>
      </trkpt>
      <trkpt lat="42.833659" lon="-7.713534">
        <ele>623.767</ele>
        <time>2022-08-21T08:55:55Z</time>
      </trkpt>
      <trkpt lat="42.833682" lon="-7.713588">
        <ele>624.297</ele>
        <time>2022-08-21T08:55:59Z</time>
      </trkpt>
      <trkpt lat="42.833716" lon="-7.713639">
        <ele>624.717</ele>
        <time>2022-08-21T08:56:03Z</time>
      </trkpt>
      <trkpt lat="42.833739" lon="-7.713699">
        <ele>625.259</ele>
        <time>2022-08-21T08:56:08Z</time>
      </trkpt>
      <trkpt lat="42.833758" lon="-7.713762">
        <ele>625.751</ele>
        <time>2022-08-21T08:56:12Z</time>
      </trkpt>
      <trkpt lat="42.833768" lon="-7.713822">
        <ele>626.456</ele>
        <time>2022-08-21T08:56:16Z</time>
      </trkpt>
      <trkpt lat="42.833772" lon="-7.713890">
        <ele>627.256</ele>
        <time>2022-08-21T08:56:21Z</time>
      </trkpt>
      <trkpt lat="42.833774" lon="-7.713958">
        <ele>627.889</ele>
        <time>2022-08-21T08:56:25Z</time>
      </trkpt>
      <trkpt lat="42.833774" lon="-7.714027">
        <ele>628.411</ele>
        <time>2022-08-21T08:56:29Z</time>
      </trkpt>
      <trkpt lat="42.833764" lon="-7.714092">
        <ele>629.014</ele>
        <time>2022-08-21T08:56:34Z</time>
      </trkpt>
      <trkpt lat="42.833752" lon="-7.714155">
        <ele>629.554</ele>
        <time>2022-08-21T08:56:39Z</time>
      </trkpt>
      <trkpt lat="42.833743" lon="-7.714217">
        <ele>630.009</ele>
        <time>2022-08-21T08:56:43Z</time>
      </trkpt>
      <trkpt lat="42.833734" lon="-7.714290">
        <ele>630.609</ele>
        <time>2022-08-21T08:56:48Z</time>
      </trkpt>
      <trkpt lat="42.833713" lon="-7.714354">
        <ele>631.282</ele>
        <time>2022-08-21T08:56:53Z</time>
      </trkpt>
      <trkpt lat="42.833698" lon="-7.714412">
        <ele>631.752</ele>
        <time>2022-08-21T08:56:58Z</time>
      </trkpt>
      <trkpt lat="42.833695" lon="-7.714481">
        <ele>632.392</ele>
        <time>2022-08-21T08:57:02Z</time>
      </trkpt>
      <trkpt lat="42.833688" lon="-7.714549">
        <ele>632.914</ele>
        <time>2022-08-21T08:57:07Z</time>
      </trkpt>
      <trkpt lat="42.833681" lon="-7.714612">
        <ele>633.556</ele>
        <time>2022-08-21T08:57:11Z</time>
      </trkpt>
      <trkpt lat="42.833664" lon="-7.714684">
        <ele>634.121</ele>
        <time>2022-08-21T08:57:16Z</time>
      </trkpt>
      <trkpt lat="42.833653" lon="-7.714746">
        <ele>634.721</ele>
        <time>2022-08-21T08:57:20Z</time>
      </trkpt>
      <trkpt lat="42.833644" lon="-7.714810">
        <ele>635.314</ele>
        <time>2022-08-21T08:57:24Z</time>
      </trkpt>
      <trkpt lat="42.833638" lon="-7.714874">
        <ele>635.916</ele>
        <time>2022-08-21T08:57:28Z</time>
      </trkpt>
      <trkpt lat="42.833621" lon="-7.714952">
        <ele>636.523</ele>
        <time>2022-08-21T08:57:34Z</time>
      </trkpt>
      <trkpt lat="42.833608" lon="-7.715025">
        <ele>637.183</ele>
        <time>2022-08-21T08:57:39Z</time>
      </trkpt>
      <trkpt lat="42.833588" lon="-7.715092">
        <ele>637.811</ele>
        <time>2022-08-21T08:57:44Z</time>
      </trkpt>
      <trkpt lat="42.833574" lon="-7.715162">
        <ele>638.609</ele>
        <time>2022-08-21T08:57:49Z</time>
      </trkpt>
      <trkpt lat="42.833558" lon="-7.715229">
        <ele>639.723</ele>
        <time>2022-08-21T08:57:54Z</time>
      </trkpt>
      <trkpt lat="42.833546" lon="-7.715304">
        <ele>640.483</ele>
        <time>2022-08-21T08:58:00Z</time>
      </trkpt>
      <trkpt lat="42.833533" lon="-7.715374">
        <ele>640.843</ele>
        <time>2022-08-21T08:58:05Z</time>
      </trkpt>
      <trkpt lat="42.833522" lon="-7.715438">
        <ele>641.735</ele>
        <time>2022-08-21T08:58:10Z</time>
      </trkpt>
      <trkpt lat="42.833514" lon="-7.715505">
        <ele>642.617</ele>
        <time>2022-08-21T08:58:15Z</time>
      </trkpt>
      <trkpt lat="42.833495" lon="-7.715570">
        <ele>643.422</ele>
        <time>2022-08-21T08:58:20Z</time>
      </trkpt>
      <trkpt lat="42.833483" lon="-7.715630">
        <ele>644.292</ele>
        <time>2022-08-21T08:58:24Z</time>
      </trkpt>
      <trkpt lat="42.833480" lon="-7.715706">
        <ele>645.015</ele>
        <time>2022-08-21T08:58:28Z</time>
      </trkpt>
      <trkpt lat="42.833479" lon="-7.715773">
        <ele>645.847</ele>
        <time>2022-08-21T08:58:32Z</time>
      </trkpt>
      <trkpt lat="42.833489" lon="-7.715839">
        <ele>646.548</ele>
        <time>2022-08-21T08:58:36Z</time>
      </trkpt>
      <trkpt lat="42.833498" lon="-7.715909">
        <ele>647.161</ele>
        <time>2022-08-21T08:58:40Z</time>
      </trkpt>
      <trkpt lat="42.833508" lon="-7.715971">
        <ele>647.717</ele>
        <time>2022-08-21T08:58:44Z</time>
      </trkpt>
      <trkpt lat="42.833503" lon="-7.716045">
        <ele>648.409</ele>
        <time>2022-08-21T08:58:48Z</time>
      </trkpt>
      <trkpt lat="42.833498" lon="-7.716116">
        <ele>649.165</ele>
        <time>2022-08-21T08:58:53Z</time>
      </trkpt>
      <trkpt lat="42.833497" lon="-7.716181">
        <ele>649.835</ele>
        <time>2022-08-21T08:58:57Z</time>
      </trkpt>
      <trkpt lat="42.833487" lon="-7.716251">
        <ele>650.565</ele>
        <time>2022-08-21T08:59:02Z</time>
      </trkpt>
      <trkpt lat="42.833489" lon="-7.716316">
        <ele>651.247</ele>
        <time>2022-08-21T08:59:06Z</time>
      </trkpt>
      <trkpt lat="42.833490" lon="-7.716383">
        <ele>651.989</ele>
        <time>2022-08-21T08:59:10Z</time>
      </trkpt>
      <trkpt lat="42.833501" lon="-7.716459">
        <ele>652.744</ele>
        <time>2022-08-21T08:59:15Z</time>
      </trkpt>
      <trkpt lat="42.833496" lon="-7.716522">
        <ele>653.484</ele>
        <time>2022-08-21T08:59:19Z</time>
      </trkpt>
      <trkpt lat="42.833508" lon="-7.716586">
        <ele>654.227</ele>
        <time>2022-08-21T08:59:23Z</time>
      </trkpt>
      <trkpt lat="42.833500" lon="-7.716654">
        <ele>654.989</ele>
        <time>2022-08-21T08:59:27Z</time>
      </trkpt>
      <trkpt lat="42.833500" lon="-7.716717">
        <ele>655.575</ele>
        <time>2022-08-21T08:59:31Z</time>
      </trkpt>
      <trkpt lat="42.833499" lon="-7.716781">
        <ele>656.128</ele>
        <time>2022-08-21T08:59:35Z</time>
      </trkpt>
      <trkpt lat="42.833501" lon="-7.716844">
        <ele>656.720</ele>
        <time>2022-08-21T08:59:39Z</time>
      </trkpt>
      <trkpt lat="42.833502" lon="-7.716913">
        <ele>657.409</ele>
        <time>2022-08-21T08:59:43Z</time>
      </trkpt>
      <trkpt lat="42.833503" lon="-7.716988">
        <ele>658.138</ele>
        <time>2022-08-21T08:59:48Z</time>
      </trkpt>
      <trkpt lat="42.833509" lon="-7.717053">
        <ele>658.728</ele>
        <time>2022-08-21T08:59:52Z</time>
      </trkpt>
      <trkpt lat="42.833524" lon="-7.717111">
        <ele>659.518</ele>
        <time>2022-08-21T08:59:56Z</time>
      </trkpt>
      <trkpt lat="42.833544" lon="-7.717176">
        <ele>660.440</ele>
        <time>2022-08-21T09:00:00Z</time>
      </trkpt>
      <trkpt lat="42.833569" lon="-7.717236">
        <ele>661.282</ele>
        <time>2022-08-21T09:00:04Z</time>
      </trkpt>
      <trkpt lat="42.833605" lon="-7.717289">
        <ele>661.877</ele>
        <time>2022-08-21T09:00:09Z</time>
      </trkpt>
      <trkpt lat="42.833650" lon="-7.717324">
        <ele>662.447</ele>
        <time>2022-08-21T09:00:13Z</time>
      </trkpt>
      <trkpt lat="42.833682" lon="-7.717368">
        <ele>663.250</ele>
        <time>2022-08-21T09:00:17Z</time>
      </trkpt>
      <trkpt lat="42.833724" lon="-7.717405">
        <ele>664.042</ele>
        <time>2022-08-21T09:00:21Z</time>
      </trkpt>
      <trkpt lat="42.833757" lon="-7.717449">
        <ele>664.694</ele>
        <time>2022-08-21T09:00:25Z</time>
      </trkpt>
      <trkpt lat="42.833790" lon="-7.717496">
        <ele>665.157</ele>
        <time>2022-08-21T09:00:29Z</time>
      </trkpt>
      <trkpt lat="42.833824" lon="-7.717557">
        <ele>665.622</ele>
        <time>2022-08-21T09:00:34Z</time>
      </trkpt>
      <trkpt lat="42.833848" lon="-7.717609">
        <ele>666.109</ele>
        <time>2022-08-21T09:00:38Z</time>
      </trkpt>
      <trkpt lat="42.833876" lon="-7.717662">
        <ele>666.610</ele>
        <time>2022-08-21T09:00:42Z</time>
      </trkpt>
      <trkpt lat="42.833903" lon="-7.717713">
        <ele>667.160</ele>
        <time>2022-08-21T09:00:46Z</time>
      </trkpt>
      <trkpt lat="42.833918" lon="-7.717789">
        <ele>667.670</ele>
        <time>2022-08-21T09:00:51Z</time>
      </trkpt>
      <trkpt lat="42.833931" lon="-7.717852">
        <ele>668.142</ele>
        <time>2022-08-21T09:00:55Z</time>
      </trkpt>
      <trkpt lat="42.833937" lon="-7.717916">
        <ele>668.584</ele>
        <time>2022-08-21T09:00:59Z</time>
      </trkpt>
      <trkpt lat="42.833957" lon="-7.717988">
        <ele>668.949</ele>
        <time>2022-08-21T09:01:04Z</time>
      </trkpt>
      <trkpt lat="42.833971" lon="-7.718055">
        <ele>669.279</ele>
        <time>2022-08-21T09:01:08Z</time>
      </trkpt>
      <trkpt lat="42.834001" lon="-7.718128">
        <ele>669.662</ele>
        <time>2022-08-21T09:01:13Z</time>
      </trkpt>
      <trkpt lat="42.834024" lon="-7.718192">
        <ele>670.024</ele>
        <time>2022-08-21T09:01:17Z</time>
      </trkpt>
      <trkpt lat="42.834047" lon="-7.718259">
        <ele>670.668</ele>
        <time>2022-08-21T09:01:21Z</time>
      </trkpt>
      <trkpt lat="42.834067" lon="-7.718322">
        <ele>670.742</ele>
        <time>2022-08-21T09:01:26Z</time>
      </trkpt>
      <trkpt lat="42.834083" lon="-7.718382">
        <ele>670.826</ele>
        <time>2022-08-21T09:01:30Z</time>
      </trkpt>
      <trkpt lat="42.834099" lon="-7.718442">
        <ele>671.009</ele>
        <time>2022-08-21T09:01:34Z</time>
      </trkpt>
      <trkpt lat="42.834115" lon="-7.718502">
        <ele>671.157</ele>
        <time>2022-08-21T09:01:38Z</time>
      </trkpt>
      <trkpt lat="42.834124" lon="-7.718571">
        <ele>671.257</ele>
        <time>2022-08-21T09:01:43Z</time>
      </trkpt>
      <trkpt lat="42.834135" lon="-7.718638">
        <ele>671.377</ele>
        <time>2022-08-21T09:01:47Z</time>
      </trkpt>
      <trkpt lat="42.834142" lon="-7.718704">
        <ele>671.549</ele>
        <time>2022-08-21T09:01:51Z</time>
      </trkpt>
      <trkpt lat="42.834150" lon="-7.718774">
        <ele>671.761</ele>
        <time>2022-08-21T09:01:55Z</time>
      </trkpt>
      <trkpt lat="42.834152" lon="-7.718843">
        <ele>671.986</ele>
        <time>2022-08-21T09:01:59Z</time>
      </trkpt>
      <trkpt lat="42.834160" lon="-7.718907">
        <ele>672.016</ele>
        <time>2022-08-21T09:02:03Z</time>
      </trkpt>
      <trkpt lat="42.834164" lon="-7.718969">
        <ele>672.119</ele>
        <time>2022-08-21T09:02:07Z</time>
      </trkpt>
      <trkpt lat="42.834178" lon="-7.719035">
        <ele>672.251</ele>
        <time>2022-08-21T09:02:11Z</time>
      </trkpt>
      <trkpt lat="42.834192" lon="-7.719094">
        <ele>672.388</ele>
        <time>2022-08-21T09:02:15Z</time>
      </trkpt>
      <trkpt lat="42.834202" lon="-7.719173">
        <ele>672.424</ele>
        <time>2022-08-21T09:02:20Z</time>
      </trkpt>
      <trkpt lat="42.834212" lon="-7.719241">
        <ele>672.426</ele>
        <time>2022-08-21T09:02:24Z</time>
      </trkpt>
      <trkpt lat="42.834216" lon="-7.719313">
        <ele>672.409</ele>
        <time>2022-08-21T09:02:28Z</time>
      </trkpt>
      <trkpt lat="42.834217" lon="-7.719381">
        <ele>672.439</ele>
        <time>2022-08-21T09:02:32Z</time>
      </trkpt>
      <trkpt lat="42.834220" lon="-7.719443">
        <ele>672.499</ele>
        <time>2022-08-21T09:02:36Z</time>
      </trkpt>
      <trkpt lat="42.834221" lon="-7.719516">
        <ele>672.449</ele>
        <time>2022-08-21T09:02:41Z</time>
      </trkpt>
      <trkpt lat="42.834225" lon="-7.719585">
        <ele>672.481</ele>
        <time>2022-08-21T09:02:45Z</time>
      </trkpt>
      <trkpt lat="42.834233" lon="-7.719652">
        <ele>672.573</ele>
        <time>2022-08-21T09:02:49Z</time>
      </trkpt>
      <trkpt lat="42.834240" lon="-7.719726">
        <ele>672.658</ele>
        <time>2022-08-21T09:02:53Z</time>
      </trkpt>
      <trkpt lat="42.834243" lon="-7.719795">
        <ele>672.718</ele>
        <time>2022-08-21T09:02:57Z</time>
      </trkpt>
      <trkpt lat="42.834240" lon="-7.719863">
        <ele>672.761</ele>
        <time>2022-08-21T09:03:01Z</time>
      </trkpt>
      <trkpt lat="42.834240" lon="-7.719933">
        <ele>672.793</ele>
        <time>2022-08-21T09:03:05Z</time>
      </trkpt>
      <trkpt lat="42.834239" lon="-7.720004">
        <ele>672.894</ele>
        <time>2022-08-21T09:03:09Z</time>
      </trkpt>
      <trkpt lat="42.834245" lon="-7.720075">
        <ele>672.957</ele>
        <time>2022-08-21T09:03:13Z</time>
      </trkpt>
      <trkpt lat="42.834237" lon="-7.720144">
        <ele>673.122</ele>
        <time>2022-08-21T09:03:17Z</time>
      </trkpt>
      <trkpt lat="42.834232" lon="-7.720205">
        <ele>673.309</ele>
        <time>2022-08-21T09:03:21Z</time>
      </trkpt>
      <trkpt lat="42.834223" lon="-7.720285">
        <ele>673.510</ele>
        <time>2022-08-21T09:03:26Z</time>
      </trkpt>
      <trkpt lat="42.834214" lon="-7.720357">
        <ele>673.780</ele>
        <time>2022-08-21T09:03:30Z</time>
      </trkpt>
      <trkpt lat="42.834210" lon="-7.720421">
        <ele>673.990</ele>
        <time>2022-08-21T09:03:34Z</time>
      </trkpt>
      <trkpt lat="42.834210" lon="-7.720483">
        <ele>674.152</ele>
        <time>2022-08-21T09:03:38Z</time>
      </trkpt>
      <trkpt lat="42.834201" lon="-7.720553">
        <ele>674.214</ele>
        <time>2022-08-21T09:03:42Z</time>
      </trkpt>
      <trkpt lat="42.834197" lon="-7.720623">
        <ele>674.329</ele>
        <time>2022-08-21T09:03:46Z</time>
      </trkpt>
      <trkpt lat="42.834192" lon="-7.720694">
        <ele>674.449</ele>
        <time>2022-08-21T09:03:50Z</time>
      </trkpt>
      <trkpt lat="42.834175" lon="-7.720759">
        <ele>674.662</ele>
        <time>2022-08-21T09:03:54Z</time>
      </trkpt>
      <trkpt lat="42.834164" lon="-7.720820">
        <ele>674.834</ele>
        <time>2022-08-21T09:03:58Z</time>
      </trkpt>
      <trkpt lat="42.834146" lon="-7.720896">
        <ele>675.066</ele>
        <time>2022-08-21T09:04:03Z</time>
      </trkpt>
      <trkpt lat="42.834120" lon="-7.720959">
        <ele>675.329</ele>
        <time>2022-08-21T09:04:07Z</time>
      </trkpt>
      <trkpt lat="42.834100" lon="-7.721021">
        <ele>675.721</ele>
        <time>2022-08-21T09:04:11Z</time>
      </trkpt>
      <trkpt lat="42.834073" lon="-7.721081">
        <ele>676.109</ele>
        <time>2022-08-21T09:04:15Z</time>
      </trkpt>
      <trkpt lat="42.834049" lon="-7.721146">
        <ele>676.487</ele>
        <time>2022-08-21T09:04:19Z</time>
      </trkpt>
      <trkpt lat="42.834032" lon="-7.721211">
        <ele>676.697</ele>
        <time>2022-08-21T09:04:23Z</time>
      </trkpt>
      <trkpt lat="42.834024" lon="-7.721282">
        <ele>676.757</ele>
        <time>2022-08-21T09:04:27Z</time>
      </trkpt>
      <trkpt lat="42.834023" lon="-7.721353">
        <ele>676.719</ele>
        <time>2022-08-21T09:04:31Z</time>
      </trkpt>
      <trkpt lat="42.834051" lon="-7.721416">
        <ele>676.771</ele>
        <time>2022-08-21T09:04:35Z</time>
      </trkpt>
      <trkpt lat="42.834093" lon="-7.721459">
        <ele>676.746</ele>
        <time>2022-08-21T09:04:39Z</time>
      </trkpt>
      <trkpt lat="42.834137" lon="-7.721497">
        <ele>676.696</ele>
        <time>2022-08-21T09:04:43Z</time>
      </trkpt>
      <trkpt lat="42.834177" lon="-7.721538">
        <ele>676.559</ele>
        <time>2022-08-21T09:04:47Z</time>
      </trkpt>
      <trkpt lat="42.834221" lon="-7.721574">
        <ele>676.451</ele>
        <time>2022-08-21T09:04:51Z</time>
      </trkpt>
      <trkpt lat="42.834267" lon="-7.721606">
        <ele>676.396</ele>
        <time>2022-08-21T09:04:55Z</time>
      </trkpt>
      <trkpt lat="42.834311" lon="-7.721636">
        <ele>676.131</ele>
        <time>2022-08-21T09:04:59Z</time>
      </trkpt>
      <trkpt lat="42.834349" lon="-7.721683">
        <ele>675.924</ele>
        <time>2022-08-21T09:05:03Z</time>
      </trkpt>
      <trkpt lat="42.834390" lon="-7.721722">
        <ele>675.709</ele>
        <time>2022-08-21T09:05:07Z</time>
      </trkpt>
      <trkpt lat="42.834431" lon="-7.721763">
        <ele>675.530</ele>
        <time>2022-08-21T09:05:11Z</time>
      </trkpt>
      <trkpt lat="42.834473" lon="-7.721799">
        <ele>675.350</ele>
        <time>2022-08-21T09:05:15Z</time>
      </trkpt>
      <trkpt lat="42.834512" lon="-7.721841">
        <ele>675.020</ele>
        <time>2022-08-21T09:05:19Z</time>
      </trkpt>
      <trkpt lat="42.834549" lon="-7.721880">
        <ele>674.652</ele>
        <time>2022-08-21T09:05:23Z</time>
      </trkpt>
      <trkpt lat="42.834581" lon="-7.721928">
        <ele>674.264</ele>
        <time>2022-08-21T09:05:27Z</time>
      </trkpt>
      <trkpt lat="42.834606" lon="-7.721985">
        <ele>673.859</ele>
        <time>2022-08-21T09:05:31Z</time>
      </trkpt>
      <trkpt lat="42.834636" lon="-7.722031">
        <ele>673.499</ele>
        <time>2022-08-21T09:05:35Z</time>
      </trkpt>
      <trkpt lat="42.834671" lon="-7.722078">
        <ele>673.222</ele>
        <time>2022-08-21T09:05:39Z</time>
      </trkpt>
      <trkpt lat="42.834707" lon="-7.722123">
        <ele>673.144</ele>
        <time>2022-08-21T09:05:43Z</time>
      </trkpt>
      <trkpt lat="42.834743" lon="-7.722165">
        <ele>673.072</ele>
        <time>2022-08-21T09:05:47Z</time>
      </trkpt>
      <trkpt lat="42.834785" lon="-7.722203">
        <ele>672.813</ele>
        <time>2022-08-21T09:05:51Z</time>
      </trkpt>
      <trkpt lat="42.834824" lon="-7.722240">
        <ele>672.614</ele>
        <time>2022-08-21T09:05:55Z</time>
      </trkpt>
      <trkpt lat="42.834864" lon="-7.722275">
        <ele>672.409</ele>
        <time>2022-08-21T09:05:59Z</time>
      </trkpt>
      <trkpt lat="42.834906" lon="-7.722319">
        <ele>672.198</ele>
        <time>2022-08-21T09:06:04Z</time>
      </trkpt>
      <trkpt lat="42.834938" lon="-7.722363">
        <ele>671.888</ele>
        <time>2022-08-21T09:06:08Z</time>
      </trkpt>
      <trkpt lat="42.834975" lon="-7.722412">
        <ele>671.568</ele>
        <time>2022-08-21T09:06:12Z</time>
      </trkpt>
      <trkpt lat="42.835012" lon="-7.722463">
        <ele>671.350</ele>
        <time>2022-08-21T09:06:16Z</time>
      </trkpt>
      <trkpt lat="42.835039" lon="-7.722520">
        <ele>671.132</ele>
        <time>2022-08-21T09:06:20Z</time>
      </trkpt>
      <trkpt lat="42.835068" lon="-7.722580">
        <ele>670.857</ele>
        <time>2022-08-21T09:06:24Z</time>
      </trkpt>
      <trkpt lat="42.835103" lon="-7.722639">
        <ele>670.577</ele>
        <time>2022-08-21T09:06:28Z</time>
      </trkpt>
      <trkpt lat="42.835130" lon="-7.722689">
        <ele>670.160</ele>
        <time>2022-08-21T09:06:32Z</time>
      </trkpt>
      <trkpt lat="42.835161" lon="-7.722748">
        <ele>669.782</ele>
        <time>2022-08-21T09:06:36Z</time>
      </trkpt>
      <trkpt lat="42.835191" lon="-7.722801">
        <ele>669.483</ele>
        <time>2022-08-21T09:06:40Z</time>
      </trkpt>
      <trkpt lat="42.835218" lon="-7.722857">
        <ele>669.225</ele>
        <time>2022-08-21T09:06:44Z</time>
      </trkpt>
      <trkpt lat="42.835250" lon="-7.722916">
        <ele>669.017</ele>
        <time>2022-08-21T09:06:49Z</time>
      </trkpt>
      <trkpt lat="42.835284" lon="-7.722969">
        <ele>668.809</ele>
        <time>2022-08-21T09:06:53Z</time>
      </trkpt>
      <trkpt lat="42.835317" lon="-7.723024">
        <ele>668.669</ele>
        <time>2022-08-21T09:06:57Z</time>
      </trkpt>
      <trkpt lat="42.835349" lon="-7.723073">
        <ele>668.479</ele>
        <time>2022-08-21T09:07:01Z</time>
      </trkpt>
      <trkpt lat="42.835381" lon="-7.723124">
        <ele>668.379</ele>
        <time>2022-08-21T09:07:05Z</time>
      </trkpt>
      <trkpt lat="42.835426" lon="-7.723174">
        <ele>668.231</ele>
        <time>2022-08-21T09:07:09Z</time>
      </trkpt>
      <trkpt lat="42.835465" lon="-7.723225">
        <ele>668.173</ele>
        <time>2022-08-21T09:07:13Z</time>
      </trkpt>
      <trkpt lat="42.835508" lon="-7.723274">
        <ele>668.028</ele>
        <time>2022-08-21T09:07:17Z</time>
      </trkpt>
      <trkpt lat="42.835550" lon="-7.723319">
        <ele>667.818</ele>
        <time>2022-08-21T09:07:21Z</time>
      </trkpt>
      <trkpt lat="42.835592" lon="-7.723353">
        <ele>667.771</ele>
        <time>2022-08-21T09:07:25Z</time>
      </trkpt>
      <trkpt lat="42.835632" lon="-7.723393">
        <ele>667.643</ele>
        <time>2022-08-21T09:07:29Z</time>
      </trkpt>
      <trkpt lat="42.835671" lon="-7.723428">
        <ele>667.558</ele>
        <time>2022-08-21T09:07:33Z</time>
      </trkpt>
      <trkpt lat="42.835711" lon="-7.723463">
        <ele>667.452</ele>
        <time>2022-08-21T09:07:38Z</time>
      </trkpt>
      <trkpt lat="42.835748" lon="-7.723513">
        <ele>667.317</ele>
        <time>2022-08-21T09:07:44Z</time>
      </trkpt>
      <trkpt lat="42.835781" lon="-7.723570">
        <ele>667.209</ele>
        <time>2022-08-21T09:07:51Z</time>
      </trkpt>
      <trkpt lat="42.835813" lon="-7.723628">
        <ele>667.016</ele>
        <time>2022-08-21T09:07:55Z</time>
      </trkpt>
      <trkpt lat="42.835846" lon="-7.723682">
        <ele>666.936</ele>
        <time>2022-08-21T09:07:59Z</time>
      </trkpt>
      <trkpt lat="42.835875" lon="-7.723742">
        <ele>666.846</ele>
        <time>2022-08-21T09:08:03Z</time>
      </trkpt>
      <trkpt lat="42.835904" lon="-7.723800">
        <ele>666.838</ele>
        <time>2022-08-21T09:08:07Z</time>
      </trkpt>
      <trkpt lat="42.835937" lon="-7.723859">
        <ele>666.890</ele>
        <time>2022-08-21T09:08:11Z</time>
      </trkpt>
      <trkpt lat="42.835966" lon="-7.723920">
        <ele>666.845</ele>
        <time>2022-08-21T09:08:16Z</time>
      </trkpt>
      <trkpt lat="42.835990" lon="-7.723975">
        <ele>666.895</ele>
        <time>2022-08-21T09:08:19Z</time>
      </trkpt>
      <trkpt lat="42.836015" lon="-7.724030">
        <ele>666.878</ele>
        <time>2022-08-21T09:08:22Z</time>
      </trkpt>
      <trkpt lat="42.836035" lon="-7.724089">
        <ele>666.820</ele>
        <time>2022-08-21T09:08:25Z</time>
      </trkpt>
      <trkpt lat="42.836058" lon="-7.724143">
        <ele>666.885</ele>
        <time>2022-08-21T09:08:28Z</time>
      </trkpt>
      <trkpt lat="42.836080" lon="-7.724206">
        <ele>666.889</ele>
        <time>2022-08-21T09:08:32Z</time>
      </trkpt>
      <trkpt lat="42.836104" lon="-7.724262">
        <ele>666.817</ele>
        <time>2022-08-21T09:08:35Z</time>
      </trkpt>
      <trkpt lat="42.836148" lon="-7.724293">
        <ele>666.909</ele>
        <time>2022-08-21T09:08:39Z</time>
      </trkpt>
      <trkpt lat="42.836197" lon="-7.724305">
        <ele>667.039</ele>
        <time>2022-08-21T09:08:43Z</time>
      </trkpt>
      <trkpt lat="42.836247" lon="-7.724330">
        <ele>667.129</ele>
        <time>2022-08-21T09:08:47Z</time>
      </trkpt>
      <trkpt lat="42.836294" lon="-7.724360">
        <ele>667.319</ele>
        <time>2022-08-21T09:08:51Z</time>
      </trkpt>
      <trkpt lat="42.836326" lon="-7.724419">
        <ele>667.411</ele>
        <time>2022-08-21T09:08:55Z</time>
      </trkpt>
      <trkpt lat="42.836349" lon="-7.724488">
        <ele>667.453</ele>
        <time>2022-08-21T09:08:59Z</time>
      </trkpt>
      <trkpt lat="42.836376" lon="-7.724555">
        <ele>667.418</ele>
        <time>2022-08-21T09:09:03Z</time>
      </trkpt>
      <trkpt lat="42.836394" lon="-7.724622">
        <ele>667.418</ele>
        <time>2022-08-21T09:09:07Z</time>
      </trkpt>
      <trkpt lat="42.836420" lon="-7.724683">
        <ele>667.491</ele>
        <time>2022-08-21T09:09:11Z</time>
      </trkpt>
      <trkpt lat="42.836434" lon="-7.724745">
        <ele>667.493</ele>
        <time>2022-08-21T09:09:15Z</time>
      </trkpt>
      <trkpt lat="42.836453" lon="-7.724808">
        <ele>667.468</ele>
        <time>2022-08-21T09:09:19Z</time>
      </trkpt>
      <trkpt lat="42.836477" lon="-7.724870">
        <ele>667.442</ele>
        <time>2022-08-21T09:09:23Z</time>
      </trkpt>
      <trkpt lat="42.836501" lon="-7.724927">
        <ele>667.426</ele>
        <time>2022-08-21T09:09:27Z</time>
      </trkpt>
      <trkpt lat="42.836521" lon="-7.724991">
        <ele>667.409</ele>
        <time>2022-08-21T09:09:31Z</time>
      </trkpt>
      <trkpt lat="42.836540" lon="-7.725055">
        <ele>667.427</ele>
        <time>2022-08-21T09:09:35Z</time>
      </trkpt>
      <trkpt lat="42.836564" lon="-7.725112">
        <ele>667.447</ele>
        <time>2022-08-21T09:09:39Z</time>
      </trkpt>
      <trkpt lat="42.836588" lon="-7.725174">
        <ele>667.427</ele>
        <time>2022-08-21T09:09:43Z</time>
      </trkpt>
      <trkpt lat="42.836610" lon="-7.725234">
        <ele>667.479</ele>
        <time>2022-08-21T09:09:47Z</time>
      </trkpt>
      <trkpt lat="42.836635" lon="-7.725294">
        <ele>667.471</ele>
        <time>2022-08-21T09:09:51Z</time>
      </trkpt>
      <trkpt lat="42.836657" lon="-7.725360">
        <ele>667.436</ele>
        <time>2022-08-21T09:09:55Z</time>
      </trkpt>
      <trkpt lat="42.836675" lon="-7.725423">
        <ele>667.416</ele>
        <time>2022-08-21T09:09:59Z</time>
      </trkpt>
      <trkpt lat="42.836699" lon="-7.725494">
        <ele>667.449</ele>
        <time>2022-08-21T09:10:03Z</time>
      </trkpt>
      <trkpt lat="42.836717" lon="-7.725562">
        <ele>667.461</ele>
        <time>2022-08-21T09:10:07Z</time>
      </trkpt>
      <trkpt lat="42.836738" lon="-7.725629">
        <ele>667.413</ele>
        <time>2022-08-21T09:10:11Z</time>
      </trkpt>
      <trkpt lat="42.836763" lon="-7.725697">
        <ele>667.443</ele>
        <time>2022-08-21T09:10:15Z</time>
      </trkpt>
      <trkpt lat="42.836789" lon="-7.725764">
        <ele>667.407</ele>
        <time>2022-08-21T09:10:19Z</time>
      </trkpt>
      <trkpt lat="42.836808" lon="-7.725834">
        <ele>667.409</ele>
        <time>2022-08-21T09:10:23Z</time>
      </trkpt>
      <trkpt lat="42.836833" lon="-7.725903">
        <ele>667.412</ele>
        <time>2022-08-21T09:10:27Z</time>
      </trkpt>
      <trkpt lat="42.836851" lon="-7.725969">
        <ele>667.422</ele>
        <time>2022-08-21T09:10:31Z</time>
      </trkpt>
      <trkpt lat="42.836876" lon="-7.726031">
        <ele>667.522</ele>
        <time>2022-08-21T09:10:35Z</time>
      </trkpt>
      <trkpt lat="42.836892" lon="-7.726101">
        <ele>667.564</ele>
        <time>2022-08-21T09:10:39Z</time>
      </trkpt>
      <trkpt lat="42.836918" lon="-7.726172">
        <ele>667.626</ele>
        <time>2022-08-21T09:10:43Z</time>
      </trkpt>
      <trkpt lat="42.836938" lon="-7.726241">
        <ele>667.671</ele>
        <time>2022-08-21T09:10:47Z</time>
      </trkpt>
      <trkpt lat="42.836955" lon="-7.726310">
        <ele>667.751</ele>
        <time>2022-08-21T09:10:51Z</time>
      </trkpt>
      <trkpt lat="42.836978" lon="-7.726376">
        <ele>667.724</ele>
        <time>2022-08-21T09:10:55Z</time>
      </trkpt>
      <trkpt lat="42.837001" lon="-7.726441">
        <ele>667.796</ele>
        <time>2022-08-21T09:10:59Z</time>
      </trkpt>
      <trkpt lat="42.837025" lon="-7.726507">
        <ele>667.724</ele>
        <time>2022-08-21T09:11:03Z</time>
      </trkpt>
      <trkpt lat="42.837046" lon="-7.726575">
        <ele>667.804</ele>
        <time>2022-08-21T09:11:07Z</time>
      </trkpt>
      <trkpt lat="42.837070" lon="-7.726641">
        <ele>667.914</ele>
        <time>2022-08-21T09:11:11Z</time>
      </trkpt>
      <trkpt lat="42.837088" lon="-7.726703">
        <ele>667.909</ele>
        <time>2022-08-21T09:11:15Z</time>
      </trkpt>
      <trkpt lat="42.837106" lon="-7.726766">
        <ele>667.973</ele>
        <time>2022-08-21T09:11:19Z</time>
      </trkpt>
      <trkpt lat="42.837130" lon="-7.726837">
        <ele>668.033</ele>
        <time>2022-08-21T09:11:23Z</time>
      </trkpt>
      <trkpt lat="42.837154" lon="-7.726901">
        <ele>668.133</ele>
        <time>2022-08-21T09:11:27Z</time>
      </trkpt>
      <trkpt lat="42.837171" lon="-7.726960">
        <ele>668.245</ele>
        <time>2022-08-21T09:11:31Z</time>
      </trkpt>
      <trkpt lat="42.837190" lon="-7.727021">
        <ele>668.377</ele>
        <time>2022-08-21T09:11:35Z</time>
      </trkpt>
      <trkpt lat="42.837214" lon="-7.727089">
        <ele>668.442</ele>
        <time>2022-08-21T09:11:39Z</time>
      </trkpt>
      <trkpt lat="42.837233" lon="-7.727158">
        <ele>668.572</ele>
        <time>2022-08-21T09:11:43Z</time>
      </trkpt>
      <trkpt lat="42.837253" lon="-7.727220">
        <ele>668.745</ele>
        <time>2022-08-21T09:11:47Z</time>
      </trkpt>
      <trkpt lat="42.837273" lon="-7.727287">
        <ele>668.867</ele>
        <time>2022-08-21T09:11:51Z</time>
      </trkpt>
      <trkpt lat="42.837294" lon="-7.727349">
        <ele>668.954</ele>
        <time>2022-08-21T09:11:55Z</time>
      </trkpt>
      <trkpt lat="42.837316" lon="-7.727411">
        <ele>669.056</ele>
        <time>2022-08-21T09:11:59Z</time>
      </trkpt>
      <trkpt lat="42.837336" lon="-7.727473">
        <ele>669.111</ele>
        <time>2022-08-21T09:12:03Z</time>
      </trkpt>
      <trkpt lat="42.837357" lon="-7.727546">
        <ele>669.209</ele>
        <time>2022-08-21T09:12:07Z</time>
      </trkpt>
      <trkpt lat="42.837383" lon="-7.727611">
        <ele>669.346</ele>
        <time>2022-08-21T09:12:11Z</time>
      </trkpt>
      <trkpt lat="42.837398" lon="-7.727687">
        <ele>669.576</ele>
        <time>2022-08-21T09:12:15Z</time>
      </trkpt>
      <trkpt lat="42.837422" lon="-7.727746">
        <ele>669.636</ele>
        <time>2022-08-21T09:12:19Z</time>
      </trkpt>
      <trkpt lat="42.837446" lon="-7.727810">
        <ele>669.858</ele>
        <time>2022-08-21T09:12:23Z</time>
      </trkpt>
      <trkpt lat="42.837475" lon="-7.727877">
        <ele>669.970</ele>
        <time>2022-08-21T09:12:27Z</time>
      </trkpt>
      <trkpt lat="42.837498" lon="-7.727948">
        <ele>670.085</ele>
        <time>2022-08-21T09:12:31Z</time>
      </trkpt>
      <trkpt lat="42.837518" lon="-7.728016">
        <ele>670.115</ele>
        <time>2022-08-21T09:12:35Z</time>
      </trkpt>
      <trkpt lat="42.837535" lon="-7.728082">
        <ele>670.488</ele>
        <time>2022-08-21T09:12:39Z</time>
      </trkpt>
      <trkpt lat="42.837561" lon="-7.728148">
        <ele>670.640</ele>
        <time>2022-08-21T09:12:43Z</time>
      </trkpt>
      <trkpt lat="42.837582" lon="-7.728219">
        <ele>670.778</ele>
        <time>2022-08-21T09:12:47Z</time>
      </trkpt>
      <trkpt lat="42.837601" lon="-7.728288">
        <ele>670.833</ele>
        <time>2022-08-21T09:12:51Z</time>
      </trkpt>
      <trkpt lat="42.837628" lon="-7.728350">
        <ele>671.026</ele>
        <time>2022-08-21T09:12:55Z</time>
      </trkpt>
      <trkpt lat="42.837647" lon="-7.728418">
        <ele>671.109</ele>
        <time>2022-08-21T09:12:59Z</time>
      </trkpt>
      <trkpt lat="42.837670" lon="-7.728486">
        <ele>671.298</ele>
        <time>2022-08-21T09:13:03Z</time>
      </trkpt>
      <trkpt lat="42.837693" lon="-7.728549">
        <ele>671.368</ele>
        <time>2022-08-21T09:13:07Z</time>
      </trkpt>
      <trkpt lat="42.837716" lon="-7.728615">
        <ele>671.458</ele>
        <time>2022-08-21T09:13:11Z</time>
      </trkpt>
      <trkpt lat="42.837735" lon="-7.728684">
        <ele>671.590</ele>
        <time>2022-08-21T09:13:15Z</time>
      </trkpt>
      <trkpt lat="42.837757" lon="-7.728744">
        <ele>671.792</ele>
        <time>2022-08-21T09:13:19Z</time>
      </trkpt>
      <trkpt lat="42.837776" lon="-7.728806">
        <ele>671.937</ele>
        <time>2022-08-21T09:13:23Z</time>
      </trkpt>
      <trkpt lat="42.837799" lon="-7.728866">
        <ele>672.187</ele>
        <time>2022-08-21T09:13:27Z</time>
      </trkpt>
      <trkpt lat="42.837817" lon="-7.728928">
        <ele>672.380</ele>
        <time>2022-08-21T09:13:31Z</time>
      </trkpt>
      <trkpt lat="42.837838" lon="-7.728988">
        <ele>672.452</ele>
        <time>2022-08-21T09:13:35Z</time>
      </trkpt>
      <trkpt lat="42.837862" lon="-7.729048">
        <ele>672.517</ele>
        <time>2022-08-21T09:13:39Z</time>
      </trkpt>
      <trkpt lat="42.837888" lon="-7.729109">
        <ele>672.687</ele>
        <time>2022-08-21T09:13:43Z</time>
      </trkpt>
      <trkpt lat="42.837909" lon="-7.729169">
        <ele>672.715</ele>
        <time>2022-08-21T09:13:47Z</time>
      </trkpt>
      <trkpt lat="42.837931" lon="-7.729228">
        <ele>672.809</ele>
        <time>2022-08-21T09:13:51Z</time>
      </trkpt>
      <trkpt lat="42.837958" lon="-7.729285">
        <ele>672.932</ele>
        <time>2022-08-21T09:13:55Z</time>
      </trkpt>
      <trkpt lat="42.837977" lon="-7.729341">
        <ele>673.062</ele>
        <time>2022-08-21T09:13:59Z</time>
      </trkpt>
      <trkpt lat="42.837990" lon="-7.729400">
        <ele>673.142</ele>
        <time>2022-08-21T09:14:03Z</time>
      </trkpt>
      <trkpt lat="42.837973" lon="-7.729477">
        <ele>673.214</ele>
        <time>2022-08-21T09:14:07Z</time>
      </trkpt>
      <trkpt lat="42.837963" lon="-7.729545">
        <ele>673.366</ele>
        <time>2022-08-21T09:14:11Z</time>
      </trkpt>
      <trkpt lat="42.837959" lon="-7.729611">
        <ele>673.661</ele>
        <time>2022-08-21T09:14:15Z</time>
      </trkpt>
      <trkpt lat="42.837979" lon="-7.729677">
        <ele>674.041</ele>
        <time>2022-08-21T09:14:19Z</time>
      </trkpt>
      <trkpt lat="42.837998" lon="-7.729748">
        <ele>674.124</ele>
        <time>2022-08-21T09:14:24Z</time>
      </trkpt>
      <trkpt lat="42.838015" lon="-7.729815">
        <ele>674.116</ele>
        <time>2022-08-21T09:14:28Z</time>
      </trkpt>
      <trkpt lat="42.838040" lon="-7.729877">
        <ele>674.191</ele>
        <time>2022-08-21T09:14:33Z</time>
      </trkpt>
      <trkpt lat="42.838069" lon="-7.729946">
        <ele>674.081</ele>
        <time>2022-08-21T09:14:38Z</time>
      </trkpt>
      <trkpt lat="42.838095" lon="-7.730008">
        <ele>673.919</ele>
        <time>2022-08-21T09:14:42Z</time>
      </trkpt>
      <trkpt lat="42.838121" lon="-7.730064">
        <ele>673.909</ele>
        <time>2022-08-21T09:14:46Z</time>
      </trkpt>
      <trkpt lat="42.838148" lon="-7.730114">
        <ele>673.960</ele>
        <time>2022-08-21T09:14:50Z</time>
      </trkpt>
      <trkpt lat="42.838177" lon="-7.730176">
        <ele>673.990</ele>
        <time>2022-08-21T09:14:54Z</time>
      </trkpt>
      <trkpt lat="42.838204" lon="-7.730243">
        <ele>673.920</ele>
        <time>2022-08-21T09:14:58Z</time>
      </trkpt>
      <trkpt lat="42.838234" lon="-7.730300">
        <ele>674.062</ele>
        <time>2022-08-21T09:15:02Z</time>
      </trkpt>
      <trkpt lat="42.838261" lon="-7.730355">
        <ele>674.134</ele>
        <time>2022-08-21T09:15:07Z</time>
      </trkpt>
      <trkpt lat="42.838291" lon="-7.730403">
        <ele>674.249</ele>
        <time>2022-08-21T09:15:10Z</time>
      </trkpt>
      <trkpt lat="42.838320" lon="-7.730463">
        <ele>674.229</ele>
        <time>2022-08-21T09:15:14Z</time>
      </trkpt>
      <trkpt lat="42.838351" lon="-7.730530">
        <ele>674.292</ele>
        <time>2022-08-21T09:15:18Z</time>
      </trkpt>
      <trkpt lat="42.838378" lon="-7.730593">
        <ele>674.244</ele>
        <time>2022-08-21T09:15:22Z</time>
      </trkpt>
      <trkpt lat="42.838408" lon="-7.730654">
        <ele>674.185</ele>
        <time>2022-08-21T09:15:26Z</time>
      </trkpt>
      <trkpt lat="42.838437" lon="-7.730714">
        <ele>674.089</ele>
        <time>2022-08-21T09:15:30Z</time>
      </trkpt>
      <trkpt lat="42.838466" lon="-7.730774">
        <ele>673.917</ele>
        <time>2022-08-21T09:15:34Z</time>
      </trkpt>
      <trkpt lat="42.838496" lon="-7.730835">
        <ele>673.809</ele>
        <time>2022-08-21T09:15:38Z</time>
      </trkpt>
      <trkpt lat="42.838527" lon="-7.730892">
        <ele>673.799</ele>
        <time>2022-08-21T09:15:42Z</time>
      </trkpt>
      <trkpt lat="42.838561" lon="-7.730942">
        <ele>673.689</ele>
        <time>2022-08-21T09:15:46Z</time>
      </trkpt>
      <trkpt lat="42.838598" lon="-7.730994">
        <ele>673.549</ele>
        <time>2022-08-21T09:15:51Z</time>
      </trkpt>
      <trkpt lat="42.838632" lon="-7.731035">
        <ele>673.441</ele>
        <time>2022-08-21T09:15:55Z</time>
      </trkpt>
      <trkpt lat="42.838673" lon="-7.731082">
        <ele>673.373</ele>
        <time>2022-08-21T09:16:00Z</time>
      </trkpt>
      <trkpt lat="42.838705" lon="-7.731132">
        <ele>673.228</ele>
        <time>2022-08-21T09:16:04Z</time>
      </trkpt>
      <trkpt lat="42.838747" lon="-7.731182">
        <ele>673.278</ele>
        <time>2022-08-21T09:16:09Z</time>
      </trkpt>
      <trkpt lat="42.838790" lon="-7.731226">
        <ele>673.171</ele>
        <time>2022-08-21T09:16:14Z</time>
      </trkpt>
      <trkpt lat="42.838831" lon="-7.731272">
        <ele>673.013</ele>
        <time>2022-08-21T09:16:18Z</time>
      </trkpt>
      <trkpt lat="42.838877" lon="-7.731318">
        <ele>672.966</ele>
        <time>2022-08-21T09:16:22Z</time>
      </trkpt>
      <trkpt lat="42.838918" lon="-7.731374">
        <ele>672.829</ele>
        <time>2022-08-21T09:16:26Z</time>
      </trkpt>
      <trkpt lat="42.838954" lon="-7.731415">
        <ele>672.821</ele>
        <time>2022-08-21T09:16:29Z</time>
      </trkpt>
      <trkpt lat="42.838989" lon="-7.731456">
        <ele>672.809</ele>
        <time>2022-08-21T09:16:32Z</time>
      </trkpt>
      <trkpt lat="42.839024" lon="-7.731504">
        <ele>672.737</ele>
        <time>2022-08-21T09:16:36Z</time>
      </trkpt>
      <trkpt lat="42.839055" lon="-7.731558">
        <ele>672.667</ele>
        <time>2022-08-21T09:16:40Z</time>
      </trkpt>
      <trkpt lat="42.839095" lon="-7.731599">
        <ele>672.567</ele>
        <time>2022-08-21T09:16:44Z</time>
      </trkpt>
      <trkpt lat="42.839140" lon="-7.731643">
        <ele>672.479</ele>
        <time>2022-08-21T09:16:48Z</time>
      </trkpt>
      <trkpt lat="42.839186" lon="-7.731687">
        <ele>672.431</ele>
        <time>2022-08-21T09:16:52Z</time>
      </trkpt>
      <trkpt lat="42.839224" lon="-7.731727">
        <ele>672.366</ele>
        <time>2022-08-21T09:16:56Z</time>
      </trkpt>
      <trkpt lat="42.839271" lon="-7.731763">
        <ele>672.226</ele>
        <time>2022-08-21T09:17:00Z</time>
      </trkpt>
      <trkpt lat="42.839315" lon="-7.731806">
        <ele>672.289</ele>
        <time>2022-08-21T09:17:04Z</time>
      </trkpt>
      <trkpt lat="42.839364" lon="-7.731843">
        <ele>672.161</ele>
        <time>2022-08-21T09:17:08Z</time>
      </trkpt>
      <trkpt lat="42.839406" lon="-7.731887">
        <ele>672.059</ele>
        <time>2022-08-21T09:17:12Z</time>
      </trkpt>
      <trkpt lat="42.839450" lon="-7.731925">
        <ele>671.903</ele>
        <time>2022-08-21T09:17:16Z</time>
      </trkpt>
      <trkpt lat="42.839488" lon="-7.731972">
        <ele>671.823</ele>
        <time>2022-08-21T09:17:20Z</time>
      </trkpt>
      <trkpt lat="42.839526" lon="-7.732017">
        <ele>671.709</ele>
        <time>2022-08-21T09:17:24Z</time>
      </trkpt>
      <trkpt lat="42.839565" lon="-7.732060">
        <ele>671.616</ele>
        <time>2022-08-21T09:17:28Z</time>
      </trkpt>
      <trkpt lat="42.839604" lon="-7.732108">
        <ele>671.526</ele>
        <time>2022-08-21T09:17:32Z</time>
      </trkpt>
      <trkpt lat="42.839646" lon="-7.732155">
        <ele>671.486</ele>
        <time>2022-08-21T09:17:36Z</time>
      </trkpt>
      <trkpt lat="42.839690" lon="-7.732200">
        <ele>671.318</ele>
        <time>2022-08-21T09:17:40Z</time>
      </trkpt>
      <trkpt lat="42.839730" lon="-7.732244">
        <ele>671.240</ele>
        <time>2022-08-21T09:17:44Z</time>
      </trkpt>
      <trkpt lat="42.839765" lon="-7.732300">
        <ele>671.145</ele>
        <time>2022-08-21T09:17:48Z</time>
      </trkpt>
      <trkpt lat="42.839797" lon="-7.732350">
        <ele>671.095</ele>
        <time>2022-08-21T09:17:52Z</time>
      </trkpt>
      <trkpt lat="42.839827" lon="-7.732412">
        <ele>670.988</ele>
        <time>2022-08-21T09:17:57Z</time>
      </trkpt>
      <trkpt lat="42.839859" lon="-7.732476">
        <ele>670.830</ele>
        <time>2022-08-21T09:18:02Z</time>
      </trkpt>
      <trkpt lat="42.839895" lon="-7.732519">
        <ele>670.699</ele>
        <time>2022-08-21T09:18:06Z</time>
      </trkpt>
      <trkpt lat="42.839922" lon="-7.732575">
        <ele>670.307</ele>
        <time>2022-08-21T09:18:10Z</time>
      </trkpt>
      <trkpt lat="42.839953" lon="-7.732636">
        <ele>670.027</ele>
        <time>2022-08-21T09:18:15Z</time>
      </trkpt>
      <trkpt lat="42.839977" lon="-7.732693">
        <ele>669.809</ele>
        <time>2022-08-21T09:18:19Z</time>
      </trkpt>
      <trkpt lat="42.840012" lon="-7.732753">
        <ele>669.580</ele>
        <time>2022-08-21T09:18:24Z</time>
      </trkpt>
      <trkpt lat="42.840031" lon="-7.732810">
        <ele>669.220</ele>
        <time>2022-08-21T09:18:28Z</time>
      </trkpt>
      <trkpt lat="42.840051" lon="-7.732872">
        <ele>668.780</ele>
        <time>2022-08-21T09:18:32Z</time>
      </trkpt>
      <trkpt lat="42.840081" lon="-7.732938">
        <ele>668.242</ele>
        <time>2022-08-21T09:18:37Z</time>
      </trkpt>
      <trkpt lat="42.840110" lon="-7.733001">
        <ele>667.854</ele>
        <time>2022-08-21T09:18:42Z</time>
      </trkpt>
      <trkpt lat="42.840137" lon="-7.733055">
        <ele>667.329</ele>
        <time>2022-08-21T09:18:46Z</time>
      </trkpt>
      <trkpt lat="42.840165" lon="-7.733116">
        <ele>666.859</ele>
        <time>2022-08-21T09:18:50Z</time>
      </trkpt>
      <trkpt lat="42.840190" lon="-7.733185">
        <ele>666.472</ele>
        <time>2022-08-21T09:18:54Z</time>
      </trkpt>
      <trkpt lat="42.840227" lon="-7.733240">
        <ele>666.014</ele>
        <time>2022-08-21T09:18:58Z</time>
      </trkpt>
      <trkpt lat="42.840262" lon="-7.733290">
        <ele>665.584</ele>
        <time>2022-08-21T09:19:02Z</time>
      </trkpt>
      <trkpt lat="42.840299" lon="-7.733327">
        <ele>664.907</ele>
        <time>2022-08-21T09:19:06Z</time>
      </trkpt>
      <trkpt lat="42.840332" lon="-7.733396">
        <ele>664.317</ele>
        <time>2022-08-21T09:19:11Z</time>
      </trkpt>
      <trkpt lat="42.840359" lon="-7.733455">
        <ele>663.909</ele>
        <time>2022-08-21T09:19:16Z</time>
      </trkpt>
      <trkpt lat="42.840392" lon="-7.733511">
        <ele>663.549</ele>
        <time>2022-08-21T09:19:20Z</time>
      </trkpt>
      <trkpt lat="42.840422" lon="-7.733571">
        <ele>663.069</ele>
        <time>2022-08-21T09:19:24Z</time>
      </trkpt>
      <trkpt lat="42.840457" lon="-7.733625">
        <ele>662.319</ele>
        <time>2022-08-21T09:19:28Z</time>
      </trkpt>
      <trkpt lat="42.840503" lon="-7.733672">
        <ele>662.161</ele>
        <time>2022-08-21T09:19:33Z</time>
      </trkpt>
      <trkpt lat="42.840544" lon="-7.733713">
        <ele>661.783</ele>
        <time>2022-08-21T09:19:37Z</time>
      </trkpt>
      <trkpt lat="42.840580" lon="-7.733764">
        <ele>661.628</ele>
        <time>2022-08-21T09:19:41Z</time>
      </trkpt>
      <trkpt lat="42.840611" lon="-7.733811">
        <ele>661.628</ele>
        <time>2022-08-21T09:19:45Z</time>
      </trkpt>
      <trkpt lat="42.840644" lon="-7.733864">
        <ele>661.691</ele>
        <time>2022-08-21T09:19:49Z</time>
      </trkpt>
      <trkpt lat="42.840682" lon="-7.733912">
        <ele>661.813</ele>
        <time>2022-08-21T09:19:53Z</time>
      </trkpt>
      <trkpt lat="42.840716" lon="-7.733953">
        <ele>662.072</ele>
        <time>2022-08-21T09:19:56Z</time>
      </trkpt>
      <trkpt lat="42.840750" lon="-7.733993">
        <ele>662.213</ele>
        <time>2022-08-21T09:19:59Z</time>
      </trkpt>
      <trkpt lat="42.840796" lon="-7.734040">
        <ele>662.414</ele>
        <time>2022-08-21T09:20:03Z</time>
      </trkpt>
      <trkpt lat="42.840838" lon="-7.734088">
        <ele>662.609</ele>
        <time>2022-08-21T09:20:08Z</time>
      </trkpt>
      <trkpt lat="42.840885" lon="-7.734135">
        <ele>662.888</ele>
        <time>2022-08-21T09:20:14Z</time>
      </trkpt>
      <trkpt lat="42.840924" lon="-7.734181">
        <ele>663.278</ele>
        <time>2022-08-21T09:20:18Z</time>
      </trkpt>
      <trkpt lat="42.840960" lon="-7.734219">
        <ele>664.018</ele>
        <time>2022-08-21T09:20:21Z</time>
      </trkpt>
      <trkpt lat="42.840986" lon="-7.734276">
        <ele>664.760</ele>
        <time>2022-08-21T09:20:25Z</time>
      </trkpt>
      <trkpt lat="42.841019" lon="-7.734333">
        <ele>665.092</ele>
        <time>2022-08-21T09:20:29Z</time>
      </trkpt>
      <trkpt lat="42.841053" lon="-7.734381">
        <ele>665.137</ele>
        <time>2022-08-21T09:20:33Z</time>
      </trkpt>
      <trkpt lat="42.841090" lon="-7.734432">
        <ele>665.187</ele>
        <time>2022-08-21T09:20:37Z</time>
      </trkpt>
      <trkpt lat="42.841124" lon="-7.734476">
        <ele>665.110</ele>
        <time>2022-08-21T09:20:41Z</time>
      </trkpt>
      <trkpt lat="42.841165" lon="-7.734518">
        <ele>665.132</ele>
        <time>2022-08-21T09:20:45Z</time>
      </trkpt>
      <trkpt lat="42.841201" lon="-7.734566">
        <ele>665.192</ele>
        <time>2022-08-21T09:20:49Z</time>
      </trkpt>
      <trkpt lat="42.841242" lon="-7.734608">
        <ele>665.173</ele>
        <time>2022-08-21T09:20:53Z</time>
      </trkpt>
      <trkpt lat="42.841284" lon="-7.734638">
        <ele>665.220</ele>
        <time>2022-08-21T09:20:57Z</time>
      </trkpt>
      <trkpt lat="42.841332" lon="-7.734669">
        <ele>665.409</ele>
        <time>2022-08-21T09:21:02Z</time>
      </trkpt>
      <trkpt lat="42.841380" lon="-7.734693">
        <ele>665.590</ele>
        <time>2022-08-21T09:21:06Z</time>
      </trkpt>
      <trkpt lat="42.841428" lon="-7.734713">
        <ele>665.950</ele>
        <time>2022-08-21T09:21:10Z</time>
      </trkpt>
      <trkpt lat="42.841478" lon="-7.734728">
        <ele>666.560</ele>
        <time>2022-08-21T09:21:14Z</time>
      </trkpt>
      <trkpt lat="42.841527" lon="-7.734730">
        <ele>667.092</ele>
        <time>2022-08-21T09:21:18Z</time>
      </trkpt>
      <trkpt lat="42.841574" lon="-7.734698">
        <ele>667.444</ele>
        <time>2022-08-21T09:21:23Z</time>
      </trkpt>
      <trkpt lat="42.841604" lon="-7.734644">
        <ele>667.639</ele>
        <time>2022-08-21T09:21:27Z</time>
      </trkpt>
      <trkpt lat="42.841613" lon="-7.734578">
        <ele>668.139</ele>
        <time>2022-08-21T09:21:31Z</time>
      </trkpt>
      <trkpt lat="42.841626" lon="-7.734504">
        <ele>668.942</ele>
        <time>2022-08-21T09:21:35Z</time>
      </trkpt>
      <trkpt lat="42.841630" lon="-7.734441">
        <ele>669.664</ele>
        <time>2022-08-21T09:21:39Z</time>
      </trkpt>
      <trkpt lat="42.841641" lon="-7.734364">
        <ele>670.037</ele>
        <time>2022-08-21T09:21:44Z</time>
      </trkpt>
      <trkpt lat="42.841650" lon="-7.734300">
        <ele>670.349</ele>
        <time>2022-08-21T09:21:48Z</time>
      </trkpt>
      <trkpt lat="42.841656" lon="-7.734234">
        <ele>670.613</ele>
        <time>2022-08-21T09:21:52Z</time>
      </trkpt>
      <trkpt lat="42.841672" lon="-7.734175">
        <ele>671.009</ele>
        <time>2022-08-21T09:21:56Z</time>
      </trkpt>
      <trkpt lat="42.841697" lon="-7.734121">
        <ele>671.324</ele>
        <time>2022-08-21T09:22:00Z</time>
      </trkpt>
      <trkpt lat="42.841715" lon="-7.734056">
        <ele>671.644</ele>
        <time>2022-08-21T09:22:04Z</time>
      </trkpt>
      <trkpt lat="42.841742" lon="-7.733998">
        <ele>671.884</ele>
        <time>2022-08-21T09:22:09Z</time>
      </trkpt>
      <trkpt lat="42.841782" lon="-7.733963">
        <ele>672.196</ele>
        <time>2022-08-21T09:22:13Z</time>
      </trkpt>
      <trkpt lat="42.841820" lon="-7.733913">
        <ele>672.568</ele>
        <time>2022-08-21T09:22:18Z</time>
      </trkpt>
      <trkpt lat="42.841831" lon="-7.733847">
        <ele>672.943</ele>
        <time>2022-08-21T09:22:22Z</time>
      </trkpt>
      <trkpt lat="42.841859" lon="-7.733788">
        <ele>673.313</ele>
        <time>2022-08-21T09:22:26Z</time>
      </trkpt>
      <trkpt lat="42.841904" lon="-7.733760">
        <ele>673.746</ele>
        <time>2022-08-21T09:22:31Z</time>
      </trkpt>
      <trkpt lat="42.841952" lon="-7.733743">
        <ele>674.158</ele>
        <time>2022-08-21T09:22:35Z</time>
      </trkpt>
      <trkpt lat="42.842000" lon="-7.733758">
        <ele>674.534</ele>
        <time>2022-08-21T09:22:40Z</time>
      </trkpt>
      <trkpt lat="42.842031" lon="-7.733804">
        <ele>675.155</ele>
        <time>2022-08-21T09:22:44Z</time>
      </trkpt>
      <trkpt lat="42.842068" lon="-7.733854">
        <ele>675.710</ele>
        <time>2022-08-21T09:22:48Z</time>
      </trkpt>
      <trkpt lat="42.842093" lon="-7.733907">
        <ele>676.209</ele>
        <time>2022-08-21T09:22:52Z</time>
      </trkpt>
      <trkpt lat="42.842130" lon="-7.733962">
        <ele>676.414</ele>
        <time>2022-08-21T09:22:56Z</time>
      </trkpt>
      <trkpt lat="42.842162" lon="-7.734019">
        <ele>676.454</ele>
        <time>2022-08-21T09:23:00Z</time>
      </trkpt>
      <trkpt lat="42.842199" lon="-7.734080">
        <ele>676.414</ele>
        <time>2022-08-21T09:23:05Z</time>
      </trkpt>
      <trkpt lat="42.842227" lon="-7.734138">
        <ele>676.386</ele>
        <time>2022-08-21T09:23:09Z</time>
      </trkpt>
      <trkpt lat="42.842260" lon="-7.734198">
        <ele>676.148</ele>
        <time>2022-08-21T09:23:14Z</time>
      </trkpt>
      <trkpt lat="42.842291" lon="-7.734254">
        <ele>676.173</ele>
        <time>2022-08-21T09:23:18Z</time>
      </trkpt>
      <trkpt lat="42.842323" lon="-7.734305">
        <ele>676.033</ele>
        <time>2022-08-21T09:23:22Z</time>
      </trkpt>
      <trkpt lat="42.842342" lon="-7.734373">
        <ele>675.996</ele>
        <time>2022-08-21T09:23:27Z</time>
      </trkpt>
      <trkpt lat="42.842337" lon="-7.734442">
        <ele>675.758</ele>
        <time>2022-08-21T09:23:32Z</time>
      </trkpt>
      <trkpt lat="42.842353" lon="-7.734503">
        <ele>675.542</ele>
        <time>2022-08-21T09:23:36Z</time>
      </trkpt>
      <trkpt lat="42.842326" lon="-7.734565">
        <ele>675.322</ele>
        <time>2022-08-21T09:23:40Z</time>
      </trkpt>
      <trkpt lat="42.842286" lon="-7.734607">
        <ele>675.114</ele>
        <time>2022-08-21T09:23:44Z</time>
      </trkpt>
      <trkpt lat="42.842254" lon="-7.734657">
        <ele>674.909</ele>
        <time>2022-08-21T09:23:48Z</time>
      </trkpt>
      <trkpt lat="42.842212" lon="-7.734709">
        <ele>674.585</ele>
        <time>2022-08-21T09:23:53Z</time>
      </trkpt>
      <trkpt lat="42.842179" lon="-7.734762">
        <ele>674.145</ele>
        <time>2022-08-21T09:23:57Z</time>
      </trkpt>
      <trkpt lat="42.842147" lon="-7.734814">
        <ele>673.825</ele>
        <time>2022-08-21T09:24:01Z</time>
      </trkpt>
      <trkpt lat="42.842111" lon="-7.734870">
        <ele>673.587</ele>
        <time>2022-08-21T09:24:05Z</time>
      </trkpt>
      <trkpt lat="42.842080" lon="-7.734924">
        <ele>673.219</ele>
        <time>2022-08-21T09:24:09Z</time>
      </trkpt>
      <trkpt lat="42.842052" lon="-7.734982">
        <ele>672.834</ele>
        <time>2022-08-21T09:24:13Z</time>
      </trkpt>
      <trkpt lat="42.842026" lon="-7.735051">
        <ele>672.354</ele>
        <time>2022-08-21T09:24:17Z</time>
      </trkpt>
      <trkpt lat="42.842007" lon="-7.735108">
        <ele>671.817</ele>
        <time>2022-08-21T09:24:21Z</time>
      </trkpt>
      <trkpt lat="42.841980" lon="-7.735168">
        <ele>671.389</ele>
        <time>2022-08-21T09:24:25Z</time>
      </trkpt>
      <trkpt lat="42.841957" lon="-7.735236">
        <ele>670.831</ele>
        <time>2022-08-21T09:24:29Z</time>
      </trkpt>
      <trkpt lat="42.841939" lon="-7.735298">
        <ele>670.361</ele>
        <time>2022-08-21T09:24:33Z</time>
      </trkpt>
      <trkpt lat="42.841927" lon="-7.735360">
        <ele>669.807</ele>
        <time>2022-08-21T09:24:37Z</time>
      </trkpt>
      <trkpt lat="42.841930" lon="-7.735422">
        <ele>669.309</ele>
        <time>2022-08-21T09:24:40Z</time>
      </trkpt>
      <trkpt lat="42.841933" lon="-7.735493">
        <ele>668.764</ele>
        <time>2022-08-21T09:24:44Z</time>
      </trkpt>
      <trkpt lat="42.841945" lon="-7.735577">
        <ele>668.134</ele>
        <time>2022-08-21T09:24:48Z</time>
      </trkpt>
      <trkpt lat="42.841968" lon="-7.735659">
        <ele>667.944</ele>
        <time>2022-08-21T09:24:53Z</time>
      </trkpt>
      <trkpt lat="42.841985" lon="-7.735716">
        <ele>667.946</ele>
        <time>2022-08-21T09:24:57Z</time>
      </trkpt>
      <trkpt lat="42.842009" lon="-7.735779">
        <ele>668.378</ele>
        <time>2022-08-21T09:25:01Z</time>
      </trkpt>
      <trkpt lat="42.842027" lon="-7.735845">
        <ele>668.663</ele>
        <time>2022-08-21T09:25:05Z</time>
      </trkpt>
      <trkpt lat="42.842044" lon="-7.735903">
        <ele>668.933</ele>
        <time>2022-08-21T09:25:09Z</time>
      </trkpt>
      <trkpt lat="42.842065" lon="-7.735976">
        <ele>669.496</ele>
        <time>2022-08-21T09:25:13Z</time>
      </trkpt>
      <trkpt lat="42.842085" lon="-7.736040">
        <ele>669.868</ele>
        <time>2022-08-21T09:25:17Z</time>
      </trkpt>
      <trkpt lat="42.842097" lon="-7.736112">
        <ele>670.177</ele>
        <time>2022-08-21T09:25:21Z</time>
      </trkpt>
      <trkpt lat="42.842117" lon="-7.736180">
        <ele>670.461</ele>
        <time>2022-08-21T09:25:26Z</time>
      </trkpt>
      <trkpt lat="42.842137" lon="-7.736244">
        <ele>670.827</ele>
        <time>2022-08-21T09:25:30Z</time>
      </trkpt>
      <trkpt lat="42.842149" lon="-7.736316">
        <ele>671.309</ele>
        <time>2022-08-21T09:25:35Z</time>
      </trkpt>
      <trkpt lat="42.842157" lon="-7.736380">
        <ele>671.778</ele>
        <time>2022-08-21T09:25:39Z</time>
      </trkpt>
      <trkpt lat="42.842181" lon="-7.736447">
        <ele>671.948</ele>
        <time>2022-08-21T09:25:44Z</time>
      </trkpt>
      <trkpt lat="42.842197" lon="-7.736507">
        <ele>672.038</ele>
        <time>2022-08-21T09:25:47Z</time>
      </trkpt>
      <trkpt lat="42.842210" lon="-7.736581">
        <ele>672.280</ele>
        <time>2022-08-21T09:25:51Z</time>
      </trkpt>
      <trkpt lat="42.842213" lon="-7.736659">
        <ele>672.462</ele>
        <time>2022-08-21T09:25:56Z</time>
      </trkpt>
      <trkpt lat="42.842231" lon="-7.736727">
        <ele>672.567</ele>
        <time>2022-08-21T09:26:00Z</time>
      </trkpt>
      <trkpt lat="42.842244" lon="-7.736789">
        <ele>672.817</ele>
        <time>2022-08-21T09:26:04Z</time>
      </trkpt>
      <trkpt lat="42.842269" lon="-7.736857">
        <ele>673.170</ele>
        <time>2022-08-21T09:26:09Z</time>
      </trkpt>
      <trkpt lat="42.842285" lon="-7.736916">
        <ele>673.292</ele>
        <time>2022-08-21T09:26:13Z</time>
      </trkpt>
      <trkpt lat="42.842311" lon="-7.736992">
        <ele>673.578</ele>
        <time>2022-08-21T09:26:17Z</time>
      </trkpt>
      <trkpt lat="42.842326" lon="-7.737061">
        <ele>673.833</ele>
        <time>2022-08-21T09:26:21Z</time>
      </trkpt>
      <trkpt lat="42.842348" lon="-7.737124">
        <ele>674.126</ele>
        <time>2022-08-21T09:26:25Z</time>
      </trkpt>
      <trkpt lat="42.842371" lon="-7.737179">
        <ele>674.409</ele>
        <time>2022-08-21T09:26:29Z</time>
      </trkpt>
      <trkpt lat="42.842395" lon="-7.737245">
        <ele>674.718</ele>
        <time>2022-08-21T09:26:33Z</time>
      </trkpt>
      <trkpt lat="42.842421" lon="-7.737306">
        <ele>674.938</ele>
        <time>2022-08-21T09:26:37Z</time>
      </trkpt>
      <trkpt lat="42.842445" lon="-7.737363">
        <ele>675.158</ele>
        <time>2022-08-21T09:26:40Z</time>
      </trkpt>
      <trkpt lat="42.842463" lon="-7.737438">
        <ele>675.370</ele>
        <time>2022-08-21T09:26:44Z</time>
      </trkpt>
      <trkpt lat="42.842473" lon="-7.737508">
        <ele>675.532</ele>
        <time>2022-08-21T09:26:48Z</time>
      </trkpt>
      <trkpt lat="42.842479" lon="-7.737582">
        <ele>675.727</ele>
        <time>2022-08-21T09:26:52Z</time>
      </trkpt>
      <trkpt lat="42.842489" lon="-7.737660">
        <ele>676.197</ele>
        <time>2022-08-21T09:26:56Z</time>
      </trkpt>
      <trkpt lat="42.842498" lon="-7.737724">
        <ele>676.330</ele>
        <time>2022-08-21T09:27:00Z</time>
      </trkpt>
      <trkpt lat="42.842504" lon="-7.737785">
        <ele>676.532</ele>
        <time>2022-08-21T09:27:03Z</time>
      </trkpt>
      <trkpt lat="42.842515" lon="-7.737857">
        <ele>676.837</ele>
        <time>2022-08-21T09:27:07Z</time>
      </trkpt>
      <trkpt lat="42.842519" lon="-7.737930">
        <ele>677.049</ele>
        <time>2022-08-21T09:27:11Z</time>
      </trkpt>
      <trkpt lat="42.842526" lon="-7.737993">
        <ele>677.213</ele>
        <time>2022-08-21T09:27:15Z</time>
      </trkpt>
      <trkpt lat="42.842533" lon="-7.738068">
        <ele>677.509</ele>
        <time>2022-08-21T09:27:19Z</time>
      </trkpt>
      <trkpt lat="42.842538" lon="-7.738140">
        <ele>677.824</ele>
        <time>2022-08-21T09:27:23Z</time>
      </trkpt>
      <trkpt lat="42.842534" lon="-7.738202">
        <ele>678.084</ele>
        <time>2022-08-21T09:27:27Z</time>
      </trkpt>
      <trkpt lat="42.842548" lon="-7.738263">
        <ele>678.134</ele>
        <time>2022-08-21T09:27:31Z</time>
      </trkpt>
      <trkpt lat="42.842561" lon="-7.738336">
        <ele>678.316</ele>
        <time>2022-08-21T09:27:35Z</time>
      </trkpt>
      <trkpt lat="42.842572" lon="-7.738396">
        <ele>678.588</ele>
        <time>2022-08-21T09:27:39Z</time>
      </trkpt>
      <trkpt lat="42.842574" lon="-7.738467">
        <ele>678.633</ele>
        <time>2022-08-21T09:27:43Z</time>
      </trkpt>
      <trkpt lat="42.842580" lon="-7.738531">
        <ele>678.753</ele>
        <time>2022-08-21T09:27:47Z</time>
      </trkpt>
      <trkpt lat="42.842586" lon="-7.738607">
        <ele>678.876</ele>
        <time>2022-08-21T09:27:52Z</time>
      </trkpt>
      <trkpt lat="42.842588" lon="-7.738678">
        <ele>679.078</ele>
        <time>2022-08-21T09:27:56Z</time>
      </trkpt>
      <trkpt lat="42.842594" lon="-7.738744">
        <ele>679.363</ele>
        <time>2022-08-21T09:27:59Z</time>
      </trkpt>
      <trkpt lat="42.842594" lon="-7.738813">
        <ele>679.544</ele>
        <time>2022-08-21T09:28:03Z</time>
      </trkpt>
      <trkpt lat="42.842606" lon="-7.738872">
        <ele>679.618</ele>
        <time>2022-08-21T09:28:07Z</time>
      </trkpt>
      <trkpt lat="42.842611" lon="-7.738941">
        <ele>679.809</ele>
        <time>2022-08-21T09:28:10Z</time>
      </trkpt>
      <trkpt lat="42.842611" lon="-7.739006">
        <ele>680.157</ele>
        <time>2022-08-21T09:28:13Z</time>
      </trkpt>
      <trkpt lat="42.842614" lon="-7.739078">
        <ele>680.227</ele>
        <time>2022-08-21T09:28:17Z</time>
      </trkpt>
      <trkpt lat="42.842620" lon="-7.739153">
        <ele>680.387</ele>
        <time>2022-08-21T09:28:21Z</time>
      </trkpt>
      <trkpt lat="42.842625" lon="-7.739226">
        <ele>680.579</ele>
        <time>2022-08-21T09:28:25Z</time>
      </trkpt>
      <trkpt lat="42.842631" lon="-7.739297">
        <ele>680.811</ele>
        <time>2022-08-21T09:28:29Z</time>
      </trkpt>
      <trkpt lat="42.842643" lon="-7.739365">
        <ele>681.136</ele>
        <time>2022-08-21T09:28:33Z</time>
      </trkpt>
      <trkpt lat="42.842647" lon="-7.739436">
        <ele>681.476</ele>
        <time>2022-08-21T09:28:37Z</time>
      </trkpt>
      <trkpt lat="42.842653" lon="-7.739508">
        <ele>681.759</ele>
        <time>2022-08-21T09:28:41Z</time>
      </trkpt>
      <trkpt lat="42.842666" lon="-7.739575">
        <ele>682.161</ele>
        <time>2022-08-21T09:28:45Z</time>
      </trkpt>
      <trkpt lat="42.842670" lon="-7.739651">
        <ele>682.471</ele>
        <time>2022-08-21T09:28:50Z</time>
      </trkpt>
      <trkpt lat="42.842672" lon="-7.739717">
        <ele>682.741</ele>
        <time>2022-08-21T09:28:55Z</time>
      </trkpt>
      <trkpt lat="42.842675" lon="-7.739782">
        <ele>683.115</ele>
        <time>2022-08-21T09:28:59Z</time>
      </trkpt>
      <trkpt lat="42.842677" lon="-7.739858">
        <ele>683.409</ele>
        <time>2022-08-21T09:29:04Z</time>
      </trkpt>
      <trkpt lat="42.842681" lon="-7.739927">
        <ele>683.668</ele>
        <time>2022-08-21T09:29:08Z</time>
      </trkpt>
      <trkpt lat="42.842685" lon="-7.739997">
        <ele>683.918</ele>
        <time>2022-08-21T09:29:13Z</time>
      </trkpt>
      <trkpt lat="42.842689" lon="-7.740064">
        <ele>684.358</ele>
        <time>2022-08-21T09:29:17Z</time>
      </trkpt>
      <trkpt lat="42.842693" lon="-7.740129">
        <ele>684.830</ele>
        <time>2022-08-21T09:29:21Z</time>
      </trkpt>
      <trkpt lat="42.842691" lon="-7.740199">
        <ele>685.312</ele>
        <time>2022-08-21T09:29:25Z</time>
      </trkpt>
      <trkpt lat="42.842693" lon="-7.740265">
        <ele>685.777</ele>
        <time>2022-08-21T09:29:29Z</time>
      </trkpt>
      <trkpt lat="42.842697" lon="-7.740329">
        <ele>686.027</ele>
        <time>2022-08-21T09:29:33Z</time>
      </trkpt>
      <trkpt lat="42.842703" lon="-7.740397">
        <ele>686.360</ele>
        <time>2022-08-21T09:29:37Z</time>
      </trkpt>
      <trkpt lat="42.842707" lon="-7.740472">
        <ele>686.672</ele>
        <time>2022-08-21T09:29:41Z</time>
      </trkpt>
      <trkpt lat="42.842715" lon="-7.740533">
        <ele>686.917</ele>
        <time>2022-08-21T09:29:45Z</time>
      </trkpt>
      <trkpt lat="42.842719" lon="-7.740609">
        <ele>687.387</ele>
        <time>2022-08-21T09:29:49Z</time>
      </trkpt>
      <trkpt lat="42.842727" lon="-7.740678">
        <ele>687.615</ele>
        <time>2022-08-21T09:29:53Z</time>
      </trkpt>
      <trkpt lat="42.842737" lon="-7.740745">
        <ele>687.909</ele>
        <time>2022-08-21T09:29:57Z</time>
      </trkpt>
      <trkpt lat="42.842753" lon="-7.740808">
        <ele>688.352</ele>
        <time>2022-08-21T09:30:01Z</time>
      </trkpt>
      <trkpt lat="42.842767" lon="-7.740877">
        <ele>688.682</ele>
        <time>2022-08-21T09:30:05Z</time>
      </trkpt>
      <trkpt lat="42.842789" lon="-7.740949">
        <ele>688.942</ele>
        <time>2022-08-21T09:30:10Z</time>
      </trkpt>
      <trkpt lat="42.842808" lon="-7.741015">
        <ele>689.214</ele>
        <time>2022-08-21T09:30:13Z</time>
      </trkpt>
      <trkpt lat="42.842824" lon="-7.741081">
        <ele>689.536</ele>
        <time>2022-08-21T09:30:17Z</time>
      </trkpt>
      <trkpt lat="42.842844" lon="-7.741144">
        <ele>689.771</ele>
        <time>2022-08-21T09:30:21Z</time>
      </trkpt>
      <trkpt lat="42.842870" lon="-7.741213">
        <ele>689.931</ele>
        <time>2022-08-21T09:30:25Z</time>
      </trkpt>
      <trkpt lat="42.842898" lon="-7.741280">
        <ele>689.944</ele>
        <time>2022-08-21T09:30:29Z</time>
      </trkpt>
      <trkpt lat="42.842927" lon="-7.741346">
        <ele>689.936</ele>
        <time>2022-08-21T09:30:33Z</time>
      </trkpt>
      <trkpt lat="42.842956" lon="-7.741417">
        <ele>689.962</ele>
        <time>2022-08-21T09:30:37Z</time>
      </trkpt>
      <trkpt lat="42.842981" lon="-7.741481">
        <ele>689.983</ele>
        <time>2022-08-21T09:30:41Z</time>
      </trkpt>
      <trkpt lat="42.843013" lon="-7.741547">
        <ele>689.911</ele>
        <time>2022-08-21T09:30:45Z</time>
      </trkpt>
      <trkpt lat="42.843036" lon="-7.741604">
        <ele>689.909</ele>
        <time>2022-08-21T09:30:49Z</time>
      </trkpt>
      <trkpt lat="42.843061" lon="-7.741669">
        <ele>689.827</ele>
        <time>2022-08-21T09:30:53Z</time>
      </trkpt>
      <trkpt lat="42.843084" lon="-7.741745">
        <ele>689.747</ele>
        <time>2022-08-21T09:30:57Z</time>
      </trkpt>
      <trkpt lat="42.843110" lon="-7.741815">
        <ele>689.777</ele>
        <time>2022-08-21T09:31:02Z</time>
      </trkpt>
      <trkpt lat="42.843129" lon="-7.741886">
        <ele>689.769</ele>
        <time>2022-08-21T09:31:06Z</time>
      </trkpt>
      <trkpt lat="42.843145" lon="-7.741958">
        <ele>689.681</ele>
        <time>2022-08-21T09:31:10Z</time>
      </trkpt>
      <trkpt lat="42.843154" lon="-7.742028">
        <ele>689.656</ele>
        <time>2022-08-21T09:31:14Z</time>
      </trkpt>
      <trkpt lat="42.843163" lon="-7.742090">
        <ele>689.626</ele>
        <time>2022-08-21T09:31:17Z</time>
      </trkpt>
      <trkpt lat="42.843171" lon="-7.742151">
        <ele>689.629</ele>
        <time>2022-08-21T09:31:20Z</time>
      </trkpt>
      <trkpt lat="42.843182" lon="-7.742216">
        <ele>689.691</ele>
        <time>2022-08-21T09:31:23Z</time>
      </trkpt>
      <trkpt lat="42.843188" lon="-7.742280">
        <ele>689.656</ele>
        <time>2022-08-21T09:31:26Z</time>
      </trkpt>
      <trkpt lat="42.843195" lon="-7.742357">
        <ele>689.759</ele>
        <time>2022-08-21T09:31:30Z</time>
      </trkpt>
      <trkpt lat="42.843202" lon="-7.742436">
        <ele>689.714</ele>
        <time>2022-08-21T09:31:34Z</time>
      </trkpt>
      <trkpt lat="42.843210" lon="-7.742499">
        <ele>689.709</ele>
        <time>2022-08-21T09:31:37Z</time>
      </trkpt>
      <trkpt lat="42.843220" lon="-7.742579">
        <ele>689.816</ele>
        <time>2022-08-21T09:31:41Z</time>
      </trkpt>
      <trkpt lat="42.843216" lon="-7.742656">
        <ele>689.876</ele>
        <time>2022-08-21T09:31:45Z</time>
      </trkpt>
      <trkpt lat="42.843214" lon="-7.742725">
        <ele>689.876</ele>
        <time>2022-08-21T09:31:49Z</time>
      </trkpt>
      <trkpt lat="42.843218" lon="-7.742796">
        <ele>689.888</ele>
        <time>2022-08-21T09:31:53Z</time>
      </trkpt>
      <trkpt lat="42.843225" lon="-7.742863">
        <ele>689.880</ele>
        <time>2022-08-21T09:31:57Z</time>
      </trkpt>
      <trkpt lat="42.843231" lon="-7.742924">
        <ele>689.915</ele>
        <time>2022-08-21T09:32:00Z</time>
      </trkpt>
      <trkpt lat="42.843241" lon="-7.743004">
        <ele>690.045</ele>
        <time>2022-08-21T09:32:04Z</time>
      </trkpt>
      <trkpt lat="42.843250" lon="-7.743079">
        <ele>690.198</ele>
        <time>2022-08-21T09:32:08Z</time>
      </trkpt>
      <trkpt lat="42.843261" lon="-7.743154">
        <ele>690.230</ele>
        <time>2022-08-21T09:32:12Z</time>
      </trkpt>
      <trkpt lat="42.843273" lon="-7.743231">
        <ele>690.482</ele>
        <time>2022-08-21T09:32:16Z</time>
      </trkpt>
      <trkpt lat="42.843280" lon="-7.743309">
        <ele>690.543</ele>
        <time>2022-08-21T09:32:20Z</time>
      </trkpt>
      <trkpt lat="42.843284" lon="-7.743387">
        <ele>690.617</ele>
        <time>2022-08-21T09:32:24Z</time>
      </trkpt>
      <trkpt lat="42.843291" lon="-7.743464">
        <ele>690.709</ele>
        <time>2022-08-21T09:32:28Z</time>
      </trkpt>
      <trkpt lat="42.843296" lon="-7.743541">
        <ele>690.999</ele>
        <time>2022-08-21T09:32:32Z</time>
      </trkpt>
      <trkpt lat="42.843293" lon="-7.743614">
        <ele>691.069</ele>
        <time>2022-08-21T09:32:36Z</time>
      </trkpt>
      <trkpt lat="42.843298" lon="-7.743692">
        <ele>691.129</ele>
        <time>2022-08-21T09:32:40Z</time>
      </trkpt>
      <trkpt lat="42.843303" lon="-7.743759">
        <ele>691.161</ele>
        <time>2022-08-21T09:32:44Z</time>
      </trkpt>
      <trkpt lat="42.843307" lon="-7.743823">
        <ele>691.223</ele>
        <time>2022-08-21T09:32:48Z</time>
      </trkpt>
      <trkpt lat="42.843313" lon="-7.743887">
        <ele>691.318</ele>
        <time>2022-08-21T09:32:52Z</time>
      </trkpt>
      <trkpt lat="42.843319" lon="-7.743963">
        <ele>691.428</ele>
        <time>2022-08-21T09:32:56Z</time>
      </trkpt>
      <trkpt lat="42.843315" lon="-7.744038">
        <ele>691.591</ele>
        <time>2022-08-21T09:33:00Z</time>
      </trkpt>
      <trkpt lat="42.843318" lon="-7.744110">
        <ele>691.643</ele>
        <time>2022-08-21T09:33:04Z</time>
      </trkpt>
      <trkpt lat="42.843319" lon="-7.744179">
        <ele>691.618</ele>
        <time>2022-08-21T09:33:08Z</time>
      </trkpt>
      <trkpt lat="42.843322" lon="-7.744256">
        <ele>691.798</ele>
        <time>2022-08-21T09:33:12Z</time>
      </trkpt>
      <trkpt lat="42.843328" lon="-7.744327">
        <ele>691.717</ele>
        <time>2022-08-21T09:33:16Z</time>
      </trkpt>
      <trkpt lat="42.843334" lon="-7.744388">
        <ele>691.809</ele>
        <time>2022-08-21T09:33:19Z</time>
      </trkpt>
      <trkpt lat="42.843337" lon="-7.744451">
        <ele>691.952</ele>
        <time>2022-08-21T09:33:22Z</time>
      </trkpt>
      <trkpt lat="42.843341" lon="-7.744531">
        <ele>692.032</ele>
        <time>2022-08-21T09:33:26Z</time>
      </trkpt>
      <trkpt lat="42.843347" lon="-7.744608">
        <ele>692.012</ele>
        <time>2022-08-21T09:33:30Z</time>
      </trkpt>
      <trkpt lat="42.843352" lon="-7.744687">
        <ele>692.064</ele>
        <time>2022-08-21T09:33:34Z</time>
      </trkpt>
      <trkpt lat="42.843356" lon="-7.744748">
        <ele>692.146</ele>
        <time>2022-08-21T09:33:37Z</time>
      </trkpt>
      <trkpt lat="42.843367" lon="-7.744827">
        <ele>692.291</ele>
        <time>2022-08-21T09:33:41Z</time>
      </trkpt>
      <trkpt lat="42.843381" lon="-7.744893">
        <ele>692.321</ele>
        <time>2022-08-21T09:33:45Z</time>
      </trkpt>
      <trkpt lat="42.843382" lon="-7.744969">
        <ele>692.464</ele>
        <time>2022-08-21T09:33:50Z</time>
      </trkpt>
      <trkpt lat="42.843385" lon="-7.745039">
        <ele>692.596</ele>
        <time>2022-08-21T09:33:54Z</time>
      </trkpt>
      <trkpt lat="42.843391" lon="-7.745119">
        <ele>692.763</ele>
        <time>2022-08-21T09:33:58Z</time>
      </trkpt>
      <trkpt lat="42.843400" lon="-7.745196">
        <ele>692.844</ele>
        <time>2022-08-21T09:34:02Z</time>
      </trkpt>
      <trkpt lat="42.843414" lon="-7.745270">
        <ele>692.918</ele>
        <time>2022-08-21T09:34:06Z</time>
      </trkpt>
      <trkpt lat="42.843427" lon="-7.745347">
        <ele>693.009</ele>
        <time>2022-08-21T09:34:10Z</time>
      </trkpt>
      <trkpt lat="42.843444" lon="-7.745420">
        <ele>693.197</ele>
        <time>2022-08-21T09:34:14Z</time>
      </trkpt>
      <trkpt lat="42.843448" lon="-7.745493">
        <ele>693.137</ele>
        <time>2022-08-21T09:34:18Z</time>
      </trkpt>
      <trkpt lat="42.843460" lon="-7.745562">
        <ele>693.117</ele>
        <time>2022-08-21T09:34:22Z</time>
      </trkpt>
      <trkpt lat="42.843474" lon="-7.745632">
        <ele>693.199</ele>
        <time>2022-08-21T09:34:26Z</time>
      </trkpt>
      <trkpt lat="42.843477" lon="-7.745705">
        <ele>693.121</ele>
        <time>2022-08-21T09:34:30Z</time>
      </trkpt>
      <trkpt lat="42.843487" lon="-7.745774">
        <ele>693.056</ele>
        <time>2022-08-21T09:34:34Z</time>
      </trkpt>
      <trkpt lat="42.843498" lon="-7.745844">
        <ele>692.946</ele>
        <time>2022-08-21T09:34:38Z</time>
      </trkpt>
      <trkpt lat="42.843505" lon="-7.745912">
        <ele>692.799</ele>
        <time>2022-08-21T09:34:42Z</time>
      </trkpt>
      <trkpt lat="42.843523" lon="-7.745974">
        <ele>692.521</ele>
        <time>2022-08-21T09:34:46Z</time>
      </trkpt>
      <trkpt lat="42.843541" lon="-7.746044">
        <ele>692.449</ele>
        <time>2022-08-21T09:34:50Z</time>
      </trkpt>
      <trkpt lat="42.843560" lon="-7.746119">
        <ele>692.302</ele>
        <time>2022-08-21T09:34:54Z</time>
      </trkpt>
      <trkpt lat="42.843577" lon="-7.746195">
        <ele>692.222</ele>
        <time>2022-08-21T09:34:58Z</time>
      </trkpt>
      <trkpt lat="42.843595" lon="-7.746266">
        <ele>692.109</ele>
        <time>2022-08-21T09:35:02Z</time>
      </trkpt>
      <trkpt lat="42.843618" lon="-7.746337">
        <ele>692.175</ele>
        <time>2022-08-21T09:35:06Z</time>
      </trkpt>
      <trkpt lat="42.843642" lon="-7.746406">
        <ele>692.125</ele>
        <time>2022-08-21T09:35:10Z</time>
      </trkpt>
      <trkpt lat="42.843663" lon="-7.746476">
        <ele>692.195</ele>
        <time>2022-08-21T09:35:14Z</time>
      </trkpt>
      <trkpt lat="42.843686" lon="-7.746547">
        <ele>692.027</ele>
        <time>2022-08-21T09:35:18Z</time>
      </trkpt>
      <trkpt lat="42.843703" lon="-7.746604">
        <ele>692.059</ele>
        <time>2022-08-21T09:35:21Z</time>
      </trkpt>
      <trkpt lat="42.843729" lon="-7.746675">
        <ele>691.964</ele>
        <time>2022-08-21T09:35:25Z</time>
      </trkpt>
      <trkpt lat="42.843758" lon="-7.746745">
        <ele>691.864</ele>
        <time>2022-08-21T09:35:29Z</time>
      </trkpt>
      <trkpt lat="42.843784" lon="-7.746817">
        <ele>691.787</ele>
        <time>2022-08-21T09:35:33Z</time>
      </trkpt>
      <trkpt lat="42.843814" lon="-7.746885">
        <ele>691.629</ele>
        <time>2022-08-21T09:35:37Z</time>
      </trkpt>
      <trkpt lat="42.843839" lon="-7.746954">
        <ele>691.596</ele>
        <time>2022-08-21T09:35:41Z</time>
      </trkpt>
      <trkpt lat="42.843856" lon="-7.747027">
        <ele>691.531</ele>
        <time>2022-08-21T09:35:45Z</time>
      </trkpt>
      <trkpt lat="42.843879" lon="-7.747089">
        <ele>691.424</ele>
        <time>2022-08-21T09:35:49Z</time>
      </trkpt>
      <trkpt lat="42.843904" lon="-7.747159">
        <ele>691.409</ele>
        <time>2022-08-21T09:35:53Z</time>
      </trkpt>
      <trkpt lat="42.843930" lon="-7.747232">
        <ele>691.410</ele>
        <time>2022-08-21T09:35:57Z</time>
      </trkpt>
      <trkpt lat="42.843954" lon="-7.747304">
        <ele>691.410</ele>
        <time>2022-08-21T09:36:01Z</time>
      </trkpt>
      <trkpt lat="42.843982" lon="-7.747373">
        <ele>691.490</ele>
        <time>2022-08-21T09:36:05Z</time>
      </trkpt>
      <trkpt lat="42.844005" lon="-7.747442">
        <ele>691.442</ele>
        <time>2022-08-21T09:36:09Z</time>
      </trkpt>
      <trkpt lat="42.844043" lon="-7.747498">
        <ele>691.494</ele>
        <time>2022-08-21T09:36:13Z</time>
      </trkpt>
      <trkpt lat="42.844066" lon="-7.747565">
        <ele>691.419</ele>
        <time>2022-08-21T09:36:17Z</time>
      </trkpt>
      <trkpt lat="42.844095" lon="-7.747627">
        <ele>691.429</ele>
        <time>2022-08-21T09:36:21Z</time>
      </trkpt>
      <trkpt lat="42.844125" lon="-7.747685">
        <ele>691.442</ele>
        <time>2022-08-21T09:36:25Z</time>
      </trkpt>
      <trkpt lat="42.844153" lon="-7.747748">
        <ele>691.464</ele>
        <time>2022-08-21T09:36:29Z</time>
      </trkpt>
      <trkpt lat="42.844186" lon="-7.747808">
        <ele>691.471</ele>
        <time>2022-08-21T09:36:33Z</time>
      </trkpt>
      <trkpt lat="42.844214" lon="-7.747870">
        <ele>691.441</ele>
        <time>2022-08-21T09:36:37Z</time>
      </trkpt>
      <trkpt lat="42.844248" lon="-7.747926">
        <ele>691.315</ele>
        <time>2022-08-21T09:36:41Z</time>
      </trkpt>
      <trkpt lat="42.844278" lon="-7.747988">
        <ele>691.109</ele>
        <time>2022-08-21T09:36:45Z</time>
      </trkpt>
      <trkpt lat="42.844301" lon="-7.748048">
        <ele>691.118</ele>
        <time>2022-08-21T09:36:49Z</time>
      </trkpt>
      <trkpt lat="42.844312" lon="-7.748125">
        <ele>691.128</ele>
        <time>2022-08-21T09:36:54Z</time>
      </trkpt>
      <trkpt lat="42.844319" lon="-7.748193">
        <ele>691.188</ele>
        <time>2022-08-21T09:36:59Z</time>
      </trkpt>
      <trkpt lat="42.844313" lon="-7.748260">
        <ele>691.120</ele>
        <time>2022-08-21T09:37:03Z</time>
      </trkpt>
      <trkpt lat="42.844286" lon="-7.748316">
        <ele>691.052</ele>
        <time>2022-08-21T09:37:07Z</time>
      </trkpt>
      <trkpt lat="42.844248" lon="-7.748356">
        <ele>690.987</ele>
        <time>2022-08-21T09:37:11Z</time>
      </trkpt>
      <trkpt lat="42.844215" lon="-7.748403">
        <ele>690.967</ele>
        <time>2022-08-21T09:37:15Z</time>
      </trkpt>
      <trkpt lat="42.844212" lon="-7.748473">
        <ele>690.950</ele>
        <time>2022-08-21T09:37:19Z</time>
      </trkpt>
      <trkpt lat="42.844213" lon="-7.748551">
        <ele>690.942</ele>
        <time>2022-08-21T09:37:23Z</time>
      </trkpt>
      <trkpt lat="42.844220" lon="-7.748631">
        <ele>690.973</ele>
        <time>2022-08-21T09:37:27Z</time>
      </trkpt>
      <trkpt lat="42.844231" lon="-7.748691">
        <ele>690.985</ele>
        <time>2022-08-21T09:37:30Z</time>
      </trkpt>
      <trkpt lat="42.844247" lon="-7.748763">
        <ele>690.913</ele>
        <time>2022-08-21T09:37:34Z</time>
      </trkpt>
      <trkpt lat="42.844254" lon="-7.748838">
        <ele>690.909</ele>
        <time>2022-08-21T09:37:39Z</time>
      </trkpt>
      <trkpt lat="42.844270" lon="-7.748902">
        <ele>690.978</ele>
        <time>2022-08-21T09:37:43Z</time>
      </trkpt>
      <trkpt lat="42.844293" lon="-7.748972">
        <ele>690.988</ele>
        <time>2022-08-21T09:37:47Z</time>
      </trkpt>
      <trkpt lat="42.844310" lon="-7.749038">
        <ele>690.998</ele>
        <time>2022-08-21T09:37:51Z</time>
      </trkpt>
      <trkpt lat="42.844325" lon="-7.749110">
        <ele>690.910</ele>
        <time>2022-08-21T09:37:55Z</time>
      </trkpt>
      <trkpt lat="42.844346" lon="-7.749182">
        <ele>690.932</ele>
        <time>2022-08-21T09:37:59Z</time>
      </trkpt>
      <trkpt lat="42.844368" lon="-7.749255">
        <ele>690.997</ele>
        <time>2022-08-21T09:38:03Z</time>
      </trkpt>
      <trkpt lat="42.844389" lon="-7.749330">
        <ele>690.917</ele>
        <time>2022-08-21T09:38:07Z</time>
      </trkpt>
      <trkpt lat="42.844415" lon="-7.749401">
        <ele>691.030</ele>
        <time>2022-08-21T09:38:11Z</time>
      </trkpt>
      <trkpt lat="42.844442" lon="-7.749468">
        <ele>691.032</ele>
        <time>2022-08-21T09:38:15Z</time>
      </trkpt>
      <trkpt lat="42.844463" lon="-7.749540">
        <ele>691.135</ele>
        <time>2022-08-21T09:38:19Z</time>
      </trkpt>
      <trkpt lat="42.844481" lon="-7.749606">
        <ele>691.286</ele>
        <time>2022-08-21T09:38:23Z</time>
      </trkpt>
      <trkpt lat="42.844510" lon="-7.749669">
        <ele>691.314</ele>
        <time>2022-08-21T09:38:27Z</time>
      </trkpt>
      <trkpt lat="42.844543" lon="-7.749721">
        <ele>691.409</ele>
        <time>2022-08-21T09:38:31Z</time>
      </trkpt>
      <trkpt lat="42.844561" lon="-7.749789">
        <ele>691.524</ele>
        <time>2022-08-21T09:38:35Z</time>
      </trkpt>
      <trkpt lat="42.844592" lon="-7.749843">
        <ele>691.784</ele>
        <time>2022-08-21T09:38:39Z</time>
      </trkpt>
      <trkpt lat="42.844616" lon="-7.749908">
        <ele>691.974</ele>
        <time>2022-08-21T09:38:44Z</time>
      </trkpt>
      <trkpt lat="42.844629" lon="-7.749967">
        <ele>692.136</ele>
        <time>2022-08-21T09:38:58Z</time>
      </trkpt>
      <trkpt lat="42.844641" lon="-7.750028">
        <ele>692.388</ele>
        <time>2022-08-21T09:39:04Z</time>
      </trkpt>
      <trkpt lat="42.844667" lon="-7.750090">
        <ele>692.573</ele>
        <time>2022-08-21T09:39:09Z</time>
      </trkpt>
      <trkpt lat="42.844688" lon="-7.750161">
        <ele>692.743</ele>
        <time>2022-08-21T09:39:13Z</time>
      </trkpt>
      <trkpt lat="42.844703" lon="-7.750223">
        <ele>692.976</ele>
        <time>2022-08-21T09:39:17Z</time>
      </trkpt>
      <trkpt lat="42.844724" lon="-7.750295">
        <ele>693.248</ele>
        <time>2022-08-21T09:39:21Z</time>
      </trkpt>
      <trkpt lat="42.844741" lon="-7.750367">
        <ele>693.515</ele>
        <time>2022-08-21T09:39:26Z</time>
      </trkpt>
      <trkpt lat="42.844759" lon="-7.750430">
        <ele>693.765</ele>
        <time>2022-08-21T09:39:30Z</time>
      </trkpt>
      <trkpt lat="42.844781" lon="-7.750497">
        <ele>693.911</ele>
        <time>2022-08-21T09:39:34Z</time>
      </trkpt>
      <trkpt lat="42.844801" lon="-7.750568">
        <ele>694.209</ele>
        <time>2022-08-21T09:39:38Z</time>
      </trkpt>
      <trkpt lat="42.844820" lon="-7.750637">
        <ele>694.332</ele>
        <time>2022-08-21T09:39:42Z</time>
      </trkpt>
      <trkpt lat="42.844838" lon="-7.750708">
        <ele>694.692</ele>
        <time>2022-08-21T09:39:46Z</time>
      </trkpt>
      <trkpt lat="42.844861" lon="-7.750777">
        <ele>695.172</ele>
        <time>2022-08-21T09:39:50Z</time>
      </trkpt>
      <trkpt lat="42.844883" lon="-7.750842">
        <ele>695.394</ele>
        <time>2022-08-21T09:39:54Z</time>
      </trkpt>
      <trkpt lat="42.844903" lon="-7.750907">
        <ele>695.566</ele>
        <time>2022-08-21T09:39:58Z</time>
      </trkpt>
      <trkpt lat="42.844923" lon="-7.750974">
        <ele>695.881</ele>
        <time>2022-08-21T09:40:02Z</time>
      </trkpt>
      <trkpt lat="42.844944" lon="-7.751038">
        <ele>696.191</ele>
        <time>2022-08-21T09:40:06Z</time>
      </trkpt>
      <trkpt lat="42.844964" lon="-7.751100">
        <ele>696.444</ele>
        <time>2022-08-21T09:40:10Z</time>
      </trkpt>
      <trkpt lat="42.844978" lon="-7.751163">
        <ele>696.846</ele>
        <time>2022-08-21T09:40:14Z</time>
      </trkpt>
      <trkpt lat="42.844991" lon="-7.751223">
        <ele>697.354</ele>
        <time>2022-08-21T09:40:18Z</time>
      </trkpt>
      <trkpt lat="42.845005" lon="-7.751285">
        <ele>697.756</ele>
        <time>2022-08-21T09:40:22Z</time>
      </trkpt>
      <trkpt lat="42.845018" lon="-7.751344">
        <ele>698.011</ele>
        <time>2022-08-21T09:40:26Z</time>
      </trkpt>
      <trkpt lat="42.845035" lon="-7.751421">
        <ele>698.309</ele>
        <time>2022-08-21T09:40:31Z</time>
      </trkpt>
      <trkpt lat="42.845051" lon="-7.751490">
        <ele>698.676</ele>
        <time>2022-08-21T09:40:35Z</time>
      </trkpt>
      <trkpt lat="42.845060" lon="-7.751559">
        <ele>698.986</ele>
        <time>2022-08-21T09:40:39Z</time>
      </trkpt>
      <trkpt lat="42.845074" lon="-7.751629">
        <ele>699.396</ele>
        <time>2022-08-21T09:40:43Z</time>
      </trkpt>
      <trkpt lat="42.845094" lon="-7.751693">
        <ele>699.768</ele>
        <time>2022-08-21T09:40:47Z</time>
      </trkpt>
      <trkpt lat="42.845113" lon="-7.751769">
        <ele>700.050</ele>
        <time>2022-08-21T09:40:52Z</time>
      </trkpt>
      <trkpt lat="42.845133" lon="-7.751833">
        <ele>700.455</ele>
        <time>2022-08-21T09:40:56Z</time>
      </trkpt>
      <trkpt lat="42.845148" lon="-7.751896">
        <ele>700.885</ele>
        <time>2022-08-21T09:41:00Z</time>
      </trkpt>
      <trkpt lat="42.845171" lon="-7.751958">
        <ele>701.288</ele>
        <time>2022-08-21T09:41:04Z</time>
      </trkpt>
      <trkpt lat="42.845198" lon="-7.752018">
        <ele>701.510</ele>
        <time>2022-08-21T09:41:08Z</time>
      </trkpt>
      <trkpt lat="42.845217" lon="-7.752084">
        <ele>701.982</ele>
        <time>2022-08-21T09:41:12Z</time>
      </trkpt>
      <trkpt lat="42.845245" lon="-7.752140">
        <ele>702.443</ele>
        <time>2022-08-21T09:41:16Z</time>
      </trkpt>
      <trkpt lat="42.845263" lon="-7.752205">
        <ele>702.917</ele>
        <time>2022-08-21T09:41:20Z</time>
      </trkpt>
      <trkpt lat="42.845286" lon="-7.752272">
        <ele>703.309</ele>
        <time>2022-08-21T09:41:24Z</time>
      </trkpt>
      <trkpt lat="42.845300" lon="-7.752337">
        <ele>703.749</ele>
        <time>2022-08-21T09:41:28Z</time>
      </trkpt>
      <trkpt lat="42.845316" lon="-7.752405">
        <ele>704.139</ele>
        <time>2022-08-21T09:41:32Z</time>
      </trkpt>
      <trkpt lat="42.845342" lon="-7.752472">
        <ele>704.669</ele>
        <time>2022-08-21T09:41:36Z</time>
      </trkpt>
      <trkpt lat="42.845358" lon="-7.752544">
        <ele>705.171</ele>
        <time>2022-08-21T09:41:40Z</time>
      </trkpt>
      <trkpt lat="42.845373" lon="-7.752611">
        <ele>705.653</ele>
        <time>2022-08-21T09:41:44Z</time>
      </trkpt>
      <trkpt lat="42.845392" lon="-7.752682">
        <ele>706.298</ele>
        <time>2022-08-21T09:41:48Z</time>
      </trkpt>
      <trkpt lat="42.845402" lon="-7.752752">
        <ele>706.518</ele>
        <time>2022-08-21T09:41:52Z</time>
      </trkpt>
      <trkpt lat="42.845416" lon="-7.752825">
        <ele>706.721</ele>
        <time>2022-08-21T09:41:56Z</time>
      </trkpt>
      <trkpt lat="42.845425" lon="-7.752897">
        <ele>707.013</ele>
        <time>2022-08-21T09:42:00Z</time>
      </trkpt>
      <trkpt lat="42.845432" lon="-7.752964">
        <ele>707.388</ele>
        <time>2022-08-21T09:42:04Z</time>
      </trkpt>
      <trkpt lat="42.845427" lon="-7.753026">
        <ele>707.624</ele>
        <time>2022-08-21T09:42:08Z</time>
      </trkpt>
      <trkpt lat="42.845429" lon="-7.753096">
        <ele>707.926</ele>
        <time>2022-08-21T09:42:12Z</time>
      </trkpt>
      <trkpt lat="42.845428" lon="-7.753161">
        <ele>708.309</ele>
        <time>2022-08-21T09:42:16Z</time>
      </trkpt>
      <trkpt lat="42.845419" lon="-7.753238">
        <ele>708.889</ele>
        <time>2022-08-21T09:42:21Z</time>
      </trkpt>
      <trkpt lat="42.845412" lon="-7.753311">
        <ele>709.339</ele>
        <time>2022-08-21T09:42:25Z</time>
      </trkpt>
      <trkpt lat="42.845413" lon="-7.753384">
        <ele>709.649</ele>
        <time>2022-08-21T09:42:29Z</time>
      </trkpt>
      <trkpt lat="42.845409" lon="-7.753457">
        <ele>709.931</ele>
        <time>2022-08-21T09:42:33Z</time>
      </trkpt>
      <trkpt lat="42.845414" lon="-7.753524">
        <ele>710.283</ele>
        <time>2022-08-21T09:42:37Z</time>
      </trkpt>
      <trkpt lat="42.845415" lon="-7.753595">
        <ele>710.538</ele>
        <time>2022-08-21T09:42:41Z</time>
      </trkpt>
      <trkpt lat="42.845419" lon="-7.753671">
        <ele>710.798</ele>
        <time>2022-08-21T09:42:46Z</time>
      </trkpt>
      <trkpt lat="42.845419" lon="-7.753735">
        <ele>710.921</ele>
        <time>2022-08-21T09:42:50Z</time>
      </trkpt>
      <trkpt lat="42.845417" lon="-7.753801">
        <ele>711.113</ele>
        <time>2022-08-21T09:42:54Z</time>
      </trkpt>
      <trkpt lat="42.845423" lon="-7.753870">
        <ele>711.348</ele>
        <time>2022-08-21T09:42:58Z</time>
      </trkpt>
      <trkpt lat="42.845431" lon="-7.753942">
        <ele>711.461</ele>
        <time>2022-08-21T09:43:02Z</time>
      </trkpt>
      <trkpt lat="42.845439" lon="-7.754017">
        <ele>711.517</ele>
        <time>2022-08-21T09:43:06Z</time>
      </trkpt>
      <trkpt lat="42.845449" lon="-7.754091">
        <ele>711.609</ele>
        <time>2022-08-21T09:43:10Z</time>
      </trkpt>
      <trkpt lat="42.845457" lon="-7.754166">
        <ele>711.645</ele>
        <time>2022-08-21T09:43:14Z</time>
      </trkpt>
      <trkpt lat="42.845467" lon="-7.754226">
        <ele>711.665</ele>
        <time>2022-08-21T09:43:17Z</time>
      </trkpt>
      <trkpt lat="42.845481" lon="-7.754303">
        <ele>711.685</ele>
        <time>2022-08-21T09:43:21Z</time>
      </trkpt>
      <trkpt lat="42.845492" lon="-7.754374">
        <ele>711.667</ele>
        <time>2022-08-21T09:43:25Z</time>
      </trkpt>
      <trkpt lat="42.845507" lon="-7.754435">
        <ele>711.659</ele>
        <time>2022-08-21T09:43:29Z</time>
      </trkpt>
      <trkpt lat="42.845523" lon="-7.754502">
        <ele>711.564</ele>
        <time>2022-08-21T09:43:33Z</time>
      </trkpt>
      <trkpt lat="42.845531" lon="-7.754575">
        <ele>711.374</ele>
        <time>2022-08-21T09:43:37Z</time>
      </trkpt>
      <trkpt lat="42.845548" lon="-7.754643">
        <ele>711.237</ele>
        <time>2022-08-21T09:43:41Z</time>
      </trkpt>
      <trkpt lat="42.845566" lon="-7.754717">
        <ele>711.199</ele>
        <time>2022-08-21T09:43:45Z</time>
      </trkpt>
      <trkpt lat="42.845577" lon="-7.754792">
        <ele>710.999</ele>
        <time>2022-08-21T09:43:49Z</time>
      </trkpt>
      <trkpt lat="42.845592" lon="-7.754864">
        <ele>710.807</ele>
        <time>2022-08-21T09:43:53Z</time>
      </trkpt>
      <trkpt lat="42.845604" lon="-7.754938">
        <ele>710.627</ele>
        <time>2022-08-21T09:43:57Z</time>
      </trkpt>
      <trkpt lat="42.845625" lon="-7.755004">
        <ele>710.409</ele>
        <time>2022-08-21T09:44:01Z</time>
      </trkpt>
      <trkpt lat="42.845636" lon="-7.755064">
        <ele>710.360</ele>
        <time>2022-08-21T09:44:04Z</time>
      </trkpt>
      <trkpt lat="42.845658" lon="-7.755130">
        <ele>710.220</ele>
        <time>2022-08-21T09:44:08Z</time>
      </trkpt>
      <trkpt lat="42.845667" lon="-7.755207">
        <ele>710.150</ele>
        <time>2022-08-21T09:44:12Z</time>
      </trkpt>
      <trkpt lat="42.845682" lon="-7.755283">
        <ele>710.082</ele>
        <time>2022-08-21T09:44:16Z</time>
      </trkpt>
      <trkpt lat="42.845700" lon="-7.755354">
        <ele>709.914</ele>
        <time>2022-08-21T09:44:20Z</time>
      </trkpt>
      <trkpt lat="42.845714" lon="-7.755425">
        <ele>709.889</ele>
        <time>2022-08-21T09:44:24Z</time>
      </trkpt>
      <trkpt lat="42.845732" lon="-7.755493">
        <ele>709.799</ele>
        <time>2022-08-21T09:44:28Z</time>
      </trkpt>
      <trkpt lat="42.845751" lon="-7.755563">
        <ele>709.672</ele>
        <time>2022-08-21T09:44:32Z</time>
      </trkpt>
      <trkpt lat="42.845768" lon="-7.755630">
        <ele>709.584</ele>
        <time>2022-08-21T09:44:36Z</time>
      </trkpt>
      <trkpt lat="42.845788" lon="-7.755699">
        <ele>709.436</ele>
        <time>2022-08-21T09:44:40Z</time>
      </trkpt>
      <trkpt lat="42.845811" lon="-7.755766">
        <ele>709.317</ele>
        <time>2022-08-21T09:44:44Z</time>
      </trkpt>
      <trkpt lat="42.845837" lon="-7.755822">
        <ele>709.218</ele>
        <time>2022-08-21T09:44:48Z</time>
      </trkpt>
      <trkpt lat="42.845862" lon="-7.755879">
        <ele>709.009</ele>
        <time>2022-08-21T09:44:52Z</time>
      </trkpt>
      <trkpt lat="42.845897" lon="-7.755930">
        <ele>708.894</ele>
        <time>2022-08-21T09:44:57Z</time>
      </trkpt>
      <trkpt lat="42.845934" lon="-7.755972">
        <ele>708.534</ele>
        <time>2022-08-21T09:45:01Z</time>
      </trkpt>
      <trkpt lat="42.845958" lon="-7.756025">
        <ele>708.214</ele>
        <time>2022-08-21T09:45:05Z</time>
      </trkpt>
      <trkpt lat="42.845994" lon="-7.756077">
        <ele>707.926</ele>
        <time>2022-08-21T09:45:09Z</time>
      </trkpt>
      <trkpt lat="42.846029" lon="-7.756125">
        <ele>707.748</ele>
        <time>2022-08-21T09:45:13Z</time>
      </trkpt>
      <trkpt lat="42.846067" lon="-7.756180">
        <ele>707.513</ele>
        <time>2022-08-21T09:45:17Z</time>
      </trkpt>
      <trkpt lat="42.846106" lon="-7.756225">
        <ele>707.313</ele>
        <time>2022-08-21T09:45:21Z</time>
      </trkpt>
      <trkpt lat="42.846143" lon="-7.756279">
        <ele>707.086</ele>
        <time>2022-08-21T09:45:25Z</time>
      </trkpt>
      <trkpt lat="42.846178" lon="-7.756318">
        <ele>706.738</ele>
        <time>2022-08-21T09:45:28Z</time>
      </trkpt>
      <trkpt lat="42.846217" lon="-7.756374">
        <ele>706.536</ele>
        <time>2022-08-21T09:45:32Z</time>
      </trkpt>
      <trkpt lat="42.846258" lon="-7.756426">
        <ele>706.317</ele>
        <time>2022-08-21T09:45:36Z</time>
      </trkpt>
      <trkpt lat="42.846294" lon="-7.756483">
        <ele>706.218</ele>
        <time>2022-08-21T09:45:40Z</time>
      </trkpt>
      <trkpt lat="42.846336" lon="-7.756536">
        <ele>706.109</ele>
        <time>2022-08-21T09:45:44Z</time>
      </trkpt>
      <trkpt lat="42.846377" lon="-7.756588">
        <ele>706.034</ele>
        <time>2022-08-21T09:45:48Z</time>
      </trkpt>
      <trkpt lat="42.846417" lon="-7.756642">
        <ele>705.974</ele>
        <time>2022-08-21T09:45:52Z</time>
      </trkpt>
      <trkpt lat="42.846461" lon="-7.756684">
        <ele>705.944</ele>
        <time>2022-08-21T09:45:56Z</time>
      </trkpt>
      <trkpt lat="42.846500" lon="-7.756741">
        <ele>705.846</ele>
        <time>2022-08-21T09:46:00Z</time>
      </trkpt>
      <trkpt lat="42.846537" lon="-7.756780">
        <ele>705.758</ele>
        <time>2022-08-21T09:46:04Z</time>
      </trkpt>
      <trkpt lat="42.846577" lon="-7.756830">
        <ele>705.683</ele>
        <time>2022-08-21T09:46:08Z</time>
      </trkpt>
      <trkpt lat="42.846619" lon="-7.756875">
        <ele>705.523</ele>
        <time>2022-08-21T09:46:12Z</time>
      </trkpt>
      <trkpt lat="42.846663" lon="-7.756918">
        <ele>705.416</ele>
        <time>2022-08-21T09:46:16Z</time>
      </trkpt>
      <trkpt lat="42.846705" lon="-7.756962">
        <ele>705.388</ele>
        <time>2022-08-21T09:46:20Z</time>
      </trkpt>
      <trkpt lat="42.846747" lon="-7.757006">
        <ele>705.291</ele>
        <time>2022-08-21T09:46:24Z</time>
      </trkpt>
      <trkpt lat="42.846791" lon="-7.757046">
        <ele>705.281</ele>
        <time>2022-08-21T09:46:28Z</time>
      </trkpt>
      <trkpt lat="42.846834" lon="-7.757088">
        <ele>705.219</ele>
        <time>2022-08-21T09:46:32Z</time>
      </trkpt>
      <trkpt lat="42.846879" lon="-7.757131">
        <ele>705.209</ele>
        <time>2022-08-21T09:46:36Z</time>
      </trkpt>
      <trkpt lat="42.846922" lon="-7.757172">
        <ele>705.290</ele>
        <time>2022-08-21T09:46:40Z</time>
      </trkpt>
      <trkpt lat="42.846966" lon="-7.757214">
        <ele>705.230</ele>
        <time>2022-08-21T09:46:44Z</time>
      </trkpt>
      <trkpt lat="42.847013" lon="-7.757252">
        <ele>705.250</ele>
        <time>2022-08-21T09:46:48Z</time>
      </trkpt>
      <trkpt lat="42.847057" lon="-7.757295">
        <ele>705.232</ele>
        <time>2022-08-21T09:46:52Z</time>
      </trkpt>
      <trkpt lat="42.847104" lon="-7.757325">
        <ele>705.214</ele>
        <time>2022-08-21T09:46:56Z</time>
      </trkpt>
      <trkpt lat="42.847151" lon="-7.757362">
        <ele>705.229</ele>
        <time>2022-08-21T09:47:00Z</time>
      </trkpt>
      <trkpt lat="42.847196" lon="-7.757399">
        <ele>705.279</ele>
        <time>2022-08-21T09:47:04Z</time>
      </trkpt>
      <trkpt lat="42.847241" lon="-7.757438">
        <ele>705.252</ele>
        <time>2022-08-21T09:47:08Z</time>
      </trkpt>
      <trkpt lat="42.847290" lon="-7.757468">
        <ele>705.334</ele>
        <time>2022-08-21T09:47:12Z</time>
      </trkpt>
      <trkpt lat="42.847333" lon="-7.757504">
        <ele>705.469</ele>
        <time>2022-08-21T09:47:16Z</time>
      </trkpt>
      <trkpt lat="42.847380" lon="-7.757541">
        <ele>705.404</ele>
        <time>2022-08-21T09:47:20Z</time>
      </trkpt>
      <trkpt lat="42.847426" lon="-7.757574">
        <ele>705.424</ele>
        <time>2022-08-21T09:47:24Z</time>
      </trkpt>
      <trkpt lat="42.847467" lon="-7.757610">
        <ele>705.409</ele>
        <time>2022-08-21T09:47:28Z</time>
      </trkpt>
      <trkpt lat="42.847511" lon="-7.757643">
        <ele>705.437</ele>
        <time>2022-08-21T09:47:32Z</time>
      </trkpt>
      <trkpt lat="42.847555" lon="-7.757678">
        <ele>705.437</ele>
        <time>2022-08-21T09:47:36Z</time>
      </trkpt>
      <trkpt lat="42.847602" lon="-7.757718">
        <ele>705.417</ele>
        <time>2022-08-21T09:47:40Z</time>
      </trkpt>
      <trkpt lat="42.847645" lon="-7.757758">
        <ele>705.459</ele>
        <time>2022-08-21T09:47:44Z</time>
      </trkpt>
      <trkpt lat="42.847690" lon="-7.757796">
        <ele>705.441</ele>
        <time>2022-08-21T09:47:48Z</time>
      </trkpt>
      <trkpt lat="42.847735" lon="-7.757835">
        <ele>705.576</ele>
        <time>2022-08-21T09:47:52Z</time>
      </trkpt>
      <trkpt lat="42.847779" lon="-7.757880">
        <ele>705.666</ele>
        <time>2022-08-21T09:47:56Z</time>
      </trkpt>
      <trkpt lat="42.847816" lon="-7.757920">
        <ele>705.879</ele>
        <time>2022-08-21T09:48:00Z</time>
      </trkpt>
      <trkpt lat="42.847856" lon="-7.757961">
        <ele>706.011</ele>
        <time>2022-08-21T09:48:04Z</time>
      </trkpt>
      <trkpt lat="42.847892" lon="-7.758010">
        <ele>706.256</ele>
        <time>2022-08-21T09:48:08Z</time>
      </trkpt>
      <trkpt lat="42.847936" lon="-7.758053">
        <ele>706.459</ele>
        <time>2022-08-21T09:48:12Z</time>
      </trkpt>
      <trkpt lat="42.847977" lon="-7.758100">
        <ele>706.614</ele>
        <time>2022-08-21T09:48:16Z</time>
      </trkpt>
      <trkpt lat="42.848017" lon="-7.758143">
        <ele>706.809</ele>
        <time>2022-08-21T09:48:20Z</time>
      </trkpt>
      <trkpt lat="42.848058" lon="-7.758193">
        <ele>707.026</ele>
        <time>2022-08-21T09:48:24Z</time>
      </trkpt>
      <trkpt lat="42.848097" lon="-7.758243">
        <ele>707.236</ele>
        <time>2022-08-21T09:48:28Z</time>
      </trkpt>
      <trkpt lat="42.848136" lon="-7.758294">
        <ele>707.516</ele>
        <time>2022-08-21T09:48:32Z</time>
      </trkpt>
      <trkpt lat="42.848174" lon="-7.758343">
        <ele>707.888</ele>
        <time>2022-08-21T09:48:36Z</time>
      </trkpt>
      <trkpt lat="42.848213" lon="-7.758392">
        <ele>708.060</ele>
        <time>2022-08-21T09:48:40Z</time>
      </trkpt>
      <trkpt lat="42.848250" lon="-7.758446">
        <ele>708.265</ele>
        <time>2022-08-21T09:48:44Z</time>
      </trkpt>
      <trkpt lat="42.848287" lon="-7.758500">
        <ele>708.325</ele>
        <time>2022-08-21T09:48:48Z</time>
      </trkpt>
      <trkpt lat="42.848321" lon="-7.758560">
        <ele>708.418</ele>
        <time>2022-08-21T09:48:52Z</time>
      </trkpt>
      <trkpt lat="42.848359" lon="-7.758617">
        <ele>708.630</ele>
        <time>2022-08-21T09:48:56Z</time>
      </trkpt>
      <trkpt lat="42.848394" lon="-7.758669">
        <ele>708.851</ele>
        <time>2022-08-21T09:49:00Z</time>
      </trkpt>
      <trkpt lat="42.848431" lon="-7.758720">
        <ele>708.901</ele>
        <time>2022-08-21T09:49:04Z</time>
      </trkpt>
      <trkpt lat="42.848470" lon="-7.758768">
        <ele>708.911</ele>
        <time>2022-08-21T09:49:08Z</time>
      </trkpt>
      <trkpt lat="42.848505" lon="-7.758820">
        <ele>709.009</ele>
        <time>2022-08-21T09:49:12Z</time>
      </trkpt>
      <trkpt lat="42.848541" lon="-7.758871">
        <ele>709.156</ele>
        <time>2022-08-21T09:49:16Z</time>
      </trkpt>
      <trkpt lat="42.848578" lon="-7.758920">
        <ele>709.276</ele>
        <time>2022-08-21T09:49:20Z</time>
      </trkpt>
      <trkpt lat="42.848617" lon="-7.758971">
        <ele>709.276</ele>
        <time>2022-08-21T09:49:24Z</time>
      </trkpt>
      <trkpt lat="42.848655" lon="-7.759018">
        <ele>709.218</ele>
        <time>2022-08-21T09:49:28Z</time>
      </trkpt>
      <trkpt lat="42.848693" lon="-7.759067">
        <ele>709.290</ele>
        <time>2022-08-21T09:49:32Z</time>
      </trkpt>
      <trkpt lat="42.848726" lon="-7.759119">
        <ele>709.285</ele>
        <time>2022-08-21T09:49:36Z</time>
      </trkpt>
      <trkpt lat="42.848765" lon="-7.759163">
        <ele>709.145</ele>
        <time>2022-08-21T09:49:40Z</time>
      </trkpt>
      <trkpt lat="42.848802" lon="-7.759201">
        <ele>709.038</ele>
        <time>2022-08-21T09:49:44Z</time>
      </trkpt>
      <trkpt lat="42.848844" lon="-7.759258">
        <ele>708.830</ele>
        <time>2022-08-21T09:49:49Z</time>
      </trkpt>
      <trkpt lat="42.848889" lon="-7.759307">
        <ele>708.549</ele>
        <time>2022-08-21T09:49:54Z</time>
      </trkpt>
      <trkpt lat="42.848926" lon="-7.759363">
        <ele>708.302</ele>
        <time>2022-08-21T09:49:59Z</time>
      </trkpt>
      <trkpt lat="42.848962" lon="-7.759408">
        <ele>708.122</ele>
        <time>2022-08-21T09:50:03Z</time>
      </trkpt>
      <trkpt lat="42.849003" lon="-7.759455">
        <ele>707.909</ele>
        <time>2022-08-21T09:50:07Z</time>
      </trkpt>
      <trkpt lat="42.849042" lon="-7.759493">
        <ele>707.825</ele>
        <time>2022-08-21T09:50:11Z</time>
      </trkpt>
      <trkpt lat="42.849078" lon="-7.759544">
        <ele>707.625</ele>
        <time>2022-08-21T09:50:15Z</time>
      </trkpt>
      <trkpt lat="42.849116" lon="-7.759585">
        <ele>707.555</ele>
        <time>2022-08-21T09:50:19Z</time>
      </trkpt>
      <trkpt lat="42.849149" lon="-7.759636">
        <ele>707.467</ele>
        <time>2022-08-21T09:50:23Z</time>
      </trkpt>
      <trkpt lat="42.849177" lon="-7.759687">
        <ele>707.299</ele>
        <time>2022-08-21T09:50:27Z</time>
      </trkpt>
      <trkpt lat="42.849209" lon="-7.759730">
        <ele>707.044</ele>
        <time>2022-08-21T09:50:30Z</time>
      </trkpt>
      <trkpt lat="42.849245" lon="-7.759776">
        <ele>706.854</ele>
        <time>2022-08-21T09:50:33Z</time>
      </trkpt>
      <trkpt lat="42.849280" lon="-7.759821">
        <ele>706.727</ele>
        <time>2022-08-21T09:50:37Z</time>
      </trkpt>
      <trkpt lat="42.849317" lon="-7.759877">
        <ele>706.729</ele>
        <time>2022-08-21T09:50:41Z</time>
      </trkpt>
      <trkpt lat="42.849359" lon="-7.759931">
        <ele>706.688</ele>
        <time>2022-08-21T09:50:45Z</time>
      </trkpt>
      <trkpt lat="42.849400" lon="-7.759981">
        <ele>706.524</ele>
        <time>2022-08-21T09:50:49Z</time>
      </trkpt>
      <trkpt lat="42.849436" lon="-7.760037">
        <ele>706.326</ele>
        <time>2022-08-21T09:50:53Z</time>
      </trkpt>
      <trkpt lat="42.849469" lon="-7.760094">
        <ele>706.209</ele>
        <time>2022-08-21T09:50:57Z</time>
      </trkpt>
      <trkpt lat="42.849504" lon="-7.760135">
        <ele>706.249</ele>
        <time>2022-08-21T09:51:00Z</time>
      </trkpt>
      <trkpt lat="42.849539" lon="-7.760193">
        <ele>706.179</ele>
        <time>2022-08-21T09:51:04Z</time>
      </trkpt>
      <trkpt lat="42.849574" lon="-7.760258">
        <ele>706.079</ele>
        <time>2022-08-21T09:51:09Z</time>
      </trkpt>
      <trkpt lat="42.849607" lon="-7.760312">
        <ele>705.851</ele>
        <time>2022-08-21T09:51:13Z</time>
      </trkpt>
      <trkpt lat="42.849632" lon="-7.760381">
        <ele>705.673</ele>
        <time>2022-08-21T09:51:18Z</time>
      </trkpt>
      <trkpt lat="42.849659" lon="-7.760453">
        <ele>705.588</ele>
        <time>2022-08-21T09:51:22Z</time>
      </trkpt>
      <trkpt lat="42.849683" lon="-7.760526">
        <ele>705.348</ele>
        <time>2022-08-21T09:51:26Z</time>
      </trkpt>
      <trkpt lat="42.849709" lon="-7.760593">
        <ele>705.231</ele>
        <time>2022-08-21T09:51:30Z</time>
      </trkpt>
      <trkpt lat="42.849734" lon="-7.760662">
        <ele>705.143</ele>
        <time>2022-08-21T09:51:34Z</time>
      </trkpt>
      <trkpt lat="42.849757" lon="-7.760729">
        <ele>704.978</ele>
        <time>2022-08-21T09:51:38Z</time>
      </trkpt>
      <trkpt lat="42.849769" lon="-7.760803">
        <ele>704.833</ele>
        <time>2022-08-21T09:51:42Z</time>
      </trkpt>
      <trkpt lat="42.849775" lon="-7.760875">
        <ele>704.726</ele>
        <time>2022-08-21T09:51:46Z</time>
      </trkpt>
      <trkpt lat="42.849784" lon="-7.760938">
        <ele>704.609</ele>
        <time>2022-08-21T09:51:50Z</time>
      </trkpt>
      <trkpt lat="42.849796" lon="-7.761004">
        <ele>704.588</ele>
        <time>2022-08-21T09:51:54Z</time>
      </trkpt>
      <trkpt lat="42.849814" lon="-7.761063">
        <ele>704.318</ele>
        <time>2022-08-21T09:51:58Z</time>
      </trkpt>
      <trkpt lat="42.849824" lon="-7.761126">
        <ele>704.078</ele>
        <time>2022-08-21T09:52:02Z</time>
      </trkpt>
      <trkpt lat="42.849844" lon="-7.761194">
        <ele>703.780</ele>
        <time>2022-08-21T09:52:06Z</time>
      </trkpt>
      <trkpt lat="42.849861" lon="-7.761260">
        <ele>703.412</ele>
        <time>2022-08-21T09:52:10Z</time>
      </trkpt>
      <trkpt lat="42.849884" lon="-7.761325">
        <ele>703.237</ele>
        <time>2022-08-21T09:52:14Z</time>
      </trkpt>
      <trkpt lat="42.849903" lon="-7.761381">
        <ele>702.927</ele>
        <time>2022-08-21T09:52:18Z</time>
      </trkpt>
      <trkpt lat="42.849918" lon="-7.761448">
        <ele>702.450</ele>
        <time>2022-08-21T09:52:22Z</time>
      </trkpt>
      <trkpt lat="42.849947" lon="-7.761518">
        <ele>702.052</ele>
        <time>2022-08-21T09:52:27Z</time>
      </trkpt>
      <trkpt lat="42.849968" lon="-7.761585">
        <ele>701.652</ele>
        <time>2022-08-21T09:52:31Z</time>
      </trkpt>
      <trkpt lat="42.849987" lon="-7.761647">
        <ele>701.253</ele>
        <time>2022-08-21T09:52:35Z</time>
      </trkpt>
      <trkpt lat="42.850009" lon="-7.761702">
        <ele>700.808</ele>
        <time>2022-08-21T09:52:39Z</time>
      </trkpt>
      <trkpt lat="42.850027" lon="-7.761764">
        <ele>700.509</ele>
        <time>2022-08-21T09:52:43Z</time>
      </trkpt>
      <trkpt lat="42.850058" lon="-7.761825">
        <ele>700.286</ele>
        <time>2022-08-21T09:52:47Z</time>
      </trkpt>
      <trkpt lat="42.850082" lon="-7.761897">
        <ele>699.916</ele>
        <time>2022-08-21T09:52:51Z</time>
      </trkpt>
      <trkpt lat="42.850102" lon="-7.761965">
        <ele>699.616</ele>
        <time>2022-08-21T09:52:55Z</time>
      </trkpt>
      <trkpt lat="42.850120" lon="-7.762022">
        <ele>699.488</ele>
        <time>2022-08-21T09:52:59Z</time>
      </trkpt>
      <trkpt lat="42.850138" lon="-7.762093">
        <ele>699.180</ele>
        <time>2022-08-21T09:53:03Z</time>
      </trkpt>
      <trkpt lat="42.850161" lon="-7.762159">
        <ele>698.915</ele>
        <time>2022-08-21T09:53:07Z</time>
      </trkpt>
      <trkpt lat="42.850181" lon="-7.762218">
        <ele>698.685</ele>
        <time>2022-08-21T09:53:11Z</time>
      </trkpt>
      <trkpt lat="42.850209" lon="-7.762274">
        <ele>698.368</ele>
        <time>2022-08-21T09:53:15Z</time>
      </trkpt>
      <trkpt lat="42.850232" lon="-7.762343">
        <ele>698.090</ele>
        <time>2022-08-21T09:53:20Z</time>
      </trkpt>
      <trkpt lat="42.850262" lon="-7.762401">
        <ele>697.794</ele>
        <time>2022-08-21T09:53:24Z</time>
      </trkpt>
      <trkpt lat="42.850286" lon="-7.762469">
        <ele>697.457</ele>
        <time>2022-08-21T09:53:29Z</time>
      </trkpt>
      <trkpt lat="42.850307" lon="-7.762528">
        <ele>697.122</ele>
        <time>2022-08-21T09:53:32Z</time>
      </trkpt>
      <trkpt lat="42.850333" lon="-7.762585">
        <ele>696.809</ele>
        <time>2022-08-21T09:53:36Z</time>
      </trkpt>
      <trkpt lat="42.850358" lon="-7.762651">
        <ele>696.580</ele>
        <time>2022-08-21T09:53:41Z</time>
      </trkpt>
      <trkpt lat="42.850378" lon="-7.762715">
        <ele>696.230</ele>
        <time>2022-08-21T09:53:46Z</time>
      </trkpt>
      <trkpt lat="42.850405" lon="-7.762778">
        <ele>695.950</ele>
        <time>2022-08-21T09:53:50Z</time>
      </trkpt>
      <trkpt lat="42.850432" lon="-7.762844">
        <ele>695.552</ele>
        <time>2022-08-21T09:53:54Z</time>
      </trkpt>
      <trkpt lat="42.850454" lon="-7.762907">
        <ele>695.154</ele>
        <time>2022-08-21T09:53:58Z</time>
      </trkpt>
      <trkpt lat="42.850475" lon="-7.762968">
        <ele>694.849</ele>
        <time>2022-08-21T09:54:01Z</time>
      </trkpt>
      <trkpt lat="42.850503" lon="-7.763025">
        <ele>694.479</ele>
        <time>2022-08-21T09:54:06Z</time>
      </trkpt>
      <trkpt lat="42.850523" lon="-7.763088">
        <ele>694.162</ele>
        <time>2022-08-21T09:54:09Z</time>
      </trkpt>
      <trkpt lat="42.850549" lon="-7.763158">
        <ele>693.724</ele>
        <time>2022-08-21T09:54:14Z</time>
      </trkpt>
      <trkpt lat="42.850573" lon="-7.763215">
        <ele>693.335</ele>
        <time>2022-08-21T09:54:17Z</time>
      </trkpt>
      <trkpt lat="42.850594" lon="-7.763270">
        <ele>693.086</ele>
        <time>2022-08-21T09:54:20Z</time>
      </trkpt>
      <trkpt lat="42.850618" lon="-7.763329">
        <ele>692.614</ele>
        <time>2022-08-21T09:54:24Z</time>
      </trkpt>
      <trkpt lat="42.850641" lon="-7.763383">
        <ele>692.309</ele>
        <time>2022-08-21T09:54:27Z</time>
      </trkpt>
      <trkpt lat="42.850661" lon="-7.763444">
        <ele>691.914</ele>
        <time>2022-08-21T09:54:31Z</time>
      </trkpt>
      <trkpt lat="42.850678" lon="-7.763515">
        <ele>691.514</ele>
        <time>2022-08-21T09:54:35Z</time>
      </trkpt>
      <trkpt lat="42.850701" lon="-7.763588">
        <ele>691.214</ele>
        <time>2022-08-21T09:54:40Z</time>
      </trkpt>
      <trkpt lat="42.850725" lon="-7.763645">
        <ele>690.856</ele>
        <time>2022-08-21T09:54:44Z</time>
      </trkpt>
      <trkpt lat="42.850755" lon="-7.763697">
        <ele>690.458</ele>
        <time>2022-08-21T09:54:48Z</time>
      </trkpt>
      <trkpt lat="42.850775" lon="-7.763770">
        <ele>690.083</ele>
        <time>2022-08-21T09:54:52Z</time>
      </trkpt>
      <trkpt lat="42.850796" lon="-7.763827">
        <ele>689.683</ele>
        <time>2022-08-21T09:54:56Z</time>
      </trkpt>
      <trkpt lat="42.850815" lon="-7.763886">
        <ele>689.236</ele>
        <time>2022-08-21T09:55:00Z</time>
      </trkpt>
      <trkpt lat="42.850832" lon="-7.763956">
        <ele>688.858</ele>
        <time>2022-08-21T09:55:04Z</time>
      </trkpt>
      <trkpt lat="42.850846" lon="-7.764026">
        <ele>688.466</ele>
        <time>2022-08-21T09:55:08Z</time>
      </trkpt>
      <trkpt lat="42.850863" lon="-7.764084">
        <ele>688.029</ele>
        <time>2022-08-21T09:55:12Z</time>
      </trkpt>
      <trkpt lat="42.850882" lon="-7.764150">
        <ele>687.621</ele>
        <time>2022-08-21T09:55:16Z</time>
      </trkpt>
      <trkpt lat="42.850896" lon="-7.764215">
        <ele>687.209</ele>
        <time>2022-08-21T09:55:19Z</time>
      </trkpt>
      <trkpt lat="42.850913" lon="-7.764282">
        <ele>686.837</ele>
        <time>2022-08-21T09:55:23Z</time>
      </trkpt>
      <trkpt lat="42.850930" lon="-7.764358">
        <ele>686.427</ele>
        <time>2022-08-21T09:55:27Z</time>
      </trkpt>
      <trkpt lat="42.850945" lon="-7.764431">
        <ele>686.057</ele>
        <time>2022-08-21T09:55:31Z</time>
      </trkpt>
      <trkpt lat="42.850962" lon="-7.764508">
        <ele>685.299</ele>
        <time>2022-08-21T09:55:35Z</time>
      </trkpt>
      <trkpt lat="42.850977" lon="-7.764579">
        <ele>684.711</ele>
        <time>2022-08-21T09:55:39Z</time>
      </trkpt>
      <trkpt lat="42.850992" lon="-7.764646">
        <ele>684.446</ele>
        <time>2022-08-21T09:55:43Z</time>
      </trkpt>
      <trkpt lat="42.851009" lon="-7.764719">
        <ele>684.056</ele>
        <time>2022-08-21T09:55:47Z</time>
      </trkpt>
      <trkpt lat="42.851026" lon="-7.764776">
        <ele>683.829</ele>
        <time>2022-08-21T09:55:50Z</time>
      </trkpt>
      <trkpt lat="42.851040" lon="-7.764849">
        <ele>683.441</ele>
        <time>2022-08-21T09:55:54Z</time>
      </trkpt>
      <trkpt lat="42.851058" lon="-7.764920">
        <ele>683.145</ele>
        <time>2022-08-21T09:55:58Z</time>
      </trkpt>
      <trkpt lat="42.851070" lon="-7.764990">
        <ele>682.947</ele>
        <time>2022-08-21T09:56:02Z</time>
      </trkpt>
      <trkpt lat="42.851092" lon="-7.765058">
        <ele>682.611</ele>
        <time>2022-08-21T09:56:06Z</time>
      </trkpt>
      <trkpt lat="42.851105" lon="-7.765133">
        <ele>682.109</ele>
        <time>2022-08-21T09:56:10Z</time>
      </trkpt>
      <trkpt lat="42.851123" lon="-7.765200">
        <ele>681.845</ele>
        <time>2022-08-21T09:56:14Z</time>
      </trkpt>
      <trkpt lat="42.851141" lon="-7.765268">
        <ele>681.625</ele>
        <time>2022-08-21T09:56:18Z</time>
      </trkpt>
      <trkpt lat="42.851154" lon="-7.765339">
        <ele>681.265</ele>
        <time>2022-08-21T09:56:22Z</time>
      </trkpt>
      <trkpt lat="42.851172" lon="-7.765406">
        <ele>681.037</ele>
        <time>2022-08-21T09:56:26Z</time>
      </trkpt>
      <trkpt lat="42.851191" lon="-7.765475">
        <ele>680.749</ele>
        <time>2022-08-21T09:56:30Z</time>
      </trkpt>
      <trkpt lat="42.851207" lon="-7.765541">
        <ele>680.314</ele>
        <time>2022-08-21T09:56:34Z</time>
      </trkpt>
      <trkpt lat="42.851225" lon="-7.765607">
        <ele>679.964</ele>
        <time>2022-08-21T09:56:38Z</time>
      </trkpt>
      <trkpt lat="42.851243" lon="-7.765672">
        <ele>679.577</ele>
        <time>2022-08-21T09:56:42Z</time>
      </trkpt>
      <trkpt lat="42.851258" lon="-7.765735">
        <ele>679.289</ele>
        <time>2022-08-21T09:56:46Z</time>
      </trkpt>
      <trkpt lat="42.851275" lon="-7.765794">
        <ele>678.933</ele>
        <time>2022-08-21T09:56:50Z</time>
      </trkpt>
      <trkpt lat="42.851292" lon="-7.765860">
        <ele>678.523</ele>
        <time>2022-08-21T09:56:55Z</time>
      </trkpt>
      <trkpt lat="42.851308" lon="-7.765921">
        <ele>678.115</ele>
        <time>2022-08-21T09:57:00Z</time>
      </trkpt>
      <trkpt lat="42.851326" lon="-7.765985">
        <ele>677.609</ele>
        <time>2022-08-21T09:57:04Z</time>
      </trkpt>
      <trkpt lat="42.851345" lon="-7.766050">
        <ele>677.184</ele>
        <time>2022-08-21T09:57:09Z</time>
      </trkpt>
      <trkpt lat="42.851356" lon="-7.766117">
        <ele>676.784</ele>
        <time>2022-08-21T09:57:15Z</time>
      </trkpt>
      <trkpt lat="42.851360" lon="-7.766183">
        <ele>676.224</ele>
        <time>2022-08-21T09:57:20Z</time>
      </trkpt>
      <trkpt lat="42.851373" lon="-7.766253">
        <ele>675.616</ele>
        <time>2022-08-21T09:57:26Z</time>
      </trkpt>
      <trkpt lat="42.851394" lon="-7.766313">
        <ele>675.098</ele>
        <time>2022-08-21T09:57:31Z</time>
      </trkpt>
      <trkpt lat="42.851422" lon="-7.766370">
        <ele>674.383</ele>
        <time>2022-08-21T09:57:36Z</time>
      </trkpt>
      <trkpt lat="42.851454" lon="-7.766433">
        <ele>673.573</ele>
        <time>2022-08-21T09:57:40Z</time>
      </trkpt>
      <trkpt lat="42.851462" lon="-7.766509">
        <ele>672.716</ele>
        <time>2022-08-21T09:57:44Z</time>
      </trkpt>
      <trkpt lat="42.851484" lon="-7.766581">
        <ele>672.128</ele>
        <time>2022-08-21T09:57:48Z</time>
      </trkpt>
      <trkpt lat="42.851497" lon="-7.766644">
        <ele>671.644</ele>
        <time>2022-08-21T09:57:52Z</time>
      </trkpt>
      <trkpt lat="42.851515" lon="-7.766722">
        <ele>670.705</ele>
        <time>2022-08-21T09:57:56Z</time>
      </trkpt>
      <trkpt lat="42.851519" lon="-7.766787">
        <ele>670.415</ele>
        <time>2022-08-21T09:57:59Z</time>
      </trkpt>
      <trkpt lat="42.851534" lon="-7.766854">
        <ele>669.809</ele>
        <time>2022-08-21T09:58:03Z</time>
      </trkpt>
      <trkpt lat="42.851546" lon="-7.766927">
        <ele>669.315</ele>
        <time>2022-08-21T09:58:07Z</time>
      </trkpt>
      <trkpt lat="42.851568" lon="-7.767006">
        <ele>668.625</ele>
        <time>2022-08-21T09:58:11Z</time>
      </trkpt>
      <trkpt lat="42.851589" lon="-7.767067">
        <ele>668.385</ele>
        <time>2022-08-21T09:58:14Z</time>
      </trkpt>
      <trkpt lat="42.851601" lon="-7.767126">
        <ele>667.827</ele>
        <time>2022-08-21T09:58:17Z</time>
      </trkpt>
      <trkpt lat="42.851610" lon="-7.767192">
        <ele>667.339</ele>
        <time>2022-08-21T09:58:21Z</time>
      </trkpt>
      <trkpt lat="42.851619" lon="-7.767262">
        <ele>666.964</ele>
        <time>2022-08-21T09:58:25Z</time>
      </trkpt>
      <trkpt lat="42.851631" lon="-7.767328">
        <ele>666.584</ele>
        <time>2022-08-21T09:58:28Z</time>
      </trkpt>
      <trkpt lat="42.851649" lon="-7.767388">
        <ele>666.117</ele>
        <time>2022-08-21T09:58:31Z</time>
      </trkpt>
      <trkpt lat="42.851656" lon="-7.767452">
        <ele>665.759</ele>
        <time>2022-08-21T09:58:34Z</time>
      </trkpt>
      <trkpt lat="42.851661" lon="-7.767518">
        <ele>665.397</ele>
        <time>2022-08-21T09:58:37Z</time>
      </trkpt>
      <trkpt lat="42.851677" lon="-7.767578">
        <ele>664.923</ele>
        <time>2022-08-21T09:58:40Z</time>
      </trkpt>
      <trkpt lat="42.851692" lon="-7.767640">
        <ele>664.525</ele>
        <time>2022-08-21T09:58:43Z</time>
      </trkpt>
      <trkpt lat="42.851709" lon="-7.767710">
        <ele>664.109</ele>
        <time>2022-08-21T09:58:47Z</time>
      </trkpt>
      <trkpt lat="42.851739" lon="-7.767784">
        <ele>663.750</ele>
        <time>2022-08-21T09:58:50Z</time>
      </trkpt>
      <trkpt lat="42.851760" lon="-7.767857">
        <ele>663.390</ele>
        <time>2022-08-21T09:58:53Z</time>
      </trkpt>
      <trkpt lat="42.851779" lon="-7.767924">
        <ele>662.870</ele>
        <time>2022-08-21T09:58:56Z</time>
      </trkpt>
      <trkpt lat="42.851796" lon="-7.767982">
        <ele>662.632</ele>
        <time>2022-08-21T09:58:59Z</time>
      </trkpt>
      <trkpt lat="42.851817" lon="-7.768045">
        <ele>662.594</ele>
        <time>2022-08-21T09:59:03Z</time>
      </trkpt>
      <trkpt lat="42.851833" lon="-7.768106">
        <ele>662.279</ele>
        <time>2022-08-21T09:59:06Z</time>
      </trkpt>
      <trkpt lat="42.851857" lon="-7.768160">
        <ele>661.829</ele>
        <time>2022-08-21T09:59:09Z</time>
      </trkpt>
      <trkpt lat="42.851879" lon="-7.768214">
        <ele>661.412</ele>
        <time>2022-08-21T09:59:12Z</time>
      </trkpt>
      <trkpt lat="42.851900" lon="-7.768285">
        <ele>661.014</ele>
        <time>2022-08-21T09:59:16Z</time>
      </trkpt>
      <trkpt lat="42.851921" lon="-7.768351">
        <ele>660.652</ele>
        <time>2022-08-21T09:59:20Z</time>
      </trkpt>
      <trkpt lat="42.851946" lon="-7.768414">
        <ele>660.453</ele>
        <time>2022-08-21T09:59:24Z</time>
      </trkpt>
      <trkpt lat="42.851967" lon="-7.768468">
        <ele>660.208</ele>
        <time>2022-08-21T09:59:28Z</time>
      </trkpt>
      <trkpt lat="42.851991" lon="-7.768525">
        <ele>659.909</ele>
        <time>2022-08-21T09:59:32Z</time>
      </trkpt>
      <trkpt lat="42.852012" lon="-7.768582">
        <ele>659.646</ele>
        <time>2022-08-21T09:59:36Z</time>
      </trkpt>
      <trkpt lat="42.852031" lon="-7.768646">
        <ele>659.256</ele>
        <time>2022-08-21T09:59:40Z</time>
      </trkpt>
      <trkpt lat="42.852062" lon="-7.768721">
        <ele>658.886</ele>
        <time>2022-08-21T09:59:44Z</time>
      </trkpt>
      <trkpt lat="42.852090" lon="-7.768788">
        <ele>658.448</ele>
        <time>2022-08-21T09:59:48Z</time>
      </trkpt>
      <trkpt lat="42.852115" lon="-7.768855">
        <ele>657.670</ele>
        <time>2022-08-21T09:59:52Z</time>
      </trkpt>
      <trkpt lat="42.852136" lon="-7.768912">
        <ele>657.445</ele>
        <time>2022-08-21T09:59:55Z</time>
      </trkpt>
      <trkpt lat="42.852164" lon="-7.768980">
        <ele>657.275</ele>
        <time>2022-08-21T09:59:59Z</time>
      </trkpt>
      <trkpt lat="42.852186" lon="-7.769050">
        <ele>656.978</ele>
        <time>2022-08-21T10:00:03Z</time>
      </trkpt>
      <trkpt lat="42.852211" lon="-7.769114">
        <ele>656.770</ele>
        <time>2022-08-21T10:00:07Z</time>
      </trkpt>
      <trkpt lat="42.852237" lon="-7.769182">
        <ele>656.354</ele>
        <time>2022-08-21T10:00:11Z</time>
      </trkpt>
      <trkpt lat="42.852260" lon="-7.769252">
        <ele>655.456</ele>
        <time>2022-08-21T10:00:15Z</time>
      </trkpt>
      <trkpt lat="42.852286" lon="-7.769307">
        <ele>655.311</ele>
        <time>2022-08-21T10:00:19Z</time>
      </trkpt>
      <trkpt lat="42.852315" lon="-7.769371">
        <ele>655.109</ele>
        <time>2022-08-21T10:00:23Z</time>
      </trkpt>
      <trkpt lat="42.852337" lon="-7.769445">
        <ele>654.966</ele>
        <time>2022-08-21T10:00:27Z</time>
      </trkpt>
      <trkpt lat="42.852364" lon="-7.769501">
        <ele>654.616</ele>
        <time>2022-08-21T10:00:31Z</time>
      </trkpt>
      <trkpt lat="42.852381" lon="-7.769560">
        <ele>654.226</ele>
        <time>2022-08-21T10:00:35Z</time>
      </trkpt>
      <trkpt lat="42.852395" lon="-7.769633">
        <ele>654.018</ele>
        <time>2022-08-21T10:00:40Z</time>
      </trkpt>
      <trkpt lat="42.852418" lon="-7.769697">
        <ele>653.810</ele>
        <time>2022-08-21T10:00:44Z</time>
      </trkpt>
      <trkpt lat="42.852432" lon="-7.769763">
        <ele>653.595</ele>
        <time>2022-08-21T10:00:48Z</time>
      </trkpt>
      <trkpt lat="42.852449" lon="-7.769820">
        <ele>653.115</ele>
        <time>2022-08-21T10:00:52Z</time>
      </trkpt>
      <trkpt lat="42.852477" lon="-7.769876">
        <ele>652.838</ele>
        <time>2022-08-21T10:00:56Z</time>
      </trkpt>
      <trkpt lat="42.852498" lon="-7.769943">
        <ele>652.680</ele>
        <time>2022-08-21T10:01:01Z</time>
      </trkpt>
      <trkpt lat="42.852486" lon="-7.770011">
        <ele>652.439</ele>
        <time>2022-08-21T10:01:07Z</time>
      </trkpt>
      <trkpt lat="42.852455" lon="-7.769959">
        <ele>652.101</ele>
        <time>2022-08-21T10:01:33Z</time>
      </trkpt>
      <trkpt lat="42.852486" lon="-7.769909">
        <ele>651.821</ele>
        <time>2022-08-21T10:39:25Z</time>
      </trkpt>
      <trkpt lat="42.852473" lon="-7.769972">
        <ele>651.609</ele>
        <time>2022-08-21T10:39:36Z</time>
      </trkpt>
      <trkpt lat="42.852498" lon="-7.770026">
        <ele>651.514</ele>
        <time>2022-08-21T10:39:50Z</time>
      </trkpt>
      <trkpt lat="42.852516" lon="-7.770143">
        <ele>651.274</ele>
        <time>2022-08-21T10:40:37Z</time>
      </trkpt>
      <trkpt lat="42.852521" lon="-7.770220">
        <ele>651.194</ele>
        <time>2022-08-21T10:40:45Z</time>
      </trkpt>
      <trkpt lat="42.852520" lon="-7.770283">
        <ele>651.176</ele>
        <time>2022-08-21T10:40:50Z</time>
      </trkpt>
      <trkpt lat="42.852521" lon="-7.770353">
        <ele>651.138</ele>
        <time>2022-08-21T10:40:55Z</time>
      </trkpt>
      <trkpt lat="42.852527" lon="-7.770415">
        <ele>650.723</ele>
        <time>2022-08-21T10:41:00Z</time>
      </trkpt>
      <trkpt lat="42.852525" lon="-7.770488">
        <ele>650.683</ele>
        <time>2022-08-21T10:41:05Z</time>
      </trkpt>
      <trkpt lat="42.852531" lon="-7.770553">
        <ele>650.416</ele>
        <time>2022-08-21T10:41:10Z</time>
      </trkpt>
      <trkpt lat="42.852547" lon="-7.770617">
        <ele>650.088</ele>
        <time>2022-08-21T10:41:15Z</time>
      </trkpt>
      <trkpt lat="42.852542" lon="-7.770679">
        <ele>649.621</ele>
        <time>2022-08-21T10:41:19Z</time>
      </trkpt>
      <trkpt lat="42.852540" lon="-7.770760">
        <ele>649.241</ele>
        <time>2022-08-21T10:41:24Z</time>
      </trkpt>
      <trkpt lat="42.852545" lon="-7.770822">
        <ele>648.805</ele>
        <time>2022-08-21T10:41:28Z</time>
      </trkpt>
      <trkpt lat="42.852543" lon="-7.770889">
        <ele>648.309</ele>
        <time>2022-08-21T10:41:32Z</time>
      </trkpt>
      <trkpt lat="42.852532" lon="-7.770957">
        <ele>647.813</ele>
        <time>2022-08-21T10:41:36Z</time>
      </trkpt>
      <trkpt lat="42.852534" lon="-7.771031">
        <ele>647.323</ele>
        <time>2022-08-21T10:41:41Z</time>
      </trkpt>
      <trkpt lat="42.852529" lon="-7.771104">
        <ele>646.823</ele>
        <time>2022-08-21T10:41:45Z</time>
      </trkpt>
      <trkpt lat="42.852513" lon="-7.771164">
        <ele>646.315</ele>
        <time>2022-08-21T10:41:48Z</time>
      </trkpt>
      <trkpt lat="42.852522" lon="-7.771230">
        <ele>645.867</ele>
        <time>2022-08-21T10:41:52Z</time>
      </trkpt>
      <trkpt lat="42.852514" lon="-7.771296">
        <ele>645.482</ele>
        <time>2022-08-21T10:41:56Z</time>
      </trkpt>
      <trkpt lat="42.852512" lon="-7.771364">
        <ele>645.062</ele>
        <time>2022-08-21T10:42:00Z</time>
      </trkpt>
      <trkpt lat="42.852506" lon="-7.771438">
        <ele>644.645</ele>
        <time>2022-08-21T10:42:04Z</time>
      </trkpt>
      <trkpt lat="42.852496" lon="-7.771510">
        <ele>644.217</ele>
        <time>2022-08-21T10:42:08Z</time>
      </trkpt>
      <trkpt lat="42.852506" lon="-7.771572">
        <ele>643.778</ele>
        <time>2022-08-21T10:42:12Z</time>
      </trkpt>
      <trkpt lat="42.852493" lon="-7.771642">
        <ele>643.333</ele>
        <time>2022-08-21T10:42:16Z</time>
      </trkpt>
      <trkpt lat="42.852472" lon="-7.771711">
        <ele>643.026</ele>
        <time>2022-08-21T10:42:20Z</time>
      </trkpt>
      <trkpt lat="42.852473" lon="-7.771783">
        <ele>642.609</ele>
        <time>2022-08-21T10:42:25Z</time>
      </trkpt>
      <trkpt lat="42.852474" lon="-7.771847">
        <ele>642.158</ele>
        <time>2022-08-21T10:42:29Z</time>
      </trkpt>
      <trkpt lat="42.852481" lon="-7.771913">
        <ele>641.538</ele>
        <time>2022-08-21T10:42:33Z</time>
      </trkpt>
      <trkpt lat="42.852483" lon="-7.771983">
        <ele>640.998</ele>
        <time>2022-08-21T10:42:37Z</time>
      </trkpt>
      <trkpt lat="42.852493" lon="-7.772053">
        <ele>640.550</ele>
        <time>2022-08-21T10:42:44Z</time>
      </trkpt>
      <trkpt lat="42.852509" lon="-7.772125">
        <ele>640.242</ele>
        <time>2022-08-21T10:42:49Z</time>
      </trkpt>
      <trkpt lat="42.852510" lon="-7.772193">
        <ele>640.087</ele>
        <time>2022-08-21T10:42:55Z</time>
      </trkpt>
      <trkpt lat="42.852510" lon="-7.772259">
        <ele>639.687</ele>
        <time>2022-08-21T10:43:02Z</time>
      </trkpt>
      <trkpt lat="42.852531" lon="-7.772324">
        <ele>639.120</ele>
        <time>2022-08-21T10:43:08Z</time>
      </trkpt>
      <trkpt lat="42.852553" lon="-7.772380">
        <ele>638.872</ele>
        <time>2022-08-21T10:43:12Z</time>
      </trkpt>
      <trkpt lat="42.852586" lon="-7.772443">
        <ele>638.772</ele>
        <time>2022-08-21T10:43:16Z</time>
      </trkpt>
      <trkpt lat="42.852618" lon="-7.772499">
        <ele>638.513</ele>
        <time>2022-08-21T10:43:21Z</time>
      </trkpt>
      <trkpt lat="42.852648" lon="-7.772560">
        <ele>638.314</ele>
        <time>2022-08-21T10:43:25Z</time>
      </trkpt>
      <trkpt lat="42.852659" lon="-7.772635">
        <ele>638.009</ele>
        <time>2022-08-21T10:43:29Z</time>
      </trkpt>
      <trkpt lat="42.852693" lon="-7.772696">
        <ele>637.628</ele>
        <time>2022-08-21T10:43:33Z</time>
      </trkpt>
      <trkpt lat="42.852727" lon="-7.772756">
        <ele>637.548</ele>
        <time>2022-08-21T10:43:37Z</time>
      </trkpt>
      <trkpt lat="42.852766" lon="-7.772810">
        <ele>637.528</ele>
        <time>2022-08-21T10:43:42Z</time>
      </trkpt>
      <trkpt lat="42.852802" lon="-7.772853">
        <ele>637.450</ele>
        <time>2022-08-21T10:43:47Z</time>
      </trkpt>
      <trkpt lat="42.852837" lon="-7.772897">
        <ele>637.342</ele>
        <time>2022-08-21T10:43:51Z</time>
      </trkpt>
      <trkpt lat="42.852862" lon="-7.772956">
        <ele>637.147</ele>
        <time>2022-08-21T10:43:55Z</time>
      </trkpt>
      <trkpt lat="42.852896" lon="-7.773003">
        <ele>637.077</ele>
        <time>2022-08-21T10:43:59Z</time>
      </trkpt>
      <trkpt lat="42.852933" lon="-7.773039">
        <ele>636.830</ele>
        <time>2022-08-21T10:44:02Z</time>
      </trkpt>
      <trkpt lat="42.852970" lon="-7.773088">
        <ele>636.622</ele>
        <time>2022-08-21T10:44:06Z</time>
      </trkpt>
      <trkpt lat="42.853001" lon="-7.773136">
        <ele>636.597</ele>
        <time>2022-08-21T10:44:09Z</time>
      </trkpt>
      <trkpt lat="42.853041" lon="-7.773188">
        <ele>636.423</ele>
        <time>2022-08-21T10:44:13Z</time>
      </trkpt>
      <trkpt lat="42.853069" lon="-7.773236">
        <ele>636.225</ele>
        <time>2022-08-21T10:44:17Z</time>
      </trkpt>
      <trkpt lat="42.853100" lon="-7.773294">
        <ele>636.009</ele>
        <time>2022-08-21T10:44:22Z</time>
      </trkpt>
      <trkpt lat="42.853139" lon="-7.773339">
        <ele>635.870</ele>
        <time>2022-08-21T10:44:26Z</time>
      </trkpt>
      <trkpt lat="42.853172" lon="-7.773388">
        <ele>635.610</ele>
        <time>2022-08-21T10:44:30Z</time>
      </trkpt>
      <trkpt lat="42.853203" lon="-7.773439">
        <ele>635.320</ele>
        <time>2022-08-21T10:44:35Z</time>
      </trkpt>
      <trkpt lat="42.853246" lon="-7.773481">
        <ele>635.152</ele>
        <time>2022-08-21T10:44:40Z</time>
      </trkpt>
      <trkpt lat="42.853281" lon="-7.773527">
        <ele>634.884</ele>
        <time>2022-08-21T10:44:44Z</time>
      </trkpt>
      <trkpt lat="42.853313" lon="-7.773579">
        <ele>634.589</ele>
        <time>2022-08-21T10:44:48Z</time>
      </trkpt>
      <trkpt lat="42.853353" lon="-7.773623">
        <ele>634.379</ele>
        <time>2022-08-21T10:44:52Z</time>
      </trkpt>
      <trkpt lat="42.853404" lon="-7.773656">
        <ele>634.182</ele>
        <time>2022-08-21T10:44:56Z</time>
      </trkpt>
      <trkpt lat="42.853449" lon="-7.773681">
        <ele>634.024</ele>
        <time>2022-08-21T10:45:00Z</time>
      </trkpt>
      <trkpt lat="42.853497" lon="-7.773728">
        <ele>633.974</ele>
        <time>2022-08-21T10:45:04Z</time>
      </trkpt>
      <trkpt lat="42.853538" lon="-7.773777">
        <ele>633.756</ele>
        <time>2022-08-21T10:45:10Z</time>
      </trkpt>
      <trkpt lat="42.853570" lon="-7.773822">
        <ele>633.521</ele>
        <time>2022-08-21T10:45:13Z</time>
      </trkpt>
      <trkpt lat="42.853603" lon="-7.773866">
        <ele>633.309</ele>
        <time>2022-08-21T10:45:16Z</time>
      </trkpt>
      <trkpt lat="42.853648" lon="-7.773914">
        <ele>633.118</ele>
        <time>2022-08-21T10:45:20Z</time>
      </trkpt>
      <trkpt lat="42.853693" lon="-7.773949">
        <ele>633.078</ele>
        <time>2022-08-21T10:45:24Z</time>
      </trkpt>
      <trkpt lat="42.853729" lon="-7.774004">
        <ele>632.978</ele>
        <time>2022-08-21T10:45:28Z</time>
      </trkpt>
      <trkpt lat="42.853763" lon="-7.774059">
        <ele>632.880</ele>
        <time>2022-08-21T10:45:32Z</time>
      </trkpt>
      <trkpt lat="42.853798" lon="-7.774117">
        <ele>632.652</ele>
        <time>2022-08-21T10:45:36Z</time>
      </trkpt>
      <trkpt lat="42.853828" lon="-7.774180">
        <ele>632.537</ele>
        <time>2022-08-21T10:45:40Z</time>
      </trkpt>
      <trkpt lat="42.853862" lon="-7.774235">
        <ele>632.367</ele>
        <time>2022-08-21T10:45:44Z</time>
      </trkpt>
      <trkpt lat="42.853897" lon="-7.774290">
        <ele>632.260</ele>
        <time>2022-08-21T10:45:48Z</time>
      </trkpt>
      <trkpt lat="42.853929" lon="-7.774351">
        <ele>632.022</ele>
        <time>2022-08-21T10:45:52Z</time>
      </trkpt>
      <trkpt lat="42.853960" lon="-7.774413">
        <ele>631.866</ele>
        <time>2022-08-21T10:45:56Z</time>
      </trkpt>
      <trkpt lat="42.853993" lon="-7.774470">
        <ele>631.729</ele>
        <time>2022-08-21T10:46:00Z</time>
      </trkpt>
      <trkpt lat="42.854027" lon="-7.774524">
        <ele>631.621</ele>
        <time>2022-08-21T10:46:04Z</time>
      </trkpt>
      <trkpt lat="42.854061" lon="-7.774574">
        <ele>631.509</ele>
        <time>2022-08-21T10:46:08Z</time>
      </trkpt>
      <trkpt lat="42.854091" lon="-7.774633">
        <ele>631.477</ele>
        <time>2022-08-21T10:46:13Z</time>
      </trkpt>
      <trkpt lat="42.854123" lon="-7.774683">
        <ele>631.317</ele>
        <time>2022-08-21T10:46:18Z</time>
      </trkpt>
      <trkpt lat="42.854153" lon="-7.774734">
        <ele>631.227</ele>
        <time>2022-08-21T10:46:22Z</time>
      </trkpt>
      <trkpt lat="42.854189" lon="-7.774784">
        <ele>631.149</ele>
        <time>2022-08-21T10:46:26Z</time>
      </trkpt>
      <trkpt lat="42.854223" lon="-7.774837">
        <ele>631.051</ele>
        <time>2022-08-21T10:46:31Z</time>
      </trkpt>
      <trkpt lat="42.854257" lon="-7.774893">
        <ele>630.976</ele>
        <time>2022-08-21T10:46:36Z</time>
      </trkpt>
      <trkpt lat="42.854293" lon="-7.774955">
        <ele>630.896</ele>
        <time>2022-08-21T10:46:41Z</time>
      </trkpt>
      <trkpt lat="42.854318" lon="-7.775018">
        <ele>630.759</ele>
        <time>2022-08-21T10:46:45Z</time>
      </trkpt>
      <trkpt lat="42.854347" lon="-7.775077">
        <ele>630.621</ele>
        <time>2022-08-21T10:46:49Z</time>
      </trkpt>
      <trkpt lat="42.854378" lon="-7.775123">
        <ele>630.561</ele>
        <time>2022-08-21T10:46:53Z</time>
      </trkpt>
      <trkpt lat="42.854407" lon="-7.775172">
        <ele>630.421</ele>
        <time>2022-08-21T10:46:57Z</time>
      </trkpt>
      <trkpt lat="42.854436" lon="-7.775221">
        <ele>630.313</ele>
        <time>2022-08-21T10:47:01Z</time>
      </trkpt>
      <trkpt lat="42.854468" lon="-7.775279">
        <ele>630.109</ele>
        <time>2022-08-21T10:47:05Z</time>
      </trkpt>
      <trkpt lat="42.854495" lon="-7.775332">
        <ele>629.917</ele>
        <time>2022-08-21T10:47:09Z</time>
      </trkpt>
      <trkpt lat="42.854528" lon="-7.775392">
        <ele>629.727</ele>
        <time>2022-08-21T10:47:13Z</time>
      </trkpt>
      <trkpt lat="42.854563" lon="-7.775459">
        <ele>629.577</ele>
        <time>2022-08-21T10:47:17Z</time>
      </trkpt>
      <trkpt lat="42.854601" lon="-7.775515">
        <ele>629.119</ele>
        <time>2022-08-21T10:47:21Z</time>
      </trkpt>
      <trkpt lat="42.854626" lon="-7.775575">
        <ele>629.041</ele>
        <time>2022-08-21T10:47:25Z</time>
      </trkpt>
      <trkpt lat="42.854655" lon="-7.775636">
        <ele>628.876</ele>
        <time>2022-08-21T10:47:30Z</time>
      </trkpt>
      <trkpt lat="42.854685" lon="-7.775703">
        <ele>628.766</ele>
        <time>2022-08-21T10:47:35Z</time>
      </trkpt>
      <trkpt lat="42.854712" lon="-7.775774">
        <ele>628.579</ele>
        <time>2022-08-21T10:47:40Z</time>
      </trkpt>
      <trkpt lat="42.854733" lon="-7.775830">
        <ele>628.421</ele>
        <time>2022-08-21T10:47:45Z</time>
      </trkpt>
      <trkpt lat="42.854752" lon="-7.775896">
        <ele>628.328</ele>
        <time>2022-08-21T10:47:49Z</time>
      </trkpt>
      <trkpt lat="42.854786" lon="-7.775947">
        <ele>628.189</ele>
        <time>2022-08-21T10:47:53Z</time>
      </trkpt>
      <trkpt lat="42.854813" lon="-7.776002">
        <ele>628.017</ele>
        <time>2022-08-21T10:47:56Z</time>
      </trkpt>
      <trkpt lat="42.854832" lon="-7.776063">
        <ele>627.909</ele>
        <time>2022-08-21T10:47:59Z</time>
      </trkpt>
      <trkpt lat="42.854853" lon="-7.776119">
        <ele>627.853</ele>
        <time>2022-08-21T10:48:03Z</time>
      </trkpt>
      <trkpt lat="42.854871" lon="-7.776185">
        <ele>627.763</ele>
        <time>2022-08-21T10:48:07Z</time>
      </trkpt>
      <trkpt lat="42.854888" lon="-7.776251">
        <ele>627.653</ele>
        <time>2022-08-21T10:48:11Z</time>
      </trkpt>
      <trkpt lat="42.854910" lon="-7.776327">
        <ele>627.565</ele>
        <time>2022-08-21T10:48:16Z</time>
      </trkpt>
      <trkpt lat="42.854935" lon="-7.776388">
        <ele>627.497</ele>
        <time>2022-08-21T10:48:20Z</time>
      </trkpt>
      <trkpt lat="42.854955" lon="-7.776456">
        <ele>627.362</ele>
        <time>2022-08-21T10:48:24Z</time>
      </trkpt>
      <trkpt lat="42.854978" lon="-7.776520">
        <ele>627.272</ele>
        <time>2022-08-21T10:48:28Z</time>
      </trkpt>
      <trkpt lat="42.855003" lon="-7.776580">
        <ele>627.295</ele>
        <time>2022-08-21T10:48:32Z</time>
      </trkpt>
      <trkpt lat="42.855022" lon="-7.776654">
        <ele>627.147</ele>
        <time>2022-08-21T10:48:36Z</time>
      </trkpt>
      <trkpt lat="42.855045" lon="-7.776716">
        <ele>627.033</ele>
        <time>2022-08-21T10:48:40Z</time>
      </trkpt>
      <trkpt lat="42.855075" lon="-7.776782">
        <ele>627.023</ele>
        <time>2022-08-21T10:48:45Z</time>
      </trkpt>
      <trkpt lat="42.855100" lon="-7.776837">
        <ele>626.915</ele>
        <time>2022-08-21T10:48:49Z</time>
      </trkpt>
      <trkpt lat="42.855120" lon="-7.776901">
        <ele>626.709</ele>
        <time>2022-08-21T10:48:53Z</time>
      </trkpt>
      <trkpt lat="42.855145" lon="-7.776956">
        <ele>626.594</ele>
        <time>2022-08-21T10:48:57Z</time>
      </trkpt>
      <trkpt lat="42.855166" lon="-7.777013">
        <ele>626.314</ele>
        <time>2022-08-21T10:49:02Z</time>
      </trkpt>
      <trkpt lat="42.855181" lon="-7.777074">
        <ele>625.954</ele>
        <time>2022-08-21T10:49:06Z</time>
      </trkpt>
      <trkpt lat="42.855202" lon="-7.777133">
        <ele>625.476</ele>
        <time>2022-08-21T10:49:10Z</time>
      </trkpt>
      <trkpt lat="42.855240" lon="-7.777194">
        <ele>624.858</ele>
        <time>2022-08-21T10:49:15Z</time>
      </trkpt>
      <trkpt lat="42.855262" lon="-7.777254">
        <ele>624.313</ele>
        <time>2022-08-21T10:49:19Z</time>
      </trkpt>
      <trkpt lat="42.855293" lon="-7.777316">
        <ele>623.753</ele>
        <time>2022-08-21T10:49:23Z</time>
      </trkpt>
      <trkpt lat="42.855322" lon="-7.777379">
        <ele>623.126</ele>
        <time>2022-08-21T10:49:28Z</time>
      </trkpt>
      <trkpt lat="42.855355" lon="-7.777426">
        <ele>622.558</ele>
        <time>2022-08-21T10:49:32Z</time>
      </trkpt>
      <trkpt lat="42.855396" lon="-7.777468">
        <ele>621.853</ele>
        <time>2022-08-21T10:49:37Z</time>
      </trkpt>
      <trkpt lat="42.855435" lon="-7.777509">
        <ele>621.204</ele>
        <time>2022-08-21T10:49:41Z</time>
      </trkpt>
      <trkpt lat="42.855479" lon="-7.777565">
        <ele>620.714</ele>
        <time>2022-08-21T10:49:45Z</time>
      </trkpt>
      <trkpt lat="42.855523" lon="-7.777606">
        <ele>620.209</ele>
        <time>2022-08-21T10:49:48Z</time>
      </trkpt>
      <trkpt lat="42.855567" lon="-7.777625">
        <ele>619.856</ele>
        <time>2022-08-21T10:49:51Z</time>
      </trkpt>
      <trkpt lat="42.855619" lon="-7.777660">
        <ele>619.516</ele>
        <time>2022-08-21T10:49:55Z</time>
      </trkpt>
      <trkpt lat="42.855671" lon="-7.777695">
        <ele>618.926</ele>
        <time>2022-08-21T10:49:59Z</time>
      </trkpt>
      <trkpt lat="42.855719" lon="-7.777722">
        <ele>618.728</ele>
        <time>2022-08-21T10:50:03Z</time>
      </trkpt>
      <trkpt lat="42.855768" lon="-7.777743">
        <ele>618.490</ele>
        <time>2022-08-21T10:50:07Z</time>
      </trkpt>
      <trkpt lat="42.855821" lon="-7.777762">
        <ele>618.075</ele>
        <time>2022-08-21T10:50:11Z</time>
      </trkpt>
      <trkpt lat="42.855877" lon="-7.777788">
        <ele>617.825</ele>
        <time>2022-08-21T10:50:15Z</time>
      </trkpt>
      <trkpt lat="42.855923" lon="-7.777802">
        <ele>617.778</ele>
        <time>2022-08-21T10:50:18Z</time>
      </trkpt>
      <trkpt lat="42.855976" lon="-7.777809">
        <ele>617.640</ele>
        <time>2022-08-21T10:50:22Z</time>
      </trkpt>
      <trkpt lat="42.856028" lon="-7.777822">
        <ele>617.599</ele>
        <time>2022-08-21T10:50:26Z</time>
      </trkpt>
      <trkpt lat="42.856079" lon="-7.777842">
        <ele>617.407</ele>
        <time>2022-08-21T10:50:30Z</time>
      </trkpt>
      <trkpt lat="42.856132" lon="-7.777866">
        <ele>617.327</ele>
        <time>2022-08-21T10:50:34Z</time>
      </trkpt>
      <trkpt lat="42.856183" lon="-7.777884">
        <ele>617.209</ele>
        <time>2022-08-21T10:50:38Z</time>
      </trkpt>
      <trkpt lat="42.856236" lon="-7.777899">
        <ele>617.150</ele>
        <time>2022-08-21T10:50:42Z</time>
      </trkpt>
      <trkpt lat="42.856287" lon="-7.777927">
        <ele>617.070</ele>
        <time>2022-08-21T10:50:46Z</time>
      </trkpt>
      <trkpt lat="42.856331" lon="-7.777961">
        <ele>616.960</ele>
        <time>2022-08-21T10:50:50Z</time>
      </trkpt>
      <trkpt lat="42.856378" lon="-7.777988">
        <ele>616.892</ele>
        <time>2022-08-21T10:50:54Z</time>
      </trkpt>
      <trkpt lat="42.856425" lon="-7.778017">
        <ele>616.834</ele>
        <time>2022-08-21T10:50:58Z</time>
      </trkpt>
      <trkpt lat="42.856468" lon="-7.778062">
        <ele>616.869</ele>
        <time>2022-08-21T10:51:02Z</time>
      </trkpt>
      <trkpt lat="42.856518" lon="-7.778104">
        <ele>616.899</ele>
        <time>2022-08-21T10:51:06Z</time>
      </trkpt>
      <trkpt lat="42.856564" lon="-7.778142">
        <ele>616.812</ele>
        <time>2022-08-21T10:51:10Z</time>
      </trkpt>
      <trkpt lat="42.856614" lon="-7.778175">
        <ele>616.864</ele>
        <time>2022-08-21T10:51:14Z</time>
      </trkpt>
      <trkpt lat="42.856662" lon="-7.778209">
        <ele>616.769</ele>
        <time>2022-08-21T10:51:18Z</time>
      </trkpt>
      <trkpt lat="42.856709" lon="-7.778245">
        <ele>616.604</ele>
        <time>2022-08-21T10:51:22Z</time>
      </trkpt>
      <trkpt lat="42.856753" lon="-7.778286">
        <ele>616.524</ele>
        <time>2022-08-21T10:51:26Z</time>
      </trkpt>
      <trkpt lat="42.856796" lon="-7.778317">
        <ele>616.509</ele>
        <time>2022-08-21T10:51:30Z</time>
      </trkpt>
      <trkpt lat="42.856834" lon="-7.778358">
        <ele>616.487</ele>
        <time>2022-08-21T10:51:35Z</time>
      </trkpt>
      <trkpt lat="42.856880" lon="-7.778396">
        <ele>616.417</ele>
        <time>2022-08-21T10:51:40Z</time>
      </trkpt>
      <trkpt lat="42.856924" lon="-7.778410">
        <ele>616.447</ele>
        <time>2022-08-21T10:51:45Z</time>
      </trkpt>
      <trkpt lat="42.856957" lon="-7.778468">
        <ele>616.349</ele>
        <time>2022-08-21T10:52:05Z</time>
      </trkpt>
      <trkpt lat="42.857041" lon="-7.778462">
        <ele>616.131</ele>
        <time>2022-08-21T10:52:37Z</time>
      </trkpt>
      <trkpt lat="42.857081" lon="-7.778511">
        <ele>616.066</ele>
        <time>2022-08-21T10:52:42Z</time>
      </trkpt>
      <trkpt lat="42.857125" lon="-7.778551">
        <ele>615.946</ele>
        <time>2022-08-21T10:52:47Z</time>
      </trkpt>
      <trkpt lat="42.857167" lon="-7.778594">
        <ele>615.949</ele>
        <time>2022-08-21T10:52:51Z</time>
      </trkpt>
      <trkpt lat="42.857222" lon="-7.778622">
        <ele>615.771</ele>
        <time>2022-08-21T10:52:56Z</time>
      </trkpt>
      <trkpt lat="42.857269" lon="-7.778660">
        <ele>615.698</ele>
        <time>2022-08-21T10:53:00Z</time>
      </trkpt>
      <trkpt lat="42.857319" lon="-7.778700">
        <ele>615.515</ele>
        <time>2022-08-21T10:53:04Z</time>
      </trkpt>
      <trkpt lat="42.857352" lon="-7.778745">
        <ele>615.426</ele>
        <time>2022-08-21T10:53:08Z</time>
      </trkpt>
      <trkpt lat="42.857393" lon="-7.778774">
        <ele>615.209</ele>
        <time>2022-08-21T10:53:12Z</time>
      </trkpt>
      <trkpt lat="42.857436" lon="-7.778827">
        <ele>615.150</ele>
        <time>2022-08-21T10:53:16Z</time>
      </trkpt>
      <trkpt lat="42.857468" lon="-7.778872">
        <ele>615.010</ele>
        <time>2022-08-21T10:53:19Z</time>
      </trkpt>
      <trkpt lat="42.857502" lon="-7.778933">
        <ele>614.850</ele>
        <time>2022-08-21T10:53:23Z</time>
      </trkpt>
      <trkpt lat="42.857540" lon="-7.778980">
        <ele>614.612</ele>
        <time>2022-08-21T10:53:27Z</time>
      </trkpt>
      <trkpt lat="42.857577" lon="-7.779027">
        <ele>614.434</ele>
        <time>2022-08-21T10:53:31Z</time>
      </trkpt>
      <trkpt lat="42.857615" lon="-7.779073">
        <ele>614.289</ele>
        <time>2022-08-21T10:53:35Z</time>
      </trkpt>
      <trkpt lat="42.857657" lon="-7.779104">
        <ele>614.069</ele>
        <time>2022-08-21T10:53:39Z</time>
      </trkpt>
      <trkpt lat="42.857705" lon="-7.779125">
        <ele>613.912</ele>
        <time>2022-08-21T10:53:44Z</time>
      </trkpt>
      <trkpt lat="42.857754" lon="-7.779149">
        <ele>613.884</ele>
        <time>2022-08-21T10:53:48Z</time>
      </trkpt>
      <trkpt lat="42.857802" lon="-7.779158">
        <ele>613.785</ele>
        <time>2022-08-21T10:53:52Z</time>
      </trkpt>
      <trkpt lat="42.857858" lon="-7.779170">
        <ele>613.689</ele>
        <time>2022-08-21T10:53:57Z</time>
      </trkpt>
      <trkpt lat="42.857913" lon="-7.779181">
        <ele>613.517</ele>
        <time>2022-08-21T10:54:02Z</time>
      </trkpt>
      <trkpt lat="42.857966" lon="-7.779201">
        <ele>613.309</ele>
        <time>2022-08-21T10:54:07Z</time>
      </trkpt>
      <trkpt lat="42.858013" lon="-7.779221">
        <ele>613.169</ele>
        <time>2022-08-21T10:54:11Z</time>
      </trkpt>
      <trkpt lat="42.858068" lon="-7.779234">
        <ele>612.999</ele>
        <time>2022-08-21T10:54:15Z</time>
      </trkpt>
      <trkpt lat="42.858114" lon="-7.779248">
        <ele>612.949</ele>
        <time>2022-08-21T10:54:18Z</time>
      </trkpt>
      <trkpt lat="42.858171" lon="-7.779270">
        <ele>612.971</ele>
        <time>2022-08-21T10:54:22Z</time>
      </trkpt>
      <trkpt lat="42.858215" lon="-7.779288">
        <ele>612.913</ele>
        <time>2022-08-21T10:54:25Z</time>
      </trkpt>
      <trkpt lat="42.858268" lon="-7.779313">
        <ele>612.918</ele>
        <time>2022-08-21T10:54:29Z</time>
      </trkpt>
      <trkpt lat="42.858322" lon="-7.779343">
        <ele>612.988</ele>
        <time>2022-08-21T10:54:33Z</time>
      </trkpt>
      <trkpt lat="42.858371" lon="-7.779382">
        <ele>612.841</ele>
        <time>2022-08-21T10:54:37Z</time>
      </trkpt>
      <trkpt lat="42.858422" lon="-7.779417">
        <ele>612.653</ele>
        <time>2022-08-21T10:54:41Z</time>
      </trkpt>
      <trkpt lat="42.858471" lon="-7.779461">
        <ele>612.652</ele>
        <time>2022-08-21T10:54:45Z</time>
      </trkpt>
      <trkpt lat="42.858520" lon="-7.779501">
        <ele>612.653</ele>
        <time>2022-08-21T10:54:49Z</time>
      </trkpt>
      <trkpt lat="42.858561" lon="-7.779552">
        <ele>612.608</ele>
        <time>2022-08-21T10:54:53Z</time>
      </trkpt>
      <trkpt lat="42.858597" lon="-7.779596">
        <ele>612.809</ele>
        <time>2022-08-21T10:54:58Z</time>
      </trkpt>
      <trkpt lat="42.858648" lon="-7.779633">
        <ele>612.926</ele>
        <time>2022-08-21T10:55:02Z</time>
      </trkpt>
      <trkpt lat="42.858697" lon="-7.779667">
        <ele>613.016</ele>
        <time>2022-08-21T10:55:07Z</time>
      </trkpt>
      <trkpt lat="42.858734" lon="-7.779703">
        <ele>613.056</ele>
        <time>2022-08-21T10:55:10Z</time>
      </trkpt>
      <trkpt lat="42.858786" lon="-7.779730">
        <ele>613.048</ele>
        <time>2022-08-21T10:55:14Z</time>
      </trkpt>
      <trkpt lat="42.858827" lon="-7.779769">
        <ele>613.010</ele>
        <time>2022-08-21T10:55:18Z</time>
      </trkpt>
      <trkpt lat="42.858869" lon="-7.779816">
        <ele>613.095</ele>
        <time>2022-08-21T10:55:22Z</time>
      </trkpt>
      <trkpt lat="42.858906" lon="-7.779860">
        <ele>613.045</ele>
        <time>2022-08-21T10:55:26Z</time>
      </trkpt>
      <trkpt lat="42.858947" lon="-7.779911">
        <ele>613.058</ele>
        <time>2022-08-21T10:55:30Z</time>
      </trkpt>
      <trkpt lat="42.858974" lon="-7.779966">
        <ele>612.950</ele>
        <time>2022-08-21T10:55:34Z</time>
      </trkpt>
      <trkpt lat="42.859014" lon="-7.780015">
        <ele>612.987</ele>
        <time>2022-08-21T10:55:38Z</time>
      </trkpt>
      <trkpt lat="42.859045" lon="-7.780075">
        <ele>612.942</ele>
        <time>2022-08-21T10:55:42Z</time>
      </trkpt>
      <trkpt lat="42.859073" lon="-7.780135">
        <ele>612.926</ele>
        <time>2022-08-21T10:55:46Z</time>
      </trkpt>
      <trkpt lat="42.859107" lon="-7.780197">
        <ele>612.909</ele>
        <time>2022-08-21T10:55:51Z</time>
      </trkpt>
      <trkpt lat="42.859148" lon="-7.780245">
        <ele>612.989</ele>
        <time>2022-08-21T10:55:56Z</time>
      </trkpt>
      <trkpt lat="42.859187" lon="-7.780291">
        <ele>612.939</ele>
        <time>2022-08-21T10:56:00Z</time>
      </trkpt>
      <trkpt lat="42.859218" lon="-7.780359">
        <ele>612.839</ele>
        <time>2022-08-21T10:56:04Z</time>
      </trkpt>
      <trkpt lat="42.859251" lon="-7.780414">
        <ele>612.841</ele>
        <time>2022-08-21T10:56:08Z</time>
      </trkpt>
      <trkpt lat="42.859280" lon="-7.780461">
        <ele>612.863</ele>
        <time>2022-08-21T10:56:11Z</time>
      </trkpt>
      <trkpt lat="42.859320" lon="-7.780514">
        <ele>612.838</ele>
        <time>2022-08-21T10:56:15Z</time>
      </trkpt>
      <trkpt lat="42.859358" lon="-7.780565">
        <ele>612.898</ele>
        <time>2022-08-21T10:56:19Z</time>
      </trkpt>
      <trkpt lat="42.859395" lon="-7.780615">
        <ele>612.821</ele>
        <time>2022-08-21T10:56:23Z</time>
      </trkpt>
      <trkpt lat="42.859431" lon="-7.780667">
        <ele>612.783</ele>
        <time>2022-08-21T10:56:27Z</time>
      </trkpt>
      <trkpt lat="42.859471" lon="-7.780716">
        <ele>612.636</ele>
        <time>2022-08-21T10:56:31Z</time>
      </trkpt>
      <trkpt lat="42.859493" lon="-7.780775">
        <ele>612.517</ele>
        <time>2022-08-21T10:56:35Z</time>
      </trkpt>
      <trkpt lat="42.859530" lon="-7.780832">
        <ele>612.418</ele>
        <time>2022-08-21T10:56:40Z</time>
      </trkpt>
      <trkpt lat="42.859573" lon="-7.780874">
        <ele>612.309</ele>
        <time>2022-08-21T10:56:44Z</time>
      </trkpt>
      <trkpt lat="42.859613" lon="-7.780922">
        <ele>612.214</ele>
        <time>2022-08-21T10:56:48Z</time>
      </trkpt>
      <trkpt lat="42.859650" lon="-7.780966">
        <ele>612.144</ele>
        <time>2022-08-21T10:56:53Z</time>
      </trkpt>
      <trkpt lat="42.859679" lon="-7.781013">
        <ele>612.094</ele>
        <time>2022-08-21T10:56:57Z</time>
      </trkpt>
      <trkpt lat="42.859717" lon="-7.781056">
        <ele>611.976</ele>
        <time>2022-08-21T10:57:01Z</time>
      </trkpt>
      <trkpt lat="42.859764" lon="-7.781093">
        <ele>611.848</ele>
        <time>2022-08-21T10:57:05Z</time>
      </trkpt>
      <trkpt lat="42.859806" lon="-7.781141">
        <ele>611.723</ele>
        <time>2022-08-21T10:57:09Z</time>
      </trkpt>
      <trkpt lat="42.859854" lon="-7.781196">
        <ele>611.613</ele>
        <time>2022-08-21T10:57:14Z</time>
      </trkpt>
      <trkpt lat="42.859886" lon="-7.781246">
        <ele>611.586</ele>
        <time>2022-08-21T10:57:18Z</time>
      </trkpt>
      <trkpt lat="42.859923" lon="-7.781290">
        <ele>611.428</ele>
        <time>2022-08-21T10:57:22Z</time>
      </trkpt>
      <trkpt lat="42.859961" lon="-7.781334">
        <ele>611.264</ele>
        <time>2022-08-21T10:57:26Z</time>
      </trkpt>
      <trkpt lat="42.859986" lon="-7.781391">
        <ele>611.106</ele>
        <time>2022-08-21T10:57:30Z</time>
      </trkpt>
      <trkpt lat="42.860035" lon="-7.781421">
        <ele>611.016</ele>
        <time>2022-08-21T10:57:35Z</time>
      </trkpt>
      <trkpt lat="42.860083" lon="-7.781441">
        <ele>610.809</ele>
        <time>2022-08-21T10:57:40Z</time>
      </trkpt>
      <trkpt lat="42.860138" lon="-7.781425">
        <ele>610.517</ele>
        <time>2022-08-21T10:57:46Z</time>
      </trkpt>
      <trkpt lat="42.860186" lon="-7.781423">
        <ele>610.187</ele>
        <time>2022-08-21T10:57:49Z</time>
      </trkpt>
      <trkpt lat="42.860239" lon="-7.781427">
        <ele>609.787</ele>
        <time>2022-08-21T10:57:53Z</time>
      </trkpt>
      <trkpt lat="42.860281" lon="-7.781454">
        <ele>609.399</ele>
        <time>2022-08-21T10:57:56Z</time>
      </trkpt>
      <trkpt lat="42.860326" lon="-7.781513">
        <ele>609.071</ele>
        <time>2022-08-21T10:58:00Z</time>
      </trkpt>
      <trkpt lat="42.860370" lon="-7.781564">
        <ele>608.766</ele>
        <time>2022-08-21T10:58:04Z</time>
      </trkpt>
      <trkpt lat="42.860412" lon="-7.781600">
        <ele>608.456</ele>
        <time>2022-08-21T10:58:08Z</time>
      </trkpt>
      <trkpt lat="42.860456" lon="-7.781649">
        <ele>608.089</ele>
        <time>2022-08-21T10:58:12Z</time>
      </trkpt>
      <trkpt lat="42.860496" lon="-7.781688">
        <ele>607.841</ele>
        <time>2022-08-21T10:58:15Z</time>
      </trkpt>
      <trkpt lat="42.860534" lon="-7.781722">
        <ele>607.773</ele>
        <time>2022-08-21T10:58:18Z</time>
      </trkpt>
      <trkpt lat="42.860576" lon="-7.781765">
        <ele>607.585</ele>
        <time>2022-08-21T10:58:22Z</time>
      </trkpt>
      <trkpt lat="42.860618" lon="-7.781812">
        <ele>607.313</ele>
        <time>2022-08-21T10:58:26Z</time>
      </trkpt>
      <trkpt lat="42.860661" lon="-7.781857">
        <ele>607.109</ele>
        <time>2022-08-21T10:58:30Z</time>
      </trkpt>
      <trkpt lat="42.860696" lon="-7.781912">
        <ele>606.948</ele>
        <time>2022-08-21T10:58:34Z</time>
      </trkpt>
      <trkpt lat="42.860741" lon="-7.781952">
        <ele>606.678</ele>
        <time>2022-08-21T10:58:39Z</time>
      </trkpt>
      <trkpt lat="42.860780" lon="-7.781992">
        <ele>606.378</ele>
        <time>2022-08-21T10:58:43Z</time>
      </trkpt>
      <trkpt lat="42.860823" lon="-7.782036">
        <ele>605.930</ele>
        <time>2022-08-21T10:58:47Z</time>
      </trkpt>
      <trkpt lat="42.860867" lon="-7.782075">
        <ele>605.632</ele>
        <time>2022-08-21T10:58:51Z</time>
      </trkpt>
      <trkpt lat="42.860905" lon="-7.782112">
        <ele>605.357</ele>
        <time>2022-08-21T10:58:55Z</time>
      </trkpt>
      <trkpt lat="42.860943" lon="-7.782152">
        <ele>605.077</ele>
        <time>2022-08-21T10:58:59Z</time>
      </trkpt>
      <trkpt lat="42.860980" lon="-7.782198">
        <ele>604.770</ele>
        <time>2022-08-21T10:59:03Z</time>
      </trkpt>
      <trkpt lat="42.861020" lon="-7.782243">
        <ele>604.412</ele>
        <time>2022-08-21T10:59:07Z</time>
      </trkpt>
      <trkpt lat="42.861061" lon="-7.782288">
        <ele>604.268</ele>
        <time>2022-08-21T10:59:11Z</time>
      </trkpt>
      <trkpt lat="42.861105" lon="-7.782330">
        <ele>604.042</ele>
        <time>2022-08-21T10:59:15Z</time>
      </trkpt>
      <trkpt lat="42.861145" lon="-7.782376">
        <ele>603.726</ele>
        <time>2022-08-21T10:59:19Z</time>
      </trkpt>
      <trkpt lat="42.861186" lon="-7.782413">
        <ele>603.509</ele>
        <time>2022-08-21T10:59:23Z</time>
      </trkpt>
      <trkpt lat="42.861225" lon="-7.782453">
        <ele>603.347</ele>
        <time>2022-08-21T10:59:27Z</time>
      </trkpt>
      <trkpt lat="42.861266" lon="-7.782492">
        <ele>603.217</ele>
        <time>2022-08-21T10:59:31Z</time>
      </trkpt>
      <trkpt lat="42.861304" lon="-7.782536">
        <ele>603.137</ele>
        <time>2022-08-21T10:59:35Z</time>
      </trkpt>
      <trkpt lat="42.861346" lon="-7.782583">
        <ele>602.969</ele>
        <time>2022-08-21T10:59:40Z</time>
      </trkpt>
      <trkpt lat="42.861383" lon="-7.782624">
        <ele>602.651</ele>
        <time>2022-08-21T10:59:45Z</time>
      </trkpt>
      <trkpt lat="42.861424" lon="-7.782674">
        <ele>602.356</ele>
        <time>2022-08-21T10:59:51Z</time>
      </trkpt>
      <trkpt lat="42.861439" lon="-7.782745">
        <ele>602.076</ele>
        <time>2022-08-21T10:59:57Z</time>
      </trkpt>
      <trkpt lat="42.861464" lon="-7.782797">
        <ele>601.879</ele>
        <time>2022-08-21T11:00:02Z</time>
      </trkpt>
      <trkpt lat="42.861489" lon="-7.782856">
        <ele>601.151</ele>
        <time>2022-08-21T11:00:07Z</time>
      </trkpt>
      <trkpt lat="42.861509" lon="-7.782915">
        <ele>600.026</ele>
        <time>2022-08-21T11:00:12Z</time>
      </trkpt>
      <trkpt lat="42.861549" lon="-7.782955">
        <ele>599.047</ele>
        <time>2022-08-21T11:00:17Z</time>
      </trkpt>
      <trkpt lat="42.861583" lon="-7.783000">
        <ele>598.111</ele>
        <time>2022-08-21T11:00:22Z</time>
      </trkpt>
      <trkpt lat="42.861626" lon="-7.783036">
        <ele>597.209</ele>
        <time>2022-08-21T11:00:28Z</time>
      </trkpt>
      <trkpt lat="42.861669" lon="-7.783085">
        <ele>596.463</ele>
        <time>2022-08-21T11:00:36Z</time>
      </trkpt>
      <trkpt lat="42.861708" lon="-7.783120">
        <ele>595.733</ele>
        <time>2022-08-21T11:00:41Z</time>
      </trkpt>
      <trkpt lat="42.861757" lon="-7.783161">
        <ele>594.963</ele>
        <time>2022-08-21T11:00:50Z</time>
      </trkpt>
      <trkpt lat="42.861805" lon="-7.783180">
        <ele>594.155</ele>
        <time>2022-08-21T11:00:55Z</time>
      </trkpt>
      <trkpt lat="42.861853" lon="-7.783193">
        <ele>593.177</ele>
        <time>2022-08-21T11:01:00Z</time>
      </trkpt>
      <trkpt lat="42.861898" lon="-7.783209">
        <ele>591.912</ele>
        <time>2022-08-21T11:01:05Z</time>
      </trkpt>
      <trkpt lat="42.861941" lon="-7.783247">
        <ele>591.062</ele>
        <time>2022-08-21T11:01:16Z</time>
      </trkpt>
      <trkpt lat="42.861985" lon="-7.783267">
        <ele>590.615</ele>
        <time>2022-08-21T11:01:25Z</time>
      </trkpt>
      <trkpt lat="42.862033" lon="-7.783293">
        <ele>590.127</ele>
        <time>2022-08-21T11:01:33Z</time>
      </trkpt>
      <trkpt lat="42.862077" lon="-7.783332">
        <ele>589.136</ele>
        <time>2022-08-21T11:01:39Z</time>
      </trkpt>
      <trkpt lat="42.862127" lon="-7.783334">
        <ele>588.117</ele>
        <time>2022-08-21T11:01:44Z</time>
      </trkpt>
      <trkpt lat="42.862172" lon="-7.783374">
        <ele>587.318</ele>
        <time>2022-08-21T11:01:48Z</time>
      </trkpt>
      <trkpt lat="42.862206" lon="-7.783427">
        <ele>586.809</ele>
        <time>2022-08-21T11:01:53Z</time>
      </trkpt>
      <trkpt lat="42.862238" lon="-7.783483">
        <ele>586.514</ele>
        <time>2022-08-21T11:01:58Z</time>
      </trkpt>
      <trkpt lat="42.862267" lon="-7.783546">
        <ele>586.314</ele>
        <time>2022-08-21T11:02:02Z</time>
      </trkpt>
      <trkpt lat="42.862293" lon="-7.783617">
        <ele>586.084</ele>
        <time>2022-08-21T11:02:07Z</time>
      </trkpt>
      <trkpt lat="42.862311" lon="-7.783679">
        <ele>586.066</ele>
        <time>2022-08-21T11:02:11Z</time>
      </trkpt>
      <trkpt lat="42.862330" lon="-7.783744">
        <ele>586.048</ele>
        <time>2022-08-21T11:02:15Z</time>
      </trkpt>
      <trkpt lat="42.862333" lon="-7.783824">
        <ele>586.083</ele>
        <time>2022-08-21T11:02:19Z</time>
      </trkpt>
      <trkpt lat="42.862349" lon="-7.783887">
        <ele>586.093</ele>
        <time>2022-08-21T11:02:24Z</time>
      </trkpt>
      <trkpt lat="42.862367" lon="-7.783945">
        <ele>586.156</ele>
        <time>2022-08-21T11:02:29Z</time>
      </trkpt>
      <trkpt lat="42.862383" lon="-7.784012">
        <ele>586.398</ele>
        <time>2022-08-21T11:02:33Z</time>
      </trkpt>
      <trkpt lat="42.862404" lon="-7.784067">
        <ele>586.688</ele>
        <time>2022-08-21T11:02:37Z</time>
      </trkpt>
      <trkpt lat="42.862425" lon="-7.784129">
        <ele>587.024</ele>
        <time>2022-08-21T11:02:41Z</time>
      </trkpt>
      <trkpt lat="42.862443" lon="-7.784189">
        <ele>587.626</ele>
        <time>2022-08-21T11:02:45Z</time>
      </trkpt>
      <trkpt lat="42.862462" lon="-7.784254">
        <ele>588.209</ele>
        <time>2022-08-21T11:02:49Z</time>
      </trkpt>
      <trkpt lat="42.862479" lon="-7.784324">
        <ele>588.899</ele>
        <time>2022-08-21T11:02:55Z</time>
      </trkpt>
      <trkpt lat="42.862497" lon="-7.784380">
        <ele>589.589</ele>
        <time>2022-08-21T11:02:59Z</time>
      </trkpt>
      <trkpt lat="42.862520" lon="-7.784443">
        <ele>590.319</ele>
        <time>2022-08-21T11:03:04Z</time>
      </trkpt>
      <trkpt lat="42.862536" lon="-7.784512">
        <ele>591.291</ele>
        <time>2022-08-21T11:03:08Z</time>
      </trkpt>
      <trkpt lat="42.862564" lon="-7.784571">
        <ele>592.033</ele>
        <time>2022-08-21T11:03:13Z</time>
      </trkpt>
      <trkpt lat="42.862583" lon="-7.784637">
        <ele>592.628</ele>
        <time>2022-08-21T11:03:17Z</time>
      </trkpt>
      <trkpt lat="42.862601" lon="-7.784713">
        <ele>593.088</ele>
        <time>2022-08-21T11:03:22Z</time>
      </trkpt>
      <trkpt lat="42.862622" lon="-7.784786">
        <ele>593.511</ele>
        <time>2022-08-21T11:03:27Z</time>
      </trkpt>
      <trkpt lat="42.862647" lon="-7.784842">
        <ele>593.783</ele>
        <time>2022-08-21T11:03:31Z</time>
      </trkpt>
      <trkpt lat="42.862667" lon="-7.784903">
        <ele>594.014</ele>
        <time>2022-08-21T11:03:35Z</time>
      </trkpt>
      <trkpt lat="42.862696" lon="-7.784965">
        <ele>594.354</ele>
        <time>2022-08-21T11:03:40Z</time>
      </trkpt>
      <trkpt lat="42.862731" lon="-7.785005">
        <ele>594.609</ele>
        <time>2022-08-21T11:03:44Z</time>
      </trkpt>
      <trkpt lat="42.862779" lon="-7.785049">
        <ele>595.009</ele>
        <time>2022-08-21T11:03:49Z</time>
      </trkpt>
      <trkpt lat="42.862832" lon="-7.785087">
        <ele>595.482</ele>
        <time>2022-08-21T11:03:54Z</time>
      </trkpt>
      <trkpt lat="42.862881" lon="-7.785104">
        <ele>595.992</ele>
        <time>2022-08-21T11:03:58Z</time>
      </trkpt>
      <trkpt lat="42.862929" lon="-7.785109">
        <ele>596.612</ele>
        <time>2022-08-21T11:04:02Z</time>
      </trkpt>
      <trkpt lat="42.862980" lon="-7.785123">
        <ele>597.234</ele>
        <time>2022-08-21T11:04:08Z</time>
      </trkpt>
      <trkpt lat="42.863037" lon="-7.785143">
        <ele>597.846</ele>
        <time>2022-08-21T11:04:12Z</time>
      </trkpt>
      <trkpt lat="42.863098" lon="-7.785170">
        <ele>598.781</ele>
        <time>2022-08-21T11:04:16Z</time>
      </trkpt>
      <trkpt lat="42.863154" lon="-7.785193">
        <ele>599.111</ele>
        <time>2022-08-21T11:04:20Z</time>
      </trkpt>
      <trkpt lat="42.863207" lon="-7.785208">
        <ele>599.654</ele>
        <time>2022-08-21T11:04:24Z</time>
      </trkpt>
      <trkpt lat="42.863259" lon="-7.785236">
        <ele>600.016</ele>
        <time>2022-08-21T11:04:28Z</time>
      </trkpt>
      <trkpt lat="42.863311" lon="-7.785254">
        <ele>600.447</ele>
        <time>2022-08-21T11:04:32Z</time>
      </trkpt>
      <trkpt lat="42.863361" lon="-7.785278">
        <ele>600.829</ele>
        <time>2022-08-21T11:04:36Z</time>
      </trkpt>
      <trkpt lat="42.863409" lon="-7.785298">
        <ele>601.021</ele>
        <time>2022-08-21T11:04:40Z</time>
      </trkpt>
      <trkpt lat="42.863451" lon="-7.785327">
        <ele>601.309</ele>
        <time>2022-08-21T11:04:43Z</time>
      </trkpt>
      <trkpt lat="42.863492" lon="-7.785358">
        <ele>601.575</ele>
        <time>2022-08-21T11:04:46Z</time>
      </trkpt>
      <trkpt lat="42.863527" lon="-7.785399">
        <ele>601.755</ele>
        <time>2022-08-21T11:04:49Z</time>
      </trkpt>
      <trkpt lat="42.863573" lon="-7.785447">
        <ele>601.995</ele>
        <time>2022-08-21T11:04:53Z</time>
      </trkpt>
      <trkpt lat="42.863622" lon="-7.785489">
        <ele>602.167</ele>
        <time>2022-08-21T11:04:57Z</time>
      </trkpt>
      <trkpt lat="42.863662" lon="-7.785537">
        <ele>602.329</ele>
        <time>2022-08-21T11:05:01Z</time>
      </trkpt>
      <trkpt lat="42.863702" lon="-7.785586">
        <ele>602.614</ele>
        <time>2022-08-21T11:05:05Z</time>
      </trkpt>
      <trkpt lat="42.863742" lon="-7.785621">
        <ele>602.984</ele>
        <time>2022-08-21T11:05:09Z</time>
      </trkpt>
      <trkpt lat="42.863783" lon="-7.785660">
        <ele>603.237</ele>
        <time>2022-08-21T11:05:13Z</time>
      </trkpt>
      <trkpt lat="42.863828" lon="-7.785711">
        <ele>603.519</ele>
        <time>2022-08-21T11:05:17Z</time>
      </trkpt>
      <trkpt lat="42.863865" lon="-7.785760">
        <ele>603.966</ele>
        <time>2022-08-21T11:05:22Z</time>
      </trkpt>
      <trkpt lat="42.863897" lon="-7.785803">
        <ele>604.229</ele>
        <time>2022-08-21T11:05:26Z</time>
      </trkpt>
      <trkpt lat="42.863934" lon="-7.785849">
        <ele>604.521</ele>
        <time>2022-08-21T11:05:30Z</time>
      </trkpt>
      <trkpt lat="42.863970" lon="-7.785912">
        <ele>604.909</ele>
        <time>2022-08-21T11:05:35Z</time>
      </trkpt>
      <trkpt lat="42.864009" lon="-7.785960">
        <ele>605.347</ele>
        <time>2022-08-21T11:05:39Z</time>
      </trkpt>
      <trkpt lat="42.864040" lon="-7.786011">
        <ele>605.777</ele>
        <time>2022-08-21T11:05:43Z</time>
      </trkpt>
      <trkpt lat="42.864077" lon="-7.786060">
        <ele>606.167</ele>
        <time>2022-08-21T11:05:47Z</time>
      </trkpt>
      <trkpt lat="42.864116" lon="-7.786098">
        <ele>606.419</ele>
        <time>2022-08-21T11:05:51Z</time>
      </trkpt>
      <trkpt lat="42.864151" lon="-7.786148">
        <ele>606.721</ele>
        <time>2022-08-21T11:05:55Z</time>
      </trkpt>
      <trkpt lat="42.864195" lon="-7.786192">
        <ele>607.086</ele>
        <time>2022-08-21T11:06:00Z</time>
      </trkpt>
      <trkpt lat="42.864236" lon="-7.786236">
        <ele>607.346</ele>
        <time>2022-08-21T11:06:05Z</time>
      </trkpt>
      <trkpt lat="42.864274" lon="-7.786273">
        <ele>607.759</ele>
        <time>2022-08-21T11:06:09Z</time>
      </trkpt>
      <trkpt lat="42.864310" lon="-7.786319">
        <ele>608.461</ele>
        <time>2022-08-21T11:06:13Z</time>
      </trkpt>
      <trkpt lat="42.864351" lon="-7.786371">
        <ele>609.174</ele>
        <time>2022-08-21T11:06:17Z</time>
      </trkpt>
      <trkpt lat="42.864396" lon="-7.786422">
        <ele>609.756</ele>
        <time>2022-08-21T11:06:21Z</time>
      </trkpt>
      <trkpt lat="42.864439" lon="-7.786460">
        <ele>610.321</ele>
        <time>2022-08-21T11:06:25Z</time>
      </trkpt>
      <trkpt lat="42.864477" lon="-7.786498">
        <ele>610.809</ele>
        <time>2022-08-21T11:06:29Z</time>
      </trkpt>
      <trkpt lat="42.864517" lon="-7.786537">
        <ele>611.318</ele>
        <time>2022-08-21T11:06:33Z</time>
      </trkpt>
      <trkpt lat="42.864563" lon="-7.786550">
        <ele>611.988</ele>
        <time>2022-08-21T11:06:38Z</time>
      </trkpt>
      <trkpt lat="42.864601" lon="-7.786602">
        <ele>612.518</ele>
        <time>2022-08-21T11:06:42Z</time>
      </trkpt>
      <trkpt lat="42.864639" lon="-7.786643">
        <ele>613.050</ele>
        <time>2022-08-21T11:06:46Z</time>
      </trkpt>
      <trkpt lat="42.864681" lon="-7.786691">
        <ele>613.582</ele>
        <time>2022-08-21T11:06:50Z</time>
      </trkpt>
      <trkpt lat="42.864719" lon="-7.786739">
        <ele>614.027</ele>
        <time>2022-08-21T11:06:55Z</time>
      </trkpt>
      <trkpt lat="42.864761" lon="-7.786781">
        <ele>614.597</ele>
        <time>2022-08-21T11:06:59Z</time>
      </trkpt>
      <trkpt lat="42.864812" lon="-7.786814">
        <ele>615.090</ele>
        <time>2022-08-21T11:07:04Z</time>
      </trkpt>
      <trkpt lat="42.864862" lon="-7.786838">
        <ele>615.392</ele>
        <time>2022-08-21T11:07:08Z</time>
      </trkpt>
      <trkpt lat="42.864913" lon="-7.786862">
        <ele>615.584</ele>
        <time>2022-08-21T11:07:12Z</time>
      </trkpt>
      <trkpt lat="42.864964" lon="-7.786895">
        <ele>615.707</ele>
        <time>2022-08-21T11:07:16Z</time>
      </trkpt>
      <trkpt lat="42.865008" lon="-7.786946">
        <ele>615.917</ele>
        <time>2022-08-21T11:07:20Z</time>
      </trkpt>
      <trkpt lat="42.865051" lon="-7.786998">
        <ele>616.109</ele>
        <time>2022-08-21T11:07:24Z</time>
      </trkpt>
      <trkpt lat="42.865100" lon="-7.787039">
        <ele>616.149</ele>
        <time>2022-08-21T11:07:28Z</time>
      </trkpt>
      <trkpt lat="42.865146" lon="-7.787076">
        <ele>616.269</ele>
        <time>2022-08-21T11:07:32Z</time>
      </trkpt>
      <trkpt lat="42.865192" lon="-7.787111">
        <ele>616.489</ele>
        <time>2022-08-21T11:07:37Z</time>
      </trkpt>
      <trkpt lat="42.865241" lon="-7.787150">
        <ele>616.581</ele>
        <time>2022-08-21T11:07:43Z</time>
      </trkpt>
      <trkpt lat="42.865285" lon="-7.787188">
        <ele>616.713</ele>
        <time>2022-08-21T11:07:47Z</time>
      </trkpt>
      <trkpt lat="42.865316" lon="-7.787234">
        <ele>616.868</ele>
        <time>2022-08-21T11:07:52Z</time>
      </trkpt>
      <trkpt lat="42.865358" lon="-7.787286">
        <ele>617.048</ele>
        <time>2022-08-21T11:07:57Z</time>
      </trkpt>
      <trkpt lat="42.865393" lon="-7.787343">
        <ele>617.291</ele>
        <time>2022-08-21T11:08:00Z</time>
      </trkpt>
      <trkpt lat="42.865425" lon="-7.787404">
        <ele>617.463</ele>
        <time>2022-08-21T11:08:04Z</time>
      </trkpt>
      <trkpt lat="42.865454" lon="-7.787467">
        <ele>617.554</ele>
        <time>2022-08-21T11:08:08Z</time>
      </trkpt>
      <trkpt lat="42.865475" lon="-7.787529">
        <ele>617.756</ele>
        <time>2022-08-21T11:08:11Z</time>
      </trkpt>
      <trkpt lat="42.865492" lon="-7.787588">
        <ele>617.811</ele>
        <time>2022-08-21T11:08:14Z</time>
      </trkpt>
      <trkpt lat="42.865510" lon="-7.787665">
        <ele>617.909</ele>
        <time>2022-08-21T11:08:18Z</time>
      </trkpt>
      <trkpt lat="42.865528" lon="-7.787734">
        <ele>618.056</ele>
        <time>2022-08-21T11:08:22Z</time>
      </trkpt>
      <trkpt lat="42.865542" lon="-7.787801">
        <ele>618.136</ele>
        <time>2022-08-21T11:08:26Z</time>
      </trkpt>
      <trkpt lat="42.865548" lon="-7.787872">
        <ele>618.286</ele>
        <time>2022-08-21T11:08:30Z</time>
      </trkpt>
      <trkpt lat="42.865559" lon="-7.787943">
        <ele>618.368</ele>
        <time>2022-08-21T11:08:34Z</time>
      </trkpt>
      <trkpt lat="42.865575" lon="-7.788011">
        <ele>618.340</ele>
        <time>2022-08-21T11:08:38Z</time>
      </trkpt>
      <trkpt lat="42.865587" lon="-7.788082">
        <ele>618.385</ele>
        <time>2022-08-21T11:08:42Z</time>
      </trkpt>
      <trkpt lat="42.865607" lon="-7.788157">
        <ele>618.385</ele>
        <time>2022-08-21T11:08:46Z</time>
      </trkpt>
      <trkpt lat="42.865623" lon="-7.788227">
        <ele>618.328</ele>
        <time>2022-08-21T11:08:50Z</time>
      </trkpt>
      <trkpt lat="42.865632" lon="-7.788299">
        <ele>618.330</ele>
        <time>2022-08-21T11:08:54Z</time>
      </trkpt>
      <trkpt lat="42.865642" lon="-7.788374">
        <ele>618.394</ele>
        <time>2022-08-21T11:08:58Z</time>
      </trkpt>
      <trkpt lat="42.865651" lon="-7.788450">
        <ele>618.457</ele>
        <time>2022-08-21T11:09:02Z</time>
      </trkpt>
      <trkpt lat="42.865657" lon="-7.788527">
        <ele>618.422</ele>
        <time>2022-08-21T11:09:06Z</time>
      </trkpt>
      <trkpt lat="42.865668" lon="-7.788599">
        <ele>618.409</ele>
        <time>2022-08-21T11:09:10Z</time>
      </trkpt>
      <trkpt lat="42.865676" lon="-7.788677">
        <ele>618.440</ele>
        <time>2022-08-21T11:09:14Z</time>
      </trkpt>
      <trkpt lat="42.865685" lon="-7.788753">
        <ele>618.430</ele>
        <time>2022-08-21T11:09:18Z</time>
      </trkpt>
      <trkpt lat="42.865682" lon="-7.788828">
        <ele>618.260</ele>
        <time>2022-08-21T11:09:22Z</time>
      </trkpt>
      <trkpt lat="42.865680" lon="-7.788902">
        <ele>618.152</ele>
        <time>2022-08-21T11:09:26Z</time>
      </trkpt>
      <trkpt lat="42.865671" lon="-7.788977">
        <ele>617.954</ele>
        <time>2022-08-21T11:09:30Z</time>
      </trkpt>
      <trkpt lat="42.865661" lon="-7.789054">
        <ele>617.859</ele>
        <time>2022-08-21T11:09:34Z</time>
      </trkpt>
      <trkpt lat="42.865639" lon="-7.789120">
        <ele>617.729</ele>
        <time>2022-08-21T11:09:38Z</time>
      </trkpt>
      <trkpt lat="42.865638" lon="-7.789190">
        <ele>617.662</ele>
        <time>2022-08-21T11:09:42Z</time>
      </trkpt>
      <trkpt lat="42.865635" lon="-7.789261">
        <ele>617.474</ele>
        <time>2022-08-21T11:09:46Z</time>
      </trkpt>
      <trkpt lat="42.865631" lon="-7.789329">
        <ele>617.231</ele>
        <time>2022-08-21T11:09:50Z</time>
      </trkpt>
      <trkpt lat="42.865633" lon="-7.789401">
        <ele>616.961</ele>
        <time>2022-08-21T11:09:54Z</time>
      </trkpt>
      <trkpt lat="42.865620" lon="-7.789460">
        <ele>616.707</ele>
        <time>2022-08-21T11:09:57Z</time>
      </trkpt>
      <trkpt lat="42.865620" lon="-7.789532">
        <ele>616.509</ele>
        <time>2022-08-21T11:10:01Z</time>
      </trkpt>
      <trkpt lat="42.865605" lon="-7.789590">
        <ele>616.354</ele>
        <time>2022-08-21T11:10:04Z</time>
      </trkpt>
      <trkpt lat="42.865598" lon="-7.789658">
        <ele>616.114</ele>
        <time>2022-08-21T11:10:08Z</time>
      </trkpt>
      <trkpt lat="42.865599" lon="-7.789732">
        <ele>615.944</ele>
        <time>2022-08-21T11:10:12Z</time>
      </trkpt>
      <trkpt lat="42.865593" lon="-7.789796">
        <ele>615.746</ele>
        <time>2022-08-21T11:10:16Z</time>
      </trkpt>
      <trkpt lat="42.865581" lon="-7.789864">
        <ele>615.568</ele>
        <time>2022-08-21T11:10:20Z</time>
      </trkpt>
      <trkpt lat="42.865575" lon="-7.789925">
        <ele>615.253</ele>
        <time>2022-08-21T11:10:23Z</time>
      </trkpt>
      <trkpt lat="42.865577" lon="-7.789994">
        <ele>614.883</ele>
        <time>2022-08-21T11:10:27Z</time>
      </trkpt>
      <trkpt lat="42.865574" lon="-7.790061">
        <ele>614.546</ele>
        <time>2022-08-21T11:10:30Z</time>
      </trkpt>
      <trkpt lat="42.865576" lon="-7.790141">
        <ele>614.198</ele>
        <time>2022-08-21T11:10:34Z</time>
      </trkpt>
      <trkpt lat="42.865575" lon="-7.790203">
        <ele>613.745</ele>
        <time>2022-08-21T11:10:37Z</time>
      </trkpt>
      <trkpt lat="42.865579" lon="-7.790272">
        <ele>613.447</ele>
        <time>2022-08-21T11:10:40Z</time>
      </trkpt>
      <trkpt lat="42.865580" lon="-7.790334">
        <ele>613.111</ele>
        <time>2022-08-21T11:10:43Z</time>
      </trkpt>
      <trkpt lat="42.865588" lon="-7.790405">
        <ele>612.809</ele>
        <time>2022-08-21T11:10:47Z</time>
      </trkpt>
      <trkpt lat="42.865606" lon="-7.790475">
        <ele>612.665</ele>
        <time>2022-08-21T11:10:52Z</time>
      </trkpt>
      <trkpt lat="42.865619" lon="-7.790537">
        <ele>612.425</ele>
        <time>2022-08-21T11:10:56Z</time>
      </trkpt>
      <trkpt lat="42.865635" lon="-7.790602">
        <ele>612.165</ele>
        <time>2022-08-21T11:11:00Z</time>
      </trkpt>
      <trkpt lat="42.865646" lon="-7.790663">
        <ele>611.897</ele>
        <time>2022-08-21T11:11:04Z</time>
      </trkpt>
      <trkpt lat="42.865668" lon="-7.790724">
        <ele>611.659</ele>
        <time>2022-08-21T11:11:08Z</time>
      </trkpt>
      <trkpt lat="42.865698" lon="-7.790793">
        <ele>611.444</ele>
        <time>2022-08-21T11:11:12Z</time>
      </trkpt>
      <trkpt lat="42.865726" lon="-7.790852">
        <ele>611.234</ele>
        <time>2022-08-21T11:11:16Z</time>
      </trkpt>
      <trkpt lat="42.865741" lon="-7.790921">
        <ele>611.087</ele>
        <time>2022-08-21T11:11:20Z</time>
      </trkpt>
      <trkpt lat="42.865760" lon="-7.790988">
        <ele>611.039</ele>
        <time>2022-08-21T11:11:24Z</time>
      </trkpt>
      <trkpt lat="42.865793" lon="-7.791050">
        <ele>611.069</ele>
        <time>2022-08-21T11:11:28Z</time>
      </trkpt>
      <trkpt lat="42.865825" lon="-7.791120">
        <ele>611.104</ele>
        <time>2022-08-21T11:11:32Z</time>
      </trkpt>
      <trkpt lat="42.865849" lon="-7.791180">
        <ele>611.224</ele>
        <time>2022-08-21T11:11:36Z</time>
      </trkpt>
      <trkpt lat="42.865874" lon="-7.791243">
        <ele>611.309</ele>
        <time>2022-08-21T11:11:40Z</time>
      </trkpt>
      <trkpt lat="42.865909" lon="-7.791301">
        <ele>611.527</ele>
        <time>2022-08-21T11:11:44Z</time>
      </trkpt>
      <trkpt lat="42.865927" lon="-7.791359">
        <ele>611.617</ele>
        <time>2022-08-21T11:11:48Z</time>
      </trkpt>
      <trkpt lat="42.865948" lon="-7.791428">
        <ele>611.737</ele>
        <time>2022-08-21T11:11:52Z</time>
      </trkpt>
      <trkpt lat="42.865966" lon="-7.791499">
        <ele>611.849</ele>
        <time>2022-08-21T11:11:56Z</time>
      </trkpt>
      <trkpt lat="42.865977" lon="-7.791559">
        <ele>611.941</ele>
        <time>2022-08-21T11:11:59Z</time>
      </trkpt>
      <trkpt lat="42.865995" lon="-7.791633">
        <ele>612.026</ele>
        <time>2022-08-21T11:12:03Z</time>
      </trkpt>
      <trkpt lat="42.866014" lon="-7.791701">
        <ele>612.186</ele>
        <time>2022-08-21T11:12:07Z</time>
      </trkpt>
      <trkpt lat="42.866030" lon="-7.791778">
        <ele>612.229</ele>
        <time>2022-08-21T11:12:11Z</time>
      </trkpt>
      <trkpt lat="42.866032" lon="-7.791857">
        <ele>612.251</ele>
        <time>2022-08-21T11:12:15Z</time>
      </trkpt>
      <trkpt lat="42.866041" lon="-7.791934">
        <ele>612.293</ele>
        <time>2022-08-21T11:12:19Z</time>
      </trkpt>
      <trkpt lat="42.866037" lon="-7.792009">
        <ele>612.365</ele>
        <time>2022-08-21T11:12:23Z</time>
      </trkpt>
      <trkpt lat="42.866041" lon="-7.792078">
        <ele>612.421</ele>
        <time>2022-08-21T11:12:27Z</time>
      </trkpt>
      <trkpt lat="42.866050" lon="-7.792146">
        <ele>612.509</ele>
        <time>2022-08-21T11:12:31Z</time>
      </trkpt>
      <trkpt lat="42.866059" lon="-7.792219">
        <ele>612.530</ele>
        <time>2022-08-21T11:12:35Z</time>
      </trkpt>
      <trkpt lat="42.866059" lon="-7.792296">
        <ele>612.620</ele>
        <time>2022-08-21T11:12:39Z</time>
      </trkpt>
      <trkpt lat="42.866060" lon="-7.792375">
        <ele>612.890</ele>
        <time>2022-08-21T11:12:43Z</time>
      </trkpt>
      <trkpt lat="42.866057" lon="-7.792452">
        <ele>612.932</ele>
        <time>2022-08-21T11:12:47Z</time>
      </trkpt>
      <trkpt lat="42.866062" lon="-7.792523">
        <ele>613.154</ele>
        <time>2022-08-21T11:12:51Z</time>
      </trkpt>
      <trkpt lat="42.866063" lon="-7.792596">
        <ele>613.439</ele>
        <time>2022-08-21T11:12:55Z</time>
      </trkpt>
      <trkpt lat="42.866067" lon="-7.792667">
        <ele>613.879</ele>
        <time>2022-08-21T11:12:59Z</time>
      </trkpt>
      <trkpt lat="42.866075" lon="-7.792735">
        <ele>613.972</ele>
        <time>2022-08-21T11:13:03Z</time>
      </trkpt>
      <trkpt lat="42.866083" lon="-7.792804">
        <ele>614.244</ele>
        <time>2022-08-21T11:13:07Z</time>
      </trkpt>
      <trkpt lat="42.866092" lon="-7.792877">
        <ele>614.511</ele>
        <time>2022-08-21T11:13:11Z</time>
      </trkpt>
      <trkpt lat="42.866094" lon="-7.792950">
        <ele>614.921</ele>
        <time>2022-08-21T11:13:15Z</time>
      </trkpt>
      <trkpt lat="42.866096" lon="-7.793026">
        <ele>615.203</ele>
        <time>2022-08-21T11:13:19Z</time>
      </trkpt>
      <trkpt lat="42.866110" lon="-7.793097">
        <ele>615.409</ele>
        <time>2022-08-21T11:13:23Z</time>
      </trkpt>
      <trkpt lat="42.866119" lon="-7.793168">
        <ele>615.572</ele>
        <time>2022-08-21T11:13:27Z</time>
      </trkpt>
      <trkpt lat="42.866129" lon="-7.793237">
        <ele>615.642</ele>
        <time>2022-08-21T11:13:31Z</time>
      </trkpt>
      <trkpt lat="42.866145" lon="-7.793301">
        <ele>615.732</ele>
        <time>2022-08-21T11:13:35Z</time>
      </trkpt>
      <trkpt lat="42.866161" lon="-7.793368">
        <ele>615.894</ele>
        <time>2022-08-21T11:13:39Z</time>
      </trkpt>
      <trkpt lat="42.866171" lon="-7.793438">
        <ele>615.916</ele>
        <time>2022-08-21T11:13:43Z</time>
      </trkpt>
      <trkpt lat="42.866195" lon="-7.793503">
        <ele>616.131</ele>
        <time>2022-08-21T11:13:47Z</time>
      </trkpt>
      <trkpt lat="42.866216" lon="-7.793562">
        <ele>616.261</ele>
        <time>2022-08-21T11:13:51Z</time>
      </trkpt>
      <trkpt lat="42.866241" lon="-7.793618">
        <ele>616.364</ele>
        <time>2022-08-21T11:13:55Z</time>
      </trkpt>
      <trkpt lat="42.866269" lon="-7.793670">
        <ele>616.446</ele>
        <time>2022-08-21T11:13:59Z</time>
      </trkpt>
      <trkpt lat="42.866297" lon="-7.793728">
        <ele>616.532</ele>
        <time>2022-08-21T11:14:03Z</time>
      </trkpt>
      <trkpt lat="42.866328" lon="-7.793784">
        <ele>616.792</ele>
        <time>2022-08-21T11:14:07Z</time>
      </trkpt>
      <trkpt lat="42.866353" lon="-7.793845">
        <ele>616.811</ele>
        <time>2022-08-21T11:14:11Z</time>
      </trkpt>
      <trkpt lat="42.866386" lon="-7.793902">
        <ele>616.909</ele>
        <time>2022-08-21T11:14:16Z</time>
      </trkpt>
      <trkpt lat="42.866407" lon="-7.793962">
        <ele>617.054</ele>
        <time>2022-08-21T11:14:20Z</time>
      </trkpt>
      <trkpt lat="42.866426" lon="-7.794027">
        <ele>617.174</ele>
        <time>2022-08-21T11:14:25Z</time>
      </trkpt>
      <trkpt lat="42.866446" lon="-7.794087">
        <ele>617.334</ele>
        <time>2022-08-21T11:14:30Z</time>
      </trkpt>
      <trkpt lat="42.866467" lon="-7.794152">
        <ele>617.576</ele>
        <time>2022-08-21T11:14:35Z</time>
      </trkpt>
      <trkpt lat="42.866497" lon="-7.794215">
        <ele>617.768</ele>
        <time>2022-08-21T11:14:39Z</time>
      </trkpt>
      <trkpt lat="42.866532" lon="-7.794268">
        <ele>617.933</ele>
        <time>2022-08-21T11:14:43Z</time>
      </trkpt>
      <trkpt lat="42.866560" lon="-7.794324">
        <ele>618.043</ele>
        <time>2022-08-21T11:14:47Z</time>
      </trkpt>
      <trkpt lat="42.866593" lon="-7.794376">
        <ele>618.216</ele>
        <time>2022-08-21T11:14:52Z</time>
      </trkpt>
      <trkpt lat="42.866629" lon="-7.794416">
        <ele>618.428</ele>
        <time>2022-08-21T11:14:57Z</time>
      </trkpt>
      <trkpt lat="42.866661" lon="-7.794480">
        <ele>618.698</ele>
        <time>2022-08-21T11:15:02Z</time>
      </trkpt>
      <trkpt lat="42.866697" lon="-7.794529">
        <ele>618.815</ele>
        <time>2022-08-21T11:15:06Z</time>
      </trkpt>
      <trkpt lat="42.866735" lon="-7.794589">
        <ele>619.126</ele>
        <time>2022-08-21T11:15:11Z</time>
      </trkpt>
      <trkpt lat="42.866766" lon="-7.794636">
        <ele>619.309</ele>
        <time>2022-08-21T11:15:15Z</time>
      </trkpt>
      <trkpt lat="42.866794" lon="-7.794690">
        <ele>619.690</ele>
        <time>2022-08-21T11:15:19Z</time>
      </trkpt>
      <trkpt lat="42.866833" lon="-7.794759">
        <ele>619.970</ele>
        <time>2022-08-21T11:15:23Z</time>
      </trkpt>
      <trkpt lat="42.866861" lon="-7.794820">
        <ele>620.190</ele>
        <time>2022-08-21T11:15:26Z</time>
      </trkpt>
      <trkpt lat="42.866886" lon="-7.794886">
        <ele>620.322</ele>
        <time>2022-08-21T11:15:30Z</time>
      </trkpt>
      <trkpt lat="42.866911" lon="-7.794943">
        <ele>620.544</ele>
        <time>2022-08-21T11:15:34Z</time>
      </trkpt>
      <trkpt lat="42.866935" lon="-7.794996">
        <ele>620.779</ele>
        <time>2022-08-21T11:15:37Z</time>
      </trkpt>
      <trkpt lat="42.866956" lon="-7.795053">
        <ele>620.989</ele>
        <time>2022-08-21T11:15:42Z</time>
      </trkpt>
      <trkpt lat="42.866977" lon="-7.795121">
        <ele>621.142</ele>
        <time>2022-08-21T11:15:46Z</time>
      </trkpt>
      <trkpt lat="42.867006" lon="-7.795191">
        <ele>621.434</ele>
        <time>2022-08-21T11:15:50Z</time>
      </trkpt>
      <trkpt lat="42.867034" lon="-7.795258">
        <ele>621.765</ele>
        <time>2022-08-21T11:15:53Z</time>
      </trkpt>
      <trkpt lat="42.867061" lon="-7.795324">
        <ele>622.168</ele>
        <time>2022-08-21T11:15:57Z</time>
      </trkpt>
      <trkpt lat="42.867087" lon="-7.795383">
        <ele>622.214</ele>
        <time>2022-08-21T11:16:00Z</time>
      </trkpt>
      <trkpt lat="42.867114" lon="-7.795442">
        <ele>622.409</ele>
        <time>2022-08-21T11:16:03Z</time>
      </trkpt>
      <trkpt lat="42.867149" lon="-7.795487">
        <ele>622.517</ele>
        <time>2022-08-21T11:16:06Z</time>
      </trkpt>
      <trkpt lat="42.867175" lon="-7.795539">
        <ele>622.667</ele>
        <time>2022-08-21T11:16:09Z</time>
      </trkpt>
      <trkpt lat="42.867201" lon="-7.795607">
        <ele>622.897</ele>
        <time>2022-08-21T11:16:13Z</time>
      </trkpt>
      <trkpt lat="42.867232" lon="-7.795671">
        <ele>623.099</ele>
        <time>2022-08-21T11:16:17Z</time>
      </trkpt>
      <trkpt lat="42.867266" lon="-7.795733">
        <ele>623.271</ele>
        <time>2022-08-21T11:16:21Z</time>
      </trkpt>
      <trkpt lat="42.867295" lon="-7.795794">
        <ele>623.526</ele>
        <time>2022-08-21T11:16:25Z</time>
      </trkpt>
      <trkpt lat="42.867323" lon="-7.795865">
        <ele>623.966</ele>
        <time>2022-08-21T11:16:29Z</time>
      </trkpt>
      <trkpt lat="42.867353" lon="-7.795915">
        <ele>624.369</ele>
        <time>2022-08-21T11:16:32Z</time>
      </trkpt>
      <trkpt lat="42.867380" lon="-7.795969">
        <ele>624.441</ele>
        <time>2022-08-21T11:16:35Z</time>
      </trkpt>
      <trkpt lat="42.867410" lon="-7.796022">
        <ele>624.631</ele>
        <time>2022-08-21T11:16:39Z</time>
      </trkpt>
      <trkpt lat="42.867438" lon="-7.796088">
        <ele>624.861</ele>
        <time>2022-08-21T11:16:43Z</time>
      </trkpt>
      <trkpt lat="42.867466" lon="-7.796140">
        <ele>625.107</ele>
        <time>2022-08-21T11:16:46Z</time>
      </trkpt>
      <trkpt lat="42.867494" lon="-7.796196">
        <ele>625.509</ele>
        <time>2022-08-21T11:16:49Z</time>
      </trkpt>
      <trkpt lat="42.867528" lon="-7.796253">
        <ele>626.054</ele>
        <time>2022-08-21T11:16:53Z</time>
      </trkpt>
      <trkpt lat="42.867558" lon="-7.796311">
        <ele>626.454</ele>
        <time>2022-08-21T11:16:57Z</time>
      </trkpt>
      <trkpt lat="42.867590" lon="-7.796379">
        <ele>626.824</ele>
        <time>2022-08-21T11:17:01Z</time>
      </trkpt>
      <trkpt lat="42.867624" lon="-7.796439">
        <ele>627.346</ele>
        <time>2022-08-21T11:17:05Z</time>
      </trkpt>
      <trkpt lat="42.867649" lon="-7.796504">
        <ele>627.528</ele>
        <time>2022-08-21T11:17:09Z</time>
      </trkpt>
      <trkpt lat="42.867676" lon="-7.796556">
        <ele>627.753</ele>
        <time>2022-08-21T11:17:13Z</time>
      </trkpt>
      <trkpt lat="42.867708" lon="-7.796614">
        <ele>628.033</ele>
        <time>2022-08-21T11:17:17Z</time>
      </trkpt>
      <trkpt lat="42.867737" lon="-7.796668">
        <ele>628.356</ele>
        <time>2022-08-21T11:17:21Z</time>
      </trkpt>
      <trkpt lat="42.867763" lon="-7.796729">
        <ele>628.678</ele>
        <time>2022-08-21T11:17:25Z</time>
      </trkpt>
      <trkpt lat="42.867799" lon="-7.796788">
        <ele>629.061</ele>
        <time>2022-08-21T11:17:29Z</time>
      </trkpt>
      <trkpt lat="42.867837" lon="-7.796849">
        <ele>629.321</ele>
        <time>2022-08-21T11:17:33Z</time>
      </trkpt>
      <trkpt lat="42.867874" lon="-7.796908">
        <ele>629.813</ele>
        <time>2022-08-21T11:17:37Z</time>
      </trkpt>
      <trkpt lat="42.867911" lon="-7.796960">
        <ele>630.209</ele>
        <time>2022-08-21T11:17:41Z</time>
      </trkpt>
      <trkpt lat="42.867941" lon="-7.797011">
        <ele>630.797</ele>
        <time>2022-08-21T11:17:45Z</time>
      </trkpt>
      <trkpt lat="42.867970" lon="-7.797074">
        <ele>631.117</ele>
        <time>2022-08-21T11:17:49Z</time>
      </trkpt>
      <trkpt lat="42.868002" lon="-7.797133">
        <ele>631.367</ele>
        <time>2022-08-21T11:17:53Z</time>
      </trkpt>
      <trkpt lat="42.868036" lon="-7.797186">
        <ele>631.769</ele>
        <time>2022-08-21T11:17:57Z</time>
      </trkpt>
      <trkpt lat="42.868071" lon="-7.797241">
        <ele>632.181</ele>
        <time>2022-08-21T11:18:01Z</time>
      </trkpt>
      <trkpt lat="42.868099" lon="-7.797301">
        <ele>632.596</ele>
        <time>2022-08-21T11:18:05Z</time>
      </trkpt>
      <trkpt lat="42.868130" lon="-7.797348">
        <ele>632.966</ele>
        <time>2022-08-21T11:18:08Z</time>
      </trkpt>
      <trkpt lat="42.868169" lon="-7.797407">
        <ele>633.349</ele>
        <time>2022-08-21T11:18:12Z</time>
      </trkpt>
      <trkpt lat="42.868202" lon="-7.797461">
        <ele>633.671</ele>
        <time>2022-08-21T11:18:16Z</time>
      </trkpt>
      <trkpt lat="42.868233" lon="-7.797528">
        <ele>633.835</ele>
        <time>2022-08-21T11:18:21Z</time>
      </trkpt>
      <trkpt lat="42.868257" lon="-7.797597">
        <ele>634.186</ele>
        <time>2022-08-21T11:18:25Z</time>
      </trkpt>
      <trkpt lat="42.868281" lon="-7.797657">
        <ele>634.314</ele>
        <time>2022-08-21T11:18:29Z</time>
      </trkpt>
      <trkpt lat="42.868312" lon="-7.797715">
        <ele>634.409</ele>
        <time>2022-08-21T11:18:33Z</time>
      </trkpt>
      <trkpt lat="42.868338" lon="-7.797771">
        <ele>634.554</ele>
        <time>2022-08-21T11:18:37Z</time>
      </trkpt>
      <trkpt lat="42.868370" lon="-7.797825">
        <ele>634.664</ele>
        <time>2022-08-21T11:18:41Z</time>
      </trkpt>
      <trkpt lat="42.868410" lon="-7.797878">
        <ele>634.764</ele>
        <time>2022-08-21T11:18:45Z</time>
      </trkpt>
      <trkpt lat="42.868455" lon="-7.797925">
        <ele>634.866</ele>
        <time>2022-08-21T11:18:49Z</time>
      </trkpt>
      <trkpt lat="42.868498" lon="-7.797968">
        <ele>634.848</ele>
        <time>2022-08-21T11:18:53Z</time>
      </trkpt>
      <trkpt lat="42.868538" lon="-7.798015">
        <ele>634.813</ele>
        <time>2022-08-21T11:18:57Z</time>
      </trkpt>
      <trkpt lat="42.868579" lon="-7.798062">
        <ele>634.883</ele>
        <time>2022-08-21T11:19:01Z</time>
      </trkpt>
      <trkpt lat="42.868619" lon="-7.798107">
        <ele>634.766</ele>
        <time>2022-08-21T11:19:05Z</time>
      </trkpt>
      <trkpt lat="42.868655" lon="-7.798157">
        <ele>634.428</ele>
        <time>2022-08-21T11:19:09Z</time>
      </trkpt>
      <trkpt lat="42.868691" lon="-7.798205">
        <ele>634.293</ele>
        <time>2022-08-21T11:19:13Z</time>
      </trkpt>
      <trkpt lat="42.868730" lon="-7.798255">
        <ele>634.065</ele>
        <time>2022-08-21T11:19:17Z</time>
      </trkpt>
      <trkpt lat="42.868768" lon="-7.798296">
        <ele>633.821</ele>
        <time>2022-08-21T11:19:21Z</time>
      </trkpt>
      <trkpt lat="42.868805" lon="-7.798341">
        <ele>633.609</ele>
        <time>2022-08-21T11:19:25Z</time>
      </trkpt>
      <trkpt lat="42.868842" lon="-7.798389">
        <ele>633.560</ele>
        <time>2022-08-21T11:19:29Z</time>
      </trkpt>
      <trkpt lat="42.868882" lon="-7.798437">
        <ele>633.470</ele>
        <time>2022-08-21T11:19:33Z</time>
      </trkpt>
      <trkpt lat="42.868922" lon="-7.798478">
        <ele>633.250</ele>
        <time>2022-08-21T11:19:37Z</time>
      </trkpt>
      <trkpt lat="42.868956" lon="-7.798525">
        <ele>632.912</ele>
        <time>2022-08-21T11:19:41Z</time>
      </trkpt>
      <trkpt lat="42.868994" lon="-7.798570">
        <ele>632.614</ele>
        <time>2022-08-21T11:19:45Z</time>
      </trkpt>
      <trkpt lat="42.869031" lon="-7.798617">
        <ele>632.469</ele>
        <time>2022-08-21T11:19:49Z</time>
      </trkpt>
      <trkpt lat="42.869064" lon="-7.798662">
        <ele>632.259</ele>
        <time>2022-08-21T11:19:53Z</time>
      </trkpt>
      <trkpt lat="42.869102" lon="-7.798705">
        <ele>632.082</ele>
        <time>2022-08-21T11:19:57Z</time>
      </trkpt>
      <trkpt lat="42.869143" lon="-7.798755">
        <ele>631.794</ele>
        <time>2022-08-21T11:20:01Z</time>
      </trkpt>
      <trkpt lat="42.869183" lon="-7.798809">
        <ele>631.553</ele>
        <time>2022-08-21T11:20:05Z</time>
      </trkpt>
      <trkpt lat="42.869222" lon="-7.798857">
        <ele>631.304</ele>
        <time>2022-08-21T11:20:09Z</time>
      </trkpt>
      <trkpt lat="42.869256" lon="-7.798908">
        <ele>631.114</ele>
        <time>2022-08-21T11:20:13Z</time>
      </trkpt>
      <trkpt lat="42.869294" lon="-7.798953">
        <ele>630.909</ele>
        <time>2022-08-21T11:20:17Z</time>
      </trkpt>
      <trkpt lat="42.869329" lon="-7.799006">
        <ele>630.746</ele>
        <time>2022-08-21T11:20:21Z</time>
      </trkpt>
      <trkpt lat="42.869366" lon="-7.799057">
        <ele>630.456</ele>
        <time>2022-08-21T11:20:25Z</time>
      </trkpt>
      <trkpt lat="42.869408" lon="-7.799106">
        <ele>630.266</ele>
        <time>2022-08-21T11:20:30Z</time>
      </trkpt>
      <trkpt lat="42.869447" lon="-7.799149">
        <ele>630.058</ele>
        <time>2022-08-21T11:20:34Z</time>
      </trkpt>
      <trkpt lat="42.869484" lon="-7.799200">
        <ele>629.830</ele>
        <time>2022-08-21T11:20:38Z</time>
      </trkpt>
      <trkpt lat="42.869520" lon="-7.799249">
        <ele>629.685</ele>
        <time>2022-08-21T11:20:42Z</time>
      </trkpt>
      <trkpt lat="42.869555" lon="-7.799293">
        <ele>629.455</ele>
        <time>2022-08-21T11:20:46Z</time>
      </trkpt>
      <trkpt lat="42.869597" lon="-7.799339">
        <ele>629.218</ele>
        <time>2022-08-21T11:20:50Z</time>
      </trkpt>
      <trkpt lat="42.869635" lon="-7.799388">
        <ele>629.170</ele>
        <time>2022-08-21T11:20:54Z</time>
      </trkpt>
      <trkpt lat="42.869677" lon="-7.799435">
        <ele>629.051</ele>
        <time>2022-08-21T11:20:58Z</time>
      </trkpt>
      <trkpt lat="42.869715" lon="-7.799485">
        <ele>628.901</ele>
        <time>2022-08-21T11:21:02Z</time>
      </trkpt>
      <trkpt lat="42.869755" lon="-7.799529">
        <ele>628.611</ele>
        <time>2022-08-21T11:21:06Z</time>
      </trkpt>
      <trkpt lat="42.869799" lon="-7.799578">
        <ele>628.309</ele>
        <time>2022-08-21T11:21:10Z</time>
      </trkpt>
      <trkpt lat="42.869842" lon="-7.799627">
        <ele>627.946</ele>
        <time>2022-08-21T11:21:14Z</time>
      </trkpt>
      <trkpt lat="42.869884" lon="-7.799681">
        <ele>627.666</ele>
        <time>2022-08-21T11:21:18Z</time>
      </trkpt>
      <trkpt lat="42.869924" lon="-7.799730">
        <ele>627.466</ele>
        <time>2022-08-21T11:21:22Z</time>
      </trkpt>
      <trkpt lat="42.869958" lon="-7.799779">
        <ele>627.388</ele>
        <time>2022-08-21T11:21:26Z</time>
      </trkpt>
      <trkpt lat="42.869998" lon="-7.799824">
        <ele>627.380</ele>
        <time>2022-08-21T11:21:30Z</time>
      </trkpt>
      <trkpt lat="42.870034" lon="-7.799876">
        <ele>627.295</ele>
        <time>2022-08-21T11:21:34Z</time>
      </trkpt>
      <trkpt lat="42.870079" lon="-7.799918">
        <ele>627.015</ele>
        <time>2022-08-21T11:21:38Z</time>
      </trkpt>
      <trkpt lat="42.870114" lon="-7.799975">
        <ele>626.918</ele>
        <time>2022-08-21T11:21:42Z</time>
      </trkpt>
      <trkpt lat="42.870155" lon="-7.800027">
        <ele>626.880</ele>
        <time>2022-08-21T11:21:46Z</time>
      </trkpt>
      <trkpt lat="42.870198" lon="-7.800073">
        <ele>626.617</ele>
        <time>2022-08-21T11:21:50Z</time>
      </trkpt>
      <trkpt lat="42.870240" lon="-7.800124">
        <ele>626.487</ele>
        <time>2022-08-21T11:21:54Z</time>
      </trkpt>
      <trkpt lat="42.870281" lon="-7.800176">
        <ele>626.415</ele>
        <time>2022-08-21T11:21:58Z</time>
      </trkpt>
      <trkpt lat="42.870321" lon="-7.800227">
        <ele>626.309</ele>
        <time>2022-08-21T11:22:02Z</time>
      </trkpt>
      <trkpt lat="42.870363" lon="-7.800277">
        <ele>626.292</ele>
        <time>2022-08-21T11:22:06Z</time>
      </trkpt>
      <trkpt lat="42.870403" lon="-7.800329">
        <ele>626.172</ele>
        <time>2022-08-21T11:22:10Z</time>
      </trkpt>
      <trkpt lat="42.870437" lon="-7.800373">
        <ele>626.052</ele>
        <time>2022-08-21T11:22:14Z</time>
      </trkpt>
      <trkpt lat="42.870475" lon="-7.800422">
        <ele>625.854</ele>
        <time>2022-08-21T11:22:18Z</time>
      </trkpt>
      <trkpt lat="42.870510" lon="-7.800468">
        <ele>625.666</ele>
        <time>2022-08-21T11:22:22Z</time>
      </trkpt>
      <trkpt lat="42.870548" lon="-7.800517">
        <ele>625.461</ele>
        <time>2022-08-21T11:22:26Z</time>
      </trkpt>
      <trkpt lat="42.870590" lon="-7.800567">
        <ele>625.131</ele>
        <time>2022-08-21T11:22:30Z</time>
      </trkpt>
      <trkpt lat="42.870633" lon="-7.800623">
        <ele>624.964</ele>
        <time>2022-08-21T11:22:34Z</time>
      </trkpt>
      <trkpt lat="42.870675" lon="-7.800675">
        <ele>624.746</ele>
        <time>2022-08-21T11:22:38Z</time>
      </trkpt>
      <trkpt lat="42.870717" lon="-7.800726">
        <ele>624.485</ele>
        <time>2022-08-21T11:22:42Z</time>
      </trkpt>
      <trkpt lat="42.870760" lon="-7.800780">
        <ele>624.289</ele>
        <time>2022-08-21T11:22:46Z</time>
      </trkpt>
      <trkpt lat="42.870804" lon="-7.800832">
        <ele>624.017</ele>
        <time>2022-08-21T11:22:50Z</time>
      </trkpt>
      <trkpt lat="42.870845" lon="-7.800885">
        <ele>623.809</ele>
        <time>2022-08-21T11:22:54Z</time>
      </trkpt>
      <trkpt lat="42.870885" lon="-7.800937">
        <ele>623.549</ele>
        <time>2022-08-21T11:22:58Z</time>
      </trkpt>
      <trkpt lat="42.870927" lon="-7.800992">
        <ele>623.389</ele>
        <time>2022-08-21T11:23:02Z</time>
      </trkpt>
      <trkpt lat="42.870960" lon="-7.801040">
        <ele>623.089</ele>
        <time>2022-08-21T11:23:06Z</time>
      </trkpt>
      <trkpt lat="42.870999" lon="-7.801091">
        <ele>622.851</ele>
        <time>2022-08-21T11:23:10Z</time>
      </trkpt>
      <trkpt lat="42.871037" lon="-7.801138">
        <ele>622.713</ele>
        <time>2022-08-21T11:23:14Z</time>
      </trkpt>
      <trkpt lat="42.871072" lon="-7.801187">
        <ele>622.598</ele>
        <time>2022-08-21T11:23:18Z</time>
      </trkpt>
      <trkpt lat="42.871099" lon="-7.801238">
        <ele>622.338</ele>
        <time>2022-08-21T11:23:22Z</time>
      </trkpt>
      <trkpt lat="42.871123" lon="-7.801299">
        <ele>621.991</ele>
        <time>2022-08-21T11:23:26Z</time>
      </trkpt>
      <trkpt lat="42.871146" lon="-7.801359">
        <ele>621.593</ele>
        <time>2022-08-21T11:23:30Z</time>
      </trkpt>
      <trkpt lat="42.871172" lon="-7.801425">
        <ele>621.265</ele>
        <time>2022-08-21T11:23:34Z</time>
      </trkpt>
      <trkpt lat="42.871199" lon="-7.801489">
        <ele>620.768</ele>
        <time>2022-08-21T11:23:38Z</time>
      </trkpt>
      <trkpt lat="42.871225" lon="-7.801552">
        <ele>620.214</ele>
        <time>2022-08-21T11:23:42Z</time>
      </trkpt>
      <trkpt lat="42.871250" lon="-7.801620">
        <ele>619.809</ele>
        <time>2022-08-21T11:23:46Z</time>
      </trkpt>
      <trkpt lat="42.871279" lon="-7.801683">
        <ele>619.017</ele>
        <time>2022-08-21T11:23:50Z</time>
      </trkpt>
      <trkpt lat="42.871302" lon="-7.801748">
        <ele>618.347</ele>
        <time>2022-08-21T11:23:54Z</time>
      </trkpt>
      <trkpt lat="42.871332" lon="-7.801805">
        <ele>618.067</ele>
        <time>2022-08-21T11:23:58Z</time>
      </trkpt>
      <trkpt lat="42.871358" lon="-7.801871">
        <ele>617.149</ele>
        <time>2022-08-21T11:24:02Z</time>
      </trkpt>
      <trkpt lat="42.871383" lon="-7.801936">
        <ele>616.891</ele>
        <time>2022-08-21T11:24:06Z</time>
      </trkpt>
      <trkpt lat="42.871403" lon="-7.802004">
        <ele>616.286</ele>
        <time>2022-08-21T11:24:10Z</time>
      </trkpt>
      <trkpt lat="42.871427" lon="-7.802065">
        <ele>615.596</ele>
        <time>2022-08-21T11:24:14Z</time>
      </trkpt>
      <trkpt lat="42.871449" lon="-7.802130">
        <ele>614.799</ele>
        <time>2022-08-21T11:24:18Z</time>
      </trkpt>
      <trkpt lat="42.871474" lon="-7.802187">
        <ele>613.811</ele>
        <time>2022-08-21T11:24:22Z</time>
      </trkpt>
      <trkpt lat="42.871497" lon="-7.802257">
        <ele>613.094</ele>
        <time>2022-08-21T11:24:26Z</time>
      </trkpt>
      <trkpt lat="42.871518" lon="-7.802321">
        <ele>612.357</ele>
        <time>2022-08-21T11:24:30Z</time>
      </trkpt>
      <trkpt lat="42.871544" lon="-7.802384">
        <ele>611.622</ele>
        <time>2022-08-21T11:24:34Z</time>
      </trkpt>
      <trkpt lat="42.871567" lon="-7.802440">
        <ele>610.909</ele>
        <time>2022-08-21T11:24:37Z</time>
      </trkpt>
      <trkpt lat="42.871594" lon="-7.802501">
        <ele>610.270</ele>
        <time>2022-08-21T11:24:41Z</time>
      </trkpt>
      <trkpt lat="42.871618" lon="-7.802560">
        <ele>609.660</ele>
        <time>2022-08-21T11:24:44Z</time>
      </trkpt>
      <trkpt lat="42.871640" lon="-7.802624">
        <ele>609.040</ele>
        <time>2022-08-21T11:24:48Z</time>
      </trkpt>
      <trkpt lat="42.871673" lon="-7.802681">
        <ele>608.362</ele>
        <time>2022-08-21T11:24:52Z</time>
      </trkpt>
      <trkpt lat="42.871691" lon="-7.802748">
        <ele>607.634</ele>
        <time>2022-08-21T11:24:56Z</time>
      </trkpt>
      <trkpt lat="42.871724" lon="-7.802804">
        <ele>606.819</ele>
        <time>2022-08-21T11:25:01Z</time>
      </trkpt>
      <trkpt lat="42.871738" lon="-7.802863">
        <ele>606.119</ele>
        <time>2022-08-21T11:25:05Z</time>
      </trkpt>
      <trkpt lat="42.871761" lon="-7.802923">
        <ele>605.292</ele>
        <time>2022-08-21T11:25:09Z</time>
      </trkpt>
      <trkpt lat="42.871790" lon="-7.802996">
        <ele>604.344</ele>
        <time>2022-08-21T11:25:13Z</time>
      </trkpt>
      <trkpt lat="42.871815" lon="-7.803063">
        <ele>603.514</ele>
        <time>2022-08-21T11:25:16Z</time>
      </trkpt>
      <trkpt lat="42.871848" lon="-7.803128">
        <ele>602.754</ele>
        <time>2022-08-21T11:25:20Z</time>
      </trkpt>
      <trkpt lat="42.871872" lon="-7.803194">
        <ele>601.709</ele>
        <time>2022-08-21T11:25:24Z</time>
      </trkpt>
      <trkpt lat="42.871895" lon="-7.803269">
        <ele>600.909</ele>
        <time>2022-08-21T11:25:28Z</time>
      </trkpt>
      <trkpt lat="42.871919" lon="-7.803331">
        <ele>600.332</ele>
        <time>2022-08-21T11:25:32Z</time>
      </trkpt>
      <trkpt lat="42.871945" lon="-7.803385">
        <ele>599.792</ele>
        <time>2022-08-21T11:25:35Z</time>
      </trkpt>
      <trkpt lat="42.871963" lon="-7.803448">
        <ele>599.412</ele>
        <time>2022-08-21T11:25:39Z</time>
      </trkpt>
      <trkpt lat="42.871994" lon="-7.803502">
        <ele>598.984</ele>
        <time>2022-08-21T11:25:43Z</time>
      </trkpt>
      <trkpt lat="42.872019" lon="-7.803560">
        <ele>598.436</ele>
        <time>2022-08-21T11:25:47Z</time>
      </trkpt>
      <trkpt lat="42.872042" lon="-7.803627">
        <ele>597.991</ele>
        <time>2022-08-21T11:25:51Z</time>
      </trkpt>
      <trkpt lat="42.872082" lon="-7.803677">
        <ele>597.471</ele>
        <time>2022-08-21T11:25:55Z</time>
      </trkpt>
      <trkpt lat="42.872116" lon="-7.803734">
        <ele>596.914</ele>
        <time>2022-08-21T11:25:59Z</time>
      </trkpt>
      <trkpt lat="42.872149" lon="-7.803788">
        <ele>596.476</ele>
        <time>2022-08-21T11:26:03Z</time>
      </trkpt>
      <trkpt lat="42.872180" lon="-7.803833">
        <ele>596.036</ele>
        <time>2022-08-21T11:26:07Z</time>
      </trkpt>
      <trkpt lat="42.872209" lon="-7.803887">
        <ele>595.617</ele>
        <time>2022-08-21T11:26:11Z</time>
      </trkpt>
      <trkpt lat="42.872238" lon="-7.803936">
        <ele>595.218</ele>
        <time>2022-08-21T11:26:15Z</time>
      </trkpt>
      <trkpt lat="42.872270" lon="-7.803986">
        <ele>594.909</ele>
        <time>2022-08-21T11:26:19Z</time>
      </trkpt>
      <trkpt lat="42.872309" lon="-7.804027">
        <ele>594.554</ele>
        <time>2022-08-21T11:26:23Z</time>
      </trkpt>
      <trkpt lat="42.872349" lon="-7.804067">
        <ele>594.154</ele>
        <time>2022-08-21T11:26:27Z</time>
      </trkpt>
      <trkpt lat="42.872386" lon="-7.804112">
        <ele>593.664</ele>
        <time>2022-08-21T11:26:31Z</time>
      </trkpt>
      <trkpt lat="42.872425" lon="-7.804161">
        <ele>593.046</ele>
        <time>2022-08-21T11:26:35Z</time>
      </trkpt>
      <trkpt lat="42.872476" lon="-7.804210">
        <ele>592.578</ele>
        <time>2022-08-21T11:26:39Z</time>
      </trkpt>
      <trkpt lat="42.872512" lon="-7.804249">
        <ele>592.073</ele>
        <time>2022-08-21T11:26:42Z</time>
      </trkpt>
      <trkpt lat="42.872555" lon="-7.804300">
        <ele>591.523</ele>
        <time>2022-08-21T11:26:46Z</time>
      </trkpt>
      <trkpt lat="42.872597" lon="-7.804361">
        <ele>590.966</ele>
        <time>2022-08-21T11:26:50Z</time>
      </trkpt>
      <trkpt lat="42.872628" lon="-7.804406">
        <ele>590.458</ele>
        <time>2022-08-21T11:26:53Z</time>
      </trkpt>
      <trkpt lat="42.872668" lon="-7.804451">
        <ele>590.129</ele>
        <time>2022-08-21T11:26:57Z</time>
      </trkpt>
      <trkpt lat="42.872700" lon="-7.804502">
        <ele>589.600</ele>
        <time>2022-08-21T11:27:00Z</time>
      </trkpt>
      <trkpt lat="42.872744" lon="-7.804556">
        <ele>589.120</ele>
        <time>2022-08-21T11:27:04Z</time>
      </trkpt>
      <trkpt lat="42.872789" lon="-7.804593">
        <ele>588.609</ele>
        <time>2022-08-21T11:27:08Z</time>
      </trkpt>
      <trkpt lat="42.872826" lon="-7.804628">
        <ele>588.193</ele>
        <time>2022-08-21T11:27:11Z</time>
      </trkpt>
      <trkpt lat="42.872868" lon="-7.804666">
        <ele>587.623</ele>
        <time>2022-08-21T11:27:15Z</time>
      </trkpt>
      <trkpt lat="42.872912" lon="-7.804717">
        <ele>587.123</ele>
        <time>2022-08-21T11:27:19Z</time>
      </trkpt>
      <trkpt lat="42.872941" lon="-7.804765">
        <ele>586.655</ele>
        <time>2022-08-21T11:27:22Z</time>
      </trkpt>
      <trkpt lat="42.872982" lon="-7.804814">
        <ele>586.167</ele>
        <time>2022-08-21T11:27:26Z</time>
      </trkpt>
      <trkpt lat="42.873018" lon="-7.804866">
        <ele>585.662</ele>
        <time>2022-08-21T11:27:30Z</time>
      </trkpt>
      <trkpt lat="42.873060" lon="-7.804891">
        <ele>585.112</ele>
        <time>2022-08-21T11:27:33Z</time>
      </trkpt>
      <trkpt lat="42.873106" lon="-7.804934">
        <ele>584.545</ele>
        <time>2022-08-21T11:27:37Z</time>
      </trkpt>
      <trkpt lat="42.873151" lon="-7.804981">
        <ele>584.047</ele>
        <time>2022-08-21T11:27:41Z</time>
      </trkpt>
      <trkpt lat="42.873189" lon="-7.805042">
        <ele>583.647</ele>
        <time>2022-08-21T11:27:45Z</time>
      </trkpt>
      <trkpt lat="42.873236" lon="-7.805092">
        <ele>582.829</ele>
        <time>2022-08-21T11:27:49Z</time>
      </trkpt>
      <trkpt lat="42.873271" lon="-7.805133">
        <ele>582.221</ele>
        <time>2022-08-21T11:27:52Z</time>
      </trkpt>
      <trkpt lat="42.873315" lon="-7.805179">
        <ele>581.609</ele>
        <time>2022-08-21T11:27:56Z</time>
      </trkpt>
      <trkpt lat="42.873357" lon="-7.805228">
        <ele>581.125</ele>
        <time>2022-08-21T11:28:00Z</time>
      </trkpt>
      <trkpt lat="42.873403" lon="-7.805276">
        <ele>580.425</ele>
        <time>2022-08-21T11:28:04Z</time>
      </trkpt>
      <trkpt lat="42.873426" lon="-7.805333">
        <ele>580.075</ele>
        <time>2022-08-21T11:28:08Z</time>
      </trkpt>
      <trkpt lat="42.873464" lon="-7.805381">
        <ele>579.397</ele>
        <time>2022-08-21T11:28:12Z</time>
      </trkpt>
      <trkpt lat="42.873498" lon="-7.805426">
        <ele>578.689</ele>
        <time>2022-08-21T11:28:16Z</time>
      </trkpt>
      <trkpt lat="42.873540" lon="-7.805464">
        <ele>578.014</ele>
        <time>2022-08-21T11:28:20Z</time>
      </trkpt>
      <trkpt lat="42.873586" lon="-7.805508">
        <ele>577.474</ele>
        <time>2022-08-21T11:28:24Z</time>
      </trkpt>
      <trkpt lat="42.873622" lon="-7.805564">
        <ele>576.897</ele>
        <time>2022-08-21T11:28:29Z</time>
      </trkpt>
      <trkpt lat="42.873662" lon="-7.805612">
        <ele>576.119</ele>
        <time>2022-08-21T11:28:33Z</time>
      </trkpt>
      <trkpt lat="42.873697" lon="-7.805657">
        <ele>575.363</ele>
        <time>2022-08-21T11:28:36Z</time>
      </trkpt>
      <trkpt lat="42.873724" lon="-7.805713">
        <ele>574.444</ele>
        <time>2022-08-21T11:28:39Z</time>
      </trkpt>
      <trkpt lat="42.873771" lon="-7.805772">
        <ele>573.718</ele>
        <time>2022-08-21T11:28:43Z</time>
      </trkpt>
      <trkpt lat="42.873793" lon="-7.805828">
        <ele>573.109</ele>
        <time>2022-08-21T11:28:46Z</time>
      </trkpt>
      <trkpt lat="42.873805" lon="-7.805890">
        <ele>572.467</ele>
        <time>2022-08-21T11:28:50Z</time>
      </trkpt>
      <trkpt lat="42.873809" lon="-7.805965">
        <ele>571.827</ele>
        <time>2022-08-21T11:28:54Z</time>
      </trkpt>
      <trkpt lat="42.873805" lon="-7.806042">
        <ele>571.247</ele>
        <time>2022-08-21T11:28:58Z</time>
      </trkpt>
      <trkpt lat="42.873807" lon="-7.806119">
        <ele>570.659</ele>
        <time>2022-08-21T11:29:02Z</time>
      </trkpt>
      <trkpt lat="42.873798" lon="-7.806196">
        <ele>569.961</ele>
        <time>2022-08-21T11:29:06Z</time>
      </trkpt>
      <trkpt lat="42.873787" lon="-7.806270">
        <ele>569.646</ele>
        <time>2022-08-21T11:29:10Z</time>
      </trkpt>
      <trkpt lat="42.873786" lon="-7.806333">
        <ele>569.476</ele>
        <time>2022-08-21T11:29:14Z</time>
      </trkpt>
      <trkpt lat="42.873776" lon="-7.806402">
        <ele>569.349</ele>
        <time>2022-08-21T11:29:18Z</time>
      </trkpt>
      <trkpt lat="42.873768" lon="-7.806464">
        <ele>569.181</ele>
        <time>2022-08-21T11:29:21Z</time>
      </trkpt>
      <trkpt lat="42.873747" lon="-7.806537">
        <ele>568.973</ele>
        <time>2022-08-21T11:29:25Z</time>
      </trkpt>
      <trkpt lat="42.873695" lon="-7.806539">
        <ele>568.885</ele>
        <time>2022-08-21T11:29:28Z</time>
      </trkpt>
      <trkpt lat="42.873708" lon="-7.806612">
        <ele>568.713</ele>
        <time>2022-08-21T11:30:01Z</time>
      </trkpt>
      <trkpt lat="42.873701" lon="-7.806674">
        <ele>568.609</ele>
        <time>2022-08-21T11:30:05Z</time>
      </trkpt>
      <trkpt lat="42.873706" lon="-7.806744">
        <ele>568.598</ele>
        <time>2022-08-21T11:30:10Z</time>
      </trkpt>
      <trkpt lat="42.873693" lon="-7.806818">
        <ele>568.468</ele>
        <time>2022-08-21T11:30:14Z</time>
      </trkpt>
      <trkpt lat="42.873675" lon="-7.806884">
        <ele>568.388</ele>
        <time>2022-08-21T11:30:18Z</time>
      </trkpt>
      <trkpt lat="42.873644" lon="-7.806939">
        <ele>568.220</ele>
        <time>2022-08-21T11:30:22Z</time>
      </trkpt>
      <trkpt lat="42.873613" lon="-7.806997">
        <ele>568.192</ele>
        <time>2022-08-21T11:30:26Z</time>
      </trkpt>
      <trkpt lat="42.873577" lon="-7.807047">
        <ele>568.127</ele>
        <time>2022-08-21T11:30:30Z</time>
      </trkpt>
      <trkpt lat="42.873547" lon="-7.807098">
        <ele>568.157</ele>
        <time>2022-08-21T11:30:34Z</time>
      </trkpt>
      <trkpt lat="42.873528" lon="-7.807158">
        <ele>568.150</ele>
        <time>2022-08-21T11:30:38Z</time>
      </trkpt>
      <trkpt lat="42.873517" lon="-7.807222">
        <ele>568.122</ele>
        <time>2022-08-21T11:30:42Z</time>
      </trkpt>
      <trkpt lat="42.873503" lon="-7.807288">
        <ele>568.156</ele>
        <time>2022-08-21T11:30:46Z</time>
      </trkpt>
      <trkpt lat="42.873497" lon="-7.807349">
        <ele>568.059</ele>
        <time>2022-08-21T11:30:50Z</time>
      </trkpt>
      <trkpt lat="42.873497" lon="-7.807415">
        <ele>567.914</ele>
        <time>2022-08-21T11:30:55Z</time>
      </trkpt>
      <trkpt lat="42.873501" lon="-7.807488">
        <ele>567.809</ele>
        <time>2022-08-21T11:31:01Z</time>
      </trkpt>
      <trkpt lat="42.873505" lon="-7.807560">
        <ele>567.766</ele>
        <time>2022-08-21T11:31:05Z</time>
      </trkpt>
      <trkpt lat="42.873516" lon="-7.807637">
        <ele>567.616</ele>
        <time>2022-08-21T11:31:09Z</time>
      </trkpt>
      <trkpt lat="42.873527" lon="-7.807697">
        <ele>567.566</ele>
        <time>2022-08-21T11:31:13Z</time>
      </trkpt>
      <trkpt lat="42.873537" lon="-7.807770">
        <ele>567.468</ele>
        <time>2022-08-21T11:31:17Z</time>
      </trkpt>
      <trkpt lat="42.873553" lon="-7.807833">
        <ele>567.250</ele>
        <time>2022-08-21T11:31:21Z</time>
      </trkpt>
      <trkpt lat="42.873562" lon="-7.807905">
        <ele>567.145</ele>
        <time>2022-08-21T11:31:25Z</time>
      </trkpt>
      <trkpt lat="42.873588" lon="-7.807965">
        <ele>567.075</ele>
        <time>2022-08-21T11:31:29Z</time>
      </trkpt>
      <trkpt lat="42.873601" lon="-7.808033">
        <ele>566.988</ele>
        <time>2022-08-21T11:31:34Z</time>
      </trkpt>
      <trkpt lat="42.873618" lon="-7.808090">
        <ele>566.920</ele>
        <time>2022-08-21T11:31:37Z</time>
      </trkpt>
      <trkpt lat="42.873647" lon="-7.808148">
        <ele>566.949</ele>
        <time>2022-08-21T11:31:41Z</time>
      </trkpt>
      <trkpt lat="42.873661" lon="-7.808215">
        <ele>566.902</ele>
        <time>2022-08-21T11:31:45Z</time>
      </trkpt>
      <trkpt lat="42.873686" lon="-7.808277">
        <ele>567.022</ele>
        <time>2022-08-21T11:31:48Z</time>
      </trkpt>
      <trkpt lat="42.873702" lon="-7.808336">
        <ele>567.109</ele>
        <time>2022-08-21T11:31:51Z</time>
      </trkpt>
      <trkpt lat="42.873722" lon="-7.808407">
        <ele>567.215</ele>
        <time>2022-08-21T11:31:55Z</time>
      </trkpt>
      <trkpt lat="42.873731" lon="-7.808468">
        <ele>567.385</ele>
        <time>2022-08-21T11:32:00Z</time>
      </trkpt>
      <trkpt lat="42.873726" lon="-7.808538">
        <ele>567.455</ele>
        <time>2022-08-21T11:32:04Z</time>
      </trkpt>
      <trkpt lat="42.873722" lon="-7.808605">
        <ele>567.737</ele>
        <time>2022-08-21T11:32:08Z</time>
      </trkpt>
      <trkpt lat="42.873723" lon="-7.808672">
        <ele>568.169</ele>
        <time>2022-08-21T11:32:12Z</time>
      </trkpt>
      <trkpt lat="42.873722" lon="-7.808735">
        <ele>568.414</ele>
        <time>2022-08-21T11:32:16Z</time>
      </trkpt>
      <trkpt lat="42.873720" lon="-7.808811">
        <ele>568.744</ele>
        <time>2022-08-21T11:32:21Z</time>
      </trkpt>
      <trkpt lat="42.873709" lon="-7.808888">
        <ele>568.977</ele>
        <time>2022-08-21T11:32:26Z</time>
      </trkpt>
      <trkpt lat="42.873694" lon="-7.808959">
        <ele>569.169</ele>
        <time>2022-08-21T11:32:30Z</time>
      </trkpt>
      <trkpt lat="42.873682" lon="-7.809021">
        <ele>569.412</ele>
        <time>2022-08-21T11:32:34Z</time>
      </trkpt>
      <trkpt lat="42.873656" lon="-7.809093">
        <ele>569.832</ele>
        <time>2022-08-21T11:32:38Z</time>
      </trkpt>
      <trkpt lat="42.873624" lon="-7.809151">
        <ele>570.105</ele>
        <time>2022-08-21T11:32:42Z</time>
      </trkpt>
      <trkpt lat="42.873601" lon="-7.809207">
        <ele>570.209</ele>
        <time>2022-08-21T11:32:45Z</time>
      </trkpt>
      <trkpt lat="42.873585" lon="-7.809279">
        <ele>570.442</ele>
        <time>2022-08-21T11:32:49Z</time>
      </trkpt>
      <trkpt lat="42.873562" lon="-7.809345">
        <ele>570.622</ele>
        <time>2022-08-21T11:32:54Z</time>
      </trkpt>
      <trkpt lat="42.873542" lon="-7.809417">
        <ele>570.872</ele>
        <time>2022-08-21T11:32:59Z</time>
      </trkpt>
      <trkpt lat="42.873520" lon="-7.809479">
        <ele>571.114</ele>
        <time>2022-08-21T11:33:03Z</time>
      </trkpt>
      <trkpt lat="42.873499" lon="-7.809535">
        <ele>571.456</ele>
        <time>2022-08-21T11:33:06Z</time>
      </trkpt>
      <trkpt lat="42.873481" lon="-7.809596">
        <ele>571.791</ele>
        <time>2022-08-21T11:33:10Z</time>
      </trkpt>
      <trkpt lat="42.873456" lon="-7.809654">
        <ele>571.961</ele>
        <time>2022-08-21T11:33:14Z</time>
      </trkpt>
      <trkpt lat="42.873431" lon="-7.809727">
        <ele>572.134</ele>
        <time>2022-08-21T11:33:19Z</time>
      </trkpt>
      <trkpt lat="42.873407" lon="-7.809794">
        <ele>572.346</ele>
        <time>2022-08-21T11:33:22Z</time>
      </trkpt>
      <trkpt lat="42.873384" lon="-7.809851">
        <ele>572.516</ele>
        <time>2022-08-21T11:33:26Z</time>
      </trkpt>
      <trkpt lat="42.873358" lon="-7.809901">
        <ele>572.776</ele>
        <time>2022-08-21T11:33:30Z</time>
      </trkpt>
      <trkpt lat="42.873329" lon="-7.809951">
        <ele>572.913</ele>
        <time>2022-08-21T11:33:33Z</time>
      </trkpt>
      <trkpt lat="42.873286" lon="-7.810010">
        <ele>573.109</ele>
        <time>2022-08-21T11:33:37Z</time>
      </trkpt>
      <trkpt lat="42.873257" lon="-7.810068">
        <ele>573.232</ele>
        <time>2022-08-21T11:33:40Z</time>
      </trkpt>
      <trkpt lat="42.873234" lon="-7.810122">
        <ele>573.422</ele>
        <time>2022-08-21T11:33:43Z</time>
      </trkpt>
      <trkpt lat="42.873214" lon="-7.810181">
        <ele>573.692</ele>
        <time>2022-08-21T11:33:47Z</time>
      </trkpt>
      <trkpt lat="42.873193" lon="-7.810244">
        <ele>573.734</ele>
        <time>2022-08-21T11:33:51Z</time>
      </trkpt>
      <trkpt lat="42.873163" lon="-7.810303">
        <ele>573.856</ele>
        <time>2022-08-21T11:33:55Z</time>
      </trkpt>
      <trkpt lat="42.873136" lon="-7.810376">
        <ele>573.981</ele>
        <time>2022-08-21T11:33:59Z</time>
      </trkpt>
      <trkpt lat="42.873112" lon="-7.810438">
        <ele>574.091</ele>
        <time>2022-08-21T11:34:02Z</time>
      </trkpt>
      <trkpt lat="42.873086" lon="-7.810493">
        <ele>574.114</ele>
        <time>2022-08-21T11:34:05Z</time>
      </trkpt>
      <trkpt lat="42.873051" lon="-7.810556">
        <ele>574.246</ele>
        <time>2022-08-21T11:34:09Z</time>
      </trkpt>
      <trkpt lat="42.873018" lon="-7.810621">
        <ele>574.237</ele>
        <time>2022-08-21T11:34:13Z</time>
      </trkpt>
      <trkpt lat="42.872986" lon="-7.810686">
        <ele>574.349</ele>
        <time>2022-08-21T11:34:17Z</time>
      </trkpt>
      <trkpt lat="42.872949" lon="-7.810747">
        <ele>574.413</ele>
        <time>2022-08-21T11:34:21Z</time>
      </trkpt>
      <trkpt lat="42.872914" lon="-7.810807">
        <ele>574.509</ele>
        <time>2022-08-21T11:34:25Z</time>
      </trkpt>
      <trkpt lat="42.872876" lon="-7.810869">
        <ele>574.514</ele>
        <time>2022-08-21T11:34:29Z</time>
      </trkpt>
      <trkpt lat="42.872837" lon="-7.810928">
        <ele>574.514</ele>
        <time>2022-08-21T11:34:33Z</time>
      </trkpt>
      <trkpt lat="42.872809" lon="-7.810986">
        <ele>574.514</ele>
        <time>2022-08-21T11:34:37Z</time>
      </trkpt>
      <trkpt lat="42.872773" lon="-7.811045">
        <ele>574.586</ele>
        <time>2022-08-21T11:34:41Z</time>
      </trkpt>
      <trkpt lat="42.872737" lon="-7.811102">
        <ele>574.618</ele>
        <time>2022-08-21T11:34:45Z</time>
      </trkpt>
      <trkpt lat="42.872704" lon="-7.811163">
        <ele>574.983</ele>
        <time>2022-08-21T11:34:49Z</time>
      </trkpt>
      <trkpt lat="42.872663" lon="-7.811219">
        <ele>575.083</ele>
        <time>2022-08-21T11:34:53Z</time>
      </trkpt>
      <trkpt lat="42.872624" lon="-7.811278">
        <ele>575.126</ele>
        <time>2022-08-21T11:34:57Z</time>
      </trkpt>
      <trkpt lat="42.872587" lon="-7.811340">
        <ele>575.318</ele>
        <time>2022-08-21T11:35:01Z</time>
      </trkpt>
      <trkpt lat="42.872557" lon="-7.811405">
        <ele>575.489</ele>
        <time>2022-08-21T11:35:05Z</time>
      </trkpt>
      <trkpt lat="42.872524" lon="-7.811466">
        <ele>575.506</ele>
        <time>2022-08-21T11:35:09Z</time>
      </trkpt>
      <trkpt lat="42.872488" lon="-7.811521">
        <ele>575.626</ele>
        <time>2022-08-21T11:35:13Z</time>
      </trkpt>
      <trkpt lat="42.872458" lon="-7.811587">
        <ele>575.709</ele>
        <time>2022-08-21T11:35:17Z</time>
      </trkpt>
      <trkpt lat="42.872431" lon="-7.811653">
        <ele>575.899</ele>
        <time>2022-08-21T11:35:21Z</time>
      </trkpt>
      <trkpt lat="42.872406" lon="-7.811719">
        <ele>575.989</ele>
        <time>2022-08-21T11:35:25Z</time>
      </trkpt>
      <trkpt lat="42.872379" lon="-7.811787">
        <ele>576.049</ele>
        <time>2022-08-21T11:35:29Z</time>
      </trkpt>
      <trkpt lat="42.872355" lon="-7.811854">
        <ele>576.221</ele>
        <time>2022-08-21T11:35:33Z</time>
      </trkpt>
      <trkpt lat="42.872334" lon="-7.811926">
        <ele>576.263</ele>
        <time>2022-08-21T11:35:37Z</time>
      </trkpt>
      <trkpt lat="42.872328" lon="-7.812004">
        <ele>576.488</ele>
        <time>2022-08-21T11:35:41Z</time>
      </trkpt>
      <trkpt lat="42.872312" lon="-7.812073">
        <ele>576.468</ele>
        <time>2022-08-21T11:35:45Z</time>
      </trkpt>
      <trkpt lat="42.872301" lon="-7.812143">
        <ele>576.521</ele>
        <time>2022-08-21T11:35:49Z</time>
      </trkpt>
      <trkpt lat="42.872300" lon="-7.812217">
        <ele>576.643</ele>
        <time>2022-08-21T11:35:53Z</time>
      </trkpt>
      <trkpt lat="42.872294" lon="-7.812291">
        <ele>576.821</ele>
        <time>2022-08-21T11:35:57Z</time>
      </trkpt>
      <trkpt lat="42.872296" lon="-7.812366">
        <ele>576.941</ele>
        <time>2022-08-21T11:36:01Z</time>
      </trkpt>
      <trkpt lat="42.872288" lon="-7.812438">
        <ele>576.905</ele>
        <time>2022-08-21T11:36:05Z</time>
      </trkpt>
      <trkpt lat="42.872290" lon="-7.812515">
        <ele>577.109</ele>
        <time>2022-08-21T11:36:09Z</time>
      </trkpt>
      <trkpt lat="42.872289" lon="-7.812590">
        <ele>577.233</ele>
        <time>2022-08-21T11:36:13Z</time>
      </trkpt>
      <trkpt lat="42.872293" lon="-7.812653">
        <ele>577.253</ele>
        <time>2022-08-21T11:36:17Z</time>
      </trkpt>
      <trkpt lat="42.872289" lon="-7.812728">
        <ele>577.323</ele>
        <time>2022-08-21T11:36:21Z</time>
      </trkpt>
      <trkpt lat="42.872285" lon="-7.812800">
        <ele>577.465</ele>
        <time>2022-08-21T11:36:25Z</time>
      </trkpt>
      <trkpt lat="42.872280" lon="-7.812871">
        <ele>577.597</ele>
        <time>2022-08-21T11:36:29Z</time>
      </trkpt>
      <trkpt lat="42.872266" lon="-7.812947">
        <ele>577.682</ele>
        <time>2022-08-21T11:36:33Z</time>
      </trkpt>
      <trkpt lat="42.872258" lon="-7.813022">
        <ele>577.832</ele>
        <time>2022-08-21T11:36:37Z</time>
      </trkpt>
      <trkpt lat="42.872255" lon="-7.813090">
        <ele>577.965</ele>
        <time>2022-08-21T11:36:41Z</time>
      </trkpt>
      <trkpt lat="42.872248" lon="-7.813174">
        <ele>578.137</ele>
        <time>2022-08-21T11:36:46Z</time>
      </trkpt>
      <trkpt lat="42.872244" lon="-7.813243">
        <ele>578.344</ele>
        <time>2022-08-21T11:36:50Z</time>
      </trkpt>
      <trkpt lat="42.872231" lon="-7.813313">
        <ele>578.605</ele>
        <time>2022-08-21T11:36:54Z</time>
      </trkpt>
      <trkpt lat="42.872226" lon="-7.813387">
        <ele>578.915</ele>
        <time>2022-08-21T11:36:58Z</time>
      </trkpt>
      <trkpt lat="42.872219" lon="-7.813456">
        <ele>579.209</ele>
        <time>2022-08-21T11:37:02Z</time>
      </trkpt>
      <trkpt lat="42.872209" lon="-7.813526">
        <ele>579.375</ele>
        <time>2022-08-21T11:37:06Z</time>
      </trkpt>
      <trkpt lat="42.872205" lon="-7.813592">
        <ele>579.565</ele>
        <time>2022-08-21T11:37:10Z</time>
      </trkpt>
      <trkpt lat="42.872205" lon="-7.813659">
        <ele>579.715</ele>
        <time>2022-08-21T11:37:14Z</time>
      </trkpt>
      <trkpt lat="42.872205" lon="-7.813732">
        <ele>580.087</ele>
        <time>2022-08-21T11:37:18Z</time>
      </trkpt>
      <trkpt lat="42.872192" lon="-7.813797">
        <ele>580.329</ele>
        <time>2022-08-21T11:37:22Z</time>
      </trkpt>
      <trkpt lat="42.872183" lon="-7.813873">
        <ele>580.634</ele>
        <time>2022-08-21T11:37:26Z</time>
      </trkpt>
      <trkpt lat="42.872174" lon="-7.813948">
        <ele>581.044</ele>
        <time>2022-08-21T11:37:30Z</time>
      </trkpt>
      <trkpt lat="42.872182" lon="-7.814024">
        <ele>581.697</ele>
        <time>2022-08-21T11:37:34Z</time>
      </trkpt>
      <trkpt lat="42.872188" lon="-7.814101">
        <ele>582.019</ele>
        <time>2022-08-21T11:37:38Z</time>
      </trkpt>
      <trkpt lat="42.872198" lon="-7.814174">
        <ele>582.385</ele>
        <time>2022-08-21T11:37:42Z</time>
      </trkpt>
      <trkpt lat="42.872220" lon="-7.814240">
        <ele>582.689</ele>
        <time>2022-08-21T11:37:46Z</time>
      </trkpt>
      <trkpt lat="42.872265" lon="-7.814280">
        <ele>582.817</ele>
        <time>2022-08-21T11:37:50Z</time>
      </trkpt>
      <trkpt lat="42.872304" lon="-7.814324">
        <ele>582.809</ele>
        <time>2022-08-21T11:37:54Z</time>
      </trkpt>
      <trkpt lat="42.872345" lon="-7.814372">
        <ele>582.899</ele>
        <time>2022-08-21T11:37:58Z</time>
      </trkpt>
      <trkpt lat="42.872388" lon="-7.814413">
        <ele>582.889</ele>
        <time>2022-08-21T11:38:02Z</time>
      </trkpt>
      <trkpt lat="42.872426" lon="-7.814463">
        <ele>582.889</ele>
        <time>2022-08-21T11:38:06Z</time>
      </trkpt>
      <trkpt lat="42.872459" lon="-7.814514">
        <ele>582.881</ele>
        <time>2022-08-21T11:38:10Z</time>
      </trkpt>
      <trkpt lat="42.872503" lon="-7.814536">
        <ele>582.933</ele>
        <time>2022-08-21T11:38:15Z</time>
      </trkpt>
      <trkpt lat="42.872548" lon="-7.814587">
        <ele>583.078</ele>
        <time>2022-08-21T11:38:19Z</time>
      </trkpt>
      <trkpt lat="42.872589" lon="-7.814624">
        <ele>583.278</ele>
        <time>2022-08-21T11:38:23Z</time>
      </trkpt>
      <trkpt lat="42.872623" lon="-7.814666">
        <ele>583.611</ele>
        <time>2022-08-21T11:38:27Z</time>
      </trkpt>
      <trkpt lat="42.872625" lon="-7.814735">
        <ele>584.083</ele>
        <time>2022-08-21T11:38:32Z</time>
      </trkpt>
      <trkpt lat="42.872628" lon="-7.814804">
        <ele>584.541</ele>
        <time>2022-08-21T11:38:37Z</time>
      </trkpt>
      <trkpt lat="42.872632" lon="-7.814870">
        <ele>585.381</ele>
        <time>2022-08-21T11:38:41Z</time>
      </trkpt>
      <trkpt lat="42.872632" lon="-7.814935">
        <ele>586.309</ele>
        <time>2022-08-21T11:38:45Z</time>
      </trkpt>
      <trkpt lat="42.872641" lon="-7.814998">
        <ele>587.109</ele>
        <time>2022-08-21T11:38:49Z</time>
      </trkpt>
      <trkpt lat="42.872660" lon="-7.815062">
        <ele>587.845</ele>
        <time>2022-08-21T11:38:53Z</time>
      </trkpt>
      <trkpt lat="42.872678" lon="-7.815124">
        <ele>588.525</ele>
        <time>2022-08-21T11:38:58Z</time>
      </trkpt>
      <trkpt lat="42.872710" lon="-7.815174">
        <ele>589.145</ele>
        <time>2022-08-21T11:39:04Z</time>
      </trkpt>
      <trkpt lat="42.872751" lon="-7.815201">
        <ele>589.767</ele>
        <time>2022-08-21T11:39:08Z</time>
      </trkpt>
      <trkpt lat="42.872796" lon="-7.815242">
        <ele>590.319</ele>
        <time>2022-08-21T11:39:12Z</time>
      </trkpt>
      <trkpt lat="42.872843" lon="-7.815297">
        <ele>590.874</ele>
        <time>2022-08-21T11:39:17Z</time>
      </trkpt>
      <trkpt lat="42.872876" lon="-7.815344">
        <ele>591.274</ele>
        <time>2022-08-21T11:39:21Z</time>
      </trkpt>
      <trkpt lat="42.872914" lon="-7.815387">
        <ele>591.687</ele>
        <time>2022-08-21T11:39:25Z</time>
      </trkpt>
      <trkpt lat="42.872945" lon="-7.815437">
        <ele>591.969</ele>
        <time>2022-08-21T11:39:29Z</time>
      </trkpt>
      <trkpt lat="42.872982" lon="-7.815487">
        <ele>592.276</ele>
        <time>2022-08-21T11:39:33Z</time>
      </trkpt>
      <trkpt lat="42.873023" lon="-7.815535">
        <ele>592.790</ele>
        <time>2022-08-21T11:39:37Z</time>
      </trkpt>
      <trkpt lat="42.873069" lon="-7.815590">
        <ele>593.219</ele>
        <time>2022-08-21T11:39:41Z</time>
      </trkpt>
      <trkpt lat="42.873103" lon="-7.815640">
        <ele>593.609</ele>
        <time>2022-08-21T11:39:45Z</time>
      </trkpt>
      <trkpt lat="42.873137" lon="-7.815683">
        <ele>593.938</ele>
        <time>2022-08-21T11:39:49Z</time>
      </trkpt>
      <trkpt lat="42.873173" lon="-7.815732">
        <ele>594.318</ele>
        <time>2022-08-21T11:39:54Z</time>
      </trkpt>
      <trkpt lat="42.873194" lon="-7.815786">
        <ele>594.698</ele>
        <time>2022-08-21T11:39:58Z</time>
      </trkpt>
      <trkpt lat="42.873216" lon="-7.815856">
        <ele>594.840</ele>
        <time>2022-08-21T11:40:02Z</time>
      </trkpt>
      <trkpt lat="42.873239" lon="-7.815916">
        <ele>595.052</ele>
        <time>2022-08-21T11:40:06Z</time>
      </trkpt>
      <trkpt lat="42.873248" lon="-7.815976">
        <ele>595.257</ele>
        <time>2022-08-21T11:40:10Z</time>
      </trkpt>
      <trkpt lat="42.873263" lon="-7.816036">
        <ele>595.487</ele>
        <time>2022-08-21T11:40:14Z</time>
      </trkpt>
      <trkpt lat="42.873278" lon="-7.816107">
        <ele>595.620</ele>
        <time>2022-08-21T11:40:18Z</time>
      </trkpt>
      <trkpt lat="42.873290" lon="-7.816172">
        <ele>595.892</ele>
        <time>2022-08-21T11:40:22Z</time>
      </trkpt>
      <trkpt lat="42.873309" lon="-7.816236">
        <ele>596.199</ele>
        <time>2022-08-21T11:40:25Z</time>
      </trkpt>
      <trkpt lat="42.873316" lon="-7.816309">
        <ele>596.407</ele>
        <time>2022-08-21T11:40:29Z</time>
      </trkpt>
      <trkpt lat="42.873334" lon="-7.816378">
        <ele>596.627</ele>
        <time>2022-08-21T11:40:33Z</time>
      </trkpt>
      <trkpt lat="42.873340" lon="-7.816455">
        <ele>596.809</ele>
        <time>2022-08-21T11:40:37Z</time>
      </trkpt>
      <trkpt lat="42.873349" lon="-7.816530">
        <ele>597.140</ele>
        <time>2022-08-21T11:40:41Z</time>
      </trkpt>
      <trkpt lat="42.873355" lon="-7.816600">
        <ele>597.440</ele>
        <time>2022-08-21T11:40:45Z</time>
      </trkpt>
      <trkpt lat="42.873354" lon="-7.816674">
        <ele>597.720</ele>
        <time>2022-08-21T11:40:49Z</time>
      </trkpt>
      <trkpt lat="42.873353" lon="-7.816740">
        <ele>597.832</ele>
        <time>2022-08-21T11:40:53Z</time>
      </trkpt>
      <trkpt lat="42.873363" lon="-7.816808">
        <ele>598.044</ele>
        <time>2022-08-21T11:40:57Z</time>
      </trkpt>
      <trkpt lat="42.873359" lon="-7.816884">
        <ele>598.249</ele>
        <time>2022-08-21T11:41:02Z</time>
      </trkpt>
      <trkpt lat="42.873361" lon="-7.816962">
        <ele>598.459</ele>
        <time>2022-08-21T11:41:07Z</time>
      </trkpt>
      <trkpt lat="42.873363" lon="-7.817043">
        <ele>598.732</ele>
        <time>2022-08-21T11:41:12Z</time>
      </trkpt>
      <trkpt lat="42.873376" lon="-7.817111">
        <ele>598.924</ele>
        <time>2022-08-21T11:41:16Z</time>
      </trkpt>
      <trkpt lat="42.873394" lon="-7.817179">
        <ele>599.122</ele>
        <time>2022-08-21T11:41:20Z</time>
      </trkpt>
      <trkpt lat="42.873409" lon="-7.817243">
        <ele>599.362</ele>
        <time>2022-08-21T11:41:25Z</time>
      </trkpt>
      <trkpt lat="42.873436" lon="-7.817301">
        <ele>599.408</ele>
        <time>2022-08-21T11:41:30Z</time>
      </trkpt>
      <trkpt lat="42.873473" lon="-7.817341">
        <ele>599.509</ele>
        <time>2022-08-21T11:41:34Z</time>
      </trkpt>
      <trkpt lat="42.873515" lon="-7.817390">
        <ele>599.613</ele>
        <time>2022-08-21T11:41:38Z</time>
      </trkpt>
      <trkpt lat="42.873569" lon="-7.817428">
        <ele>599.733</ele>
        <time>2022-08-21T11:41:42Z</time>
      </trkpt>
      <trkpt lat="42.873613" lon="-7.817461">
        <ele>599.833</ele>
        <time>2022-08-21T11:41:46Z</time>
      </trkpt>
      <trkpt lat="42.873655" lon="-7.817489">
        <ele>599.995</ele>
        <time>2022-08-21T11:41:50Z</time>
      </trkpt>
      <trkpt lat="42.873700" lon="-7.817518">
        <ele>600.097</ele>
        <time>2022-08-21T11:41:54Z</time>
      </trkpt>
      <trkpt lat="42.873751" lon="-7.817531">
        <ele>600.182</ele>
        <time>2022-08-21T11:41:59Z</time>
      </trkpt>
      <trkpt lat="42.873798" lon="-7.817563">
        <ele>600.222</ele>
        <time>2022-08-21T11:42:03Z</time>
      </trkpt>
      <trkpt lat="42.873846" lon="-7.817592">
        <ele>600.355</ele>
        <time>2022-08-21T11:42:07Z</time>
      </trkpt>
      <trkpt lat="42.873895" lon="-7.817611">
        <ele>600.447</ele>
        <time>2022-08-21T11:42:11Z</time>
      </trkpt>
      <trkpt lat="42.873946" lon="-7.817656">
        <ele>600.596</ele>
        <time>2022-08-21T11:42:15Z</time>
      </trkpt>
      <trkpt lat="42.873990" lon="-7.817680">
        <ele>600.731</ele>
        <time>2022-08-21T11:42:19Z</time>
      </trkpt>
      <trkpt lat="42.874032" lon="-7.817725">
        <ele>600.924</ele>
        <time>2022-08-21T11:42:23Z</time>
      </trkpt>
      <trkpt lat="42.874065" lon="-7.817771">
        <ele>601.209</ele>
        <time>2022-08-21T11:42:27Z</time>
      </trkpt>
      <trkpt lat="42.874100" lon="-7.817814">
        <ele>601.680</ele>
        <time>2022-08-21T11:42:31Z</time>
      </trkpt>
      <trkpt lat="42.874128" lon="-7.817876">
        <ele>602.090</ele>
        <time>2022-08-21T11:42:35Z</time>
      </trkpt>
      <trkpt lat="42.874144" lon="-7.817942">
        <ele>602.490</ele>
        <time>2022-08-21T11:42:39Z</time>
      </trkpt>
      <trkpt lat="42.874162" lon="-7.818004">
        <ele>602.922</ele>
        <time>2022-08-21T11:42:43Z</time>
      </trkpt>
      <trkpt lat="42.874173" lon="-7.818071">
        <ele>603.584</ele>
        <time>2022-08-21T11:42:47Z</time>
      </trkpt>
      <trkpt lat="42.874163" lon="-7.818140">
        <ele>604.279</ele>
        <time>2022-08-21T11:42:51Z</time>
      </trkpt>
      <trkpt lat="42.874162" lon="-7.818218">
        <ele>604.949</ele>
        <time>2022-08-21T11:42:56Z</time>
      </trkpt>
      <trkpt lat="42.874136" lon="-7.818280">
        <ele>605.582</ele>
        <time>2022-08-21T11:43:00Z</time>
      </trkpt>
      <trkpt lat="42.874115" lon="-7.818345">
        <ele>606.224</ele>
        <time>2022-08-21T11:43:04Z</time>
      </trkpt>
      <trkpt lat="42.874099" lon="-7.818417">
        <ele>606.938</ele>
        <time>2022-08-21T11:43:09Z</time>
      </trkpt>
      <trkpt lat="42.874076" lon="-7.818489">
        <ele>607.870</ele>
        <time>2022-08-21T11:43:14Z</time>
      </trkpt>
      <trkpt lat="42.874056" lon="-7.818548">
        <ele>608.117</ele>
        <time>2022-08-21T11:43:19Z</time>
      </trkpt>
      <trkpt lat="42.874042" lon="-7.818614">
        <ele>608.709</ele>
        <time>2022-08-21T11:43:23Z</time>
      </trkpt>
      <trkpt lat="42.874024" lon="-7.818676">
        <ele>609.344</ele>
        <time>2022-08-21T11:43:27Z</time>
      </trkpt>
      <trkpt lat="42.873998" lon="-7.818739">
        <ele>609.784</ele>
        <time>2022-08-21T11:43:31Z</time>
      </trkpt>
      <trkpt lat="42.873985" lon="-7.818803">
        <ele>610.084</ele>
        <time>2022-08-21T11:43:35Z</time>
      </trkpt>
      <trkpt lat="42.873966" lon="-7.818877">
        <ele>610.376</ele>
        <time>2022-08-21T11:43:40Z</time>
      </trkpt>
      <trkpt lat="42.873953" lon="-7.818940">
        <ele>610.578</ele>
        <time>2022-08-21T11:43:44Z</time>
      </trkpt>
      <trkpt lat="42.873932" lon="-7.819002">
        <ele>610.743</ele>
        <time>2022-08-21T11:43:48Z</time>
      </trkpt>
      <trkpt lat="42.873917" lon="-7.819066">
        <ele>610.833</ele>
        <time>2022-08-21T11:43:52Z</time>
      </trkpt>
      <trkpt lat="42.873905" lon="-7.819134">
        <ele>610.926</ele>
        <time>2022-08-21T11:43:56Z</time>
      </trkpt>
      <trkpt lat="42.873892" lon="-7.819202">
        <ele>611.078</ele>
        <time>2022-08-21T11:44:00Z</time>
      </trkpt>
      <trkpt lat="42.873881" lon="-7.819274">
        <ele>611.117</ele>
        <time>2022-08-21T11:44:04Z</time>
      </trkpt>
      <trkpt lat="42.873866" lon="-7.819349">
        <ele>611.287</ele>
        <time>2022-08-21T11:44:08Z</time>
      </trkpt>
      <trkpt lat="42.873853" lon="-7.819419">
        <ele>611.315</ele>
        <time>2022-08-21T11:44:12Z</time>
      </trkpt>
      <trkpt lat="42.873840" lon="-7.819487">
        <ele>611.309</ele>
        <time>2022-08-21T11:44:16Z</time>
      </trkpt>
      <trkpt lat="42.873830" lon="-7.819548">
        <ele>611.392</ele>
        <time>2022-08-21T11:44:20Z</time>
      </trkpt>
      <trkpt lat="42.873814" lon="-7.819610">
        <ele>611.332</ele>
        <time>2022-08-21T11:44:23Z</time>
      </trkpt>
      <trkpt lat="42.873799" lon="-7.819688">
        <ele>611.252</ele>
        <time>2022-08-21T11:44:27Z</time>
      </trkpt>
      <trkpt lat="42.873789" lon="-7.819753">
        <ele>611.184</ele>
        <time>2022-08-21T11:44:31Z</time>
      </trkpt>
      <trkpt lat="42.873766" lon="-7.819817">
        <ele>611.086</ele>
        <time>2022-08-21T11:44:35Z</time>
      </trkpt>
      <trkpt lat="42.873753" lon="-7.819878">
        <ele>610.921</ele>
        <time>2022-08-21T11:44:39Z</time>
      </trkpt>
      <trkpt lat="42.873745" lon="-7.819943">
        <ele>610.841</ele>
        <time>2022-08-21T11:44:43Z</time>
      </trkpt>
      <trkpt lat="42.873728" lon="-7.820018">
        <ele>610.834</ele>
        <time>2022-08-21T11:44:47Z</time>
      </trkpt>
      <trkpt lat="42.873703" lon="-7.820083">
        <ele>610.866</ele>
        <time>2022-08-21T11:44:51Z</time>
      </trkpt>
      <trkpt lat="42.873691" lon="-7.820149">
        <ele>610.834</ele>
        <time>2022-08-21T11:44:55Z</time>
      </trkpt>
      <trkpt lat="42.873672" lon="-7.820218">
        <ele>610.855</ele>
        <time>2022-08-21T11:44:59Z</time>
      </trkpt>
      <trkpt lat="42.873651" lon="-7.820278">
        <ele>610.810</ele>
        <time>2022-08-21T11:45:02Z</time>
      </trkpt>
      <trkpt lat="42.873627" lon="-7.820344">
        <ele>610.809</ele>
        <time>2022-08-21T11:45:06Z</time>
      </trkpt>
      <trkpt lat="42.873612" lon="-7.820404">
        <ele>610.974</ele>
        <time>2022-08-21T11:45:10Z</time>
      </trkpt>
      <trkpt lat="42.873592" lon="-7.820466">
        <ele>611.074</ele>
        <time>2022-08-21T11:45:14Z</time>
      </trkpt>
      <trkpt lat="42.873560" lon="-7.820537">
        <ele>611.114</ele>
        <time>2022-08-21T11:45:18Z</time>
      </trkpt>
      <trkpt lat="42.873528" lon="-7.820597">
        <ele>611.356</ele>
        <time>2022-08-21T11:45:22Z</time>
      </trkpt>
      <trkpt lat="42.873494" lon="-7.820646">
        <ele>611.578</ele>
        <time>2022-08-21T11:45:26Z</time>
      </trkpt>
      <trkpt lat="42.873472" lon="-7.820705">
        <ele>611.843</ele>
        <time>2022-08-21T11:45:30Z</time>
      </trkpt>
      <trkpt lat="42.873465" lon="-7.820777">
        <ele>612.193</ele>
        <time>2022-08-21T11:45:35Z</time>
      </trkpt>
      <trkpt lat="42.873442" lon="-7.820840">
        <ele>612.446</ele>
        <time>2022-08-21T11:45:39Z</time>
      </trkpt>
      <trkpt lat="42.873399" lon="-7.820889">
        <ele>612.898</ele>
        <time>2022-08-21T11:45:43Z</time>
      </trkpt>
      <trkpt lat="42.873365" lon="-7.820958">
        <ele>613.342</ele>
        <time>2022-08-21T11:45:47Z</time>
      </trkpt>
      <trkpt lat="42.873336" lon="-7.821011">
        <ele>613.622</ele>
        <time>2022-08-21T11:45:50Z</time>
      </trkpt>
      <trkpt lat="42.873303" lon="-7.821078">
        <ele>613.914</ele>
        <time>2022-08-21T11:45:54Z</time>
      </trkpt>
      <trkpt lat="42.873273" lon="-7.821143">
        <ele>614.109</ele>
        <time>2022-08-21T11:45:58Z</time>
      </trkpt>
      <trkpt lat="42.873249" lon="-7.821212">
        <ele>614.345</ele>
        <time>2022-08-21T11:46:03Z</time>
      </trkpt>
      <trkpt lat="42.873227" lon="-7.821267">
        <ele>614.445</ele>
        <time>2022-08-21T11:46:07Z</time>
      </trkpt>
      <trkpt lat="42.873204" lon="-7.821327">
        <ele>614.625</ele>
        <time>2022-08-21T11:46:12Z</time>
      </trkpt>
      <trkpt lat="42.873191" lon="-7.821387">
        <ele>614.737</ele>
        <time>2022-08-21T11:46:16Z</time>
      </trkpt>
      <trkpt lat="42.873179" lon="-7.821448">
        <ele>614.869</ele>
        <time>2022-08-21T11:46:20Z</time>
      </trkpt>
      <trkpt lat="42.873167" lon="-7.821527">
        <ele>614.944</ele>
        <time>2022-08-21T11:46:25Z</time>
      </trkpt>
      <trkpt lat="42.873158" lon="-7.821594">
        <ele>615.024</ele>
        <time>2022-08-21T11:46:30Z</time>
      </trkpt>
      <trkpt lat="42.873140" lon="-7.821662">
        <ele>615.177</ele>
        <time>2022-08-21T11:46:33Z</time>
      </trkpt>
      <trkpt lat="42.873143" lon="-7.821724">
        <ele>615.379</ele>
        <time>2022-08-21T11:46:36Z</time>
      </trkpt>
      <trkpt lat="42.873160" lon="-7.821799">
        <ele>615.446</ele>
        <time>2022-08-21T11:46:40Z</time>
      </trkpt>
      <trkpt lat="42.873154" lon="-7.821866">
        <ele>615.688</ele>
        <time>2022-08-21T11:46:44Z</time>
      </trkpt>
      <trkpt lat="42.873166" lon="-7.821926">
        <ele>615.716</ele>
        <time>2022-08-21T11:46:47Z</time>
      </trkpt>
      <trkpt lat="42.873173" lon="-7.821998">
        <ele>615.709</ele>
        <time>2022-08-21T11:46:51Z</time>
      </trkpt>
      <trkpt lat="42.873181" lon="-7.822074">
        <ele>615.765</ele>
        <time>2022-08-21T11:46:56Z</time>
      </trkpt>
      <trkpt lat="42.873172" lon="-7.822146">
        <ele>615.825</ele>
        <time>2022-08-21T11:47:01Z</time>
      </trkpt>
      <trkpt lat="42.873156" lon="-7.822217">
        <ele>616.065</ele>
        <time>2022-08-21T11:47:05Z</time>
      </trkpt>
      <trkpt lat="42.873142" lon="-7.822279">
        <ele>616.447</ele>
        <time>2022-08-21T11:47:10Z</time>
      </trkpt>
      <trkpt lat="42.873114" lon="-7.822327">
        <ele>616.879</ele>
        <time>2022-08-21T11:47:13Z</time>
      </trkpt>
      <trkpt lat="42.873077" lon="-7.822383">
        <ele>617.294</ele>
        <time>2022-08-21T11:47:17Z</time>
      </trkpt>
      <trkpt lat="42.873051" lon="-7.822436">
        <ele>617.644</ele>
        <time>2022-08-21T11:47:21Z</time>
      </trkpt>
      <trkpt lat="42.873018" lon="-7.822483">
        <ele>618.097</ele>
        <time>2022-08-21T11:47:24Z</time>
      </trkpt>
      <trkpt lat="42.873002" lon="-7.822542">
        <ele>618.449</ele>
        <time>2022-08-21T11:47:27Z</time>
      </trkpt>
      <trkpt lat="42.872992" lon="-7.822630">
        <ele>618.784</ele>
        <time>2022-08-21T11:47:31Z</time>
      </trkpt>
      <trkpt lat="42.872970" lon="-7.822688">
        <ele>618.807</ele>
        <time>2022-08-21T11:47:35Z</time>
      </trkpt>
      <trkpt lat="42.872966" lon="-7.822750">
        <ele>619.017</ele>
        <time>2022-08-21T11:47:39Z</time>
      </trkpt>
      <trkpt lat="42.872983" lon="-7.822821">
        <ele>619.409</ele>
        <time>2022-08-21T11:47:43Z</time>
      </trkpt>
      <trkpt lat="42.872983" lon="-7.822889">
        <ele>619.789</ele>
        <time>2022-08-21T11:47:46Z</time>
      </trkpt>
      <trkpt lat="42.872985" lon="-7.822957">
        <ele>619.979</ele>
        <time>2022-08-21T11:47:51Z</time>
      </trkpt>
      <trkpt lat="42.872983" lon="-7.823035">
        <ele>620.099</ele>
        <time>2022-08-21T11:47:55Z</time>
      </trkpt>
      <trkpt lat="42.872984" lon="-7.823101">
        <ele>620.181</ele>
        <time>2022-08-21T11:47:59Z</time>
      </trkpt>
      <trkpt lat="42.872994" lon="-7.823171">
        <ele>620.273</ele>
        <time>2022-08-21T11:48:03Z</time>
      </trkpt>
      <trkpt lat="42.873005" lon="-7.823241">
        <ele>620.328</ele>
        <time>2022-08-21T11:48:07Z</time>
      </trkpt>
      <trkpt lat="42.873006" lon="-7.823310">
        <ele>620.668</ele>
        <time>2022-08-21T11:48:11Z</time>
      </trkpt>
      <trkpt lat="42.873016" lon="-7.823377">
        <ele>620.821</ele>
        <time>2022-08-21T11:48:14Z</time>
      </trkpt>
      <trkpt lat="42.873021" lon="-7.823447">
        <ele>620.813</ele>
        <time>2022-08-21T11:48:18Z</time>
      </trkpt>
      <trkpt lat="42.873029" lon="-7.823509">
        <ele>620.827</ele>
        <time>2022-08-21T11:48:22Z</time>
      </trkpt>
      <trkpt lat="42.873025" lon="-7.823583">
        <ele>620.768</ele>
        <time>2022-08-21T11:48:26Z</time>
      </trkpt>
      <trkpt lat="42.873027" lon="-7.823655">
        <ele>620.514</ele>
        <time>2022-08-21T11:48:31Z</time>
      </trkpt>
      <trkpt lat="42.873020" lon="-7.823725">
        <ele>620.309</ele>
        <time>2022-08-21T11:48:35Z</time>
      </trkpt>
      <trkpt lat="42.873013" lon="-7.823794">
        <ele>620.223</ele>
        <time>2022-08-21T11:48:40Z</time>
      </trkpt>
      <trkpt lat="42.873012" lon="-7.823867">
        <ele>620.133</ele>
        <time>2022-08-21T11:48:43Z</time>
      </trkpt>
      <trkpt lat="42.872997" lon="-7.823946">
        <ele>619.963</ele>
        <time>2022-08-21T11:48:47Z</time>
      </trkpt>
      <trkpt lat="42.872993" lon="-7.824017">
        <ele>619.665</ele>
        <time>2022-08-21T11:48:52Z</time>
      </trkpt>
      <trkpt lat="42.872985" lon="-7.824079">
        <ele>619.377</ele>
        <time>2022-08-21T11:48:56Z</time>
      </trkpt>
      <trkpt lat="42.872990" lon="-7.824150">
        <ele>618.952</ele>
        <time>2022-08-21T11:49:01Z</time>
      </trkpt>
      <trkpt lat="42.872972" lon="-7.824219">
        <ele>618.632</ele>
        <time>2022-08-21T11:49:05Z</time>
      </trkpt>
      <trkpt lat="42.872958" lon="-7.824295">
        <ele>618.475</ele>
        <time>2022-08-21T11:49:09Z</time>
      </trkpt>
      <trkpt lat="42.872956" lon="-7.824356">
        <ele>618.367</ele>
        <time>2022-08-21T11:49:13Z</time>
      </trkpt>
      <trkpt lat="42.872958" lon="-7.824433">
        <ele>618.228</ele>
        <time>2022-08-21T11:49:17Z</time>
      </trkpt>
      <trkpt lat="42.872952" lon="-7.824501">
        <ele>618.089</ele>
        <time>2022-08-21T11:49:21Z</time>
      </trkpt>
      <trkpt lat="42.872953" lon="-7.824570">
        <ele>617.717</ele>
        <time>2022-08-21T11:49:26Z</time>
      </trkpt>
      <trkpt lat="42.872953" lon="-7.824636">
        <ele>617.409</ele>
        <time>2022-08-21T11:49:30Z</time>
      </trkpt>
      <trkpt lat="42.872968" lon="-7.824702">
        <ele>617.353</ele>
        <time>2022-08-21T11:49:34Z</time>
      </trkpt>
      <trkpt lat="42.872968" lon="-7.824774">
        <ele>617.253</ele>
        <time>2022-08-21T11:49:38Z</time>
      </trkpt>
      <trkpt lat="42.872967" lon="-7.824852">
        <ele>616.943</ele>
        <time>2022-08-21T11:49:42Z</time>
      </trkpt>
      <trkpt lat="42.872976" lon="-7.824923">
        <ele>616.585</ele>
        <time>2022-08-21T11:49:46Z</time>
      </trkpt>
      <trkpt lat="42.872988" lon="-7.824982">
        <ele>616.127</ele>
        <time>2022-08-21T11:49:50Z</time>
      </trkpt>
      <trkpt lat="42.873004" lon="-7.825043">
        <ele>615.752</ele>
        <time>2022-08-21T11:49:54Z</time>
      </trkpt>
      <trkpt lat="42.873013" lon="-7.825106">
        <ele>615.542</ele>
        <time>2022-08-21T11:49:59Z</time>
      </trkpt>
      <trkpt lat="42.873028" lon="-7.825167">
        <ele>615.315</ele>
        <time>2022-08-21T11:50:02Z</time>
      </trkpt>
      <trkpt lat="42.873049" lon="-7.825240">
        <ele>615.017</ele>
        <time>2022-08-21T11:50:06Z</time>
      </trkpt>
      <trkpt lat="42.873064" lon="-7.825318">
        <ele>614.821</ele>
        <time>2022-08-21T11:50:10Z</time>
      </trkpt>
      <trkpt lat="42.873084" lon="-7.825388">
        <ele>614.641</ele>
        <time>2022-08-21T11:50:14Z</time>
      </trkpt>
      <trkpt lat="42.873097" lon="-7.825461">
        <ele>614.205</ele>
        <time>2022-08-21T11:50:18Z</time>
      </trkpt>
      <trkpt lat="42.873110" lon="-7.825536">
        <ele>613.909</ele>
        <time>2022-08-21T11:50:22Z</time>
      </trkpt>
      <trkpt lat="42.873123" lon="-7.825599">
        <ele>613.663</ele>
        <time>2022-08-21T11:50:26Z</time>
      </trkpt>
      <trkpt lat="42.873147" lon="-7.825661">
        <ele>613.583</ele>
        <time>2022-08-21T11:50:30Z</time>
      </trkpt>
      <trkpt lat="42.873163" lon="-7.825721">
        <ele>613.493</ele>
        <time>2022-08-21T11:50:34Z</time>
      </trkpt>
      <trkpt lat="42.873181" lon="-7.825794">
        <ele>613.325</ele>
        <time>2022-08-21T11:50:40Z</time>
      </trkpt>
      <trkpt lat="42.873197" lon="-7.825852">
        <ele>613.127</ele>
        <time>2022-08-21T11:50:43Z</time>
      </trkpt>
      <trkpt lat="42.873226" lon="-7.825904">
        <ele>612.982</ele>
        <time>2022-08-21T11:50:47Z</time>
      </trkpt>
      <trkpt lat="42.873247" lon="-7.825969">
        <ele>612.792</ele>
        <time>2022-08-21T11:50:51Z</time>
      </trkpt>
      <trkpt lat="42.873265" lon="-7.826042">
        <ele>612.515</ele>
        <time>2022-08-21T11:50:55Z</time>
      </trkpt>
      <trkpt lat="42.873281" lon="-7.826125">
        <ele>612.447</ele>
        <time>2022-08-21T11:50:59Z</time>
      </trkpt>
      <trkpt lat="42.873299" lon="-7.826202">
        <ele>612.246</ele>
        <time>2022-08-21T11:51:03Z</time>
      </trkpt>
      <trkpt lat="42.873333" lon="-7.826267">
        <ele>612.188</ele>
        <time>2022-08-21T11:51:07Z</time>
      </trkpt>
      <trkpt lat="42.873368" lon="-7.826323">
        <ele>611.916</ele>
        <time>2022-08-21T11:51:11Z</time>
      </trkpt>
      <trkpt lat="42.873388" lon="-7.826382">
        <ele>611.709</ele>
        <time>2022-08-21T11:51:16Z</time>
      </trkpt>
      <trkpt lat="42.873414" lon="-7.826438">
        <ele>611.625</ele>
        <time>2022-08-21T11:51:20Z</time>
      </trkpt>
      <trkpt lat="42.873429" lon="-7.826497">
        <ele>611.315</ele>
        <time>2022-08-21T11:51:25Z</time>
      </trkpt>
      <trkpt lat="42.873458" lon="-7.826548">
        <ele>611.025</ele>
        <time>2022-08-21T11:51:30Z</time>
      </trkpt>
      <trkpt lat="42.873489" lon="-7.826604">
        <ele>610.727</ele>
        <time>2022-08-21T11:51:35Z</time>
      </trkpt>
      <trkpt lat="42.873516" lon="-7.826657">
        <ele>610.429</ele>
        <time>2022-08-21T11:51:39Z</time>
      </trkpt>
      <trkpt lat="42.873565" lon="-7.826711">
        <ele>610.064</ele>
        <time>2022-08-21T11:51:43Z</time>
      </trkpt>
      <trkpt lat="42.873605" lon="-7.826764">
        <ele>609.774</ele>
        <time>2022-08-21T11:51:46Z</time>
      </trkpt>
      <trkpt lat="42.873647" lon="-7.826816">
        <ele>609.327</ele>
        <time>2022-08-21T11:51:51Z</time>
      </trkpt>
      <trkpt lat="42.873680" lon="-7.826876">
        <ele>609.049</ele>
        <time>2022-08-21T11:51:55Z</time>
      </trkpt>
      <trkpt lat="42.873714" lon="-7.826926">
        <ele>608.773</ele>
        <time>2022-08-21T11:51:59Z</time>
      </trkpt>
      <trkpt lat="42.873756" lon="-7.826985">
        <ele>608.485</ele>
        <time>2022-08-21T11:52:03Z</time>
      </trkpt>
      <trkpt lat="42.873793" lon="-7.827036">
        <ele>608.113</ele>
        <time>2022-08-21T11:52:06Z</time>
      </trkpt>
      <trkpt lat="42.873838" lon="-7.827078">
        <ele>607.909</ele>
        <time>2022-08-21T11:52:10Z</time>
      </trkpt>
      <trkpt lat="42.873873" lon="-7.827135">
        <ele>607.558</ele>
        <time>2022-08-21T11:52:14Z</time>
      </trkpt>
      <trkpt lat="42.873902" lon="-7.827192">
        <ele>607.198</ele>
        <time>2022-08-21T11:52:17Z</time>
      </trkpt>
      <trkpt lat="42.873939" lon="-7.827250">
        <ele>606.958</ele>
        <time>2022-08-21T11:52:21Z</time>
      </trkpt>
      <trkpt lat="42.873970" lon="-7.827296">
        <ele>606.660</ele>
        <time>2022-08-21T11:52:24Z</time>
      </trkpt>
      <trkpt lat="42.874001" lon="-7.827350">
        <ele>606.392</ele>
        <time>2022-08-21T11:52:28Z</time>
      </trkpt>
      <trkpt lat="42.874033" lon="-7.827402">
        <ele>605.987</ele>
        <time>2022-08-21T11:52:32Z</time>
      </trkpt>
      <trkpt lat="42.874063" lon="-7.827474">
        <ele>605.677</ele>
        <time>2022-08-21T11:52:36Z</time>
      </trkpt>
      <trkpt lat="42.874097" lon="-7.827522">
        <ele>605.380</ele>
        <time>2022-08-21T11:52:39Z</time>
      </trkpt>
      <trkpt lat="42.874117" lon="-7.827584">
        <ele>605.062</ele>
        <time>2022-08-21T11:52:42Z</time>
      </trkpt>
      <trkpt lat="42.874142" lon="-7.827656">
        <ele>604.842</ele>
        <time>2022-08-21T11:52:46Z</time>
      </trkpt>
      <trkpt lat="42.874173" lon="-7.827718">
        <ele>604.622</ele>
        <time>2022-08-21T11:52:50Z</time>
      </trkpt>
      <trkpt lat="42.874209" lon="-7.827770">
        <ele>604.514</ele>
        <time>2022-08-21T11:52:54Z</time>
      </trkpt>
      <trkpt lat="42.874243" lon="-7.827830">
        <ele>604.109</ele>
        <time>2022-08-21T11:52:58Z</time>
      </trkpt>
      <trkpt lat="42.874269" lon="-7.827890">
        <ele>603.925</ele>
        <time>2022-08-21T11:53:02Z</time>
      </trkpt>
      <trkpt lat="42.874291" lon="-7.827957">
        <ele>603.895</ele>
        <time>2022-08-21T11:53:07Z</time>
      </trkpt>
      <trkpt lat="42.874312" lon="-7.828014">
        <ele>603.795</ele>
        <time>2022-08-21T11:53:11Z</time>
      </trkpt>
      <trkpt lat="42.874332" lon="-7.828079">
        <ele>603.667</ele>
        <time>2022-08-21T11:53:15Z</time>
      </trkpt>
      <trkpt lat="42.874358" lon="-7.828137">
        <ele>603.539</ele>
        <time>2022-08-21T11:53:19Z</time>
      </trkpt>
      <trkpt lat="42.874388" lon="-7.828192">
        <ele>603.434</ele>
        <time>2022-08-21T11:53:22Z</time>
      </trkpt>
      <trkpt lat="42.874419" lon="-7.828258">
        <ele>603.324</ele>
        <time>2022-08-21T11:53:26Z</time>
      </trkpt>
      <trkpt lat="42.874451" lon="-7.828323">
        <ele>603.217</ele>
        <time>2022-08-21T11:53:30Z</time>
      </trkpt>
      <trkpt lat="42.874485" lon="-7.828383">
        <ele>603.169</ele>
        <time>2022-08-21T11:53:34Z</time>
      </trkpt>
      <trkpt lat="42.874512" lon="-7.828444">
        <ele>603.133</ele>
        <time>2022-08-21T11:53:38Z</time>
      </trkpt>
      <trkpt lat="42.874540" lon="-7.828506">
        <ele>603.123</ele>
        <time>2022-08-21T11:53:42Z</time>
      </trkpt>
      <trkpt lat="42.874572" lon="-7.828566">
        <ele>603.115</ele>
        <time>2022-08-21T11:53:46Z</time>
      </trkpt>
      <trkpt lat="42.874601" lon="-7.828625">
        <ele>603.009</ele>
        <time>2022-08-21T11:53:50Z</time>
      </trkpt>
      <trkpt lat="42.874621" lon="-7.828696">
        <ele>602.974</ele>
        <time>2022-08-21T11:53:54Z</time>
      </trkpt>
      <trkpt lat="42.874645" lon="-7.828761">
        <ele>602.934</ele>
        <time>2022-08-21T11:53:58Z</time>
      </trkpt>
      <trkpt lat="42.874674" lon="-7.828823">
        <ele>602.974</ele>
        <time>2022-08-21T11:54:02Z</time>
      </trkpt>
      <trkpt lat="42.874697" lon="-7.828890">
        <ele>602.986</ele>
        <time>2022-08-21T11:54:06Z</time>
      </trkpt>
      <trkpt lat="42.874723" lon="-7.828953">
        <ele>603.058</ele>
        <time>2022-08-21T11:54:10Z</time>
      </trkpt>
      <trkpt lat="42.874746" lon="-7.829016">
        <ele>603.043</ele>
        <time>2022-08-21T11:54:14Z</time>
      </trkpt>
      <trkpt lat="42.874788" lon="-7.829063">
        <ele>603.063</ele>
        <time>2022-08-21T11:54:18Z</time>
      </trkpt>
      <trkpt lat="42.874829" lon="-7.829112">
        <ele>603.096</ele>
        <time>2022-08-21T11:54:22Z</time>
      </trkpt>
      <trkpt lat="42.874866" lon="-7.829154">
        <ele>603.098</ele>
        <time>2022-08-21T11:54:26Z</time>
      </trkpt>
      <trkpt lat="42.874911" lon="-7.829197">
        <ele>602.961</ele>
        <time>2022-08-21T11:54:31Z</time>
      </trkpt>
      <trkpt lat="42.874957" lon="-7.829231">
        <ele>602.721</ele>
        <time>2022-08-21T11:54:36Z</time>
      </trkpt>
      <trkpt lat="42.875000" lon="-7.829272">
        <ele>602.313</ele>
        <time>2022-08-21T11:54:41Z</time>
      </trkpt>
      <trkpt lat="42.875043" lon="-7.829305">
        <ele>601.909</ele>
        <time>2022-08-21T11:54:46Z</time>
      </trkpt>
      <trkpt lat="42.875082" lon="-7.829342">
        <ele>601.567</ele>
        <time>2022-08-21T11:54:50Z</time>
      </trkpt>
      <trkpt lat="42.875120" lon="-7.829385">
        <ele>601.247</ele>
        <time>2022-08-21T11:54:54Z</time>
      </trkpt>
      <trkpt lat="42.875144" lon="-7.829446">
        <ele>601.047</ele>
        <time>2022-08-21T11:54:58Z</time>
      </trkpt>
      <trkpt lat="42.875174" lon="-7.829502">
        <ele>600.829</ele>
        <time>2022-08-21T11:55:02Z</time>
      </trkpt>
      <trkpt lat="42.875189" lon="-7.829560">
        <ele>600.681</ele>
        <time>2022-08-21T11:55:05Z</time>
      </trkpt>
      <trkpt lat="42.875220" lon="-7.829616">
        <ele>600.466</ele>
        <time>2022-08-21T11:55:09Z</time>
      </trkpt>
      <trkpt lat="42.875244" lon="-7.829686">
        <ele>600.396</ele>
        <time>2022-08-21T11:55:13Z</time>
      </trkpt>
      <trkpt lat="42.875273" lon="-7.829751">
        <ele>600.249</ele>
        <time>2022-08-21T11:55:17Z</time>
      </trkpt>
      <trkpt lat="42.875291" lon="-7.829814">
        <ele>600.241</ele>
        <time>2022-08-21T11:55:21Z</time>
      </trkpt>
      <trkpt lat="42.875317" lon="-7.829883">
        <ele>600.212</ele>
        <time>2022-08-21T11:55:25Z</time>
      </trkpt>
      <trkpt lat="42.875344" lon="-7.829949">
        <ele>600.232</ele>
        <time>2022-08-21T11:55:29Z</time>
      </trkpt>
      <trkpt lat="42.875360" lon="-7.830015">
        <ele>600.205</ele>
        <time>2022-08-21T11:55:33Z</time>
      </trkpt>
      <trkpt lat="42.875384" lon="-7.830085">
        <ele>600.209</ele>
        <time>2022-08-21T11:55:37Z</time>
      </trkpt>
      <trkpt lat="42.875403" lon="-7.830153">
        <ele>600.152</ele>
        <time>2022-08-21T11:55:42Z</time>
      </trkpt>
      <trkpt lat="42.875418" lon="-7.830220">
        <ele>600.192</ele>
        <time>2022-08-21T11:55:46Z</time>
      </trkpt>
      <trkpt lat="42.875442" lon="-7.830276">
        <ele>600.172</ele>
        <time>2022-08-21T11:55:50Z</time>
      </trkpt>
      <trkpt lat="42.875468" lon="-7.830344">
        <ele>600.154</ele>
        <time>2022-08-21T11:55:54Z</time>
      </trkpt>
      <trkpt lat="42.875469" lon="-7.830423">
        <ele>600.126</ele>
        <time>2022-08-21T11:55:58Z</time>
      </trkpt>
      <trkpt lat="42.875492" lon="-7.830489">
        <ele>600.171</ele>
        <time>2022-08-21T11:56:02Z</time>
      </trkpt>
      <trkpt lat="42.875511" lon="-7.830554">
        <ele>600.151</ele>
        <time>2022-08-21T11:56:06Z</time>
      </trkpt>
      <trkpt lat="42.875532" lon="-7.830613">
        <ele>600.154</ele>
        <time>2022-08-21T11:56:10Z</time>
      </trkpt>
      <trkpt lat="42.875548" lon="-7.830676">
        <ele>600.116</ele>
        <time>2022-08-21T11:56:14Z</time>
      </trkpt>
      <trkpt lat="42.875559" lon="-7.830748">
        <ele>600.245</ele>
        <time>2022-08-21T11:56:18Z</time>
      </trkpt>
      <trkpt lat="42.875578" lon="-7.830817">
        <ele>600.347</ele>
        <time>2022-08-21T11:56:22Z</time>
      </trkpt>
      <trkpt lat="42.875598" lon="-7.830885">
        <ele>600.311</ele>
        <time>2022-08-21T11:56:26Z</time>
      </trkpt>
      <trkpt lat="42.875602" lon="-7.830948">
        <ele>600.309</ele>
        <time>2022-08-21T11:56:29Z</time>
      </trkpt>
      <trkpt lat="42.875617" lon="-7.831011">
        <ele>600.325</ele>
        <time>2022-08-21T11:56:33Z</time>
      </trkpt>
      <trkpt lat="42.875614" lon="-7.831082">
        <ele>600.375</ele>
        <time>2022-08-21T11:56:37Z</time>
      </trkpt>
      <trkpt lat="42.875628" lon="-7.831153">
        <ele>600.435</ele>
        <time>2022-08-21T11:56:41Z</time>
      </trkpt>
      <trkpt lat="42.875645" lon="-7.831220">
        <ele>600.437</ele>
        <time>2022-08-21T11:56:45Z</time>
      </trkpt>
      <trkpt lat="42.875644" lon="-7.831282">
        <ele>600.459</ele>
        <time>2022-08-21T11:56:48Z</time>
      </trkpt>
      <trkpt lat="42.875662" lon="-7.831338">
        <ele>600.464</ele>
        <time>2022-08-21T11:56:51Z</time>
      </trkpt>
      <trkpt lat="42.875681" lon="-7.831407">
        <ele>600.464</ele>
        <time>2022-08-21T11:56:55Z</time>
      </trkpt>
      <trkpt lat="42.875690" lon="-7.831481">
        <ele>600.437</ele>
        <time>2022-08-21T11:56:59Z</time>
      </trkpt>
      <trkpt lat="42.875702" lon="-7.831552">
        <ele>600.519</ele>
        <time>2022-08-21T11:57:03Z</time>
      </trkpt>
      <trkpt lat="42.875706" lon="-7.831626">
        <ele>600.679</ele>
        <time>2022-08-21T11:57:07Z</time>
      </trkpt>
      <trkpt lat="42.875716" lon="-7.831701">
        <ele>600.705</ele>
        <time>2022-08-21T11:57:11Z</time>
      </trkpt>
      <trkpt lat="42.875732" lon="-7.831773">
        <ele>600.725</ele>
        <time>2022-08-21T11:57:15Z</time>
      </trkpt>
      <trkpt lat="42.875741" lon="-7.831845">
        <ele>600.809</ele>
        <time>2022-08-21T11:57:19Z</time>
      </trkpt>
      <trkpt lat="42.875741" lon="-7.831914">
        <ele>600.868</ele>
        <time>2022-08-21T11:57:36Z</time>
      </trkpt>
      <trkpt lat="42.875756" lon="-7.831994">
        <ele>601.038</ele>
        <time>2022-08-21T11:57:41Z</time>
      </trkpt>
      <trkpt lat="42.875770" lon="-7.832073">
        <ele>601.098</ele>
        <time>2022-08-21T11:57:45Z</time>
      </trkpt>
      <trkpt lat="42.875784" lon="-7.832149">
        <ele>601.120</ele>
        <time>2022-08-21T11:57:49Z</time>
      </trkpt>
      <trkpt lat="42.875799" lon="-7.832223">
        <ele>601.292</ele>
        <time>2022-08-21T11:57:53Z</time>
      </trkpt>
      <trkpt lat="42.875802" lon="-7.832301">
        <ele>601.367</ele>
        <time>2022-08-21T11:57:57Z</time>
      </trkpt>
      <trkpt lat="42.875817" lon="-7.832376">
        <ele>601.527</ele>
        <time>2022-08-21T11:58:01Z</time>
      </trkpt>
      <trkpt lat="42.875834" lon="-7.832450">
        <ele>601.680</ele>
        <time>2022-08-21T11:58:05Z</time>
      </trkpt>
      <trkpt lat="42.875851" lon="-7.832520">
        <ele>601.712</ele>
        <time>2022-08-21T11:58:09Z</time>
      </trkpt>
      <trkpt lat="42.875863" lon="-7.832596">
        <ele>601.884</ele>
        <time>2022-08-21T11:58:13Z</time>
      </trkpt>
      <trkpt lat="42.875882" lon="-7.832663">
        <ele>601.907</ele>
        <time>2022-08-21T11:58:17Z</time>
      </trkpt>
      <trkpt lat="42.875886" lon="-7.832732">
        <ele>602.017</ele>
        <time>2022-08-21T11:58:21Z</time>
      </trkpt>
      <trkpt lat="42.875895" lon="-7.832806">
        <ele>602.109</ele>
        <time>2022-08-21T11:58:25Z</time>
      </trkpt>
      <trkpt lat="42.875902" lon="-7.832875">
        <ele>602.119</ele>
        <time>2022-08-21T11:58:29Z</time>
      </trkpt>
      <trkpt lat="42.875914" lon="-7.832940">
        <ele>602.269</ele>
        <time>2022-08-21T11:58:33Z</time>
      </trkpt>
      <trkpt lat="42.875923" lon="-7.833007">
        <ele>602.369</ele>
        <time>2022-08-21T11:58:37Z</time>
      </trkpt>
      <trkpt lat="42.875927" lon="-7.833078">
        <ele>602.591</ele>
        <time>2022-08-21T11:58:41Z</time>
      </trkpt>
      <trkpt lat="42.875930" lon="-7.833154">
        <ele>602.723</ele>
        <time>2022-08-21T11:58:45Z</time>
      </trkpt>
      <trkpt lat="42.875930" lon="-7.833233">
        <ele>602.818</ele>
        <time>2022-08-21T11:58:49Z</time>
      </trkpt>
      <trkpt lat="42.875925" lon="-7.833303">
        <ele>602.928</ele>
        <time>2022-08-21T11:58:53Z</time>
      </trkpt>
      <trkpt lat="42.875936" lon="-7.833370">
        <ele>603.181</ele>
        <time>2022-08-21T11:58:57Z</time>
      </trkpt>
      <trkpt lat="42.875944" lon="-7.833440">
        <ele>603.313</ele>
        <time>2022-08-21T11:59:01Z</time>
      </trkpt>
      <trkpt lat="42.875948" lon="-7.833516">
        <ele>603.531</ele>
        <time>2022-08-21T11:59:05Z</time>
      </trkpt>
      <trkpt lat="42.875959" lon="-7.833585">
        <ele>603.761</ele>
        <time>2022-08-21T11:59:09Z</time>
      </trkpt>
      <trkpt lat="42.875963" lon="-7.833652">
        <ele>603.907</ele>
        <time>2022-08-21T11:59:13Z</time>
      </trkpt>
      <trkpt lat="42.875969" lon="-7.833722">
        <ele>604.209</ele>
        <time>2022-08-21T11:59:17Z</time>
      </trkpt>
      <trkpt lat="42.875980" lon="-7.833791">
        <ele>604.594</ele>
        <time>2022-08-21T11:59:21Z</time>
      </trkpt>
      <trkpt lat="42.875980" lon="-7.833861">
        <ele>604.614</ele>
        <time>2022-08-21T11:59:25Z</time>
      </trkpt>
      <trkpt lat="42.875989" lon="-7.833928">
        <ele>604.684</ele>
        <time>2022-08-21T11:59:29Z</time>
      </trkpt>
      <trkpt lat="42.875992" lon="-7.833997">
        <ele>604.676</ele>
        <time>2022-08-21T11:59:33Z</time>
      </trkpt>
      <trkpt lat="42.875996" lon="-7.834066">
        <ele>604.668</ele>
        <time>2022-08-21T11:59:37Z</time>
      </trkpt>
      <trkpt lat="42.876003" lon="-7.834137">
        <ele>604.643</ele>
        <time>2022-08-21T11:59:41Z</time>
      </trkpt>
      <trkpt lat="42.876004" lon="-7.834210">
        <ele>604.623</ele>
        <time>2022-08-21T11:59:45Z</time>
      </trkpt>
      <trkpt lat="42.876008" lon="-7.834281">
        <ele>604.656</ele>
        <time>2022-08-21T11:59:49Z</time>
      </trkpt>
      <trkpt lat="42.876016" lon="-7.834351">
        <ele>604.698</ele>
        <time>2022-08-21T11:59:53Z</time>
      </trkpt>
      <trkpt lat="42.876027" lon="-7.834421">
        <ele>604.666</ele>
        <time>2022-08-21T11:59:57Z</time>
      </trkpt>
      <trkpt lat="42.876031" lon="-7.834492">
        <ele>604.629</ele>
        <time>2022-08-21T12:00:01Z</time>
      </trkpt>
      <trkpt lat="42.876042" lon="-7.834563">
        <ele>604.621</ele>
        <time>2022-08-21T12:00:05Z</time>
      </trkpt>
      <trkpt lat="42.876041" lon="-7.834633">
        <ele>604.609</ele>
        <time>2022-08-21T12:00:09Z</time>
      </trkpt>
      <trkpt lat="42.876039" lon="-7.834704">
        <ele>604.677</ele>
        <time>2022-08-21T12:00:13Z</time>
      </trkpt>
      <trkpt lat="42.876029" lon="-7.834775">
        <ele>604.617</ele>
        <time>2022-08-21T12:00:17Z</time>
      </trkpt>
      <trkpt lat="42.876020" lon="-7.834849">
        <ele>604.637</ele>
        <time>2022-08-21T12:00:21Z</time>
      </trkpt>
      <trkpt lat="42.876016" lon="-7.834923">
        <ele>604.649</ele>
        <time>2022-08-21T12:00:25Z</time>
      </trkpt>
      <trkpt lat="42.876013" lon="-7.834996">
        <ele>604.681</ele>
        <time>2022-08-21T12:00:29Z</time>
      </trkpt>
      <trkpt lat="42.876007" lon="-7.835069">
        <ele>604.676</ele>
        <time>2022-08-21T12:00:33Z</time>
      </trkpt>
      <trkpt lat="42.876004" lon="-7.835142">
        <ele>604.636</ele>
        <time>2022-08-21T12:00:37Z</time>
      </trkpt>
      <trkpt lat="42.875998" lon="-7.835212">
        <ele>604.659</ele>
        <time>2022-08-21T12:00:41Z</time>
      </trkpt>
      <trkpt lat="42.875993" lon="-7.835281">
        <ele>604.621</ele>
        <time>2022-08-21T12:00:45Z</time>
      </trkpt>
      <trkpt lat="42.875990" lon="-7.835348">
        <ele>604.652</ele>
        <time>2022-08-21T12:00:49Z</time>
      </trkpt>
      <trkpt lat="42.875981" lon="-7.835414">
        <ele>604.653</ele>
        <time>2022-08-21T12:00:53Z</time>
      </trkpt>
      <trkpt lat="42.875982" lon="-7.835477">
        <ele>604.708</ele>
        <time>2022-08-21T12:00:57Z</time>
      </trkpt>
      <trkpt lat="42.875981" lon="-7.835540">
        <ele>604.809</ele>
        <time>2022-08-21T12:01:01Z</time>
      </trkpt>
      <trkpt lat="42.875973" lon="-7.835613">
        <ele>604.916</ele>
        <time>2022-08-21T12:01:06Z</time>
      </trkpt>
      <trkpt lat="42.875961" lon="-7.835680">
        <ele>605.026</ele>
        <time>2022-08-21T12:01:10Z</time>
      </trkpt>
      <trkpt lat="42.875955" lon="-7.835741">
        <ele>605.246</ele>
        <time>2022-08-21T12:01:14Z</time>
      </trkpt>
      <trkpt lat="42.875934" lon="-7.835807">
        <ele>605.478</ele>
        <time>2022-08-21T12:01:18Z</time>
      </trkpt>
      <trkpt lat="42.875924" lon="-7.835867">
        <ele>605.550</ele>
        <time>2022-08-21T12:01:22Z</time>
      </trkpt>
      <trkpt lat="42.875907" lon="-7.835936">
        <ele>605.615</ele>
        <time>2022-08-21T12:01:27Z</time>
      </trkpt>
      <trkpt lat="42.875889" lon="-7.835996">
        <ele>605.735</ele>
        <time>2022-08-21T12:01:31Z</time>
      </trkpt>
      <trkpt lat="42.875876" lon="-7.836059">
        <ele>605.838</ele>
        <time>2022-08-21T12:01:36Z</time>
      </trkpt>
      <trkpt lat="42.875833" lon="-7.836180">
        <ele>606.140</ele>
        <time>2022-08-21T12:01:53Z</time>
      </trkpt>
      <trkpt lat="42.875825" lon="-7.836249">
        <ele>606.387</ele>
        <time>2022-08-21T12:01:57Z</time>
      </trkpt>
      <trkpt lat="42.875828" lon="-7.836328">
        <ele>606.642</ele>
        <time>2022-08-21T12:02:02Z</time>
      </trkpt>
      <trkpt lat="42.875834" lon="-7.836399">
        <ele>606.726</ele>
        <time>2022-08-21T12:02:06Z</time>
      </trkpt>
      <trkpt lat="42.875847" lon="-7.836461">
        <ele>606.709</ele>
        <time>2022-08-21T12:02:10Z</time>
      </trkpt>
      <trkpt lat="42.875848" lon="-7.836529">
        <ele>606.739</ele>
        <time>2022-08-21T12:02:14Z</time>
      </trkpt>
      <trkpt lat="42.875845" lon="-7.836592">
        <ele>606.819</ele>
        <time>2022-08-21T12:02:18Z</time>
      </trkpt>
      <trkpt lat="42.875837" lon="-7.836660">
        <ele>606.949</ele>
        <time>2022-08-21T12:02:23Z</time>
      </trkpt>
      <trkpt lat="42.875817" lon="-7.836728">
        <ele>607.161</ele>
        <time>2022-08-21T12:02:28Z</time>
      </trkpt>
      <trkpt lat="42.875810" lon="-7.836794">
        <ele>607.353</ele>
        <time>2022-08-21T12:02:32Z</time>
      </trkpt>
      <trkpt lat="42.875804" lon="-7.836858">
        <ele>607.548</ele>
        <time>2022-08-21T12:02:37Z</time>
      </trkpt>
      <trkpt lat="42.875800" lon="-7.836925">
        <ele>607.618</ele>
        <time>2022-08-21T12:02:41Z</time>
      </trkpt>
      <trkpt lat="42.875790" lon="-7.836996">
        <ele>607.751</ele>
        <time>2022-08-21T12:02:46Z</time>
      </trkpt>
      <trkpt lat="42.875787" lon="-7.837063">
        <ele>607.863</ele>
        <time>2022-08-21T12:02:50Z</time>
      </trkpt>
      <trkpt lat="42.875768" lon="-7.837125">
        <ele>607.942</ele>
        <time>2022-08-21T12:02:54Z</time>
      </trkpt>
      <trkpt lat="42.875751" lon="-7.837188">
        <ele>608.022</ele>
        <time>2022-08-21T12:02:58Z</time>
      </trkpt>
      <trkpt lat="42.875734" lon="-7.837259">
        <ele>608.014</ele>
        <time>2022-08-21T12:03:04Z</time>
      </trkpt>
      <trkpt lat="42.875723" lon="-7.837321">
        <ele>608.009</ele>
        <time>2022-08-21T12:03:09Z</time>
      </trkpt>
      <trkpt lat="42.875701" lon="-7.837375">
        <ele>608.125</ele>
        <time>2022-08-21T12:03:13Z</time>
      </trkpt>
      <trkpt lat="42.875674" lon="-7.837443">
        <ele>608.295</ele>
        <time>2022-08-21T12:03:18Z</time>
      </trkpt>
      <trkpt lat="42.875643" lon="-7.837498">
        <ele>608.345</ele>
        <time>2022-08-21T12:03:22Z</time>
      </trkpt>
      <trkpt lat="42.875609" lon="-7.837569">
        <ele>608.427</ele>
        <time>2022-08-21T12:03:27Z</time>
      </trkpt>
      <trkpt lat="42.875577" lon="-7.837636">
        <ele>608.679</ele>
        <time>2022-08-21T12:03:32Z</time>
      </trkpt>
      <trkpt lat="42.875543" lon="-7.837697">
        <ele>608.834</ele>
        <time>2022-08-21T12:03:37Z</time>
      </trkpt>
      <trkpt lat="42.875508" lon="-7.837748">
        <ele>609.094</ele>
        <time>2022-08-21T12:03:41Z</time>
      </trkpt>
      <trkpt lat="42.875479" lon="-7.837797">
        <ele>609.187</ele>
        <time>2022-08-21T12:03:45Z</time>
      </trkpt>
      <trkpt lat="42.875449" lon="-7.837849">
        <ele>609.189</ele>
        <time>2022-08-21T12:03:49Z</time>
      </trkpt>
      <trkpt lat="42.875421" lon="-7.837898">
        <ele>609.271</ele>
        <time>2022-08-21T12:03:53Z</time>
      </trkpt>
      <trkpt lat="42.875389" lon="-7.837948">
        <ele>609.341</ele>
        <time>2022-08-21T12:03:58Z</time>
      </trkpt>
      <trkpt lat="42.875360" lon="-7.838005">
        <ele>609.415</ele>
        <time>2022-08-21T12:04:02Z</time>
      </trkpt>
      <trkpt lat="42.875317" lon="-7.838073">
        <ele>609.609</ele>
        <time>2022-08-21T12:04:06Z</time>
      </trkpt>
      <trkpt lat="42.875296" lon="-7.838133">
        <ele>609.958</ele>
        <time>2022-08-21T12:04:09Z</time>
      </trkpt>
      <trkpt lat="42.875265" lon="-7.838201">
        <ele>610.448</ele>
        <time>2022-08-21T12:04:13Z</time>
      </trkpt>
      <trkpt lat="42.875228" lon="-7.838252">
        <ele>610.768</ele>
        <time>2022-08-21T12:04:17Z</time>
      </trkpt>
      <trkpt lat="42.875199" lon="-7.838318">
        <ele>611.110</ele>
        <time>2022-08-21T12:04:22Z</time>
      </trkpt>
      <trkpt lat="42.875164" lon="-7.838361">
        <ele>611.482</ele>
        <time>2022-08-21T12:04:27Z</time>
      </trkpt>
      <trkpt lat="42.875136" lon="-7.838411">
        <ele>611.977</ele>
        <time>2022-08-21T12:04:31Z</time>
      </trkpt>
      <trkpt lat="42.875107" lon="-7.838476">
        <ele>612.347</ele>
        <time>2022-08-21T12:04:36Z</time>
      </trkpt>
      <trkpt lat="42.875067" lon="-7.838545">
        <ele>612.540</ele>
        <time>2022-08-21T12:04:41Z</time>
      </trkpt>
      <trkpt lat="42.875032" lon="-7.838606">
        <ele>612.722</ele>
        <time>2022-08-21T12:04:44Z</time>
      </trkpt>
      <trkpt lat="42.874992" lon="-7.838662">
        <ele>612.731</ele>
        <time>2022-08-21T12:04:48Z</time>
      </trkpt>
      <trkpt lat="42.874964" lon="-7.838730">
        <ele>612.761</ele>
        <time>2022-08-21T12:04:52Z</time>
      </trkpt>
      <trkpt lat="42.874937" lon="-7.838791">
        <ele>612.707</ele>
        <time>2022-08-21T12:04:56Z</time>
      </trkpt>
      <trkpt lat="42.874914" lon="-7.838854">
        <ele>612.809</ele>
        <time>2022-08-21T12:05:00Z</time>
      </trkpt>
      <trkpt lat="42.874896" lon="-7.838917">
        <ele>612.944</ele>
        <time>2022-08-21T12:05:04Z</time>
      </trkpt>
      <trkpt lat="42.874870" lon="-7.838981">
        <ele>613.044</ele>
        <time>2022-08-21T12:05:09Z</time>
      </trkpt>
      <trkpt lat="42.874835" lon="-7.839040">
        <ele>613.234</ele>
        <time>2022-08-21T12:05:13Z</time>
      </trkpt>
      <trkpt lat="42.874809" lon="-7.839095">
        <ele>613.456</ele>
        <time>2022-08-21T12:05:17Z</time>
      </trkpt>
      <trkpt lat="42.874774" lon="-7.839156">
        <ele>613.598</ele>
        <time>2022-08-21T12:05:21Z</time>
      </trkpt>
      <trkpt lat="42.874743" lon="-7.839219">
        <ele>613.753</ele>
        <time>2022-08-21T12:05:26Z</time>
      </trkpt>
      <trkpt lat="42.874710" lon="-7.839275">
        <ele>613.823</ele>
        <time>2022-08-21T12:05:30Z</time>
      </trkpt>
      <trkpt lat="42.874671" lon="-7.839329">
        <ele>614.046</ele>
        <time>2022-08-21T12:05:35Z</time>
      </trkpt>
      <trkpt lat="42.874635" lon="-7.839372">
        <ele>614.298</ele>
        <time>2022-08-21T12:05:39Z</time>
      </trkpt>
      <trkpt lat="42.874609" lon="-7.839427">
        <ele>614.322</ele>
        <time>2022-08-21T12:05:43Z</time>
      </trkpt>
      <trkpt lat="42.874579" lon="-7.839492">
        <ele>614.462</ele>
        <time>2022-08-21T12:05:48Z</time>
      </trkpt>
      <trkpt lat="42.874552" lon="-7.839565">
        <ele>614.508</ele>
        <time>2022-08-21T12:05:51Z</time>
      </trkpt>
      <trkpt lat="42.874523" lon="-7.839619">
        <ele>614.509</ele>
        <time>2022-08-21T12:05:54Z</time>
      </trkpt>
      <trkpt lat="42.874496" lon="-7.839672">
        <ele>614.573</ele>
        <time>2022-08-21T12:05:58Z</time>
      </trkpt>
      <trkpt lat="42.874480" lon="-7.839761">
        <ele>614.543</ele>
        <time>2022-08-21T12:06:02Z</time>
      </trkpt>
      <trkpt lat="42.874462" lon="-7.839822">
        <ele>614.573</ele>
        <time>2022-08-21T12:06:06Z</time>
      </trkpt>
      <trkpt lat="42.874461" lon="-7.839901">
        <ele>614.585</ele>
        <time>2022-08-21T12:06:11Z</time>
      </trkpt>
      <trkpt lat="42.874460" lon="-7.839971">
        <ele>614.367</ele>
        <time>2022-08-21T12:06:15Z</time>
      </trkpt>
      <trkpt lat="42.874461" lon="-7.840038">
        <ele>614.132</ele>
        <time>2022-08-21T12:06:19Z</time>
      </trkpt>
      <trkpt lat="42.874460" lon="-7.840120">
        <ele>614.172</ele>
        <time>2022-08-21T12:06:24Z</time>
      </trkpt>
      <trkpt lat="42.874451" lon="-7.840197">
        <ele>614.015</ele>
        <time>2022-08-21T12:06:29Z</time>
      </trkpt>
      <trkpt lat="42.874454" lon="-7.840277">
        <ele>614.047</ele>
        <time>2022-08-21T12:06:34Z</time>
      </trkpt>
      <trkpt lat="42.874458" lon="-7.840344">
        <ele>614.027</ele>
        <time>2022-08-21T12:06:38Z</time>
      </trkpt>
      <trkpt lat="42.874456" lon="-7.840410">
        <ele>614.068</ele>
        <time>2022-08-21T12:06:42Z</time>
      </trkpt>
      <trkpt lat="42.874457" lon="-7.840476">
        <ele>614.014</ele>
        <time>2022-08-21T12:06:46Z</time>
      </trkpt>
      <trkpt lat="42.874448" lon="-7.840544">
        <ele>614.009</ele>
        <time>2022-08-21T12:06:50Z</time>
      </trkpt>
      <trkpt lat="42.874448" lon="-7.840617">
        <ele>614.063</ele>
        <time>2022-08-21T12:06:54Z</time>
      </trkpt>
      <trkpt lat="42.874446" lon="-7.840691">
        <ele>613.983</ele>
        <time>2022-08-21T12:06:58Z</time>
      </trkpt>
      <trkpt lat="42.874456" lon="-7.840758">
        <ele>613.923</ele>
        <time>2022-08-21T12:07:02Z</time>
      </trkpt>
      <trkpt lat="42.874443" lon="-7.840832">
        <ele>613.845</ele>
        <time>2022-08-21T12:07:06Z</time>
      </trkpt>
      <trkpt lat="42.874447" lon="-7.840905">
        <ele>613.787</ele>
        <time>2022-08-21T12:07:10Z</time>
      </trkpt>
      <trkpt lat="42.874439" lon="-7.840971">
        <ele>613.752</ele>
        <time>2022-08-21T12:07:14Z</time>
      </trkpt>
      <trkpt lat="42.874434" lon="-7.841038">
        <ele>613.762</ele>
        <time>2022-08-21T12:07:17Z</time>
      </trkpt>
      <trkpt lat="42.874434" lon="-7.841110">
        <ele>613.735</ele>
        <time>2022-08-21T12:07:21Z</time>
      </trkpt>
      <trkpt lat="42.874436" lon="-7.841172">
        <ele>613.757</ele>
        <time>2022-08-21T12:07:24Z</time>
      </trkpt>
      <trkpt lat="42.874435" lon="-7.841240">
        <ele>613.748</ele>
        <time>2022-08-21T12:07:28Z</time>
      </trkpt>
      <trkpt lat="42.874435" lon="-7.841303">
        <ele>613.761</ele>
        <time>2022-08-21T12:07:31Z</time>
      </trkpt>
      <trkpt lat="42.874428" lon="-7.841375">
        <ele>613.817</ele>
        <time>2022-08-21T12:07:35Z</time>
      </trkpt>
      <trkpt lat="42.874415" lon="-7.841444">
        <ele>613.909</ele>
        <time>2022-08-21T12:07:39Z</time>
      </trkpt>
      <trkpt lat="42.874403" lon="-7.841513">
        <ele>613.995</ele>
        <time>2022-08-21T12:07:43Z</time>
      </trkpt>
      <trkpt lat="42.874393" lon="-7.841588">
        <ele>613.965</ele>
        <time>2022-08-21T12:07:47Z</time>
      </trkpt>
      <trkpt lat="42.874381" lon="-7.841666">
        <ele>613.925</ele>
        <time>2022-08-21T12:07:51Z</time>
      </trkpt>
      <trkpt lat="42.874368" lon="-7.841740">
        <ele>613.917</ele>
        <time>2022-08-21T12:07:55Z</time>
      </trkpt>
      <trkpt lat="42.874356" lon="-7.841808">
        <ele>614.069</ele>
        <time>2022-08-21T12:07:59Z</time>
      </trkpt>
      <trkpt lat="42.874349" lon="-7.841883">
        <ele>614.234</ele>
        <time>2022-08-21T12:08:03Z</time>
      </trkpt>
      <trkpt lat="42.874342" lon="-7.841957">
        <ele>614.314</ele>
        <time>2022-08-21T12:08:07Z</time>
      </trkpt>
      <trkpt lat="42.874338" lon="-7.842024">
        <ele>614.317</ele>
        <time>2022-08-21T12:08:11Z</time>
      </trkpt>
      <trkpt lat="42.874321" lon="-7.842095">
        <ele>614.359</ele>
        <time>2022-08-21T12:08:15Z</time>
      </trkpt>
      <trkpt lat="42.874317" lon="-7.842165">
        <ele>614.332</ele>
        <time>2022-08-21T12:08:19Z</time>
      </trkpt>
      <trkpt lat="42.874307" lon="-7.842228">
        <ele>614.392</ele>
        <time>2022-08-21T12:08:25Z</time>
      </trkpt>
      <trkpt lat="42.874317" lon="-7.842306">
        <ele>614.311</ele>
        <time>2022-08-21T12:08:29Z</time>
      </trkpt>
      <trkpt lat="42.874325" lon="-7.842373">
        <ele>614.609</ele>
        <time>2022-08-21T12:08:34Z</time>
      </trkpt>
      <trkpt lat="42.874316" lon="-7.842441">
        <ele>615.084</ele>
        <time>2022-08-21T12:08:39Z</time>
      </trkpt>
      <trkpt lat="42.874316" lon="-7.842510">
        <ele>615.214</ele>
        <time>2022-08-21T12:08:44Z</time>
      </trkpt>
      <trkpt lat="42.874313" lon="-7.842575">
        <ele>615.354</ele>
        <time>2022-08-21T12:08:49Z</time>
      </trkpt>
      <trkpt lat="42.874329" lon="-7.842639">
        <ele>615.436</ele>
        <time>2022-08-21T12:08:53Z</time>
      </trkpt>
      <trkpt lat="42.874341" lon="-7.842713">
        <ele>615.688</ele>
        <time>2022-08-21T12:08:56Z</time>
      </trkpt>
      <trkpt lat="42.874343" lon="-7.842787">
        <ele>615.973</ele>
        <time>2022-08-21T12:09:01Z</time>
      </trkpt>
      <trkpt lat="42.874351" lon="-7.842852">
        <ele>616.183</ele>
        <time>2022-08-21T12:09:05Z</time>
      </trkpt>
      <trkpt lat="42.874354" lon="-7.842935">
        <ele>616.396</ele>
        <time>2022-08-21T12:09:09Z</time>
      </trkpt>
      <trkpt lat="42.874382" lon="-7.843004">
        <ele>616.538</ele>
        <time>2022-08-21T12:09:13Z</time>
      </trkpt>
      <trkpt lat="42.874388" lon="-7.843069">
        <ele>616.516</ele>
        <time>2022-08-21T12:09:17Z</time>
      </trkpt>
      <trkpt lat="42.874377" lon="-7.843157">
        <ele>616.776</ele>
        <time>2022-08-21T12:09:21Z</time>
      </trkpt>
      <trkpt lat="42.874389" lon="-7.843221">
        <ele>616.913</ele>
        <time>2022-08-21T12:09:24Z</time>
      </trkpt>
      <trkpt lat="42.874399" lon="-7.843286">
        <ele>617.009</ele>
        <time>2022-08-21T12:09:29Z</time>
      </trkpt>
      <trkpt lat="42.874397" lon="-7.843356">
        <ele>617.182</ele>
        <time>2022-08-21T12:09:32Z</time>
      </trkpt>
      <trkpt lat="42.874401" lon="-7.843434">
        <ele>617.212</ele>
        <time>2022-08-21T12:09:36Z</time>
      </trkpt>
      <trkpt lat="42.874402" lon="-7.843500">
        <ele>617.432</ele>
        <time>2022-08-21T12:09:40Z</time>
      </trkpt>
      <trkpt lat="42.874401" lon="-7.843572">
        <ele>617.774</ele>
        <time>2022-08-21T12:09:44Z</time>
      </trkpt>
      <trkpt lat="42.874413" lon="-7.843634">
        <ele>618.026</ele>
        <time>2022-08-21T12:09:48Z</time>
      </trkpt>
      <trkpt lat="42.874419" lon="-7.843698">
        <ele>618.321</ele>
        <time>2022-08-21T12:09:52Z</time>
      </trkpt>
      <trkpt lat="42.874434" lon="-7.843764">
        <ele>618.781</ele>
        <time>2022-08-21T12:09:56Z</time>
      </trkpt>
      <trkpt lat="42.874443" lon="-7.843831">
        <ele>619.234</ele>
        <time>2022-08-21T12:10:00Z</time>
      </trkpt>
      <trkpt lat="42.874447" lon="-7.843907">
        <ele>619.796</ele>
        <time>2022-08-21T12:10:05Z</time>
      </trkpt>
      <trkpt lat="42.874455" lon="-7.843986">
        <ele>620.188</ele>
        <time>2022-08-21T12:10:10Z</time>
      </trkpt>
      <trkpt lat="42.874445" lon="-7.844062">
        <ele>620.524</ele>
        <time>2022-08-21T12:10:14Z</time>
      </trkpt>
      <trkpt lat="42.874439" lon="-7.844129">
        <ele>620.826</ele>
        <time>2022-08-21T12:10:18Z</time>
      </trkpt>
      <trkpt lat="42.874439" lon="-7.844195">
        <ele>620.909</ele>
        <time>2022-08-21T12:10:22Z</time>
      </trkpt>
      <trkpt lat="42.874438" lon="-7.844282">
        <ele>621.089</ele>
        <time>2022-08-21T12:10:27Z</time>
      </trkpt>
      <trkpt lat="42.874435" lon="-7.844350">
        <ele>621.099</ele>
        <time>2022-08-21T12:10:31Z</time>
      </trkpt>
      <trkpt lat="42.874445" lon="-7.844427">
        <ele>621.049</ele>
        <time>2022-08-21T12:10:36Z</time>
      </trkpt>
      <trkpt lat="42.874434" lon="-7.844501">
        <ele>621.041</ele>
        <time>2022-08-21T12:10:41Z</time>
      </trkpt>
      <trkpt lat="42.874425" lon="-7.844569">
        <ele>621.013</ele>
        <time>2022-08-21T12:10:44Z</time>
      </trkpt>
      <trkpt lat="42.874413" lon="-7.844629">
        <ele>621.088</ele>
        <time>2022-08-21T12:10:47Z</time>
      </trkpt>
      <trkpt lat="42.874386" lon="-7.844679">
        <ele>621.028</ele>
        <time>2022-08-21T12:10:49Z</time>
      </trkpt>
      <trkpt lat="42.874392" lon="-7.844744">
        <ele>621.081</ele>
        <time>2022-08-21T12:10:54Z</time>
      </trkpt>
      <trkpt lat="42.874380" lon="-7.844808">
        <ele>621.023</ele>
        <time>2022-08-21T12:10:57Z</time>
      </trkpt>
      <trkpt lat="42.874380" lon="-7.844882">
        <ele>621.018</ele>
        <time>2022-08-21T12:11:01Z</time>
      </trkpt>
      <trkpt lat="42.874369" lon="-7.844955">
        <ele>621.098</ele>
        <time>2022-08-21T12:11:06Z</time>
      </trkpt>
      <trkpt lat="42.874370" lon="-7.845025">
        <ele>620.917</ele>
        <time>2022-08-21T12:11:10Z</time>
      </trkpt>
      <trkpt lat="42.874381" lon="-7.845098">
        <ele>620.809</ele>
        <time>2022-08-21T12:11:14Z</time>
      </trkpt>
      <trkpt lat="42.874374" lon="-7.845172">
        <ele>620.752</ele>
        <time>2022-08-21T12:11:18Z</time>
      </trkpt>
      <trkpt lat="42.874366" lon="-7.845245">
        <ele>620.622</ele>
        <time>2022-08-21T12:11:22Z</time>
      </trkpt>
      <trkpt lat="42.874383" lon="-7.845309">
        <ele>620.692</ele>
        <time>2022-08-21T12:11:25Z</time>
      </trkpt>
      <trkpt lat="42.874380" lon="-7.845379">
        <ele>620.634</ele>
        <time>2022-08-21T12:11:29Z</time>
      </trkpt>
      <trkpt lat="42.874381" lon="-7.845452">
        <ele>620.696</ele>
        <time>2022-08-21T12:11:33Z</time>
      </trkpt>
      <trkpt lat="42.874377" lon="-7.845525">
        <ele>620.511</ele>
        <time>2022-08-21T12:11:37Z</time>
      </trkpt>
      <trkpt lat="42.874388" lon="-7.845597">
        <ele>620.421</ele>
        <time>2022-08-21T12:11:41Z</time>
      </trkpt>
      <trkpt lat="42.874386" lon="-7.845675">
        <ele>620.364</ele>
        <time>2022-08-21T12:11:45Z</time>
      </trkpt>
      <trkpt lat="42.874384" lon="-7.845748">
        <ele>620.256</ele>
        <time>2022-08-21T12:11:49Z</time>
      </trkpt>
      <trkpt lat="42.874380" lon="-7.845814">
        <ele>620.157</ele>
        <time>2022-08-21T12:11:52Z</time>
      </trkpt>
      <trkpt lat="42.874375" lon="-7.845891">
        <ele>620.000</ele>
        <time>2022-08-21T12:11:56Z</time>
      </trkpt>
      <trkpt lat="42.874376" lon="-7.845963">
        <ele>620.020</ele>
        <time>2022-08-21T12:12:01Z</time>
      </trkpt>
      <trkpt lat="42.874377" lon="-7.846042">
        <ele>620.009</ele>
        <time>2022-08-21T12:12:05Z</time>
      </trkpt>
      <trkpt lat="42.874379" lon="-7.846118">
        <ele>620.046</ele>
        <time>2022-08-21T12:12:10Z</time>
      </trkpt>
      <trkpt lat="42.874374" lon="-7.846181">
        <ele>620.026</ele>
        <time>2022-08-21T12:12:13Z</time>
      </trkpt>
      <trkpt lat="42.874366" lon="-7.846251">
        <ele>620.086</ele>
        <time>2022-08-21T12:12:18Z</time>
      </trkpt>
      <trkpt lat="42.874360" lon="-7.846312">
        <ele>620.058</ele>
        <time>2022-08-21T12:12:21Z</time>
      </trkpt>
      <trkpt lat="42.874354" lon="-7.846393">
        <ele>619.910</ele>
        <time>2022-08-21T12:12:26Z</time>
      </trkpt>
      <trkpt lat="42.874345" lon="-7.846471">
        <ele>619.895</ele>
        <time>2022-08-21T12:12:30Z</time>
      </trkpt>
      <trkpt lat="42.874347" lon="-7.846533">
        <ele>619.735</ele>
        <time>2022-08-21T12:12:33Z</time>
      </trkpt>
      <trkpt lat="42.874342" lon="-7.846596">
        <ele>619.748</ele>
        <time>2022-08-21T12:12:37Z</time>
      </trkpt>
      <trkpt lat="42.874335" lon="-7.846669">
        <ele>619.760</ele>
        <time>2022-08-21T12:12:41Z</time>
      </trkpt>
      <trkpt lat="42.874328" lon="-7.846733">
        <ele>619.789</ele>
        <time>2022-08-21T12:12:44Z</time>
      </trkpt>
      <trkpt lat="42.874316" lon="-7.846793">
        <ele>619.706</ele>
        <time>2022-08-21T12:12:47Z</time>
      </trkpt>
      <trkpt lat="42.874313" lon="-7.846868">
        <ele>619.726</ele>
        <time>2022-08-21T12:12:51Z</time>
      </trkpt>
      <trkpt lat="42.874311" lon="-7.846929">
        <ele>619.709</ele>
        <time>2022-08-21T12:12:55Z</time>
      </trkpt>
      <trkpt lat="42.874327" lon="-7.846988">
        <ele>619.879</ele>
        <time>2022-08-21T12:12:59Z</time>
      </trkpt>
      <trkpt lat="42.874341" lon="-7.847047">
        <ele>620.019</ele>
        <time>2022-08-21T12:13:02Z</time>
      </trkpt>
      <trkpt lat="42.874360" lon="-7.847115">
        <ele>620.419</ele>
        <time>2022-08-21T12:13:06Z</time>
      </trkpt>
      <trkpt lat="42.874365" lon="-7.847183">
        <ele>620.761</ele>
        <time>2022-08-21T12:13:10Z</time>
      </trkpt>
      <trkpt lat="42.874361" lon="-7.847257">
        <ele>620.963</ele>
        <time>2022-08-21T12:13:14Z</time>
      </trkpt>
      <trkpt lat="42.874361" lon="-7.847330">
        <ele>620.928</ele>
        <time>2022-08-21T12:13:18Z</time>
      </trkpt>
      <trkpt lat="42.874347" lon="-7.847403">
        <ele>620.948</ele>
        <time>2022-08-21T12:13:22Z</time>
      </trkpt>
      <trkpt lat="42.874348" lon="-7.847476">
        <ele>620.921</ele>
        <time>2022-08-21T12:13:26Z</time>
      </trkpt>
      <trkpt lat="42.874357" lon="-7.847544">
        <ele>620.843</ele>
        <time>2022-08-21T12:13:30Z</time>
      </trkpt>
      <trkpt lat="42.874346" lon="-7.847607">
        <ele>620.787</ele>
        <time>2022-08-21T12:13:34Z</time>
      </trkpt>
      <trkpt lat="42.874334" lon="-7.847668">
        <ele>620.642</ele>
        <time>2022-08-21T12:13:38Z</time>
      </trkpt>
      <trkpt lat="42.874334" lon="-7.847740">
        <ele>620.626</ele>
        <time>2022-08-21T12:13:43Z</time>
      </trkpt>
      <trkpt lat="42.874333" lon="-7.847817">
        <ele>620.609</ele>
        <time>2022-08-21T12:13:47Z</time>
      </trkpt>
      <trkpt lat="42.874325" lon="-7.847878">
        <ele>620.699</ele>
        <time>2022-08-21T12:13:51Z</time>
      </trkpt>
      <trkpt lat="42.874326" lon="-7.847943">
        <ele>620.799</ele>
        <time>2022-08-21T12:13:55Z</time>
      </trkpt>
      <trkpt lat="42.874314" lon="-7.848024">
        <ele>620.799</ele>
        <time>2022-08-21T12:14:00Z</time>
      </trkpt>
      <trkpt lat="42.874301" lon="-7.848094">
        <ele>620.741</ele>
        <time>2022-08-21T12:14:05Z</time>
      </trkpt>
      <trkpt lat="42.874303" lon="-7.848171">
        <ele>620.723</ele>
        <time>2022-08-21T12:14:09Z</time>
      </trkpt>
      <trkpt lat="42.874311" lon="-7.848250">
        <ele>620.618</ele>
        <time>2022-08-21T12:14:13Z</time>
      </trkpt>
      <trkpt lat="42.874307" lon="-7.848312">
        <ele>620.688</ele>
        <time>2022-08-21T12:14:17Z</time>
      </trkpt>
      <trkpt lat="42.874304" lon="-7.848379">
        <ele>620.651</ele>
        <time>2022-08-21T12:14:20Z</time>
      </trkpt>
      <trkpt lat="42.874300" lon="-7.848452">
        <ele>620.423</ele>
        <time>2022-08-21T12:14:24Z</time>
      </trkpt>
      <trkpt lat="42.874299" lon="-7.848535">
        <ele>620.255</ele>
        <time>2022-08-21T12:14:29Z</time>
      </trkpt>
      <trkpt lat="42.874307" lon="-7.848618">
        <ele>620.007</ele>
        <time>2022-08-21T12:14:33Z</time>
      </trkpt>
      <trkpt lat="42.874322" lon="-7.848694">
        <ele>619.917</ele>
        <time>2022-08-21T12:14:38Z</time>
      </trkpt>
      <trkpt lat="42.874326" lon="-7.848765">
        <ele>619.809</ele>
        <time>2022-08-21T12:14:41Z</time>
      </trkpt>
      <trkpt lat="42.874336" lon="-7.848835">
        <ele>619.726</ele>
        <time>2022-08-21T12:14:45Z</time>
      </trkpt>
      <trkpt lat="42.874352" lon="-7.848893">
        <ele>619.686</ele>
        <time>2022-08-21T12:14:48Z</time>
      </trkpt>
      <trkpt lat="42.874358" lon="-7.848956">
        <ele>619.436</ele>
        <time>2022-08-21T12:14:52Z</time>
      </trkpt>
      <trkpt lat="42.874378" lon="-7.849027">
        <ele>619.348</ele>
        <time>2022-08-21T12:14:56Z</time>
      </trkpt>
      <trkpt lat="42.874392" lon="-7.849088">
        <ele>619.280</ele>
        <time>2022-08-21T12:15:00Z</time>
      </trkpt>
      <trkpt lat="42.874414" lon="-7.849161">
        <ele>619.055</ele>
        <time>2022-08-21T12:15:04Z</time>
      </trkpt>
      <trkpt lat="42.874418" lon="-7.849234">
        <ele>618.985</ele>
        <time>2022-08-21T12:15:08Z</time>
      </trkpt>
      <trkpt lat="42.874443" lon="-7.849305">
        <ele>618.968</ele>
        <time>2022-08-21T12:15:12Z</time>
      </trkpt>
      <trkpt lat="42.874460" lon="-7.849375">
        <ele>618.840</ele>
        <time>2022-08-21T12:15:16Z</time>
      </trkpt>
      <trkpt lat="42.874481" lon="-7.849442">
        <ele>618.643</ele>
        <time>2022-08-21T12:15:20Z</time>
      </trkpt>
      <trkpt lat="42.874503" lon="-7.849509">
        <ele>618.364</ele>
        <time>2022-08-21T12:15:24Z</time>
      </trkpt>
      <trkpt lat="42.874523" lon="-7.849570">
        <ele>618.110</ele>
        <time>2022-08-21T12:15:29Z</time>
      </trkpt>
      <trkpt lat="42.874540" lon="-7.849628">
        <ele>617.909</ele>
        <time>2022-08-21T12:15:33Z</time>
      </trkpt>
      <trkpt lat="42.874562" lon="-7.849699">
        <ele>617.895</ele>
        <time>2022-08-21T12:15:37Z</time>
      </trkpt>
      <trkpt lat="42.874586" lon="-7.849757">
        <ele>617.775</ele>
        <time>2022-08-21T12:15:41Z</time>
      </trkpt>
      <trkpt lat="42.874600" lon="-7.849842">
        <ele>617.645</ele>
        <time>2022-08-21T12:15:45Z</time>
      </trkpt>
      <trkpt lat="42.874622" lon="-7.849908">
        <ele>617.567</ele>
        <time>2022-08-21T12:15:50Z</time>
      </trkpt>
      <trkpt lat="42.874637" lon="-7.849982">
        <ele>617.349</ele>
        <time>2022-08-21T12:15:55Z</time>
      </trkpt>
      <trkpt lat="42.874648" lon="-7.850046">
        <ele>617.194</ele>
        <time>2022-08-21T12:15:59Z</time>
      </trkpt>
      <trkpt lat="42.874676" lon="-7.850095">
        <ele>617.094</ele>
        <time>2022-08-21T12:16:02Z</time>
      </trkpt>
      <trkpt lat="42.874696" lon="-7.850162">
        <ele>616.937</ele>
        <time>2022-08-21T12:16:06Z</time>
      </trkpt>
      <trkpt lat="42.874724" lon="-7.850225">
        <ele>616.889</ele>
        <time>2022-08-21T12:16:10Z</time>
      </trkpt>
      <trkpt lat="42.874750" lon="-7.850293">
        <ele>616.653</ele>
        <time>2022-08-21T12:16:14Z</time>
      </trkpt>
      <trkpt lat="42.874773" lon="-7.850359">
        <ele>616.404</ele>
        <time>2022-08-21T12:16:18Z</time>
      </trkpt>
      <trkpt lat="42.874795" lon="-7.850428">
        <ele>616.214</ele>
        <time>2022-08-21T12:16:22Z</time>
      </trkpt>
      <trkpt lat="42.874813" lon="-7.850494">
        <ele>616.009</ele>
        <time>2022-08-21T12:16:26Z</time>
      </trkpt>
      <trkpt lat="42.874834" lon="-7.850559">
        <ele>616.016</ele>
        <time>2022-08-21T12:16:30Z</time>
      </trkpt>
      <trkpt lat="42.874848" lon="-7.850629">
        <ele>615.826</ele>
        <time>2022-08-21T12:16:34Z</time>
      </trkpt>
      <trkpt lat="42.874866" lon="-7.850696">
        <ele>615.686</ele>
        <time>2022-08-21T12:16:38Z</time>
      </trkpt>
      <trkpt lat="42.874880" lon="-7.850767">
        <ele>615.548</ele>
        <time>2022-08-21T12:16:42Z</time>
      </trkpt>
      <trkpt lat="42.874900" lon="-7.850836">
        <ele>615.310</ele>
        <time>2022-08-21T12:16:46Z</time>
      </trkpt>
      <trkpt lat="42.874918" lon="-7.850899">
        <ele>615.045</ele>
        <time>2022-08-21T12:16:50Z</time>
      </trkpt>
      <trkpt lat="42.874935" lon="-7.850957">
        <ele>614.845</ele>
        <time>2022-08-21T12:16:54Z</time>
      </trkpt>
      <trkpt lat="42.874928" lon="-7.851033">
        <ele>614.788</ele>
        <time>2022-08-21T12:16:58Z</time>
      </trkpt>
      <trkpt lat="42.874922" lon="-7.851101">
        <ele>614.560</ele>
        <time>2022-08-21T12:17:02Z</time>
      </trkpt>
      <trkpt lat="42.874904" lon="-7.851181">
        <ele>614.254</ele>
        <time>2022-08-21T12:17:07Z</time>
      </trkpt>
      <trkpt lat="42.874903" lon="-7.851249">
        <ele>613.956</ele>
        <time>2022-08-21T12:17:11Z</time>
      </trkpt>
      <trkpt lat="42.874894" lon="-7.851320">
        <ele>613.611</ele>
        <time>2022-08-21T12:17:15Z</time>
      </trkpt>
      <trkpt lat="42.874891" lon="-7.851386">
        <ele>613.509</ele>
        <time>2022-08-21T12:17:19Z</time>
      </trkpt>
      <trkpt lat="42.874870" lon="-7.851446">
        <ele>613.336</ele>
        <time>2022-08-21T12:17:23Z</time>
      </trkpt>
      <trkpt lat="42.874851" lon="-7.851508">
        <ele>613.126</ele>
        <time>2022-08-21T12:17:27Z</time>
      </trkpt>
      <trkpt lat="42.874827" lon="-7.851565">
        <ele>612.936</ele>
        <time>2022-08-21T12:17:31Z</time>
      </trkpt>
      <trkpt lat="42.874806" lon="-7.851627">
        <ele>612.988</ele>
        <time>2022-08-21T12:17:35Z</time>
      </trkpt>
      <trkpt lat="42.874778" lon="-7.851696">
        <ele>612.920</ele>
        <time>2022-08-21T12:17:39Z</time>
      </trkpt>
      <trkpt lat="42.874754" lon="-7.851765">
        <ele>612.955</ele>
        <time>2022-08-21T12:17:43Z</time>
      </trkpt>
      <trkpt lat="42.874727" lon="-7.851825">
        <ele>612.955</ele>
        <time>2022-08-21T12:17:47Z</time>
      </trkpt>
      <trkpt lat="42.874694" lon="-7.851880">
        <ele>612.948</ele>
        <time>2022-08-21T12:17:51Z</time>
      </trkpt>
      <trkpt lat="42.874646" lon="-7.851920">
        <ele>612.960</ele>
        <time>2022-08-21T12:17:55Z</time>
      </trkpt>
      <trkpt lat="42.874597" lon="-7.851951">
        <ele>612.888</ele>
        <time>2022-08-21T12:17:59Z</time>
      </trkpt>
      <trkpt lat="42.874563" lon="-7.852010">
        <ele>612.924</ele>
        <time>2022-08-21T12:18:03Z</time>
      </trkpt>
      <trkpt lat="42.874548" lon="-7.852073">
        <ele>612.926</ele>
        <time>2022-08-21T12:18:07Z</time>
      </trkpt>
      <trkpt lat="42.874548" lon="-7.852141">
        <ele>613.009</ele>
        <time>2022-08-21T12:18:11Z</time>
      </trkpt>
      <trkpt lat="42.874521" lon="-7.852195">
        <ele>613.329</ele>
        <time>2022-08-21T12:18:15Z</time>
      </trkpt>
      <trkpt lat="42.874487" lon="-7.852251">
        <ele>613.599</ele>
        <time>2022-08-21T12:18:19Z</time>
      </trkpt>
      <trkpt lat="42.874469" lon="-7.852316">
        <ele>613.789</ele>
        <time>2022-08-21T12:18:23Z</time>
      </trkpt>
      <trkpt lat="42.874436" lon="-7.852381">
        <ele>613.961</ele>
        <time>2022-08-21T12:18:28Z</time>
      </trkpt>
      <trkpt lat="42.874428" lon="-7.852453">
        <ele>614.083</ele>
        <time>2022-08-21T12:18:32Z</time>
      </trkpt>
      <trkpt lat="42.874414" lon="-7.852517">
        <ele>614.028</ele>
        <time>2022-08-21T12:18:36Z</time>
      </trkpt>
      <trkpt lat="42.874410" lon="-7.852597">
        <ele>614.018</ele>
        <time>2022-08-21T12:18:41Z</time>
      </trkpt>
      <trkpt lat="42.874392" lon="-7.852657">
        <ele>613.931</ele>
        <time>2022-08-21T12:18:46Z</time>
      </trkpt>
      <trkpt lat="42.874371" lon="-7.852711">
        <ele>613.723</ele>
        <time>2022-08-21T12:18:51Z</time>
      </trkpt>
      <trkpt lat="42.874350" lon="-7.852765">
        <ele>613.585</ele>
        <time>2022-08-21T12:18:55Z</time>
      </trkpt>
      <trkpt lat="42.874340" lon="-7.852833">
        <ele>613.389</ele>
        <time>2022-08-21T12:18:59Z</time>
      </trkpt>
      <trkpt lat="42.874319" lon="-7.852908">
        <ele>613.217</ele>
        <time>2022-08-21T12:19:04Z</time>
      </trkpt>
      <trkpt lat="42.874306" lon="-7.852978">
        <ele>613.009</ele>
        <time>2022-08-21T12:19:08Z</time>
      </trkpt>
      <trkpt lat="42.874287" lon="-7.853040">
        <ele>612.759</ele>
        <time>2022-08-21T12:19:12Z</time>
      </trkpt>
      <trkpt lat="42.874284" lon="-7.853108">
        <ele>612.499</ele>
        <time>2022-08-21T12:19:16Z</time>
      </trkpt>
      <trkpt lat="42.874276" lon="-7.853192">
        <ele>612.259</ele>
        <time>2022-08-21T12:19:21Z</time>
      </trkpt>
      <trkpt lat="42.874271" lon="-7.853255">
        <ele>612.191</ele>
        <time>2022-08-21T12:19:25Z</time>
      </trkpt>
      <trkpt lat="42.874255" lon="-7.853315">
        <ele>611.953</ele>
        <time>2022-08-21T12:19:28Z</time>
      </trkpt>
      <trkpt lat="42.874250" lon="-7.853378">
        <ele>611.678</ele>
        <time>2022-08-21T12:19:33Z</time>
      </trkpt>
      <trkpt lat="42.874239" lon="-7.853449">
        <ele>611.418</ele>
        <time>2022-08-21T12:19:37Z</time>
      </trkpt>
      <trkpt lat="42.874238" lon="-7.853513">
        <ele>611.381</ele>
        <time>2022-08-21T12:19:41Z</time>
      </trkpt>
      <trkpt lat="42.874227" lon="-7.853590">
        <ele>611.213</ele>
        <time>2022-08-21T12:19:45Z</time>
      </trkpt>
      <trkpt lat="42.874216" lon="-7.853652">
        <ele>611.119</ele>
        <time>2022-08-21T12:19:50Z</time>
      </trkpt>
      <trkpt lat="42.874215" lon="-7.853728">
        <ele>611.009</ele>
        <time>2022-08-21T12:19:55Z</time>
      </trkpt>
      <trkpt lat="42.874203" lon="-7.853796">
        <ele>610.919</ele>
        <time>2022-08-21T12:19:59Z</time>
      </trkpt>
      <trkpt lat="42.874201" lon="-7.853875">
        <ele>610.809</ele>
        <time>2022-08-21T12:20:03Z</time>
      </trkpt>
      <trkpt lat="42.874192" lon="-7.853939">
        <ele>610.752</ele>
        <time>2022-08-21T12:20:06Z</time>
      </trkpt>
      <trkpt lat="42.874178" lon="-7.854001">
        <ele>610.542</ele>
        <time>2022-08-21T12:20:10Z</time>
      </trkpt>
      <trkpt lat="42.874171" lon="-7.854071">
        <ele>610.492</ele>
        <time>2022-08-21T12:20:17Z</time>
      </trkpt>
      <trkpt lat="42.874154" lon="-7.854132">
        <ele>610.444</ele>
        <time>2022-08-21T12:20:20Z</time>
      </trkpt>
      <trkpt lat="42.874149" lon="-7.854194">
        <ele>610.466</ele>
        <time>2022-08-21T12:20:24Z</time>
      </trkpt>
      <trkpt lat="42.874137" lon="-7.854270">
        <ele>610.421</ele>
        <time>2022-08-21T12:20:29Z</time>
      </trkpt>
      <trkpt lat="42.874123" lon="-7.854342">
        <ele>610.461</ele>
        <time>2022-08-21T12:20:33Z</time>
      </trkpt>
      <trkpt lat="42.874124" lon="-7.854409">
        <ele>610.324</ele>
        <time>2022-08-21T12:20:36Z</time>
      </trkpt>
      <trkpt lat="42.874120" lon="-7.854474">
        <ele>610.166</ele>
        <time>2022-08-21T12:20:39Z</time>
      </trkpt>
      <trkpt lat="42.874105" lon="-7.854538">
        <ele>610.023</ele>
        <time>2022-08-21T12:20:43Z</time>
      </trkpt>
      <trkpt lat="42.874082" lon="-7.854605">
        <ele>610.083</ele>
        <time>2022-08-21T12:20:46Z</time>
      </trkpt>
      <trkpt lat="42.874060" lon="-7.854665">
        <ele>609.911</ele>
        <time>2022-08-21T12:20:49Z</time>
      </trkpt>
      <trkpt lat="42.874046" lon="-7.854742">
        <ele>609.609</ele>
        <time>2022-08-21T12:20:53Z</time>
      </trkpt>
      <trkpt lat="42.874044" lon="-7.854811">
        <ele>609.493</ele>
        <time>2022-08-21T12:20:57Z</time>
      </trkpt>
      <trkpt lat="42.874041" lon="-7.854874">
        <ele>609.313</ele>
        <time>2022-08-21T12:21:01Z</time>
      </trkpt>
      <trkpt lat="42.874040" lon="-7.854953">
        <ele>609.293</ele>
        <time>2022-08-21T12:21:05Z</time>
      </trkpt>
      <trkpt lat="42.874042" lon="-7.855031">
        <ele>608.855</ele>
        <time>2022-08-21T12:21:09Z</time>
      </trkpt>
      <trkpt lat="42.874046" lon="-7.855095">
        <ele>608.667</ele>
        <time>2022-08-21T12:21:13Z</time>
      </trkpt>
      <trkpt lat="42.874040" lon="-7.855168">
        <ele>608.192</ele>
        <time>2022-08-21T12:21:17Z</time>
      </trkpt>
      <trkpt lat="42.874038" lon="-7.855230">
        <ele>607.742</ele>
        <time>2022-08-21T12:21:21Z</time>
      </trkpt>
      <trkpt lat="42.874044" lon="-7.855300">
        <ele>607.235</ele>
        <time>2022-08-21T12:21:25Z</time>
      </trkpt>
      <trkpt lat="42.874037" lon="-7.855370">
        <ele>606.617</ele>
        <time>2022-08-21T12:21:29Z</time>
      </trkpt>
      <trkpt lat="42.874038" lon="-7.855431">
        <ele>606.292</ele>
        <time>2022-08-21T12:21:33Z</time>
      </trkpt>
      <trkpt lat="42.874041" lon="-7.855504">
        <ele>605.873</ele>
        <time>2022-08-21T12:21:37Z</time>
      </trkpt>
      <trkpt lat="42.874037" lon="-7.855575">
        <ele>605.320</ele>
        <time>2022-08-21T12:21:41Z</time>
      </trkpt>
      <trkpt lat="42.874029" lon="-7.855656">
        <ele>604.909</ele>
        <time>2022-08-21T12:21:45Z</time>
      </trkpt>
      <trkpt lat="42.874023" lon="-7.855727">
        <ele>604.610</ele>
        <time>2022-08-21T12:21:49Z</time>
      </trkpt>
      <trkpt lat="42.874022" lon="-7.855805">
        <ele>604.140</ele>
        <time>2022-08-21T12:21:53Z</time>
      </trkpt>
      <trkpt lat="42.874024" lon="-7.855880">
        <ele>603.710</ele>
        <time>2022-08-21T12:21:57Z</time>
      </trkpt>
      <trkpt lat="42.874016" lon="-7.855952">
        <ele>603.422</ele>
        <time>2022-08-21T12:22:01Z</time>
      </trkpt>
      <trkpt lat="42.874015" lon="-7.856021">
        <ele>603.144</ele>
        <time>2022-08-21T12:22:05Z</time>
      </trkpt>
      <trkpt lat="42.874008" lon="-7.856091">
        <ele>602.969</ele>
        <time>2022-08-21T12:22:09Z</time>
      </trkpt>
      <trkpt lat="42.874008" lon="-7.856154">
        <ele>602.629</ele>
        <time>2022-08-21T12:22:13Z</time>
      </trkpt>
      <trkpt lat="42.874012" lon="-7.856229">
        <ele>602.382</ele>
        <time>2022-08-21T12:22:17Z</time>
      </trkpt>
      <trkpt lat="42.874001" lon="-7.856303">
        <ele>602.184</ele>
        <time>2022-08-21T12:22:21Z</time>
      </trkpt>
      <trkpt lat="42.873991" lon="-7.856379">
        <ele>601.867</ele>
        <time>2022-08-21T12:22:25Z</time>
      </trkpt>
      <trkpt lat="42.873992" lon="-7.856453">
        <ele>601.481</ele>
        <time>2022-08-21T12:22:30Z</time>
      </trkpt>
      <trkpt lat="42.873984" lon="-7.856523">
        <ele>601.019</ele>
        <time>2022-08-21T12:22:34Z</time>
      </trkpt>
      <trkpt lat="42.873978" lon="-7.856593">
        <ele>600.909</ele>
        <time>2022-08-21T12:22:38Z</time>
      </trkpt>
      <trkpt lat="42.873971" lon="-7.856663">
        <ele>600.887</ele>
        <time>2022-08-21T12:22:42Z</time>
      </trkpt>
      <trkpt lat="42.873961" lon="-7.856733">
        <ele>600.667</ele>
        <time>2022-08-21T12:22:46Z</time>
      </trkpt>
      <trkpt lat="42.873961" lon="-7.856802">
        <ele>600.367</ele>
        <time>2022-08-21T12:22:50Z</time>
      </trkpt>
      <trkpt lat="42.873961" lon="-7.856873">
        <ele>600.129</ele>
        <time>2022-08-21T12:22:55Z</time>
      </trkpt>
      <trkpt lat="42.873947" lon="-7.856951">
        <ele>599.921</ele>
        <time>2022-08-21T12:23:00Z</time>
      </trkpt>
      <trkpt lat="42.873939" lon="-7.857016">
        <ele>599.616</ele>
        <time>2022-08-21T12:23:04Z</time>
      </trkpt>
      <trkpt lat="42.873936" lon="-7.857086">
        <ele>599.286</ele>
        <time>2022-08-21T12:23:08Z</time>
      </trkpt>
      <trkpt lat="42.873948" lon="-7.857155">
        <ele>598.949</ele>
        <time>2022-08-21T12:23:12Z</time>
      </trkpt>
      <trkpt lat="42.873955" lon="-7.857220">
        <ele>598.661</ele>
        <time>2022-08-21T12:23:15Z</time>
      </trkpt>
      <trkpt lat="42.873964" lon="-7.857293">
        <ele>598.231</ele>
        <time>2022-08-21T12:23:19Z</time>
      </trkpt>
      <trkpt lat="42.873953" lon="-7.857367">
        <ele>597.861</ele>
        <time>2022-08-21T12:23:24Z</time>
      </trkpt>
      <trkpt lat="42.873951" lon="-7.857446">
        <ele>597.407</ele>
        <time>2022-08-21T12:23:28Z</time>
      </trkpt>
      <trkpt lat="42.873943" lon="-7.857511">
        <ele>596.909</ele>
        <time>2022-08-21T12:23:32Z</time>
      </trkpt>
      <trkpt lat="42.873937" lon="-7.857575">
        <ele>596.394</ele>
        <time>2022-08-21T12:23:36Z</time>
      </trkpt>
      <trkpt lat="42.873937" lon="-7.857649">
        <ele>595.894</ele>
        <time>2022-08-21T12:23:40Z</time>
      </trkpt>
      <trkpt lat="42.873942" lon="-7.857717">
        <ele>595.324</ele>
        <time>2022-08-21T12:23:44Z</time>
      </trkpt>
      <trkpt lat="42.873925" lon="-7.857778">
        <ele>594.796</ele>
        <time>2022-08-21T12:23:48Z</time>
      </trkpt>
      <trkpt lat="42.873913" lon="-7.857841">
        <ele>594.238</ele>
        <time>2022-08-21T12:23:52Z</time>
      </trkpt>
      <trkpt lat="42.873892" lon="-7.857907">
        <ele>593.763</ele>
        <time>2022-08-21T12:23:56Z</time>
      </trkpt>
      <trkpt lat="42.873874" lon="-7.857982">
        <ele>593.343</ele>
        <time>2022-08-21T12:24:00Z</time>
      </trkpt>
      <trkpt lat="42.873874" lon="-7.858052">
        <ele>592.996</ele>
        <time>2022-08-21T12:24:04Z</time>
      </trkpt>
      <trkpt lat="42.873882" lon="-7.858120">
        <ele>592.638</ele>
        <time>2022-08-21T12:24:08Z</time>
      </trkpt>
      <trkpt lat="42.873870" lon="-7.858196">
        <ele>592.331</ele>
        <time>2022-08-21T12:24:14Z</time>
      </trkpt>
      <trkpt lat="42.873858" lon="-7.858269">
        <ele>592.161</ele>
        <time>2022-08-21T12:24:19Z</time>
      </trkpt>
      <trkpt lat="42.873844" lon="-7.858346">
        <ele>592.007</ele>
        <time>2022-08-21T12:24:23Z</time>
      </trkpt>
      <trkpt lat="42.873834" lon="-7.858421">
        <ele>591.809</ele>
        <time>2022-08-21T12:24:27Z</time>
      </trkpt>
      <trkpt lat="42.873828" lon="-7.858497">
        <ele>591.734</ele>
        <time>2022-08-21T12:24:31Z</time>
      </trkpt>
      <trkpt lat="42.873814" lon="-7.858568">
        <ele>591.584</ele>
        <time>2022-08-21T12:24:36Z</time>
      </trkpt>
      <trkpt lat="42.873808" lon="-7.858643">
        <ele>591.284</ele>
        <time>2022-08-21T12:24:40Z</time>
      </trkpt>
      <trkpt lat="42.873814" lon="-7.858706">
        <ele>591.066</ele>
        <time>2022-08-21T12:24:43Z</time>
      </trkpt>
      <trkpt lat="42.873811" lon="-7.858772">
        <ele>590.748</ele>
        <time>2022-08-21T12:24:46Z</time>
      </trkpt>
      <trkpt lat="42.873799" lon="-7.858847">
        <ele>590.623</ele>
        <time>2022-08-21T12:24:51Z</time>
      </trkpt>
      <trkpt lat="42.873802" lon="-7.858909">
        <ele>590.593</ele>
        <time>2022-08-21T12:24:54Z</time>
      </trkpt>
      <trkpt lat="42.873799" lon="-7.858978">
        <ele>590.386</ele>
        <time>2022-08-21T12:24:59Z</time>
      </trkpt>
      <trkpt lat="42.873792" lon="-7.859039">
        <ele>590.148</ele>
        <time>2022-08-21T12:25:02Z</time>
      </trkpt>
      <trkpt lat="42.873786" lon="-7.859102">
        <ele>590.116</ele>
        <time>2022-08-21T12:25:05Z</time>
      </trkpt>
      <trkpt lat="42.873769" lon="-7.859178">
        <ele>590.176</ele>
        <time>2022-08-21T12:25:09Z</time>
      </trkpt>
      <trkpt lat="42.873764" lon="-7.859248">
        <ele>590.013</ele>
        <time>2022-08-21T12:25:13Z</time>
      </trkpt>
      <trkpt lat="42.873762" lon="-7.859310">
        <ele>589.809</ele>
        <time>2022-08-21T12:25:16Z</time>
      </trkpt>
      <trkpt lat="42.873756" lon="-7.859389">
        <ele>589.582</ele>
        <time>2022-08-21T12:25:20Z</time>
      </trkpt>
      <trkpt lat="42.873762" lon="-7.859459">
        <ele>589.292</ele>
        <time>2022-08-21T12:25:25Z</time>
      </trkpt>
      <trkpt lat="42.873758" lon="-7.859531">
        <ele>589.192</ele>
        <time>2022-08-21T12:25:30Z</time>
      </trkpt>
      <trkpt lat="42.873749" lon="-7.859607">
        <ele>589.084</ele>
        <time>2022-08-21T12:25:34Z</time>
      </trkpt>
      <trkpt lat="42.873750" lon="-7.859684">
        <ele>588.836</ele>
        <time>2022-08-21T12:25:39Z</time>
      </trkpt>
      <trkpt lat="42.873742" lon="-7.859754">
        <ele>588.831</ele>
        <time>2022-08-21T12:25:43Z</time>
      </trkpt>
      <trkpt lat="42.873745" lon="-7.859839">
        <ele>588.791</ele>
        <time>2022-08-21T12:25:47Z</time>
      </trkpt>
      <trkpt lat="42.873740" lon="-7.859913">
        <ele>588.624</ele>
        <time>2022-08-21T12:25:51Z</time>
      </trkpt>
      <trkpt lat="42.873737" lon="-7.859976">
        <ele>588.526</ele>
        <time>2022-08-21T12:25:55Z</time>
      </trkpt>
      <trkpt lat="42.873736" lon="-7.860048">
        <ele>588.527</ele>
        <time>2022-08-21T12:25:59Z</time>
      </trkpt>
      <trkpt lat="42.873733" lon="-7.860123">
        <ele>588.468</ele>
        <time>2022-08-21T12:26:03Z</time>
      </trkpt>
      <trkpt lat="42.873731" lon="-7.860191">
        <ele>588.414</ele>
        <time>2022-08-21T12:26:07Z</time>
      </trkpt>
      <trkpt lat="42.873712" lon="-7.860260">
        <ele>588.309</ele>
        <time>2022-08-21T12:26:11Z</time>
      </trkpt>
      <trkpt lat="42.873695" lon="-7.860328">
        <ele>588.363</ele>
        <time>2022-08-21T12:26:15Z</time>
      </trkpt>
      <trkpt lat="42.873685" lon="-7.860389">
        <ele>588.393</ele>
        <time>2022-08-21T12:26:19Z</time>
      </trkpt>
      <trkpt lat="42.873673" lon="-7.860459">
        <ele>588.383</ele>
        <time>2022-08-21T12:26:23Z</time>
      </trkpt>
      <trkpt lat="42.873654" lon="-7.860528">
        <ele>588.315</ele>
        <time>2022-08-21T12:26:27Z</time>
      </trkpt>
      <trkpt lat="42.873647" lon="-7.860591">
        <ele>588.357</ele>
        <time>2022-08-21T12:26:30Z</time>
      </trkpt>
      <trkpt lat="42.873651" lon="-7.860666">
        <ele>588.312</ele>
        <time>2022-08-21T12:26:34Z</time>
      </trkpt>
      <trkpt lat="42.873642" lon="-7.860740">
        <ele>588.252</ele>
        <time>2022-08-21T12:26:38Z</time>
      </trkpt>
      <trkpt lat="42.873633" lon="-7.860810">
        <ele>588.225</ele>
        <time>2022-08-21T12:26:42Z</time>
      </trkpt>
      <trkpt lat="42.873624" lon="-7.860874">
        <ele>588.187</ele>
        <time>2022-08-21T12:26:46Z</time>
      </trkpt>
      <trkpt lat="42.873620" lon="-7.860938">
        <ele>588.191</ele>
        <time>2022-08-21T12:26:50Z</time>
      </trkpt>
      <trkpt lat="42.873615" lon="-7.861003">
        <ele>588.181</ele>
        <time>2022-08-21T12:26:54Z</time>
      </trkpt>
      <trkpt lat="42.873610" lon="-7.861065">
        <ele>588.119</ele>
        <time>2022-08-21T12:26:57Z</time>
      </trkpt>
      <trkpt lat="42.873601" lon="-7.861131">
        <ele>588.109</ele>
        <time>2022-08-21T12:27:01Z</time>
      </trkpt>
      <trkpt lat="42.873598" lon="-7.861194">
        <ele>588.170</ele>
        <time>2022-08-21T12:27:05Z</time>
      </trkpt>
      <trkpt lat="42.873597" lon="-7.861261">
        <ele>588.150</ele>
        <time>2022-08-21T12:27:08Z</time>
      </trkpt>
      <trkpt lat="42.873587" lon="-7.861336">
        <ele>588.150</ele>
        <time>2022-08-21T12:27:12Z</time>
      </trkpt>
      <trkpt lat="42.873580" lon="-7.861411">
        <ele>588.172</ele>
        <time>2022-08-21T12:27:16Z</time>
      </trkpt>
      <trkpt lat="42.873582" lon="-7.861482">
        <ele>588.124</ele>
        <time>2022-08-21T12:27:20Z</time>
      </trkpt>
      <trkpt lat="42.873573" lon="-7.861552">
        <ele>587.999</ele>
        <time>2022-08-21T12:27:24Z</time>
      </trkpt>
      <trkpt lat="42.873561" lon="-7.861618">
        <ele>587.879</ele>
        <time>2022-08-21T12:27:28Z</time>
      </trkpt>
      <trkpt lat="42.873545" lon="-7.861687">
        <ele>587.812</ele>
        <time>2022-08-21T12:27:32Z</time>
      </trkpt>
      <trkpt lat="42.873529" lon="-7.861765">
        <ele>587.864</ele>
        <time>2022-08-21T12:27:36Z</time>
      </trkpt>
      <trkpt lat="42.873513" lon="-7.861836">
        <ele>587.952</ele>
        <time>2022-08-21T12:27:41Z</time>
      </trkpt>
      <trkpt lat="42.873496" lon="-7.861906">
        <ele>588.153</ele>
        <time>2022-08-21T12:27:45Z</time>
      </trkpt>
      <trkpt lat="42.873479" lon="-7.861964">
        <ele>588.208</ele>
        <time>2022-08-21T12:27:49Z</time>
      </trkpt>
      <trkpt lat="42.873476" lon="-7.862034">
        <ele>588.309</ele>
        <time>2022-08-21T12:27:53Z</time>
      </trkpt>
      <trkpt lat="42.873472" lon="-7.862103">
        <ele>588.626</ele>
        <time>2022-08-21T12:27:57Z</time>
      </trkpt>
      <trkpt lat="42.873450" lon="-7.862161">
        <ele>588.956</ele>
        <time>2022-08-21T12:28:01Z</time>
      </trkpt>
      <trkpt lat="42.873440" lon="-7.862224">
        <ele>589.056</ele>
        <time>2022-08-21T12:28:05Z</time>
      </trkpt>
      <trkpt lat="42.873422" lon="-7.862284">
        <ele>589.198</ele>
        <time>2022-08-21T12:28:09Z</time>
      </trkpt>
      <trkpt lat="42.873417" lon="-7.862346">
        <ele>589.220</ele>
        <time>2022-08-21T12:28:12Z</time>
      </trkpt>
      <trkpt lat="42.873402" lon="-7.862406">
        <ele>589.395</ele>
        <time>2022-08-21T12:28:16Z</time>
      </trkpt>
      <trkpt lat="42.873385" lon="-7.862465">
        <ele>589.495</ele>
        <time>2022-08-21T12:28:20Z</time>
      </trkpt>
      <trkpt lat="42.873366" lon="-7.862537">
        <ele>589.598</ele>
        <time>2022-08-21T12:28:24Z</time>
      </trkpt>
      <trkpt lat="42.873354" lon="-7.862605">
        <ele>589.550</ele>
        <time>2022-08-21T12:28:29Z</time>
      </trkpt>
      <trkpt lat="42.873353" lon="-7.862670">
        <ele>589.553</ele>
        <time>2022-08-21T12:28:34Z</time>
      </trkpt>
      <trkpt lat="42.873355" lon="-7.862734">
        <ele>589.404</ele>
        <time>2022-08-21T12:28:38Z</time>
      </trkpt>
      <trkpt lat="42.873355" lon="-7.862800">
        <ele>589.114</ele>
        <time>2022-08-21T12:28:42Z</time>
      </trkpt>
      <trkpt lat="42.873352" lon="-7.862867">
        <ele>588.809</ele>
        <time>2022-08-21T12:28:47Z</time>
      </trkpt>
      <trkpt lat="42.873344" lon="-7.862935">
        <ele>588.326</ele>
        <time>2022-08-21T12:28:52Z</time>
      </trkpt>
      <trkpt lat="42.873343" lon="-7.863000">
        <ele>587.676</ele>
        <time>2022-08-21T12:28:55Z</time>
      </trkpt>
      <trkpt lat="42.873352" lon="-7.863073">
        <ele>587.066</ele>
        <time>2022-08-21T12:28:58Z</time>
      </trkpt>
      <trkpt lat="42.873368" lon="-7.863147">
        <ele>586.518</ele>
        <time>2022-08-21T12:29:02Z</time>
      </trkpt>
      <trkpt lat="42.873378" lon="-7.863209">
        <ele>586.050</ele>
        <time>2022-08-21T12:29:05Z</time>
      </trkpt>
      <trkpt lat="42.873387" lon="-7.863282">
        <ele>585.535</ele>
        <time>2022-08-21T12:29:08Z</time>
      </trkpt>
      <trkpt lat="42.873410" lon="-7.863337">
        <ele>585.035</ele>
        <time>2022-08-21T12:29:11Z</time>
      </trkpt>
      <trkpt lat="42.873420" lon="-7.863402">
        <ele>584.618</ele>
        <time>2022-08-21T12:29:14Z</time>
      </trkpt>
      <trkpt lat="42.873441" lon="-7.863472">
        <ele>584.250</ele>
        <time>2022-08-21T12:29:18Z</time>
      </trkpt>
      <trkpt lat="42.873460" lon="-7.863539">
        <ele>583.852</ele>
        <time>2022-08-21T12:29:22Z</time>
      </trkpt>
      <trkpt lat="42.873472" lon="-7.863608">
        <ele>583.453</ele>
        <time>2022-08-21T12:29:27Z</time>
      </trkpt>
      <trkpt lat="42.873477" lon="-7.863672">
        <ele>582.908</ele>
        <time>2022-08-21T12:29:31Z</time>
      </trkpt>
      <trkpt lat="42.873480" lon="-7.863733">
        <ele>582.209</ele>
        <time>2022-08-21T12:29:34Z</time>
      </trkpt>
      <trkpt lat="42.873458" lon="-7.863799">
        <ele>581.576</ele>
        <time>2022-08-21T12:29:37Z</time>
      </trkpt>
      <trkpt lat="42.873454" lon="-7.863864">
        <ele>581.136</ele>
        <time>2022-08-21T12:29:41Z</time>
      </trkpt>
      <trkpt lat="42.873433" lon="-7.863934">
        <ele>580.836</ele>
        <time>2022-08-21T12:29:46Z</time>
      </trkpt>
      <trkpt lat="42.873429" lon="-7.863996">
        <ele>580.498</ele>
        <time>2022-08-21T12:29:49Z</time>
      </trkpt>
      <trkpt lat="42.873401" lon="-7.864055">
        <ele>579.740</ele>
        <time>2022-08-21T12:29:53Z</time>
      </trkpt>
      <trkpt lat="42.873364" lon="-7.864110">
        <ele>579.185</ele>
        <time>2022-08-21T12:29:58Z</time>
      </trkpt>
      <trkpt lat="42.873349" lon="-7.864181">
        <ele>578.665</ele>
        <time>2022-08-21T12:30:02Z</time>
      </trkpt>
      <trkpt lat="42.873325" lon="-7.864237">
        <ele>578.138</ele>
        <time>2022-08-21T12:30:06Z</time>
      </trkpt>
      <trkpt lat="42.873310" lon="-7.864304">
        <ele>577.830</ele>
        <time>2022-08-21T12:30:11Z</time>
      </trkpt>
      <trkpt lat="42.873291" lon="-7.864373">
        <ele>577.437</ele>
        <time>2022-08-21T12:30:16Z</time>
      </trkpt>
      <trkpt lat="42.873253" lon="-7.864428">
        <ele>576.949</ele>
        <time>2022-08-21T12:30:21Z</time>
      </trkpt>
      <trkpt lat="42.873231" lon="-7.864487">
        <ele>576.413</ele>
        <time>2022-08-21T12:30:25Z</time>
      </trkpt>
      <trkpt lat="42.873202" lon="-7.864539">
        <ele>575.809</ele>
        <time>2022-08-21T12:30:28Z</time>
      </trkpt>
      <trkpt lat="42.873168" lon="-7.864603">
        <ele>575.384</ele>
        <time>2022-08-21T12:30:32Z</time>
      </trkpt>
      <trkpt lat="42.873158" lon="-7.864674">
        <ele>575.024</ele>
        <time>2022-08-21T12:30:37Z</time>
      </trkpt>
      <trkpt lat="42.873138" lon="-7.864730">
        <ele>574.864</ele>
        <time>2022-08-21T12:30:41Z</time>
      </trkpt>
      <trkpt lat="42.873099" lon="-7.864799">
        <ele>574.436</ele>
        <time>2022-08-21T12:30:45Z</time>
      </trkpt>
      <trkpt lat="42.873065" lon="-7.864854">
        <ele>573.768</ele>
        <time>2022-08-21T12:30:49Z</time>
      </trkpt>
      <trkpt lat="42.873024" lon="-7.864914">
        <ele>573.243</ele>
        <time>2022-08-21T12:30:53Z</time>
      </trkpt>
      <trkpt lat="42.872992" lon="-7.864968">
        <ele>572.783</ele>
        <time>2022-08-21T12:30:57Z</time>
      </trkpt>
      <trkpt lat="42.872972" lon="-7.865037">
        <ele>572.316</ele>
        <time>2022-08-21T12:31:02Z</time>
      </trkpt>
      <trkpt lat="42.872948" lon="-7.865097">
        <ele>572.038</ele>
        <time>2022-08-21T12:31:08Z</time>
      </trkpt>
      <trkpt lat="42.872928" lon="-7.865162">
        <ele>571.422</ele>
        <time>2022-08-21T12:31:12Z</time>
      </trkpt>
      <trkpt lat="42.872895" lon="-7.865227">
        <ele>570.762</ele>
        <time>2022-08-21T12:31:18Z</time>
      </trkpt>
      <trkpt lat="42.872884" lon="-7.865301">
        <ele>569.708</ele>
        <time>2022-08-21T12:31:22Z</time>
      </trkpt>
      <trkpt lat="42.872855" lon="-7.865374">
        <ele>568.909</ele>
        <time>2022-08-21T12:31:27Z</time>
      </trkpt>
      <trkpt lat="42.872831" lon="-7.865444">
        <ele>568.323</ele>
        <time>2022-08-21T12:31:31Z</time>
      </trkpt>
      <trkpt lat="42.872829" lon="-7.865506">
        <ele>567.633</ele>
        <time>2022-08-21T12:31:34Z</time>
      </trkpt>
      <trkpt lat="42.872817" lon="-7.865585">
        <ele>567.193</ele>
        <time>2022-08-21T12:31:38Z</time>
      </trkpt>
      <trkpt lat="42.872814" lon="-7.865651">
        <ele>566.835</ele>
        <time>2022-08-21T12:31:41Z</time>
      </trkpt>
      <trkpt lat="42.872806" lon="-7.865732">
        <ele>566.327</ele>
        <time>2022-08-21T12:31:45Z</time>
      </trkpt>
      <trkpt lat="42.872801" lon="-7.865805">
        <ele>566.182</ele>
        <time>2022-08-21T12:31:49Z</time>
      </trkpt>
      <trkpt lat="42.872802" lon="-7.865883">
        <ele>565.492</ele>
        <time>2022-08-21T12:31:53Z</time>
      </trkpt>
      <trkpt lat="42.872811" lon="-7.865948">
        <ele>565.095</ele>
        <time>2022-08-21T12:31:57Z</time>
      </trkpt>
      <trkpt lat="42.872808" lon="-7.866017">
        <ele>563.817</ele>
        <time>2022-08-21T12:32:01Z</time>
      </trkpt>
      <trkpt lat="42.872807" lon="-7.866086">
        <ele>563.543</ele>
        <time>2022-08-21T12:32:05Z</time>
      </trkpt>
      <trkpt lat="42.872805" lon="-7.866155">
        <ele>562.964</ele>
        <time>2022-08-21T12:32:09Z</time>
      </trkpt>
      <trkpt lat="42.872807" lon="-7.866228">
        <ele>562.410</ele>
        <time>2022-08-21T12:32:13Z</time>
      </trkpt>
      <trkpt lat="42.872817" lon="-7.866293">
        <ele>562.009</ele>
        <time>2022-08-21T12:32:17Z</time>
      </trkpt>
      <trkpt lat="42.872817" lon="-7.866368">
        <ele>561.665</ele>
        <time>2022-08-21T12:32:22Z</time>
      </trkpt>
      <trkpt lat="42.872829" lon="-7.866445">
        <ele>561.095</ele>
        <time>2022-08-21T12:32:27Z</time>
      </trkpt>
      <trkpt lat="42.872872" lon="-7.866491">
        <ele>560.395</ele>
        <time>2022-08-21T12:32:31Z</time>
      </trkpt>
      <trkpt lat="42.872905" lon="-7.866547">
        <ele>559.737</ele>
        <time>2022-08-21T12:32:35Z</time>
      </trkpt>
      <trkpt lat="42.872930" lon="-7.866601">
        <ele>559.439</ele>
        <time>2022-08-21T12:32:39Z</time>
      </trkpt>
      <trkpt lat="42.872946" lon="-7.866668">
        <ele>559.364</ele>
        <time>2022-08-21T12:32:43Z</time>
      </trkpt>
      <trkpt lat="42.872952" lon="-7.866730">
        <ele>559.254</ele>
        <time>2022-08-21T12:32:47Z</time>
      </trkpt>
      <trkpt lat="42.872943" lon="-7.866794">
        <ele>559.077</ele>
        <time>2022-08-21T12:32:51Z</time>
      </trkpt>
      <trkpt lat="42.872928" lon="-7.866854">
        <ele>558.819</ele>
        <time>2022-08-21T12:32:56Z</time>
      </trkpt>
      <trkpt lat="42.872916" lon="-7.866915">
        <ele>558.859</ele>
        <time>2022-08-21T12:33:00Z</time>
      </trkpt>
      <trkpt lat="42.872896" lon="-7.866975">
        <ele>558.703</ele>
        <time>2022-08-21T12:33:05Z</time>
      </trkpt>
      <trkpt lat="42.872875" lon="-7.867041">
        <ele>558.723</ele>
        <time>2022-08-21T12:33:10Z</time>
      </trkpt>
      <trkpt lat="42.872847" lon="-7.867116">
        <ele>558.709</ele>
        <time>2022-08-21T12:33:15Z</time>
      </trkpt>
      <trkpt lat="42.872814" lon="-7.867157">
        <ele>558.746</ele>
        <time>2022-08-21T12:33:19Z</time>
      </trkpt>
      <trkpt lat="42.872789" lon="-7.867215">
        <ele>558.796</ele>
        <time>2022-08-21T12:33:24Z</time>
      </trkpt>
      <trkpt lat="42.872764" lon="-7.867277">
        <ele>558.686</ele>
        <time>2022-08-21T12:33:30Z</time>
      </trkpt>
      <trkpt lat="42.872781" lon="-7.867349">
        <ele>558.528</ele>
        <time>2022-08-21T12:33:34Z</time>
      </trkpt>
      <trkpt lat="42.872792" lon="-7.867418">
        <ele>558.450</ele>
        <time>2022-08-21T12:33:38Z</time>
      </trkpt>
      <trkpt lat="42.872801" lon="-7.867489">
        <ele>558.425</ele>
        <time>2022-08-21T12:33:44Z</time>
      </trkpt>
      <trkpt lat="42.872797" lon="-7.867563">
        <ele>558.465</ele>
        <time>2022-08-21T12:34:03Z</time>
      </trkpt>
      <trkpt lat="42.872795" lon="-7.867625">
        <ele>558.348</ele>
        <time>2022-08-21T12:34:13Z</time>
      </trkpt>
      <trkpt lat="42.872757" lon="-7.867669">
        <ele>558.280</ele>
        <time>2022-08-21T12:34:17Z</time>
      </trkpt>
      <trkpt lat="42.872713" lon="-7.867710">
        <ele>557.844</ele>
        <time>2022-08-21T12:34:22Z</time>
      </trkpt>
      <trkpt lat="42.872729" lon="-7.867649">
        <ele>557.205</ele>
        <time>2022-08-21T12:34:38Z</time>
      </trkpt>
      <trkpt lat="42.872764" lon="-7.867604">
        <ele>556.815</ele>
        <time>2022-08-21T12:34:43Z</time>
      </trkpt>
      <trkpt lat="42.873294" lon="-7.868096">
        <ele>565.492</ele>
        <time>2022-08-22T06:30:29Z</time>
      </trkpt>
      <trkpt lat="42.873327" lon="-7.868147">
        <ele>565.773</ele>
        <time>2022-08-22T06:30:35Z</time>
      </trkpt>
      <trkpt lat="42.873365" lon="-7.868200">
        <ele>565.620</ele>
        <time>2022-08-22T06:30:41Z</time>
      </trkpt>
      <trkpt lat="42.873406" lon="-7.868242">
        <ele>565.509</ele>
        <time>2022-08-22T06:30:46Z</time>
      </trkpt>
      <trkpt lat="42.873446" lon="-7.868279">
        <ele>565.420</ele>
        <time>2022-08-22T06:30:50Z</time>
      </trkpt>
      <trkpt lat="42.873397" lon="-7.868323">
        <ele>565.280</ele>
        <time>2022-08-22T06:31:00Z</time>
      </trkpt>
      <trkpt lat="42.873359" lon="-7.868359">
        <ele>564.790</ele>
        <time>2022-08-22T06:31:05Z</time>
      </trkpt>
      <trkpt lat="42.873328" lon="-7.868412">
        <ele>563.883</ele>
        <time>2022-08-22T06:31:09Z</time>
      </trkpt>
      <trkpt lat="42.873275" lon="-7.868410">
        <ele>563.125</ele>
        <time>2022-08-22T06:31:15Z</time>
      </trkpt>
      <trkpt lat="42.873231" lon="-7.868384">
        <ele>563.017</ele>
        <time>2022-08-22T06:31:19Z</time>
      </trkpt>
      <trkpt lat="42.873184" lon="-7.868357">
        <ele>562.957</ele>
        <time>2022-08-22T06:31:24Z</time>
      </trkpt>
      <trkpt lat="42.873134" lon="-7.868353">
        <ele>562.782</ele>
        <time>2022-08-22T06:31:29Z</time>
      </trkpt>
      <trkpt lat="42.873083" lon="-7.868375">
        <ele>562.327</ele>
        <time>2022-08-22T06:31:33Z</time>
      </trkpt>
      <trkpt lat="42.873099" lon="-7.868441">
        <ele>561.855</ele>
        <time>2022-08-22T06:31:39Z</time>
      </trkpt>
      <trkpt lat="42.873136" lon="-7.868493">
        <ele>561.307</ele>
        <time>2022-08-22T06:31:44Z</time>
      </trkpt>
      <trkpt lat="42.873134" lon="-7.868557">
        <ele>560.617</ele>
        <time>2022-08-22T06:31:49Z</time>
      </trkpt>
      <trkpt lat="42.873146" lon="-7.868617">
        <ele>559.809</ele>
        <time>2022-08-22T06:31:53Z</time>
      </trkpt>
      <trkpt lat="42.873175" lon="-7.868682">
        <ele>558.766</ele>
        <time>2022-08-22T06:31:57Z</time>
      </trkpt>
      <trkpt lat="42.873208" lon="-7.868750">
        <ele>557.736</ele>
        <time>2022-08-22T06:32:03Z</time>
      </trkpt>
      <trkpt lat="42.873247" lon="-7.868800">
        <ele>557.116</ele>
        <time>2022-08-22T06:32:07Z</time>
      </trkpt>
      <trkpt lat="42.873259" lon="-7.868872">
        <ele>556.649</ele>
        <time>2022-08-22T06:32:10Z</time>
      </trkpt>
      <trkpt lat="42.873295" lon="-7.868922">
        <ele>556.251</ele>
        <time>2022-08-22T06:32:14Z</time>
      </trkpt>
      <trkpt lat="42.873302" lon="-7.868999">
        <ele>556.023</ele>
        <time>2022-08-22T06:32:18Z</time>
      </trkpt>
      <trkpt lat="42.873298" lon="-7.869062">
        <ele>555.833</ele>
        <time>2022-08-22T06:32:21Z</time>
      </trkpt>
      <trkpt lat="42.873283" lon="-7.869134">
        <ele>555.348</ele>
        <time>2022-08-22T06:32:26Z</time>
      </trkpt>
      <trkpt lat="42.873308" lon="-7.869198">
        <ele>554.993</ele>
        <time>2022-08-22T06:32:31Z</time>
      </trkpt>
      <trkpt lat="42.873327" lon="-7.869275">
        <ele>554.632</ele>
        <time>2022-08-22T06:32:35Z</time>
      </trkpt>
      <trkpt lat="42.873336" lon="-7.869345">
        <ele>554.692</ele>
        <time>2022-08-22T06:32:39Z</time>
      </trkpt>
      <trkpt lat="42.873329" lon="-7.869426">
        <ele>554.411</ele>
        <time>2022-08-22T06:32:43Z</time>
      </trkpt>
      <trkpt lat="42.873313" lon="-7.869495">
        <ele>553.909</ele>
        <time>2022-08-22T06:32:47Z</time>
      </trkpt>
      <trkpt lat="42.873303" lon="-7.869563">
        <ele>553.124</ele>
        <time>2022-08-22T06:32:51Z</time>
      </trkpt>
      <trkpt lat="42.873309" lon="-7.869625">
        <ele>552.894</ele>
        <time>2022-08-22T06:32:55Z</time>
      </trkpt>
      <trkpt lat="42.873321" lon="-7.869694">
        <ele>552.354</ele>
        <time>2022-08-22T06:33:58Z</time>
      </trkpt>
      <trkpt lat="42.873311" lon="-7.869758">
        <ele>552.077</ele>
        <time>2022-08-22T06:34:03Z</time>
      </trkpt>
      <trkpt lat="42.873312" lon="-7.869820">
        <ele>551.869</ele>
        <time>2022-08-22T06:34:06Z</time>
      </trkpt>
      <trkpt lat="42.873307" lon="-7.869883">
        <ele>551.721</ele>
        <time>2022-08-22T06:34:10Z</time>
      </trkpt>
      <trkpt lat="42.873307" lon="-7.869956">
        <ele>551.571</ele>
        <time>2022-08-22T06:34:15Z</time>
      </trkpt>
      <trkpt lat="42.873317" lon="-7.870024">
        <ele>551.076</ele>
        <time>2022-08-22T06:34:20Z</time>
      </trkpt>
      <trkpt lat="42.873327" lon="-7.870085">
        <ele>550.431</ele>
        <time>2022-08-22T06:34:24Z</time>
      </trkpt>
      <trkpt lat="42.873325" lon="-7.870155">
        <ele>549.759</ele>
        <time>2022-08-22T06:34:29Z</time>
      </trkpt>
      <trkpt lat="42.873330" lon="-7.870219">
        <ele>549.003</ele>
        <time>2022-08-22T06:34:33Z</time>
      </trkpt>
      <trkpt lat="42.873325" lon="-7.870290">
        <ele>548.523</ele>
        <time>2022-08-22T06:34:38Z</time>
      </trkpt>
      <trkpt lat="42.873348" lon="-7.870354">
        <ele>547.909</ele>
        <time>2022-08-22T06:34:43Z</time>
      </trkpt>
      <trkpt lat="42.873387" lon="-7.870393">
        <ele>547.326</ele>
        <time>2022-08-22T06:34:47Z</time>
      </trkpt>
      <trkpt lat="42.873424" lon="-7.870432">
        <ele>547.086</ele>
        <time>2022-08-22T06:34:51Z</time>
      </trkpt>
      <trkpt lat="42.873457" lon="-7.870479">
        <ele>546.936</ele>
        <time>2022-08-22T06:34:55Z</time>
      </trkpt>
      <trkpt lat="42.873473" lon="-7.870541">
        <ele>546.889</ele>
        <time>2022-08-22T06:35:01Z</time>
      </trkpt>
      <trkpt lat="42.873442" lon="-7.870600">
        <ele>546.651</ele>
        <time>2022-08-22T06:35:05Z</time>
      </trkpt>
      <trkpt lat="42.873420" lon="-7.870665">
        <ele>546.433</ele>
        <time>2022-08-22T06:35:09Z</time>
      </trkpt>
      <trkpt lat="42.873433" lon="-7.870733">
        <ele>545.963</ele>
        <time>2022-08-22T06:35:13Z</time>
      </trkpt>
      <trkpt lat="42.873435" lon="-7.870796">
        <ele>544.938</ele>
        <time>2022-08-22T06:35:16Z</time>
      </trkpt>
      <trkpt lat="42.873428" lon="-7.870857">
        <ele>543.933</ele>
        <time>2022-08-22T06:35:19Z</time>
      </trkpt>
      <trkpt lat="42.873426" lon="-7.870918">
        <ele>543.097</ele>
        <time>2022-08-22T06:35:22Z</time>
      </trkpt>
      <trkpt lat="42.873408" lon="-7.870976">
        <ele>542.423</ele>
        <time>2022-08-22T06:35:25Z</time>
      </trkpt>
      <trkpt lat="42.873395" lon="-7.871049">
        <ele>541.925</ele>
        <time>2022-08-22T06:35:29Z</time>
      </trkpt>
      <trkpt lat="42.873367" lon="-7.871109">
        <ele>541.509</ele>
        <time>2022-08-22T06:35:33Z</time>
      </trkpt>
      <trkpt lat="42.873354" lon="-7.871175">
        <ele>541.290</ele>
        <time>2022-08-22T06:35:39Z</time>
      </trkpt>
      <trkpt lat="42.873346" lon="-7.871247">
        <ele>540.940</ele>
        <time>2022-08-22T06:35:43Z</time>
      </trkpt>
      <trkpt lat="42.873348" lon="-7.871321">
        <ele>540.790</ele>
        <time>2022-08-22T06:35:47Z</time>
      </trkpt>
      <trkpt lat="42.873344" lon="-7.871385">
        <ele>540.423</ele>
        <time>2022-08-22T06:35:51Z</time>
      </trkpt>
      <trkpt lat="42.873340" lon="-7.871450">
        <ele>539.955</ele>
        <time>2022-08-22T06:35:56Z</time>
      </trkpt>
      <trkpt lat="42.873330" lon="-7.871521">
        <ele>539.437</ele>
        <time>2022-08-22T06:36:00Z</time>
      </trkpt>
      <trkpt lat="42.873321" lon="-7.871587">
        <ele>539.027</ele>
        <time>2022-08-22T06:36:04Z</time>
      </trkpt>
      <trkpt lat="42.873315" lon="-7.871661">
        <ele>538.862</ele>
        <time>2022-08-22T06:36:08Z</time>
      </trkpt>
      <trkpt lat="42.873313" lon="-7.871728">
        <ele>538.737</ele>
        <time>2022-08-22T06:36:13Z</time>
      </trkpt>
      <trkpt lat="42.873305" lon="-7.871793">
        <ele>538.629</ele>
        <time>2022-08-22T06:36:17Z</time>
      </trkpt>
      <trkpt lat="42.873300" lon="-7.871866">
        <ele>538.500</ele>
        <time>2022-08-22T06:36:22Z</time>
      </trkpt>
      <trkpt lat="42.873302" lon="-7.871933">
        <ele>538.420</ele>
        <time>2022-08-22T06:36:26Z</time>
      </trkpt>
      <trkpt lat="42.873289" lon="-7.872002">
        <ele>538.209</ele>
        <time>2022-08-22T06:36:30Z</time>
      </trkpt>
      <trkpt lat="42.873274" lon="-7.872080">
        <ele>538.143</ele>
        <time>2022-08-22T06:36:35Z</time>
      </trkpt>
      <trkpt lat="42.873283" lon="-7.872153">
        <ele>538.183</ele>
        <time>2022-08-22T06:36:39Z</time>
      </trkpt>
      <trkpt lat="42.873301" lon="-7.872218">
        <ele>538.053</ele>
        <time>2022-08-22T06:36:43Z</time>
      </trkpt>
      <trkpt lat="42.873312" lon="-7.872291">
        <ele>537.636</ele>
        <time>2022-08-22T06:36:47Z</time>
      </trkpt>
      <trkpt lat="42.873329" lon="-7.872355">
        <ele>537.118</ele>
        <time>2022-08-22T06:36:51Z</time>
      </trkpt>
      <trkpt lat="42.873346" lon="-7.872428">
        <ele>537.010</ele>
        <time>2022-08-22T06:36:56Z</time>
      </trkpt>
      <trkpt lat="42.873361" lon="-7.872487">
        <ele>536.720</ele>
        <time>2022-08-22T06:37:00Z</time>
      </trkpt>
      <trkpt lat="42.873384" lon="-7.872542">
        <ele>536.595</ele>
        <time>2022-08-22T06:37:03Z</time>
      </trkpt>
      <trkpt lat="42.873397" lon="-7.872619">
        <ele>536.410</ele>
        <time>2022-08-22T06:37:07Z</time>
      </trkpt>
      <trkpt lat="42.873432" lon="-7.872670">
        <ele>536.235</ele>
        <time>2022-08-22T06:37:11Z</time>
      </trkpt>
      <trkpt lat="42.873476" lon="-7.872687">
        <ele>536.086</ele>
        <time>2022-08-22T06:37:16Z</time>
      </trkpt>
      <trkpt lat="42.873528" lon="-7.872705">
        <ele>536.014</ele>
        <time>2022-08-22T06:37:21Z</time>
      </trkpt>
      <trkpt lat="42.873575" lon="-7.872724">
        <ele>536.009</ele>
        <time>2022-08-22T06:37:26Z</time>
      </trkpt>
      <trkpt lat="42.873622" lon="-7.872739">
        <ele>536.044</ele>
        <time>2022-08-22T06:37:30Z</time>
      </trkpt>
      <trkpt lat="42.873666" lon="-7.872764">
        <ele>536.154</ele>
        <time>2022-08-22T06:37:34Z</time>
      </trkpt>
      <trkpt lat="42.873708" lon="-7.872789">
        <ele>536.214</ele>
        <time>2022-08-22T06:37:39Z</time>
      </trkpt>
      <trkpt lat="42.873758" lon="-7.872818">
        <ele>536.397</ele>
        <time>2022-08-22T06:37:44Z</time>
      </trkpt>
      <trkpt lat="42.873801" lon="-7.872845">
        <ele>536.579</ele>
        <time>2022-08-22T06:37:47Z</time>
      </trkpt>
      <trkpt lat="42.873838" lon="-7.872890">
        <ele>536.741</ele>
        <time>2022-08-22T06:37:50Z</time>
      </trkpt>
      <trkpt lat="42.873890" lon="-7.872915">
        <ele>536.841</ele>
        <time>2022-08-22T06:37:54Z</time>
      </trkpt>
      <trkpt lat="42.873941" lon="-7.872939">
        <ele>536.826</ele>
        <time>2022-08-22T06:37:58Z</time>
      </trkpt>
      <trkpt lat="42.874007" lon="-7.872958">
        <ele>536.891</ele>
        <time>2022-08-22T06:41:03Z</time>
      </trkpt>
      <trkpt lat="42.874051" lon="-7.872970">
        <ele>536.825</ele>
        <time>2022-08-22T06:41:05Z</time>
      </trkpt>
      <trkpt lat="42.874103" lon="-7.872972">
        <ele>537.326</ele>
        <time>2022-08-22T06:41:09Z</time>
      </trkpt>
      <trkpt lat="42.874157" lon="-7.873002">
        <ele>537.308</ele>
        <time>2022-08-22T06:41:13Z</time>
      </trkpt>
      <trkpt lat="42.874186" lon="-7.873061">
        <ele>537.309</ele>
        <time>2022-08-22T06:41:18Z</time>
      </trkpt>
      <trkpt lat="42.874199" lon="-7.873134">
        <ele>537.233</ele>
        <time>2022-08-22T06:41:22Z</time>
      </trkpt>
      <trkpt lat="42.874190" lon="-7.873204">
        <ele>536.953</ele>
        <time>2022-08-22T06:41:26Z</time>
      </trkpt>
      <trkpt lat="42.874170" lon="-7.873268">
        <ele>536.853</ele>
        <time>2022-08-22T06:41:30Z</time>
      </trkpt>
      <trkpt lat="42.874172" lon="-7.873343">
        <ele>536.636</ele>
        <time>2022-08-22T06:41:34Z</time>
      </trkpt>
      <trkpt lat="42.874171" lon="-7.873410">
        <ele>536.438</ele>
        <time>2022-08-22T06:41:38Z</time>
      </trkpt>
      <trkpt lat="42.874172" lon="-7.873481">
        <ele>536.260</ele>
        <time>2022-08-22T06:41:43Z</time>
      </trkpt>
      <trkpt lat="42.874171" lon="-7.873555">
        <ele>536.130</ele>
        <time>2022-08-22T06:41:47Z</time>
      </trkpt>
      <trkpt lat="42.874182" lon="-7.873629">
        <ele>535.965</ele>
        <time>2022-08-22T06:41:51Z</time>
      </trkpt>
      <trkpt lat="42.874192" lon="-7.873704">
        <ele>535.710</ele>
        <time>2022-08-22T06:41:55Z</time>
      </trkpt>
      <trkpt lat="42.874202" lon="-7.873781">
        <ele>535.678</ele>
        <time>2022-08-22T06:41:59Z</time>
      </trkpt>
      <trkpt lat="42.874211" lon="-7.873858">
        <ele>535.533</ele>
        <time>2022-08-22T06:42:03Z</time>
      </trkpt>
      <trkpt lat="42.874213" lon="-7.873931">
        <ele>535.326</ele>
        <time>2022-08-22T06:42:07Z</time>
      </trkpt>
      <trkpt lat="42.874216" lon="-7.873996">
        <ele>535.209</ele>
        <time>2022-08-22T06:42:11Z</time>
      </trkpt>
      <trkpt lat="42.874224" lon="-7.874066">
        <ele>535.218</ele>
        <time>2022-08-22T06:42:15Z</time>
      </trkpt>
      <trkpt lat="42.874239" lon="-7.874134">
        <ele>535.188</ele>
        <time>2022-08-22T06:42:19Z</time>
      </trkpt>
      <trkpt lat="42.874247" lon="-7.874207">
        <ele>535.068</ele>
        <time>2022-08-22T06:42:23Z</time>
      </trkpt>
      <trkpt lat="42.874269" lon="-7.874276">
        <ele>534.961</ele>
        <time>2022-08-22T06:42:27Z</time>
      </trkpt>
      <trkpt lat="42.874274" lon="-7.874350">
        <ele>534.913</ele>
        <time>2022-08-22T06:42:31Z</time>
      </trkpt>
      <trkpt lat="42.874270" lon="-7.874422">
        <ele>534.995</ele>
        <time>2022-08-22T06:42:35Z</time>
      </trkpt>
      <trkpt lat="42.874266" lon="-7.874494">
        <ele>534.715</ele>
        <time>2022-08-22T06:42:39Z</time>
      </trkpt>
      <trkpt lat="42.874251" lon="-7.874563">
        <ele>534.710</ele>
        <time>2022-08-22T06:42:43Z</time>
      </trkpt>
      <trkpt lat="42.874246" lon="-7.874624">
        <ele>534.725</ele>
        <time>2022-08-22T06:42:47Z</time>
      </trkpt>
      <trkpt lat="42.874226" lon="-7.874701">
        <ele>534.791</ele>
        <time>2022-08-22T06:42:52Z</time>
      </trkpt>
      <trkpt lat="42.874199" lon="-7.874756">
        <ele>534.781</ele>
        <time>2022-08-22T06:42:56Z</time>
      </trkpt>
      <trkpt lat="42.874178" lon="-7.874822">
        <ele>534.519</ele>
        <time>2022-08-22T06:43:00Z</time>
      </trkpt>
      <trkpt lat="42.874148" lon="-7.874885">
        <ele>534.009</ele>
        <time>2022-08-22T06:43:04Z</time>
      </trkpt>
      <trkpt lat="42.874124" lon="-7.874950">
        <ele>533.150</ele>
        <time>2022-08-22T06:43:08Z</time>
      </trkpt>
      <trkpt lat="42.874087" lon="-7.875004">
        <ele>532.990</ele>
        <time>2022-08-22T06:43:12Z</time>
      </trkpt>
      <trkpt lat="42.874048" lon="-7.875053">
        <ele>532.510</ele>
        <time>2022-08-22T06:43:16Z</time>
      </trkpt>
      <trkpt lat="42.874005" lon="-7.875093">
        <ele>532.023</ele>
        <time>2022-08-22T06:43:20Z</time>
      </trkpt>
      <trkpt lat="42.873967" lon="-7.875145">
        <ele>531.535</ele>
        <time>2022-08-22T06:43:24Z</time>
      </trkpt>
      <trkpt lat="42.873918" lon="-7.875178">
        <ele>531.267</ele>
        <time>2022-08-22T06:43:28Z</time>
      </trkpt>
      <trkpt lat="42.873870" lon="-7.875211">
        <ele>531.087</ele>
        <time>2022-08-22T06:43:32Z</time>
      </trkpt>
      <trkpt lat="42.873833" lon="-7.875264">
        <ele>530.852</ele>
        <time>2022-08-22T06:43:36Z</time>
      </trkpt>
      <trkpt lat="42.873807" lon="-7.875331">
        <ele>530.467</ele>
        <time>2022-08-22T06:43:40Z</time>
      </trkpt>
      <trkpt lat="42.873785" lon="-7.875398">
        <ele>530.132</ele>
        <time>2022-08-22T06:43:44Z</time>
      </trkpt>
      <trkpt lat="42.873763" lon="-7.875463">
        <ele>530.092</ele>
        <time>2022-08-22T06:43:48Z</time>
      </trkpt>
      <trkpt lat="42.873738" lon="-7.875528">
        <ele>529.811</ele>
        <time>2022-08-22T06:43:52Z</time>
      </trkpt>
      <trkpt lat="42.873713" lon="-7.875591">
        <ele>529.509</ele>
        <time>2022-08-22T06:43:56Z</time>
      </trkpt>
      <trkpt lat="42.873689" lon="-7.875652">
        <ele>529.224</ele>
        <time>2022-08-22T06:44:00Z</time>
      </trkpt>
      <trkpt lat="42.873644" lon="-7.875687">
        <ele>528.984</ele>
        <time>2022-08-22T06:44:04Z</time>
      </trkpt>
      <trkpt lat="42.873592" lon="-7.875692">
        <ele>528.624</ele>
        <time>2022-08-22T06:44:08Z</time>
      </trkpt>
      <trkpt lat="42.873540" lon="-7.875689">
        <ele>528.587</ele>
        <time>2022-08-22T06:44:12Z</time>
      </trkpt>
      <trkpt lat="42.873488" lon="-7.875680">
        <ele>528.479</ele>
        <time>2022-08-22T06:44:16Z</time>
      </trkpt>
      <trkpt lat="42.873435" lon="-7.875678">
        <ele>528.291</ele>
        <time>2022-08-22T06:44:20Z</time>
      </trkpt>
      <trkpt lat="42.873389" lon="-7.875716">
        <ele>527.961</ele>
        <time>2022-08-22T06:44:24Z</time>
      </trkpt>
      <trkpt lat="42.873379" lon="-7.875778">
        <ele>527.516</ele>
        <time>2022-08-22T06:44:27Z</time>
      </trkpt>
      <trkpt lat="42.873361" lon="-7.875845">
        <ele>527.221</ele>
        <time>2022-08-22T06:44:31Z</time>
      </trkpt>
      <trkpt lat="42.873354" lon="-7.875917">
        <ele>527.081</ele>
        <time>2022-08-22T06:44:35Z</time>
      </trkpt>
      <trkpt lat="42.873332" lon="-7.875985">
        <ele>526.761</ele>
        <time>2022-08-22T06:44:39Z</time>
      </trkpt>
      <trkpt lat="42.873328" lon="-7.876056">
        <ele>526.517</ele>
        <time>2022-08-22T06:44:43Z</time>
      </trkpt>
      <trkpt lat="42.873313" lon="-7.876126">
        <ele>526.309</ele>
        <time>2022-08-22T06:44:47Z</time>
      </trkpt>
      <trkpt lat="42.873304" lon="-7.876194">
        <ele>526.199</ele>
        <time>2022-08-22T06:44:51Z</time>
      </trkpt>
      <trkpt lat="42.873288" lon="-7.876264">
        <ele>525.919</ele>
        <time>2022-08-22T06:44:55Z</time>
      </trkpt>
      <trkpt lat="42.873269" lon="-7.876332">
        <ele>525.899</ele>
        <time>2022-08-22T06:44:59Z</time>
      </trkpt>
      <trkpt lat="42.873254" lon="-7.876400">
        <ele>525.782</ele>
        <time>2022-08-22T06:45:03Z</time>
      </trkpt>
      <trkpt lat="42.873236" lon="-7.876465">
        <ele>525.514</ele>
        <time>2022-08-22T06:45:07Z</time>
      </trkpt>
      <trkpt lat="42.873227" lon="-7.876528">
        <ele>525.426</ele>
        <time>2022-08-22T06:45:11Z</time>
      </trkpt>
      <trkpt lat="42.873202" lon="-7.876592">
        <ele>525.426</ele>
        <time>2022-08-22T06:45:16Z</time>
      </trkpt>
      <trkpt lat="42.873181" lon="-7.876647">
        <ele>525.331</ele>
        <time>2022-08-22T06:45:20Z</time>
      </trkpt>
      <trkpt lat="42.873169" lon="-7.876714">
        <ele>525.016</ele>
        <time>2022-08-22T06:45:24Z</time>
      </trkpt>
      <trkpt lat="42.873156" lon="-7.876786">
        <ele>524.714</ele>
        <time>2022-08-22T06:45:29Z</time>
      </trkpt>
      <trkpt lat="42.873143" lon="-7.876852">
        <ele>524.654</ele>
        <time>2022-08-22T06:45:34Z</time>
      </trkpt>
      <trkpt lat="42.873134" lon="-7.876918">
        <ele>524.609</ele>
        <time>2022-08-22T06:45:38Z</time>
      </trkpt>
      <trkpt lat="42.873133" lon="-7.876983">
        <ele>524.509</ele>
        <time>2022-08-22T06:45:42Z</time>
      </trkpt>
      <trkpt lat="42.873130" lon="-7.877048">
        <ele>524.452</ele>
        <time>2022-08-22T06:45:46Z</time>
      </trkpt>
      <trkpt lat="42.873128" lon="-7.877113">
        <ele>524.342</ele>
        <time>2022-08-22T06:45:50Z</time>
      </trkpt>
      <trkpt lat="42.873113" lon="-7.877185">
        <ele>524.182</ele>
        <time>2022-08-22T06:45:54Z</time>
      </trkpt>
      <trkpt lat="42.873097" lon="-7.877244">
        <ele>523.835</ele>
        <time>2022-08-22T06:45:57Z</time>
      </trkpt>
      <trkpt lat="42.873085" lon="-7.877316">
        <ele>523.667</ele>
        <time>2022-08-22T06:46:01Z</time>
      </trkpt>
      <trkpt lat="42.873071" lon="-7.877387">
        <ele>523.539</ele>
        <time>2022-08-22T06:46:05Z</time>
      </trkpt>
      <trkpt lat="42.873057" lon="-7.877461">
        <ele>523.329</ele>
        <time>2022-08-22T06:46:09Z</time>
      </trkpt>
      <trkpt lat="42.873043" lon="-7.877533">
        <ele>523.054</ele>
        <time>2022-08-22T06:46:13Z</time>
      </trkpt>
      <trkpt lat="42.873027" lon="-7.877600">
        <ele>522.689</ele>
        <time>2022-08-22T06:46:17Z</time>
      </trkpt>
      <trkpt lat="42.873012" lon="-7.877669">
        <ele>522.415</ele>
        <time>2022-08-22T06:46:21Z</time>
      </trkpt>
      <trkpt lat="42.872998" lon="-7.877734">
        <ele>522.465</ele>
        <time>2022-08-22T06:46:25Z</time>
      </trkpt>
      <trkpt lat="42.872992" lon="-7.877806">
        <ele>522.411</ele>
        <time>2022-08-22T06:46:29Z</time>
      </trkpt>
      <trkpt lat="42.872983" lon="-7.877874">
        <ele>522.309</ele>
        <time>2022-08-22T06:46:33Z</time>
      </trkpt>
      <trkpt lat="42.872974" lon="-7.877943">
        <ele>522.132</ele>
        <time>2022-08-22T06:46:37Z</time>
      </trkpt>
      <trkpt lat="42.872960" lon="-7.878013">
        <ele>521.952</ele>
        <time>2022-08-22T06:46:41Z</time>
      </trkpt>
      <trkpt lat="42.872947" lon="-7.878083">
        <ele>521.722</ele>
        <time>2022-08-22T06:46:45Z</time>
      </trkpt>
      <trkpt lat="42.872941" lon="-7.878151">
        <ele>521.575</ele>
        <time>2022-08-22T06:46:49Z</time>
      </trkpt>
      <trkpt lat="42.872929" lon="-7.878219">
        <ele>521.387</ele>
        <time>2022-08-22T06:46:53Z</time>
      </trkpt>
      <trkpt lat="42.872923" lon="-7.878289">
        <ele>521.169</ele>
        <time>2022-08-22T06:46:57Z</time>
      </trkpt>
      <trkpt lat="42.872905" lon="-7.878357">
        <ele>520.949</ele>
        <time>2022-08-22T06:47:01Z</time>
      </trkpt>
      <trkpt lat="42.872893" lon="-7.878419">
        <ele>520.794</ele>
        <time>2022-08-22T06:47:05Z</time>
      </trkpt>
      <trkpt lat="42.872880" lon="-7.878478">
        <ele>520.589</ele>
        <time>2022-08-22T06:47:09Z</time>
      </trkpt>
      <trkpt lat="42.872858" lon="-7.878534">
        <ele>520.332</ele>
        <time>2022-08-22T06:47:13Z</time>
      </trkpt>
      <trkpt lat="42.872841" lon="-7.878603">
        <ele>520.192</ele>
        <time>2022-08-22T06:47:17Z</time>
      </trkpt>
      <trkpt lat="42.872835" lon="-7.878669">
        <ele>519.811</ele>
        <time>2022-08-22T06:47:21Z</time>
      </trkpt>
      <trkpt lat="42.872820" lon="-7.878738">
        <ele>519.609</ele>
        <time>2022-08-22T06:47:25Z</time>
      </trkpt>
      <trkpt lat="42.872800" lon="-7.878805">
        <ele>519.454</ele>
        <time>2022-08-22T06:47:29Z</time>
      </trkpt>
      <trkpt lat="42.872782" lon="-7.878871">
        <ele>519.234</ele>
        <time>2022-08-22T06:47:33Z</time>
      </trkpt>
      <trkpt lat="42.872766" lon="-7.878940">
        <ele>518.934</ele>
        <time>2022-08-22T06:47:37Z</time>
      </trkpt>
      <trkpt lat="42.872746" lon="-7.879019">
        <ele>518.547</ele>
        <time>2022-08-22T06:47:41Z</time>
      </trkpt>
      <trkpt lat="42.872734" lon="-7.879087">
        <ele>518.229</ele>
        <time>2022-08-22T06:47:45Z</time>
      </trkpt>
      <trkpt lat="42.872711" lon="-7.879154">
        <ele>518.081</ele>
        <time>2022-08-22T06:47:49Z</time>
      </trkpt>
      <trkpt lat="42.872703" lon="-7.879224">
        <ele>517.891</ele>
        <time>2022-08-22T06:47:53Z</time>
      </trkpt>
      <trkpt lat="42.872695" lon="-7.879296">
        <ele>517.586</ele>
        <time>2022-08-22T06:47:57Z</time>
      </trkpt>
      <trkpt lat="42.872685" lon="-7.879362">
        <ele>517.451</ele>
        <time>2022-08-22T06:48:01Z</time>
      </trkpt>
      <trkpt lat="42.872682" lon="-7.879433">
        <ele>517.148</ele>
        <time>2022-08-22T06:48:05Z</time>
      </trkpt>
      <trkpt lat="42.872673" lon="-7.879503">
        <ele>516.861</ele>
        <time>2022-08-22T06:48:09Z</time>
      </trkpt>
      <trkpt lat="42.872671" lon="-7.879571">
        <ele>516.517</ele>
        <time>2022-08-22T06:48:13Z</time>
      </trkpt>
      <trkpt lat="42.872656" lon="-7.879629">
        <ele>516.209</ele>
        <time>2022-08-22T06:48:17Z</time>
      </trkpt>
      <trkpt lat="42.872646" lon="-7.879693">
        <ele>515.975</ele>
        <time>2022-08-22T06:48:21Z</time>
      </trkpt>
      <trkpt lat="42.872641" lon="-7.879755">
        <ele>515.635</ele>
        <time>2022-08-22T06:48:25Z</time>
      </trkpt>
      <trkpt lat="42.872631" lon="-7.879824">
        <ele>515.335</ele>
        <time>2022-08-22T06:48:29Z</time>
      </trkpt>
      <trkpt lat="42.872623" lon="-7.879895">
        <ele>515.038</ele>
        <time>2022-08-22T06:48:33Z</time>
      </trkpt>
      <trkpt lat="42.872627" lon="-7.879965">
        <ele>514.630</ele>
        <time>2022-08-22T06:48:37Z</time>
      </trkpt>
      <trkpt lat="42.872626" lon="-7.880040">
        <ele>514.262</ele>
        <time>2022-08-22T06:48:41Z</time>
      </trkpt>
      <trkpt lat="42.872622" lon="-7.880111">
        <ele>513.992</ele>
        <time>2022-08-22T06:48:45Z</time>
      </trkpt>
      <trkpt lat="42.872618" lon="-7.880183">
        <ele>513.687</ele>
        <time>2022-08-22T06:48:49Z</time>
      </trkpt>
      <trkpt lat="42.872613" lon="-7.880259">
        <ele>513.342</ele>
        <time>2022-08-22T06:48:53Z</time>
      </trkpt>
      <trkpt lat="42.872613" lon="-7.880333">
        <ele>512.895</ele>
        <time>2022-08-22T06:48:57Z</time>
      </trkpt>
      <trkpt lat="42.872614" lon="-7.880407">
        <ele>512.549</ele>
        <time>2022-08-22T06:49:01Z</time>
      </trkpt>
      <trkpt lat="42.872618" lon="-7.880477">
        <ele>512.423</ele>
        <time>2022-08-22T06:49:05Z</time>
      </trkpt>
      <trkpt lat="42.872614" lon="-7.880550">
        <ele>512.209</ele>
        <time>2022-08-22T06:49:09Z</time>
      </trkpt>
      <trkpt lat="42.872612" lon="-7.880623">
        <ele>511.930</ele>
        <time>2022-08-22T06:49:13Z</time>
      </trkpt>
      <trkpt lat="42.872605" lon="-7.880695">
        <ele>511.680</ele>
        <time>2022-08-22T06:49:17Z</time>
      </trkpt>
      <trkpt lat="42.872601" lon="-7.880768">
        <ele>511.350</ele>
        <time>2022-08-22T06:49:21Z</time>
      </trkpt>
      <trkpt lat="42.872598" lon="-7.880837">
        <ele>511.033</ele>
        <time>2022-08-22T06:49:25Z</time>
      </trkpt>
      <trkpt lat="42.872590" lon="-7.880901">
        <ele>510.715</ele>
        <time>2022-08-22T06:49:29Z</time>
      </trkpt>
      <trkpt lat="42.872582" lon="-7.880976">
        <ele>510.417</ele>
        <time>2022-08-22T06:49:33Z</time>
      </trkpt>
      <trkpt lat="42.872575" lon="-7.881045">
        <ele>510.267</ele>
        <time>2022-08-22T06:49:37Z</time>
      </trkpt>
      <trkpt lat="42.872577" lon="-7.881117">
        <ele>510.022</ele>
        <time>2022-08-22T06:49:41Z</time>
      </trkpt>
      <trkpt lat="42.872579" lon="-7.881186">
        <ele>509.917</ele>
        <time>2022-08-22T06:49:45Z</time>
      </trkpt>
      <trkpt lat="42.872573" lon="-7.881255">
        <ele>509.736</ele>
        <time>2022-08-22T06:49:49Z</time>
      </trkpt>
      <trkpt lat="42.872555" lon="-7.881331">
        <ele>509.617</ele>
        <time>2022-08-22T06:49:53Z</time>
      </trkpt>
      <trkpt lat="42.872574" lon="-7.881404">
        <ele>509.218</ele>
        <time>2022-08-22T06:49:57Z</time>
      </trkpt>
      <trkpt lat="42.872591" lon="-7.881475">
        <ele>508.709</ele>
        <time>2022-08-22T06:50:01Z</time>
      </trkpt>
      <trkpt lat="42.872614" lon="-7.881545">
        <ele>508.464</ele>
        <time>2022-08-22T06:50:05Z</time>
      </trkpt>
      <trkpt lat="42.872628" lon="-7.881617">
        <ele>507.914</ele>
        <time>2022-08-22T06:50:09Z</time>
      </trkpt>
      <trkpt lat="42.872651" lon="-7.881686">
        <ele>507.474</ele>
        <time>2022-08-22T06:50:13Z</time>
      </trkpt>
      <trkpt lat="42.872649" lon="-7.881759">
        <ele>507.067</ele>
        <time>2022-08-22T06:50:17Z</time>
      </trkpt>
      <trkpt lat="42.872672" lon="-7.881814">
        <ele>507.039</ele>
        <time>2022-08-22T06:50:21Z</time>
      </trkpt>
      <trkpt lat="42.872687" lon="-7.881879">
        <ele>507.041</ele>
        <time>2022-08-22T06:50:25Z</time>
      </trkpt>
      <trkpt lat="42.872685" lon="-7.881948">
        <ele>507.031</ele>
        <time>2022-08-22T06:50:29Z</time>
      </trkpt>
      <trkpt lat="42.872670" lon="-7.882007">
        <ele>507.036</ele>
        <time>2022-08-22T06:50:33Z</time>
      </trkpt>
      <trkpt lat="42.872648" lon="-7.882070">
        <ele>507.091</ele>
        <time>2022-08-22T06:50:37Z</time>
      </trkpt>
      <trkpt lat="42.872628" lon="-7.882129">
        <ele>507.047</ele>
        <time>2022-08-22T06:50:41Z</time>
      </trkpt>
      <trkpt lat="42.872600" lon="-7.882183">
        <ele>507.029</ele>
        <time>2022-08-22T06:50:45Z</time>
      </trkpt>
      <trkpt lat="42.872565" lon="-7.882225">
        <ele>507.021</ele>
        <time>2022-08-22T06:50:49Z</time>
      </trkpt>
      <trkpt lat="42.872509" lon="-7.882251">
        <ele>507.009</ele>
        <time>2022-08-22T06:50:53Z</time>
      </trkpt>
      <trkpt lat="42.872460" lon="-7.882271">
        <ele>507.055</ele>
        <time>2022-08-22T06:50:57Z</time>
      </trkpt>
      <trkpt lat="42.872412" lon="-7.882298">
        <ele>506.945</ele>
        <time>2022-08-22T06:51:01Z</time>
      </trkpt>
      <trkpt lat="42.872359" lon="-7.882326">
        <ele>506.845</ele>
        <time>2022-08-22T06:51:05Z</time>
      </trkpt>
      <trkpt lat="42.872310" lon="-7.882365">
        <ele>506.858</ele>
        <time>2022-08-22T06:51:09Z</time>
      </trkpt>
      <trkpt lat="42.872261" lon="-7.882391">
        <ele>506.880</ele>
        <time>2022-08-22T06:51:13Z</time>
      </trkpt>
      <trkpt lat="42.872218" lon="-7.882427">
        <ele>506.872</ele>
        <time>2022-08-22T06:51:17Z</time>
      </trkpt>
      <trkpt lat="42.872167" lon="-7.882453">
        <ele>506.912</ele>
        <time>2022-08-22T06:51:21Z</time>
      </trkpt>
      <trkpt lat="42.872122" lon="-7.882484">
        <ele>506.917</ele>
        <time>2022-08-22T06:51:25Z</time>
      </trkpt>
      <trkpt lat="42.872076" lon="-7.882524">
        <ele>507.092</ele>
        <time>2022-08-22T06:51:29Z</time>
      </trkpt>
      <trkpt lat="42.872031" lon="-7.882561">
        <ele>507.399</ele>
        <time>2022-08-22T06:51:33Z</time>
      </trkpt>
      <trkpt lat="42.871980" lon="-7.882610">
        <ele>507.707</ele>
        <time>2022-08-22T06:51:38Z</time>
      </trkpt>
      <trkpt lat="42.871945" lon="-7.882669">
        <ele>507.827</ele>
        <time>2022-08-22T06:51:42Z</time>
      </trkpt>
      <trkpt lat="42.871904" lon="-7.882718">
        <ele>507.909</ele>
        <time>2022-08-22T06:51:46Z</time>
      </trkpt>
      <trkpt lat="42.871867" lon="-7.882780">
        <ele>508.070</ele>
        <time>2022-08-22T06:51:50Z</time>
      </trkpt>
      <trkpt lat="42.871834" lon="-7.882836">
        <ele>508.290</ele>
        <time>2022-08-22T06:51:54Z</time>
      </trkpt>
      <trkpt lat="42.871796" lon="-7.882890">
        <ele>508.450</ele>
        <time>2022-08-22T06:51:58Z</time>
      </trkpt>
      <trkpt lat="42.871764" lon="-7.882949">
        <ele>508.663</ele>
        <time>2022-08-22T06:52:02Z</time>
      </trkpt>
      <trkpt lat="42.871739" lon="-7.883002">
        <ele>508.795</ele>
        <time>2022-08-22T06:52:06Z</time>
      </trkpt>
      <trkpt lat="42.871703" lon="-7.883060">
        <ele>509.017</ele>
        <time>2022-08-22T06:52:10Z</time>
      </trkpt>
      <trkpt lat="42.871679" lon="-7.883118">
        <ele>509.347</ele>
        <time>2022-08-22T06:52:14Z</time>
      </trkpt>
      <trkpt lat="42.871656" lon="-7.883184">
        <ele>509.492</ele>
        <time>2022-08-22T06:52:19Z</time>
      </trkpt>
      <trkpt lat="42.871644" lon="-7.883246">
        <ele>509.417</ele>
        <time>2022-08-22T06:52:23Z</time>
      </trkpt>
      <trkpt lat="42.871633" lon="-7.883305">
        <ele>509.777</ele>
        <time>2022-08-22T06:52:27Z</time>
      </trkpt>
      <trkpt lat="42.871625" lon="-7.883370">
        <ele>510.261</ele>
        <time>2022-08-22T06:52:30Z</time>
      </trkpt>
      <trkpt lat="42.871621" lon="-7.883444">
        <ele>510.727</ele>
        <time>2022-08-22T06:52:34Z</time>
      </trkpt>
      <trkpt lat="42.871616" lon="-7.883525">
        <ele>511.209</ele>
        <time>2022-08-22T06:52:40Z</time>
      </trkpt>
      <trkpt lat="42.871610" lon="-7.883591">
        <ele>511.728</ele>
        <time>2022-08-22T06:52:43Z</time>
      </trkpt>
      <trkpt lat="42.871603" lon="-7.883663">
        <ele>512.538</ele>
        <time>2022-08-22T06:52:48Z</time>
      </trkpt>
      <trkpt lat="42.871601" lon="-7.883729">
        <ele>513.138</ele>
        <time>2022-08-22T06:52:52Z</time>
      </trkpt>
      <trkpt lat="42.871575" lon="-7.883810">
        <ele>514.061</ele>
        <time>2022-08-22T06:52:57Z</time>
      </trkpt>
      <trkpt lat="42.871577" lon="-7.883881">
        <ele>514.373</ele>
        <time>2022-08-22T06:53:01Z</time>
      </trkpt>
      <trkpt lat="42.871584" lon="-7.883949">
        <ele>514.915</ele>
        <time>2022-08-22T06:53:04Z</time>
      </trkpt>
      <trkpt lat="42.871565" lon="-7.884008">
        <ele>515.585</ele>
        <time>2022-08-22T06:53:08Z</time>
      </trkpt>
      <trkpt lat="42.871562" lon="-7.884069">
        <ele>515.930</ele>
        <time>2022-08-22T06:53:12Z</time>
      </trkpt>
      <trkpt lat="42.871557" lon="-7.884135">
        <ele>516.365</ele>
        <time>2022-08-22T06:53:16Z</time>
      </trkpt>
      <trkpt lat="42.871555" lon="-7.884202">
        <ele>516.837</ele>
        <time>2022-08-22T06:53:22Z</time>
      </trkpt>
      <trkpt lat="42.871541" lon="-7.884267">
        <ele>517.349</ele>
        <time>2022-08-22T06:53:27Z</time>
      </trkpt>
      <trkpt lat="42.871525" lon="-7.884330">
        <ele>518.013</ele>
        <time>2022-08-22T06:53:30Z</time>
      </trkpt>
      <trkpt lat="42.871510" lon="-7.884402">
        <ele>518.809</ele>
        <time>2022-08-22T06:53:34Z</time>
      </trkpt>
      <trkpt lat="42.871482" lon="-7.884466">
        <ele>519.474</ele>
        <time>2022-08-22T06:53:39Z</time>
      </trkpt>
      <trkpt lat="42.871458" lon="-7.884539">
        <ele>520.134</ele>
        <time>2022-08-22T06:53:44Z</time>
      </trkpt>
      <trkpt lat="42.871445" lon="-7.884607">
        <ele>521.114</ele>
        <time>2022-08-22T06:53:49Z</time>
      </trkpt>
      <trkpt lat="42.871420" lon="-7.884663">
        <ele>522.037</ele>
        <time>2022-08-22T06:53:53Z</time>
      </trkpt>
      <trkpt lat="42.871393" lon="-7.884714">
        <ele>522.719</ele>
        <time>2022-08-22T06:53:57Z</time>
      </trkpt>
      <trkpt lat="42.871370" lon="-7.884777">
        <ele>523.211</ele>
        <time>2022-08-22T06:54:02Z</time>
      </trkpt>
      <trkpt lat="42.871347" lon="-7.884833">
        <ele>523.511</ele>
        <time>2022-08-22T06:54:07Z</time>
      </trkpt>
      <trkpt lat="42.871332" lon="-7.884911">
        <ele>524.076</ele>
        <time>2022-08-22T06:54:12Z</time>
      </trkpt>
      <trkpt lat="42.871327" lon="-7.884973">
        <ele>524.891</ele>
        <time>2022-08-22T06:54:18Z</time>
      </trkpt>
      <trkpt lat="42.871338" lon="-7.885039">
        <ele>525.774</ele>
        <time>2022-08-22T06:54:22Z</time>
      </trkpt>
      <trkpt lat="42.871356" lon="-7.885099">
        <ele>526.656</ele>
        <time>2022-08-22T06:54:26Z</time>
      </trkpt>
      <trkpt lat="42.871355" lon="-7.885171">
        <ele>527.521</ele>
        <time>2022-08-22T06:54:31Z</time>
      </trkpt>
      <trkpt lat="42.871365" lon="-7.885246">
        <ele>528.309</ele>
        <time>2022-08-22T06:54:35Z</time>
      </trkpt>
      <trkpt lat="42.871373" lon="-7.885324">
        <ele>529.318</ele>
        <time>2022-08-22T06:54:39Z</time>
      </trkpt>
      <trkpt lat="42.871355" lon="-7.885387">
        <ele>530.148</ele>
        <time>2022-08-22T06:54:44Z</time>
      </trkpt>
      <trkpt lat="42.871369" lon="-7.885448">
        <ele>530.688</ele>
        <time>2022-08-22T06:54:48Z</time>
      </trkpt>
      <trkpt lat="42.871376" lon="-7.885512">
        <ele>531.151</ele>
        <time>2022-08-22T06:54:52Z</time>
      </trkpt>
      <trkpt lat="42.871401" lon="-7.885579">
        <ele>531.673</ele>
        <time>2022-08-22T06:54:57Z</time>
      </trkpt>
      <trkpt lat="42.871408" lon="-7.885640">
        <ele>532.065</ele>
        <time>2022-08-22T06:55:01Z</time>
      </trkpt>
      <trkpt lat="42.871413" lon="-7.885713">
        <ele>532.465</ele>
        <time>2022-08-22T06:55:05Z</time>
      </trkpt>
      <trkpt lat="42.871423" lon="-7.885773">
        <ele>532.950</ele>
        <time>2022-08-22T06:55:09Z</time>
      </trkpt>
      <trkpt lat="42.871424" lon="-7.885842">
        <ele>533.485</ele>
        <time>2022-08-22T06:55:13Z</time>
      </trkpt>
      <trkpt lat="42.871430" lon="-7.885914">
        <ele>533.826</ele>
        <time>2022-08-22T06:55:17Z</time>
      </trkpt>
      <trkpt lat="42.871421" lon="-7.885985">
        <ele>534.147</ele>
        <time>2022-08-22T06:55:21Z</time>
      </trkpt>
      <trkpt lat="42.871414" lon="-7.886052">
        <ele>534.411</ele>
        <time>2022-08-22T06:55:24Z</time>
      </trkpt>
      <trkpt lat="42.871407" lon="-7.886125">
        <ele>534.709</ele>
        <time>2022-08-22T06:55:28Z</time>
      </trkpt>
      <trkpt lat="42.871408" lon="-7.886195">
        <ele>535.063</ele>
        <time>2022-08-22T06:55:32Z</time>
      </trkpt>
      <trkpt lat="42.871394" lon="-7.886268">
        <ele>535.493</ele>
        <time>2022-08-22T06:55:36Z</time>
      </trkpt>
      <trkpt lat="42.871376" lon="-7.886337">
        <ele>535.893</ele>
        <time>2022-08-22T06:55:40Z</time>
      </trkpt>
      <trkpt lat="42.871386" lon="-7.886404">
        <ele>536.116</ele>
        <time>2022-08-22T06:55:45Z</time>
      </trkpt>
      <trkpt lat="42.871409" lon="-7.886466">
        <ele>536.178</ele>
        <time>2022-08-22T06:55:49Z</time>
      </trkpt>
      <trkpt lat="42.871443" lon="-7.886526">
        <ele>536.110</ele>
        <time>2022-08-22T06:55:54Z</time>
      </trkpt>
      <trkpt lat="42.871479" lon="-7.886582">
        <ele>536.180</ele>
        <time>2022-08-22T06:55:59Z</time>
      </trkpt>
      <trkpt lat="42.871502" lon="-7.886661">
        <ele>535.775</ele>
        <time>2022-08-22T06:56:04Z</time>
      </trkpt>
      <trkpt lat="42.871516" lon="-7.886742">
        <ele>535.310</ele>
        <time>2022-08-22T06:56:08Z</time>
      </trkpt>
      <trkpt lat="42.871525" lon="-7.886812">
        <ele>535.178</ele>
        <time>2022-08-22T06:56:12Z</time>
      </trkpt>
      <trkpt lat="42.871538" lon="-7.886886">
        <ele>535.033</ele>
        <time>2022-08-22T06:56:16Z</time>
      </trkpt>
      <trkpt lat="42.871545" lon="-7.886967">
        <ele>534.926</ele>
        <time>2022-08-22T06:56:20Z</time>
      </trkpt>
      <trkpt lat="42.871555" lon="-7.887045">
        <ele>534.809</ele>
        <time>2022-08-22T06:56:24Z</time>
      </trkpt>
      <trkpt lat="42.871561" lon="-7.887108">
        <ele>534.848</ele>
        <time>2022-08-22T06:56:27Z</time>
      </trkpt>
      <trkpt lat="42.871567" lon="-7.887181">
        <ele>534.828</ele>
        <time>2022-08-22T06:56:31Z</time>
      </trkpt>
      <trkpt lat="42.871576" lon="-7.887252">
        <ele>534.738</ele>
        <time>2022-08-22T06:56:35Z</time>
      </trkpt>
      <trkpt lat="42.871571" lon="-7.887325">
        <ele>534.611</ele>
        <time>2022-08-22T06:56:39Z</time>
      </trkpt>
      <trkpt lat="42.871567" lon="-7.887388">
        <ele>534.643</ele>
        <time>2022-08-22T06:56:43Z</time>
      </trkpt>
      <trkpt lat="42.871573" lon="-7.887458">
        <ele>534.655</ele>
        <time>2022-08-22T06:56:47Z</time>
      </trkpt>
      <trkpt lat="42.871572" lon="-7.887532">
        <ele>534.665</ele>
        <time>2022-08-22T06:56:51Z</time>
      </trkpt>
      <trkpt lat="42.871575" lon="-7.887605">
        <ele>534.650</ele>
        <time>2022-08-22T06:56:55Z</time>
      </trkpt>
      <trkpt lat="42.871587" lon="-7.887671">
        <ele>534.675</ele>
        <time>2022-08-22T06:56:59Z</time>
      </trkpt>
      <trkpt lat="42.871591" lon="-7.887744">
        <ele>534.777</ele>
        <time>2022-08-22T06:57:04Z</time>
      </trkpt>
      <trkpt lat="42.871593" lon="-7.887821">
        <ele>534.861</ele>
        <time>2022-08-22T06:57:09Z</time>
      </trkpt>
      <trkpt lat="42.871584" lon="-7.887885">
        <ele>534.927</ele>
        <time>2022-08-22T06:57:14Z</time>
      </trkpt>
      <trkpt lat="42.871596" lon="-7.887953">
        <ele>535.009</ele>
        <time>2022-08-22T06:57:18Z</time>
      </trkpt>
      <trkpt lat="42.871589" lon="-7.888016">
        <ele>535.118</ele>
        <time>2022-08-22T06:57:22Z</time>
      </trkpt>
      <trkpt lat="42.871585" lon="-7.888083">
        <ele>535.428</ele>
        <time>2022-08-22T06:57:26Z</time>
      </trkpt>
      <trkpt lat="42.871578" lon="-7.888144">
        <ele>535.878</ele>
        <time>2022-08-22T06:57:30Z</time>
      </trkpt>
      <trkpt lat="42.871582" lon="-7.888211">
        <ele>536.131</ele>
        <time>2022-08-22T06:57:34Z</time>
      </trkpt>
      <trkpt lat="42.871573" lon="-7.888278">
        <ele>536.363</ele>
        <time>2022-08-22T06:57:37Z</time>
      </trkpt>
      <trkpt lat="42.871578" lon="-7.888353">
        <ele>536.625</ele>
        <time>2022-08-22T06:57:42Z</time>
      </trkpt>
      <trkpt lat="42.871580" lon="-7.888422">
        <ele>536.915</ele>
        <time>2022-08-22T06:57:46Z</time>
      </trkpt>
      <trkpt lat="42.871583" lon="-7.888495">
        <ele>537.180</ele>
        <time>2022-08-22T06:57:51Z</time>
      </trkpt>
      <trkpt lat="42.871599" lon="-7.888564">
        <ele>537.295</ele>
        <time>2022-08-22T06:57:55Z</time>
      </trkpt>
      <trkpt lat="42.871597" lon="-7.888632">
        <ele>537.385</ele>
        <time>2022-08-22T06:57:59Z</time>
      </trkpt>
      <trkpt lat="42.871606" lon="-7.888702">
        <ele>537.589</ele>
        <time>2022-08-22T06:58:03Z</time>
      </trkpt>
      <trkpt lat="42.871608" lon="-7.888771">
        <ele>537.817</ele>
        <time>2022-08-22T06:58:07Z</time>
      </trkpt>
      <trkpt lat="42.871608" lon="-7.888851">
        <ele>538.109</ele>
        <time>2022-08-22T06:58:11Z</time>
      </trkpt>
      <trkpt lat="42.871609" lon="-7.888923">
        <ele>538.599</ele>
        <time>2022-08-22T06:58:15Z</time>
      </trkpt>
      <trkpt lat="42.871620" lon="-7.889005">
        <ele>539.129</ele>
        <time>2022-08-22T06:58:19Z</time>
      </trkpt>
      <trkpt lat="42.871633" lon="-7.889065">
        <ele>539.499</ele>
        <time>2022-08-22T06:58:22Z</time>
      </trkpt>
      <trkpt lat="42.871651" lon="-7.889133">
        <ele>540.162</ele>
        <time>2022-08-22T06:58:26Z</time>
      </trkpt>
      <trkpt lat="42.871662" lon="-7.889197">
        <ele>540.344</ele>
        <time>2022-08-22T06:58:30Z</time>
      </trkpt>
      <trkpt lat="42.871666" lon="-7.889265">
        <ele>540.796</ele>
        <time>2022-08-22T06:58:34Z</time>
      </trkpt>
      <trkpt lat="42.871666" lon="-7.889342">
        <ele>541.136</ele>
        <time>2022-08-22T06:58:38Z</time>
      </trkpt>
      <trkpt lat="42.871667" lon="-7.889406">
        <ele>541.521</ele>
        <time>2022-08-22T06:58:41Z</time>
      </trkpt>
      <trkpt lat="42.871678" lon="-7.889472">
        <ele>541.976</ele>
        <time>2022-08-22T06:58:46Z</time>
      </trkpt>
      <trkpt lat="42.871692" lon="-7.889535">
        <ele>542.333</ele>
        <time>2022-08-22T06:58:50Z</time>
      </trkpt>
      <trkpt lat="42.871699" lon="-7.889600">
        <ele>542.723</ele>
        <time>2022-08-22T06:58:54Z</time>
      </trkpt>
      <trkpt lat="42.871713" lon="-7.889665">
        <ele>543.115</ele>
        <time>2022-08-22T06:58:59Z</time>
      </trkpt>
      <trkpt lat="42.871734" lon="-7.889732">
        <ele>543.409</ele>
        <time>2022-08-22T06:59:03Z</time>
      </trkpt>
      <trkpt lat="42.871758" lon="-7.889786">
        <ele>543.644</ele>
        <time>2022-08-22T06:59:07Z</time>
      </trkpt>
      <trkpt lat="42.871786" lon="-7.889836">
        <ele>543.774</ele>
        <time>2022-08-22T06:59:11Z</time>
      </trkpt>
      <trkpt lat="42.871811" lon="-7.889889">
        <ele>543.764</ele>
        <time>2022-08-22T06:59:15Z</time>
      </trkpt>
      <trkpt lat="42.871838" lon="-7.889960">
        <ele>543.797</ele>
        <time>2022-08-22T06:59:19Z</time>
      </trkpt>
      <trkpt lat="42.871851" lon="-7.890028">
        <ele>543.629</ele>
        <time>2022-08-22T06:59:23Z</time>
      </trkpt>
      <trkpt lat="42.871850" lon="-7.890095">
        <ele>543.561</ele>
        <time>2022-08-22T06:59:27Z</time>
      </trkpt>
      <trkpt lat="42.871820" lon="-7.890146">
        <ele>543.571</ele>
        <time>2022-08-22T06:59:32Z</time>
      </trkpt>
      <trkpt lat="42.871782" lon="-7.890195">
        <ele>543.536</ele>
        <time>2022-08-22T06:59:38Z</time>
      </trkpt>
      <trkpt lat="42.871732" lon="-7.890196">
        <ele>543.341</ele>
        <time>2022-08-22T06:59:42Z</time>
      </trkpt>
      <trkpt lat="42.871688" lon="-7.890185">
        <ele>543.042</ele>
        <time>2022-08-22T06:59:46Z</time>
      </trkpt>
      <trkpt lat="42.871642" lon="-7.890161">
        <ele>542.722</ele>
        <time>2022-08-22T06:59:51Z</time>
      </trkpt>
      <trkpt lat="42.871604" lon="-7.890112">
        <ele>542.414</ele>
        <time>2022-08-22T06:59:56Z</time>
      </trkpt>
      <trkpt lat="42.871567" lon="-7.890063">
        <ele>541.909</ele>
        <time>2022-08-22T07:00:01Z</time>
      </trkpt>
      <trkpt lat="42.871520" lon="-7.890048">
        <ele>541.465</ele>
        <time>2022-08-22T07:00:06Z</time>
      </trkpt>
      <trkpt lat="42.871489" lon="-7.890000">
        <ele>540.895</ele>
        <time>2022-08-22T07:00:09Z</time>
      </trkpt>
      <trkpt lat="42.871444" lon="-7.889955">
        <ele>540.265</ele>
        <time>2022-08-22T07:00:14Z</time>
      </trkpt>
      <trkpt lat="42.871400" lon="-7.889913">
        <ele>539.898</ele>
        <time>2022-08-22T07:00:19Z</time>
      </trkpt>
      <trkpt lat="42.871360" lon="-7.889883">
        <ele>539.530</ele>
        <time>2022-08-22T07:00:23Z</time>
      </trkpt>
      <trkpt lat="42.871310" lon="-7.889841">
        <ele>539.242</ele>
        <time>2022-08-22T07:00:27Z</time>
      </trkpt>
      <trkpt lat="42.871270" lon="-7.889811">
        <ele>538.922</ele>
        <time>2022-08-22T07:00:30Z</time>
      </trkpt>
      <trkpt lat="42.871226" lon="-7.889771">
        <ele>538.517</ele>
        <time>2022-08-22T07:00:34Z</time>
      </trkpt>
      <trkpt lat="42.871181" lon="-7.889733">
        <ele>538.122</ele>
        <time>2022-08-22T07:00:38Z</time>
      </trkpt>
      <trkpt lat="42.871139" lon="-7.889685">
        <ele>537.764</ele>
        <time>2022-08-22T07:00:42Z</time>
      </trkpt>
      <trkpt lat="42.871094" lon="-7.889650">
        <ele>537.306</ele>
        <time>2022-08-22T07:00:46Z</time>
      </trkpt>
      <trkpt lat="42.871051" lon="-7.889608">
        <ele>536.916</ele>
        <time>2022-08-22T07:00:50Z</time>
      </trkpt>
      <trkpt lat="42.871020" lon="-7.889563">
        <ele>536.609</ele>
        <time>2022-08-22T07:00:53Z</time>
      </trkpt>
      <trkpt lat="42.870972" lon="-7.889537">
        <ele>536.337</ele>
        <time>2022-08-22T07:00:57Z</time>
      </trkpt>
      <trkpt lat="42.870924" lon="-7.889520">
        <ele>536.077</ele>
        <time>2022-08-22T07:01:01Z</time>
      </trkpt>
      <trkpt lat="42.870868" lon="-7.889505">
        <ele>535.687</ele>
        <time>2022-08-22T07:01:06Z</time>
      </trkpt>
      <trkpt lat="42.870818" lon="-7.889496">
        <ele>535.250</ele>
        <time>2022-08-22T07:01:10Z</time>
      </trkpt>
      <trkpt lat="42.870764" lon="-7.889491">
        <ele>534.842</ele>
        <time>2022-08-22T07:01:14Z</time>
      </trkpt>
      <trkpt lat="42.870711" lon="-7.889506">
        <ele>534.444</ele>
        <time>2022-08-22T07:01:18Z</time>
      </trkpt>
      <trkpt lat="42.870650" lon="-7.889509">
        <ele>534.014</ele>
        <time>2022-08-22T07:01:22Z</time>
      </trkpt>
      <trkpt lat="42.870588" lon="-7.889513">
        <ele>533.779</ele>
        <time>2022-08-22T07:01:26Z</time>
      </trkpt>
      <trkpt lat="42.870535" lon="-7.889510">
        <ele>533.434</ele>
        <time>2022-08-22T07:01:30Z</time>
      </trkpt>
      <trkpt lat="42.870478" lon="-7.889505">
        <ele>533.113</ele>
        <time>2022-08-22T07:01:34Z</time>
      </trkpt>
      <trkpt lat="42.870432" lon="-7.889496">
        <ele>532.843</ele>
        <time>2022-08-22T07:01:37Z</time>
      </trkpt>
      <trkpt lat="42.870374" lon="-7.889489">
        <ele>532.607</ele>
        <time>2022-08-22T07:01:41Z</time>
      </trkpt>
      <trkpt lat="42.870322" lon="-7.889493">
        <ele>532.609</ele>
        <time>2022-08-22T07:01:45Z</time>
      </trkpt>
      <trkpt lat="42.870260" lon="-7.889485">
        <ele>532.622</ele>
        <time>2022-08-22T07:01:48Z</time>
      </trkpt>
      <trkpt lat="42.870217" lon="-7.889519">
        <ele>532.682</ele>
        <time>2022-08-22T07:01:54Z</time>
      </trkpt>
      <trkpt lat="42.870216" lon="-7.889594">
        <ele>532.642</ele>
        <time>2022-08-22T07:01:58Z</time>
      </trkpt>
      <trkpt lat="42.870213" lon="-7.889664">
        <ele>532.645</ele>
        <time>2022-08-22T07:02:02Z</time>
      </trkpt>
      <trkpt lat="42.870210" lon="-7.889735">
        <ele>532.657</ele>
        <time>2022-08-22T07:02:06Z</time>
      </trkpt>
      <trkpt lat="42.870210" lon="-7.889800">
        <ele>532.749</ele>
        <time>2022-08-22T07:02:10Z</time>
      </trkpt>
      <trkpt lat="42.870210" lon="-7.889870">
        <ele>532.749</ele>
        <time>2022-08-22T07:02:15Z</time>
      </trkpt>
      <trkpt lat="42.870215" lon="-7.889932">
        <ele>532.714</ele>
        <time>2022-08-22T07:02:19Z</time>
      </trkpt>
      <trkpt lat="42.870223" lon="-7.890001">
        <ele>532.829</ele>
        <time>2022-08-22T07:02:24Z</time>
      </trkpt>
      <trkpt lat="42.870219" lon="-7.890079">
        <ele>532.826</ele>
        <time>2022-08-22T07:02:29Z</time>
      </trkpt>
      <trkpt lat="42.870234" lon="-7.890147">
        <ele>532.947</ele>
        <time>2022-08-22T07:02:33Z</time>
      </trkpt>
      <trkpt lat="42.870234" lon="-7.890219">
        <ele>533.011</ele>
        <time>2022-08-22T07:02:37Z</time>
      </trkpt>
      <trkpt lat="42.870240" lon="-7.890282">
        <ele>533.009</ele>
        <time>2022-08-22T07:02:41Z</time>
      </trkpt>
      <trkpt lat="42.870245" lon="-7.890364">
        <ele>533.033</ele>
        <time>2022-08-22T07:02:45Z</time>
      </trkpt>
      <trkpt lat="42.870248" lon="-7.890434">
        <ele>533.123</ele>
        <time>2022-08-22T07:02:50Z</time>
      </trkpt>
      <trkpt lat="42.870256" lon="-7.890501">
        <ele>533.273</ele>
        <time>2022-08-22T07:02:55Z</time>
      </trkpt>
      <trkpt lat="42.870260" lon="-7.890570">
        <ele>533.386</ele>
        <time>2022-08-22T07:02:59Z</time>
      </trkpt>
      <trkpt lat="42.870274" lon="-7.890633">
        <ele>533.358</ele>
        <time>2022-08-22T07:03:02Z</time>
      </trkpt>
      <trkpt lat="42.870286" lon="-7.890708">
        <ele>533.470</ele>
        <time>2022-08-22T07:03:06Z</time>
      </trkpt>
      <trkpt lat="42.870287" lon="-7.890786">
        <ele>533.550</ele>
        <time>2022-08-22T07:03:10Z</time>
      </trkpt>
      <trkpt lat="42.870297" lon="-7.890865">
        <ele>533.515</ele>
        <time>2022-08-22T07:03:14Z</time>
      </trkpt>
      <trkpt lat="42.870309" lon="-7.890924">
        <ele>533.510</ele>
        <time>2022-08-22T07:03:17Z</time>
      </trkpt>
      <trkpt lat="42.870314" lon="-7.890998">
        <ele>533.498</ele>
        <time>2022-08-22T07:03:21Z</time>
      </trkpt>
      <trkpt lat="42.870333" lon="-7.891072">
        <ele>533.415</ele>
        <time>2022-08-22T07:03:25Z</time>
      </trkpt>
      <trkpt lat="42.870344" lon="-7.891146">
        <ele>533.426</ele>
        <time>2022-08-22T07:03:29Z</time>
      </trkpt>
      <trkpt lat="42.870337" lon="-7.891220">
        <ele>533.409</ele>
        <time>2022-08-22T07:03:33Z</time>
      </trkpt>
      <trkpt lat="42.870354" lon="-7.891291">
        <ele>533.490</ele>
        <time>2022-08-22T07:03:37Z</time>
      </trkpt>
      <trkpt lat="42.870370" lon="-7.891363">
        <ele>533.410</ele>
        <time>2022-08-22T07:03:41Z</time>
      </trkpt>
      <trkpt lat="42.870384" lon="-7.891438">
        <ele>533.490</ele>
        <time>2022-08-22T07:03:45Z</time>
      </trkpt>
      <trkpt lat="42.870392" lon="-7.891508">
        <ele>533.473</ele>
        <time>2022-08-22T07:03:49Z</time>
      </trkpt>
      <trkpt lat="42.870409" lon="-7.891576">
        <ele>533.445</ele>
        <time>2022-08-22T07:03:53Z</time>
      </trkpt>
      <trkpt lat="42.870421" lon="-7.891644">
        <ele>533.427</ele>
        <time>2022-08-22T07:03:57Z</time>
      </trkpt>
      <trkpt lat="42.870425" lon="-7.891708">
        <ele>533.497</ele>
        <time>2022-08-22T07:04:01Z</time>
      </trkpt>
      <trkpt lat="42.870423" lon="-7.891777">
        <ele>533.422</ele>
        <time>2022-08-22T07:04:05Z</time>
      </trkpt>
      <trkpt lat="42.870435" lon="-7.891842">
        <ele>533.347</ele>
        <time>2022-08-22T07:04:09Z</time>
      </trkpt>
      <trkpt lat="42.870473" lon="-7.891897">
        <ele>532.821</ele>
        <time>2022-08-22T07:04:15Z</time>
      </trkpt>
      <trkpt lat="42.870491" lon="-7.891960">
        <ele>532.041</ele>
        <time>2022-08-22T07:04:19Z</time>
      </trkpt>
      <trkpt lat="42.870505" lon="-7.892025">
        <ele>530.905</ele>
        <time>2022-08-22T07:04:23Z</time>
      </trkpt>
      <trkpt lat="42.870517" lon="-7.892092">
        <ele>529.809</ele>
        <time>2022-08-22T07:04:28Z</time>
      </trkpt>
      <trkpt lat="42.870522" lon="-7.892154">
        <ele>528.953</ele>
        <time>2022-08-22T07:04:32Z</time>
      </trkpt>
      <trkpt lat="42.870537" lon="-7.892219">
        <ele>528.013</ele>
        <time>2022-08-22T07:04:36Z</time>
      </trkpt>
      <trkpt lat="42.870540" lon="-7.892284">
        <ele>527.123</ele>
        <time>2022-08-22T07:04:41Z</time>
      </trkpt>
      <trkpt lat="42.870548" lon="-7.892355">
        <ele>526.226</ele>
        <time>2022-08-22T07:04:45Z</time>
      </trkpt>
      <trkpt lat="42.870561" lon="-7.892419">
        <ele>525.258</ele>
        <time>2022-08-22T07:04:49Z</time>
      </trkpt>
      <trkpt lat="42.870569" lon="-7.892485">
        <ele>524.280</ele>
        <time>2022-08-22T07:04:53Z</time>
      </trkpt>
      <trkpt lat="42.870571" lon="-7.892553">
        <ele>523.490</ele>
        <time>2022-08-22T07:04:58Z</time>
      </trkpt>
      <trkpt lat="42.870583" lon="-7.892613">
        <ele>522.795</ele>
        <time>2022-08-22T07:05:01Z</time>
      </trkpt>
      <trkpt lat="42.870611" lon="-7.892665">
        <ele>522.060</ele>
        <time>2022-08-22T07:05:06Z</time>
      </trkpt>
      <trkpt lat="42.870626" lon="-7.892744">
        <ele>521.493</ele>
        <time>2022-08-22T07:05:11Z</time>
      </trkpt>
      <trkpt lat="42.870623" lon="-7.892812">
        <ele>520.965</ele>
        <time>2022-08-22T07:05:15Z</time>
      </trkpt>
      <trkpt lat="42.870637" lon="-7.892872">
        <ele>520.421</ele>
        <time>2022-08-22T07:05:19Z</time>
      </trkpt>
      <trkpt lat="42.870648" lon="-7.892932">
        <ele>520.009</ele>
        <time>2022-08-22T07:05:23Z</time>
      </trkpt>
      <trkpt lat="42.870649" lon="-7.892995">
        <ele>519.730</ele>
        <time>2022-08-22T07:05:26Z</time>
      </trkpt>
      <trkpt lat="42.870651" lon="-7.893057">
        <ele>519.470</ele>
        <time>2022-08-22T07:05:30Z</time>
      </trkpt>
      <trkpt lat="42.870660" lon="-7.893119">
        <ele>519.240</ele>
        <time>2022-08-22T07:05:33Z</time>
      </trkpt>
      <trkpt lat="42.870682" lon="-7.893184">
        <ele>518.973</ele>
        <time>2022-08-22T07:05:38Z</time>
      </trkpt>
      <trkpt lat="42.870703" lon="-7.893247">
        <ele>518.595</ele>
        <time>2022-08-22T07:05:42Z</time>
      </trkpt>
      <trkpt lat="42.870732" lon="-7.893316">
        <ele>517.947</ele>
        <time>2022-08-22T07:05:46Z</time>
      </trkpt>
      <trkpt lat="42.870760" lon="-7.893389">
        <ele>517.247</ele>
        <time>2022-08-22T07:05:51Z</time>
      </trkpt>
      <trkpt lat="42.870776" lon="-7.893462">
        <ele>516.332</ele>
        <time>2022-08-22T07:05:54Z</time>
      </trkpt>
      <trkpt lat="42.870786" lon="-7.893541">
        <ele>515.337</ele>
        <time>2022-08-22T07:05:58Z</time>
      </trkpt>
      <trkpt lat="42.870794" lon="-7.893602">
        <ele>514.785</ele>
        <time>2022-08-22T07:06:01Z</time>
      </trkpt>
      <trkpt lat="42.870804" lon="-7.893662">
        <ele>514.489</ele>
        <time>2022-08-22T07:06:04Z</time>
      </trkpt>
      <trkpt lat="42.870816" lon="-7.893736">
        <ele>514.017</ele>
        <time>2022-08-22T07:06:08Z</time>
      </trkpt>
      <trkpt lat="42.870823" lon="-7.893809">
        <ele>513.809</ele>
        <time>2022-08-22T07:06:12Z</time>
      </trkpt>
      <trkpt lat="42.870828" lon="-7.893882">
        <ele>513.679</ele>
        <time>2022-08-22T07:06:16Z</time>
      </trkpt>
      <trkpt lat="42.870837" lon="-7.893947">
        <ele>513.439</ele>
        <time>2022-08-22T07:06:20Z</time>
      </trkpt>
      <trkpt lat="42.870843" lon="-7.894024">
        <ele>513.269</ele>
        <time>2022-08-22T07:06:26Z</time>
      </trkpt>
      <trkpt lat="42.870843" lon="-7.894090">
        <ele>513.192</ele>
        <time>2022-08-22T07:06:30Z</time>
      </trkpt>
      <trkpt lat="42.870846" lon="-7.894163">
        <ele>512.924</ele>
        <time>2022-08-22T07:06:34Z</time>
      </trkpt>
      <trkpt lat="42.870852" lon="-7.894232">
        <ele>512.726</ele>
        <time>2022-08-22T07:06:38Z</time>
      </trkpt>
      <trkpt lat="42.870868" lon="-7.894296">
        <ele>512.646</ele>
        <time>2022-08-22T07:06:42Z</time>
      </trkpt>
      <trkpt lat="42.870875" lon="-7.894363">
        <ele>512.471</ele>
        <time>2022-08-22T07:06:45Z</time>
      </trkpt>
      <trkpt lat="42.870878" lon="-7.894428">
        <ele>512.296</ele>
        <time>2022-08-22T07:06:48Z</time>
      </trkpt>
      <trkpt lat="42.870889" lon="-7.894502">
        <ele>512.177</ele>
        <time>2022-08-22T07:06:52Z</time>
      </trkpt>
      <trkpt lat="42.870897" lon="-7.894562">
        <ele>512.061</ele>
        <time>2022-08-22T07:06:55Z</time>
      </trkpt>
      <trkpt lat="42.870904" lon="-7.894627">
        <ele>511.927</ele>
        <time>2022-08-22T07:06:59Z</time>
      </trkpt>
      <trkpt lat="42.870906" lon="-7.894696">
        <ele>511.809</ele>
        <time>2022-08-22T07:07:03Z</time>
      </trkpt>
      <trkpt lat="42.870914" lon="-7.894767">
        <ele>511.748</ele>
        <time>2022-08-22T07:07:08Z</time>
      </trkpt>
      <trkpt lat="42.870926" lon="-7.894832">
        <ele>511.658</ele>
        <time>2022-08-22T07:07:11Z</time>
      </trkpt>
      <trkpt lat="42.870930" lon="-7.894900">
        <ele>511.518</ele>
        <time>2022-08-22T07:07:14Z</time>
      </trkpt>
      <trkpt lat="42.870927" lon="-7.894965">
        <ele>511.441</ele>
        <time>2022-08-22T07:07:17Z</time>
      </trkpt>
      <trkpt lat="42.870929" lon="-7.895045">
        <ele>511.433</ele>
        <time>2022-08-22T07:07:21Z</time>
      </trkpt>
      <trkpt lat="42.870936" lon="-7.895125">
        <ele>511.315</ele>
        <time>2022-08-22T07:07:25Z</time>
      </trkpt>
      <trkpt lat="42.870945" lon="-7.895185">
        <ele>511.285</ele>
        <time>2022-08-22T07:07:28Z</time>
      </trkpt>
      <trkpt lat="42.870951" lon="-7.895259">
        <ele>511.160</ele>
        <time>2022-08-22T07:07:32Z</time>
      </trkpt>
      <trkpt lat="42.870977" lon="-7.895317">
        <ele>511.195</ele>
        <time>2022-08-22T07:07:36Z</time>
      </trkpt>
      <trkpt lat="42.871009" lon="-7.895382">
        <ele>511.191</ele>
        <time>2022-08-22T07:07:40Z</time>
      </trkpt>
      <trkpt lat="42.871045" lon="-7.895438">
        <ele>511.181</ele>
        <time>2022-08-22T07:07:44Z</time>
      </trkpt>
      <trkpt lat="42.871076" lon="-7.895500">
        <ele>511.219</ele>
        <time>2022-08-22T07:07:48Z</time>
      </trkpt>
      <trkpt lat="42.871107" lon="-7.895563">
        <ele>511.209</ele>
        <time>2022-08-22T07:07:54Z</time>
      </trkpt>
      <trkpt lat="42.871133" lon="-7.895614">
        <ele>511.270</ele>
        <time>2022-08-22T07:07:58Z</time>
      </trkpt>
      <trkpt lat="42.871155" lon="-7.895676">
        <ele>511.370</ele>
        <time>2022-08-22T07:08:02Z</time>
      </trkpt>
      <trkpt lat="42.871177" lon="-7.895745">
        <ele>511.590</ele>
        <time>2022-08-22T07:08:07Z</time>
      </trkpt>
      <trkpt lat="42.871201" lon="-7.895807">
        <ele>511.643</ele>
        <time>2022-08-22T07:08:11Z</time>
      </trkpt>
      <trkpt lat="42.871215" lon="-7.895867">
        <ele>511.785</ele>
        <time>2022-08-22T07:08:15Z</time>
      </trkpt>
      <trkpt lat="42.871238" lon="-7.895942">
        <ele>511.887</ele>
        <time>2022-08-22T07:08:20Z</time>
      </trkpt>
      <trkpt lat="42.871258" lon="-7.896000">
        <ele>511.957</ele>
        <time>2022-08-22T07:08:25Z</time>
      </trkpt>
      <trkpt lat="42.871282" lon="-7.896062">
        <ele>512.092</ele>
        <time>2022-08-22T07:08:28Z</time>
      </trkpt>
      <trkpt lat="42.871306" lon="-7.896141">
        <ele>512.267</ele>
        <time>2022-08-22T07:08:32Z</time>
      </trkpt>
      <trkpt lat="42.871320" lon="-7.896203">
        <ele>512.495</ele>
        <time>2022-08-22T07:08:35Z</time>
      </trkpt>
      <trkpt lat="42.871340" lon="-7.896266">
        <ele>512.649</ele>
        <time>2022-08-22T07:08:39Z</time>
      </trkpt>
      <trkpt lat="42.871359" lon="-7.896334">
        <ele>512.823</ele>
        <time>2022-08-22T07:08:43Z</time>
      </trkpt>
      <trkpt lat="42.871374" lon="-7.896396">
        <ele>513.109</ele>
        <time>2022-08-22T07:08:46Z</time>
      </trkpt>
      <trkpt lat="42.871380" lon="-7.896467">
        <ele>513.680</ele>
        <time>2022-08-22T07:08:51Z</time>
      </trkpt>
      <trkpt lat="42.871381" lon="-7.896530">
        <ele>514.290</ele>
        <time>2022-08-22T07:08:54Z</time>
      </trkpt>
      <trkpt lat="42.871390" lon="-7.896590">
        <ele>514.480</ele>
        <time>2022-08-22T07:08:57Z</time>
      </trkpt>
      <trkpt lat="42.871394" lon="-7.896665">
        <ele>514.483</ele>
        <time>2022-08-22T07:09:01Z</time>
      </trkpt>
      <trkpt lat="42.871408" lon="-7.896743">
        <ele>514.485</ele>
        <time>2022-08-22T07:09:05Z</time>
      </trkpt>
      <trkpt lat="42.871427" lon="-7.896815">
        <ele>514.277</ele>
        <time>2022-08-22T07:09:09Z</time>
      </trkpt>
      <trkpt lat="42.871437" lon="-7.896889">
        <ele>513.667</ele>
        <time>2022-08-22T07:09:13Z</time>
      </trkpt>
      <trkpt lat="42.871439" lon="-7.896953">
        <ele>513.292</ele>
        <time>2022-08-22T07:09:16Z</time>
      </trkpt>
      <trkpt lat="42.871455" lon="-7.897022">
        <ele>512.867</ele>
        <time>2022-08-22T07:09:20Z</time>
      </trkpt>
      <trkpt lat="42.871472" lon="-7.897089">
        <ele>512.759</ele>
        <time>2022-08-22T07:09:24Z</time>
      </trkpt>
      <trkpt lat="42.871490" lon="-7.897148">
        <ele>512.503</ele>
        <time>2022-08-22T07:09:28Z</time>
      </trkpt>
      <trkpt lat="42.871500" lon="-7.897216">
        <ele>512.323</ele>
        <time>2022-08-22T07:09:32Z</time>
      </trkpt>
      <trkpt lat="42.871531" lon="-7.897279">
        <ele>512.109</ele>
        <time>2022-08-22T07:09:36Z</time>
      </trkpt>
      <trkpt lat="42.871555" lon="-7.897338">
        <ele>511.796</ele>
        <time>2022-08-22T07:09:40Z</time>
      </trkpt>
      <trkpt lat="42.871577" lon="-7.897405">
        <ele>511.216</ele>
        <time>2022-08-22T07:09:44Z</time>
      </trkpt>
      <trkpt lat="42.871595" lon="-7.897473">
        <ele>510.726</ele>
        <time>2022-08-22T07:09:48Z</time>
      </trkpt>
      <trkpt lat="42.871614" lon="-7.897540">
        <ele>510.319</ele>
        <time>2022-08-22T07:09:52Z</time>
      </trkpt>
      <trkpt lat="42.871639" lon="-7.897601">
        <ele>510.111</ele>
        <time>2022-08-22T07:09:56Z</time>
      </trkpt>
      <trkpt lat="42.871675" lon="-7.897650">
        <ele>509.913</ele>
        <time>2022-08-22T07:10:00Z</time>
      </trkpt>
      <trkpt lat="42.871710" lon="-7.897705">
        <ele>509.753</ele>
        <time>2022-08-22T07:10:04Z</time>
      </trkpt>
      <trkpt lat="42.871738" lon="-7.897768">
        <ele>509.518</ele>
        <time>2022-08-22T07:10:08Z</time>
      </trkpt>
      <trkpt lat="42.871770" lon="-7.897823">
        <ele>509.363</ele>
        <time>2022-08-22T07:10:12Z</time>
      </trkpt>
      <trkpt lat="42.871796" lon="-7.897886">
        <ele>509.183</ele>
        <time>2022-08-22T07:10:16Z</time>
      </trkpt>
      <trkpt lat="42.871826" lon="-7.897941">
        <ele>508.925</ele>
        <time>2022-08-22T07:10:20Z</time>
      </trkpt>
      <trkpt lat="42.871870" lon="-7.897988">
        <ele>508.717</ele>
        <time>2022-08-22T07:10:25Z</time>
      </trkpt>
      <trkpt lat="42.871913" lon="-7.898032">
        <ele>508.309</ele>
        <time>2022-08-22T07:10:30Z</time>
      </trkpt>
      <trkpt lat="42.871952" lon="-7.898089">
        <ele>507.739</ele>
        <time>2022-08-22T07:10:34Z</time>
      </trkpt>
      <trkpt lat="42.871992" lon="-7.898142">
        <ele>507.249</ele>
        <time>2022-08-22T07:10:38Z</time>
      </trkpt>
      <trkpt lat="42.872032" lon="-7.898193">
        <ele>506.859</ele>
        <time>2022-08-22T07:10:42Z</time>
      </trkpt>
      <trkpt lat="42.872066" lon="-7.898238">
        <ele>506.612</ele>
        <time>2022-08-22T07:10:46Z</time>
      </trkpt>
      <trkpt lat="42.872109" lon="-7.898267">
        <ele>506.234</ele>
        <time>2022-08-22T07:10:49Z</time>
      </trkpt>
      <trkpt lat="42.872152" lon="-7.898297">
        <ele>506.086</ele>
        <time>2022-08-22T07:10:53Z</time>
      </trkpt>
      <trkpt lat="42.872196" lon="-7.898326">
        <ele>505.996</ele>
        <time>2022-08-22T07:10:57Z</time>
      </trkpt>
      <trkpt lat="42.872237" lon="-7.898369">
        <ele>505.911</ele>
        <time>2022-08-22T07:11:01Z</time>
      </trkpt>
      <trkpt lat="42.872276" lon="-7.898415">
        <ele>505.886</ele>
        <time>2022-08-22T07:11:05Z</time>
      </trkpt>
      <trkpt lat="42.872311" lon="-7.898462">
        <ele>505.688</ele>
        <time>2022-08-22T07:11:09Z</time>
      </trkpt>
      <trkpt lat="42.872339" lon="-7.898520">
        <ele>505.224</ele>
        <time>2022-08-22T07:11:13Z</time>
      </trkpt>
      <trkpt lat="42.872378" lon="-7.898568">
        <ele>504.726</ele>
        <time>2022-08-22T07:11:17Z</time>
      </trkpt>
      <trkpt lat="42.872413" lon="-7.898619">
        <ele>504.209</ele>
        <time>2022-08-22T07:11:21Z</time>
      </trkpt>
      <trkpt lat="42.872447" lon="-7.898674">
        <ele>503.979</ele>
        <time>2022-08-22T07:11:25Z</time>
      </trkpt>
      <trkpt lat="42.872492" lon="-7.898713">
        <ele>503.769</ele>
        <time>2022-08-22T07:11:29Z</time>
      </trkpt>
      <trkpt lat="42.872536" lon="-7.898754">
        <ele>503.519</ele>
        <time>2022-08-22T07:11:33Z</time>
      </trkpt>
      <trkpt lat="42.872587" lon="-7.898790">
        <ele>503.382</ele>
        <time>2022-08-22T07:11:37Z</time>
      </trkpt>
      <trkpt lat="42.872637" lon="-7.898829">
        <ele>503.064</ele>
        <time>2022-08-22T07:11:41Z</time>
      </trkpt>
      <trkpt lat="42.872686" lon="-7.898860">
        <ele>502.646</ele>
        <time>2022-08-22T07:11:45Z</time>
      </trkpt>
      <trkpt lat="42.872736" lon="-7.898886">
        <ele>502.026</ele>
        <time>2022-08-22T07:11:49Z</time>
      </trkpt>
      <trkpt lat="42.872779" lon="-7.898921">
        <ele>501.451</ele>
        <time>2022-08-22T07:11:53Z</time>
      </trkpt>
      <trkpt lat="42.872826" lon="-7.898958">
        <ele>501.126</ele>
        <time>2022-08-22T07:11:57Z</time>
      </trkpt>
      <trkpt lat="42.872869" lon="-7.898985">
        <ele>500.591</ele>
        <time>2022-08-22T07:12:01Z</time>
      </trkpt>
      <trkpt lat="42.872915" lon="-7.899027">
        <ele>499.981</ele>
        <time>2022-08-22T07:12:05Z</time>
      </trkpt>
      <trkpt lat="42.872954" lon="-7.899067">
        <ele>499.319</ele>
        <time>2022-08-22T07:12:09Z</time>
      </trkpt>
      <trkpt lat="42.872993" lon="-7.899111">
        <ele>498.809</ele>
        <time>2022-08-22T07:12:13Z</time>
      </trkpt>
      <trkpt lat="42.873034" lon="-7.899162">
        <ele>498.440</ele>
        <time>2022-08-22T07:12:17Z</time>
      </trkpt>
      <trkpt lat="42.873075" lon="-7.899202">
        <ele>498.190</ele>
        <time>2022-08-22T07:12:21Z</time>
      </trkpt>
      <trkpt lat="42.873117" lon="-7.899233">
        <ele>497.840</ele>
        <time>2022-08-22T07:12:26Z</time>
      </trkpt>
      <trkpt lat="42.873163" lon="-7.899282">
        <ele>497.573</ele>
        <time>2022-08-22T07:12:31Z</time>
      </trkpt>
      <trkpt lat="42.873187" lon="-7.899336">
        <ele>497.215</ele>
        <time>2022-08-22T07:12:34Z</time>
      </trkpt>
      <trkpt lat="42.873237" lon="-7.899372">
        <ele>497.087</ele>
        <time>2022-08-22T07:12:38Z</time>
      </trkpt>
      <trkpt lat="42.873282" lon="-7.899416">
        <ele>496.987</ele>
        <time>2022-08-22T07:12:42Z</time>
      </trkpt>
      <trkpt lat="42.873310" lon="-7.899464">
        <ele>496.882</ele>
        <time>2022-08-22T07:12:45Z</time>
      </trkpt>
      <trkpt lat="42.873339" lon="-7.899524">
        <ele>496.737</ele>
        <time>2022-08-22T07:12:49Z</time>
      </trkpt>
      <trkpt lat="42.873375" lon="-7.899585">
        <ele>496.733</ele>
        <time>2022-08-22T07:12:53Z</time>
      </trkpt>
      <trkpt lat="42.873406" lon="-7.899631">
        <ele>496.723</ele>
        <time>2022-08-22T07:12:56Z</time>
      </trkpt>
      <trkpt lat="42.873443" lon="-7.899691">
        <ele>496.715</ele>
        <time>2022-08-22T07:13:00Z</time>
      </trkpt>
      <trkpt lat="42.873484" lon="-7.899745">
        <ele>496.709</ele>
        <time>2022-08-22T07:13:04Z</time>
      </trkpt>
      <trkpt lat="42.873525" lon="-7.899797">
        <ele>496.714</ele>
        <time>2022-08-22T07:13:08Z</time>
      </trkpt>
      <trkpt lat="42.873569" lon="-7.899841">
        <ele>496.734</ele>
        <time>2022-08-22T07:13:12Z</time>
      </trkpt>
      <trkpt lat="42.873609" lon="-7.899899">
        <ele>496.784</ele>
        <time>2022-08-22T07:13:16Z</time>
      </trkpt>
      <trkpt lat="42.873642" lon="-7.899949">
        <ele>496.737</ele>
        <time>2022-08-22T07:13:20Z</time>
      </trkpt>
      <trkpt lat="42.873677" lon="-7.900002">
        <ele>496.719</ele>
        <time>2022-08-22T07:13:24Z</time>
      </trkpt>
      <trkpt lat="42.873712" lon="-7.900057">
        <ele>496.791</ele>
        <time>2022-08-22T07:13:28Z</time>
      </trkpt>
      <trkpt lat="42.873743" lon="-7.900114">
        <ele>496.751</ele>
        <time>2022-08-22T07:13:32Z</time>
      </trkpt>
      <trkpt lat="42.873771" lon="-7.900172">
        <ele>496.616</ele>
        <time>2022-08-22T07:13:36Z</time>
      </trkpt>
      <trkpt lat="42.873796" lon="-7.900237">
        <ele>496.591</ele>
        <time>2022-08-22T07:13:40Z</time>
      </trkpt>
      <trkpt lat="42.873823" lon="-7.900301">
        <ele>496.376</ele>
        <time>2022-08-22T07:13:44Z</time>
      </trkpt>
      <trkpt lat="42.873840" lon="-7.900365">
        <ele>496.090</ele>
        <time>2022-08-22T07:13:48Z</time>
      </trkpt>
      <trkpt lat="42.873860" lon="-7.900435">
        <ele>495.619</ele>
        <time>2022-08-22T07:13:53Z</time>
      </trkpt>
      <trkpt lat="42.873883" lon="-7.900501">
        <ele>495.109</ele>
        <time>2022-08-22T07:13:57Z</time>
      </trkpt>
      <trkpt lat="42.873903" lon="-7.900567">
        <ele>494.698</ele>
        <time>2022-08-22T07:14:03Z</time>
      </trkpt>
      <trkpt lat="42.873928" lon="-7.900634">
        <ele>494.198</ele>
        <time>2022-08-22T07:14:06Z</time>
      </trkpt>
      <trkpt lat="42.873955" lon="-7.900688">
        <ele>493.338</ele>
        <time>2022-08-22T07:14:10Z</time>
      </trkpt>
      <trkpt lat="42.873965" lon="-7.900752">
        <ele>492.541</ele>
        <time>2022-08-22T07:14:13Z</time>
      </trkpt>
      <trkpt lat="42.873988" lon="-7.900820">
        <ele>491.943</ele>
        <time>2022-08-22T07:14:18Z</time>
      </trkpt>
      <trkpt lat="42.874020" lon="-7.900873">
        <ele>491.465</ele>
        <time>2022-08-22T07:14:22Z</time>
      </trkpt>
      <trkpt lat="42.874045" lon="-7.900937">
        <ele>491.175</ele>
        <time>2022-08-22T07:14:26Z</time>
      </trkpt>
      <trkpt lat="42.874069" lon="-7.900996">
        <ele>490.970</ele>
        <time>2022-08-22T07:14:30Z</time>
      </trkpt>
      <trkpt lat="42.874102" lon="-7.901061">
        <ele>490.755</ele>
        <time>2022-08-22T07:14:35Z</time>
      </trkpt>
      <trkpt lat="42.874127" lon="-7.901117">
        <ele>490.641</ele>
        <time>2022-08-22T07:14:39Z</time>
      </trkpt>
      <trkpt lat="42.874159" lon="-7.901185">
        <ele>490.581</ele>
        <time>2022-08-22T07:14:43Z</time>
      </trkpt>
      <trkpt lat="42.874186" lon="-7.901235">
        <ele>490.309</ele>
        <time>2022-08-22T07:14:46Z</time>
      </trkpt>
      <trkpt lat="42.874221" lon="-7.901283">
        <ele>489.909</ele>
        <time>2022-08-22T07:14:50Z</time>
      </trkpt>
      <trkpt lat="42.874259" lon="-7.901334">
        <ele>489.235</ele>
        <time>2022-08-22T07:14:54Z</time>
      </trkpt>
      <trkpt lat="42.874292" lon="-7.901381">
        <ele>488.315</ele>
        <time>2022-08-22T07:14:57Z</time>
      </trkpt>
      <trkpt lat="42.874337" lon="-7.901435">
        <ele>487.265</ele>
        <time>2022-08-22T07:15:01Z</time>
      </trkpt>
      <trkpt lat="42.874367" lon="-7.901483">
        <ele>486.318</ele>
        <time>2022-08-22T07:15:04Z</time>
      </trkpt>
      <trkpt lat="42.874414" lon="-7.901520">
        <ele>485.420</ele>
        <time>2022-08-22T07:15:08Z</time>
      </trkpt>
      <trkpt lat="42.874457" lon="-7.901557">
        <ele>484.542</ele>
        <time>2022-08-22T07:15:12Z</time>
      </trkpt>
      <trkpt lat="42.874506" lon="-7.901594">
        <ele>483.772</ele>
        <time>2022-08-22T07:15:17Z</time>
      </trkpt>
      <trkpt lat="42.874554" lon="-7.901631">
        <ele>483.027</ele>
        <time>2022-08-22T07:15:21Z</time>
      </trkpt>
      <trkpt lat="42.874588" lon="-7.901685">
        <ele>482.542</ele>
        <time>2022-08-22T07:15:25Z</time>
      </trkpt>
      <trkpt lat="42.874587" lon="-7.901749">
        <ele>482.041</ele>
        <time>2022-08-22T07:15:30Z</time>
      </trkpt>
      <trkpt lat="42.874578" lon="-7.901815">
        <ele>481.481</ele>
        <time>2022-08-22T07:15:33Z</time>
      </trkpt>
      <trkpt lat="42.874564" lon="-7.901895">
        <ele>480.609</ele>
        <time>2022-08-22T07:15:37Z</time>
      </trkpt>
      <trkpt lat="42.874554" lon="-7.901968">
        <ele>480.009</ele>
        <time>2022-08-22T07:15:41Z</time>
      </trkpt>
      <trkpt lat="42.874545" lon="-7.902035">
        <ele>479.565</ele>
        <time>2022-08-22T07:15:44Z</time>
      </trkpt>
      <trkpt lat="42.874546" lon="-7.902109">
        <ele>478.985</ele>
        <time>2022-08-22T07:15:48Z</time>
      </trkpt>
      <trkpt lat="42.874552" lon="-7.902186">
        <ele>478.245</ele>
        <time>2022-08-22T07:15:52Z</time>
      </trkpt>
      <trkpt lat="42.874550" lon="-7.902248">
        <ele>477.888</ele>
        <time>2022-08-22T07:15:56Z</time>
      </trkpt>
      <trkpt lat="42.874556" lon="-7.902320">
        <ele>477.220</ele>
        <time>2022-08-22T07:16:00Z</time>
      </trkpt>
      <trkpt lat="42.874570" lon="-7.902386">
        <ele>476.792</ele>
        <time>2022-08-22T07:16:05Z</time>
      </trkpt>
      <trkpt lat="42.874574" lon="-7.902450">
        <ele>476.352</ele>
        <time>2022-08-22T07:16:09Z</time>
      </trkpt>
      <trkpt lat="42.874589" lon="-7.902521">
        <ele>476.177</ele>
        <time>2022-08-22T07:16:13Z</time>
      </trkpt>
      <trkpt lat="42.874586" lon="-7.902592">
        <ele>475.922</ele>
        <time>2022-08-22T07:16:17Z</time>
      </trkpt>
      <trkpt lat="42.874580" lon="-7.902663">
        <ele>475.714</ele>
        <time>2022-08-22T07:16:21Z</time>
      </trkpt>
      <trkpt lat="42.874561" lon="-7.902724">
        <ele>475.554</ele>
        <time>2022-08-22T07:16:26Z</time>
      </trkpt>
      <trkpt lat="42.874530" lon="-7.902775">
        <ele>475.309</ele>
        <time>2022-08-22T07:16:29Z</time>
      </trkpt>
      <trkpt lat="42.874512" lon="-7.902839">
        <ele>475.109</ele>
        <time>2022-08-22T07:16:33Z</time>
      </trkpt>
      <trkpt lat="42.874485" lon="-7.902913">
        <ele>474.952</ele>
        <time>2022-08-22T07:16:38Z</time>
      </trkpt>
      <trkpt lat="42.874476" lon="-7.902978">
        <ele>474.782</ele>
        <time>2022-08-22T07:16:42Z</time>
      </trkpt>
      <trkpt lat="42.874478" lon="-7.903039">
        <ele>474.492</ele>
        <time>2022-08-22T07:16:45Z</time>
      </trkpt>
      <trkpt lat="42.874462" lon="-7.903117">
        <ele>474.125</ele>
        <time>2022-08-22T07:16:49Z</time>
      </trkpt>
      <trkpt lat="42.874473" lon="-7.903187">
        <ele>473.997</ele>
        <time>2022-08-22T07:16:53Z</time>
      </trkpt>
      <trkpt lat="42.874479" lon="-7.903254">
        <ele>473.689</ele>
        <time>2022-08-22T07:16:57Z</time>
      </trkpt>
      <trkpt lat="42.874491" lon="-7.903316">
        <ele>473.359</ele>
        <time>2022-08-22T07:17:01Z</time>
      </trkpt>
      <trkpt lat="42.874518" lon="-7.903383">
        <ele>473.184</ele>
        <time>2022-08-22T07:17:05Z</time>
      </trkpt>
      <trkpt lat="42.874540" lon="-7.903449">
        <ele>472.979</ele>
        <time>2022-08-22T07:17:09Z</time>
      </trkpt>
      <trkpt lat="42.874549" lon="-7.903526">
        <ele>472.777</ele>
        <time>2022-08-22T07:17:14Z</time>
      </trkpt>
      <trkpt lat="42.874535" lon="-7.903589">
        <ele>472.561</ele>
        <time>2022-08-22T07:17:18Z</time>
      </trkpt>
      <trkpt lat="42.874524" lon="-7.903650">
        <ele>472.227</ele>
        <time>2022-08-22T07:17:23Z</time>
      </trkpt>
      <trkpt lat="42.874505" lon="-7.903709">
        <ele>471.909</ele>
        <time>2022-08-22T07:17:27Z</time>
      </trkpt>
      <trkpt lat="42.874479" lon="-7.903778">
        <ele>471.468</ele>
        <time>2022-08-22T07:17:31Z</time>
      </trkpt>
      <trkpt lat="42.874454" lon="-7.903846">
        <ele>470.888</ele>
        <time>2022-08-22T07:17:35Z</time>
      </trkpt>
      <trkpt lat="42.874443" lon="-7.903908">
        <ele>470.268</ele>
        <time>2022-08-22T07:17:39Z</time>
      </trkpt>
      <trkpt lat="42.874437" lon="-7.903973">
        <ele>469.621</ele>
        <time>2022-08-22T07:17:43Z</time>
      </trkpt>
      <trkpt lat="42.874441" lon="-7.904044">
        <ele>469.053</ele>
        <time>2022-08-22T07:17:47Z</time>
      </trkpt>
      <trkpt lat="42.874454" lon="-7.904114">
        <ele>468.595</ele>
        <time>2022-08-22T07:17:51Z</time>
      </trkpt>
      <trkpt lat="42.874464" lon="-7.904174">
        <ele>468.055</ele>
        <time>2022-08-22T07:17:55Z</time>
      </trkpt>
      <trkpt lat="42.874487" lon="-7.904232">
        <ele>467.690</ele>
        <time>2022-08-22T07:17:59Z</time>
      </trkpt>
      <trkpt lat="42.874517" lon="-7.904278">
        <ele>467.215</ele>
        <time>2022-08-22T07:18:03Z</time>
      </trkpt>
      <trkpt lat="42.874557" lon="-7.904326">
        <ele>466.638</ele>
        <time>2022-08-22T07:18:07Z</time>
      </trkpt>
      <trkpt lat="42.874601" lon="-7.904368">
        <ele>465.970</ele>
        <time>2022-08-22T07:18:11Z</time>
      </trkpt>
      <trkpt lat="42.874644" lon="-7.904392">
        <ele>465.317</ele>
        <time>2022-08-22T07:18:15Z</time>
      </trkpt>
      <trkpt lat="42.874695" lon="-7.904418">
        <ele>464.709</ele>
        <time>2022-08-22T07:18:19Z</time>
      </trkpt>
      <trkpt lat="42.874747" lon="-7.904453">
        <ele>464.034</ele>
        <time>2022-08-22T07:18:23Z</time>
      </trkpt>
      <trkpt lat="42.874788" lon="-7.904496">
        <ele>463.254</ele>
        <time>2022-08-22T07:18:27Z</time>
      </trkpt>
      <trkpt lat="42.874830" lon="-7.904517">
        <ele>462.474</ele>
        <time>2022-08-22T07:18:31Z</time>
      </trkpt>
      <trkpt lat="42.874868" lon="-7.904565">
        <ele>461.967</ele>
        <time>2022-08-22T07:18:35Z</time>
      </trkpt>
      <trkpt lat="42.874891" lon="-7.904618">
        <ele>461.659</ele>
        <time>2022-08-22T07:18:39Z</time>
      </trkpt>
      <trkpt lat="42.874921" lon="-7.904675">
        <ele>461.461</ele>
        <time>2022-08-22T07:18:43Z</time>
      </trkpt>
      <trkpt lat="42.874951" lon="-7.904733">
        <ele>461.261</ele>
        <time>2022-08-22T07:18:47Z</time>
      </trkpt>
      <trkpt lat="42.874970" lon="-7.904805">
        <ele>461.046</ele>
        <time>2022-08-22T07:18:51Z</time>
      </trkpt>
      <trkpt lat="42.874987" lon="-7.904880">
        <ele>460.991</ele>
        <time>2022-08-22T07:18:55Z</time>
      </trkpt>
      <trkpt lat="42.875011" lon="-7.904952">
        <ele>460.947</ele>
        <time>2022-08-22T07:18:59Z</time>
      </trkpt>
      <trkpt lat="42.875034" lon="-7.905021">
        <ele>460.929</ele>
        <time>2022-08-22T07:19:03Z</time>
      </trkpt>
      <trkpt lat="42.875054" lon="-7.905093">
        <ele>460.821</ele>
        <time>2022-08-22T07:19:07Z</time>
      </trkpt>
      <trkpt lat="42.875074" lon="-7.905164">
        <ele>460.809</ele>
        <time>2022-08-22T07:19:11Z</time>
      </trkpt>
      <trkpt lat="42.875096" lon="-7.905234">
        <ele>460.815</ele>
        <time>2022-08-22T07:19:15Z</time>
      </trkpt>
      <trkpt lat="42.875120" lon="-7.905301">
        <ele>460.855</ele>
        <time>2022-08-22T07:19:19Z</time>
      </trkpt>
      <trkpt lat="42.875148" lon="-7.905363">
        <ele>460.865</ele>
        <time>2022-08-22T07:19:23Z</time>
      </trkpt>
      <trkpt lat="42.875165" lon="-7.905422">
        <ele>460.918</ele>
        <time>2022-08-22T07:19:27Z</time>
      </trkpt>
      <trkpt lat="42.875165" lon="-7.905494">
        <ele>461.170</ele>
        <time>2022-08-22T07:19:32Z</time>
      </trkpt>
      <trkpt lat="42.875173" lon="-7.905566">
        <ele>461.322</ele>
        <time>2022-08-22T07:19:37Z</time>
      </trkpt>
      <trkpt lat="42.875170" lon="-7.905640">
        <ele>461.552</ele>
        <time>2022-08-22T07:19:41Z</time>
      </trkpt>
      <trkpt lat="42.875182" lon="-7.905701">
        <ele>461.667</ele>
        <time>2022-08-22T07:19:44Z</time>
      </trkpt>
      <trkpt lat="42.875191" lon="-7.905777">
        <ele>461.672</ele>
        <time>2022-08-22T07:19:48Z</time>
      </trkpt>
      <trkpt lat="42.875204" lon="-7.905853">
        <ele>461.626</ele>
        <time>2022-08-22T07:19:52Z</time>
      </trkpt>
      <trkpt lat="42.875214" lon="-7.905927">
        <ele>461.647</ele>
        <time>2022-08-22T07:19:56Z</time>
      </trkpt>
      <trkpt lat="42.875219" lon="-7.906001">
        <ele>461.711</ele>
        <time>2022-08-22T07:20:00Z</time>
      </trkpt>
      <trkpt lat="42.875223" lon="-7.906078">
        <ele>461.809</ele>
        <time>2022-08-22T07:20:04Z</time>
      </trkpt>
      <trkpt lat="42.875230" lon="-7.906152">
        <ele>461.983</ele>
        <time>2022-08-22T07:20:08Z</time>
      </trkpt>
      <trkpt lat="42.875238" lon="-7.906225">
        <ele>461.983</ele>
        <time>2022-08-22T07:20:12Z</time>
      </trkpt>
      <trkpt lat="42.875250" lon="-7.906297">
        <ele>461.963</ele>
        <time>2022-08-22T07:20:16Z</time>
      </trkpt>
      <trkpt lat="42.875264" lon="-7.906375">
        <ele>461.916</ele>
        <time>2022-08-22T07:20:22Z</time>
      </trkpt>
      <trkpt lat="42.875282" lon="-7.906445">
        <ele>462.088</ele>
        <time>2022-08-22T07:20:26Z</time>
      </trkpt>
      <trkpt lat="42.875293" lon="-7.906518">
        <ele>462.280</ele>
        <time>2022-08-22T07:20:30Z</time>
      </trkpt>
      <trkpt lat="42.875299" lon="-7.906593">
        <ele>462.260</ele>
        <time>2022-08-22T07:20:34Z</time>
      </trkpt>
      <trkpt lat="42.875314" lon="-7.906662">
        <ele>462.325</ele>
        <time>2022-08-22T07:20:38Z</time>
      </trkpt>
      <trkpt lat="42.875328" lon="-7.906723">
        <ele>462.380</ele>
        <time>2022-08-22T07:20:41Z</time>
      </trkpt>
      <trkpt lat="42.875346" lon="-7.906804">
        <ele>462.446</ele>
        <time>2022-08-22T07:20:45Z</time>
      </trkpt>
      <trkpt lat="42.875355" lon="-7.906882">
        <ele>462.488</ele>
        <time>2022-08-22T07:20:49Z</time>
      </trkpt>
      <trkpt lat="42.875372" lon="-7.906957">
        <ele>462.416</ele>
        <time>2022-08-22T07:20:53Z</time>
      </trkpt>
      <trkpt lat="42.875387" lon="-7.907015">
        <ele>462.409</ele>
        <time>2022-08-22T07:20:56Z</time>
      </trkpt>
      <trkpt lat="42.875395" lon="-7.907092">
        <ele>462.455</ele>
        <time>2022-08-22T07:21:00Z</time>
      </trkpt>
      <trkpt lat="42.875406" lon="-7.907168">
        <ele>462.425</ele>
        <time>2022-08-22T07:21:04Z</time>
      </trkpt>
      <trkpt lat="42.875414" lon="-7.907241">
        <ele>462.375</ele>
        <time>2022-08-22T07:21:08Z</time>
      </trkpt>
      <trkpt lat="42.875415" lon="-7.907317">
        <ele>462.268</ele>
        <time>2022-08-22T07:21:12Z</time>
      </trkpt>
      <trkpt lat="42.875420" lon="-7.907391">
        <ele>462.110</ele>
        <time>2022-08-22T07:21:16Z</time>
      </trkpt>
      <trkpt lat="42.875432" lon="-7.907463">
        <ele>462.082</ele>
        <time>2022-08-22T07:21:20Z</time>
      </trkpt>
      <trkpt lat="42.875446" lon="-7.907536">
        <ele>461.952</ele>
        <time>2022-08-22T07:21:24Z</time>
      </trkpt>
      <trkpt lat="42.875456" lon="-7.907607">
        <ele>461.867</ele>
        <time>2022-08-22T07:21:28Z</time>
      </trkpt>
      <trkpt lat="42.875467" lon="-7.907683">
        <ele>461.732</ele>
        <time>2022-08-22T07:21:32Z</time>
      </trkpt>
      <trkpt lat="42.875481" lon="-7.907758">
        <ele>461.798</ele>
        <time>2022-08-22T07:21:36Z</time>
      </trkpt>
      <trkpt lat="42.875499" lon="-7.907828">
        <ele>461.715</ele>
        <time>2022-08-22T07:21:40Z</time>
      </trkpt>
      <trkpt lat="42.875517" lon="-7.907897">
        <ele>461.726</ele>
        <time>2022-08-22T07:21:44Z</time>
      </trkpt>
      <trkpt lat="42.875536" lon="-7.907966">
        <ele>461.609</ele>
        <time>2022-08-22T07:21:48Z</time>
      </trkpt>
      <trkpt lat="42.875559" lon="-7.908034">
        <ele>461.530</ele>
        <time>2022-08-22T07:21:52Z</time>
      </trkpt>
      <trkpt lat="42.875578" lon="-7.908104">
        <ele>461.490</ele>
        <time>2022-08-22T07:21:56Z</time>
      </trkpt>
      <trkpt lat="42.875601" lon="-7.908173">
        <ele>461.320</ele>
        <time>2022-08-22T07:22:00Z</time>
      </trkpt>
      <trkpt lat="42.875626" lon="-7.908241">
        <ele>461.213</ele>
        <time>2022-08-22T07:22:04Z</time>
      </trkpt>
      <trkpt lat="42.875651" lon="-7.908307">
        <ele>461.185</ele>
        <time>2022-08-22T07:22:08Z</time>
      </trkpt>
      <trkpt lat="42.875672" lon="-7.908374">
        <ele>461.197</ele>
        <time>2022-08-22T07:22:12Z</time>
      </trkpt>
      <trkpt lat="42.875692" lon="-7.908438">
        <ele>461.117</ele>
        <time>2022-08-22T07:22:16Z</time>
      </trkpt>
      <trkpt lat="42.875712" lon="-7.908504">
        <ele>461.152</ele>
        <time>2022-08-22T07:22:20Z</time>
      </trkpt>
      <trkpt lat="42.875737" lon="-7.908567">
        <ele>461.117</ele>
        <time>2022-08-22T07:22:24Z</time>
      </trkpt>
      <trkpt lat="42.875758" lon="-7.908636">
        <ele>461.124</ele>
        <time>2022-08-22T07:22:28Z</time>
      </trkpt>
      <trkpt lat="42.875785" lon="-7.908700">
        <ele>461.104</ele>
        <time>2022-08-22T07:22:32Z</time>
      </trkpt>
      <trkpt lat="42.875826" lon="-7.908753">
        <ele>461.114</ele>
        <time>2022-08-22T07:22:36Z</time>
      </trkpt>
      <trkpt lat="42.875867" lon="-7.908802">
        <ele>461.109</ele>
        <time>2022-08-22T07:22:41Z</time>
      </trkpt>
      <trkpt lat="42.875900" lon="-7.908846">
        <ele>461.133</ele>
        <time>2022-08-22T07:22:45Z</time>
      </trkpt>
      <trkpt lat="42.875924" lon="-7.908907">
        <ele>461.123</ele>
        <time>2022-08-22T07:22:50Z</time>
      </trkpt>
      <trkpt lat="42.875950" lon="-7.908966">
        <ele>461.193</ele>
        <time>2022-08-22T07:22:54Z</time>
      </trkpt>
      <trkpt lat="42.875987" lon="-7.909022">
        <ele>461.176</ele>
        <time>2022-08-22T07:22:58Z</time>
      </trkpt>
      <trkpt lat="42.876026" lon="-7.909057">
        <ele>461.158</ele>
        <time>2022-08-22T07:23:02Z</time>
      </trkpt>
      <trkpt lat="42.876060" lon="-7.909114">
        <ele>461.040</ele>
        <time>2022-08-22T07:23:07Z</time>
      </trkpt>
      <trkpt lat="42.876104" lon="-7.909153">
        <ele>460.610</ele>
        <time>2022-08-22T07:23:13Z</time>
      </trkpt>
      <trkpt lat="42.876148" lon="-7.909192">
        <ele>460.295</ele>
        <time>2022-08-22T07:23:17Z</time>
      </trkpt>
      <trkpt lat="42.876197" lon="-7.909225">
        <ele>459.840</ele>
        <time>2022-08-22T07:23:22Z</time>
      </trkpt>
      <trkpt lat="42.876238" lon="-7.909271">
        <ele>459.483</ele>
        <time>2022-08-22T07:23:26Z</time>
      </trkpt>
      <trkpt lat="42.876282" lon="-7.909309">
        <ele>459.125</ele>
        <time>2022-08-22T07:23:30Z</time>
      </trkpt>
      <trkpt lat="42.876322" lon="-7.909343">
        <ele>458.817</ele>
        <time>2022-08-22T07:23:34Z</time>
      </trkpt>
      <trkpt lat="42.876369" lon="-7.909384">
        <ele>458.509</ele>
        <time>2022-08-22T07:23:39Z</time>
      </trkpt>
      <trkpt lat="42.876412" lon="-7.909422">
        <ele>458.289</ele>
        <time>2022-08-22T07:23:44Z</time>
      </trkpt>
      <trkpt lat="42.876458" lon="-7.909480">
        <ele>457.859</ele>
        <time>2022-08-22T07:23:48Z</time>
      </trkpt>
      <trkpt lat="42.876503" lon="-7.909524">
        <ele>457.259</ele>
        <time>2022-08-22T07:23:52Z</time>
      </trkpt>
      <trkpt lat="42.876540" lon="-7.909563">
        <ele>456.942</ele>
        <time>2022-08-22T07:23:56Z</time>
      </trkpt>
      <trkpt lat="42.876579" lon="-7.909604">
        <ele>456.774</ele>
        <time>2022-08-22T07:24:00Z</time>
      </trkpt>
      <trkpt lat="42.876624" lon="-7.909645">
        <ele>456.386</ele>
        <time>2022-08-22T07:24:04Z</time>
      </trkpt>
      <trkpt lat="42.876659" lon="-7.909684">
        <ele>455.896</ele>
        <time>2022-08-22T07:24:08Z</time>
      </trkpt>
      <trkpt lat="42.876698" lon="-7.909729">
        <ele>455.281</ele>
        <time>2022-08-22T07:24:12Z</time>
      </trkpt>
      <trkpt lat="42.876744" lon="-7.909786">
        <ele>454.666</ele>
        <time>2022-08-22T07:24:16Z</time>
      </trkpt>
      <trkpt lat="42.876767" lon="-7.909848">
        <ele>454.122</ele>
        <time>2022-08-22T07:24:20Z</time>
      </trkpt>
      <trkpt lat="42.876791" lon="-7.909902">
        <ele>453.762</ele>
        <time>2022-08-22T07:24:23Z</time>
      </trkpt>
      <trkpt lat="42.876804" lon="-7.909966">
        <ele>453.308</ele>
        <time>2022-08-22T07:24:26Z</time>
      </trkpt>
      <trkpt lat="42.876825" lon="-7.910022">
        <ele>453.009</ele>
        <time>2022-08-22T07:24:30Z</time>
      </trkpt>
      <trkpt lat="42.876839" lon="-7.910086">
        <ele>452.863</ele>
        <time>2022-08-22T07:24:33Z</time>
      </trkpt>
      <trkpt lat="42.876860" lon="-7.910156">
        <ele>452.413</ele>
        <time>2022-08-22T07:24:36Z</time>
      </trkpt>
      <trkpt lat="42.876883" lon="-7.910216">
        <ele>451.963</ele>
        <time>2022-08-22T07:24:40Z</time>
      </trkpt>
      <trkpt lat="42.876899" lon="-7.910282">
        <ele>451.546</ele>
        <time>2022-08-22T07:24:44Z</time>
      </trkpt>
      <trkpt lat="42.876915" lon="-7.910340">
        <ele>451.218</ele>
        <time>2022-08-22T07:24:47Z</time>
      </trkpt>
      <trkpt lat="42.876930" lon="-7.910400">
        <ele>450.930</ele>
        <time>2022-08-22T07:24:50Z</time>
      </trkpt>
      <trkpt lat="42.876948" lon="-7.910460">
        <ele>450.640</ele>
        <time>2022-08-22T07:24:54Z</time>
      </trkpt>
      <trkpt lat="42.876969" lon="-7.910532">
        <ele>450.325</ele>
        <time>2022-08-22T07:24:59Z</time>
      </trkpt>
      <trkpt lat="42.876984" lon="-7.910600">
        <ele>450.090</ele>
        <time>2022-08-22T07:25:03Z</time>
      </trkpt>
      <trkpt lat="42.876995" lon="-7.910660">
        <ele>449.761</ele>
        <time>2022-08-22T07:25:07Z</time>
      </trkpt>
      <trkpt lat="42.877012" lon="-7.910718">
        <ele>449.321</ele>
        <time>2022-08-22T07:25:10Z</time>
      </trkpt>
      <trkpt lat="42.877036" lon="-7.910775">
        <ele>448.913</ele>
        <time>2022-08-22T07:25:14Z</time>
      </trkpt>
      <trkpt lat="42.877063" lon="-7.910839">
        <ele>448.609</ele>
        <time>2022-08-22T07:25:18Z</time>
      </trkpt>
      <trkpt lat="42.877087" lon="-7.910901">
        <ele>448.377</ele>
        <time>2022-08-22T07:25:22Z</time>
      </trkpt>
      <trkpt lat="42.877105" lon="-7.910971">
        <ele>448.067</ele>
        <time>2022-08-22T07:25:26Z</time>
      </trkpt>
      <trkpt lat="42.877125" lon="-7.911053">
        <ele>447.587</ele>
        <time>2022-08-22T07:25:30Z</time>
      </trkpt>
      <trkpt lat="42.877143" lon="-7.911112">
        <ele>447.340</ele>
        <time>2022-08-22T07:25:34Z</time>
      </trkpt>
      <trkpt lat="42.877156" lon="-7.911179">
        <ele>447.132</ele>
        <time>2022-08-22T07:25:38Z</time>
      </trkpt>
      <trkpt lat="42.877182" lon="-7.911245">
        <ele>446.474</ele>
        <time>2022-08-22T07:25:42Z</time>
      </trkpt>
      <trkpt lat="42.877200" lon="-7.911306">
        <ele>446.174</ele>
        <time>2022-08-22T07:25:46Z</time>
      </trkpt>
      <trkpt lat="42.877218" lon="-7.911366">
        <ele>445.389</ele>
        <time>2022-08-22T07:25:49Z</time>
      </trkpt>
      <trkpt lat="42.877234" lon="-7.911444">
        <ele>444.434</ele>
        <time>2022-08-22T07:25:53Z</time>
      </trkpt>
      <trkpt lat="42.877252" lon="-7.911505">
        <ele>443.627</ele>
        <time>2022-08-22T07:25:57Z</time>
      </trkpt>
      <trkpt lat="42.877280" lon="-7.911571">
        <ele>442.868</ele>
        <time>2022-08-22T07:26:02Z</time>
      </trkpt>
      <trkpt lat="42.877291" lon="-7.911632">
        <ele>441.714</ele>
        <time>2022-08-22T07:26:05Z</time>
      </trkpt>
      <trkpt lat="42.877320" lon="-7.911704">
        <ele>439.809</ele>
        <time>2022-08-22T07:26:09Z</time>
      </trkpt>
      <trkpt lat="42.877347" lon="-7.911777">
        <ele>439.083</ele>
        <time>2022-08-22T07:26:13Z</time>
      </trkpt>
      <trkpt lat="42.877373" lon="-7.911834">
        <ele>437.733</ele>
        <time>2022-08-22T07:26:17Z</time>
      </trkpt>
      <trkpt lat="42.877400" lon="-7.911890">
        <ele>437.183</ele>
        <time>2022-08-22T07:26:21Z</time>
      </trkpt>
      <trkpt lat="42.877434" lon="-7.911942">
        <ele>436.016</ele>
        <time>2022-08-22T07:26:25Z</time>
      </trkpt>
      <trkpt lat="42.877462" lon="-7.912006">
        <ele>435.038</ele>
        <time>2022-08-22T07:26:30Z</time>
      </trkpt>
      <trkpt lat="42.877493" lon="-7.912073">
        <ele>434.030</ele>
        <time>2022-08-22T07:26:33Z</time>
      </trkpt>
      <trkpt lat="42.877533" lon="-7.912125">
        <ele>433.020</ele>
        <time>2022-08-22T07:26:37Z</time>
      </trkpt>
      <trkpt lat="42.877563" lon="-7.912173">
        <ele>432.125</ele>
        <time>2022-08-22T07:26:40Z</time>
      </trkpt>
      <trkpt lat="42.877601" lon="-7.912221">
        <ele>431.560</ele>
        <time>2022-08-22T07:26:44Z</time>
      </trkpt>
      <trkpt lat="42.877643" lon="-7.912269">
        <ele>430.951</ele>
        <time>2022-08-22T07:26:49Z</time>
      </trkpt>
      <trkpt lat="42.877687" lon="-7.912317">
        <ele>430.401</ele>
        <time>2022-08-22T07:26:53Z</time>
      </trkpt>
      <trkpt lat="42.877723" lon="-7.912361">
        <ele>429.811</ele>
        <time>2022-08-22T07:26:56Z</time>
      </trkpt>
      <trkpt lat="42.877758" lon="-7.912425">
        <ele>429.109</ele>
        <time>2022-08-22T07:27:00Z</time>
      </trkpt>
      <trkpt lat="42.877783" lon="-7.912480">
        <ele>428.936</ele>
        <time>2022-08-22T07:27:04Z</time>
      </trkpt>
      <trkpt lat="42.877804" lon="-7.912550">
        <ele>428.596</ele>
        <time>2022-08-22T07:27:08Z</time>
      </trkpt>
      <trkpt lat="42.877827" lon="-7.912626">
        <ele>427.816</ele>
        <time>2022-08-22T07:27:12Z</time>
      </trkpt>
      <trkpt lat="42.877855" lon="-7.912696">
        <ele>427.349</ele>
        <time>2022-08-22T07:27:16Z</time>
      </trkpt>
      <trkpt lat="42.877882" lon="-7.912761">
        <ele>426.751</ele>
        <time>2022-08-22T07:27:20Z</time>
      </trkpt>
      <trkpt lat="42.877907" lon="-7.912823">
        <ele>426.063</ele>
        <time>2022-08-22T07:27:24Z</time>
      </trkpt>
      <trkpt lat="42.877927" lon="-7.912892">
        <ele>425.643</ele>
        <time>2022-08-22T07:27:28Z</time>
      </trkpt>
      <trkpt lat="42.877947" lon="-7.912955">
        <ele>425.228</ele>
        <time>2022-08-22T07:27:32Z</time>
      </trkpt>
      <trkpt lat="42.877946" lon="-7.913017">
        <ele>424.923</ele>
        <time>2022-08-22T07:27:35Z</time>
      </trkpt>
      <trkpt lat="42.877936" lon="-7.913082">
        <ele>424.317</ele>
        <time>2022-08-22T07:27:39Z</time>
      </trkpt>
      <trkpt lat="42.877922" lon="-7.913146">
        <ele>423.787</ele>
        <time>2022-08-22T07:27:43Z</time>
      </trkpt>
      <trkpt lat="42.877894" lon="-7.913210">
        <ele>423.215</ele>
        <time>2022-08-22T07:27:47Z</time>
      </trkpt>
      <trkpt lat="42.877892" lon="-7.913284">
        <ele>422.709</ele>
        <time>2022-08-22T07:27:51Z</time>
      </trkpt>
      <trkpt lat="42.877899" lon="-7.913360">
        <ele>422.142</ele>
        <time>2022-08-22T07:27:55Z</time>
      </trkpt>
      <trkpt lat="42.877919" lon="-7.913423">
        <ele>421.582</ele>
        <time>2022-08-22T07:27:59Z</time>
      </trkpt>
      <trkpt lat="42.877948" lon="-7.913487">
        <ele>420.832</ele>
        <time>2022-08-22T07:28:03Z</time>
      </trkpt>
      <trkpt lat="42.877976" lon="-7.913551">
        <ele>420.585</ele>
        <time>2022-08-22T07:28:07Z</time>
      </trkpt>
      <trkpt lat="42.878005" lon="-7.913620">
        <ele>420.387</ele>
        <time>2022-08-22T07:28:11Z</time>
      </trkpt>
      <trkpt lat="42.878031" lon="-7.913671">
        <ele>420.269</ele>
        <time>2022-08-22T07:28:14Z</time>
      </trkpt>
      <trkpt lat="42.878060" lon="-7.913741">
        <ele>420.019</ele>
        <time>2022-08-22T07:28:18Z</time>
      </trkpt>
      <trkpt lat="42.878084" lon="-7.913816">
        <ele>420.094</ele>
        <time>2022-08-22T07:28:22Z</time>
      </trkpt>
      <trkpt lat="42.878091" lon="-7.913893">
        <ele>420.079</ele>
        <time>2022-08-22T07:28:26Z</time>
      </trkpt>
      <trkpt lat="42.878105" lon="-7.913966">
        <ele>420.047</ele>
        <time>2022-08-22T07:28:30Z</time>
      </trkpt>
      <trkpt lat="42.878115" lon="-7.914039">
        <ele>420.029</ele>
        <time>2022-08-22T07:28:34Z</time>
      </trkpt>
      <trkpt lat="42.878122" lon="-7.914114">
        <ele>420.121</ele>
        <time>2022-08-22T07:28:38Z</time>
      </trkpt>
      <trkpt lat="42.878152" lon="-7.914178">
        <ele>420.109</ele>
        <time>2022-08-22T07:28:42Z</time>
      </trkpt>
      <trkpt lat="42.878192" lon="-7.914233">
        <ele>420.295</ele>
        <time>2022-08-22T07:28:46Z</time>
      </trkpt>
      <trkpt lat="42.878240" lon="-7.914272">
        <ele>420.415</ele>
        <time>2022-08-22T07:28:50Z</time>
      </trkpt>
      <trkpt lat="42.878291" lon="-7.914288">
        <ele>420.695</ele>
        <time>2022-08-22T07:28:55Z</time>
      </trkpt>
      <trkpt lat="42.878344" lon="-7.914319">
        <ele>420.778</ele>
        <time>2022-08-22T07:29:00Z</time>
      </trkpt>
      <trkpt lat="42.878387" lon="-7.914349">
        <ele>421.090</ele>
        <time>2022-08-22T07:29:04Z</time>
      </trkpt>
      <trkpt lat="42.878438" lon="-7.914381">
        <ele>421.492</ele>
        <time>2022-08-22T07:29:09Z</time>
      </trkpt>
      <trkpt lat="42.878487" lon="-7.914406">
        <ele>421.642</ele>
        <time>2022-08-22T07:29:13Z</time>
      </trkpt>
      <trkpt lat="42.878532" lon="-7.914435">
        <ele>422.257</ele>
        <time>2022-08-22T07:29:17Z</time>
      </trkpt>
      <trkpt lat="42.878584" lon="-7.914460">
        <ele>422.862</ele>
        <time>2022-08-22T07:29:21Z</time>
      </trkpt>
      <trkpt lat="42.878636" lon="-7.914485">
        <ele>423.182</ele>
        <time>2022-08-22T07:29:27Z</time>
      </trkpt>
      <trkpt lat="42.878686" lon="-7.914513">
        <ele>423.343</ele>
        <time>2022-08-22T07:29:32Z</time>
      </trkpt>
      <trkpt lat="42.878731" lon="-7.914560">
        <ele>423.917</ele>
        <time>2022-08-22T07:29:36Z</time>
      </trkpt>
      <trkpt lat="42.878768" lon="-7.914605">
        <ele>424.209</ele>
        <time>2022-08-22T07:29:40Z</time>
      </trkpt>
      <trkpt lat="42.878803" lon="-7.914648">
        <ele>424.459</ele>
        <time>2022-08-22T07:29:45Z</time>
      </trkpt>
      <trkpt lat="42.878838" lon="-7.914712">
        <ele>424.839</ele>
        <time>2022-08-22T07:29:50Z</time>
      </trkpt>
      <trkpt lat="42.878874" lon="-7.914756">
        <ele>425.219</ele>
        <time>2022-08-22T07:29:55Z</time>
      </trkpt>
      <trkpt lat="42.878901" lon="-7.914816">
        <ele>425.722</ele>
        <time>2022-08-22T07:29:59Z</time>
      </trkpt>
      <trkpt lat="42.878937" lon="-7.914869">
        <ele>426.284</ele>
        <time>2022-08-22T07:30:04Z</time>
      </trkpt>
      <trkpt lat="42.878969" lon="-7.914922">
        <ele>426.616</ele>
        <time>2022-08-22T07:30:09Z</time>
      </trkpt>
      <trkpt lat="42.879003" lon="-7.914984">
        <ele>427.126</ele>
        <time>2022-08-22T07:30:15Z</time>
      </trkpt>
      <trkpt lat="42.879028" lon="-7.915041">
        <ele>427.751</ele>
        <time>2022-08-22T07:30:20Z</time>
      </trkpt>
      <trkpt lat="42.879054" lon="-7.915110">
        <ele>428.516</ele>
        <time>2022-08-22T07:30:24Z</time>
      </trkpt>
      <trkpt lat="42.879080" lon="-7.915164">
        <ele>429.284</ele>
        <time>2022-08-22T07:30:28Z</time>
      </trkpt>
      <trkpt lat="42.879085" lon="-7.915230">
        <ele>429.807</ele>
        <time>2022-08-22T07:30:32Z</time>
      </trkpt>
      <trkpt lat="42.879094" lon="-7.915298">
        <ele>430.417</ele>
        <time>2022-08-22T07:30:36Z</time>
      </trkpt>
      <trkpt lat="42.879105" lon="-7.915364">
        <ele>431.109</ele>
        <time>2022-08-22T07:30:41Z</time>
      </trkpt>
      <trkpt lat="42.879109" lon="-7.915426">
        <ele>431.859</ele>
        <time>2022-08-22T07:30:46Z</time>
      </trkpt>
      <trkpt lat="42.879105" lon="-7.915493">
        <ele>432.469</ele>
        <time>2022-08-22T07:30:50Z</time>
      </trkpt>
      <trkpt lat="42.879110" lon="-7.915566">
        <ele>433.029</ele>
        <time>2022-08-22T07:30:54Z</time>
      </trkpt>
      <trkpt lat="42.879112" lon="-7.915637">
        <ele>433.562</ele>
        <time>2022-08-22T07:30:58Z</time>
      </trkpt>
      <trkpt lat="42.879108" lon="-7.915703">
        <ele>433.924</ele>
        <time>2022-08-22T07:31:01Z</time>
      </trkpt>
      <trkpt lat="42.879104" lon="-7.915766">
        <ele>434.226</ele>
        <time>2022-08-22T07:31:04Z</time>
      </trkpt>
      <trkpt lat="42.879103" lon="-7.915831">
        <ele>434.536</ele>
        <time>2022-08-22T07:31:08Z</time>
      </trkpt>
      <trkpt lat="42.879081" lon="-7.915899">
        <ele>434.741</ele>
        <time>2022-08-22T07:31:12Z</time>
      </trkpt>
      <trkpt lat="42.879004" lon="-7.916032">
        <ele>435.266</ele>
        <time>2022-08-22T07:32:34Z</time>
      </trkpt>
      <trkpt lat="42.879050" lon="-7.916046">
        <ele>435.915</ele>
        <time>2022-08-22T07:34:59Z</time>
      </trkpt>
      <trkpt lat="42.879070" lon="-7.916110">
        <ele>436.365</ele>
        <time>2022-08-22T07:35:05Z</time>
      </trkpt>
      <trkpt lat="42.879096" lon="-7.916164">
        <ele>436.511</ele>
        <time>2022-08-22T07:35:10Z</time>
      </trkpt>
      <trkpt lat="42.879117" lon="-7.916227">
        <ele>436.509</ele>
        <time>2022-08-22T07:35:14Z</time>
      </trkpt>
      <trkpt lat="42.879137" lon="-7.916301">
        <ele>436.752</ele>
        <time>2022-08-22T07:35:18Z</time>
      </trkpt>
      <trkpt lat="42.879155" lon="-7.916372">
        <ele>436.732</ele>
        <time>2022-08-22T07:35:22Z</time>
      </trkpt>
      <trkpt lat="42.879171" lon="-7.916431">
        <ele>437.032</ele>
        <time>2022-08-22T07:35:26Z</time>
      </trkpt>
      <trkpt lat="42.879187" lon="-7.916498">
        <ele>437.365</ele>
        <time>2022-08-22T07:35:30Z</time>
      </trkpt>
      <trkpt lat="42.879204" lon="-7.916571">
        <ele>437.517</ele>
        <time>2022-08-22T07:35:35Z</time>
      </trkpt>
      <trkpt lat="42.879228" lon="-7.916639">
        <ele>437.789</ele>
        <time>2022-08-22T07:35:39Z</time>
      </trkpt>
      <trkpt lat="42.879244" lon="-7.916703">
        <ele>438.079</ele>
        <time>2022-08-22T07:35:43Z</time>
      </trkpt>
      <trkpt lat="42.879265" lon="-7.916759">
        <ele>438.354</ele>
        <time>2022-08-22T07:35:47Z</time>
      </trkpt>
      <trkpt lat="42.879279" lon="-7.916826">
        <ele>438.589</ele>
        <time>2022-08-22T07:35:51Z</time>
      </trkpt>
      <trkpt lat="42.879302" lon="-7.916879">
        <ele>438.774</ele>
        <time>2022-08-22T07:35:55Z</time>
      </trkpt>
      <trkpt lat="42.879326" lon="-7.916941">
        <ele>438.956</ele>
        <time>2022-08-22T07:35:58Z</time>
      </trkpt>
      <trkpt lat="42.879348" lon="-7.917015">
        <ele>439.121</ele>
        <time>2022-08-22T07:36:02Z</time>
      </trkpt>
      <trkpt lat="42.879366" lon="-7.917074">
        <ele>439.309</ele>
        <time>2022-08-22T07:36:05Z</time>
      </trkpt>
      <trkpt lat="42.879396" lon="-7.917140">
        <ele>439.568</ele>
        <time>2022-08-22T07:36:08Z</time>
      </trkpt>
      <trkpt lat="42.879420" lon="-7.917201">
        <ele>439.878</ele>
        <time>2022-08-22T07:36:11Z</time>
      </trkpt>
      <trkpt lat="42.879442" lon="-7.917261">
        <ele>440.048</ele>
        <time>2022-08-22T07:36:14Z</time>
      </trkpt>
      <trkpt lat="42.879460" lon="-7.917321">
        <ele>440.251</ele>
        <time>2022-08-22T07:36:17Z</time>
      </trkpt>
      <trkpt lat="42.879483" lon="-7.917387">
        <ele>440.483</ele>
        <time>2022-08-22T07:36:21Z</time>
      </trkpt>
      <trkpt lat="42.879509" lon="-7.917450">
        <ele>440.545</ele>
        <time>2022-08-22T07:36:25Z</time>
      </trkpt>
      <trkpt lat="42.879534" lon="-7.917511">
        <ele>440.615</ele>
        <time>2022-08-22T07:36:29Z</time>
      </trkpt>
      <trkpt lat="42.879561" lon="-7.917572">
        <ele>440.790</ele>
        <time>2022-08-22T07:36:33Z</time>
      </trkpt>
      <trkpt lat="42.879587" lon="-7.917639">
        <ele>440.845</ele>
        <time>2022-08-22T07:36:38Z</time>
      </trkpt>
      <trkpt lat="42.879605" lon="-7.917697">
        <ele>440.997</ele>
        <time>2022-08-22T07:36:42Z</time>
      </trkpt>
      <trkpt lat="42.879633" lon="-7.917767">
        <ele>441.023</ele>
        <time>2022-08-22T07:36:47Z</time>
      </trkpt>
      <trkpt lat="42.879656" lon="-7.917830">
        <ele>441.025</ele>
        <time>2022-08-22T07:36:52Z</time>
      </trkpt>
      <trkpt lat="42.879675" lon="-7.917893">
        <ele>441.109</ele>
        <time>2022-08-22T07:36:56Z</time>
      </trkpt>
      <trkpt lat="42.879698" lon="-7.917969">
        <ele>441.310</ele>
        <time>2022-08-22T07:37:01Z</time>
      </trkpt>
      <trkpt lat="42.879710" lon="-7.918033">
        <ele>441.450</ele>
        <time>2022-08-22T07:37:05Z</time>
      </trkpt>
      <trkpt lat="42.879724" lon="-7.918095">
        <ele>441.580</ele>
        <time>2022-08-22T07:37:09Z</time>
      </trkpt>
      <trkpt lat="42.879748" lon="-7.918160">
        <ele>441.633</ele>
        <time>2022-08-22T07:37:14Z</time>
      </trkpt>
      <trkpt lat="42.879759" lon="-7.918221">
        <ele>441.715</ele>
        <time>2022-08-22T07:37:17Z</time>
      </trkpt>
      <trkpt lat="42.879773" lon="-7.918285">
        <ele>441.857</ele>
        <time>2022-08-22T07:37:21Z</time>
      </trkpt>
      <trkpt lat="42.879782" lon="-7.918357">
        <ele>441.947</ele>
        <time>2022-08-22T07:37:25Z</time>
      </trkpt>
      <trkpt lat="42.879798" lon="-7.918429">
        <ele>441.912</ele>
        <time>2022-08-22T07:37:28Z</time>
      </trkpt>
      <trkpt lat="42.879812" lon="-7.918493">
        <ele>442.047</ele>
        <time>2022-08-22T07:37:31Z</time>
      </trkpt>
      <trkpt lat="42.879818" lon="-7.918563">
        <ele>442.121</ele>
        <time>2022-08-22T07:37:36Z</time>
      </trkpt>
      <trkpt lat="42.879828" lon="-7.918632">
        <ele>442.241</ele>
        <time>2022-08-22T07:37:41Z</time>
      </trkpt>
      <trkpt lat="42.879834" lon="-7.918710">
        <ele>442.205</ele>
        <time>2022-08-22T07:37:46Z</time>
      </trkpt>
      <trkpt lat="42.879842" lon="-7.918780">
        <ele>442.309</ele>
        <time>2022-08-22T07:37:51Z</time>
      </trkpt>
      <trkpt lat="42.879845" lon="-7.918849">
        <ele>442.453</ele>
        <time>2022-08-22T07:37:55Z</time>
      </trkpt>
      <trkpt lat="42.879851" lon="-7.918927">
        <ele>442.583</ele>
        <time>2022-08-22T07:37:59Z</time>
      </trkpt>
      <trkpt lat="42.879863" lon="-7.919009">
        <ele>442.683</ele>
        <time>2022-08-22T07:38:03Z</time>
      </trkpt>
      <trkpt lat="42.879876" lon="-7.919088">
        <ele>442.786</ele>
        <time>2022-08-22T07:38:06Z</time>
      </trkpt>
      <trkpt lat="42.879886" lon="-7.919159">
        <ele>442.998</ele>
        <time>2022-08-22T07:38:09Z</time>
      </trkpt>
      <trkpt lat="42.879895" lon="-7.919241">
        <ele>443.080</ele>
        <time>2022-08-22T07:38:13Z</time>
      </trkpt>
      <trkpt lat="42.879897" lon="-7.919312">
        <ele>443.160</ele>
        <time>2022-08-22T07:38:16Z</time>
      </trkpt>
      <trkpt lat="42.879908" lon="-7.919377">
        <ele>443.385</ele>
        <time>2022-08-22T07:38:20Z</time>
      </trkpt>
      <trkpt lat="42.879910" lon="-7.919449">
        <ele>443.490</ele>
        <time>2022-08-22T07:38:24Z</time>
      </trkpt>
      <trkpt lat="42.879921" lon="-7.919523">
        <ele>443.635</ele>
        <time>2022-08-22T07:38:30Z</time>
      </trkpt>
      <trkpt lat="42.879921" lon="-7.919594">
        <ele>443.786</ele>
        <time>2022-08-22T07:38:34Z</time>
      </trkpt>
      <trkpt lat="42.879928" lon="-7.919655">
        <ele>444.014</ele>
        <time>2022-08-22T07:38:37Z</time>
      </trkpt>
      <trkpt lat="42.879940" lon="-7.919733">
        <ele>444.309</ele>
        <time>2022-08-22T07:38:41Z</time>
      </trkpt>
      <trkpt lat="42.879943" lon="-7.919796">
        <ele>444.564</ele>
        <time>2022-08-22T07:38:44Z</time>
      </trkpt>
      <trkpt lat="42.879953" lon="-7.919863">
        <ele>444.614</ele>
        <time>2022-08-22T07:38:47Z</time>
      </trkpt>
      <trkpt lat="42.879968" lon="-7.919936">
        <ele>444.784</ele>
        <time>2022-08-22T07:38:50Z</time>
      </trkpt>
      <trkpt lat="42.879972" lon="-7.919999">
        <ele>444.977</ele>
        <time>2022-08-22T07:38:53Z</time>
      </trkpt>
      <trkpt lat="42.879982" lon="-7.920065">
        <ele>445.179</ele>
        <time>2022-08-22T07:38:57Z</time>
      </trkpt>
      <trkpt lat="42.879985" lon="-7.920143">
        <ele>445.461</ele>
        <time>2022-08-22T07:39:01Z</time>
      </trkpt>
      <trkpt lat="42.879978" lon="-7.920222">
        <ele>445.821</ele>
        <time>2022-08-22T07:39:07Z</time>
      </trkpt>
      <trkpt lat="42.879973" lon="-7.920291">
        <ele>446.226</ele>
        <time>2022-08-22T07:39:12Z</time>
      </trkpt>
      <trkpt lat="42.879972" lon="-7.920356">
        <ele>447.071</ele>
        <time>2022-08-22T07:39:17Z</time>
      </trkpt>
      <trkpt lat="42.879974" lon="-7.920426">
        <ele>448.138</ele>
        <time>2022-08-22T07:39:21Z</time>
      </trkpt>
      <trkpt lat="42.879981" lon="-7.920491">
        <ele>448.870</ele>
        <time>2022-08-22T07:39:25Z</time>
      </trkpt>
      <trkpt lat="42.879986" lon="-7.920567">
        <ele>449.317</ele>
        <time>2022-08-22T07:39:29Z</time>
      </trkpt>
      <trkpt lat="42.879994" lon="-7.920633">
        <ele>449.709</ele>
        <time>2022-08-22T07:39:33Z</time>
      </trkpt>
      <trkpt lat="42.879998" lon="-7.920711">
        <ele>450.084</ele>
        <time>2022-08-22T07:39:36Z</time>
      </trkpt>
      <trkpt lat="42.880011" lon="-7.920773">
        <ele>450.364</ele>
        <time>2022-08-22T07:39:38Z</time>
      </trkpt>
      <trkpt lat="42.880015" lon="-7.920847">
        <ele>450.694</ele>
        <time>2022-08-22T07:39:41Z</time>
      </trkpt>
      <trkpt lat="42.880016" lon="-7.920918">
        <ele>450.917</ele>
        <time>2022-08-22T07:39:46Z</time>
      </trkpt>
      <trkpt lat="42.880011" lon="-7.920990">
        <ele>451.259</ele>
        <time>2022-08-22T07:39:51Z</time>
      </trkpt>
      <trkpt lat="42.880014" lon="-7.921067">
        <ele>451.771</ele>
        <time>2022-08-22T07:39:55Z</time>
      </trkpt>
      <trkpt lat="42.880004" lon="-7.921151">
        <ele>452.711</ele>
        <time>2022-08-22T07:39:59Z</time>
      </trkpt>
      <trkpt lat="42.880005" lon="-7.921218">
        <ele>453.326</ele>
        <time>2022-08-22T07:40:03Z</time>
      </trkpt>
      <trkpt lat="42.880007" lon="-7.921293">
        <ele>453.961</ele>
        <time>2022-08-22T07:40:08Z</time>
      </trkpt>
      <trkpt lat="42.880004" lon="-7.921360">
        <ele>454.515</ele>
        <time>2022-08-22T07:40:13Z</time>
      </trkpt>
      <trkpt lat="42.880010" lon="-7.921426">
        <ele>454.965</ele>
        <time>2022-08-22T07:40:18Z</time>
      </trkpt>
      <trkpt lat="42.880008" lon="-7.921499">
        <ele>455.711</ele>
        <time>2022-08-22T07:40:22Z</time>
      </trkpt>
      <trkpt lat="42.880014" lon="-7.921568">
        <ele>456.209</ele>
        <time>2022-08-22T07:40:25Z</time>
      </trkpt>
      <trkpt lat="42.880020" lon="-7.921629">
        <ele>456.542</ele>
        <time>2022-08-22T07:40:28Z</time>
      </trkpt>
      <trkpt lat="42.880011" lon="-7.921699">
        <ele>456.892</ele>
        <time>2022-08-22T07:40:32Z</time>
      </trkpt>
      <trkpt lat="42.880005" lon="-7.921771">
        <ele>457.132</ele>
        <time>2022-08-22T07:40:36Z</time>
      </trkpt>
      <trkpt lat="42.879990" lon="-7.921839">
        <ele>457.555</ele>
        <time>2022-08-22T07:40:39Z</time>
      </trkpt>
      <trkpt lat="42.879980" lon="-7.921900">
        <ele>457.967</ele>
        <time>2022-08-22T07:40:42Z</time>
      </trkpt>
      <trkpt lat="42.879963" lon="-7.921962">
        <ele>458.399</ele>
        <time>2022-08-22T07:40:46Z</time>
      </trkpt>
      <trkpt lat="42.879943" lon="-7.922018">
        <ele>458.649</ele>
        <time>2022-08-22T07:40:50Z</time>
      </trkpt>
      <trkpt lat="42.879929" lon="-7.922085">
        <ele>458.934</ele>
        <time>2022-08-22T07:40:54Z</time>
      </trkpt>
      <trkpt lat="42.879918" lon="-7.922147">
        <ele>459.219</ele>
        <time>2022-08-22T07:40:58Z</time>
      </trkpt>
      <trkpt lat="42.879900" lon="-7.922212">
        <ele>459.556</ele>
        <time>2022-08-22T07:41:02Z</time>
      </trkpt>
      <trkpt lat="42.879877" lon="-7.922274">
        <ele>459.859</ele>
        <time>2022-08-22T07:41:06Z</time>
      </trkpt>
      <trkpt lat="42.879852" lon="-7.922330">
        <ele>460.014</ele>
        <time>2022-08-22T07:41:09Z</time>
      </trkpt>
      <trkpt lat="42.879823" lon="-7.922394">
        <ele>460.309</ele>
        <time>2022-08-22T07:41:13Z</time>
      </trkpt>
      <trkpt lat="42.879799" lon="-7.922456">
        <ele>460.656</ele>
        <time>2022-08-22T07:41:17Z</time>
      </trkpt>
      <trkpt lat="42.879780" lon="-7.922521">
        <ele>461.036</ele>
        <time>2022-08-22T07:41:21Z</time>
      </trkpt>
      <trkpt lat="42.879752" lon="-7.922576">
        <ele>461.446</ele>
        <time>2022-08-22T07:41:25Z</time>
      </trkpt>
      <trkpt lat="42.879724" lon="-7.922637">
        <ele>461.899</ele>
        <time>2022-08-22T07:41:29Z</time>
      </trkpt>
      <trkpt lat="42.879704" lon="-7.922700">
        <ele>462.231</ele>
        <time>2022-08-22T07:41:33Z</time>
      </trkpt>
      <trkpt lat="42.879677" lon="-7.922770">
        <ele>462.643</ele>
        <time>2022-08-22T07:41:37Z</time>
      </trkpt>
      <trkpt lat="42.879662" lon="-7.922837">
        <ele>462.993</ele>
        <time>2022-08-22T07:41:41Z</time>
      </trkpt>
      <trkpt lat="42.879644" lon="-7.922914">
        <ele>463.488</ele>
        <time>2022-08-22T07:41:45Z</time>
      </trkpt>
      <trkpt lat="42.879628" lon="-7.922972">
        <ele>463.653</ele>
        <time>2022-08-22T07:41:48Z</time>
      </trkpt>
      <trkpt lat="42.879613" lon="-7.923038">
        <ele>464.082</ele>
        <time>2022-08-22T07:41:52Z</time>
      </trkpt>
      <trkpt lat="42.879589" lon="-7.923092">
        <ele>464.443</ele>
        <time>2022-08-22T07:41:55Z</time>
      </trkpt>
      <trkpt lat="42.879573" lon="-7.923160">
        <ele>464.817</ele>
        <time>2022-08-22T07:41:59Z</time>
      </trkpt>
      <trkpt lat="42.879561" lon="-7.923235">
        <ele>465.209</ele>
        <time>2022-08-22T07:42:03Z</time>
      </trkpt>
      <trkpt lat="42.879553" lon="-7.923305">
        <ele>465.539</ele>
        <time>2022-08-22T07:42:08Z</time>
      </trkpt>
      <trkpt lat="42.879532" lon="-7.923375">
        <ele>465.859</ele>
        <time>2022-08-22T07:42:13Z</time>
      </trkpt>
      <trkpt lat="42.879520" lon="-7.923437">
        <ele>466.339</ele>
        <time>2022-08-22T07:42:17Z</time>
      </trkpt>
      <trkpt lat="42.879508" lon="-7.923501">
        <ele>466.982</ele>
        <time>2022-08-22T07:42:21Z</time>
      </trkpt>
      <trkpt lat="42.879486" lon="-7.923567">
        <ele>467.414</ele>
        <time>2022-08-22T07:42:26Z</time>
      </trkpt>
      <trkpt lat="42.879469" lon="-7.923633">
        <ele>467.736</ele>
        <time>2022-08-22T07:42:30Z</time>
      </trkpt>
      <trkpt lat="42.879457" lon="-7.923696">
        <ele>467.936</ele>
        <time>2022-08-22T07:42:33Z</time>
      </trkpt>
      <trkpt lat="42.879441" lon="-7.923774">
        <ele>468.141</ele>
        <time>2022-08-22T07:42:37Z</time>
      </trkpt>
      <trkpt lat="42.879422" lon="-7.923839">
        <ele>468.426</ele>
        <time>2022-08-22T07:42:40Z</time>
      </trkpt>
      <trkpt lat="42.879408" lon="-7.923912">
        <ele>468.749</ele>
        <time>2022-08-22T07:42:44Z</time>
      </trkpt>
      <trkpt lat="42.879397" lon="-7.923989">
        <ele>469.002</ele>
        <time>2022-08-22T07:42:48Z</time>
      </trkpt>
      <trkpt lat="42.879383" lon="-7.924060">
        <ele>469.222</ele>
        <time>2022-08-22T07:42:52Z</time>
      </trkpt>
      <trkpt lat="42.879370" lon="-7.924131">
        <ele>469.409</ele>
        <time>2022-08-22T07:42:56Z</time>
      </trkpt>
      <trkpt lat="42.879354" lon="-7.924206">
        <ele>469.615</ele>
        <time>2022-08-22T07:43:00Z</time>
      </trkpt>
      <trkpt lat="42.879342" lon="-7.924279">
        <ele>469.925</ele>
        <time>2022-08-22T07:43:04Z</time>
      </trkpt>
      <trkpt lat="42.879331" lon="-7.924350">
        <ele>470.155</ele>
        <time>2022-08-22T07:43:08Z</time>
      </trkpt>
      <trkpt lat="42.879327" lon="-7.924419">
        <ele>470.368</ele>
        <time>2022-08-22T07:43:12Z</time>
      </trkpt>
      <trkpt lat="42.879314" lon="-7.924489">
        <ele>470.590</ele>
        <time>2022-08-22T07:43:16Z</time>
      </trkpt>
      <trkpt lat="42.879309" lon="-7.924554">
        <ele>470.662</ele>
        <time>2022-08-22T07:43:20Z</time>
      </trkpt>
      <trkpt lat="42.879308" lon="-7.924623">
        <ele>470.812</ele>
        <time>2022-08-22T07:43:24Z</time>
      </trkpt>
      <trkpt lat="42.879303" lon="-7.924685">
        <ele>470.917</ele>
        <time>2022-08-22T07:43:28Z</time>
      </trkpt>
      <trkpt lat="42.879299" lon="-7.924754">
        <ele>471.022</ele>
        <time>2022-08-22T07:43:32Z</time>
      </trkpt>
      <trkpt lat="42.879304" lon="-7.924834">
        <ele>471.148</ele>
        <time>2022-08-22T07:43:37Z</time>
      </trkpt>
      <trkpt lat="42.879297" lon="-7.924901">
        <ele>471.261</ele>
        <time>2022-08-22T07:43:41Z</time>
      </trkpt>
      <trkpt lat="42.879290" lon="-7.924970">
        <ele>471.317</ele>
        <time>2022-08-22T07:43:45Z</time>
      </trkpt>
      <trkpt lat="42.879286" lon="-7.925053">
        <ele>471.409</ele>
        <time>2022-08-22T07:43:50Z</time>
      </trkpt>
      <trkpt lat="42.879285" lon="-7.925118">
        <ele>471.595</ele>
        <time>2022-08-22T07:43:54Z</time>
      </trkpt>
      <trkpt lat="42.879284" lon="-7.925181">
        <ele>471.755</ele>
        <time>2022-08-22T07:43:58Z</time>
      </trkpt>
      <trkpt lat="42.879282" lon="-7.925243">
        <ele>471.945</ele>
        <time>2022-08-22T07:44:02Z</time>
      </trkpt>
      <trkpt lat="42.879278" lon="-7.925316">
        <ele>472.158</ele>
        <time>2022-08-22T07:44:05Z</time>
      </trkpt>
      <trkpt lat="42.879281" lon="-7.925382">
        <ele>472.260</ele>
        <time>2022-08-22T07:44:08Z</time>
      </trkpt>
      <trkpt lat="42.879278" lon="-7.925454">
        <ele>472.312</ele>
        <time>2022-08-22T07:44:11Z</time>
      </trkpt>
      <trkpt lat="42.879277" lon="-7.925527">
        <ele>472.492</ele>
        <time>2022-08-22T07:44:14Z</time>
      </trkpt>
      <trkpt lat="42.879275" lon="-7.925592">
        <ele>472.537</ele>
        <time>2022-08-22T07:44:17Z</time>
      </trkpt>
      <trkpt lat="42.879268" lon="-7.925657">
        <ele>472.672</ele>
        <time>2022-08-22T07:44:20Z</time>
      </trkpt>
      <trkpt lat="42.879265" lon="-7.925738">
        <ele>472.771</ele>
        <time>2022-08-22T07:44:24Z</time>
      </trkpt>
      <trkpt lat="42.879258" lon="-7.925800">
        <ele>472.841</ele>
        <time>2022-08-22T07:44:27Z</time>
      </trkpt>
      <trkpt lat="42.879235" lon="-7.925853">
        <ele>473.115</ele>
        <time>2022-08-22T07:44:31Z</time>
      </trkpt>
      <trkpt lat="42.879208" lon="-7.925922">
        <ele>473.509</ele>
        <time>2022-08-22T07:44:35Z</time>
      </trkpt>
      <trkpt lat="42.879192" lon="-7.925981">
        <ele>473.878</ele>
        <time>2022-08-22T07:44:38Z</time>
      </trkpt>
      <trkpt lat="42.879173" lon="-7.926050">
        <ele>473.988</ele>
        <time>2022-08-22T07:44:42Z</time>
      </trkpt>
      <trkpt lat="42.879143" lon="-7.926111">
        <ele>474.078</ele>
        <time>2022-08-22T07:44:46Z</time>
      </trkpt>
      <trkpt lat="42.879118" lon="-7.926168">
        <ele>474.071</ele>
        <time>2022-08-22T07:44:50Z</time>
      </trkpt>
      <trkpt lat="42.879081" lon="-7.926231">
        <ele>474.173</ele>
        <time>2022-08-22T07:44:54Z</time>
      </trkpt>
      <trkpt lat="42.879056" lon="-7.926295">
        <ele>474.285</ele>
        <time>2022-08-22T07:44:58Z</time>
      </trkpt>
      <trkpt lat="42.879026" lon="-7.926361">
        <ele>474.345</ele>
        <time>2022-08-22T07:45:02Z</time>
      </trkpt>
      <trkpt lat="42.879002" lon="-7.926431">
        <ele>474.470</ele>
        <time>2022-08-22T07:45:07Z</time>
      </trkpt>
      <trkpt lat="42.878982" lon="-7.926493">
        <ele>474.535</ele>
        <time>2022-08-22T07:45:10Z</time>
      </trkpt>
      <trkpt lat="42.878964" lon="-7.926555">
        <ele>474.668</ele>
        <time>2022-08-22T07:45:13Z</time>
      </trkpt>
      <trkpt lat="42.878943" lon="-7.926611">
        <ele>474.742</ele>
        <time>2022-08-22T07:45:16Z</time>
      </trkpt>
      <trkpt lat="42.878925" lon="-7.926686">
        <ele>474.826</ele>
        <time>2022-08-22T07:45:20Z</time>
      </trkpt>
      <trkpt lat="42.878896" lon="-7.926754">
        <ele>474.909</ele>
        <time>2022-08-22T07:45:24Z</time>
      </trkpt>
      <trkpt lat="42.878879" lon="-7.926823">
        <ele>475.137</ele>
        <time>2022-08-22T07:45:28Z</time>
      </trkpt>
      <trkpt lat="42.878855" lon="-7.926889">
        <ele>475.427</ele>
        <time>2022-08-22T07:45:33Z</time>
      </trkpt>
      <trkpt lat="42.878844" lon="-7.926950">
        <ele>475.767</ele>
        <time>2022-08-22T07:45:37Z</time>
      </trkpt>
      <trkpt lat="42.878826" lon="-7.927014">
        <ele>476.180</ele>
        <time>2022-08-22T07:45:41Z</time>
      </trkpt>
      <trkpt lat="42.878810" lon="-7.927081">
        <ele>476.422</ele>
        <time>2022-08-22T07:45:45Z</time>
      </trkpt>
      <trkpt lat="42.878796" lon="-7.927146">
        <ele>476.724</ele>
        <time>2022-08-22T07:45:49Z</time>
      </trkpt>
      <trkpt lat="42.878779" lon="-7.927217">
        <ele>477.064</ele>
        <time>2022-08-22T07:45:53Z</time>
      </trkpt>
      <trkpt lat="42.878768" lon="-7.927287">
        <ele>477.249</ele>
        <time>2022-08-22T07:45:57Z</time>
      </trkpt>
      <trkpt lat="42.878765" lon="-7.927356">
        <ele>477.544</ele>
        <time>2022-08-22T07:46:01Z</time>
      </trkpt>
      <trkpt lat="42.878760" lon="-7.927425">
        <ele>477.857</ele>
        <time>2022-08-22T07:46:05Z</time>
      </trkpt>
      <trkpt lat="42.878756" lon="-7.927496">
        <ele>478.100</ele>
        <time>2022-08-22T07:46:09Z</time>
      </trkpt>
      <trkpt lat="42.878755" lon="-7.927573">
        <ele>478.420</ele>
        <time>2022-08-22T07:46:13Z</time>
      </trkpt>
      <trkpt lat="42.878752" lon="-7.927650">
        <ele>478.709</ele>
        <time>2022-08-22T07:46:17Z</time>
      </trkpt>
      <trkpt lat="42.878750" lon="-7.927725">
        <ele>479.276</ele>
        <time>2022-08-22T07:46:21Z</time>
      </trkpt>
      <trkpt lat="42.878755" lon="-7.927800">
        <ele>479.576</ele>
        <time>2022-08-22T07:46:25Z</time>
      </trkpt>
      <trkpt lat="42.878762" lon="-7.927871">
        <ele>479.826</ele>
        <time>2022-08-22T07:46:29Z</time>
      </trkpt>
      <trkpt lat="42.878765" lon="-7.927941">
        <ele>480.229</ele>
        <time>2022-08-22T07:46:33Z</time>
      </trkpt>
      <trkpt lat="42.878769" lon="-7.928016">
        <ele>480.761</ele>
        <time>2022-08-22T07:46:37Z</time>
      </trkpt>
      <trkpt lat="42.878764" lon="-7.928082">
        <ele>480.993</ele>
        <time>2022-08-22T07:46:41Z</time>
      </trkpt>
      <trkpt lat="42.878764" lon="-7.928146">
        <ele>481.313</ele>
        <time>2022-08-22T07:46:45Z</time>
      </trkpt>
      <trkpt lat="42.878763" lon="-7.928212">
        <ele>481.778</ele>
        <time>2022-08-22T07:46:49Z</time>
      </trkpt>
      <trkpt lat="42.878765" lon="-7.928289">
        <ele>482.083</ele>
        <time>2022-08-22T07:46:54Z</time>
      </trkpt>
      <trkpt lat="42.878767" lon="-7.928351">
        <ele>482.384</ele>
        <time>2022-08-22T07:46:58Z</time>
      </trkpt>
      <trkpt lat="42.878763" lon="-7.928428">
        <ele>482.607</ele>
        <time>2022-08-22T07:47:02Z</time>
      </trkpt>
      <trkpt lat="42.878761" lon="-7.928506">
        <ele>482.917</ele>
        <time>2022-08-22T07:47:07Z</time>
      </trkpt>
      <trkpt lat="42.878766" lon="-7.928567">
        <ele>483.209</ele>
        <time>2022-08-22T07:47:11Z</time>
      </trkpt>
      <trkpt lat="42.878772" lon="-7.928635">
        <ele>483.549</ele>
        <time>2022-08-22T07:47:15Z</time>
      </trkpt>
      <trkpt lat="42.878771" lon="-7.928701">
        <ele>483.869</ele>
        <time>2022-08-22T07:47:19Z</time>
      </trkpt>
      <trkpt lat="42.878783" lon="-7.928762">
        <ele>484.119</ele>
        <time>2022-08-22T07:47:23Z</time>
      </trkpt>
      <trkpt lat="42.878790" lon="-7.928834">
        <ele>484.482</ele>
        <time>2022-08-22T07:47:27Z</time>
      </trkpt>
      <trkpt lat="42.878802" lon="-7.928899">
        <ele>484.774</ele>
        <time>2022-08-22T07:47:31Z</time>
      </trkpt>
      <trkpt lat="42.878821" lon="-7.928969">
        <ele>485.136</ele>
        <time>2022-08-22T07:47:36Z</time>
      </trkpt>
      <trkpt lat="42.878841" lon="-7.929025">
        <ele>485.586</ele>
        <time>2022-08-22T07:47:40Z</time>
      </trkpt>
      <trkpt lat="42.878859" lon="-7.929091">
        <ele>486.061</ele>
        <time>2022-08-22T07:47:44Z</time>
      </trkpt>
      <trkpt lat="42.878879" lon="-7.929147">
        <ele>486.546</ele>
        <time>2022-08-22T07:47:48Z</time>
      </trkpt>
      <trkpt lat="42.878902" lon="-7.929214">
        <ele>487.042</ele>
        <time>2022-08-22T07:47:53Z</time>
      </trkpt>
      <trkpt lat="42.878926" lon="-7.929271">
        <ele>487.422</ele>
        <time>2022-08-22T07:47:57Z</time>
      </trkpt>
      <trkpt lat="42.878942" lon="-7.929339">
        <ele>487.814</ele>
        <time>2022-08-22T07:48:02Z</time>
      </trkpt>
      <trkpt lat="42.878964" lon="-7.929406">
        <ele>488.209</ele>
        <time>2022-08-22T07:48:07Z</time>
      </trkpt>
      <trkpt lat="42.878981" lon="-7.929475">
        <ele>488.625</ele>
        <time>2022-08-22T07:48:11Z</time>
      </trkpt>
      <trkpt lat="42.878993" lon="-7.929536">
        <ele>489.175</ele>
        <time>2022-08-22T07:48:15Z</time>
      </trkpt>
      <trkpt lat="42.879013" lon="-7.929606">
        <ele>489.585</ele>
        <time>2022-08-22T07:48:19Z</time>
      </trkpt>
      <trkpt lat="42.879030" lon="-7.929671">
        <ele>489.988</ele>
        <time>2022-08-22T07:48:23Z</time>
      </trkpt>
      <trkpt lat="42.879042" lon="-7.929731">
        <ele>490.350</ele>
        <time>2022-08-22T07:48:27Z</time>
      </trkpt>
      <trkpt lat="42.879061" lon="-7.929790">
        <ele>490.762</ele>
        <time>2022-08-22T07:48:31Z</time>
      </trkpt>
      <trkpt lat="42.879071" lon="-7.929861">
        <ele>491.272</ele>
        <time>2022-08-22T07:48:36Z</time>
      </trkpt>
      <trkpt lat="42.879091" lon="-7.929921">
        <ele>491.797</ele>
        <time>2022-08-22T07:48:40Z</time>
      </trkpt>
      <trkpt lat="42.879100" lon="-7.929984">
        <ele>492.332</ele>
        <time>2022-08-22T07:48:44Z</time>
      </trkpt>
      <trkpt lat="42.879109" lon="-7.930057">
        <ele>493.156</ele>
        <time>2022-08-22T07:48:49Z</time>
      </trkpt>
      <trkpt lat="42.879115" lon="-7.930129">
        <ele>493.859</ele>
        <time>2022-08-22T07:48:54Z</time>
      </trkpt>
      <trkpt lat="42.879124" lon="-7.930191">
        <ele>494.414</ele>
        <time>2022-08-22T07:48:59Z</time>
      </trkpt>
      <trkpt lat="42.879136" lon="-7.930267">
        <ele>495.109</ele>
        <time>2022-08-22T07:49:03Z</time>
      </trkpt>
      <trkpt lat="42.879144" lon="-7.930339">
        <ele>495.836</ele>
        <time>2022-08-22T07:49:06Z</time>
      </trkpt>
      <trkpt lat="42.879145" lon="-7.930414">
        <ele>496.536</ele>
        <time>2022-08-22T07:49:10Z</time>
      </trkpt>
      <trkpt lat="42.879147" lon="-7.930490">
        <ele>497.166</ele>
        <time>2022-08-22T07:49:14Z</time>
      </trkpt>
      <trkpt lat="42.879157" lon="-7.930551">
        <ele>497.779</ele>
        <time>2022-08-22T07:49:18Z</time>
      </trkpt>
      <trkpt lat="42.879159" lon="-7.930621">
        <ele>498.311</ele>
        <time>2022-08-22T07:49:22Z</time>
      </trkpt>
      <trkpt lat="42.879158" lon="-7.930690">
        <ele>498.983</ele>
        <time>2022-08-22T07:49:26Z</time>
      </trkpt>
      <trkpt lat="42.879158" lon="-7.930755">
        <ele>499.653</ele>
        <time>2022-08-22T07:49:30Z</time>
      </trkpt>
      <trkpt lat="42.879158" lon="-7.930826">
        <ele>500.388</ele>
        <time>2022-08-22T07:49:34Z</time>
      </trkpt>
      <trkpt lat="42.879174" lon="-7.930886">
        <ele>501.043</ele>
        <time>2022-08-22T07:49:39Z</time>
      </trkpt>
      <trkpt lat="42.879200" lon="-7.930955">
        <ele>501.652</ele>
        <time>2022-08-22T07:49:44Z</time>
      </trkpt>
      <trkpt lat="42.879232" lon="-7.931018">
        <ele>502.253</ele>
        <time>2022-08-22T07:49:48Z</time>
      </trkpt>
      <trkpt lat="42.879265" lon="-7.931068">
        <ele>502.908</ele>
        <time>2022-08-22T07:49:51Z</time>
      </trkpt>
      <trkpt lat="42.879301" lon="-7.931115">
        <ele>503.609</ele>
        <time>2022-08-22T07:49:55Z</time>
      </trkpt>
      <trkpt lat="42.879334" lon="-7.931168">
        <ele>504.166</ele>
        <time>2022-08-22T07:49:58Z</time>
      </trkpt>
      <trkpt lat="42.879364" lon="-7.931216">
        <ele>504.496</ele>
        <time>2022-08-22T07:50:01Z</time>
      </trkpt>
      <trkpt lat="42.879404" lon="-7.931266">
        <ele>504.666</ele>
        <time>2022-08-22T07:50:05Z</time>
      </trkpt>
      <trkpt lat="42.879450" lon="-7.931305">
        <ele>504.799</ele>
        <time>2022-08-22T07:50:10Z</time>
      </trkpt>
      <trkpt lat="42.879490" lon="-7.931346">
        <ele>504.871</ele>
        <time>2022-08-22T07:50:14Z</time>
      </trkpt>
      <trkpt lat="42.879532" lon="-7.931395">
        <ele>504.963</ele>
        <time>2022-08-22T07:50:18Z</time>
      </trkpt>
      <trkpt lat="42.879569" lon="-7.931435">
        <ele>504.993</ele>
        <time>2022-08-22T07:50:22Z</time>
      </trkpt>
      <trkpt lat="42.879605" lon="-7.931477">
        <ele>505.018</ele>
        <time>2022-08-22T07:50:26Z</time>
      </trkpt>
      <trkpt lat="42.879639" lon="-7.931519">
        <ele>505.183</ele>
        <time>2022-08-22T07:50:30Z</time>
      </trkpt>
      <trkpt lat="42.879681" lon="-7.931562">
        <ele>505.245</ele>
        <time>2022-08-22T07:50:35Z</time>
      </trkpt>
      <trkpt lat="42.879725" lon="-7.931603">
        <ele>505.347</ele>
        <time>2022-08-22T07:50:39Z</time>
      </trkpt>
      <trkpt lat="42.879767" lon="-7.931648">
        <ele>505.411</ele>
        <time>2022-08-22T07:50:43Z</time>
      </trkpt>
      <trkpt lat="42.879807" lon="-7.931688">
        <ele>505.509</ele>
        <time>2022-08-22T07:50:47Z</time>
      </trkpt>
      <trkpt lat="42.879842" lon="-7.931730">
        <ele>505.565</ele>
        <time>2022-08-22T07:50:51Z</time>
      </trkpt>
      <trkpt lat="42.879885" lon="-7.931784">
        <ele>505.525</ele>
        <time>2022-08-22T07:50:56Z</time>
      </trkpt>
      <trkpt lat="42.879923" lon="-7.931823">
        <ele>505.535</ele>
        <time>2022-08-22T07:50:59Z</time>
      </trkpt>
      <trkpt lat="42.879955" lon="-7.931872">
        <ele>505.418</ele>
        <time>2022-08-22T07:51:03Z</time>
      </trkpt>
      <trkpt lat="42.879992" lon="-7.931921">
        <ele>505.170</ele>
        <time>2022-08-22T07:51:07Z</time>
      </trkpt>
      <trkpt lat="42.880029" lon="-7.931976">
        <ele>504.712</ele>
        <time>2022-08-22T07:51:11Z</time>
      </trkpt>
      <trkpt lat="42.880056" lon="-7.932040">
        <ele>504.152</ele>
        <time>2022-08-22T07:51:15Z</time>
      </trkpt>
      <trkpt lat="42.880091" lon="-7.932093">
        <ele>503.427</ele>
        <time>2022-08-22T07:51:19Z</time>
      </trkpt>
      <trkpt lat="42.880123" lon="-7.932144">
        <ele>502.882</ele>
        <time>2022-08-22T07:51:22Z</time>
      </trkpt>
      <trkpt lat="42.880157" lon="-7.932202">
        <ele>502.377</ele>
        <time>2022-08-22T07:51:27Z</time>
      </trkpt>
      <trkpt lat="42.880176" lon="-7.932267">
        <ele>501.961</ele>
        <time>2022-08-22T07:51:31Z</time>
      </trkpt>
      <trkpt lat="42.880195" lon="-7.932336">
        <ele>501.627</ele>
        <time>2022-08-22T07:51:37Z</time>
      </trkpt>
      <trkpt lat="42.880206" lon="-7.932399">
        <ele>501.409</ele>
        <time>2022-08-22T07:51:41Z</time>
      </trkpt>
      <trkpt lat="42.880221" lon="-7.932459">
        <ele>501.248</ele>
        <time>2022-08-22T07:51:44Z</time>
      </trkpt>
      <trkpt lat="42.880236" lon="-7.932530">
        <ele>501.088</ele>
        <time>2022-08-22T07:51:47Z</time>
      </trkpt>
      <trkpt lat="42.880257" lon="-7.932610">
        <ele>500.938</ele>
        <time>2022-08-22T07:51:51Z</time>
      </trkpt>
      <trkpt lat="42.880270" lon="-7.932680">
        <ele>500.841</ele>
        <time>2022-08-22T07:51:55Z</time>
      </trkpt>
      <trkpt lat="42.880287" lon="-7.932748">
        <ele>500.613</ele>
        <time>2022-08-22T07:51:59Z</time>
      </trkpt>
      <trkpt lat="42.880302" lon="-7.932815">
        <ele>500.285</ele>
        <time>2022-08-22T07:52:03Z</time>
      </trkpt>
      <trkpt lat="42.880320" lon="-7.932873">
        <ele>500.185</ele>
        <time>2022-08-22T07:52:06Z</time>
      </trkpt>
      <trkpt lat="42.880339" lon="-7.932946">
        <ele>499.920</ele>
        <time>2022-08-22T07:52:10Z</time>
      </trkpt>
      <trkpt lat="42.880357" lon="-7.933018">
        <ele>499.775</ele>
        <time>2022-08-22T07:52:14Z</time>
      </trkpt>
      <trkpt lat="42.880371" lon="-7.933094">
        <ele>499.564</ele>
        <time>2022-08-22T07:52:18Z</time>
      </trkpt>
      <trkpt lat="42.880389" lon="-7.933152">
        <ele>499.306</ele>
        <time>2022-08-22T07:52:21Z</time>
      </trkpt>
      <trkpt lat="42.880411" lon="-7.933207">
        <ele>499.116</ele>
        <time>2022-08-22T07:52:26Z</time>
      </trkpt>
      <trkpt lat="42.880429" lon="-7.933273">
        <ele>498.909</ele>
        <time>2022-08-22T07:52:31Z</time>
      </trkpt>
      <trkpt lat="42.880444" lon="-7.933339">
        <ele>498.757</ele>
        <time>2022-08-22T07:52:35Z</time>
      </trkpt>
      <trkpt lat="42.880462" lon="-7.933414">
        <ele>498.467</ele>
        <time>2022-08-22T07:52:40Z</time>
      </trkpt>
      <trkpt lat="42.880485" lon="-7.933492">
        <ele>498.117</ele>
        <time>2022-08-22T07:52:44Z</time>
      </trkpt>
      <trkpt lat="42.880502" lon="-7.933568">
        <ele>497.880</ele>
        <time>2022-08-22T07:52:47Z</time>
      </trkpt>
      <trkpt lat="42.880522" lon="-7.933644">
        <ele>497.672</ele>
        <time>2022-08-22T07:52:51Z</time>
      </trkpt>
      <trkpt lat="42.880538" lon="-7.933705">
        <ele>497.594</ele>
        <time>2022-08-22T07:52:54Z</time>
      </trkpt>
      <trkpt lat="42.880557" lon="-7.933783">
        <ele>497.444</ele>
        <time>2022-08-22T07:52:58Z</time>
      </trkpt>
      <trkpt lat="42.880571" lon="-7.933851">
        <ele>497.329</ele>
        <time>2022-08-22T07:53:01Z</time>
      </trkpt>
      <trkpt lat="42.880593" lon="-7.933918">
        <ele>497.234</ele>
        <time>2022-08-22T07:53:05Z</time>
      </trkpt>
      <trkpt lat="42.880603" lon="-7.933981">
        <ele>497.274</ele>
        <time>2022-08-22T07:53:09Z</time>
      </trkpt>
      <trkpt lat="42.880615" lon="-7.934049">
        <ele>497.156</ele>
        <time>2022-08-22T07:53:13Z</time>
      </trkpt>
      <trkpt lat="42.880631" lon="-7.934112">
        <ele>496.921</ele>
        <time>2022-08-22T07:53:18Z</time>
      </trkpt>
      <trkpt lat="42.880663" lon="-7.934172">
        <ele>496.809</ele>
        <time>2022-08-22T07:53:22Z</time>
      </trkpt>
      <trkpt lat="42.880688" lon="-7.934228">
        <ele>496.618</ele>
        <time>2022-08-22T07:53:26Z</time>
      </trkpt>
      <trkpt lat="42.880716" lon="-7.934286">
        <ele>496.418</ele>
        <time>2022-08-22T07:53:29Z</time>
      </trkpt>
      <trkpt lat="42.880752" lon="-7.934347">
        <ele>496.218</ele>
        <time>2022-08-22T07:53:33Z</time>
      </trkpt>
      <trkpt lat="42.880778" lon="-7.934401">
        <ele>496.021</ele>
        <time>2022-08-22T07:53:37Z</time>
      </trkpt>
      <trkpt lat="42.880798" lon="-7.934465">
        <ele>495.663</ele>
        <time>2022-08-22T07:53:41Z</time>
      </trkpt>
      <trkpt lat="42.880804" lon="-7.934536">
        <ele>495.065</ele>
        <time>2022-08-22T07:53:44Z</time>
      </trkpt>
      <trkpt lat="42.880796" lon="-7.934608">
        <ele>494.535</ele>
        <time>2022-08-22T07:53:48Z</time>
      </trkpt>
      <trkpt lat="42.880790" lon="-7.934669">
        <ele>494.080</ele>
        <time>2022-08-22T07:53:52Z</time>
      </trkpt>
      <trkpt lat="42.880793" lon="-7.934734">
        <ele>493.385</ele>
        <time>2022-08-22T07:53:56Z</time>
      </trkpt>
      <trkpt lat="42.880803" lon="-7.934796">
        <ele>492.527</ele>
        <time>2022-08-22T07:54:01Z</time>
      </trkpt>
      <trkpt lat="42.880794" lon="-7.934865">
        <ele>491.668</ele>
        <time>2022-08-22T07:54:06Z</time>
      </trkpt>
      <trkpt lat="42.880785" lon="-7.934943">
        <ele>490.814</ele>
        <time>2022-08-22T07:54:10Z</time>
      </trkpt>
      <trkpt lat="42.880779" lon="-7.935014">
        <ele>490.209</ele>
        <time>2022-08-22T07:54:14Z</time>
      </trkpt>
      <trkpt lat="42.880768" lon="-7.935087">
        <ele>489.673</ele>
        <time>2022-08-22T07:54:18Z</time>
      </trkpt>
      <trkpt lat="42.880756" lon="-7.935163">
        <ele>488.653</ele>
        <time>2022-08-22T07:54:22Z</time>
      </trkpt>
      <trkpt lat="42.880756" lon="-7.935232">
        <ele>488.143</ele>
        <time>2022-08-22T07:54:27Z</time>
      </trkpt>
      <trkpt lat="42.880761" lon="-7.935296">
        <ele>487.956</ele>
        <time>2022-08-22T07:54:31Z</time>
      </trkpt>
      <trkpt lat="42.880763" lon="-7.935366">
        <ele>487.388</ele>
        <time>2022-08-22T07:54:36Z</time>
      </trkpt>
      <trkpt lat="42.880752" lon="-7.935426">
        <ele>486.640</ele>
        <time>2022-08-22T07:54:39Z</time>
      </trkpt>
      <trkpt lat="42.880749" lon="-7.935499">
        <ele>485.840</ele>
        <time>2022-08-22T07:54:43Z</time>
      </trkpt>
      <trkpt lat="42.880739" lon="-7.935569">
        <ele>485.245</ele>
        <time>2022-08-22T07:54:46Z</time>
      </trkpt>
      <trkpt lat="42.880727" lon="-7.935647">
        <ele>484.770</ele>
        <time>2022-08-22T07:54:50Z</time>
      </trkpt>
      <trkpt lat="42.880714" lon="-7.935713">
        <ele>484.318</ele>
        <time>2022-08-22T07:54:54Z</time>
      </trkpt>
      <trkpt lat="42.880710" lon="-7.935783">
        <ele>483.998</ele>
        <time>2022-08-22T07:54:58Z</time>
      </trkpt>
      <trkpt lat="42.880702" lon="-7.935857">
        <ele>483.317</ele>
        <time>2022-08-22T07:55:02Z</time>
      </trkpt>
      <trkpt lat="42.880705" lon="-7.935920">
        <ele>482.609</ele>
        <time>2022-08-22T07:55:06Z</time>
      </trkpt>
      <trkpt lat="42.880699" lon="-7.935997">
        <ele>482.162</ele>
        <time>2022-08-22T07:55:11Z</time>
      </trkpt>
      <trkpt lat="42.880692" lon="-7.936064">
        <ele>481.512</ele>
        <time>2022-08-22T07:55:15Z</time>
      </trkpt>
      <trkpt lat="42.880689" lon="-7.936131">
        <ele>481.022</ele>
        <time>2022-08-22T07:55:19Z</time>
      </trkpt>
      <trkpt lat="42.880690" lon="-7.936195">
        <ele>480.685</ele>
        <time>2022-08-22T07:55:24Z</time>
      </trkpt>
      <trkpt lat="42.880672" lon="-7.936269">
        <ele>480.227</ele>
        <time>2022-08-22T07:55:28Z</time>
      </trkpt>
      <trkpt lat="42.880651" lon="-7.936338">
        <ele>479.849</ele>
        <time>2022-08-22T07:55:32Z</time>
      </trkpt>
      <trkpt lat="42.880635" lon="-7.936398">
        <ele>479.469</ele>
        <time>2022-08-22T07:55:35Z</time>
      </trkpt>
      <trkpt lat="42.880627" lon="-7.936461">
        <ele>479.084</ele>
        <time>2022-08-22T07:55:38Z</time>
      </trkpt>
      <trkpt lat="42.880612" lon="-7.936527">
        <ele>478.759</ele>
        <time>2022-08-22T07:55:43Z</time>
      </trkpt>
      <trkpt lat="42.880598" lon="-7.936595">
        <ele>478.583</ele>
        <time>2022-08-22T07:55:47Z</time>
      </trkpt>
      <trkpt lat="42.880581" lon="-7.936653">
        <ele>478.225</ele>
        <time>2022-08-22T07:55:50Z</time>
      </trkpt>
      <trkpt lat="42.880555" lon="-7.936704">
        <ele>477.917</ele>
        <time>2022-08-22T07:55:53Z</time>
      </trkpt>
      <trkpt lat="42.880529" lon="-7.936756">
        <ele>477.609</ele>
        <time>2022-08-22T07:55:56Z</time>
      </trkpt>
      <trkpt lat="42.880514" lon="-7.936818">
        <ele>477.239</ele>
        <time>2022-08-22T07:56:00Z</time>
      </trkpt>
      <trkpt lat="42.880495" lon="-7.936886">
        <ele>476.859</ele>
        <time>2022-08-22T07:56:05Z</time>
      </trkpt>
      <trkpt lat="42.880492" lon="-7.936962">
        <ele>476.489</ele>
        <time>2022-08-22T07:56:10Z</time>
      </trkpt>
      <trkpt lat="42.880513" lon="-7.937017">
        <ele>475.972</ele>
        <time>2022-08-22T07:56:16Z</time>
      </trkpt>
      <trkpt lat="42.880532" lon="-7.937078">
        <ele>475.334</ele>
        <time>2022-08-22T07:56:19Z</time>
      </trkpt>
      <trkpt lat="42.880562" lon="-7.937139">
        <ele>474.326</ele>
        <time>2022-08-22T07:56:24Z</time>
      </trkpt>
      <trkpt lat="42.880603" lon="-7.937195">
        <ele>473.276</ele>
        <time>2022-08-22T07:56:32Z</time>
      </trkpt>
      <trkpt lat="42.880629" lon="-7.937250">
        <ele>472.351</ele>
        <time>2022-08-22T07:56:35Z</time>
      </trkpt>
      <trkpt lat="42.880651" lon="-7.937307">
        <ele>471.466</ele>
        <time>2022-08-22T07:56:40Z</time>
      </trkpt>
      <trkpt lat="42.880684" lon="-7.937377">
        <ele>470.998</ele>
        <time>2022-08-22T07:56:44Z</time>
      </trkpt>
      <trkpt lat="42.880712" lon="-7.937436">
        <ele>470.615</ele>
        <time>2022-08-22T07:56:48Z</time>
      </trkpt>
      <trkpt lat="42.880734" lon="-7.937498">
        <ele>470.226</ele>
        <time>2022-08-22T07:56:52Z</time>
      </trkpt>
      <trkpt lat="42.880759" lon="-7.937553">
        <ele>469.809</ele>
        <time>2022-08-22T07:56:55Z</time>
      </trkpt>
      <trkpt lat="42.880781" lon="-7.937612">
        <ele>469.520</ele>
        <time>2022-08-22T07:56:58Z</time>
      </trkpt>
      <trkpt lat="42.880806" lon="-7.937675">
        <ele>469.340</ele>
        <time>2022-08-22T07:57:02Z</time>
      </trkpt>
      <trkpt lat="42.880845" lon="-7.937729">
        <ele>469.250</ele>
        <time>2022-08-22T07:57:06Z</time>
      </trkpt>
      <trkpt lat="42.880880" lon="-7.937781">
        <ele>469.033</ele>
        <time>2022-08-22T07:57:11Z</time>
      </trkpt>
      <trkpt lat="42.880906" lon="-7.937839">
        <ele>468.965</ele>
        <time>2022-08-22T07:57:15Z</time>
      </trkpt>
      <trkpt lat="42.880930" lon="-7.937895">
        <ele>468.857</ele>
        <time>2022-08-22T07:57:20Z</time>
      </trkpt>
      <trkpt lat="42.880961" lon="-7.937955">
        <ele>468.717</ele>
        <time>2022-08-22T07:57:24Z</time>
      </trkpt>
      <trkpt lat="42.880993" lon="-7.938016">
        <ele>468.622</ele>
        <time>2022-08-22T07:57:27Z</time>
      </trkpt>
      <trkpt lat="42.881021" lon="-7.938067">
        <ele>468.527</ele>
        <time>2022-08-22T07:57:30Z</time>
      </trkpt>
      <trkpt lat="42.881044" lon="-7.938122">
        <ele>468.461</ele>
        <time>2022-08-22T07:57:33Z</time>
      </trkpt>
      <trkpt lat="42.881069" lon="-7.938174">
        <ele>468.321</ele>
        <time>2022-08-22T07:57:36Z</time>
      </trkpt>
      <trkpt lat="42.881103" lon="-7.938238">
        <ele>468.313</ele>
        <time>2022-08-22T07:57:40Z</time>
      </trkpt>
      <trkpt lat="42.881133" lon="-7.938304">
        <ele>468.309</ele>
        <time>2022-08-22T07:57:44Z</time>
      </trkpt>
      <trkpt lat="42.881164" lon="-7.938371">
        <ele>468.387</ele>
        <time>2022-08-22T07:57:48Z</time>
      </trkpt>
      <trkpt lat="42.881193" lon="-7.938435">
        <ele>468.247</ele>
        <time>2022-08-22T07:57:52Z</time>
      </trkpt>
      <trkpt lat="42.881209" lon="-7.938511">
        <ele>468.297</ele>
        <time>2022-08-22T07:57:56Z</time>
      </trkpt>
      <trkpt lat="42.881214" lon="-7.938586">
        <ele>468.280</ele>
        <time>2022-08-22T07:58:00Z</time>
      </trkpt>
      <trkpt lat="42.881210" lon="-7.938653">
        <ele>468.252</ele>
        <time>2022-08-22T07:58:05Z</time>
      </trkpt>
      <trkpt lat="42.881203" lon="-7.938720">
        <ele>468.234</ele>
        <time>2022-08-22T07:58:09Z</time>
      </trkpt>
      <trkpt lat="42.881204" lon="-7.938782">
        <ele>468.194</ele>
        <time>2022-08-22T07:58:13Z</time>
      </trkpt>
      <trkpt lat="42.881193" lon="-7.938843">
        <ele>468.199</ele>
        <time>2022-08-22T07:58:17Z</time>
      </trkpt>
      <trkpt lat="42.881188" lon="-7.938907">
        <ele>468.034</ele>
        <time>2022-08-22T07:58:21Z</time>
      </trkpt>
      <trkpt lat="42.881176" lon="-7.938974">
        <ele>467.713</ele>
        <time>2022-08-22T07:58:25Z</time>
      </trkpt>
      <trkpt lat="42.881173" lon="-7.939042">
        <ele>467.243</ele>
        <time>2022-08-22T07:58:30Z</time>
      </trkpt>
      <trkpt lat="42.881162" lon="-7.939112">
        <ele>466.707</ele>
        <time>2022-08-22T07:58:35Z</time>
      </trkpt>
      <trkpt lat="42.881147" lon="-7.939177">
        <ele>466.109</ele>
        <time>2022-08-22T07:58:39Z</time>
      </trkpt>
      <trkpt lat="42.881136" lon="-7.939242">
        <ele>465.482</ele>
        <time>2022-08-22T07:58:43Z</time>
      </trkpt>
      <trkpt lat="42.881116" lon="-7.939313">
        <ele>464.742</ele>
        <time>2022-08-22T07:58:48Z</time>
      </trkpt>
      <trkpt lat="42.881109" lon="-7.939379">
        <ele>464.072</ele>
        <time>2022-08-22T07:58:52Z</time>
      </trkpt>
      <trkpt lat="42.881111" lon="-7.939443">
        <ele>463.265</ele>
        <time>2022-08-22T07:58:56Z</time>
      </trkpt>
      <trkpt lat="42.881101" lon="-7.939512">
        <ele>462.567</ele>
        <time>2022-08-22T07:59:00Z</time>
      </trkpt>
      <trkpt lat="42.881094" lon="-7.939583">
        <ele>462.029</ele>
        <time>2022-08-22T07:59:04Z</time>
      </trkpt>
      <trkpt lat="42.881084" lon="-7.939644">
        <ele>461.699</ele>
        <time>2022-08-22T07:59:07Z</time>
      </trkpt>
      <trkpt lat="42.881086" lon="-7.939711">
        <ele>461.334</ele>
        <time>2022-08-22T07:59:11Z</time>
      </trkpt>
      <trkpt lat="42.881075" lon="-7.939777">
        <ele>461.159</ele>
        <time>2022-08-22T07:59:15Z</time>
      </trkpt>
      <trkpt lat="42.881070" lon="-7.939841">
        <ele>460.917</ele>
        <time>2022-08-22T07:59:20Z</time>
      </trkpt>
      <trkpt lat="42.881049" lon="-7.939924">
        <ele>460.687</ele>
        <time>2022-08-22T07:59:24Z</time>
      </trkpt>
      <trkpt lat="42.881040" lon="-7.940000">
        <ele>460.315</ele>
        <time>2022-08-22T07:59:28Z</time>
      </trkpt>
      <trkpt lat="42.881032" lon="-7.940076">
        <ele>459.909</ele>
        <time>2022-08-22T07:59:32Z</time>
      </trkpt>
      <trkpt lat="42.881022" lon="-7.940145">
        <ele>459.692</ele>
        <time>2022-08-22T07:59:36Z</time>
      </trkpt>
      <trkpt lat="42.881022" lon="-7.940213">
        <ele>459.342</ele>
        <time>2022-08-22T07:59:40Z</time>
      </trkpt>
      <trkpt lat="42.881008" lon="-7.940281">
        <ele>459.192</ele>
        <time>2022-08-22T07:59:45Z</time>
      </trkpt>
      <trkpt lat="42.880991" lon="-7.940356">
        <ele>458.765</ele>
        <time>2022-08-22T07:59:49Z</time>
      </trkpt>
      <trkpt lat="42.880975" lon="-7.940427">
        <ele>458.377</ele>
        <time>2022-08-22T07:59:53Z</time>
      </trkpt>
      <trkpt lat="42.880952" lon="-7.940485">
        <ele>458.029</ele>
        <time>2022-08-22T07:59:57Z</time>
      </trkpt>
      <trkpt lat="42.880933" lon="-7.940559">
        <ele>457.649</ele>
        <time>2022-08-22T08:00:01Z</time>
      </trkpt>
      <trkpt lat="42.880909" lon="-7.940629">
        <ele>457.414</ele>
        <time>2022-08-22T08:00:05Z</time>
      </trkpt>
      <trkpt lat="42.880895" lon="-7.940698">
        <ele>457.189</ele>
        <time>2022-08-22T08:00:09Z</time>
      </trkpt>
      <trkpt lat="42.880890" lon="-7.940767">
        <ele>456.955</ele>
        <time>2022-08-22T08:00:13Z</time>
      </trkpt>
      <trkpt lat="42.880872" lon="-7.940826">
        <ele>456.507</ele>
        <time>2022-08-22T08:00:17Z</time>
      </trkpt>
      <trkpt lat="42.880850" lon="-7.940894">
        <ele>456.117</ele>
        <time>2022-08-22T08:00:21Z</time>
      </trkpt>
      <trkpt lat="42.880833" lon="-7.940963">
        <ele>455.809</ele>
        <time>2022-08-22T08:00:25Z</time>
      </trkpt>
      <trkpt lat="42.880805" lon="-7.941033">
        <ele>455.576</ele>
        <time>2022-08-22T08:00:29Z</time>
      </trkpt>
      <trkpt lat="42.880776" lon="-7.941099">
        <ele>455.046</ele>
        <time>2022-08-22T08:00:33Z</time>
      </trkpt>
      <trkpt lat="42.880763" lon="-7.941160">
        <ele>454.816</ele>
        <time>2022-08-22T08:00:37Z</time>
      </trkpt>
      <trkpt lat="42.880741" lon="-7.941232">
        <ele>454.159</ele>
        <time>2022-08-22T08:00:41Z</time>
      </trkpt>
      <trkpt lat="42.880725" lon="-7.941300">
        <ele>453.481</ele>
        <time>2022-08-22T08:00:45Z</time>
      </trkpt>
      <trkpt lat="42.880709" lon="-7.941369">
        <ele>453.133</ele>
        <time>2022-08-22T08:00:50Z</time>
      </trkpt>
      <trkpt lat="42.880693" lon="-7.941442">
        <ele>452.693</ele>
        <time>2022-08-22T08:00:54Z</time>
      </trkpt>
      <trkpt lat="42.880674" lon="-7.941512">
        <ele>451.828</ele>
        <time>2022-08-22T08:00:58Z</time>
      </trkpt>
      <trkpt lat="42.880661" lon="-7.941583">
        <ele>451.413</ele>
        <time>2022-08-22T08:01:02Z</time>
      </trkpt>
      <trkpt lat="42.880651" lon="-7.941651">
        <ele>451.281</ele>
        <time>2022-08-22T08:01:06Z</time>
      </trkpt>
      <trkpt lat="42.880637" lon="-7.941724">
        <ele>450.461</ele>
        <time>2022-08-22T08:01:10Z</time>
      </trkpt>
      <trkpt lat="42.880625" lon="-7.941794">
        <ele>450.017</ele>
        <time>2022-08-22T08:01:14Z</time>
      </trkpt>
      <trkpt lat="42.880615" lon="-7.941862">
        <ele>449.209</ele>
        <time>2022-08-22T08:01:18Z</time>
      </trkpt>
      <trkpt lat="42.880600" lon="-7.941929">
        <ele>448.489</ele>
        <time>2022-08-22T08:01:22Z</time>
      </trkpt>
      <trkpt lat="42.880587" lon="-7.941991">
        <ele>447.739</ele>
        <time>2022-08-22T08:01:26Z</time>
      </trkpt>
      <trkpt lat="42.880567" lon="-7.942054">
        <ele>447.049</ele>
        <time>2022-08-22T08:01:30Z</time>
      </trkpt>
      <trkpt lat="42.880546" lon="-7.942123">
        <ele>446.292</ele>
        <time>2022-08-22T08:01:34Z</time>
      </trkpt>
      <trkpt lat="42.880521" lon="-7.942183">
        <ele>445.494</ele>
        <time>2022-08-22T08:01:39Z</time>
      </trkpt>
      <trkpt lat="42.880495" lon="-7.942239">
        <ele>444.866</ele>
        <time>2022-08-22T08:01:43Z</time>
      </trkpt>
      <trkpt lat="42.880462" lon="-7.942293">
        <ele>444.266</ele>
        <time>2022-08-22T08:01:47Z</time>
      </trkpt>
      <trkpt lat="42.880428" lon="-7.942355">
        <ele>443.691</ele>
        <time>2022-08-22T08:01:52Z</time>
      </trkpt>
      <trkpt lat="42.880401" lon="-7.942407">
        <ele>443.176</ele>
        <time>2022-08-22T08:01:56Z</time>
      </trkpt>
      <trkpt lat="42.880378" lon="-7.942468">
        <ele>442.549</ele>
        <time>2022-08-22T08:02:00Z</time>
      </trkpt>
      <trkpt lat="42.880350" lon="-7.942531">
        <ele>441.802</ele>
        <time>2022-08-22T08:02:04Z</time>
      </trkpt>
      <trkpt lat="42.880321" lon="-7.942591">
        <ele>441.122</ele>
        <time>2022-08-22T08:02:08Z</time>
      </trkpt>
      <trkpt lat="42.880298" lon="-7.942645">
        <ele>440.309</ele>
        <time>2022-08-22T08:02:11Z</time>
      </trkpt>
      <trkpt lat="42.880284" lon="-7.942705">
        <ele>439.415</ele>
        <time>2022-08-22T08:02:15Z</time>
      </trkpt>
      <trkpt lat="42.880263" lon="-7.942768">
        <ele>438.615</ele>
        <time>2022-08-22T08:02:19Z</time>
      </trkpt>
      <trkpt lat="42.880256" lon="-7.942833">
        <ele>437.865</ele>
        <time>2022-08-22T08:02:23Z</time>
      </trkpt>
      <trkpt lat="42.880272" lon="-7.942905">
        <ele>437.058</ele>
        <time>2022-08-22T08:02:28Z</time>
      </trkpt>
      <trkpt lat="42.880280" lon="-7.942971">
        <ele>436.330</ele>
        <time>2022-08-22T08:02:33Z</time>
      </trkpt>
      <trkpt lat="42.880293" lon="-7.943036">
        <ele>435.662</ele>
        <time>2022-08-22T08:02:37Z</time>
      </trkpt>
      <trkpt lat="42.880321" lon="-7.943099">
        <ele>434.842</ele>
        <time>2022-08-22T08:02:42Z</time>
      </trkpt>
      <trkpt lat="42.880334" lon="-7.943161">
        <ele>434.287</ele>
        <time>2022-08-22T08:02:46Z</time>
      </trkpt>
      <trkpt lat="42.880348" lon="-7.943224">
        <ele>433.762</ele>
        <time>2022-08-22T08:02:50Z</time>
      </trkpt>
      <trkpt lat="42.880368" lon="-7.943291">
        <ele>433.341</ele>
        <time>2022-08-22T08:02:55Z</time>
      </trkpt>
      <trkpt lat="42.880388" lon="-7.943356">
        <ele>433.081</ele>
        <time>2022-08-22T08:02:58Z</time>
      </trkpt>
      <trkpt lat="42.880411" lon="-7.943429">
        <ele>432.709</ele>
        <time>2022-08-22T08:03:03Z</time>
      </trkpt>
      <trkpt lat="42.880431" lon="-7.943508">
        <ele>432.409</ele>
        <time>2022-08-22T08:03:07Z</time>
      </trkpt>
      <trkpt lat="42.880457" lon="-7.943563">
        <ele>432.025</ele>
        <time>2022-08-22T08:03:11Z</time>
      </trkpt>
      <trkpt lat="42.880476" lon="-7.943619">
        <ele>431.915</ele>
        <time>2022-08-22T08:03:15Z</time>
      </trkpt>
      <trkpt lat="42.880497" lon="-7.943684">
        <ele>431.725</ele>
        <time>2022-08-22T08:03:19Z</time>
      </trkpt>
      <trkpt lat="42.880515" lon="-7.943741">
        <ele>431.528</ele>
        <time>2022-08-22T08:03:23Z</time>
      </trkpt>
      <trkpt lat="42.880535" lon="-7.943805">
        <ele>431.390</ele>
        <time>2022-08-22T08:03:27Z</time>
      </trkpt>
      <trkpt lat="42.880553" lon="-7.943863">
        <ele>431.162</ele>
        <time>2022-08-22T08:03:31Z</time>
      </trkpt>
      <trkpt lat="42.880583" lon="-7.943929">
        <ele>430.992</ele>
        <time>2022-08-22T08:03:35Z</time>
      </trkpt>
      <trkpt lat="42.880608" lon="-7.943991">
        <ele>430.777</ele>
        <time>2022-08-22T08:03:38Z</time>
      </trkpt>
      <trkpt lat="42.880624" lon="-7.944056">
        <ele>430.532</ele>
        <time>2022-08-22T08:03:42Z</time>
      </trkpt>
      <trkpt lat="42.880632" lon="-7.944120">
        <ele>430.331</ele>
        <time>2022-08-22T08:03:45Z</time>
      </trkpt>
      <trkpt lat="42.880639" lon="-7.944183">
        <ele>430.261</ele>
        <time>2022-08-22T08:03:48Z</time>
      </trkpt>
      <trkpt lat="42.880647" lon="-7.944254">
        <ele>430.207</ele>
        <time>2022-08-22T08:03:52Z</time>
      </trkpt>
      <trkpt lat="42.880646" lon="-7.944319">
        <ele>430.109</ele>
        <time>2022-08-22T08:03:56Z</time>
      </trkpt>
      <trkpt lat="42.880643" lon="-7.944380">
        <ele>430.164</ele>
        <time>2022-08-22T08:03:59Z</time>
      </trkpt>
      <trkpt lat="42.880642" lon="-7.944448">
        <ele>430.274</ele>
        <time>2022-08-22T08:04:04Z</time>
      </trkpt>
      <trkpt lat="42.880621" lon="-7.944515">
        <ele>430.314</ele>
        <time>2022-08-22T08:04:09Z</time>
      </trkpt>
      <trkpt lat="42.880611" lon="-7.944582">
        <ele>430.497</ele>
        <time>2022-08-22T08:04:13Z</time>
      </trkpt>
      <trkpt lat="42.880615" lon="-7.944645">
        <ele>430.689</ele>
        <time>2022-08-22T08:04:16Z</time>
      </trkpt>
      <trkpt lat="42.880616" lon="-7.944724">
        <ele>430.811</ele>
        <time>2022-08-22T08:04:20Z</time>
      </trkpt>
      <trkpt lat="42.880609" lon="-7.944801">
        <ele>431.041</ele>
        <time>2022-08-22T08:04:25Z</time>
      </trkpt>
      <trkpt lat="42.880621" lon="-7.944882">
        <ele>431.346</ele>
        <time>2022-08-22T08:04:29Z</time>
      </trkpt>
      <trkpt lat="42.880645" lon="-7.944936">
        <ele>431.481</ele>
        <time>2022-08-22T08:04:32Z</time>
      </trkpt>
      <trkpt lat="42.880662" lon="-7.944995">
        <ele>431.695</ele>
        <time>2022-08-22T08:04:36Z</time>
      </trkpt>
      <trkpt lat="42.880690" lon="-7.945045">
        <ele>431.849</ele>
        <time>2022-08-22T08:04:40Z</time>
      </trkpt>
      <trkpt lat="42.880732" lon="-7.945092">
        <ele>432.023</ele>
        <time>2022-08-22T08:04:45Z</time>
      </trkpt>
      <trkpt lat="42.880765" lon="-7.945147">
        <ele>432.309</ele>
        <time>2022-08-22T08:04:50Z</time>
      </trkpt>
      <trkpt lat="42.880789" lon="-7.945203">
        <ele>432.830</ele>
        <time>2022-08-22T08:04:54Z</time>
      </trkpt>
      <trkpt lat="42.880816" lon="-7.945260">
        <ele>433.370</ele>
        <time>2022-08-22T08:04:58Z</time>
      </trkpt>
      <trkpt lat="42.880851" lon="-7.945317">
        <ele>433.830</ele>
        <time>2022-08-22T08:05:02Z</time>
      </trkpt>
      <trkpt lat="42.880879" lon="-7.945370">
        <ele>434.383</ele>
        <time>2022-08-22T08:05:06Z</time>
      </trkpt>
      <trkpt lat="42.880908" lon="-7.945432">
        <ele>434.855</ele>
        <time>2022-08-22T08:05:10Z</time>
      </trkpt>
      <trkpt lat="42.880937" lon="-7.945484">
        <ele>435.357</ele>
        <time>2022-08-22T08:05:13Z</time>
      </trkpt>
      <trkpt lat="42.880971" lon="-7.945532">
        <ele>435.797</ele>
        <time>2022-08-22T08:05:17Z</time>
      </trkpt>
      <trkpt lat="42.881001" lon="-7.945578">
        <ele>435.962</ele>
        <time>2022-08-22T08:05:21Z</time>
      </trkpt>
      <trkpt lat="42.881035" lon="-7.945623">
        <ele>436.097</ele>
        <time>2022-08-22T08:05:25Z</time>
      </trkpt>
      <trkpt lat="42.881068" lon="-7.945665">
        <ele>436.255</ele>
        <time>2022-08-22T08:05:29Z</time>
      </trkpt>
      <trkpt lat="42.881111" lon="-7.945711">
        <ele>436.407</ele>
        <time>2022-08-22T08:05:33Z</time>
      </trkpt>
      <trkpt lat="42.881152" lon="-7.945763">
        <ele>436.617</ele>
        <time>2022-08-22T08:05:37Z</time>
      </trkpt>
      <trkpt lat="42.881199" lon="-7.945795">
        <ele>436.909</ele>
        <time>2022-08-22T08:05:41Z</time>
      </trkpt>
      <trkpt lat="42.881247" lon="-7.945827">
        <ele>437.276</ele>
        <time>2022-08-22T08:05:44Z</time>
      </trkpt>
      <trkpt lat="42.881287" lon="-7.945858">
        <ele>437.696</ele>
        <time>2022-08-22T08:05:47Z</time>
      </trkpt>
      <trkpt lat="42.881325" lon="-7.945909">
        <ele>438.066</ele>
        <time>2022-08-22T08:05:51Z</time>
      </trkpt>
      <trkpt lat="42.881364" lon="-7.945970">
        <ele>438.459</ele>
        <time>2022-08-22T08:05:56Z</time>
      </trkpt>
      <trkpt lat="42.881398" lon="-7.946021">
        <ele>438.941</ele>
        <time>2022-08-22T08:06:00Z</time>
      </trkpt>
      <trkpt lat="42.881434" lon="-7.946061">
        <ele>439.623</ele>
        <time>2022-08-22T08:06:04Z</time>
      </trkpt>
      <trkpt lat="42.881463" lon="-7.946121">
        <ele>440.483</ele>
        <time>2022-08-22T08:06:08Z</time>
      </trkpt>
      <trkpt lat="42.881498" lon="-7.946175">
        <ele>441.088</ele>
        <time>2022-08-22T08:06:13Z</time>
      </trkpt>
      <trkpt lat="42.881531" lon="-7.946232">
        <ele>441.653</ele>
        <time>2022-08-22T08:06:17Z</time>
      </trkpt>
      <trkpt lat="42.881566" lon="-7.946282">
        <ele>442.212</ele>
        <time>2022-08-22T08:06:21Z</time>
      </trkpt>
      <trkpt lat="42.881603" lon="-7.946328">
        <ele>442.732</ele>
        <time>2022-08-22T08:06:25Z</time>
      </trkpt>
      <trkpt lat="42.881631" lon="-7.946398">
        <ele>443.005</ele>
        <time>2022-08-22T08:06:30Z</time>
      </trkpt>
      <trkpt lat="42.881656" lon="-7.946471">
        <ele>443.409</ele>
        <time>2022-08-22T08:06:34Z</time>
      </trkpt>
      <trkpt lat="42.881669" lon="-7.946536">
        <ele>443.632</ele>
        <time>2022-08-22T08:06:38Z</time>
      </trkpt>
      <trkpt lat="42.881686" lon="-7.946605">
        <ele>444.022</ele>
        <time>2022-08-22T08:06:43Z</time>
      </trkpt>
      <trkpt lat="42.881705" lon="-7.946664">
        <ele>444.162</ele>
        <time>2022-08-22T08:06:46Z</time>
      </trkpt>
      <trkpt lat="42.881722" lon="-7.946739">
        <ele>444.265</ele>
        <time>2022-08-22T08:06:51Z</time>
      </trkpt>
      <trkpt lat="42.881736" lon="-7.946811">
        <ele>444.347</ele>
        <time>2022-08-22T08:06:55Z</time>
      </trkpt>
      <trkpt lat="42.881741" lon="-7.946882">
        <ele>444.499</ele>
        <time>2022-08-22T08:07:00Z</time>
      </trkpt>
      <trkpt lat="42.881751" lon="-7.946950">
        <ele>444.529</ele>
        <time>2022-08-22T08:07:04Z</time>
      </trkpt>
      <trkpt lat="42.881767" lon="-7.947016">
        <ele>444.674</ele>
        <time>2022-08-22T08:07:07Z</time>
      </trkpt>
      <trkpt lat="42.881781" lon="-7.947099">
        <ele>444.769</ele>
        <time>2022-08-22T08:07:11Z</time>
      </trkpt>
      <trkpt lat="42.881789" lon="-7.947170">
        <ele>444.714</ele>
        <time>2022-08-22T08:07:15Z</time>
      </trkpt>
      <trkpt lat="42.881795" lon="-7.947237">
        <ele>444.854</ele>
        <time>2022-08-22T08:07:20Z</time>
      </trkpt>
      <trkpt lat="42.881802" lon="-7.947301">
        <ele>444.909</ele>
        <time>2022-08-22T08:07:24Z</time>
      </trkpt>
      <trkpt lat="42.881804" lon="-7.947366">
        <ele>445.009</ele>
        <time>2022-08-22T08:07:27Z</time>
      </trkpt>
      <trkpt lat="42.881805" lon="-7.947432">
        <ele>445.132</ele>
        <time>2022-08-22T08:07:30Z</time>
      </trkpt>
      <trkpt lat="42.881805" lon="-7.947500">
        <ele>445.262</ele>
        <time>2022-08-22T08:07:33Z</time>
      </trkpt>
      <trkpt lat="42.881801" lon="-7.947565">
        <ele>445.352</ele>
        <time>2022-08-22T08:07:36Z</time>
      </trkpt>
      <trkpt lat="42.881803" lon="-7.947627">
        <ele>445.455</ele>
        <time>2022-08-22T08:07:39Z</time>
      </trkpt>
      <trkpt lat="42.881809" lon="-7.947691">
        <ele>445.677</ele>
        <time>2022-08-22T08:07:43Z</time>
      </trkpt>
      <trkpt lat="42.881815" lon="-7.947756">
        <ele>445.869</ele>
        <time>2022-08-22T08:07:47Z</time>
      </trkpt>
      <trkpt lat="42.881825" lon="-7.947823">
        <ele>446.319</ele>
        <time>2022-08-22T08:07:51Z</time>
      </trkpt>
      <trkpt lat="42.881833" lon="-7.947895">
        <ele>446.994</ele>
        <time>2022-08-22T08:07:55Z</time>
      </trkpt>
      <trkpt lat="42.881848" lon="-7.947961">
        <ele>447.449</ele>
        <time>2022-08-22T08:07:59Z</time>
      </trkpt>
      <trkpt lat="42.881863" lon="-7.948028">
        <ele>447.963</ele>
        <time>2022-08-22T08:08:03Z</time>
      </trkpt>
      <trkpt lat="42.881873" lon="-7.948091">
        <ele>448.544</ele>
        <time>2022-08-22T08:08:07Z</time>
      </trkpt>
      <trkpt lat="42.881881" lon="-7.948163">
        <ele>449.118</ele>
        <time>2022-08-22T08:08:12Z</time>
      </trkpt>
      <trkpt lat="42.881880" lon="-7.948240">
        <ele>449.809</ele>
        <time>2022-08-22T08:08:16Z</time>
      </trkpt>
      <trkpt lat="42.881882" lon="-7.948316">
        <ele>450.727</ele>
        <time>2022-08-22T08:08:20Z</time>
      </trkpt>
      <trkpt lat="42.881875" lon="-7.948385">
        <ele>451.527</ele>
        <time>2022-08-22T08:08:25Z</time>
      </trkpt>
      <trkpt lat="42.881865" lon="-7.948453">
        <ele>452.057</ele>
        <time>2022-08-22T08:08:30Z</time>
      </trkpt>
      <trkpt lat="42.881857" lon="-7.948514">
        <ele>452.370</ele>
        <time>2022-08-22T08:08:34Z</time>
      </trkpt>
      <trkpt lat="42.881847" lon="-7.948593">
        <ele>452.412</ele>
        <time>2022-08-22T08:08:39Z</time>
      </trkpt>
      <trkpt lat="42.881845" lon="-7.948666">
        <ele>452.534</ele>
        <time>2022-08-22T08:08:43Z</time>
      </trkpt>
      <trkpt lat="42.881831" lon="-7.948740">
        <ele>452.674</ele>
        <time>2022-08-22T08:08:47Z</time>
      </trkpt>
      <trkpt lat="42.881810" lon="-7.948813">
        <ele>452.939</ele>
        <time>2022-08-22T08:08:51Z</time>
      </trkpt>
      <trkpt lat="42.881786" lon="-7.948882">
        <ele>453.274</ele>
        <time>2022-08-22T08:08:55Z</time>
      </trkpt>
      <trkpt lat="42.881769" lon="-7.948941">
        <ele>453.435</ele>
        <time>2022-08-22T08:08:58Z</time>
      </trkpt>
      <trkpt lat="42.881755" lon="-7.949001">
        <ele>453.786</ele>
        <time>2022-08-22T08:09:01Z</time>
      </trkpt>
      <trkpt lat="42.881740" lon="-7.949059">
        <ele>454.014</ele>
        <time>2022-08-22T08:09:04Z</time>
      </trkpt>
      <trkpt lat="42.881726" lon="-7.949134">
        <ele>454.309</ele>
        <time>2022-08-22T08:09:08Z</time>
      </trkpt>
      <trkpt lat="42.881710" lon="-7.949202">
        <ele>454.694</ele>
        <time>2022-08-22T08:09:12Z</time>
      </trkpt>
      <trkpt lat="42.881690" lon="-7.949276">
        <ele>454.964</ele>
        <time>2022-08-22T08:09:16Z</time>
      </trkpt>
      <trkpt lat="42.881672" lon="-7.949351">
        <ele>455.384</ele>
        <time>2022-08-22T08:09:20Z</time>
      </trkpt>
      <trkpt lat="42.881656" lon="-7.949409">
        <ele>455.537</ele>
        <time>2022-08-22T08:09:24Z</time>
      </trkpt>
      <trkpt lat="42.881637" lon="-7.949476">
        <ele>455.669</ele>
        <time>2022-08-22T08:09:28Z</time>
      </trkpt>
      <trkpt lat="42.881613" lon="-7.949542">
        <ele>455.811</ele>
        <time>2022-08-22T08:09:32Z</time>
      </trkpt>
      <trkpt lat="42.881598" lon="-7.949620">
        <ele>456.061</ele>
        <time>2022-08-22T08:09:36Z</time>
      </trkpt>
      <trkpt lat="42.881574" lon="-7.949692">
        <ele>456.266</ele>
        <time>2022-08-22T08:09:40Z</time>
      </trkpt>
      <trkpt lat="42.881547" lon="-7.949759">
        <ele>456.431</ele>
        <time>2022-08-22T08:09:44Z</time>
      </trkpt>
      <trkpt lat="42.881528" lon="-7.949831">
        <ele>456.622</ele>
        <time>2022-08-22T08:09:48Z</time>
      </trkpt>
      <trkpt lat="42.881508" lon="-7.949895">
        <ele>456.862</ele>
        <time>2022-08-22T08:09:52Z</time>
      </trkpt>
      <trkpt lat="42.881499" lon="-7.949969">
        <ele>457.108</ele>
        <time>2022-08-22T08:09:57Z</time>
      </trkpt>
      <trkpt lat="42.881499" lon="-7.950039">
        <ele>457.309</ele>
        <time>2022-08-22T08:10:02Z</time>
      </trkpt>
      <trkpt lat="42.881505" lon="-7.950100">
        <ele>457.723</ele>
        <time>2022-08-22T08:10:06Z</time>
      </trkpt>
      <trkpt lat="42.881506" lon="-7.950176">
        <ele>458.173</ele>
        <time>2022-08-22T08:10:11Z</time>
      </trkpt>
      <trkpt lat="42.881504" lon="-7.950245">
        <ele>458.463</ele>
        <time>2022-08-22T08:10:15Z</time>
      </trkpt>
      <trkpt lat="42.881507" lon="-7.950314">
        <ele>458.656</ele>
        <time>2022-08-22T08:10:18Z</time>
      </trkpt>
      <trkpt lat="42.881513" lon="-7.950391">
        <ele>458.838</ele>
        <time>2022-08-22T08:10:22Z</time>
      </trkpt>
      <trkpt lat="42.881512" lon="-7.950457">
        <ele>459.050</ele>
        <time>2022-08-22T08:10:26Z</time>
      </trkpt>
      <trkpt lat="42.881512" lon="-7.950534">
        <ele>459.280</ele>
        <time>2022-08-22T08:10:30Z</time>
      </trkpt>
      <trkpt lat="42.881519" lon="-7.950605">
        <ele>459.555</ele>
        <time>2022-08-22T08:10:34Z</time>
      </trkpt>
      <trkpt lat="42.881519" lon="-7.950681">
        <ele>459.970</ele>
        <time>2022-08-22T08:10:38Z</time>
      </trkpt>
      <trkpt lat="42.881523" lon="-7.950747">
        <ele>460.398</ele>
        <time>2022-08-22T08:10:42Z</time>
      </trkpt>
      <trkpt lat="42.881531" lon="-7.950808">
        <ele>460.615</ele>
        <time>2022-08-22T08:10:46Z</time>
      </trkpt>
      <trkpt lat="42.881530" lon="-7.950872">
        <ele>460.826</ele>
        <time>2022-08-22T08:10:50Z</time>
      </trkpt>
      <trkpt lat="42.881539" lon="-7.950939">
        <ele>461.009</ele>
        <time>2022-08-22T08:10:54Z</time>
      </trkpt>
      <trkpt lat="42.881549" lon="-7.951008">
        <ele>461.270</ele>
        <time>2022-08-22T08:10:59Z</time>
      </trkpt>
      <trkpt lat="42.881550" lon="-7.951077">
        <ele>461.570</ele>
        <time>2022-08-22T08:11:04Z</time>
      </trkpt>
      <trkpt lat="42.881553" lon="-7.951150">
        <ele>461.910</ele>
        <time>2022-08-22T08:11:09Z</time>
      </trkpt>
      <trkpt lat="42.881554" lon="-7.951221">
        <ele>462.373</ele>
        <time>2022-08-22T08:11:13Z</time>
      </trkpt>
      <trkpt lat="42.881551" lon="-7.951289">
        <ele>462.825</ele>
        <time>2022-08-22T08:11:17Z</time>
      </trkpt>
      <trkpt lat="42.881543" lon="-7.951360">
        <ele>463.217</ele>
        <time>2022-08-22T08:11:21Z</time>
      </trkpt>
      <trkpt lat="42.881542" lon="-7.951428">
        <ele>463.537</ele>
        <time>2022-08-22T08:11:26Z</time>
      </trkpt>
      <trkpt lat="42.881524" lon="-7.951485">
        <ele>463.822</ele>
        <time>2022-08-22T08:11:30Z</time>
      </trkpt>
      <trkpt lat="42.881526" lon="-7.951560">
        <ele>464.117</ele>
        <time>2022-08-22T08:11:35Z</time>
      </trkpt>
      <trkpt lat="42.881528" lon="-7.951634">
        <ele>464.581</ele>
        <time>2022-08-22T08:11:40Z</time>
      </trkpt>
      <trkpt lat="42.881532" lon="-7.951698">
        <ele>465.061</ele>
        <time>2022-08-22T08:11:44Z</time>
      </trkpt>
      <trkpt lat="42.881536" lon="-7.951772">
        <ele>465.517</ele>
        <time>2022-08-22T08:11:48Z</time>
      </trkpt>
      <trkpt lat="42.881538" lon="-7.951842">
        <ele>465.909</ele>
        <time>2022-08-22T08:11:52Z</time>
      </trkpt>
      <trkpt lat="42.881534" lon="-7.951906">
        <ele>466.339</ele>
        <time>2022-08-22T08:11:56Z</time>
      </trkpt>
      <trkpt lat="42.881532" lon="-7.951969">
        <ele>466.739</ele>
        <time>2022-08-22T08:11:59Z</time>
      </trkpt>
      <trkpt lat="42.881539" lon="-7.952040">
        <ele>467.279</ele>
        <time>2022-08-22T08:12:02Z</time>
      </trkpt>
      <trkpt lat="42.881555" lon="-7.952120">
        <ele>467.762</ele>
        <time>2022-08-22T08:12:07Z</time>
      </trkpt>
      <trkpt lat="42.881559" lon="-7.952185">
        <ele>468.054</ele>
        <time>2022-08-22T08:12:11Z</time>
      </trkpt>
      <trkpt lat="42.881572" lon="-7.952246">
        <ele>468.476</ele>
        <time>2022-08-22T08:12:15Z</time>
      </trkpt>
      <trkpt lat="42.881572" lon="-7.952323">
        <ele>469.086</ele>
        <time>2022-08-22T08:12:19Z</time>
      </trkpt>
      <trkpt lat="42.881571" lon="-7.952392">
        <ele>469.571</ele>
        <time>2022-08-22T08:12:24Z</time>
      </trkpt>
      <trkpt lat="42.881563" lon="-7.952464">
        <ele>469.926</ele>
        <time>2022-08-22T08:12:28Z</time>
      </trkpt>
      <trkpt lat="42.881554" lon="-7.952541">
        <ele>470.393</ele>
        <time>2022-08-22T08:12:32Z</time>
      </trkpt>
      <trkpt lat="42.881552" lon="-7.952602">
        <ele>470.765</ele>
        <time>2022-08-22T08:12:35Z</time>
      </trkpt>
      <trkpt lat="42.881556" lon="-7.952678">
        <ele>471.021</ele>
        <time>2022-08-22T08:12:39Z</time>
      </trkpt>
      <trkpt lat="42.881558" lon="-7.952740">
        <ele>471.209</ele>
        <time>2022-08-22T08:12:43Z</time>
      </trkpt>
      <trkpt lat="42.881566" lon="-7.952813">
        <ele>471.340</ele>
        <time>2022-08-22T08:12:46Z</time>
      </trkpt>
      <trkpt lat="42.881572" lon="-7.952881">
        <ele>471.490</ele>
        <time>2022-08-22T08:12:49Z</time>
      </trkpt>
      <trkpt lat="42.881574" lon="-7.952951">
        <ele>471.560</ele>
        <time>2022-08-22T08:12:53Z</time>
      </trkpt>
      <trkpt lat="42.881590" lon="-7.953017">
        <ele>471.693</ele>
        <time>2022-08-22T08:12:57Z</time>
      </trkpt>
      <trkpt lat="42.881617" lon="-7.953071">
        <ele>471.875</ele>
        <time>2022-08-22T08:13:01Z</time>
      </trkpt>
      <trkpt lat="42.881644" lon="-7.953126">
        <ele>472.147</ele>
        <time>2022-08-22T08:13:04Z</time>
      </trkpt>
      <trkpt lat="42.881676" lon="-7.953181">
        <ele>472.387</ele>
        <time>2022-08-22T08:13:08Z</time>
      </trkpt>
      <trkpt lat="42.881709" lon="-7.953229">
        <ele>472.412</ele>
        <time>2022-08-22T08:13:11Z</time>
      </trkpt>
      <trkpt lat="42.881752" lon="-7.953282">
        <ele>472.577</ele>
        <time>2022-08-22T08:13:15Z</time>
      </trkpt>
      <trkpt lat="42.881787" lon="-7.953324">
        <ele>472.748</ele>
        <time>2022-08-22T08:13:18Z</time>
      </trkpt>
      <trkpt lat="42.881817" lon="-7.953370">
        <ele>472.961</ele>
        <time>2022-08-22T08:13:21Z</time>
      </trkpt>
      <trkpt lat="42.881849" lon="-7.953427">
        <ele>473.117</ele>
        <time>2022-08-22T08:13:25Z</time>
      </trkpt>
      <trkpt lat="42.881894" lon="-7.953479">
        <ele>473.309</ele>
        <time>2022-08-22T08:13:30Z</time>
      </trkpt>
      <trkpt lat="42.881933" lon="-7.953533">
        <ele>473.625</ele>
        <time>2022-08-22T08:13:34Z</time>
      </trkpt>
      <trkpt lat="42.881971" lon="-7.953581">
        <ele>473.915</ele>
        <time>2022-08-22T08:13:39Z</time>
      </trkpt>
      <trkpt lat="42.882011" lon="-7.953637">
        <ele>474.375</ele>
        <time>2022-08-22T08:13:44Z</time>
      </trkpt>
      <trkpt lat="42.882052" lon="-7.953696">
        <ele>474.658</ele>
        <time>2022-08-22T08:13:48Z</time>
      </trkpt>
      <trkpt lat="42.882087" lon="-7.953758">
        <ele>474.840</ele>
        <time>2022-08-22T08:13:52Z</time>
      </trkpt>
      <trkpt lat="42.882122" lon="-7.953808">
        <ele>474.922</ele>
        <time>2022-08-22T08:13:56Z</time>
      </trkpt>
      <trkpt lat="42.882155" lon="-7.953855">
        <ele>475.032</ele>
        <time>2022-08-22T08:14:00Z</time>
      </trkpt>
      <trkpt lat="42.882194" lon="-7.953912">
        <ele>475.157</ele>
        <time>2022-08-22T08:14:04Z</time>
      </trkpt>
      <trkpt lat="42.882232" lon="-7.953969">
        <ele>475.212</ele>
        <time>2022-08-22T08:14:08Z</time>
      </trkpt>
      <trkpt lat="42.882268" lon="-7.954025">
        <ele>475.338</ele>
        <time>2022-08-22T08:14:13Z</time>
      </trkpt>
      <trkpt lat="42.882293" lon="-7.954080">
        <ele>475.470</ele>
        <time>2022-08-22T08:14:17Z</time>
      </trkpt>
      <trkpt lat="42.882324" lon="-7.954144">
        <ele>475.417</ele>
        <time>2022-08-22T08:14:21Z</time>
      </trkpt>
      <trkpt lat="42.882356" lon="-7.954197">
        <ele>475.409</ele>
        <time>2022-08-22T08:14:25Z</time>
      </trkpt>
      <trkpt lat="42.882380" lon="-7.954258">
        <ele>475.544</ele>
        <time>2022-08-22T08:14:29Z</time>
      </trkpt>
      <trkpt lat="42.882404" lon="-7.954317">
        <ele>475.644</ele>
        <time>2022-08-22T08:14:33Z</time>
      </trkpt>
      <trkpt lat="42.882434" lon="-7.954381">
        <ele>475.744</ele>
        <time>2022-08-22T08:14:37Z</time>
      </trkpt>
      <trkpt lat="42.882459" lon="-7.954452">
        <ele>475.857</ele>
        <time>2022-08-22T08:14:41Z</time>
      </trkpt>
      <trkpt lat="42.882486" lon="-7.954504">
        <ele>475.979</ele>
        <time>2022-08-22T08:14:44Z</time>
      </trkpt>
      <trkpt lat="42.882507" lon="-7.954580">
        <ele>476.081</ele>
        <time>2022-08-22T08:14:47Z</time>
      </trkpt>
      <trkpt lat="42.882528" lon="-7.954650">
        <ele>476.081</ele>
        <time>2022-08-22T08:14:50Z</time>
      </trkpt>
      <trkpt lat="42.882548" lon="-7.954706">
        <ele>476.036</ele>
        <time>2022-08-22T08:14:53Z</time>
      </trkpt>
      <trkpt lat="42.882570" lon="-7.954759">
        <ele>476.071</ele>
        <time>2022-08-22T08:14:56Z</time>
      </trkpt>
      <trkpt lat="42.882596" lon="-7.954829">
        <ele>476.075</ele>
        <time>2022-08-22T08:15:00Z</time>
      </trkpt>
      <trkpt lat="42.882619" lon="-7.954901">
        <ele>476.028</ele>
        <time>2022-08-22T08:15:04Z</time>
      </trkpt>
      <trkpt lat="42.882636" lon="-7.954971">
        <ele>476.020</ele>
        <time>2022-08-22T08:15:08Z</time>
      </trkpt>
      <trkpt lat="42.882660" lon="-7.955035">
        <ele>476.009</ele>
        <time>2022-08-22T08:15:12Z</time>
      </trkpt>
      <trkpt lat="42.882689" lon="-7.955098">
        <ele>476.168</ele>
        <time>2022-08-22T08:15:16Z</time>
      </trkpt>
      <trkpt lat="42.882714" lon="-7.955162">
        <ele>476.168</ele>
        <time>2022-08-22T08:15:20Z</time>
      </trkpt>
      <trkpt lat="42.882741" lon="-7.955224">
        <ele>476.158</ele>
        <time>2022-08-22T08:15:24Z</time>
      </trkpt>
      <trkpt lat="42.882768" lon="-7.955288">
        <ele>476.171</ele>
        <time>2022-08-22T08:15:28Z</time>
      </trkpt>
      <trkpt lat="42.882793" lon="-7.955353">
        <ele>476.163</ele>
        <time>2022-08-22T08:15:32Z</time>
      </trkpt>
      <trkpt lat="42.882828" lon="-7.955411">
        <ele>476.245</ele>
        <time>2022-08-22T08:15:36Z</time>
      </trkpt>
      <trkpt lat="42.882860" lon="-7.955466">
        <ele>476.335</ele>
        <time>2022-08-22T08:15:41Z</time>
      </trkpt>
      <trkpt lat="42.882886" lon="-7.955517">
        <ele>476.540</ele>
        <time>2022-08-22T08:15:45Z</time>
      </trkpt>
      <trkpt lat="42.882919" lon="-7.955560">
        <ele>476.835</ele>
        <time>2022-08-22T08:15:49Z</time>
      </trkpt>
      <trkpt lat="42.882958" lon="-7.955606">
        <ele>477.014</ele>
        <time>2022-08-22T08:15:54Z</time>
      </trkpt>
      <trkpt lat="42.882996" lon="-7.955653">
        <ele>477.154</ele>
        <time>2022-08-22T08:15:58Z</time>
      </trkpt>
      <trkpt lat="42.883036" lon="-7.955695">
        <ele>477.209</ele>
        <time>2022-08-22T08:16:02Z</time>
      </trkpt>
      <trkpt lat="42.883069" lon="-7.955751">
        <ele>477.409</ele>
        <time>2022-08-22T08:16:06Z</time>
      </trkpt>
      <trkpt lat="42.883106" lon="-7.955791">
        <ele>477.622</ele>
        <time>2022-08-22T08:16:10Z</time>
      </trkpt>
      <trkpt lat="42.883144" lon="-7.955847">
        <ele>477.812</ele>
        <time>2022-08-22T08:16:14Z</time>
      </trkpt>
      <trkpt lat="42.883185" lon="-7.955899">
        <ele>477.952</ele>
        <time>2022-08-22T08:16:18Z</time>
      </trkpt>
      <trkpt lat="42.883222" lon="-7.955951">
        <ele>478.015</ele>
        <time>2022-08-22T08:16:22Z</time>
      </trkpt>
      <trkpt lat="42.883262" lon="-7.955998">
        <ele>478.217</ele>
        <time>2022-08-22T08:16:26Z</time>
      </trkpt>
      <trkpt lat="42.883297" lon="-7.956050">
        <ele>478.479</ele>
        <time>2022-08-22T08:16:30Z</time>
      </trkpt>
      <trkpt lat="42.883327" lon="-7.956097">
        <ele>478.679</ele>
        <time>2022-08-22T08:16:34Z</time>
      </trkpt>
      <trkpt lat="42.883365" lon="-7.956139">
        <ele>478.844</ele>
        <time>2022-08-22T08:16:38Z</time>
      </trkpt>
      <trkpt lat="42.883401" lon="-7.956198">
        <ele>479.069</ele>
        <time>2022-08-22T08:16:42Z</time>
      </trkpt>
      <trkpt lat="42.883434" lon="-7.956244">
        <ele>479.221</ele>
        <time>2022-08-22T08:16:45Z</time>
      </trkpt>
      <trkpt lat="42.883465" lon="-7.956290">
        <ele>479.441</ele>
        <time>2022-08-22T08:16:48Z</time>
      </trkpt>
      <trkpt lat="42.883509" lon="-7.956341">
        <ele>479.505</ele>
        <time>2022-08-22T08:16:52Z</time>
      </trkpt>
      <trkpt lat="42.883549" lon="-7.956390">
        <ele>479.609</ele>
        <time>2022-08-22T08:16:56Z</time>
      </trkpt>
      <trkpt lat="42.883586" lon="-7.956449">
        <ele>479.843</ele>
        <time>2022-08-22T08:17:00Z</time>
      </trkpt>
      <trkpt lat="42.883633" lon="-7.956487">
        <ele>480.053</ele>
        <time>2022-08-22T08:17:04Z</time>
      </trkpt>
      <trkpt lat="42.883672" lon="-7.956531">
        <ele>480.323</ele>
        <time>2022-08-22T08:17:08Z</time>
      </trkpt>
      <trkpt lat="42.883704" lon="-7.956583">
        <ele>480.486</ele>
        <time>2022-08-22T08:17:13Z</time>
      </trkpt>
      <trkpt lat="42.883740" lon="-7.956636">
        <ele>480.548</ele>
        <time>2022-08-22T08:17:17Z</time>
      </trkpt>
      <trkpt lat="42.883781" lon="-7.956682">
        <ele>480.510</ele>
        <time>2022-08-22T08:17:21Z</time>
      </trkpt>
      <trkpt lat="42.883822" lon="-7.956734">
        <ele>480.520</ele>
        <time>2022-08-22T08:17:25Z</time>
      </trkpt>
      <trkpt lat="42.883864" lon="-7.956801">
        <ele>480.575</ele>
        <time>2022-08-22T08:17:29Z</time>
      </trkpt>
      <trkpt lat="42.883901" lon="-7.956858">
        <ele>480.390</ele>
        <time>2022-08-22T08:17:33Z</time>
      </trkpt>
      <trkpt lat="42.883943" lon="-7.956919">
        <ele>480.196</ele>
        <time>2022-08-22T08:17:37Z</time>
      </trkpt>
      <trkpt lat="42.883976" lon="-7.956961">
        <ele>479.831</ele>
        <time>2022-08-22T08:17:40Z</time>
      </trkpt>
      <trkpt lat="42.884006" lon="-7.957011">
        <ele>479.624</ele>
        <time>2022-08-22T08:17:43Z</time>
      </trkpt>
      <trkpt lat="42.884037" lon="-7.957057">
        <ele>479.509</ele>
        <time>2022-08-22T08:17:46Z</time>
      </trkpt>
      <trkpt lat="42.884075" lon="-7.957116">
        <ele>479.360</ele>
        <time>2022-08-22T08:17:50Z</time>
      </trkpt>
      <trkpt lat="42.884113" lon="-7.957171">
        <ele>479.120</ele>
        <time>2022-08-22T08:17:54Z</time>
      </trkpt>
      <trkpt lat="42.884148" lon="-7.957228">
        <ele>478.910</ele>
        <time>2022-08-22T08:17:58Z</time>
      </trkpt>
      <trkpt lat="42.884185" lon="-7.957285">
        <ele>478.523</ele>
        <time>2022-08-22T08:18:02Z</time>
      </trkpt>
      <trkpt lat="42.884216" lon="-7.957350">
        <ele>478.375</ele>
        <time>2022-08-22T08:18:06Z</time>
      </trkpt>
      <trkpt lat="42.884251" lon="-7.957411">
        <ele>478.247</ele>
        <time>2022-08-22T08:18:10Z</time>
      </trkpt>
      <trkpt lat="42.884287" lon="-7.957471">
        <ele>478.157</ele>
        <time>2022-08-22T08:18:14Z</time>
      </trkpt>
      <trkpt lat="42.884313" lon="-7.957527">
        <ele>478.052</ele>
        <time>2022-08-22T08:18:18Z</time>
      </trkpt>
      <trkpt lat="42.884334" lon="-7.957584">
        <ele>478.077</ele>
        <time>2022-08-22T08:18:22Z</time>
      </trkpt>
      <trkpt lat="42.884354" lon="-7.957645">
        <ele>478.027</ele>
        <time>2022-08-22T08:18:26Z</time>
      </trkpt>
      <trkpt lat="42.884377" lon="-7.957698">
        <ele>478.068</ele>
        <time>2022-08-22T08:18:29Z</time>
      </trkpt>
      <trkpt lat="42.884405" lon="-7.957759">
        <ele>478.014</ele>
        <time>2022-08-22T08:18:34Z</time>
      </trkpt>
      <trkpt lat="42.884428" lon="-7.957812">
        <ele>478.009</ele>
        <time>2022-08-22T08:18:38Z</time>
      </trkpt>
      <trkpt lat="42.884451" lon="-7.957879">
        <ele>478.173</ele>
        <time>2022-08-22T08:18:42Z</time>
      </trkpt>
      <trkpt lat="42.884471" lon="-7.957945">
        <ele>478.213</ele>
        <time>2022-08-22T08:18:46Z</time>
      </trkpt>
      <trkpt lat="42.884498" lon="-7.958006">
        <ele>478.243</ele>
        <time>2022-08-22T08:18:50Z</time>
      </trkpt>
      <trkpt lat="42.884525" lon="-7.958075">
        <ele>478.276</ele>
        <time>2022-08-22T08:18:54Z</time>
      </trkpt>
      <trkpt lat="42.884546" lon="-7.958131">
        <ele>478.268</ele>
        <time>2022-08-22T08:18:57Z</time>
      </trkpt>
      <trkpt lat="42.884580" lon="-7.958200">
        <ele>478.360</ele>
        <time>2022-08-22T08:19:01Z</time>
      </trkpt>
      <trkpt lat="42.884616" lon="-7.958262">
        <ele>478.490</ele>
        <time>2022-08-22T08:19:05Z</time>
      </trkpt>
      <trkpt lat="42.884657" lon="-7.958318">
        <ele>478.585</ele>
        <time>2022-08-22T08:19:09Z</time>
      </trkpt>
      <trkpt lat="42.884698" lon="-7.958371">
        <ele>478.730</ele>
        <time>2022-08-22T08:19:13Z</time>
      </trkpt>
      <trkpt lat="42.884726" lon="-7.958436">
        <ele>478.869</ele>
        <time>2022-08-22T08:19:17Z</time>
      </trkpt>
      <trkpt lat="42.884730" lon="-7.958503">
        <ele>479.004</ele>
        <time>2022-08-22T08:19:21Z</time>
      </trkpt>
      <trkpt lat="42.884761" lon="-7.958549">
        <ele>479.124</ele>
        <time>2022-08-22T08:19:34Z</time>
      </trkpt>
      <trkpt lat="42.884756" lon="-7.958676">
        <ele>479.509</ele>
        <time>2022-08-22T08:20:04Z</time>
      </trkpt>
      <trkpt lat="42.884766" lon="-7.958751">
        <ele>479.627</ele>
        <time>2022-08-22T08:20:08Z</time>
      </trkpt>
      <trkpt lat="42.884778" lon="-7.958814">
        <ele>479.647</ele>
        <time>2022-08-22T08:20:12Z</time>
      </trkpt>
      <trkpt lat="42.884793" lon="-7.958883">
        <ele>479.617</ele>
        <time>2022-08-22T08:20:16Z</time>
      </trkpt>
      <trkpt lat="42.884817" lon="-7.958945">
        <ele>479.620</ele>
        <time>2022-08-22T08:20:20Z</time>
      </trkpt>
      <trkpt lat="42.884840" lon="-7.959011">
        <ele>479.692</ele>
        <time>2022-08-22T08:20:24Z</time>
      </trkpt>
      <trkpt lat="42.884861" lon="-7.959080">
        <ele>479.694</ele>
        <time>2022-08-22T08:20:28Z</time>
      </trkpt>
      <trkpt lat="42.884887" lon="-7.959142">
        <ele>479.614</ele>
        <time>2022-08-22T08:20:32Z</time>
      </trkpt>
      <trkpt lat="42.884916" lon="-7.959204">
        <ele>479.679</ele>
        <time>2022-08-22T08:20:36Z</time>
      </trkpt>
      <trkpt lat="42.884944" lon="-7.959263">
        <ele>479.684</ele>
        <time>2022-08-22T08:20:40Z</time>
      </trkpt>
      <trkpt lat="42.884970" lon="-7.959326">
        <ele>479.619</ele>
        <time>2022-08-22T08:20:44Z</time>
      </trkpt>
      <trkpt lat="42.884988" lon="-7.959394">
        <ele>479.709</ele>
        <time>2022-08-22T08:20:48Z</time>
      </trkpt>
      <trkpt lat="42.885001" lon="-7.959464">
        <ele>479.719</ele>
        <time>2022-08-22T08:20:52Z</time>
      </trkpt>
      <trkpt lat="42.885005" lon="-7.959536">
        <ele>479.709</ele>
        <time>2022-08-22T08:20:56Z</time>
      </trkpt>
      <trkpt lat="42.885019" lon="-7.959604">
        <ele>479.792</ele>
        <time>2022-08-22T08:21:00Z</time>
      </trkpt>
      <trkpt lat="42.885033" lon="-7.959671">
        <ele>479.692</ele>
        <time>2022-08-22T08:21:04Z</time>
      </trkpt>
      <trkpt lat="42.885052" lon="-7.959736">
        <ele>479.332</ele>
        <time>2022-08-22T08:21:08Z</time>
      </trkpt>
      <trkpt lat="42.885080" lon="-7.959797">
        <ele>479.035</ele>
        <time>2022-08-22T08:21:12Z</time>
      </trkpt>
      <trkpt lat="42.885098" lon="-7.959857">
        <ele>478.897</ele>
        <time>2022-08-22T08:21:16Z</time>
      </trkpt>
      <trkpt lat="42.885117" lon="-7.959918">
        <ele>478.529</ele>
        <time>2022-08-22T08:21:21Z</time>
      </trkpt>
      <trkpt lat="42.885151" lon="-7.959982">
        <ele>478.169</ele>
        <time>2022-08-22T08:21:27Z</time>
      </trkpt>
      <trkpt lat="42.885183" lon="-7.960037">
        <ele>477.744</ele>
        <time>2022-08-22T08:21:32Z</time>
      </trkpt>
      <trkpt lat="42.885210" lon="-7.960099">
        <ele>477.249</ele>
        <time>2022-08-22T08:21:36Z</time>
      </trkpt>
      <trkpt lat="42.885238" lon="-7.960153">
        <ele>476.736</ele>
        <time>2022-08-22T08:21:41Z</time>
      </trkpt>
      <trkpt lat="42.885268" lon="-7.960215">
        <ele>476.417</ele>
        <time>2022-08-22T08:21:46Z</time>
      </trkpt>
      <trkpt lat="42.885296" lon="-7.960273">
        <ele>476.118</ele>
        <time>2022-08-22T08:21:50Z</time>
      </trkpt>
      <trkpt lat="42.885319" lon="-7.960327">
        <ele>475.809</ele>
        <time>2022-08-22T08:21:54Z</time>
      </trkpt>
      <trkpt lat="42.885345" lon="-7.960386">
        <ele>475.674</ele>
        <time>2022-08-22T08:21:58Z</time>
      </trkpt>
      <trkpt lat="42.885371" lon="-7.960451">
        <ele>475.574</ele>
        <time>2022-08-22T08:22:02Z</time>
      </trkpt>
      <trkpt lat="42.885401" lon="-7.960511">
        <ele>475.464</ele>
        <time>2022-08-22T08:22:06Z</time>
      </trkpt>
      <trkpt lat="42.885427" lon="-7.960569">
        <ele>475.247</ele>
        <time>2022-08-22T08:22:10Z</time>
      </trkpt>
      <trkpt lat="42.885458" lon="-7.960636">
        <ele>475.019</ele>
        <time>2022-08-22T08:22:15Z</time>
      </trkpt>
      <trkpt lat="42.885487" lon="-7.960698">
        <ele>474.861</ele>
        <time>2022-08-22T08:22:19Z</time>
      </trkpt>
      <trkpt lat="42.885516" lon="-7.960752">
        <ele>474.731</ele>
        <time>2022-08-22T08:22:23Z</time>
      </trkpt>
      <trkpt lat="42.885550" lon="-7.960820">
        <ele>474.416</ele>
        <time>2022-08-22T08:22:27Z</time>
      </trkpt>
      <trkpt lat="42.885575" lon="-7.960878">
        <ele>474.351</ele>
        <time>2022-08-22T08:22:30Z</time>
      </trkpt>
      <trkpt lat="42.885608" lon="-7.960935">
        <ele>474.221</ele>
        <time>2022-08-22T08:22:34Z</time>
      </trkpt>
      <trkpt lat="42.885632" lon="-7.960987">
        <ele>474.141</ele>
        <time>2022-08-22T08:22:37Z</time>
      </trkpt>
      <trkpt lat="42.885661" lon="-7.961054">
        <ele>474.005</ele>
        <time>2022-08-22T08:22:41Z</time>
      </trkpt>
      <trkpt lat="42.885687" lon="-7.961115">
        <ele>473.909</ele>
        <time>2022-08-22T08:22:45Z</time>
      </trkpt>
      <trkpt lat="42.885719" lon="-7.961175">
        <ele>473.793</ele>
        <time>2022-08-22T08:22:49Z</time>
      </trkpt>
      <trkpt lat="42.885742" lon="-7.961243">
        <ele>473.663</ele>
        <time>2022-08-22T08:22:53Z</time>
      </trkpt>
      <trkpt lat="42.885769" lon="-7.961309">
        <ele>473.383</ele>
        <time>2022-08-22T08:22:57Z</time>
      </trkpt>
      <trkpt lat="42.885791" lon="-7.961370">
        <ele>473.236</ele>
        <time>2022-08-22T08:23:01Z</time>
      </trkpt>
      <trkpt lat="42.885812" lon="-7.961431">
        <ele>472.968</ele>
        <time>2022-08-22T08:23:05Z</time>
      </trkpt>
      <trkpt lat="42.885834" lon="-7.961503">
        <ele>472.650</ele>
        <time>2022-08-22T08:23:09Z</time>
      </trkpt>
      <trkpt lat="42.885855" lon="-7.961565">
        <ele>472.390</ele>
        <time>2022-08-22T08:23:13Z</time>
      </trkpt>
      <trkpt lat="42.885874" lon="-7.961625">
        <ele>472.055</ele>
        <time>2022-08-22T08:23:17Z</time>
      </trkpt>
      <trkpt lat="42.885900" lon="-7.961689">
        <ele>471.610</ele>
        <time>2022-08-22T08:23:21Z</time>
      </trkpt>
      <trkpt lat="42.885919" lon="-7.961748">
        <ele>471.258</ele>
        <time>2022-08-22T08:23:24Z</time>
      </trkpt>
      <trkpt lat="42.885937" lon="-7.961817">
        <ele>470.952</ele>
        <time>2022-08-22T08:23:28Z</time>
      </trkpt>
      <trkpt lat="42.885959" lon="-7.961890">
        <ele>470.717</ele>
        <time>2022-08-22T08:23:32Z</time>
      </trkpt>
      <trkpt lat="42.885978" lon="-7.961951">
        <ele>470.509</ele>
        <time>2022-08-22T08:23:36Z</time>
      </trkpt>
      <trkpt lat="42.885999" lon="-7.962014">
        <ele>470.246</ele>
        <time>2022-08-22T08:23:40Z</time>
      </trkpt>
      <trkpt lat="42.886020" lon="-7.962084">
        <ele>469.996</ele>
        <time>2022-08-22T08:23:44Z</time>
      </trkpt>
      <trkpt lat="42.886043" lon="-7.962149">
        <ele>469.696</ele>
        <time>2022-08-22T08:23:48Z</time>
      </trkpt>
      <trkpt lat="42.886070" lon="-7.962221">
        <ele>469.399</ele>
        <time>2022-08-22T08:23:52Z</time>
      </trkpt>
      <trkpt lat="42.886088" lon="-7.962299">
        <ele>468.851</ele>
        <time>2022-08-22T08:23:56Z</time>
      </trkpt>
      <trkpt lat="42.886114" lon="-7.962370">
        <ele>468.343</ele>
        <time>2022-08-22T08:24:00Z</time>
      </trkpt>
      <trkpt lat="42.886133" lon="-7.962433">
        <ele>467.993</ele>
        <time>2022-08-22T08:24:04Z</time>
      </trkpt>
      <trkpt lat="42.886155" lon="-7.962496">
        <ele>467.528</ele>
        <time>2022-08-22T08:24:08Z</time>
      </trkpt>
      <trkpt lat="42.886181" lon="-7.962555">
        <ele>467.323</ele>
        <time>2022-08-22T08:24:12Z</time>
      </trkpt>
      <trkpt lat="42.886205" lon="-7.962617">
        <ele>466.834</ele>
        <time>2022-08-22T08:24:16Z</time>
      </trkpt>
      <trkpt lat="42.886229" lon="-7.962681">
        <ele>466.455</ele>
        <time>2022-08-22T08:24:20Z</time>
      </trkpt>
      <trkpt lat="42.886255" lon="-7.962734">
        <ele>466.010</ele>
        <time>2022-08-22T08:24:24Z</time>
      </trkpt>
      <trkpt lat="42.886278" lon="-7.962794">
        <ele>465.609</ele>
        <time>2022-08-22T08:24:28Z</time>
      </trkpt>
      <trkpt lat="42.886300" lon="-7.962860">
        <ele>465.264</ele>
        <time>2022-08-22T08:24:32Z</time>
      </trkpt>
      <trkpt lat="42.886327" lon="-7.962932">
        <ele>464.864</ele>
        <time>2022-08-22T08:24:36Z</time>
      </trkpt>
      <trkpt lat="42.886354" lon="-7.962993">
        <ele>464.464</ele>
        <time>2022-08-22T08:24:40Z</time>
      </trkpt>
      <trkpt lat="42.886384" lon="-7.963055">
        <ele>464.017</ele>
        <time>2022-08-22T08:24:45Z</time>
      </trkpt>
      <trkpt lat="42.886417" lon="-7.963106">
        <ele>463.589</ele>
        <time>2022-08-22T08:24:49Z</time>
      </trkpt>
      <trkpt lat="42.886451" lon="-7.963159">
        <ele>462.941</ele>
        <time>2022-08-22T08:24:54Z</time>
      </trkpt>
      <trkpt lat="42.886483" lon="-7.963203">
        <ele>462.371</ele>
        <time>2022-08-22T08:24:58Z</time>
      </trkpt>
      <trkpt lat="42.886516" lon="-7.963250">
        <ele>461.866</ele>
        <time>2022-08-22T08:25:02Z</time>
      </trkpt>
      <trkpt lat="42.886541" lon="-7.963304">
        <ele>461.491</ele>
        <time>2022-08-22T08:25:06Z</time>
      </trkpt>
      <trkpt lat="42.886571" lon="-7.963369">
        <ele>461.093</ele>
        <time>2022-08-22T08:25:10Z</time>
      </trkpt>
      <trkpt lat="42.886601" lon="-7.963421">
        <ele>460.765</ele>
        <time>2022-08-22T08:25:14Z</time>
      </trkpt>
      <trkpt lat="42.886613" lon="-7.963503">
        <ele>460.421</ele>
        <time>2022-08-22T08:25:18Z</time>
      </trkpt>
      <trkpt lat="42.886624" lon="-7.963580">
        <ele>459.909</ele>
        <time>2022-08-22T08:25:22Z</time>
      </trkpt>
      <trkpt lat="42.886634" lon="-7.963656">
        <ele>459.390</ele>
        <time>2022-08-22T08:25:26Z</time>
      </trkpt>
      <trkpt lat="42.886648" lon="-7.963734">
        <ele>458.510</ele>
        <time>2022-08-22T08:25:30Z</time>
      </trkpt>
      <trkpt lat="42.886654" lon="-7.963798">
        <ele>457.990</ele>
        <time>2022-08-22T08:25:34Z</time>
      </trkpt>
      <trkpt lat="42.886670" lon="-7.963866">
        <ele>457.463</ele>
        <time>2022-08-22T08:25:38Z</time>
      </trkpt>
      <trkpt lat="42.886680" lon="-7.963939">
        <ele>457.085</ele>
        <time>2022-08-22T08:25:43Z</time>
      </trkpt>
      <trkpt lat="42.886694" lon="-7.964015">
        <ele>456.677</ele>
        <time>2022-08-22T08:25:47Z</time>
      </trkpt>
      <trkpt lat="42.886714" lon="-7.964087">
        <ele>456.387</ele>
        <time>2022-08-22T08:25:51Z</time>
      </trkpt>
      <trkpt lat="42.886741" lon="-7.964156">
        <ele>455.762</ele>
        <time>2022-08-22T08:25:56Z</time>
      </trkpt>
      <trkpt lat="42.886771" lon="-7.964207">
        <ele>455.467</ele>
        <time>2022-08-22T08:26:00Z</time>
      </trkpt>
      <trkpt lat="42.886804" lon="-7.964257">
        <ele>455.266</ele>
        <time>2022-08-22T08:26:03Z</time>
      </trkpt>
      <trkpt lat="42.886842" lon="-7.964313">
        <ele>454.929</ele>
        <time>2022-08-22T08:26:07Z</time>
      </trkpt>
      <trkpt lat="42.886880" lon="-7.964373">
        <ele>454.721</ele>
        <time>2022-08-22T08:26:11Z</time>
      </trkpt>
      <trkpt lat="42.886907" lon="-7.964437">
        <ele>454.509</ele>
        <time>2022-08-22T08:26:15Z</time>
      </trkpt>
      <trkpt lat="42.886944" lon="-7.964491">
        <ele>454.247</ele>
        <time>2022-08-22T08:26:20Z</time>
      </trkpt>
      <trkpt lat="42.886977" lon="-7.964551">
        <ele>453.947</ele>
        <time>2022-08-22T08:26:24Z</time>
      </trkpt>
      <trkpt lat="42.887019" lon="-7.964595">
        <ele>453.527</ele>
        <time>2022-08-22T08:26:28Z</time>
      </trkpt>
      <trkpt lat="42.887052" lon="-7.964640">
        <ele>453.390</ele>
        <time>2022-08-22T08:26:31Z</time>
      </trkpt>
      <trkpt lat="42.887089" lon="-7.964681">
        <ele>452.932</ele>
        <time>2022-08-22T08:26:34Z</time>
      </trkpt>
      <trkpt lat="42.887134" lon="-7.964731">
        <ele>452.634</ele>
        <time>2022-08-22T08:26:38Z</time>
      </trkpt>
      <trkpt lat="42.887166" lon="-7.964783">
        <ele>452.554</ele>
        <time>2022-08-22T08:26:42Z</time>
      </trkpt>
      <trkpt lat="42.887194" lon="-7.964846">
        <ele>452.469</ele>
        <time>2022-08-22T08:26:47Z</time>
      </trkpt>
      <trkpt lat="42.887229" lon="-7.964905">
        <ele>452.354</ele>
        <time>2022-08-22T08:26:51Z</time>
      </trkpt>
      <trkpt lat="42.887266" lon="-7.964943">
        <ele>452.121</ele>
        <time>2022-08-22T08:26:55Z</time>
      </trkpt>
      <trkpt lat="42.887306" lon="-7.964975">
        <ele>451.941</ele>
        <time>2022-08-22T08:26:58Z</time>
      </trkpt>
      <trkpt lat="42.887353" lon="-7.965010">
        <ele>451.805</ele>
        <time>2022-08-22T08:27:02Z</time>
      </trkpt>
      <trkpt lat="42.887394" lon="-7.965058">
        <ele>451.709</ele>
        <time>2022-08-22T08:27:06Z</time>
      </trkpt>
      <trkpt lat="42.887429" lon="-7.965105">
        <ele>451.773</ele>
        <time>2022-08-22T08:27:10Z</time>
      </trkpt>
      <trkpt lat="42.887467" lon="-7.965151">
        <ele>451.783</ele>
        <time>2022-08-22T08:27:14Z</time>
      </trkpt>
      <trkpt lat="42.887492" lon="-7.965205">
        <ele>451.623</ele>
        <time>2022-08-22T08:27:18Z</time>
      </trkpt>
      <trkpt lat="42.887521" lon="-7.965255">
        <ele>451.696</ele>
        <time>2022-08-22T08:27:21Z</time>
      </trkpt>
      <trkpt lat="42.887560" lon="-7.965301">
        <ele>451.628</ele>
        <time>2022-08-22T08:27:25Z</time>
      </trkpt>
      <trkpt lat="42.887599" lon="-7.965346">
        <ele>451.610</ele>
        <time>2022-08-22T08:27:29Z</time>
      </trkpt>
      <trkpt lat="42.887628" lon="-7.965404">
        <ele>451.620</ele>
        <time>2022-08-22T08:27:33Z</time>
      </trkpt>
      <trkpt lat="42.887655" lon="-7.965459">
        <ele>451.515</ele>
        <time>2022-08-22T08:27:37Z</time>
      </trkpt>
      <trkpt lat="42.887685" lon="-7.965510">
        <ele>451.440</ele>
        <time>2022-08-22T08:27:41Z</time>
      </trkpt>
      <trkpt lat="42.887714" lon="-7.965564">
        <ele>451.434</ele>
        <time>2022-08-22T08:27:44Z</time>
      </trkpt>
      <trkpt lat="42.887743" lon="-7.965616">
        <ele>451.355</ele>
        <time>2022-08-22T08:27:48Z</time>
      </trkpt>
      <trkpt lat="42.887782" lon="-7.965656">
        <ele>451.210</ele>
        <time>2022-08-22T08:27:52Z</time>
      </trkpt>
      <trkpt lat="42.887815" lon="-7.965699">
        <ele>451.109</ele>
        <time>2022-08-22T08:27:56Z</time>
      </trkpt>
      <trkpt lat="42.887848" lon="-7.965752">
        <ele>451.034</ele>
        <time>2022-08-22T08:28:01Z</time>
      </trkpt>
      <trkpt lat="42.887888" lon="-7.965807">
        <ele>450.954</ele>
        <time>2022-08-22T08:28:05Z</time>
      </trkpt>
      <trkpt lat="42.887925" lon="-7.965853">
        <ele>450.854</ele>
        <time>2022-08-22T08:28:09Z</time>
      </trkpt>
      <trkpt lat="42.887959" lon="-7.965897">
        <ele>450.767</ele>
        <time>2022-08-22T08:28:13Z</time>
      </trkpt>
      <trkpt lat="42.888000" lon="-7.965935">
        <ele>450.679</ele>
        <time>2022-08-22T08:28:17Z</time>
      </trkpt>
      <trkpt lat="42.888040" lon="-7.965978">
        <ele>450.491</ele>
        <time>2022-08-22T08:28:21Z</time>
      </trkpt>
      <trkpt lat="42.888078" lon="-7.966031">
        <ele>450.231</ele>
        <time>2022-08-22T08:28:25Z</time>
      </trkpt>
      <trkpt lat="42.888109" lon="-7.966092">
        <ele>450.046</ele>
        <time>2022-08-22T08:28:29Z</time>
      </trkpt>
      <trkpt lat="42.888140" lon="-7.966142">
        <ele>449.861</ele>
        <time>2022-08-22T08:28:32Z</time>
      </trkpt>
      <trkpt lat="42.888172" lon="-7.966188">
        <ele>449.551</ele>
        <time>2022-08-22T08:28:36Z</time>
      </trkpt>
      <trkpt lat="42.888203" lon="-7.966243">
        <ele>449.201</ele>
        <time>2022-08-22T08:28:40Z</time>
      </trkpt>
      <trkpt lat="42.888245" lon="-7.966292">
        <ele>448.811</ele>
        <time>2022-08-22T08:28:44Z</time>
      </trkpt>
      <trkpt lat="42.888290" lon="-7.966334">
        <ele>448.409</ele>
        <time>2022-08-22T08:28:48Z</time>
      </trkpt>
      <trkpt lat="42.888339" lon="-7.966371">
        <ele>448.046</ele>
        <time>2022-08-22T08:28:52Z</time>
      </trkpt>
      <trkpt lat="42.888388" lon="-7.966404">
        <ele>447.586</ele>
        <time>2022-08-22T08:28:56Z</time>
      </trkpt>
      <trkpt lat="42.888436" lon="-7.966434">
        <ele>447.296</ele>
        <time>2022-08-22T08:29:00Z</time>
      </trkpt>
      <trkpt lat="42.888485" lon="-7.966454">
        <ele>447.159</ele>
        <time>2022-08-22T08:29:04Z</time>
      </trkpt>
      <trkpt lat="42.888533" lon="-7.966469">
        <ele>446.941</ele>
        <time>2022-08-22T08:29:08Z</time>
      </trkpt>
      <trkpt lat="42.888587" lon="-7.966497">
        <ele>446.763</ele>
        <time>2022-08-22T08:29:13Z</time>
      </trkpt>
      <trkpt lat="42.888635" lon="-7.966528">
        <ele>446.543</ele>
        <time>2022-08-22T08:29:17Z</time>
      </trkpt>
      <trkpt lat="42.888687" lon="-7.966553">
        <ele>446.348</ele>
        <time>2022-08-22T08:29:21Z</time>
      </trkpt>
      <trkpt lat="42.888737" lon="-7.966580">
        <ele>446.143</ele>
        <time>2022-08-22T08:29:25Z</time>
      </trkpt>
      <trkpt lat="42.888790" lon="-7.966608">
        <ele>445.993</ele>
        <time>2022-08-22T08:29:29Z</time>
      </trkpt>
      <trkpt lat="42.888847" lon="-7.966633">
        <ele>445.865</ele>
        <time>2022-08-22T08:29:33Z</time>
      </trkpt>
      <trkpt lat="42.888903" lon="-7.966654">
        <ele>445.721</ele>
        <time>2022-08-22T08:29:37Z</time>
      </trkpt>
      <trkpt lat="42.888956" lon="-7.966687">
        <ele>445.609</ele>
        <time>2022-08-22T08:29:41Z</time>
      </trkpt>
      <trkpt lat="42.889009" lon="-7.966720">
        <ele>445.510</ele>
        <time>2022-08-22T08:29:45Z</time>
      </trkpt>
      <trkpt lat="42.889062" lon="-7.966751">
        <ele>445.440</ele>
        <time>2022-08-22T08:29:49Z</time>
      </trkpt>
      <trkpt lat="42.889117" lon="-7.966773">
        <ele>445.370</ele>
        <time>2022-08-22T08:29:53Z</time>
      </trkpt>
      <trkpt lat="42.889168" lon="-7.966804">
        <ele>445.393</ele>
        <time>2022-08-22T08:29:57Z</time>
      </trkpt>
      <trkpt lat="42.889220" lon="-7.966833">
        <ele>445.255</ele>
        <time>2022-08-22T08:30:01Z</time>
      </trkpt>
      <trkpt lat="42.889270" lon="-7.966859">
        <ele>445.127</ele>
        <time>2022-08-22T08:30:05Z</time>
      </trkpt>
      <trkpt lat="42.889319" lon="-7.966878">
        <ele>444.937</ele>
        <time>2022-08-22T08:30:09Z</time>
      </trkpt>
      <trkpt lat="42.889367" lon="-7.966909">
        <ele>444.632</ele>
        <time>2022-08-22T08:30:13Z</time>
      </trkpt>
      <trkpt lat="42.889412" lon="-7.966940">
        <ele>444.487</ele>
        <time>2022-08-22T08:30:17Z</time>
      </trkpt>
      <trkpt lat="42.889460" lon="-7.966975">
        <ele>443.879</ele>
        <time>2022-08-22T08:30:22Z</time>
      </trkpt>
      <trkpt lat="42.889504" lon="-7.967007">
        <ele>443.005</ele>
        <time>2022-08-22T08:30:26Z</time>
      </trkpt>
      <trkpt lat="42.889547" lon="-7.967036">
        <ele>442.225</ele>
        <time>2022-08-22T08:30:30Z</time>
      </trkpt>
      <trkpt lat="42.889590" lon="-7.967077">
        <ele>441.509</ele>
        <time>2022-08-22T08:30:34Z</time>
      </trkpt>
      <trkpt lat="42.889639" lon="-7.967112">
        <ele>441.028</ele>
        <time>2022-08-22T08:30:38Z</time>
      </trkpt>
      <trkpt lat="42.889678" lon="-7.967162">
        <ele>440.538</ele>
        <time>2022-08-22T08:30:42Z</time>
      </trkpt>
      <trkpt lat="42.889712" lon="-7.967217">
        <ele>440.538</ele>
        <time>2022-08-22T08:30:47Z</time>
      </trkpt>
      <trkpt lat="42.889746" lon="-7.967274">
        <ele>440.321</ele>
        <time>2022-08-22T08:30:51Z</time>
      </trkpt>
      <trkpt lat="42.889780" lon="-7.967340">
        <ele>440.263</ele>
        <time>2022-08-22T08:30:55Z</time>
      </trkpt>
      <trkpt lat="42.889807" lon="-7.967405">
        <ele>440.285</ele>
        <time>2022-08-22T08:30:59Z</time>
      </trkpt>
      <trkpt lat="42.889832" lon="-7.967464">
        <ele>439.525</ele>
        <time>2022-08-22T08:31:02Z</time>
      </trkpt>
      <trkpt lat="42.889854" lon="-7.967518">
        <ele>439.580</ele>
        <time>2022-08-22T08:31:05Z</time>
      </trkpt>
      <trkpt lat="42.889879" lon="-7.967589">
        <ele>439.595</ele>
        <time>2022-08-22T08:31:09Z</time>
      </trkpt>
      <trkpt lat="42.889906" lon="-7.967658">
        <ele>439.528</ele>
        <time>2022-08-22T08:31:13Z</time>
      </trkpt>
      <trkpt lat="42.889923" lon="-7.967736">
        <ele>439.689</ele>
        <time>2022-08-22T08:31:17Z</time>
      </trkpt>
      <trkpt lat="42.889939" lon="-7.967812">
        <ele>439.917</ele>
        <time>2022-08-22T08:31:21Z</time>
      </trkpt>
      <trkpt lat="42.889950" lon="-7.967891">
        <ele>440.109</ele>
        <time>2022-08-22T08:31:25Z</time>
      </trkpt>
      <trkpt lat="42.889952" lon="-7.967970">
        <ele>440.263</ele>
        <time>2022-08-22T08:31:29Z</time>
      </trkpt>
      <trkpt lat="42.889968" lon="-7.968045">
        <ele>440.313</ele>
        <time>2022-08-22T08:31:33Z</time>
      </trkpt>
      <trkpt lat="42.889979" lon="-7.968119">
        <ele>440.583</ele>
        <time>2022-08-22T08:31:37Z</time>
      </trkpt>
      <trkpt lat="42.889989" lon="-7.968195">
        <ele>440.776</ele>
        <time>2022-08-22T08:31:41Z</time>
      </trkpt>
      <trkpt lat="42.890003" lon="-7.968268">
        <ele>440.888</ele>
        <time>2022-08-22T08:31:45Z</time>
      </trkpt>
      <trkpt lat="42.890014" lon="-7.968339">
        <ele>440.950</ele>
        <time>2022-08-22T08:31:49Z</time>
      </trkpt>
      <trkpt lat="42.890022" lon="-7.968409">
        <ele>441.190</ele>
        <time>2022-08-22T08:31:53Z</time>
      </trkpt>
      <trkpt lat="42.890027" lon="-7.968474">
        <ele>441.245</ele>
        <time>2022-08-22T08:31:57Z</time>
      </trkpt>
      <trkpt lat="42.890028" lon="-7.968542">
        <ele>441.460</ele>
        <time>2022-08-22T08:32:01Z</time>
      </trkpt>
      <trkpt lat="42.890016" lon="-7.968618">
        <ele>441.621</ele>
        <time>2022-08-22T08:32:05Z</time>
      </trkpt>
      <trkpt lat="42.890024" lon="-7.968696">
        <ele>441.841</ele>
        <time>2022-08-22T08:32:09Z</time>
      </trkpt>
      <trkpt lat="42.890051" lon="-7.968750">
        <ele>441.905</ele>
        <time>2022-08-22T08:32:13Z</time>
      </trkpt>
      <trkpt lat="42.890076" lon="-7.968804">
        <ele>442.009</ele>
        <time>2022-08-22T08:32:17Z</time>
      </trkpt>
      <trkpt lat="42.890111" lon="-7.968856">
        <ele>442.163</ele>
        <time>2022-08-22T08:32:21Z</time>
      </trkpt>
      <trkpt lat="42.890146" lon="-7.968920">
        <ele>442.213</ele>
        <time>2022-08-22T08:32:25Z</time>
      </trkpt>
      <trkpt lat="42.890179" lon="-7.968975">
        <ele>442.353</ele>
        <time>2022-08-22T08:32:29Z</time>
      </trkpt>
      <trkpt lat="42.890215" lon="-7.969026">
        <ele>442.356</ele>
        <time>2022-08-22T08:32:33Z</time>
      </trkpt>
      <trkpt lat="42.890257" lon="-7.969076">
        <ele>442.498</ele>
        <time>2022-08-22T08:32:37Z</time>
      </trkpt>
      <trkpt lat="42.890299" lon="-7.969129">
        <ele>442.510</ele>
        <time>2022-08-22T08:32:41Z</time>
      </trkpt>
      <trkpt lat="42.890347" lon="-7.969171">
        <ele>442.640</ele>
        <time>2022-08-22T08:32:45Z</time>
      </trkpt>
      <trkpt lat="42.890393" lon="-7.969217">
        <ele>442.795</ele>
        <time>2022-08-22T08:32:49Z</time>
      </trkpt>
      <trkpt lat="42.890434" lon="-7.969268">
        <ele>442.880</ele>
        <time>2022-08-22T08:32:53Z</time>
      </trkpt>
      <trkpt lat="42.890474" lon="-7.969321">
        <ele>443.042</ele>
        <time>2022-08-22T08:32:57Z</time>
      </trkpt>
      <trkpt lat="42.890522" lon="-7.969362">
        <ele>443.322</ele>
        <time>2022-08-22T08:33:01Z</time>
      </trkpt>
      <trkpt lat="42.890560" lon="-7.969417">
        <ele>443.714</ele>
        <time>2022-08-22T08:33:05Z</time>
      </trkpt>
      <trkpt lat="42.890602" lon="-7.969461">
        <ele>444.309</ele>
        <time>2022-08-22T08:33:09Z</time>
      </trkpt>
      <trkpt lat="42.890648" lon="-7.969505">
        <ele>445.095</ele>
        <time>2022-08-22T08:33:13Z</time>
      </trkpt>
      <trkpt lat="42.890690" lon="-7.969532">
        <ele>445.355</ele>
        <time>2022-08-22T08:33:17Z</time>
      </trkpt>
      <trkpt lat="42.890733" lon="-7.969561">
        <ele>445.775</ele>
        <time>2022-08-22T08:33:21Z</time>
      </trkpt>
      <trkpt lat="42.890775" lon="-7.969589">
        <ele>446.068</ele>
        <time>2022-08-22T08:33:25Z</time>
      </trkpt>
      <trkpt lat="42.890828" lon="-7.969617">
        <ele>446.380</ele>
        <time>2022-08-22T08:33:30Z</time>
      </trkpt>
      <trkpt lat="42.890864" lon="-7.969664">
        <ele>446.772</ele>
        <time>2022-08-22T08:33:34Z</time>
      </trkpt>
      <trkpt lat="42.890906" lon="-7.969708">
        <ele>447.182</ele>
        <time>2022-08-22T08:33:38Z</time>
      </trkpt>
      <trkpt lat="42.890944" lon="-7.969747">
        <ele>447.697</ele>
        <time>2022-08-22T08:33:42Z</time>
      </trkpt>
      <trkpt lat="42.890984" lon="-7.969787">
        <ele>448.132</ele>
        <time>2022-08-22T08:33:46Z</time>
      </trkpt>
      <trkpt lat="42.891024" lon="-7.969833">
        <ele>448.566</ele>
        <time>2022-08-22T08:33:50Z</time>
      </trkpt>
      <trkpt lat="42.891063" lon="-7.969880">
        <ele>448.729</ele>
        <time>2022-08-22T08:33:54Z</time>
      </trkpt>
      <trkpt lat="42.891101" lon="-7.969935">
        <ele>448.921</ele>
        <time>2022-08-22T08:33:58Z</time>
      </trkpt>
      <trkpt lat="42.891142" lon="-7.969992">
        <ele>449.209</ele>
        <time>2022-08-22T08:34:02Z</time>
      </trkpt>
      <trkpt lat="42.891184" lon="-7.970037">
        <ele>449.777</ele>
        <time>2022-08-22T08:34:06Z</time>
      </trkpt>
      <trkpt lat="42.891225" lon="-7.970086">
        <ele>450.037</ele>
        <time>2022-08-22T08:34:10Z</time>
      </trkpt>
      <trkpt lat="42.891261" lon="-7.970140">
        <ele>450.397</ele>
        <time>2022-08-22T08:34:14Z</time>
      </trkpt>
      <trkpt lat="42.891298" lon="-7.970198">
        <ele>450.610</ele>
        <time>2022-08-22T08:34:18Z</time>
      </trkpt>
      <trkpt lat="42.891340" lon="-7.970249">
        <ele>450.832</ele>
        <time>2022-08-22T08:34:22Z</time>
      </trkpt>
      <trkpt lat="42.891376" lon="-7.970302">
        <ele>451.174</ele>
        <time>2022-08-22T08:34:26Z</time>
      </trkpt>
      <trkpt lat="42.891416" lon="-7.970354">
        <ele>451.354</ele>
        <time>2022-08-22T08:34:30Z</time>
      </trkpt>
      <trkpt lat="42.891449" lon="-7.970411">
        <ele>451.669</ele>
        <time>2022-08-22T08:34:34Z</time>
      </trkpt>
      <trkpt lat="42.891483" lon="-7.970454">
        <ele>451.724</ele>
        <time>2022-08-22T08:34:37Z</time>
      </trkpt>
      <trkpt lat="42.891524" lon="-7.970495">
        <ele>451.922</ele>
        <time>2022-08-22T08:34:41Z</time>
      </trkpt>
      <trkpt lat="42.891562" lon="-7.970548">
        <ele>452.162</ele>
        <time>2022-08-22T08:34:45Z</time>
      </trkpt>
      <trkpt lat="42.891601" lon="-7.970598">
        <ele>452.308</ele>
        <time>2022-08-22T08:34:49Z</time>
      </trkpt>
      <trkpt lat="42.891637" lon="-7.970656">
        <ele>452.509</ele>
        <time>2022-08-22T08:34:53Z</time>
      </trkpt>
      <trkpt lat="42.891678" lon="-7.970705">
        <ele>452.733</ele>
        <time>2022-08-22T08:34:57Z</time>
      </trkpt>
      <trkpt lat="42.891715" lon="-7.970757">
        <ele>453.023</ele>
        <time>2022-08-22T08:35:01Z</time>
      </trkpt>
      <trkpt lat="42.891755" lon="-7.970809">
        <ele>453.233</ele>
        <time>2022-08-22T08:35:05Z</time>
      </trkpt>
      <trkpt lat="42.891792" lon="-7.970849">
        <ele>453.316</ele>
        <time>2022-08-22T08:35:08Z</time>
      </trkpt>
      <trkpt lat="42.891834" lon="-7.970903">
        <ele>453.538</ele>
        <time>2022-08-22T08:35:12Z</time>
      </trkpt>
      <trkpt lat="42.891877" lon="-7.970959">
        <ele>453.730</ele>
        <time>2022-08-22T08:35:16Z</time>
      </trkpt>
      <trkpt lat="42.891922" lon="-7.971011">
        <ele>453.930</ele>
        <time>2022-08-22T08:35:20Z</time>
      </trkpt>
      <trkpt lat="42.891960" lon="-7.971066">
        <ele>454.155</ele>
        <time>2022-08-22T08:35:24Z</time>
      </trkpt>
      <trkpt lat="42.891995" lon="-7.971127">
        <ele>454.210</ele>
        <time>2022-08-22T08:35:28Z</time>
      </trkpt>
      <trkpt lat="42.892039" lon="-7.971175">
        <ele>454.395</ele>
        <time>2022-08-22T08:35:32Z</time>
      </trkpt>
      <trkpt lat="42.892077" lon="-7.971225">
        <ele>454.649</ele>
        <time>2022-08-22T08:35:36Z</time>
      </trkpt>
      <trkpt lat="42.892114" lon="-7.971270">
        <ele>454.823</ele>
        <time>2022-08-22T08:35:40Z</time>
      </trkpt>
      <trkpt lat="42.892153" lon="-7.971313">
        <ele>454.909</ele>
        <time>2022-08-22T08:35:44Z</time>
      </trkpt>
      <trkpt lat="42.892192" lon="-7.971363">
        <ele>455.170</ele>
        <time>2022-08-22T08:35:48Z</time>
      </trkpt>
      <trkpt lat="42.892232" lon="-7.971414">
        <ele>455.370</ele>
        <time>2022-08-22T08:35:52Z</time>
      </trkpt>
      <trkpt lat="42.892274" lon="-7.971447">
        <ele>455.530</ele>
        <time>2022-08-22T08:35:56Z</time>
      </trkpt>
      <trkpt lat="42.892319" lon="-7.971492">
        <ele>455.723</ele>
        <time>2022-08-22T08:36:00Z</time>
      </trkpt>
      <trkpt lat="42.892362" lon="-7.971527">
        <ele>456.065</ele>
        <time>2022-08-22T08:36:04Z</time>
      </trkpt>
      <trkpt lat="42.892396" lon="-7.971572">
        <ele>456.457</ele>
        <time>2022-08-22T08:36:08Z</time>
      </trkpt>
      <trkpt lat="42.892440" lon="-7.971611">
        <ele>456.767</ele>
        <time>2022-08-22T08:36:12Z</time>
      </trkpt>
      <trkpt lat="42.892483" lon="-7.971657">
        <ele>457.022</ele>
        <time>2022-08-22T08:36:16Z</time>
      </trkpt>
      <trkpt lat="42.892526" lon="-7.971702">
        <ele>457.377</ele>
        <time>2022-08-22T08:36:20Z</time>
      </trkpt>
      <trkpt lat="42.892558" lon="-7.971746">
        <ele>457.622</ele>
        <time>2022-08-22T08:36:24Z</time>
      </trkpt>
      <trkpt lat="42.892591" lon="-7.971807">
        <ele>457.962</ele>
        <time>2022-08-22T08:36:28Z</time>
      </trkpt>
      <trkpt lat="42.892621" lon="-7.971861">
        <ele>458.308</ele>
        <time>2022-08-22T08:36:32Z</time>
      </trkpt>
      <trkpt lat="42.892659" lon="-7.971906">
        <ele>458.809</ele>
        <time>2022-08-22T08:36:36Z</time>
      </trkpt>
      <trkpt lat="42.892702" lon="-7.971959">
        <ele>459.263</ele>
        <time>2022-08-22T08:36:40Z</time>
      </trkpt>
      <trkpt lat="42.892739" lon="-7.972010">
        <ele>459.543</ele>
        <time>2022-08-22T08:36:44Z</time>
      </trkpt>
      <trkpt lat="42.892775" lon="-7.972062">
        <ele>459.823</ele>
        <time>2022-08-22T08:36:48Z</time>
      </trkpt>
      <trkpt lat="42.892814" lon="-7.972117">
        <ele>460.066</ele>
        <time>2022-08-22T08:36:52Z</time>
      </trkpt>
      <trkpt lat="42.892855" lon="-7.972174">
        <ele>460.418</ele>
        <time>2022-08-22T08:36:56Z</time>
      </trkpt>
      <trkpt lat="42.892894" lon="-7.972232">
        <ele>460.730</ele>
        <time>2022-08-22T08:37:00Z</time>
      </trkpt>
      <trkpt lat="42.892933" lon="-7.972286">
        <ele>461.150</ele>
        <time>2022-08-22T08:37:04Z</time>
      </trkpt>
      <trkpt lat="42.892971" lon="-7.972344">
        <ele>461.565</ele>
        <time>2022-08-22T08:37:08Z</time>
      </trkpt>
      <trkpt lat="42.893007" lon="-7.972392">
        <ele>461.820</ele>
        <time>2022-08-22T08:37:12Z</time>
      </trkpt>
      <trkpt lat="42.893041" lon="-7.972451">
        <ele>462.172</ele>
        <time>2022-08-22T08:37:16Z</time>
      </trkpt>
      <trkpt lat="42.893071" lon="-7.972500">
        <ele>462.313</ele>
        <time>2022-08-22T08:37:20Z</time>
      </trkpt>
      <trkpt lat="42.893104" lon="-7.972549">
        <ele>462.614</ele>
        <time>2022-08-22T08:37:24Z</time>
      </trkpt>
      <trkpt lat="42.893143" lon="-7.972602">
        <ele>463.009</ele>
        <time>2022-08-22T08:37:28Z</time>
      </trkpt>
      <trkpt lat="42.893173" lon="-7.972649">
        <ele>463.388</ele>
        <time>2022-08-22T08:37:31Z</time>
      </trkpt>
      <trkpt lat="42.893209" lon="-7.972709">
        <ele>463.638</ele>
        <time>2022-08-22T08:37:35Z</time>
      </trkpt>
      <trkpt lat="42.893251" lon="-7.972762">
        <ele>463.928</ele>
        <time>2022-08-22T08:37:39Z</time>
      </trkpt>
      <trkpt lat="42.893285" lon="-7.972818">
        <ele>464.181</ele>
        <time>2022-08-22T08:37:43Z</time>
      </trkpt>
      <trkpt lat="42.893322" lon="-7.972877">
        <ele>464.533</ele>
        <time>2022-08-22T08:37:47Z</time>
      </trkpt>
      <trkpt lat="42.893355" lon="-7.972926">
        <ele>464.695</ele>
        <time>2022-08-22T08:37:50Z</time>
      </trkpt>
      <trkpt lat="42.893392" lon="-7.972983">
        <ele>464.735</ele>
        <time>2022-08-22T08:37:54Z</time>
      </trkpt>
      <trkpt lat="42.893430" lon="-7.973037">
        <ele>464.830</ele>
        <time>2022-08-22T08:37:58Z</time>
      </trkpt>
      <trkpt lat="42.893465" lon="-7.973098">
        <ele>464.935</ele>
        <time>2022-08-22T08:38:02Z</time>
      </trkpt>
      <trkpt lat="42.893499" lon="-7.973156">
        <ele>465.053</ele>
        <time>2022-08-22T08:38:06Z</time>
      </trkpt>
      <trkpt lat="42.893536" lon="-7.973216">
        <ele>465.104</ele>
        <time>2022-08-22T08:38:10Z</time>
      </trkpt>
      <trkpt lat="42.893573" lon="-7.973254">
        <ele>465.214</ele>
        <time>2022-08-22T08:38:13Z</time>
      </trkpt>
      <trkpt lat="42.893622" lon="-7.973304">
        <ele>465.209</ele>
        <time>2022-08-22T08:38:17Z</time>
      </trkpt>
      <trkpt lat="42.893663" lon="-7.973333">
        <ele>465.246</ele>
        <time>2022-08-22T08:38:20Z</time>
      </trkpt>
      <trkpt lat="42.893722" lon="-7.973348">
        <ele>465.376</ele>
        <time>2022-08-22T08:38:24Z</time>
      </trkpt>
      <trkpt lat="42.893779" lon="-7.973353">
        <ele>465.366</ele>
        <time>2022-08-22T08:38:28Z</time>
      </trkpt>
      <trkpt lat="42.893832" lon="-7.973365">
        <ele>465.369</ele>
        <time>2022-08-22T08:38:32Z</time>
      </trkpt>
      <trkpt lat="42.893872" lon="-7.973415">
        <ele>465.361</ele>
        <time>2022-08-22T08:38:37Z</time>
      </trkpt>
      <trkpt lat="42.893906" lon="-7.973470">
        <ele>465.393</ele>
        <time>2022-08-22T08:38:42Z</time>
      </trkpt>
      <trkpt lat="42.893937" lon="-7.973515">
        <ele>465.363</ele>
        <time>2022-08-22T08:38:46Z</time>
      </trkpt>
      <trkpt lat="42.893974" lon="-7.973576">
        <ele>465.338</ele>
        <time>2022-08-22T08:38:51Z</time>
      </trkpt>
      <trkpt lat="42.894001" lon="-7.973631">
        <ele>465.383</ele>
        <time>2022-08-22T08:38:55Z</time>
      </trkpt>
      <trkpt lat="42.894025" lon="-7.973683">
        <ele>465.341</ele>
        <time>2022-08-22T08:38:58Z</time>
      </trkpt>
      <trkpt lat="42.894058" lon="-7.973742">
        <ele>465.381</ele>
        <time>2022-08-22T08:39:02Z</time>
      </trkpt>
      <trkpt lat="42.894089" lon="-7.973801">
        <ele>465.309</ele>
        <time>2022-08-22T08:39:06Z</time>
      </trkpt>
      <trkpt lat="42.894122" lon="-7.973860">
        <ele>465.309</ele>
        <time>2022-08-22T08:39:10Z</time>
      </trkpt>
      <trkpt lat="42.894153" lon="-7.973922">
        <ele>465.225</ele>
        <time>2022-08-22T08:39:14Z</time>
      </trkpt>
      <trkpt lat="42.894178" lon="-7.973990">
        <ele>465.125</ele>
        <time>2022-08-22T08:39:18Z</time>
      </trkpt>
      <trkpt lat="42.894194" lon="-7.974053">
        <ele>465.165</ele>
        <time>2022-08-22T08:39:21Z</time>
      </trkpt>
      <trkpt lat="42.894212" lon="-7.974116">
        <ele>465.198</ele>
        <time>2022-08-22T08:39:24Z</time>
      </trkpt>
      <trkpt lat="42.894231" lon="-7.974177">
        <ele>465.030</ele>
        <time>2022-08-22T08:39:27Z</time>
      </trkpt>
      <trkpt lat="42.894248" lon="-7.974254">
        <ele>464.922</ele>
        <time>2022-08-22T08:39:31Z</time>
      </trkpt>
      <trkpt lat="42.894258" lon="-7.974315">
        <ele>464.842</ele>
        <time>2022-08-22T08:39:34Z</time>
      </trkpt>
      <trkpt lat="42.894262" lon="-7.974376">
        <ele>464.757</ele>
        <time>2022-08-22T08:39:37Z</time>
      </trkpt>
      <trkpt lat="42.894266" lon="-7.974439">
        <ele>464.672</ele>
        <time>2022-08-22T08:39:40Z</time>
      </trkpt>
      <trkpt lat="42.894249" lon="-7.974515">
        <ele>464.642</ele>
        <time>2022-08-22T08:39:44Z</time>
      </trkpt>
      <trkpt lat="42.894217" lon="-7.974582">
        <ele>464.522</ele>
        <time>2022-08-22T08:39:48Z</time>
      </trkpt>
      <trkpt lat="42.894181" lon="-7.974643">
        <ele>464.314</ele>
        <time>2022-08-22T08:39:52Z</time>
      </trkpt>
      <trkpt lat="42.894148" lon="-7.974704">
        <ele>464.209</ele>
        <time>2022-08-22T08:39:56Z</time>
      </trkpt>
      <trkpt lat="42.894112" lon="-7.974746">
        <ele>464.225</ele>
        <time>2022-08-22T08:40:00Z</time>
      </trkpt>
      <trkpt lat="42.894081" lon="-7.974794">
        <ele>464.265</ele>
        <time>2022-08-22T08:40:04Z</time>
      </trkpt>
      <trkpt lat="42.894053" lon="-7.974844">
        <ele>464.265</ele>
        <time>2022-08-22T08:40:08Z</time>
      </trkpt>
      <trkpt lat="42.894023" lon="-7.974892">
        <ele>464.298</ele>
        <time>2022-08-22T08:40:12Z</time>
      </trkpt>
      <trkpt lat="42.893991" lon="-7.974948">
        <ele>464.230</ele>
        <time>2022-08-22T08:40:16Z</time>
      </trkpt>
      <trkpt lat="42.893960" lon="-7.975002">
        <ele>464.272</ele>
        <time>2022-08-22T08:40:20Z</time>
      </trkpt>
      <trkpt lat="42.893929" lon="-7.975062">
        <ele>464.242</ele>
        <time>2022-08-22T08:40:24Z</time>
      </trkpt>
      <trkpt lat="42.893907" lon="-7.975117">
        <ele>464.117</ele>
        <time>2022-08-22T08:40:28Z</time>
      </trkpt>
      <trkpt lat="42.893877" lon="-7.975167">
        <ele>464.042</ele>
        <time>2022-08-22T08:40:31Z</time>
      </trkpt>
      <trkpt lat="42.893845" lon="-7.975231">
        <ele>463.916</ele>
        <time>2022-08-22T08:40:35Z</time>
      </trkpt>
      <trkpt lat="42.893813" lon="-7.975298">
        <ele>463.976</ele>
        <time>2022-08-22T08:40:39Z</time>
      </trkpt>
      <trkpt lat="42.893785" lon="-7.975367">
        <ele>463.813</ele>
        <time>2022-08-22T08:40:43Z</time>
      </trkpt>
      <trkpt lat="42.893762" lon="-7.975433">
        <ele>463.609</ele>
        <time>2022-08-22T08:40:47Z</time>
      </trkpt>
      <trkpt lat="42.893743" lon="-7.975491">
        <ele>463.672</ele>
        <time>2022-08-22T08:40:50Z</time>
      </trkpt>
      <trkpt lat="42.893725" lon="-7.975553">
        <ele>463.622</ele>
        <time>2022-08-22T08:40:53Z</time>
      </trkpt>
      <trkpt lat="42.893705" lon="-7.975617">
        <ele>463.552</ele>
        <time>2022-08-22T08:40:57Z</time>
      </trkpt>
      <trkpt lat="42.893675" lon="-7.975681">
        <ele>463.455</ele>
        <time>2022-08-22T08:41:01Z</time>
      </trkpt>
      <trkpt lat="42.893654" lon="-7.975750">
        <ele>463.397</ele>
        <time>2022-08-22T08:41:05Z</time>
      </trkpt>
      <trkpt lat="42.893629" lon="-7.975816">
        <ele>463.289</ele>
        <time>2022-08-22T08:41:09Z</time>
      </trkpt>
      <trkpt lat="42.893608" lon="-7.975871">
        <ele>463.159</ele>
        <time>2022-08-22T08:41:12Z</time>
      </trkpt>
      <trkpt lat="42.893588" lon="-7.975937">
        <ele>463.094</ele>
        <time>2022-08-22T08:41:16Z</time>
      </trkpt>
      <trkpt lat="42.893579" lon="-7.976007">
        <ele>462.979</ele>
        <time>2022-08-22T08:41:20Z</time>
      </trkpt>
      <trkpt lat="42.893578" lon="-7.976072">
        <ele>462.817</ele>
        <time>2022-08-22T08:41:24Z</time>
      </trkpt>
      <trkpt lat="42.893601" lon="-7.976148">
        <ele>462.787</ele>
        <time>2022-08-22T08:41:29Z</time>
      </trkpt>
      <trkpt lat="42.893626" lon="-7.976217">
        <ele>462.615</ele>
        <time>2022-08-22T08:41:33Z</time>
      </trkpt>
      <trkpt lat="42.893659" lon="-7.976262">
        <ele>462.409</ele>
        <time>2022-08-22T08:41:36Z</time>
      </trkpt>
      <trkpt lat="42.893693" lon="-7.976305">
        <ele>462.332</ele>
        <time>2022-08-22T08:41:40Z</time>
      </trkpt>
      <trkpt lat="42.893731" lon="-7.976353">
        <ele>462.222</ele>
        <time>2022-08-22T08:41:44Z</time>
      </trkpt>
      <trkpt lat="42.893769" lon="-7.976394">
        <ele>462.122</ele>
        <time>2022-08-22T08:41:48Z</time>
      </trkpt>
      <trkpt lat="42.893812" lon="-7.976445">
        <ele>461.945</ele>
        <time>2022-08-22T08:41:52Z</time>
      </trkpt>
      <trkpt lat="42.893845" lon="-7.976492">
        <ele>461.837</ele>
        <time>2022-08-22T08:41:56Z</time>
      </trkpt>
      <trkpt lat="42.893880" lon="-7.976539">
        <ele>461.719</ele>
        <time>2022-08-22T08:42:00Z</time>
      </trkpt>
      <trkpt lat="42.893915" lon="-7.976581">
        <ele>461.569</ele>
        <time>2022-08-22T08:42:04Z</time>
      </trkpt>
      <trkpt lat="42.893954" lon="-7.976623">
        <ele>461.384</ele>
        <time>2022-08-22T08:42:08Z</time>
      </trkpt>
      <trkpt lat="42.893989" lon="-7.976669">
        <ele>461.289</ele>
        <time>2022-08-22T08:42:12Z</time>
      </trkpt>
      <trkpt lat="42.894025" lon="-7.976719">
        <ele>461.183</ele>
        <time>2022-08-22T08:42:16Z</time>
      </trkpt>
      <trkpt lat="42.894065" lon="-7.976767">
        <ele>461.025</ele>
        <time>2022-08-22T08:42:20Z</time>
      </trkpt>
      <trkpt lat="42.894103" lon="-7.976808">
        <ele>460.817</ele>
        <time>2022-08-22T08:42:24Z</time>
      </trkpt>
      <trkpt lat="42.894143" lon="-7.976848">
        <ele>460.609</ele>
        <time>2022-08-22T08:42:28Z</time>
      </trkpt>
      <trkpt lat="42.894180" lon="-7.976892">
        <ele>460.349</ele>
        <time>2022-08-22T08:42:32Z</time>
      </trkpt>
      <trkpt lat="42.894213" lon="-7.976948">
        <ele>460.069</ele>
        <time>2022-08-22T08:42:36Z</time>
      </trkpt>
      <trkpt lat="42.894249" lon="-7.976989">
        <ele>459.899</ele>
        <time>2022-08-22T08:42:40Z</time>
      </trkpt>
      <trkpt lat="42.894282" lon="-7.977036">
        <ele>459.772</ele>
        <time>2022-08-22T08:42:44Z</time>
      </trkpt>
      <trkpt lat="42.894320" lon="-7.977091">
        <ele>459.654</ele>
        <time>2022-08-22T08:42:48Z</time>
      </trkpt>
      <trkpt lat="42.894359" lon="-7.977148">
        <ele>459.596</ele>
        <time>2022-08-22T08:42:53Z</time>
      </trkpt>
      <trkpt lat="42.894394" lon="-7.977196">
        <ele>459.516</ele>
        <time>2022-08-22T08:42:57Z</time>
      </trkpt>
      <trkpt lat="42.894443" lon="-7.977239">
        <ele>459.551</ele>
        <time>2022-08-22T08:43:01Z</time>
      </trkpt>
      <trkpt lat="42.894486" lon="-7.977289">
        <ele>459.376</ele>
        <time>2022-08-22T08:43:05Z</time>
      </trkpt>
      <trkpt lat="42.894523" lon="-7.977331">
        <ele>459.379</ele>
        <time>2022-08-22T08:43:09Z</time>
      </trkpt>
      <trkpt lat="42.894564" lon="-7.977370">
        <ele>459.305</ele>
        <time>2022-08-22T08:43:13Z</time>
      </trkpt>
      <trkpt lat="42.894605" lon="-7.977425">
        <ele>459.225</ele>
        <time>2022-08-22T08:43:17Z</time>
      </trkpt>
      <trkpt lat="42.894646" lon="-7.977461">
        <ele>459.209</ele>
        <time>2022-08-22T08:43:22Z</time>
      </trkpt>
      <trkpt lat="42.894680" lon="-7.977505">
        <ele>459.158</ele>
        <time>2022-08-22T08:43:26Z</time>
      </trkpt>
      <trkpt lat="42.894712" lon="-7.977557">
        <ele>459.038</ele>
        <time>2022-08-22T08:43:30Z</time>
      </trkpt>
      <trkpt lat="42.894755" lon="-7.977601">
        <ele>458.958</ele>
        <time>2022-08-22T08:43:35Z</time>
      </trkpt>
      <trkpt lat="42.894788" lon="-7.977646">
        <ele>458.861</ele>
        <time>2022-08-22T08:43:39Z</time>
      </trkpt>
      <trkpt lat="42.894824" lon="-7.977684">
        <ele>458.763</ele>
        <time>2022-08-22T08:43:42Z</time>
      </trkpt>
      <trkpt lat="42.894873" lon="-7.977710">
        <ele>458.665</ele>
        <time>2022-08-22T08:43:46Z</time>
      </trkpt>
      <trkpt lat="42.894915" lon="-7.977760">
        <ele>458.595</ele>
        <time>2022-08-22T08:43:50Z</time>
      </trkpt>
      <trkpt lat="42.894958" lon="-7.977794">
        <ele>458.470</ele>
        <time>2022-08-22T08:43:54Z</time>
      </trkpt>
      <trkpt lat="42.894998" lon="-7.977836">
        <ele>458.375</ele>
        <time>2022-08-22T08:43:58Z</time>
      </trkpt>
      <trkpt lat="42.895038" lon="-7.977887">
        <ele>458.221</ele>
        <time>2022-08-22T08:44:02Z</time>
      </trkpt>
      <trkpt lat="42.895084" lon="-7.977925">
        <ele>458.141</ele>
        <time>2022-08-22T08:44:06Z</time>
      </trkpt>
      <trkpt lat="42.895117" lon="-7.977974">
        <ele>458.005</ele>
        <time>2022-08-22T08:44:10Z</time>
      </trkpt>
      <trkpt lat="42.895161" lon="-7.978012">
        <ele>457.909</ele>
        <time>2022-08-22T08:44:14Z</time>
      </trkpt>
      <trkpt lat="42.895198" lon="-7.978053">
        <ele>457.843</ele>
        <time>2022-08-22T08:44:18Z</time>
      </trkpt>
      <trkpt lat="42.895245" lon="-7.978097">
        <ele>457.793</ele>
        <time>2022-08-22T08:44:22Z</time>
      </trkpt>
      <trkpt lat="42.895285" lon="-7.978140">
        <ele>457.693</ele>
        <time>2022-08-22T08:44:26Z</time>
      </trkpt>
      <trkpt lat="42.895322" lon="-7.978180">
        <ele>457.676</ele>
        <time>2022-08-22T08:44:30Z</time>
      </trkpt>
      <trkpt lat="42.895365" lon="-7.978227">
        <ele>457.648</ele>
        <time>2022-08-22T08:44:35Z</time>
      </trkpt>
      <trkpt lat="42.895404" lon="-7.978284">
        <ele>457.670</ele>
        <time>2022-08-22T08:44:39Z</time>
      </trkpt>
      <trkpt lat="42.895449" lon="-7.978333">
        <ele>457.660</ele>
        <time>2022-08-22T08:44:43Z</time>
      </trkpt>
      <trkpt lat="42.895495" lon="-7.978378">
        <ele>457.665</ele>
        <time>2022-08-22T08:44:47Z</time>
      </trkpt>
      <trkpt lat="42.895545" lon="-7.978417">
        <ele>457.510</ele>
        <time>2022-08-22T08:44:51Z</time>
      </trkpt>
      <trkpt lat="42.895587" lon="-7.978461">
        <ele>457.419</ele>
        <time>2022-08-22T08:44:55Z</time>
      </trkpt>
      <trkpt lat="42.895632" lon="-7.978507">
        <ele>457.309</ele>
        <time>2022-08-22T08:44:59Z</time>
      </trkpt>
      <trkpt lat="42.895676" lon="-7.978553">
        <ele>457.219</ele>
        <time>2022-08-22T08:45:03Z</time>
      </trkpt>
      <trkpt lat="42.895717" lon="-7.978605">
        <ele>457.109</ele>
        <time>2022-08-22T08:45:07Z</time>
      </trkpt>
      <trkpt lat="42.895765" lon="-7.978650">
        <ele>457.092</ele>
        <time>2022-08-22T08:45:11Z</time>
      </trkpt>
      <trkpt lat="42.895812" lon="-7.978684">
        <ele>456.932</ele>
        <time>2022-08-22T08:45:15Z</time>
      </trkpt>
      <trkpt lat="42.895848" lon="-7.978723">
        <ele>456.932</ele>
        <time>2022-08-22T08:45:18Z</time>
      </trkpt>
      <trkpt lat="42.895893" lon="-7.978768">
        <ele>456.865</ele>
        <time>2022-08-22T08:45:22Z</time>
      </trkpt>
      <trkpt lat="42.895939" lon="-7.978821">
        <ele>456.697</ele>
        <time>2022-08-22T08:45:26Z</time>
      </trkpt>
      <trkpt lat="42.895975" lon="-7.978862">
        <ele>456.619</ele>
        <time>2022-08-22T08:45:29Z</time>
      </trkpt>
      <trkpt lat="42.896009" lon="-7.978907">
        <ele>456.589</ele>
        <time>2022-08-22T08:45:32Z</time>
      </trkpt>
      <trkpt lat="42.896043" lon="-7.978952">
        <ele>456.444</ele>
        <time>2022-08-22T08:45:35Z</time>
      </trkpt>
      <trkpt lat="42.896084" lon="-7.979006">
        <ele>456.429</ele>
        <time>2022-08-22T08:45:39Z</time>
      </trkpt>
      <trkpt lat="42.896123" lon="-7.979065">
        <ele>456.472</ele>
        <time>2022-08-22T08:45:43Z</time>
      </trkpt>
      <trkpt lat="42.896163" lon="-7.979122">
        <ele>456.413</ele>
        <time>2022-08-22T08:45:47Z</time>
      </trkpt>
      <trkpt lat="42.896205" lon="-7.979174">
        <ele>456.414</ele>
        <time>2022-08-22T08:45:51Z</time>
      </trkpt>
      <trkpt lat="42.896243" lon="-7.979229">
        <ele>456.309</ele>
        <time>2022-08-22T08:45:55Z</time>
      </trkpt>
      <trkpt lat="42.896285" lon="-7.979282">
        <ele>456.238</ele>
        <time>2022-08-22T08:45:59Z</time>
      </trkpt>
      <trkpt lat="42.896324" lon="-7.979338">
        <ele>456.198</ele>
        <time>2022-08-22T08:46:03Z</time>
      </trkpt>
      <trkpt lat="42.896367" lon="-7.979384">
        <ele>456.088</ele>
        <time>2022-08-22T08:46:07Z</time>
      </trkpt>
      <trkpt lat="42.896408" lon="-7.979432">
        <ele>456.071</ele>
        <time>2022-08-22T08:46:11Z</time>
      </trkpt>
      <trkpt lat="42.896446" lon="-7.979484">
        <ele>455.913</ele>
        <time>2022-08-22T08:46:15Z</time>
      </trkpt>
      <trkpt lat="42.896481" lon="-7.979537">
        <ele>455.865</ele>
        <time>2022-08-22T08:46:19Z</time>
      </trkpt>
      <trkpt lat="42.896520" lon="-7.979588">
        <ele>455.755</ele>
        <time>2022-08-22T08:46:23Z</time>
      </trkpt>
      <trkpt lat="42.896554" lon="-7.979648">
        <ele>455.560</ele>
        <time>2022-08-22T08:46:27Z</time>
      </trkpt>
      <trkpt lat="42.896591" lon="-7.979701">
        <ele>455.465</ele>
        <time>2022-08-22T08:46:31Z</time>
      </trkpt>
      <trkpt lat="42.896627" lon="-7.979755">
        <ele>455.387</ele>
        <time>2022-08-22T08:46:35Z</time>
      </trkpt>
      <trkpt lat="42.896663" lon="-7.979807">
        <ele>455.242</ele>
        <time>2022-08-22T08:46:39Z</time>
      </trkpt>
      <trkpt lat="42.896704" lon="-7.979855">
        <ele>455.126</ele>
        <time>2022-08-22T08:46:43Z</time>
      </trkpt>
      <trkpt lat="42.896748" lon="-7.979903">
        <ele>455.009</ele>
        <time>2022-08-22T08:46:47Z</time>
      </trkpt>
      <trkpt lat="42.896788" lon="-7.979954">
        <ele>454.859</ele>
        <time>2022-08-22T08:46:51Z</time>
      </trkpt>
      <trkpt lat="42.896828" lon="-7.980003">
        <ele>454.679</ele>
        <time>2022-08-22T08:46:55Z</time>
      </trkpt>
      <trkpt lat="42.896876" lon="-7.980041">
        <ele>454.469</ele>
        <time>2022-08-22T08:46:59Z</time>
      </trkpt>
      <trkpt lat="42.896921" lon="-7.980085">
        <ele>454.242</ele>
        <time>2022-08-22T08:47:03Z</time>
      </trkpt>
      <trkpt lat="42.896966" lon="-7.980130">
        <ele>454.024</ele>
        <time>2022-08-22T08:47:07Z</time>
      </trkpt>
      <trkpt lat="42.897013" lon="-7.980170">
        <ele>453.856</ele>
        <time>2022-08-22T08:47:11Z</time>
      </trkpt>
      <trkpt lat="42.897058" lon="-7.980212">
        <ele>453.646</ele>
        <time>2022-08-22T08:47:15Z</time>
      </trkpt>
      <trkpt lat="42.897101" lon="-7.980256">
        <ele>453.551</ele>
        <time>2022-08-22T08:47:19Z</time>
      </trkpt>
      <trkpt lat="42.897146" lon="-7.980298">
        <ele>453.446</ele>
        <time>2022-08-22T08:47:23Z</time>
      </trkpt>
      <trkpt lat="42.897190" lon="-7.980340">
        <ele>453.343</ele>
        <time>2022-08-22T08:47:27Z</time>
      </trkpt>
      <trkpt lat="42.897231" lon="-7.980388">
        <ele>453.264</ele>
        <time>2022-08-22T08:47:31Z</time>
      </trkpt>
      <trkpt lat="42.897278" lon="-7.980426">
        <ele>453.110</ele>
        <time>2022-08-22T08:47:35Z</time>
      </trkpt>
      <trkpt lat="42.897323" lon="-7.980470">
        <ele>453.009</ele>
        <time>2022-08-22T08:47:39Z</time>
      </trkpt>
      <trkpt lat="42.897369" lon="-7.980510">
        <ele>452.925</ele>
        <time>2022-08-22T08:47:43Z</time>
      </trkpt>
      <trkpt lat="42.897414" lon="-7.980553">
        <ele>452.875</ele>
        <time>2022-08-22T08:47:47Z</time>
      </trkpt>
      <trkpt lat="42.897456" lon="-7.980597">
        <ele>452.755</ele>
        <time>2022-08-22T08:47:51Z</time>
      </trkpt>
      <trkpt lat="42.897502" lon="-7.980639">
        <ele>452.658</ele>
        <time>2022-08-22T08:47:55Z</time>
      </trkpt>
      <trkpt lat="42.897548" lon="-7.980683">
        <ele>452.510</ele>
        <time>2022-08-22T08:47:59Z</time>
      </trkpt>
      <trkpt lat="42.897592" lon="-7.980727">
        <ele>452.452</ele>
        <time>2022-08-22T08:48:03Z</time>
      </trkpt>
      <trkpt lat="42.897633" lon="-7.980777">
        <ele>452.312</ele>
        <time>2022-08-22T08:48:07Z</time>
      </trkpt>
      <trkpt lat="42.897667" lon="-7.980836">
        <ele>452.137</ele>
        <time>2022-08-22T08:48:11Z</time>
      </trkpt>
      <trkpt lat="42.897698" lon="-7.980894">
        <ele>452.062</ele>
        <time>2022-08-22T08:48:15Z</time>
      </trkpt>
      <trkpt lat="42.897732" lon="-7.980950">
        <ele>452.029</ele>
        <time>2022-08-22T08:48:19Z</time>
      </trkpt>
      <trkpt lat="42.897767" lon="-7.981010">
        <ele>452.000</ele>
        <time>2022-08-22T08:48:24Z</time>
      </trkpt>
      <trkpt lat="42.897795" lon="-7.981061">
        <ele>452.020</ele>
        <time>2022-08-22T08:48:28Z</time>
      </trkpt>
      <trkpt lat="42.897815" lon="-7.981116">
        <ele>452.009</ele>
        <time>2022-08-22T08:48:32Z</time>
      </trkpt>
      <trkpt lat="42.897845" lon="-7.981173">
        <ele>452.043</ele>
        <time>2022-08-22T08:48:37Z</time>
      </trkpt>
      <trkpt lat="42.897875" lon="-7.981222">
        <ele>452.093</ele>
        <time>2022-08-22T08:48:40Z</time>
      </trkpt>
      <trkpt lat="42.897903" lon="-7.981284">
        <ele>452.073</ele>
        <time>2022-08-22T08:48:45Z</time>
      </trkpt>
      <trkpt lat="42.897930" lon="-7.981337">
        <ele>452.056</ele>
        <time>2022-08-22T08:48:49Z</time>
      </trkpt>
      <trkpt lat="42.897962" lon="-7.981402">
        <ele>452.088</ele>
        <time>2022-08-22T08:48:53Z</time>
      </trkpt>
      <trkpt lat="42.897992" lon="-7.981450">
        <ele>452.050</ele>
        <time>2022-08-22T08:48:57Z</time>
      </trkpt>
      <trkpt lat="42.898024" lon="-7.981500">
        <ele>452.040</ele>
        <time>2022-08-22T08:49:01Z</time>
      </trkpt>
      <trkpt lat="42.898048" lon="-7.981554">
        <ele>452.095</ele>
        <time>2022-08-22T08:49:05Z</time>
      </trkpt>
      <trkpt lat="42.898073" lon="-7.981616">
        <ele>452.070</ele>
        <time>2022-08-22T08:49:09Z</time>
      </trkpt>
      <trkpt lat="42.898106" lon="-7.981671">
        <ele>452.077</ele>
        <time>2022-08-22T08:49:13Z</time>
      </trkpt>
      <trkpt lat="42.898133" lon="-7.981724">
        <ele>452.061</ele>
        <time>2022-08-22T08:49:17Z</time>
      </trkpt>
      <trkpt lat="42.898162" lon="-7.981782">
        <ele>452.027</ele>
        <time>2022-08-22T08:49:21Z</time>
      </trkpt>
      <trkpt lat="42.898190" lon="-7.981832">
        <ele>452.009</ele>
        <time>2022-08-22T08:49:24Z</time>
      </trkpt>
      <trkpt lat="42.898218" lon="-7.981899">
        <ele>451.958</ele>
        <time>2022-08-22T08:49:28Z</time>
      </trkpt>
      <trkpt lat="42.898252" lon="-7.981963">
        <ele>451.818</ele>
        <time>2022-08-22T08:49:32Z</time>
      </trkpt>
      <trkpt lat="42.898284" lon="-7.982022">
        <ele>451.898</ele>
        <time>2022-08-22T08:49:36Z</time>
      </trkpt>
      <trkpt lat="42.898311" lon="-7.982087">
        <ele>451.831</ele>
        <time>2022-08-22T08:49:40Z</time>
      </trkpt>
      <trkpt lat="42.898338" lon="-7.982165">
        <ele>451.873</ele>
        <time>2022-08-22T08:49:44Z</time>
      </trkpt>
      <trkpt lat="42.898367" lon="-7.982232">
        <ele>451.875</ele>
        <time>2022-08-22T08:49:48Z</time>
      </trkpt>
      <trkpt lat="42.898387" lon="-7.982306">
        <ele>451.835</ele>
        <time>2022-08-22T08:49:52Z</time>
      </trkpt>
      <trkpt lat="42.898414" lon="-7.982378">
        <ele>451.810</ele>
        <time>2022-08-22T08:49:56Z</time>
      </trkpt>
      <trkpt lat="42.898438" lon="-7.982448">
        <ele>451.825</ele>
        <time>2022-08-22T08:50:00Z</time>
      </trkpt>
      <trkpt lat="42.898470" lon="-7.982512">
        <ele>451.936</ele>
        <time>2022-08-22T08:50:04Z</time>
      </trkpt>
      <trkpt lat="42.898501" lon="-7.982578">
        <ele>451.917</ele>
        <time>2022-08-22T08:50:08Z</time>
      </trkpt>
      <trkpt lat="42.898527" lon="-7.982628">
        <ele>452.018</ele>
        <time>2022-08-22T08:50:11Z</time>
      </trkpt>
      <trkpt lat="42.898564" lon="-7.982690">
        <ele>452.109</ele>
        <time>2022-08-22T08:50:15Z</time>
      </trkpt>
      <trkpt lat="42.898597" lon="-7.982755">
        <ele>452.214</ele>
        <time>2022-08-22T08:50:19Z</time>
      </trkpt>
      <trkpt lat="42.898629" lon="-7.982817">
        <ele>452.294</ele>
        <time>2022-08-22T08:50:23Z</time>
      </trkpt>
      <trkpt lat="42.898661" lon="-7.982880">
        <ele>452.384</ele>
        <time>2022-08-22T08:50:27Z</time>
      </trkpt>
      <trkpt lat="42.898693" lon="-7.982941">
        <ele>452.367</ele>
        <time>2022-08-22T08:50:31Z</time>
      </trkpt>
      <trkpt lat="42.898725" lon="-7.983001">
        <ele>452.399</ele>
        <time>2022-08-22T08:50:35Z</time>
      </trkpt>
      <trkpt lat="42.898756" lon="-7.983063">
        <ele>452.391</ele>
        <time>2022-08-22T08:50:39Z</time>
      </trkpt>
      <trkpt lat="42.898788" lon="-7.983124">
        <ele>452.251</ele>
        <time>2022-08-22T08:50:43Z</time>
      </trkpt>
      <trkpt lat="42.898819" lon="-7.983182">
        <ele>452.176</ele>
        <time>2022-08-22T08:50:47Z</time>
      </trkpt>
      <trkpt lat="42.898852" lon="-7.983241">
        <ele>452.031</ele>
        <time>2022-08-22T08:50:51Z</time>
      </trkpt>
      <trkpt lat="42.898884" lon="-7.983303">
        <ele>452.016</ele>
        <time>2022-08-22T08:50:55Z</time>
      </trkpt>
      <trkpt lat="42.898913" lon="-7.983367">
        <ele>452.076</ele>
        <time>2022-08-22T08:50:59Z</time>
      </trkpt>
      <trkpt lat="42.898947" lon="-7.983424">
        <ele>452.113</ele>
        <time>2022-08-22T08:51:03Z</time>
      </trkpt>
      <trkpt lat="42.898975" lon="-7.983489">
        <ele>452.309</ele>
        <time>2022-08-22T08:51:07Z</time>
      </trkpt>
      <trkpt lat="42.899006" lon="-7.983550">
        <ele>452.462</ele>
        <time>2022-08-22T08:51:11Z</time>
      </trkpt>
      <trkpt lat="42.899036" lon="-7.983611">
        <ele>452.412</ele>
        <time>2022-08-22T08:51:15Z</time>
      </trkpt>
      <trkpt lat="42.899066" lon="-7.983672">
        <ele>452.492</ele>
        <time>2022-08-22T08:51:19Z</time>
      </trkpt>
      <trkpt lat="42.899097" lon="-7.983730">
        <ele>452.465</ele>
        <time>2022-08-22T08:51:23Z</time>
      </trkpt>
      <trkpt lat="42.899124" lon="-7.983794">
        <ele>452.467</ele>
        <time>2022-08-22T08:51:27Z</time>
      </trkpt>
      <trkpt lat="42.899154" lon="-7.983855">
        <ele>452.429</ele>
        <time>2022-08-22T08:51:31Z</time>
      </trkpt>
      <trkpt lat="42.899189" lon="-7.983912">
        <ele>452.419</ele>
        <time>2022-08-22T08:51:35Z</time>
      </trkpt>
      <trkpt lat="42.899225" lon="-7.983968">
        <ele>452.434</ele>
        <time>2022-08-22T08:51:39Z</time>
      </trkpt>
      <trkpt lat="42.899257" lon="-7.984027">
        <ele>452.449</ele>
        <time>2022-08-22T08:51:43Z</time>
      </trkpt>
      <trkpt lat="42.899285" lon="-7.984092">
        <ele>452.437</ele>
        <time>2022-08-22T08:51:47Z</time>
      </trkpt>
      <trkpt lat="42.899314" lon="-7.984150">
        <ele>452.449</ele>
        <time>2022-08-22T08:51:51Z</time>
      </trkpt>
      <trkpt lat="42.899349" lon="-7.984204">
        <ele>452.413</ele>
        <time>2022-08-22T08:51:55Z</time>
      </trkpt>
      <trkpt lat="42.899374" lon="-7.984267">
        <ele>452.409</ele>
        <time>2022-08-22T08:51:59Z</time>
      </trkpt>
      <trkpt lat="42.899400" lon="-7.984330">
        <ele>452.484</ele>
        <time>2022-08-22T08:52:03Z</time>
      </trkpt>
      <trkpt lat="42.899430" lon="-7.984391">
        <ele>452.464</ele>
        <time>2022-08-22T08:52:07Z</time>
      </trkpt>
      <trkpt lat="42.899455" lon="-7.984454">
        <ele>452.484</ele>
        <time>2022-08-22T08:52:11Z</time>
      </trkpt>
      <trkpt lat="42.899454" lon="-7.984525">
        <ele>452.497</ele>
        <time>2022-08-22T08:52:15Z</time>
      </trkpt>
      <trkpt lat="42.899468" lon="-7.984592">
        <ele>452.599</ele>
        <time>2022-08-22T08:52:19Z</time>
      </trkpt>
      <trkpt lat="42.899521" lon="-7.984591">
        <ele>452.531</ele>
        <time>2022-08-22T08:53:18Z</time>
      </trkpt>
      <trkpt lat="42.899560" lon="-7.984636">
        <ele>452.541</ele>
        <time>2022-08-22T08:53:23Z</time>
      </trkpt>
      <trkpt lat="42.899596" lon="-7.984679">
        <ele>452.626</ele>
        <time>2022-08-22T08:53:27Z</time>
      </trkpt>
      <trkpt lat="42.899623" lon="-7.984740">
        <ele>452.791</ele>
        <time>2022-08-22T08:53:31Z</time>
      </trkpt>
      <trkpt lat="42.899654" lon="-7.984795">
        <ele>452.865</ele>
        <time>2022-08-22T08:53:35Z</time>
      </trkpt>
      <trkpt lat="42.899684" lon="-7.984859">
        <ele>452.968</ele>
        <time>2022-08-22T08:53:39Z</time>
      </trkpt>
      <trkpt lat="42.899709" lon="-7.984923">
        <ele>453.014</ele>
        <time>2022-08-22T08:53:43Z</time>
      </trkpt>
      <trkpt lat="42.899738" lon="-7.984972">
        <ele>453.109</ele>
        <time>2022-08-22T08:53:47Z</time>
      </trkpt>
      <trkpt lat="42.899765" lon="-7.985040">
        <ele>453.247</ele>
        <time>2022-08-22T08:53:51Z</time>
      </trkpt>
      <trkpt lat="42.899794" lon="-7.985089">
        <ele>453.367</ele>
        <time>2022-08-22T08:53:54Z</time>
      </trkpt>
      <trkpt lat="42.899829" lon="-7.985152">
        <ele>453.497</ele>
        <time>2022-08-22T08:53:58Z</time>
      </trkpt>
      <trkpt lat="42.899858" lon="-7.985213">
        <ele>453.570</ele>
        <time>2022-08-22T08:54:02Z</time>
      </trkpt>
      <trkpt lat="42.899900" lon="-7.985270">
        <ele>453.772</ele>
        <time>2022-08-22T08:54:06Z</time>
      </trkpt>
      <trkpt lat="42.899932" lon="-7.985333">
        <ele>453.864</ele>
        <time>2022-08-22T08:54:10Z</time>
      </trkpt>
      <trkpt lat="42.899963" lon="-7.985397">
        <ele>453.934</ele>
        <time>2022-08-22T08:54:14Z</time>
      </trkpt>
      <trkpt lat="42.899990" lon="-7.985447">
        <ele>454.159</ele>
        <time>2022-08-22T08:54:17Z</time>
      </trkpt>
      <trkpt lat="42.900029" lon="-7.985504">
        <ele>454.374</ele>
        <time>2022-08-22T08:54:21Z</time>
      </trkpt>
      <trkpt lat="42.900062" lon="-7.985566">
        <ele>454.547</ele>
        <time>2022-08-22T08:54:25Z</time>
      </trkpt>
      <trkpt lat="42.900093" lon="-7.985629">
        <ele>454.729</ele>
        <time>2022-08-22T08:54:29Z</time>
      </trkpt>
      <trkpt lat="42.900120" lon="-7.985692">
        <ele>454.821</ele>
        <time>2022-08-22T08:54:33Z</time>
      </trkpt>
      <trkpt lat="42.900146" lon="-7.985748">
        <ele>455.109</ele>
        <time>2022-08-22T08:54:37Z</time>
      </trkpt>
      <trkpt lat="42.900174" lon="-7.985801">
        <ele>455.235</ele>
        <time>2022-08-22T08:54:41Z</time>
      </trkpt>
      <trkpt lat="42.900203" lon="-7.985856">
        <ele>455.445</ele>
        <time>2022-08-22T08:54:45Z</time>
      </trkpt>
      <trkpt lat="42.900230" lon="-7.985905">
        <ele>455.645</ele>
        <time>2022-08-22T08:54:49Z</time>
      </trkpt>
      <trkpt lat="42.900268" lon="-7.985968">
        <ele>455.858</ele>
        <time>2022-08-22T08:54:53Z</time>
      </trkpt>
      <trkpt lat="42.900302" lon="-7.986015">
        <ele>456.060</ele>
        <time>2022-08-22T08:54:56Z</time>
      </trkpt>
      <trkpt lat="42.900337" lon="-7.986056">
        <ele>456.272</ele>
        <time>2022-08-22T08:54:59Z</time>
      </trkpt>
      <trkpt lat="42.900386" lon="-7.986102">
        <ele>456.452</ele>
        <time>2022-08-22T08:55:03Z</time>
      </trkpt>
      <trkpt lat="42.900430" lon="-7.986156">
        <ele>456.697</ele>
        <time>2022-08-22T08:55:07Z</time>
      </trkpt>
      <trkpt lat="42.900479" lon="-7.986200">
        <ele>456.812</ele>
        <time>2022-08-22T08:55:11Z</time>
      </trkpt>
      <trkpt lat="42.900522" lon="-7.986221">
        <ele>456.913</ele>
        <time>2022-08-22T08:55:14Z</time>
      </trkpt>
      <trkpt lat="42.900570" lon="-7.986269">
        <ele>457.143</ele>
        <time>2022-08-22T08:55:18Z</time>
      </trkpt>
      <trkpt lat="42.900612" lon="-7.986320">
        <ele>457.207</ele>
        <time>2022-08-22T08:55:22Z</time>
      </trkpt>
      <trkpt lat="42.900646" lon="-7.986373">
        <ele>457.409</ele>
        <time>2022-08-22T08:55:26Z</time>
      </trkpt>
      <trkpt lat="42.900689" lon="-7.986420">
        <ele>457.522</ele>
        <time>2022-08-22T08:55:30Z</time>
      </trkpt>
      <trkpt lat="42.900716" lon="-7.986469">
        <ele>457.692</ele>
        <time>2022-08-22T08:55:33Z</time>
      </trkpt>
      <trkpt lat="42.900749" lon="-7.986523">
        <ele>457.792</ele>
        <time>2022-08-22T08:55:37Z</time>
      </trkpt>
      <trkpt lat="42.900781" lon="-7.986590">
        <ele>457.975</ele>
        <time>2022-08-22T08:55:41Z</time>
      </trkpt>
      <trkpt lat="42.900814" lon="-7.986637">
        <ele>458.037</ele>
        <time>2022-08-22T08:55:45Z</time>
      </trkpt>
      <trkpt lat="42.900849" lon="-7.986696">
        <ele>458.039</ele>
        <time>2022-08-22T08:55:49Z</time>
      </trkpt>
      <trkpt lat="42.900874" lon="-7.986760">
        <ele>458.079</ele>
        <time>2022-08-22T08:55:53Z</time>
      </trkpt>
      <trkpt lat="42.900897" lon="-7.986815">
        <ele>458.024</ele>
        <time>2022-08-22T08:55:57Z</time>
      </trkpt>
      <trkpt lat="42.900930" lon="-7.986871">
        <ele>458.059</ele>
        <time>2022-08-22T08:56:01Z</time>
      </trkpt>
      <trkpt lat="42.900960" lon="-7.986932">
        <ele>458.096</ele>
        <time>2022-08-22T08:56:05Z</time>
      </trkpt>
      <trkpt lat="42.900994" lon="-7.986990">
        <ele>457.931</ele>
        <time>2022-08-22T08:56:10Z</time>
      </trkpt>
      <trkpt lat="42.901018" lon="-7.987055">
        <ele>457.824</ele>
        <time>2022-08-22T08:56:16Z</time>
      </trkpt>
      <trkpt lat="42.901048" lon="-7.987124">
        <ele>457.509</ele>
        <time>2022-08-22T08:56:22Z</time>
      </trkpt>
      <trkpt lat="42.901085" lon="-7.987183">
        <ele>457.340</ele>
        <time>2022-08-22T08:56:26Z</time>
      </trkpt>
      <trkpt lat="42.901114" lon="-7.987245">
        <ele>457.060</ele>
        <time>2022-08-22T08:56:29Z</time>
      </trkpt>
      <trkpt lat="42.901153" lon="-7.987310">
        <ele>456.850</ele>
        <time>2022-08-22T08:56:33Z</time>
      </trkpt>
      <trkpt lat="42.901190" lon="-7.987372">
        <ele>456.693</ele>
        <time>2022-08-22T08:56:37Z</time>
      </trkpt>
      <trkpt lat="42.901219" lon="-7.987427">
        <ele>456.565</ele>
        <time>2022-08-22T08:56:40Z</time>
      </trkpt>
      <trkpt lat="42.901255" lon="-7.987493">
        <ele>456.497</ele>
        <time>2022-08-22T08:56:44Z</time>
      </trkpt>
      <trkpt lat="42.901288" lon="-7.987552">
        <ele>456.337</ele>
        <time>2022-08-22T08:56:48Z</time>
      </trkpt>
      <trkpt lat="42.901315" lon="-7.987618">
        <ele>456.122</ele>
        <time>2022-08-22T08:56:52Z</time>
      </trkpt>
      <trkpt lat="42.901346" lon="-7.987677">
        <ele>455.987</ele>
        <time>2022-08-22T08:56:56Z</time>
      </trkpt>
      <trkpt lat="42.901380" lon="-7.987738">
        <ele>455.793</ele>
        <time>2022-08-22T08:57:00Z</time>
      </trkpt>
      <trkpt lat="42.901410" lon="-7.987791">
        <ele>455.665</ele>
        <time>2022-08-22T08:57:04Z</time>
      </trkpt>
      <trkpt lat="42.901438" lon="-7.987848">
        <ele>455.421</ele>
        <time>2022-08-22T08:57:08Z</time>
      </trkpt>
      <trkpt lat="42.901465" lon="-7.987910">
        <ele>455.309</ele>
        <time>2022-08-22T08:57:13Z</time>
      </trkpt>
      <trkpt lat="42.901494" lon="-7.987974">
        <ele>455.280</ele>
        <time>2022-08-22T08:57:17Z</time>
      </trkpt>
      <trkpt lat="42.901530" lon="-7.988040">
        <ele>455.190</ele>
        <time>2022-08-22T08:57:21Z</time>
      </trkpt>
      <trkpt lat="42.901559" lon="-7.988091">
        <ele>455.070</ele>
        <time>2022-08-22T08:57:24Z</time>
      </trkpt>
      <trkpt lat="42.901596" lon="-7.988148">
        <ele>454.863</ele>
        <time>2022-08-22T08:57:28Z</time>
      </trkpt>
      <trkpt lat="42.901629" lon="-7.988206">
        <ele>454.715</ele>
        <time>2022-08-22T08:57:32Z</time>
      </trkpt>
      <trkpt lat="42.901657" lon="-7.988266">
        <ele>454.697</ele>
        <time>2022-08-22T08:57:36Z</time>
      </trkpt>
      <trkpt lat="42.901684" lon="-7.988316">
        <ele>454.517</ele>
        <time>2022-08-22T08:57:39Z</time>
      </trkpt>
      <trkpt lat="42.901713" lon="-7.988380">
        <ele>454.352</ele>
        <time>2022-08-22T08:57:43Z</time>
      </trkpt>
      <trkpt lat="42.901743" lon="-7.988440">
        <ele>454.127</ele>
        <time>2022-08-22T08:57:47Z</time>
      </trkpt>
      <trkpt lat="42.901777" lon="-7.988498">
        <ele>453.962</ele>
        <time>2022-08-22T08:57:51Z</time>
      </trkpt>
      <trkpt lat="42.901814" lon="-7.988563">
        <ele>453.783</ele>
        <time>2022-08-22T08:57:55Z</time>
      </trkpt>
      <trkpt lat="42.901845" lon="-7.988613">
        <ele>453.511</ele>
        <time>2022-08-22T08:57:58Z</time>
      </trkpt>
      <trkpt lat="42.901871" lon="-7.988663">
        <ele>453.409</ele>
        <time>2022-08-22T08:58:01Z</time>
      </trkpt>
      <trkpt lat="42.901902" lon="-7.988732">
        <ele>453.217</ele>
        <time>2022-08-22T08:58:05Z</time>
      </trkpt>
      <trkpt lat="42.901929" lon="-7.988802">
        <ele>452.927</ele>
        <time>2022-08-22T08:58:09Z</time>
      </trkpt>
      <trkpt lat="42.901963" lon="-7.988865">
        <ele>452.887</ele>
        <time>2022-08-22T08:58:13Z</time>
      </trkpt>
      <trkpt lat="42.901986" lon="-7.988934">
        <ele>452.670</ele>
        <time>2022-08-22T08:58:17Z</time>
      </trkpt>
      <trkpt lat="42.902021" lon="-7.988994">
        <ele>452.382</ele>
        <time>2022-08-22T08:58:21Z</time>
      </trkpt>
      <trkpt lat="42.902052" lon="-7.989047">
        <ele>452.194</ele>
        <time>2022-08-22T08:58:25Z</time>
      </trkpt>
      <trkpt lat="42.902079" lon="-7.989100">
        <ele>451.954</ele>
        <time>2022-08-22T08:58:29Z</time>
      </trkpt>
      <trkpt lat="42.902104" lon="-7.989158">
        <ele>451.679</ele>
        <time>2022-08-22T08:58:33Z</time>
      </trkpt>
      <trkpt lat="42.902129" lon="-7.989214">
        <ele>451.394</ele>
        <time>2022-08-22T08:58:37Z</time>
      </trkpt>
      <trkpt lat="42.902156" lon="-7.989275">
        <ele>450.978</ele>
        <time>2022-08-22T08:58:41Z</time>
      </trkpt>
      <trkpt lat="42.902190" lon="-7.989329">
        <ele>450.533</ele>
        <time>2022-08-22T08:58:45Z</time>
      </trkpt>
      <trkpt lat="42.902226" lon="-7.989392">
        <ele>450.126</ele>
        <time>2022-08-22T08:58:49Z</time>
      </trkpt>
      <trkpt lat="42.902257" lon="-7.989449">
        <ele>449.809</ele>
        <time>2022-08-22T08:58:53Z</time>
      </trkpt>
      <trkpt lat="42.902287" lon="-7.989504">
        <ele>449.518</ele>
        <time>2022-08-22T08:58:57Z</time>
      </trkpt>
      <trkpt lat="42.902324" lon="-7.989563">
        <ele>449.228</ele>
        <time>2022-08-22T08:59:01Z</time>
      </trkpt>
      <trkpt lat="42.902354" lon="-7.989619">
        <ele>449.138</ele>
        <time>2022-08-22T08:59:05Z</time>
      </trkpt>
      <trkpt lat="42.902377" lon="-7.989681">
        <ele>448.821</ele>
        <time>2022-08-22T08:59:09Z</time>
      </trkpt>
      <trkpt lat="42.902407" lon="-7.989732">
        <ele>448.663</ele>
        <time>2022-08-22T08:59:13Z</time>
      </trkpt>
      <trkpt lat="42.902448" lon="-7.989798">
        <ele>448.395</ele>
        <time>2022-08-22T08:59:18Z</time>
      </trkpt>
      <trkpt lat="42.902486" lon="-7.989855">
        <ele>448.155</ele>
        <time>2022-08-22T08:59:22Z</time>
      </trkpt>
      <trkpt lat="42.902512" lon="-7.989920">
        <ele>447.630</ele>
        <time>2022-08-22T08:59:26Z</time>
      </trkpt>
      <trkpt lat="42.902545" lon="-7.989975">
        <ele>447.425</ele>
        <time>2022-08-22T08:59:30Z</time>
      </trkpt>
      <trkpt lat="42.902577" lon="-7.990031">
        <ele>447.139</ele>
        <time>2022-08-22T08:59:34Z</time>
      </trkpt>
      <trkpt lat="42.902605" lon="-7.990088">
        <ele>447.001</ele>
        <time>2022-08-22T08:59:38Z</time>
      </trkpt>
      <trkpt lat="42.902638" lon="-7.990152">
        <ele>446.721</ele>
        <time>2022-08-22T08:59:42Z</time>
      </trkpt>
      <trkpt lat="42.902663" lon="-7.990213">
        <ele>446.509</ele>
        <time>2022-08-22T08:59:46Z</time>
      </trkpt>
      <trkpt lat="42.902685" lon="-7.990267">
        <ele>446.354</ele>
        <time>2022-08-22T08:59:49Z</time>
      </trkpt>
      <trkpt lat="42.902702" lon="-7.990338">
        <ele>446.184</ele>
        <time>2022-08-22T08:59:53Z</time>
      </trkpt>
      <trkpt lat="42.902719" lon="-7.990405">
        <ele>446.024</ele>
        <time>2022-08-22T08:59:57Z</time>
      </trkpt>
      <trkpt lat="42.902732" lon="-7.990492">
        <ele>445.977</ele>
        <time>2022-08-22T09:00:01Z</time>
      </trkpt>
      <trkpt lat="42.902747" lon="-7.990557">
        <ele>445.859</ele>
        <time>2022-08-22T09:00:05Z</time>
      </trkpt>
      <trkpt lat="42.902761" lon="-7.990628">
        <ele>445.741</ele>
        <time>2022-08-22T09:00:09Z</time>
      </trkpt>
      <trkpt lat="42.902774" lon="-7.990707">
        <ele>445.561</ele>
        <time>2022-08-22T09:00:13Z</time>
      </trkpt>
      <trkpt lat="42.902786" lon="-7.990770">
        <ele>445.466</ele>
        <time>2022-08-22T09:00:16Z</time>
      </trkpt>
      <trkpt lat="42.902790" lon="-7.990832">
        <ele>445.331</ele>
        <time>2022-08-22T09:00:19Z</time>
      </trkpt>
      <trkpt lat="42.902789" lon="-7.990898">
        <ele>445.294</ele>
        <time>2022-08-22T09:00:22Z</time>
      </trkpt>
      <trkpt lat="42.902776" lon="-7.990961">
        <ele>445.157</ele>
        <time>2022-08-22T09:00:25Z</time>
      </trkpt>
      <trkpt lat="42.902756" lon="-7.991017">
        <ele>445.022</ele>
        <time>2022-08-22T09:00:28Z</time>
      </trkpt>
      <trkpt lat="42.902739" lon="-7.991074">
        <ele>445.009</ele>
        <time>2022-08-22T09:00:31Z</time>
      </trkpt>
      <trkpt lat="42.902733" lon="-7.991154">
        <ele>445.070</ele>
        <time>2022-08-22T09:00:35Z</time>
      </trkpt>
      <trkpt lat="42.902746" lon="-7.991231">
        <ele>445.010</ele>
        <time>2022-08-22T09:00:39Z</time>
      </trkpt>
      <trkpt lat="42.902758" lon="-7.991308">
        <ele>445.010</ele>
        <time>2022-08-22T09:00:43Z</time>
      </trkpt>
      <trkpt lat="42.902783" lon="-7.991377">
        <ele>445.053</ele>
        <time>2022-08-22T09:00:47Z</time>
      </trkpt>
      <trkpt lat="42.902804" lon="-7.991448">
        <ele>445.055</ele>
        <time>2022-08-22T09:00:51Z</time>
      </trkpt>
      <trkpt lat="42.902833" lon="-7.991513">
        <ele>444.867</ele>
        <time>2022-08-22T09:00:55Z</time>
      </trkpt>
      <trkpt lat="42.902862" lon="-7.991578">
        <ele>444.797</ele>
        <time>2022-08-22T09:00:59Z</time>
      </trkpt>
      <trkpt lat="42.902890" lon="-7.991644">
        <ele>444.672</ele>
        <time>2022-08-22T09:01:03Z</time>
      </trkpt>
      <trkpt lat="42.902920" lon="-7.991709">
        <ele>444.577</ele>
        <time>2022-08-22T09:01:07Z</time>
      </trkpt>
      <trkpt lat="42.902952" lon="-7.991772">
        <ele>444.569</ele>
        <time>2022-08-22T09:01:11Z</time>
      </trkpt>
      <trkpt lat="42.902980" lon="-7.991836">
        <ele>444.504</ele>
        <time>2022-08-22T09:01:15Z</time>
      </trkpt>
      <trkpt lat="42.902999" lon="-7.991905">
        <ele>444.524</ele>
        <time>2022-08-22T09:01:19Z</time>
      </trkpt>
      <trkpt lat="42.903024" lon="-7.991969">
        <ele>444.509</ele>
        <time>2022-08-22T09:01:23Z</time>
      </trkpt>
      <trkpt lat="42.903056" lon="-7.992027">
        <ele>444.577</ele>
        <time>2022-08-22T09:01:27Z</time>
      </trkpt>
      <trkpt lat="42.903088" lon="-7.992088">
        <ele>444.557</ele>
        <time>2022-08-22T09:01:31Z</time>
      </trkpt>
      <trkpt lat="42.903125" lon="-7.992147">
        <ele>444.547</ele>
        <time>2022-08-22T09:01:35Z</time>
      </trkpt>
      <trkpt lat="42.903157" lon="-7.992191">
        <ele>444.590</ele>
        <time>2022-08-22T09:01:38Z</time>
      </trkpt>
      <trkpt lat="42.903193" lon="-7.992252">
        <ele>444.562</ele>
        <time>2022-08-22T09:01:42Z</time>
      </trkpt>
      <trkpt lat="42.903224" lon="-7.992316">
        <ele>444.574</ele>
        <time>2022-08-22T09:01:46Z</time>
      </trkpt>
      <trkpt lat="42.903255" lon="-7.992372">
        <ele>444.594</ele>
        <time>2022-08-22T09:01:50Z</time>
      </trkpt>
      <trkpt lat="42.903280" lon="-7.992437">
        <ele>444.569</ele>
        <time>2022-08-22T09:01:55Z</time>
      </trkpt>
      <trkpt lat="42.903308" lon="-7.992488">
        <ele>444.544</ele>
        <time>2022-08-22T09:01:59Z</time>
      </trkpt>
      <trkpt lat="42.903342" lon="-7.992541">
        <ele>444.542</ele>
        <time>2022-08-22T09:02:03Z</time>
      </trkpt>
      <trkpt lat="42.903376" lon="-7.992597">
        <ele>444.522</ele>
        <time>2022-08-22T09:02:07Z</time>
      </trkpt>
      <trkpt lat="42.903417" lon="-7.992645">
        <ele>444.514</ele>
        <time>2022-08-22T09:02:11Z</time>
      </trkpt>
      <trkpt lat="42.903456" lon="-7.992696">
        <ele>444.509</ele>
        <time>2022-08-22T09:02:15Z</time>
      </trkpt>
      <trkpt lat="42.903492" lon="-7.992749">
        <ele>444.515</ele>
        <time>2022-08-22T09:02:19Z</time>
      </trkpt>
      <trkpt lat="42.903528" lon="-7.992799">
        <ele>444.685</ele>
        <time>2022-08-22T09:02:23Z</time>
      </trkpt>
      <trkpt lat="42.903567" lon="-7.992858">
        <ele>444.635</ele>
        <time>2022-08-22T09:02:27Z</time>
      </trkpt>
      <trkpt lat="42.903602" lon="-7.992911">
        <ele>444.688</ele>
        <time>2022-08-22T09:02:31Z</time>
      </trkpt>
      <trkpt lat="42.903631" lon="-7.992962">
        <ele>444.760</ele>
        <time>2022-08-22T09:02:35Z</time>
      </trkpt>
      <trkpt lat="42.903664" lon="-7.993033">
        <ele>444.882</ele>
        <time>2022-08-22T09:02:40Z</time>
      </trkpt>
      <trkpt lat="42.903691" lon="-7.993096">
        <ele>444.842</ele>
        <time>2022-08-22T09:02:44Z</time>
      </trkpt>
      <trkpt lat="42.903710" lon="-7.993166">
        <ele>444.957</ele>
        <time>2022-08-22T09:02:48Z</time>
      </trkpt>
      <trkpt lat="42.903731" lon="-7.993233">
        <ele>445.062</ele>
        <time>2022-08-22T09:02:52Z</time>
      </trkpt>
      <trkpt lat="42.903753" lon="-7.993301">
        <ele>445.147</ele>
        <time>2022-08-22T09:02:56Z</time>
      </trkpt>
      <trkpt lat="42.903779" lon="-7.993364">
        <ele>445.129</ele>
        <time>2022-08-22T09:03:01Z</time>
      </trkpt>
      <trkpt lat="42.903796" lon="-7.993431">
        <ele>445.221</ele>
        <time>2022-08-22T09:03:04Z</time>
      </trkpt>
      <trkpt lat="42.903826" lon="-7.993502">
        <ele>445.409</ele>
        <time>2022-08-22T09:03:08Z</time>
      </trkpt>
      <trkpt lat="42.903846" lon="-7.993564">
        <ele>445.695</ele>
        <time>2022-08-22T09:03:12Z</time>
      </trkpt>
      <trkpt lat="42.903870" lon="-7.993619">
        <ele>445.715</ele>
        <time>2022-08-22T09:03:16Z</time>
      </trkpt>
      <trkpt lat="42.903901" lon="-7.993687">
        <ele>445.995</ele>
        <time>2022-08-22T09:03:20Z</time>
      </trkpt>
      <trkpt lat="42.903922" lon="-7.993742">
        <ele>446.128</ele>
        <time>2022-08-22T09:03:23Z</time>
      </trkpt>
      <trkpt lat="42.903943" lon="-7.993812">
        <ele>446.360</ele>
        <time>2022-08-22T09:03:27Z</time>
      </trkpt>
      <trkpt lat="42.903968" lon="-7.993865">
        <ele>446.562</ele>
        <time>2022-08-22T09:03:31Z</time>
      </trkpt>
      <trkpt lat="42.903983" lon="-7.993935">
        <ele>446.622</ele>
        <time>2022-08-22T09:03:35Z</time>
      </trkpt>
      <trkpt lat="42.904001" lon="-7.994003">
        <ele>446.917</ele>
        <time>2022-08-22T09:03:40Z</time>
      </trkpt>
      <trkpt lat="42.904026" lon="-7.994060">
        <ele>447.212</ele>
        <time>2022-08-22T09:03:44Z</time>
      </trkpt>
      <trkpt lat="42.904051" lon="-7.994120">
        <ele>447.686</ele>
        <time>2022-08-22T09:03:49Z</time>
      </trkpt>
      <trkpt lat="42.904079" lon="-7.994180">
        <ele>448.160</ele>
        <time>2022-08-22T09:03:53Z</time>
      </trkpt>
      <trkpt lat="42.904103" lon="-7.994254">
        <ele>448.726</ele>
        <time>2022-08-22T09:03:57Z</time>
      </trkpt>
      <trkpt lat="42.904126" lon="-7.994325">
        <ele>449.309</ele>
        <time>2022-08-22T09:04:01Z</time>
      </trkpt>
      <trkpt lat="42.904140" lon="-7.994396">
        <ele>450.279</ele>
        <time>2022-08-22T09:04:05Z</time>
      </trkpt>
      <trkpt lat="42.904153" lon="-7.994476">
        <ele>450.729</ele>
        <time>2022-08-22T09:04:09Z</time>
      </trkpt>
      <trkpt lat="42.904164" lon="-7.994538">
        <ele>451.059</ele>
        <time>2022-08-22T09:04:12Z</time>
      </trkpt>
      <trkpt lat="42.904183" lon="-7.994619">
        <ele>451.122</ele>
        <time>2022-08-22T09:04:16Z</time>
      </trkpt>
      <trkpt lat="42.904209" lon="-7.994684">
        <ele>451.314</ele>
        <time>2022-08-22T09:04:20Z</time>
      </trkpt>
      <trkpt lat="42.904241" lon="-7.994741">
        <ele>451.666</ele>
        <time>2022-08-22T09:04:24Z</time>
      </trkpt>
      <trkpt lat="42.904279" lon="-7.994791">
        <ele>451.836</ele>
        <time>2022-08-22T09:04:28Z</time>
      </trkpt>
      <trkpt lat="42.904318" lon="-7.994831">
        <ele>452.251</ele>
        <time>2022-08-22T09:04:32Z</time>
      </trkpt>
      <trkpt lat="42.904348" lon="-7.994887">
        <ele>452.336</ele>
        <time>2022-08-22T09:04:36Z</time>
      </trkpt>
      <trkpt lat="42.904382" lon="-7.994939">
        <ele>452.469</ele>
        <time>2022-08-22T09:04:41Z</time>
      </trkpt>
      <trkpt lat="42.904427" lon="-7.994990">
        <ele>452.404</ele>
        <time>2022-08-22T09:04:45Z</time>
      </trkpt>
      <trkpt lat="42.904464" lon="-7.995033">
        <ele>452.424</ele>
        <time>2022-08-22T09:04:49Z</time>
      </trkpt>
      <trkpt lat="42.904503" lon="-7.995087">
        <ele>452.409</ele>
        <time>2022-08-22T09:04:53Z</time>
      </trkpt>
      <trkpt lat="42.904544" lon="-7.995132">
        <ele>452.347</ele>
        <time>2022-08-22T09:04:57Z</time>
      </trkpt>
      <trkpt lat="42.904581" lon="-7.995181">
        <ele>452.237</ele>
        <time>2022-08-22T09:05:01Z</time>
      </trkpt>
      <trkpt lat="42.904617" lon="-7.995231">
        <ele>452.127</ele>
        <time>2022-08-22T09:05:05Z</time>
      </trkpt>
      <trkpt lat="42.904656" lon="-7.995270">
        <ele>452.050</ele>
        <time>2022-08-22T09:05:08Z</time>
      </trkpt>
      <trkpt lat="42.904701" lon="-7.995311">
        <ele>451.882</ele>
        <time>2022-08-22T09:05:12Z</time>
      </trkpt>
      <trkpt lat="42.904748" lon="-7.995359">
        <ele>451.774</ele>
        <time>2022-08-22T09:05:16Z</time>
      </trkpt>
      <trkpt lat="42.904789" lon="-7.995390">
        <ele>451.664</ele>
        <time>2022-08-22T09:05:19Z</time>
      </trkpt>
      <trkpt lat="42.904822" lon="-7.995432">
        <ele>451.489</ele>
        <time>2022-08-22T09:05:22Z</time>
      </trkpt>
      <trkpt lat="42.904861" lon="-7.995474">
        <ele>451.374</ele>
        <time>2022-08-22T09:05:26Z</time>
      </trkpt>
      <trkpt lat="42.904901" lon="-7.995522">
        <ele>451.248</ele>
        <time>2022-08-22T09:05:30Z</time>
      </trkpt>
      <trkpt lat="42.904939" lon="-7.995564">
        <ele>451.161</ele>
        <time>2022-08-22T09:05:34Z</time>
      </trkpt>
      <trkpt lat="42.904986" lon="-7.995606">
        <ele>451.117</ele>
        <time>2022-08-22T09:05:38Z</time>
      </trkpt>
      <trkpt lat="42.905023" lon="-7.995656">
        <ele>451.109</ele>
        <time>2022-08-22T09:05:42Z</time>
      </trkpt>
      <trkpt lat="42.905062" lon="-7.995690">
        <ele>451.175</ele>
        <time>2022-08-22T09:05:46Z</time>
      </trkpt>
      <trkpt lat="42.905099" lon="-7.995728">
        <ele>451.175</ele>
        <time>2022-08-22T09:05:49Z</time>
      </trkpt>
      <trkpt lat="42.905138" lon="-7.995765">
        <ele>451.175</ele>
        <time>2022-08-22T09:05:55Z</time>
      </trkpt>
      <trkpt lat="42.905175" lon="-7.995804">
        <ele>451.118</ele>
        <time>2022-08-22T09:06:01Z</time>
      </trkpt>
      <trkpt lat="42.905217" lon="-7.995845">
        <ele>451.130</ele>
        <time>2022-08-22T09:06:07Z</time>
      </trkpt>
      <trkpt lat="42.905257" lon="-7.995883">
        <ele>451.142</ele>
        <time>2022-08-22T09:06:11Z</time>
      </trkpt>
      <trkpt lat="42.905306" lon="-7.995919">
        <ele>451.152</ele>
        <time>2022-08-22T09:06:16Z</time>
      </trkpt>
      <trkpt lat="42.905342" lon="-7.995960">
        <ele>451.297</ele>
        <time>2022-08-22T09:06:19Z</time>
      </trkpt>
      <trkpt lat="42.905388" lon="-7.995994">
        <ele>451.342</ele>
        <time>2022-08-22T09:06:24Z</time>
      </trkpt>
      <trkpt lat="42.905428" lon="-7.996030">
        <ele>451.412</ele>
        <time>2022-08-22T09:06:27Z</time>
      </trkpt>
      <trkpt lat="42.905480" lon="-7.996053">
        <ele>451.432</ele>
        <time>2022-08-22T09:06:31Z</time>
      </trkpt>
      <trkpt lat="42.905525" lon="-7.996087">
        <ele>451.405</ele>
        <time>2022-08-22T09:06:34Z</time>
      </trkpt>
      <trkpt lat="42.905570" lon="-7.996112">
        <ele>451.409</ele>
        <time>2022-08-22T09:06:38Z</time>
      </trkpt>
      <trkpt lat="42.905614" lon="-7.996131">
        <ele>451.272</ele>
        <time>2022-08-22T09:06:41Z</time>
      </trkpt>
      <trkpt lat="42.905667" lon="-7.996157">
        <ele>450.682</ele>
        <time>2022-08-22T09:06:45Z</time>
      </trkpt>
      <trkpt lat="42.905717" lon="-7.996187">
        <ele>449.912</ele>
        <time>2022-08-22T09:06:50Z</time>
      </trkpt>
      <trkpt lat="42.905768" lon="-7.996213">
        <ele>449.335</ele>
        <time>2022-08-22T09:06:54Z</time>
      </trkpt>
      <trkpt lat="42.905822" lon="-7.996240">
        <ele>448.657</ele>
        <time>2022-08-22T09:06:57Z</time>
      </trkpt>
      <trkpt lat="42.905866" lon="-7.996250">
        <ele>448.199</ele>
        <time>2022-08-22T09:07:00Z</time>
      </trkpt>
      <trkpt lat="42.905908" lon="-7.996274">
        <ele>447.789</ele>
        <time>2022-08-22T09:07:03Z</time>
      </trkpt>
      <trkpt lat="42.905953" lon="-7.996308">
        <ele>447.444</ele>
        <time>2022-08-22T09:07:07Z</time>
      </trkpt>
      <trkpt lat="42.906011" lon="-7.996340">
        <ele>447.129</ele>
        <time>2022-08-22T09:07:11Z</time>
      </trkpt>
      <trkpt lat="42.906054" lon="-7.996364">
        <ele>446.668</ele>
        <time>2022-08-22T09:07:15Z</time>
      </trkpt>
      <trkpt lat="42.906090" lon="-7.996404">
        <ele>445.942</ele>
        <time>2022-08-22T09:07:18Z</time>
      </trkpt>
      <trkpt lat="42.906131" lon="-7.996434">
        <ele>445.226</ele>
        <time>2022-08-22T09:07:21Z</time>
      </trkpt>
      <trkpt lat="42.906180" lon="-7.996476">
        <ele>444.609</ele>
        <time>2022-08-22T09:07:25Z</time>
      </trkpt>
      <trkpt lat="42.906230" lon="-7.996514">
        <ele>444.167</ele>
        <time>2022-08-22T09:07:30Z</time>
      </trkpt>
      <trkpt lat="42.906272" lon="-7.996546">
        <ele>443.797</ele>
        <time>2022-08-22T09:07:34Z</time>
      </trkpt>
      <trkpt lat="42.906320" lon="-7.996576">
        <ele>443.297</ele>
        <time>2022-08-22T09:07:38Z</time>
      </trkpt>
      <trkpt lat="42.906365" lon="-7.996612">
        <ele>442.740</ele>
        <time>2022-08-22T09:07:41Z</time>
      </trkpt>
      <trkpt lat="42.906407" lon="-7.996636">
        <ele>442.332</ele>
        <time>2022-08-22T09:07:44Z</time>
      </trkpt>
      <trkpt lat="42.906450" lon="-7.996655">
        <ele>441.934</ele>
        <time>2022-08-22T09:07:49Z</time>
      </trkpt>
      <trkpt lat="42.906494" lon="-7.996676">
        <ele>441.624</ele>
        <time>2022-08-22T09:07:52Z</time>
      </trkpt>
      <trkpt lat="42.906546" lon="-7.996691">
        <ele>441.119</ele>
        <time>2022-08-22T09:07:55Z</time>
      </trkpt>
      <trkpt lat="42.906593" lon="-7.996713">
        <ele>440.664</ele>
        <time>2022-08-22T09:07:59Z</time>
      </trkpt>
      <trkpt lat="42.906634" lon="-7.996740">
        <ele>440.264</ele>
        <time>2022-08-22T09:08:04Z</time>
      </trkpt>
      <trkpt lat="42.906685" lon="-7.996744">
        <ele>439.806</ele>
        <time>2022-08-22T09:08:09Z</time>
      </trkpt>
      <trkpt lat="42.906734" lon="-7.996742">
        <ele>439.216</ele>
        <time>2022-08-22T09:08:14Z</time>
      </trkpt>
      <trkpt lat="42.906780" lon="-7.996738">
        <ele>438.509</ele>
        <time>2022-08-22T09:08:18Z</time>
      </trkpt>
      <trkpt lat="42.906831" lon="-7.996733">
        <ele>437.787</ele>
        <time>2022-08-22T09:08:21Z</time>
      </trkpt>
      <trkpt lat="42.906886" lon="-7.996762">
        <ele>437.087</ele>
        <time>2022-08-22T09:08:25Z</time>
      </trkpt>
      <trkpt lat="42.906937" lon="-7.996768">
        <ele>436.547</ele>
        <time>2022-08-22T09:08:29Z</time>
      </trkpt>
      <trkpt lat="42.906982" lon="-7.996784">
        <ele>436.270</ele>
        <time>2022-08-22T09:08:32Z</time>
      </trkpt>
      <trkpt lat="42.907024" lon="-7.996807">
        <ele>435.832</ele>
        <time>2022-08-22T09:08:36Z</time>
      </trkpt>
      <trkpt lat="42.907075" lon="-7.996841">
        <ele>435.464</ele>
        <time>2022-08-22T09:08:41Z</time>
      </trkpt>
      <trkpt lat="42.907131" lon="-7.996868">
        <ele>435.124</ele>
        <time>2022-08-22T09:08:45Z</time>
      </trkpt>
      <trkpt lat="42.907174" lon="-7.996894">
        <ele>434.879</ele>
        <time>2022-08-22T09:08:49Z</time>
      </trkpt>
      <trkpt lat="42.907221" lon="-7.996922">
        <ele>434.484</ele>
        <time>2022-08-22T09:08:53Z</time>
      </trkpt>
      <trkpt lat="42.907275" lon="-7.996952">
        <ele>434.022</ele>
        <time>2022-08-22T09:08:57Z</time>
      </trkpt>
      <trkpt lat="42.907325" lon="-7.996976">
        <ele>433.762</ele>
        <time>2022-08-22T09:09:02Z</time>
      </trkpt>
      <trkpt lat="42.907375" lon="-7.996985">
        <ele>433.108</ele>
        <time>2022-08-22T09:09:06Z</time>
      </trkpt>
      <trkpt lat="42.907428" lon="-7.997015">
        <ele>432.109</ele>
        <time>2022-08-22T09:09:10Z</time>
      </trkpt>
      <trkpt lat="42.907476" lon="-7.997051">
        <ele>431.363</ele>
        <time>2022-08-22T09:09:15Z</time>
      </trkpt>
      <trkpt lat="42.907527" lon="-7.997090">
        <ele>430.513</ele>
        <time>2022-08-22T09:09:19Z</time>
      </trkpt>
      <trkpt lat="42.907573" lon="-7.997120">
        <ele>429.683</ele>
        <time>2022-08-22T09:09:22Z</time>
      </trkpt>
      <trkpt lat="42.907618" lon="-7.997141">
        <ele>428.796</ele>
        <time>2022-08-22T09:09:25Z</time>
      </trkpt>
      <trkpt lat="42.907652" lon="-7.997183">
        <ele>428.348</ele>
        <time>2022-08-22T09:09:28Z</time>
      </trkpt>
      <trkpt lat="42.907680" lon="-7.997237">
        <ele>427.660</ele>
        <time>2022-08-22T09:09:31Z</time>
      </trkpt>
      <trkpt lat="42.907718" lon="-7.997292">
        <ele>426.930</ele>
        <time>2022-08-22T09:09:35Z</time>
      </trkpt>
      <trkpt lat="42.907768" lon="-7.997336">
        <ele>426.245</ele>
        <time>2022-08-22T09:09:39Z</time>
      </trkpt>
      <trkpt lat="42.907809" lon="-7.997377">
        <ele>425.520</ele>
        <time>2022-08-22T09:09:43Z</time>
      </trkpt>
      <trkpt lat="42.907843" lon="-7.997431">
        <ele>424.715</ele>
        <time>2022-08-22T09:09:47Z</time>
      </trkpt>
      <trkpt lat="42.907885" lon="-7.997473">
        <ele>423.465</ele>
        <time>2022-08-22T09:09:51Z</time>
      </trkpt>
      <trkpt lat="42.907925" lon="-7.997520">
        <ele>423.011</ele>
        <time>2022-08-22T09:09:55Z</time>
      </trkpt>
      <trkpt lat="42.907965" lon="-7.997578">
        <ele>422.109</ele>
        <time>2022-08-22T09:10:00Z</time>
      </trkpt>
      <trkpt lat="42.908001" lon="-7.997631">
        <ele>421.242</ele>
        <time>2022-08-22T09:10:04Z</time>
      </trkpt>
      <trkpt lat="42.908041" lon="-7.997665">
        <ele>420.132</ele>
        <time>2022-08-22T09:10:07Z</time>
      </trkpt>
      <trkpt lat="42.908083" lon="-7.997708">
        <ele>419.112</ele>
        <time>2022-08-22T09:10:11Z</time>
      </trkpt>
      <trkpt lat="42.908110" lon="-7.997761">
        <ele>418.435</ele>
        <time>2022-08-22T09:10:15Z</time>
      </trkpt>
      <trkpt lat="42.908131" lon="-7.997825">
        <ele>417.757</ele>
        <time>2022-08-22T09:10:18Z</time>
      </trkpt>
      <trkpt lat="42.908138" lon="-7.997909">
        <ele>416.999</ele>
        <time>2022-08-22T09:10:22Z</time>
      </trkpt>
      <trkpt lat="42.908157" lon="-7.997968">
        <ele>416.229</ele>
        <time>2022-08-22T09:10:26Z</time>
      </trkpt>
      <trkpt lat="42.908174" lon="-7.998036">
        <ele>415.624</ele>
        <time>2022-08-22T09:10:30Z</time>
      </trkpt>
      <trkpt lat="42.908173" lon="-7.998102">
        <ele>415.049</ele>
        <time>2022-08-22T09:10:34Z</time>
      </trkpt>
      <trkpt lat="42.908174" lon="-7.998169">
        <ele>414.793</ele>
        <time>2022-08-22T09:10:38Z</time>
      </trkpt>
      <trkpt lat="42.908171" lon="-7.998245">
        <ele>414.565</ele>
        <time>2022-08-22T09:10:42Z</time>
      </trkpt>
      <trkpt lat="42.908161" lon="-7.998311">
        <ele>414.421</ele>
        <time>2022-08-22T09:10:46Z</time>
      </trkpt>
      <trkpt lat="42.908157" lon="-7.998373">
        <ele>414.409</ele>
        <time>2022-08-22T09:10:49Z</time>
      </trkpt>
      <trkpt lat="42.908155" lon="-7.998443">
        <ele>414.380</ele>
        <time>2022-08-22T09:10:53Z</time>
      </trkpt>
      <trkpt lat="42.908156" lon="-7.998513">
        <ele>414.120</ele>
        <time>2022-08-22T09:10:57Z</time>
      </trkpt>
      <trkpt lat="42.908160" lon="-7.998579">
        <ele>413.890</ele>
        <time>2022-08-22T09:11:00Z</time>
      </trkpt>
      <trkpt lat="42.908159" lon="-7.998650">
        <ele>413.563</ele>
        <time>2022-08-22T09:11:04Z</time>
      </trkpt>
      <trkpt lat="42.908165" lon="-7.998725">
        <ele>413.415</ele>
        <time>2022-08-22T09:11:09Z</time>
      </trkpt>
      <trkpt lat="42.908192" lon="-7.998775">
        <ele>413.347</ele>
        <time>2022-08-22T09:11:12Z</time>
      </trkpt>
      <trkpt lat="42.908247" lon="-7.998790">
        <ele>413.127</ele>
        <time>2022-08-22T09:11:17Z</time>
      </trkpt>
      <trkpt lat="42.908295" lon="-7.998792">
        <ele>413.182</ele>
        <time>2022-08-22T09:11:21Z</time>
      </trkpt>
      <trkpt lat="42.908352" lon="-7.998782">
        <ele>413.127</ele>
        <time>2022-08-22T09:11:25Z</time>
      </trkpt>
      <trkpt lat="42.908400" lon="-7.998784">
        <ele>413.342</ele>
        <time>2022-08-22T09:11:29Z</time>
      </trkpt>
      <trkpt lat="42.908452" lon="-7.998784">
        <ele>413.722</ele>
        <time>2022-08-22T09:11:33Z</time>
      </trkpt>
      <trkpt lat="42.908505" lon="-7.998779">
        <ele>413.814</ele>
        <time>2022-08-22T09:11:37Z</time>
      </trkpt>
      <trkpt lat="42.908555" lon="-7.998771">
        <ele>413.809</ele>
        <time>2022-08-22T09:11:41Z</time>
      </trkpt>
      <trkpt lat="42.908602" lon="-7.998782">
        <ele>413.865</ele>
        <time>2022-08-22T09:11:45Z</time>
      </trkpt>
      <trkpt lat="42.908648" lon="-7.998778">
        <ele>413.465</ele>
        <time>2022-08-22T09:11:48Z</time>
      </trkpt>
      <trkpt lat="42.908694" lon="-7.998775">
        <ele>412.965</ele>
        <time>2022-08-22T09:11:51Z</time>
      </trkpt>
      <trkpt lat="42.908746" lon="-7.998796">
        <ele>412.598</ele>
        <time>2022-08-22T09:11:56Z</time>
      </trkpt>
      <trkpt lat="42.908780" lon="-7.998839">
        <ele>412.280</ele>
        <time>2022-08-22T09:12:00Z</time>
      </trkpt>
      <trkpt lat="42.908800" lon="-7.998911">
        <ele>411.812</ele>
        <time>2022-08-22T09:12:04Z</time>
      </trkpt>
      <trkpt lat="42.908825" lon="-7.998968">
        <ele>411.752</ele>
        <time>2022-08-22T09:12:08Z</time>
      </trkpt>
      <trkpt lat="42.908856" lon="-7.999015">
        <ele>411.777</ele>
        <time>2022-08-22T09:12:11Z</time>
      </trkpt>
      <trkpt lat="42.908891" lon="-7.999081">
        <ele>411.732</ele>
        <time>2022-08-22T09:12:16Z</time>
      </trkpt>
      <trkpt lat="42.908913" lon="-7.999139">
        <ele>412.158</ele>
        <time>2022-08-22T09:12:20Z</time>
      </trkpt>
      <trkpt lat="42.908945" lon="-7.999201">
        <ele>412.552</ele>
        <time>2022-08-22T09:12:24Z</time>
      </trkpt>
      <trkpt lat="42.908987" lon="-7.999233">
        <ele>412.617</ele>
        <time>2022-08-22T09:12:28Z</time>
      </trkpt>
      <trkpt lat="42.909042" lon="-7.999239">
        <ele>412.609</ele>
        <time>2022-08-22T09:12:32Z</time>
      </trkpt>
      <trkpt lat="42.909070" lon="-7.999287">
        <ele>412.676</ele>
        <time>2022-08-22T09:12:35Z</time>
      </trkpt>
      <trkpt lat="42.909096" lon="-7.999359">
        <ele>412.616</ele>
        <time>2022-08-22T09:12:39Z</time>
      </trkpt>
      <trkpt lat="42.909115" lon="-7.999432">
        <ele>412.616</ele>
        <time>2022-08-22T09:12:43Z</time>
      </trkpt>
      <trkpt lat="42.909130" lon="-7.999500">
        <ele>412.699</ele>
        <time>2022-08-22T09:12:47Z</time>
      </trkpt>
      <trkpt lat="42.909150" lon="-7.999569">
        <ele>412.621</ele>
        <time>2022-08-22T09:12:51Z</time>
      </trkpt>
      <trkpt lat="42.909163" lon="-7.999635">
        <ele>412.623</ele>
        <time>2022-08-22T09:12:55Z</time>
      </trkpt>
      <trkpt lat="42.909189" lon="-7.999694">
        <ele>412.693</ele>
        <time>2022-08-22T09:12:59Z</time>
      </trkpt>
      <trkpt lat="42.909223" lon="-7.999756">
        <ele>412.418</ele>
        <time>2022-08-22T09:13:03Z</time>
      </trkpt>
      <trkpt lat="42.909237" lon="-7.999821">
        <ele>412.223</ele>
        <time>2022-08-22T09:13:07Z</time>
      </trkpt>
      <trkpt lat="42.909238" lon="-7.999896">
        <ele>412.016</ele>
        <time>2022-08-22T09:13:11Z</time>
      </trkpt>
      <trkpt lat="42.909236" lon="-7.999971">
        <ele>411.876</ele>
        <time>2022-08-22T09:13:15Z</time>
      </trkpt>
      <trkpt lat="42.909238" lon="-8.000032">
        <ele>411.513</ele>
        <time>2022-08-22T09:13:19Z</time>
      </trkpt>
      <trkpt lat="42.909249" lon="-8.000101">
        <ele>411.309</ele>
        <time>2022-08-22T09:13:23Z</time>
      </trkpt>
      <trkpt lat="42.909263" lon="-8.000173">
        <ele>411.342</ele>
        <time>2022-08-22T09:13:27Z</time>
      </trkpt>
      <trkpt lat="42.909262" lon="-8.000245">
        <ele>411.332</ele>
        <time>2022-08-22T09:13:31Z</time>
      </trkpt>
      <trkpt lat="42.909252" lon="-8.000318">
        <ele>411.332</ele>
        <time>2022-08-22T09:13:35Z</time>
      </trkpt>
      <trkpt lat="42.909235" lon="-8.000389">
        <ele>411.415</ele>
        <time>2022-08-22T09:13:39Z</time>
      </trkpt>
      <trkpt lat="42.909223" lon="-8.000460">
        <ele>411.567</ele>
        <time>2022-08-22T09:13:43Z</time>
      </trkpt>
      <trkpt lat="42.909221" lon="-8.000541">
        <ele>411.599</ele>
        <time>2022-08-22T09:13:47Z</time>
      </trkpt>
      <trkpt lat="42.909226" lon="-8.000614">
        <ele>411.529</ele>
        <time>2022-08-22T09:13:51Z</time>
      </trkpt>
      <trkpt lat="42.909218" lon="-8.000680">
        <ele>411.614</ele>
        <time>2022-08-22T09:13:55Z</time>
      </trkpt>
      <trkpt lat="42.909214" lon="-8.000745">
        <ele>411.749</ele>
        <time>2022-08-22T09:13:59Z</time>
      </trkpt>
      <trkpt lat="42.909219" lon="-8.000813">
        <ele>412.039</ele>
        <time>2022-08-22T09:14:03Z</time>
      </trkpt>
      <trkpt lat="42.909211" lon="-8.000888">
        <ele>412.301</ele>
        <time>2022-08-22T09:14:07Z</time>
      </trkpt>
      <trkpt lat="42.909209" lon="-8.000964">
        <ele>412.521</ele>
        <time>2022-08-22T09:14:11Z</time>
      </trkpt>
      <trkpt lat="42.909225" lon="-8.001022">
        <ele>412.609</ele>
        <time>2022-08-22T09:14:14Z</time>
      </trkpt>
      <trkpt lat="42.909230" lon="-8.001100">
        <ele>412.714</ele>
        <time>2022-08-22T09:14:19Z</time>
      </trkpt>
      <trkpt lat="42.909246" lon="-8.001167">
        <ele>412.894</ele>
        <time>2022-08-22T09:14:23Z</time>
      </trkpt>
      <trkpt lat="42.909263" lon="-8.001224">
        <ele>413.174</ele>
        <time>2022-08-22T09:14:27Z</time>
      </trkpt>
      <trkpt lat="42.909268" lon="-8.001305">
        <ele>413.557</ele>
        <time>2022-08-22T09:14:31Z</time>
      </trkpt>
      <trkpt lat="42.909250" lon="-8.001381">
        <ele>413.919</ele>
        <time>2022-08-22T09:14:35Z</time>
      </trkpt>
      <trkpt lat="42.909234" lon="-8.001440">
        <ele>414.161</ele>
        <time>2022-08-22T09:14:39Z</time>
      </trkpt>
      <trkpt lat="42.909214" lon="-8.001501">
        <ele>414.451</ele>
        <time>2022-08-22T09:14:43Z</time>
      </trkpt>
      <trkpt lat="42.909188" lon="-8.001551">
        <ele>414.756</ele>
        <time>2022-08-22T09:14:46Z</time>
      </trkpt>
      <trkpt lat="42.909162" lon="-8.001613">
        <ele>414.981</ele>
        <time>2022-08-22T09:14:50Z</time>
      </trkpt>
      <trkpt lat="42.909132" lon="-8.001675">
        <ele>415.043</ele>
        <time>2022-08-22T09:14:54Z</time>
      </trkpt>
      <trkpt lat="42.909112" lon="-8.001732">
        <ele>415.064</ele>
        <time>2022-08-22T09:14:58Z</time>
      </trkpt>
      <trkpt lat="42.909083" lon="-8.001801">
        <ele>415.010</ele>
        <time>2022-08-22T09:15:02Z</time>
      </trkpt>
      <trkpt lat="42.909068" lon="-8.001863">
        <ele>415.009</ele>
        <time>2022-08-22T09:15:06Z</time>
      </trkpt>
      <trkpt lat="42.909044" lon="-8.001934">
        <ele>414.895</ele>
        <time>2022-08-22T09:15:10Z</time>
      </trkpt>
      <trkpt lat="42.909032" lon="-8.002005">
        <ele>414.735</ele>
        <time>2022-08-22T09:15:14Z</time>
      </trkpt>
      <trkpt lat="42.909025" lon="-8.002080">
        <ele>414.655</ele>
        <time>2022-08-22T09:15:18Z</time>
      </trkpt>
      <trkpt lat="42.909035" lon="-8.002154">
        <ele>414.138</ele>
        <time>2022-08-22T09:15:22Z</time>
      </trkpt>
      <trkpt lat="42.909059" lon="-8.002226">
        <ele>414.150</ele>
        <time>2022-08-22T09:15:26Z</time>
      </trkpt>
      <trkpt lat="42.909075" lon="-8.002300">
        <ele>414.052</ele>
        <time>2022-08-22T09:15:30Z</time>
      </trkpt>
      <trkpt lat="42.909097" lon="-8.002366">
        <ele>413.882</ele>
        <time>2022-08-22T09:15:34Z</time>
      </trkpt>
      <trkpt lat="42.909132" lon="-8.002422">
        <ele>413.867</ele>
        <time>2022-08-22T09:15:38Z</time>
      </trkpt>
      <trkpt lat="42.909168" lon="-8.002484">
        <ele>413.842</ele>
        <time>2022-08-22T09:15:42Z</time>
      </trkpt>
      <trkpt lat="42.909193" lon="-8.002550">
        <ele>413.922</ele>
        <time>2022-08-22T09:15:46Z</time>
      </trkpt>
      <trkpt lat="42.909227" lon="-8.002594">
        <ele>414.062</ele>
        <time>2022-08-22T09:15:49Z</time>
      </trkpt>
      <trkpt lat="42.909252" lon="-8.002646">
        <ele>414.108</ele>
        <time>2022-08-22T09:15:52Z</time>
      </trkpt>
      <trkpt lat="42.909295" lon="-8.002701">
        <ele>414.109</ele>
        <time>2022-08-22T09:15:56Z</time>
      </trkpt>
      <trkpt lat="42.909343" lon="-8.002747">
        <ele>414.173</ele>
        <time>2022-08-22T09:16:00Z</time>
      </trkpt>
      <trkpt lat="42.909391" lon="-8.002792">
        <ele>414.123</ele>
        <time>2022-08-22T09:16:04Z</time>
      </trkpt>
      <trkpt lat="42.909440" lon="-8.002828">
        <ele>414.163</ele>
        <time>2022-08-22T09:16:08Z</time>
      </trkpt>
      <trkpt lat="42.909486" lon="-8.002875">
        <ele>414.126</ele>
        <time>2022-08-22T09:16:12Z</time>
      </trkpt>
      <trkpt lat="42.909528" lon="-8.002927">
        <ele>414.368</ele>
        <time>2022-08-22T09:16:16Z</time>
      </trkpt>
      <trkpt lat="42.909568" lon="-8.002981">
        <ele>414.660</ele>
        <time>2022-08-22T09:16:20Z</time>
      </trkpt>
      <trkpt lat="42.909609" lon="-8.003034">
        <ele>414.820</ele>
        <time>2022-08-22T09:16:24Z</time>
      </trkpt>
      <trkpt lat="42.909646" lon="-8.003086">
        <ele>415.075</ele>
        <time>2022-08-22T09:16:28Z</time>
      </trkpt>
      <trkpt lat="42.909676" lon="-8.003145">
        <ele>415.430</ele>
        <time>2022-08-22T09:16:32Z</time>
      </trkpt>
      <trkpt lat="42.909715" lon="-8.003195">
        <ele>415.728</ele>
        <time>2022-08-22T09:16:36Z</time>
      </trkpt>
      <trkpt lat="42.909750" lon="-8.003251">
        <ele>415.889</ele>
        <time>2022-08-22T09:16:40Z</time>
      </trkpt>
      <trkpt lat="42.909788" lon="-8.003301">
        <ele>416.017</ele>
        <time>2022-08-22T09:16:44Z</time>
      </trkpt>
      <trkpt lat="42.909821" lon="-8.003358">
        <ele>416.409</ele>
        <time>2022-08-22T09:16:48Z</time>
      </trkpt>
      <trkpt lat="42.909859" lon="-8.003412">
        <ele>416.973</ele>
        <time>2022-08-22T09:16:52Z</time>
      </trkpt>
      <trkpt lat="42.909894" lon="-8.003468">
        <ele>417.393</ele>
        <time>2022-08-22T09:16:56Z</time>
      </trkpt>
      <trkpt lat="42.909930" lon="-8.003525">
        <ele>417.993</ele>
        <time>2022-08-22T09:17:00Z</time>
      </trkpt>
      <trkpt lat="42.909964" lon="-8.003583">
        <ele>418.486</ele>
        <time>2022-08-22T09:17:04Z</time>
      </trkpt>
      <trkpt lat="42.909991" lon="-8.003644">
        <ele>418.998</ele>
        <time>2022-08-22T09:17:08Z</time>
      </trkpt>
      <trkpt lat="42.910026" lon="-8.003701">
        <ele>419.210</ele>
        <time>2022-08-22T09:17:12Z</time>
      </trkpt>
      <trkpt lat="42.910057" lon="-8.003760">
        <ele>419.710</ele>
        <time>2022-08-22T09:17:16Z</time>
      </trkpt>
      <trkpt lat="42.910090" lon="-8.003815">
        <ele>420.285</ele>
        <time>2022-08-22T09:17:20Z</time>
      </trkpt>
      <trkpt lat="42.910126" lon="-8.003873">
        <ele>420.630</ele>
        <time>2022-08-22T09:17:24Z</time>
      </trkpt>
      <trkpt lat="42.910160" lon="-8.003927">
        <ele>420.931</ele>
        <time>2022-08-22T09:17:28Z</time>
      </trkpt>
      <trkpt lat="42.910193" lon="-8.003983">
        <ele>421.261</ele>
        <time>2022-08-22T09:17:32Z</time>
      </trkpt>
      <trkpt lat="42.910227" lon="-8.004037">
        <ele>421.607</ele>
        <time>2022-08-22T09:17:36Z</time>
      </trkpt>
      <trkpt lat="42.910257" lon="-8.004095">
        <ele>422.009</ele>
        <time>2022-08-22T09:17:40Z</time>
      </trkpt>
      <trkpt lat="42.910283" lon="-8.004157">
        <ele>422.354</ele>
        <time>2022-08-22T09:17:44Z</time>
      </trkpt>
      <trkpt lat="42.910310" lon="-8.004221">
        <ele>422.674</ele>
        <time>2022-08-22T09:17:48Z</time>
      </trkpt>
      <trkpt lat="42.910336" lon="-8.004285">
        <ele>422.834</ele>
        <time>2022-08-22T09:17:52Z</time>
      </trkpt>
      <trkpt lat="42.910365" lon="-8.004348">
        <ele>423.037</ele>
        <time>2022-08-22T09:17:56Z</time>
      </trkpt>
      <trkpt lat="42.910392" lon="-8.004410">
        <ele>423.399</ele>
        <time>2022-08-22T09:18:00Z</time>
      </trkpt>
      <trkpt lat="42.910423" lon="-8.004468">
        <ele>423.681</ele>
        <time>2022-08-22T09:18:04Z</time>
      </trkpt>
      <trkpt lat="42.910453" lon="-8.004530">
        <ele>423.951</ele>
        <time>2022-08-22T09:18:08Z</time>
      </trkpt>
      <trkpt lat="42.910477" lon="-8.004594">
        <ele>424.226</ele>
        <time>2022-08-22T09:18:12Z</time>
      </trkpt>
      <trkpt lat="42.910504" lon="-8.004660">
        <ele>424.641</ele>
        <time>2022-08-22T09:18:16Z</time>
      </trkpt>
      <trkpt lat="42.910532" lon="-8.004722">
        <ele>424.966</ele>
        <time>2022-08-22T09:18:20Z</time>
      </trkpt>
      <trkpt lat="42.910557" lon="-8.004787">
        <ele>425.229</ele>
        <time>2022-08-22T09:18:24Z</time>
      </trkpt>
      <trkpt lat="42.910585" lon="-8.004852">
        <ele>425.621</ele>
        <time>2022-08-22T09:18:28Z</time>
      </trkpt>
      <trkpt lat="42.910607" lon="-8.004918">
        <ele>425.909</ele>
        <time>2022-08-22T09:18:32Z</time>
      </trkpt>
      <trkpt lat="42.910635" lon="-8.004981">
        <ele>426.167</ele>
        <time>2022-08-22T09:18:36Z</time>
      </trkpt>
      <trkpt lat="42.910661" lon="-8.005045">
        <ele>426.557</ele>
        <time>2022-08-22T09:18:40Z</time>
      </trkpt>
      <trkpt lat="42.910687" lon="-8.005111">
        <ele>427.027</ele>
        <time>2022-08-22T09:18:44Z</time>
      </trkpt>
      <trkpt lat="42.910712" lon="-8.005175">
        <ele>427.230</ele>
        <time>2022-08-22T09:18:48Z</time>
      </trkpt>
      <trkpt lat="42.910730" lon="-8.005244">
        <ele>427.512</ele>
        <time>2022-08-22T09:18:52Z</time>
      </trkpt>
      <trkpt lat="42.910758" lon="-8.005306">
        <ele>427.874</ele>
        <time>2022-08-22T09:18:56Z</time>
      </trkpt>
      <trkpt lat="42.910779" lon="-8.005372">
        <ele>428.194</ele>
        <time>2022-08-22T09:19:00Z</time>
      </trkpt>
      <trkpt lat="42.910805" lon="-8.005436">
        <ele>428.529</ele>
        <time>2022-08-22T09:19:04Z</time>
      </trkpt>
      <trkpt lat="42.910835" lon="-8.005499">
        <ele>428.934</ele>
        <time>2022-08-22T09:19:08Z</time>
      </trkpt>
      <trkpt lat="42.910851" lon="-8.005570">
        <ele>429.534</ele>
        <time>2022-08-22T09:19:12Z</time>
      </trkpt>
      <trkpt lat="42.910882" lon="-8.005632">
        <ele>429.855</ele>
        <time>2022-08-22T09:19:16Z</time>
      </trkpt>
      <trkpt lat="42.910910" lon="-8.005696">
        <ele>430.110</ele>
        <time>2022-08-22T09:19:20Z</time>
      </trkpt>
      <trkpt lat="42.910935" lon="-8.005764">
        <ele>430.509</ele>
        <time>2022-08-22T09:19:24Z</time>
      </trkpt>
      <trkpt lat="42.910963" lon="-8.005827">
        <ele>430.884</ele>
        <time>2022-08-22T09:19:28Z</time>
      </trkpt>
      <trkpt lat="42.910984" lon="-8.005893">
        <ele>431.134</ele>
        <time>2022-08-22T09:19:32Z</time>
      </trkpt>
      <trkpt lat="42.911009" lon="-8.005957">
        <ele>431.494</ele>
        <time>2022-08-22T09:19:36Z</time>
      </trkpt>
      <trkpt lat="42.911034" lon="-8.006021">
        <ele>431.587</ele>
        <time>2022-08-22T09:19:40Z</time>
      </trkpt>
      <trkpt lat="42.911056" lon="-8.006087">
        <ele>431.839</ele>
        <time>2022-08-22T09:19:44Z</time>
      </trkpt>
      <trkpt lat="42.911088" lon="-8.006153">
        <ele>432.231</ele>
        <time>2022-08-22T09:19:48Z</time>
      </trkpt>
      <trkpt lat="42.911117" lon="-8.006221">
        <ele>432.521</ele>
        <time>2022-08-22T09:19:52Z</time>
      </trkpt>
      <trkpt lat="42.911143" lon="-8.006288">
        <ele>432.996</ele>
        <time>2022-08-22T09:19:56Z</time>
      </trkpt>
      <trkpt lat="42.911164" lon="-8.006357">
        <ele>433.181</ele>
        <time>2022-08-22T09:20:00Z</time>
      </trkpt>
      <trkpt lat="42.911183" lon="-8.006425">
        <ele>433.475</ele>
        <time>2022-08-22T09:20:04Z</time>
      </trkpt>
      <trkpt lat="42.911214" lon="-8.006486">
        <ele>433.628</ele>
        <time>2022-08-22T09:20:08Z</time>
      </trkpt>
      <trkpt lat="42.911239" lon="-8.006552">
        <ele>433.820</ele>
        <time>2022-08-22T09:20:12Z</time>
      </trkpt>
      <trkpt lat="42.911264" lon="-8.006622">
        <ele>434.209</ele>
        <time>2022-08-22T09:20:16Z</time>
      </trkpt>
      <trkpt lat="42.911294" lon="-8.006684">
        <ele>434.638</ele>
        <time>2022-08-22T09:20:20Z</time>
      </trkpt>
      <trkpt lat="42.911311" lon="-8.006750">
        <ele>434.638</ele>
        <time>2022-08-22T09:20:24Z</time>
      </trkpt>
      <trkpt lat="42.911307" lon="-8.006812">
        <ele>434.778</ele>
        <time>2022-08-22T09:20:28Z</time>
      </trkpt>
      <trkpt lat="42.911318" lon="-8.006880">
        <ele>435.031</ele>
        <time>2022-08-22T09:20:32Z</time>
      </trkpt>
      <trkpt lat="42.911337" lon="-8.006946">
        <ele>435.483</ele>
        <time>2022-08-22T09:20:36Z</time>
      </trkpt>
      <trkpt lat="42.911357" lon="-8.007001">
        <ele>435.765</ele>
        <time>2022-08-22T09:20:40Z</time>
      </trkpt>
      <trkpt lat="42.911360" lon="-8.007065">
        <ele>435.955</ele>
        <time>2022-08-22T09:20:45Z</time>
      </trkpt>
      <trkpt lat="42.911390" lon="-8.007125">
        <ele>436.170</ele>
        <time>2022-08-22T09:20:49Z</time>
      </trkpt>
      <trkpt lat="42.911417" lon="-8.007185">
        <ele>436.365</ele>
        <time>2022-08-22T09:20:53Z</time>
      </trkpt>
      <trkpt lat="42.911436" lon="-8.007242">
        <ele>436.525</ele>
        <time>2022-08-22T09:20:57Z</time>
      </trkpt>
      <trkpt lat="42.911466" lon="-8.007307">
        <ele>436.726</ele>
        <time>2022-08-22T09:21:01Z</time>
      </trkpt>
      <trkpt lat="42.911495" lon="-8.007372">
        <ele>436.908</ele>
        <time>2022-08-22T09:21:05Z</time>
      </trkpt>
      <trkpt lat="42.911521" lon="-8.007441">
        <ele>437.109</ele>
        <time>2022-08-22T09:21:09Z</time>
      </trkpt>
      <trkpt lat="42.911537" lon="-8.007506">
        <ele>437.343</ele>
        <time>2022-08-22T09:21:13Z</time>
      </trkpt>
      <trkpt lat="42.911558" lon="-8.007573">
        <ele>437.693</ele>
        <time>2022-08-22T09:21:17Z</time>
      </trkpt>
      <trkpt lat="42.911591" lon="-8.007621">
        <ele>437.713</ele>
        <time>2022-08-22T09:21:21Z</time>
      </trkpt>
      <trkpt lat="42.911613" lon="-8.007685">
        <ele>437.816</ele>
        <time>2022-08-22T09:21:25Z</time>
      </trkpt>
      <trkpt lat="42.911637" lon="-8.007743">
        <ele>437.878</ele>
        <time>2022-08-22T09:21:29Z</time>
      </trkpt>
      <trkpt lat="42.911659" lon="-8.007798">
        <ele>437.910</ele>
        <time>2022-08-22T09:21:33Z</time>
      </trkpt>
      <trkpt lat="42.911676" lon="-8.007865">
        <ele>438.090</ele>
        <time>2022-08-22T09:21:37Z</time>
      </trkpt>
      <trkpt lat="42.911702" lon="-8.007926">
        <ele>438.195</ele>
        <time>2022-08-22T09:21:41Z</time>
      </trkpt>
      <trkpt lat="42.911720" lon="-8.007997">
        <ele>438.370</ele>
        <time>2022-08-22T09:21:46Z</time>
      </trkpt>
      <trkpt lat="42.911740" lon="-8.008070">
        <ele>438.583</ele>
        <time>2022-08-22T09:21:50Z</time>
      </trkpt>
      <trkpt lat="42.911758" lon="-8.008126">
        <ele>438.725</ele>
        <time>2022-08-22T09:21:54Z</time>
      </trkpt>
      <trkpt lat="42.911785" lon="-8.008179">
        <ele>438.917</ele>
        <time>2022-08-22T09:21:57Z</time>
      </trkpt>
      <trkpt lat="42.911809" lon="-8.008249">
        <ele>439.109</ele>
        <time>2022-08-22T09:22:01Z</time>
      </trkpt>
      <trkpt lat="42.911810" lon="-8.008317">
        <ele>439.279</ele>
        <time>2022-08-22T09:22:05Z</time>
      </trkpt>
      <trkpt lat="42.911837" lon="-8.008369">
        <ele>439.379</ele>
        <time>2022-08-22T09:22:08Z</time>
      </trkpt>
      <trkpt lat="42.911860" lon="-8.008435">
        <ele>439.589</ele>
        <time>2022-08-22T09:22:12Z</time>
      </trkpt>
      <trkpt lat="42.911896" lon="-8.008488">
        <ele>439.622</ele>
        <time>2022-08-22T09:22:16Z</time>
      </trkpt>
      <trkpt lat="42.911924" lon="-8.008537">
        <ele>439.854</ele>
        <time>2022-08-22T09:22:20Z</time>
      </trkpt>
      <trkpt lat="42.911948" lon="-8.008604">
        <ele>439.936</ele>
        <time>2022-08-22T09:22:24Z</time>
      </trkpt>
      <trkpt lat="42.911952" lon="-8.008667">
        <ele>439.926</ele>
        <time>2022-08-22T09:22:28Z</time>
      </trkpt>
      <trkpt lat="42.911960" lon="-8.008738">
        <ele>439.931</ele>
        <time>2022-08-22T09:22:32Z</time>
      </trkpt>
      <trkpt lat="42.911961" lon="-8.008811">
        <ele>440.026</ele>
        <time>2022-08-22T09:22:36Z</time>
      </trkpt>
      <trkpt lat="42.911970" lon="-8.008878">
        <ele>440.227</ele>
        <time>2022-08-22T09:22:40Z</time>
      </trkpt>
      <trkpt lat="42.911966" lon="-8.008942">
        <ele>440.568</ele>
        <time>2022-08-22T09:22:44Z</time>
      </trkpt>
      <trkpt lat="42.911975" lon="-8.009007">
        <ele>440.714</ele>
        <time>2022-08-22T09:22:47Z</time>
      </trkpt>
      <trkpt lat="42.911971" lon="-8.009070">
        <ele>440.909</ele>
        <time>2022-08-22T09:22:51Z</time>
      </trkpt>
      <trkpt lat="42.911982" lon="-8.009147">
        <ele>441.173</ele>
        <time>2022-08-22T09:22:55Z</time>
      </trkpt>
      <trkpt lat="42.912006" lon="-8.009217">
        <ele>441.413</ele>
        <time>2022-08-22T09:22:59Z</time>
      </trkpt>
      <trkpt lat="42.912031" lon="-8.009285">
        <ele>441.653</ele>
        <time>2022-08-22T09:23:03Z</time>
      </trkpt>
      <trkpt lat="42.912034" lon="-8.009362">
        <ele>442.096</ele>
        <time>2022-08-22T09:23:07Z</time>
      </trkpt>
      <trkpt lat="42.912042" lon="-8.009438">
        <ele>442.378</ele>
        <time>2022-08-22T09:23:12Z</time>
      </trkpt>
      <trkpt lat="42.912069" lon="-8.009509">
        <ele>442.660</ele>
        <time>2022-08-22T09:23:16Z</time>
      </trkpt>
      <trkpt lat="42.912085" lon="-8.009574">
        <ele>442.920</ele>
        <time>2022-08-22T09:23:20Z</time>
      </trkpt>
      <trkpt lat="42.912112" lon="-8.009627">
        <ele>443.235</ele>
        <time>2022-08-22T09:23:24Z</time>
      </trkpt>
      <trkpt lat="42.912133" lon="-8.009687">
        <ele>443.530</ele>
        <time>2022-08-22T09:23:28Z</time>
      </trkpt>
      <trkpt lat="42.912154" lon="-8.009746">
        <ele>443.878</ele>
        <time>2022-08-22T09:23:32Z</time>
      </trkpt>
      <trkpt lat="42.912175" lon="-8.009802">
        <ele>444.033</ele>
        <time>2022-08-22T09:23:35Z</time>
      </trkpt>
      <trkpt lat="42.912204" lon="-8.009869">
        <ele>444.226</ele>
        <time>2022-08-22T09:23:39Z</time>
      </trkpt>
      <trkpt lat="42.912226" lon="-8.009942">
        <ele>444.309</ele>
        <time>2022-08-22T09:23:43Z</time>
      </trkpt>
      <trkpt lat="42.912253" lon="-8.010008">
        <ele>444.348</ele>
        <time>2022-08-22T09:23:47Z</time>
      </trkpt>
      <trkpt lat="42.912278" lon="-8.010066">
        <ele>444.458</ele>
        <time>2022-08-22T09:23:51Z</time>
      </trkpt>
      <trkpt lat="42.912296" lon="-8.010140">
        <ele>444.718</ele>
        <time>2022-08-22T09:23:55Z</time>
      </trkpt>
      <trkpt lat="42.912324" lon="-8.010207">
        <ele>444.921</ele>
        <time>2022-08-22T09:24:00Z</time>
      </trkpt>
      <trkpt lat="42.912356" lon="-8.010274">
        <ele>445.153</ele>
        <time>2022-08-22T09:24:04Z</time>
      </trkpt>
      <trkpt lat="42.912384" lon="-8.010345">
        <ele>445.285</ele>
        <time>2022-08-22T09:24:08Z</time>
      </trkpt>
      <trkpt lat="42.912408" lon="-8.010410">
        <ele>445.395</ele>
        <time>2022-08-22T09:24:12Z</time>
      </trkpt>
      <trkpt lat="42.912431" lon="-8.010470">
        <ele>445.410</ele>
        <time>2022-08-22T09:24:16Z</time>
      </trkpt>
      <trkpt lat="42.912456" lon="-8.010521">
        <ele>445.655</ele>
        <time>2022-08-22T09:24:20Z</time>
      </trkpt>
      <trkpt lat="42.912476" lon="-8.010581">
        <ele>445.951</ele>
        <time>2022-08-22T09:24:24Z</time>
      </trkpt>
      <trkpt lat="42.912513" lon="-8.010636">
        <ele>446.101</ele>
        <time>2022-08-22T09:24:28Z</time>
      </trkpt>
      <trkpt lat="42.912533" lon="-8.010696">
        <ele>446.111</ele>
        <time>2022-08-22T09:24:31Z</time>
      </trkpt>
      <trkpt lat="42.912560" lon="-8.010752">
        <ele>446.209</ele>
        <time>2022-08-22T09:24:34Z</time>
      </trkpt>
      <trkpt lat="42.912593" lon="-8.010819">
        <ele>446.396</ele>
        <time>2022-08-22T09:24:38Z</time>
      </trkpt>
      <trkpt lat="42.912615" lon="-8.010880">
        <ele>446.426</ele>
        <time>2022-08-22T09:24:42Z</time>
      </trkpt>
      <trkpt lat="42.912645" lon="-8.010928">
        <ele>446.676</ele>
        <time>2022-08-22T09:24:46Z</time>
      </trkpt>
      <trkpt lat="42.912677" lon="-8.010974">
        <ele>446.819</ele>
        <time>2022-08-22T09:24:50Z</time>
      </trkpt>
      <trkpt lat="42.912703" lon="-8.011025">
        <ele>447.051</ele>
        <time>2022-08-22T09:24:53Z</time>
      </trkpt>
      <trkpt lat="42.912740" lon="-8.011081">
        <ele>447.273</ele>
        <time>2022-08-22T09:24:57Z</time>
      </trkpt>
      <trkpt lat="42.912767" lon="-8.011153">
        <ele>447.353</ele>
        <time>2022-08-22T09:25:01Z</time>
      </trkpt>
      <trkpt lat="42.912813" lon="-8.011163">
        <ele>447.328</ele>
        <time>2022-08-22T09:25:04Z</time>
      </trkpt>
      <trkpt lat="42.912868" lon="-8.011178">
        <ele>447.493</ele>
        <time>2022-08-22T09:25:08Z</time>
      </trkpt>
      <trkpt lat="42.912902" lon="-8.011218">
        <ele>447.539</ele>
        <time>2022-08-22T09:25:12Z</time>
      </trkpt>
      <trkpt lat="42.912943" lon="-8.011245">
        <ele>447.601</ele>
        <time>2022-08-22T09:25:16Z</time>
      </trkpt>
      <trkpt lat="42.912979" lon="-8.011286">
        <ele>447.621</ele>
        <time>2022-08-22T09:25:21Z</time>
      </trkpt>
      <trkpt lat="42.913024" lon="-8.011327">
        <ele>447.709</ele>
        <time>2022-08-22T09:25:25Z</time>
      </trkpt>
      <trkpt lat="42.913072" lon="-8.011368">
        <ele>447.984</ele>
        <time>2022-08-22T09:25:29Z</time>
      </trkpt>
      <trkpt lat="42.913110" lon="-8.011411">
        <ele>448.294</ele>
        <time>2022-08-22T09:25:33Z</time>
      </trkpt>
      <trkpt lat="42.913156" lon="-8.011433">
        <ele>448.684</ele>
        <time>2022-08-22T09:25:36Z</time>
      </trkpt>
      <trkpt lat="42.913206" lon="-8.011452">
        <ele>449.067</ele>
        <time>2022-08-22T09:25:40Z</time>
      </trkpt>
      <trkpt lat="42.913243" lon="-8.011487">
        <ele>449.379</ele>
        <time>2022-08-22T09:25:46Z</time>
      </trkpt>
      <trkpt lat="42.913285" lon="-8.011540">
        <ele>449.661</ele>
        <time>2022-08-22T09:25:51Z</time>
      </trkpt>
      <trkpt lat="42.913311" lon="-8.011606">
        <ele>450.261</ele>
        <time>2022-08-22T09:25:55Z</time>
      </trkpt>
      <trkpt lat="42.913334" lon="-8.011661">
        <ele>450.846</ele>
        <time>2022-08-22T09:25:58Z</time>
      </trkpt>
      <trkpt lat="42.913366" lon="-8.011731">
        <ele>451.281</ele>
        <time>2022-08-22T09:26:03Z</time>
      </trkpt>
      <trkpt lat="42.913400" lon="-8.011789">
        <ele>451.579</ele>
        <time>2022-08-22T09:26:08Z</time>
      </trkpt>
      <trkpt lat="42.913407" lon="-8.011859">
        <ele>451.605</ele>
        <time>2022-08-22T09:26:13Z</time>
      </trkpt>
      <trkpt lat="42.913401" lon="-8.011930">
        <ele>452.025</ele>
        <time>2022-08-22T09:26:18Z</time>
      </trkpt>
      <trkpt lat="42.913403" lon="-8.012007">
        <ele>452.409</ele>
        <time>2022-08-22T09:26:23Z</time>
      </trkpt>
      <trkpt lat="42.913407" lon="-8.012070">
        <ele>452.538</ele>
        <time>2022-08-22T09:26:27Z</time>
      </trkpt>
      <trkpt lat="42.913391" lon="-8.012139">
        <ele>452.898</ele>
        <time>2022-08-22T09:26:31Z</time>
      </trkpt>
      <trkpt lat="42.913370" lon="-8.012197">
        <ele>453.058</ele>
        <time>2022-08-22T09:26:36Z</time>
      </trkpt>
      <trkpt lat="42.913379" lon="-8.012278">
        <ele>453.211</ele>
        <time>2022-08-22T09:26:40Z</time>
      </trkpt>
      <trkpt lat="42.913404" lon="-8.012335">
        <ele>453.413</ele>
        <time>2022-08-22T09:26:43Z</time>
      </trkpt>
      <trkpt lat="42.913450" lon="-8.012384">
        <ele>453.635</ele>
        <time>2022-08-22T09:26:46Z</time>
      </trkpt>
      <trkpt lat="42.913495" lon="-8.012425">
        <ele>453.735</ele>
        <time>2022-08-22T09:26:51Z</time>
      </trkpt>
      <trkpt lat="42.913499" lon="-8.012492">
        <ele>453.770</ele>
        <time>2022-08-22T09:26:57Z</time>
      </trkpt>
      <trkpt lat="42.913518" lon="-8.012560">
        <ele>453.815</ele>
        <time>2022-08-22T09:27:00Z</time>
      </trkpt>
      <trkpt lat="42.913521" lon="-8.012633">
        <ele>454.162</ele>
        <time>2022-08-22T09:27:03Z</time>
      </trkpt>
      <trkpt lat="42.913552" lon="-8.012687">
        <ele>454.383</ele>
        <time>2022-08-22T09:27:06Z</time>
      </trkpt>
      <trkpt lat="42.913595" lon="-8.012737">
        <ele>454.411</ele>
        <time>2022-08-22T09:27:09Z</time>
      </trkpt>
      <trkpt lat="42.913640" lon="-8.012744">
        <ele>454.409</ele>
        <time>2022-08-22T09:27:11Z</time>
      </trkpt>
      <trkpt lat="42.913697" lon="-8.012741">
        <ele>454.477</ele>
        <time>2022-08-22T09:27:15Z</time>
      </trkpt>
      <trkpt lat="42.913746" lon="-8.012722">
        <ele>454.557</ele>
        <time>2022-08-22T09:27:19Z</time>
      </trkpt>
      <trkpt lat="42.913771" lon="-8.012781">
        <ele>454.737</ele>
        <time>2022-08-22T09:27:24Z</time>
      </trkpt>
      <trkpt lat="42.913812" lon="-8.012833">
        <ele>454.910</ele>
        <time>2022-08-22T09:27:33Z</time>
      </trkpt>
      <trkpt lat="42.913825" lon="-8.012892">
        <ele>455.082</ele>
        <time>2022-08-22T09:27:37Z</time>
      </trkpt>
      <trkpt lat="42.913866" lon="-8.012941">
        <ele>455.064</ele>
        <time>2022-08-22T09:27:42Z</time>
      </trkpt>
      <trkpt lat="42.913905" lon="-8.012982">
        <ele>455.084</ele>
        <time>2022-08-22T09:27:46Z</time>
      </trkpt>
      <trkpt lat="42.913868" lon="-8.013044">
        <ele>455.189</ele>
        <time>2022-08-22T09:28:46Z</time>
      </trkpt>
      <trkpt lat="42.913906" lon="-8.013127">
        <ele>455.294</ele>
        <time>2022-08-22T09:28:57Z</time>
      </trkpt>
      <trkpt lat="42.913915" lon="-8.012983">
        <ele>455.787</ele>
        <time>2022-08-22T09:31:07Z</time>
      </trkpt>
      <trkpt lat="42.913850" lon="-8.012985">
        <ele>455.842</ele>
        <time>2022-08-22T09:31:37Z</time>
      </trkpt>
      <trkpt lat="42.913799" lon="-8.012997">
        <ele>455.926</ele>
        <time>2022-08-22T09:31:43Z</time>
      </trkpt>
      <trkpt lat="42.913754" lon="-8.013021">
        <ele>456.009</ele>
        <time>2022-08-22T09:31:48Z</time>
      </trkpt>
      <trkpt lat="42.913695" lon="-8.013021">
        <ele>456.059</ele>
        <time>2022-08-22T09:31:51Z</time>
      </trkpt>
      <trkpt lat="42.913692" lon="-8.013086">
        <ele>456.029</ele>
        <time>2022-08-22T09:31:55Z</time>
      </trkpt>
      <trkpt lat="42.913701" lon="-8.013147">
        <ele>456.029</ele>
        <time>2022-08-22T09:31:57Z</time>
      </trkpt>
      <trkpt lat="42.913690" lon="-8.013210">
        <ele>456.142</ele>
        <time>2022-08-22T09:32:00Z</time>
      </trkpt>
      <trkpt lat="42.913685" lon="-8.013271">
        <ele>456.214</ele>
        <time>2022-08-22T09:32:04Z</time>
      </trkpt>
      <trkpt lat="42.913683" lon="-8.013336">
        <ele>456.296</ele>
        <time>2022-08-22T09:32:09Z</time>
      </trkpt>
      <trkpt lat="42.913671" lon="-8.013405">
        <ele>456.296</ele>
        <time>2022-08-22T09:32:14Z</time>
      </trkpt>
      <trkpt lat="42.913698" lon="-8.013499">
        <ele>456.321</ele>
        <time>2022-08-22T09:32:19Z</time>
      </trkpt>
      <trkpt lat="42.913732" lon="-8.013557">
        <ele>456.416</ele>
        <time>2022-08-22T09:32:22Z</time>
      </trkpt>
      <trkpt lat="42.913747" lon="-8.013617">
        <ele>456.426</ele>
        <time>2022-08-22T09:32:26Z</time>
      </trkpt>
      <trkpt lat="42.913764" lon="-8.013682">
        <ele>456.447</ele>
        <time>2022-08-22T09:32:30Z</time>
      </trkpt>
      <trkpt lat="42.913773" lon="-8.013764">
        <ele>456.411</ele>
        <time>2022-08-22T09:32:34Z</time>
      </trkpt>
      <trkpt lat="42.913798" lon="-8.013819">
        <ele>456.509</ele>
        <time>2022-08-22T09:32:39Z</time>
      </trkpt>
      <trkpt lat="42.913788" lon="-8.013907">
        <ele>456.633</ele>
        <time>2022-08-22T09:38:33Z</time>
      </trkpt>
      <trkpt lat="42.913806" lon="-8.013850">
        <ele>456.643</ele>
        <time>2022-08-22T09:50:50Z</time>
      </trkpt>
      <trkpt lat="42.913757" lon="-8.013666">
        <ele>456.783</ele>
        <time>2022-08-22T09:51:41Z</time>
      </trkpt>
      <trkpt lat="42.913752" lon="-8.013739">
        <ele>456.716</ele>
        <time>2022-08-22T09:52:38Z</time>
      </trkpt>
      <trkpt lat="42.913815" lon="-8.013652">
        <ele>456.448</ele>
        <time>2022-08-22T09:55:07Z</time>
      </trkpt>
      <trkpt lat="42.913866" lon="-8.013643">
        <ele>456.580</ele>
        <time>2022-08-22T09:59:01Z</time>
      </trkpt>
      <trkpt lat="42.913770" lon="-8.013648">
        <ele>456.560</ele>
        <time>2022-08-22T09:59:18Z</time>
      </trkpt>
      <trkpt lat="42.913730" lon="-8.013605">
        <ele>456.685</ele>
        <time>2022-08-22T09:59:37Z</time>
      </trkpt>
      <trkpt lat="42.913813" lon="-8.013676">
        <ele>456.630</ele>
        <time>2022-08-22T10:02:10Z</time>
      </trkpt>
      <trkpt lat="42.913865" lon="-8.013740">
        <ele>456.656</ele>
        <time>2022-08-22T10:04:53Z</time>
      </trkpt>
      <trkpt lat="42.913863" lon="-8.013903">
        <ele>457.259</ele>
        <time>2022-08-22T10:05:10Z</time>
      </trkpt>
      <trkpt lat="42.913854" lon="-8.013963">
        <ele>457.414</ele>
        <time>2022-08-22T10:05:14Z</time>
      </trkpt>
      <trkpt lat="42.913857" lon="-8.014030">
        <ele>457.609</ele>
        <time>2022-08-22T10:05:19Z</time>
      </trkpt>
      <trkpt lat="42.913876" lon="-8.014095">
        <ele>457.686</ele>
        <time>2022-08-22T10:05:24Z</time>
      </trkpt>
      <trkpt lat="42.913880" lon="-8.014158">
        <ele>457.786</ele>
        <time>2022-08-22T10:05:29Z</time>
      </trkpt>
      <trkpt lat="42.913889" lon="-8.014223">
        <ele>457.776</ele>
        <time>2022-08-22T10:05:34Z</time>
      </trkpt>
      <trkpt lat="42.913898" lon="-8.014286">
        <ele>457.759</ele>
        <time>2022-08-22T10:05:38Z</time>
      </trkpt>
      <trkpt lat="42.913907" lon="-8.014361">
        <ele>457.861</ele>
        <time>2022-08-22T10:05:42Z</time>
      </trkpt>
      <trkpt lat="42.913920" lon="-8.014430">
        <ele>458.023</ele>
        <time>2022-08-22T10:05:47Z</time>
      </trkpt>
      <trkpt lat="42.913941" lon="-8.014493">
        <ele>458.213</ele>
        <time>2022-08-22T10:05:51Z</time>
      </trkpt>
      <trkpt lat="42.913973" lon="-8.014548">
        <ele>458.348</ele>
        <time>2022-08-22T10:05:56Z</time>
      </trkpt>
      <trkpt lat="42.914009" lon="-8.014597">
        <ele>458.393</ele>
        <time>2022-08-22T10:06:02Z</time>
      </trkpt>
      <trkpt lat="42.914067" lon="-8.014675">
        <ele>458.342</ele>
        <time>2022-08-22T10:06:11Z</time>
      </trkpt>
      <trkpt lat="42.914102" lon="-8.014718">
        <ele>458.322</ele>
        <time>2022-08-22T10:06:18Z</time>
      </trkpt>
      <trkpt lat="42.914146" lon="-8.014764">
        <ele>458.314</ele>
        <time>2022-08-22T10:06:23Z</time>
      </trkpt>
      <trkpt lat="42.914196" lon="-8.014802">
        <ele>458.309</ele>
        <time>2022-08-22T10:06:28Z</time>
      </trkpt>
      <trkpt lat="42.914231" lon="-8.014842">
        <ele>458.325</ele>
        <time>2022-08-22T10:06:37Z</time>
      </trkpt>
      <trkpt lat="42.914273" lon="-8.014881">
        <ele>458.345</ele>
        <time>2022-08-22T10:06:46Z</time>
      </trkpt>
      <trkpt lat="42.914321" lon="-8.014896">
        <ele>458.345</ele>
        <time>2022-08-22T10:06:51Z</time>
      </trkpt>
      <trkpt lat="42.914377" lon="-8.014983">
        <ele>458.518</ele>
        <time>2022-08-22T10:07:01Z</time>
      </trkpt>
      <trkpt lat="42.914413" lon="-8.015021">
        <ele>458.510</ele>
        <time>2022-08-22T10:07:06Z</time>
      </trkpt>
      <trkpt lat="42.914425" lon="-8.015085">
        <ele>458.652</ele>
        <time>2022-08-22T10:07:09Z</time>
      </trkpt>
      <trkpt lat="42.914421" lon="-8.015160">
        <ele>458.772</ele>
        <time>2022-08-22T10:07:13Z</time>
      </trkpt>
      <trkpt lat="42.914411" lon="-8.015246">
        <ele>458.987</ele>
        <time>2022-08-22T10:07:17Z</time>
      </trkpt>
      <trkpt lat="42.914400" lon="-8.015308">
        <ele>459.132</ele>
        <time>2022-08-22T10:07:20Z</time>
      </trkpt>
      <trkpt lat="42.914387" lon="-8.015374">
        <ele>459.556</ele>
        <time>2022-08-22T10:07:23Z</time>
      </trkpt>
      <trkpt lat="42.914365" lon="-8.015429">
        <ele>459.759</ele>
        <time>2022-08-22T10:07:24Z</time>
      </trkpt>
      <trkpt lat="42.914327" lon="-8.015482">
        <ele>459.814</ele>
        <time>2022-08-22T10:07:26Z</time>
      </trkpt>
      <trkpt lat="42.914307" lon="-8.015550">
        <ele>459.909</ele>
        <time>2022-08-22T10:07:30Z</time>
      </trkpt>
      <trkpt lat="42.914289" lon="-8.015618">
        <ele>460.026</ele>
        <time>2022-08-22T10:07:34Z</time>
      </trkpt>
      <trkpt lat="42.914274" lon="-8.015684">
        <ele>460.276</ele>
        <time>2022-08-22T10:07:37Z</time>
      </trkpt>
      <trkpt lat="42.914255" lon="-8.015756">
        <ele>460.566</ele>
        <time>2022-08-22T10:07:41Z</time>
      </trkpt>
      <trkpt lat="42.914264" lon="-8.015834">
        <ele>460.759</ele>
        <time>2022-08-22T10:07:44Z</time>
      </trkpt>
      <trkpt lat="42.914271" lon="-8.015907">
        <ele>460.831</ele>
        <time>2022-08-22T10:07:48Z</time>
      </trkpt>
      <trkpt lat="42.914280" lon="-8.015973">
        <ele>460.843</ele>
        <time>2022-08-22T10:07:52Z</time>
      </trkpt>
      <trkpt lat="42.914283" lon="-8.016052">
        <ele>461.043</ele>
        <time>2022-08-22T10:07:56Z</time>
      </trkpt>
      <trkpt lat="42.914294" lon="-8.016124">
        <ele>461.078</ele>
        <time>2022-08-22T10:08:00Z</time>
      </trkpt>
      <trkpt lat="42.914291" lon="-8.016188">
        <ele>461.083</ele>
        <time>2022-08-22T10:08:04Z</time>
      </trkpt>
      <trkpt lat="42.914284" lon="-8.016251">
        <ele>461.076</ele>
        <time>2022-08-22T10:08:09Z</time>
      </trkpt>
      <trkpt lat="42.914270" lon="-8.016315">
        <ele>461.090</ele>
        <time>2022-08-22T10:08:13Z</time>
      </trkpt>
      <trkpt lat="42.914260" lon="-8.016390">
        <ele>460.919</ele>
        <time>2022-08-22T10:08:17Z</time>
      </trkpt>
      <trkpt lat="42.914257" lon="-8.016468">
        <ele>460.809</ele>
        <time>2022-08-22T10:08:22Z</time>
      </trkpt>
      <trkpt lat="42.914241" lon="-8.016533">
        <ele>460.698</ele>
        <time>2022-08-22T10:08:26Z</time>
      </trkpt>
      <trkpt lat="42.914219" lon="-8.016594">
        <ele>460.238</ele>
        <time>2022-08-22T10:08:30Z</time>
      </trkpt>
      <trkpt lat="42.914197" lon="-8.016649">
        <ele>459.668</ele>
        <time>2022-08-22T10:08:34Z</time>
      </trkpt>
      <trkpt lat="42.914189" lon="-8.016718">
        <ele>459.281</ele>
        <time>2022-08-22T10:08:38Z</time>
      </trkpt>
      <trkpt lat="42.914190" lon="-8.016780">
        <ele>459.163</ele>
        <time>2022-08-22T10:08:42Z</time>
      </trkpt>
      <trkpt lat="42.914188" lon="-8.016854">
        <ele>458.935</ele>
        <time>2022-08-22T10:08:46Z</time>
      </trkpt>
      <trkpt lat="42.914172" lon="-8.016935">
        <ele>458.695</ele>
        <time>2022-08-22T10:08:51Z</time>
      </trkpt>
      <trkpt lat="42.914145" lon="-8.017000">
        <ele>458.540</ele>
        <time>2022-08-22T10:08:55Z</time>
      </trkpt>
      <trkpt lat="42.914141" lon="-8.017065">
        <ele>458.385</ele>
        <time>2022-08-22T10:08:59Z</time>
      </trkpt>
      <trkpt lat="42.914134" lon="-8.017132">
        <ele>458.138</ele>
        <time>2022-08-22T10:09:03Z</time>
      </trkpt>
      <trkpt lat="42.914123" lon="-8.017199">
        <ele>458.170</ele>
        <time>2022-08-22T10:09:07Z</time>
      </trkpt>
      <trkpt lat="42.914111" lon="-8.017267">
        <ele>458.017</ele>
        <time>2022-08-22T10:09:12Z</time>
      </trkpt>
      <trkpt lat="42.914106" lon="-8.017345">
        <ele>457.909</ele>
        <time>2022-08-22T10:09:16Z</time>
      </trkpt>
      <trkpt lat="42.914097" lon="-8.017406">
        <ele>457.824</ele>
        <time>2022-08-22T10:09:19Z</time>
      </trkpt>
      <trkpt lat="42.914094" lon="-8.017488">
        <ele>457.834</ele>
        <time>2022-08-22T10:09:24Z</time>
      </trkpt>
      <trkpt lat="42.914079" lon="-8.017555">
        <ele>457.824</ele>
        <time>2022-08-22T10:09:27Z</time>
      </trkpt>
      <trkpt lat="42.914049" lon="-8.017604">
        <ele>457.827</ele>
        <time>2022-08-22T10:09:31Z</time>
      </trkpt>
      <trkpt lat="42.914032" lon="-8.017670">
        <ele>457.969</ele>
        <time>2022-08-22T10:09:35Z</time>
      </trkpt>
      <trkpt lat="42.914022" lon="-8.017730">
        <ele>458.021</ele>
        <time>2022-08-22T10:09:38Z</time>
      </trkpt>
      <trkpt lat="42.914011" lon="-8.017803">
        <ele>458.031</ele>
        <time>2022-08-22T10:09:42Z</time>
      </trkpt>
      <trkpt lat="42.913992" lon="-8.017868">
        <ele>458.026</ele>
        <time>2022-08-22T10:09:46Z</time>
      </trkpt>
      <trkpt lat="42.913974" lon="-8.017934">
        <ele>458.171</ele>
        <time>2022-08-22T10:09:50Z</time>
      </trkpt>
      <trkpt lat="42.913957" lon="-8.017993">
        <ele>458.339</ele>
        <time>2022-08-22T10:09:53Z</time>
      </trkpt>
      <trkpt lat="42.913958" lon="-8.018063">
        <ele>458.501</ele>
        <time>2022-08-22T10:09:58Z</time>
      </trkpt>
      <trkpt lat="42.913939" lon="-8.018133">
        <ele>458.721</ele>
        <time>2022-08-22T10:10:02Z</time>
      </trkpt>
      <trkpt lat="42.913926" lon="-8.018208">
        <ele>459.009</ele>
        <time>2022-08-22T10:10:07Z</time>
      </trkpt>
      <trkpt lat="42.913907" lon="-8.018277">
        <ele>459.444</ele>
        <time>2022-08-22T10:10:12Z</time>
      </trkpt>
      <trkpt lat="42.913903" lon="-8.018342">
        <ele>460.094</ele>
        <time>2022-08-22T10:10:16Z</time>
      </trkpt>
      <trkpt lat="42.913877" lon="-8.018410">
        <ele>460.884</ele>
        <time>2022-08-22T10:10:20Z</time>
      </trkpt>
      <trkpt lat="42.913869" lon="-8.018488">
        <ele>461.817</ele>
        <time>2022-08-22T10:10:25Z</time>
      </trkpt>
      <trkpt lat="42.913858" lon="-8.018564">
        <ele>462.479</ele>
        <time>2022-08-22T10:10:29Z</time>
      </trkpt>
      <trkpt lat="42.913843" lon="-8.018631">
        <ele>463.231</ele>
        <time>2022-08-22T10:10:33Z</time>
      </trkpt>
      <trkpt lat="42.913829" lon="-8.018700">
        <ele>463.951</ele>
        <time>2022-08-22T10:10:37Z</time>
      </trkpt>
      <trkpt lat="42.913824" lon="-8.018773">
        <ele>464.546</ele>
        <time>2022-08-22T10:10:41Z</time>
      </trkpt>
      <trkpt lat="42.913813" lon="-8.018840">
        <ele>464.881</ele>
        <time>2022-08-22T10:10:45Z</time>
      </trkpt>
      <trkpt lat="42.913813" lon="-8.018918">
        <ele>465.518</ele>
        <time>2022-08-22T10:10:49Z</time>
      </trkpt>
      <trkpt lat="42.913811" lon="-8.018980">
        <ele>466.298</ele>
        <time>2022-08-22T10:10:54Z</time>
      </trkpt>
      <trkpt lat="42.913809" lon="-8.019046">
        <ele>467.017</ele>
        <time>2022-08-22T10:10:59Z</time>
      </trkpt>
      <trkpt lat="42.913793" lon="-8.019115">
        <ele>467.809</ele>
        <time>2022-08-22T10:11:04Z</time>
      </trkpt>
      <trkpt lat="42.913777" lon="-8.019177">
        <ele>468.622</ele>
        <time>2022-08-22T10:11:08Z</time>
      </trkpt>
      <trkpt lat="42.913764" lon="-8.019248">
        <ele>469.032</ele>
        <time>2022-08-22T10:11:12Z</time>
      </trkpt>
      <trkpt lat="42.913741" lon="-8.019315">
        <ele>469.082</ele>
        <time>2022-08-22T10:11:16Z</time>
      </trkpt>
      <trkpt lat="42.913719" lon="-8.019371">
        <ele>469.075</ele>
        <time>2022-08-22T10:11:19Z</time>
      </trkpt>
      <trkpt lat="42.913690" lon="-8.019430">
        <ele>468.947</ele>
        <time>2022-08-22T10:11:23Z</time>
      </trkpt>
      <trkpt lat="42.913669" lon="-8.019498">
        <ele>468.789</ele>
        <time>2022-08-22T10:11:27Z</time>
      </trkpt>
      <trkpt lat="42.913642" lon="-8.019561">
        <ele>468.649</ele>
        <time>2022-08-22T10:11:31Z</time>
      </trkpt>
      <trkpt lat="42.913620" lon="-8.019616">
        <ele>468.414</ele>
        <time>2022-08-22T10:11:35Z</time>
      </trkpt>
      <trkpt lat="42.913608" lon="-8.019681">
        <ele>468.169</ele>
        <time>2022-08-22T10:11:39Z</time>
      </trkpt>
      <trkpt lat="42.913583" lon="-8.019742">
        <ele>467.635</ele>
        <time>2022-08-22T10:11:44Z</time>
      </trkpt>
      <trkpt lat="42.913565" lon="-8.019805">
        <ele>467.186</ele>
        <time>2022-08-22T10:11:49Z</time>
      </trkpt>
      <trkpt lat="42.913526" lon="-8.019862">
        <ele>466.714</ele>
        <time>2022-08-22T10:11:52Z</time>
      </trkpt>
      <trkpt lat="42.913482" lon="-8.019909">
        <ele>466.509</ele>
        <time>2022-08-22T10:11:55Z</time>
      </trkpt>
      <trkpt lat="42.913435" lon="-8.019964">
        <ele>466.474</ele>
        <time>2022-08-22T10:11:59Z</time>
      </trkpt>
      <trkpt lat="42.913392" lon="-8.020004">
        <ele>466.324</ele>
        <time>2022-08-22T10:12:04Z</time>
      </trkpt>
      <trkpt lat="42.913360" lon="-8.020056">
        <ele>466.234</ele>
        <time>2022-08-22T10:12:08Z</time>
      </trkpt>
      <trkpt lat="42.913336" lon="-8.020118">
        <ele>465.817</ele>
        <time>2022-08-22T10:12:13Z</time>
      </trkpt>
      <trkpt lat="42.913322" lon="-8.020185">
        <ele>465.669</ele>
        <time>2022-08-22T10:12:17Z</time>
      </trkpt>
      <trkpt lat="42.913301" lon="-8.020258">
        <ele>465.051</ele>
        <time>2022-08-22T10:12:22Z</time>
      </trkpt>
      <trkpt lat="42.913278" lon="-8.020335">
        <ele>463.991</ele>
        <time>2022-08-22T10:12:27Z</time>
      </trkpt>
      <trkpt lat="42.913238" lon="-8.020367">
        <ele>463.566</ele>
        <time>2022-08-22T10:12:31Z</time>
      </trkpt>
      <trkpt lat="42.913217" lon="-8.020434">
        <ele>462.671</ele>
        <time>2022-08-22T10:12:35Z</time>
      </trkpt>
      <trkpt lat="42.913184" lon="-8.020494">
        <ele>461.491</ele>
        <time>2022-08-22T10:12:40Z</time>
      </trkpt>
      <trkpt lat="42.913152" lon="-8.020560">
        <ele>460.781</ele>
        <time>2022-08-22T10:12:45Z</time>
      </trkpt>
      <trkpt lat="42.913139" lon="-8.020622">
        <ele>460.319</ele>
        <time>2022-08-22T10:12:49Z</time>
      </trkpt>
      <trkpt lat="42.913113" lon="-8.020683">
        <ele>459.509</ele>
        <time>2022-08-22T10:12:54Z</time>
      </trkpt>
      <trkpt lat="42.913083" lon="-8.020736">
        <ele>458.860</ele>
        <time>2022-08-22T10:12:58Z</time>
      </trkpt>
      <trkpt lat="42.913051" lon="-8.020796">
        <ele>458.020</ele>
        <time>2022-08-22T10:13:03Z</time>
      </trkpt>
      <trkpt lat="42.913019" lon="-8.020862">
        <ele>457.240</ele>
        <time>2022-08-22T10:13:08Z</time>
      </trkpt>
      <trkpt lat="42.912993" lon="-8.020934">
        <ele>455.833</ele>
        <time>2022-08-22T10:13:12Z</time>
      </trkpt>
      <trkpt lat="42.912977" lon="-8.021003">
        <ele>454.035</ele>
        <time>2022-08-22T10:13:17Z</time>
      </trkpt>
      <trkpt lat="42.912960" lon="-8.021060">
        <ele>453.487</ele>
        <time>2022-08-22T10:13:22Z</time>
      </trkpt>
      <trkpt lat="42.912938" lon="-8.021122">
        <ele>452.287</ele>
        <time>2022-08-22T10:13:27Z</time>
      </trkpt>
      <trkpt lat="42.912915" lon="-8.021181">
        <ele>450.932</ele>
        <time>2022-08-22T10:13:33Z</time>
      </trkpt>
      <trkpt lat="42.912905" lon="-8.021243">
        <ele>449.567</ele>
        <time>2022-08-22T10:13:37Z</time>
      </trkpt>
      <trkpt lat="42.912875" lon="-8.021295">
        <ele>448.032</ele>
        <time>2022-08-22T10:13:42Z</time>
      </trkpt>
      <trkpt lat="42.912847" lon="-8.021362">
        <ele>446.792</ele>
        <time>2022-08-22T10:13:46Z</time>
      </trkpt>
      <trkpt lat="42.912818" lon="-8.021414">
        <ele>445.611</ele>
        <time>2022-08-22T10:13:50Z</time>
      </trkpt>
      <trkpt lat="42.912797" lon="-8.021468">
        <ele>444.509</ele>
        <time>2022-08-22T10:13:54Z</time>
      </trkpt>
      <trkpt lat="42.912765" lon="-8.021525">
        <ele>443.684</ele>
        <time>2022-08-22T10:13:58Z</time>
      </trkpt>
      <trkpt lat="42.912731" lon="-8.021573">
        <ele>442.814</ele>
        <time>2022-08-22T10:14:01Z</time>
      </trkpt>
      <trkpt lat="42.912697" lon="-8.021632">
        <ele>442.064</ele>
        <time>2022-08-22T10:14:04Z</time>
      </trkpt>
      <trkpt lat="42.912667" lon="-8.021715">
        <ele>441.377</ele>
        <time>2022-08-22T10:14:09Z</time>
      </trkpt>
      <trkpt lat="42.912642" lon="-8.021788">
        <ele>440.489</ele>
        <time>2022-08-22T10:14:13Z</time>
      </trkpt>
      <trkpt lat="42.912637" lon="-8.021863">
        <ele>439.481</ele>
        <time>2022-08-22T10:14:18Z</time>
      </trkpt>
      <trkpt lat="42.912633" lon="-8.021927">
        <ele>438.891</ele>
        <time>2022-08-22T10:14:22Z</time>
      </trkpt>
      <trkpt lat="42.912635" lon="-8.021997">
        <ele>438.316</ele>
        <time>2022-08-22T10:14:27Z</time>
      </trkpt>
      <trkpt lat="42.912598" lon="-8.022044">
        <ele>438.151</ele>
        <time>2022-08-22T10:14:32Z</time>
      </trkpt>
      <trkpt lat="42.912572" lon="-8.022094">
        <ele>437.784</ele>
        <time>2022-08-22T10:14:35Z</time>
      </trkpt>
      <trkpt lat="42.912526" lon="-8.022149">
        <ele>437.407</ele>
        <time>2022-08-22T10:14:38Z</time>
      </trkpt>
      <trkpt lat="42.912486" lon="-8.022207">
        <ele>437.117</ele>
        <time>2022-08-22T10:14:42Z</time>
      </trkpt>
      <trkpt lat="42.912456" lon="-8.022268">
        <ele>437.009</ele>
        <time>2022-08-22T10:14:45Z</time>
      </trkpt>
      <trkpt lat="42.912436" lon="-8.022341">
        <ele>436.789</ele>
        <time>2022-08-22T10:14:49Z</time>
      </trkpt>
      <trkpt lat="42.912398" lon="-8.022399">
        <ele>436.349</ele>
        <time>2022-08-22T10:14:53Z</time>
      </trkpt>
      <trkpt lat="42.912371" lon="-8.022456">
        <ele>435.979</ele>
        <time>2022-08-22T10:14:58Z</time>
      </trkpt>
      <trkpt lat="42.912338" lon="-8.022513">
        <ele>435.552</ele>
        <time>2022-08-22T10:15:02Z</time>
      </trkpt>
      <trkpt lat="42.912308" lon="-8.022574">
        <ele>435.274</ele>
        <time>2022-08-22T10:15:06Z</time>
      </trkpt>
      <trkpt lat="42.912273" lon="-8.022630">
        <ele>435.176</ele>
        <time>2022-08-22T10:15:10Z</time>
      </trkpt>
      <trkpt lat="42.912234" lon="-8.022683">
        <ele>434.996</ele>
        <time>2022-08-22T10:15:15Z</time>
      </trkpt>
      <trkpt lat="42.912204" lon="-8.022733">
        <ele>434.761</ele>
        <time>2022-08-22T10:15:19Z</time>
      </trkpt>
      <trkpt lat="42.912171" lon="-8.022791">
        <ele>434.556</ele>
        <time>2022-08-22T10:15:23Z</time>
      </trkpt>
      <trkpt lat="42.912134" lon="-8.022832">
        <ele>434.385</ele>
        <time>2022-08-22T10:15:26Z</time>
      </trkpt>
      <trkpt lat="42.912107" lon="-8.022882">
        <ele>434.189</ele>
        <time>2022-08-22T10:15:31Z</time>
      </trkpt>
      <trkpt lat="42.912078" lon="-8.022946">
        <ele>434.017</ele>
        <time>2022-08-22T10:15:37Z</time>
      </trkpt>
      <trkpt lat="42.912056" lon="-8.023013">
        <ele>433.809</ele>
        <time>2022-08-22T10:15:42Z</time>
      </trkpt>
      <trkpt lat="42.912023" lon="-8.023073">
        <ele>433.669</ele>
        <time>2022-08-22T10:15:46Z</time>
      </trkpt>
      <trkpt lat="42.911986" lon="-8.023115">
        <ele>433.499</ele>
        <time>2022-08-22T10:15:49Z</time>
      </trkpt>
      <trkpt lat="42.911947" lon="-8.023162">
        <ele>433.239</ele>
        <time>2022-08-22T10:15:52Z</time>
      </trkpt>
      <trkpt lat="42.911903" lon="-8.023198">
        <ele>433.122</ele>
        <time>2022-08-22T10:15:55Z</time>
      </trkpt>
      <trkpt lat="42.911853" lon="-8.023239">
        <ele>433.144</ele>
        <time>2022-08-22T10:15:59Z</time>
      </trkpt>
      <trkpt lat="42.911816" lon="-8.023293">
        <ele>433.186</ele>
        <time>2022-08-22T10:16:03Z</time>
      </trkpt>
      <trkpt lat="42.911784" lon="-8.023338">
        <ele>433.156</ele>
        <time>2022-08-22T10:16:07Z</time>
      </trkpt>
      <trkpt lat="42.911755" lon="-8.023385">
        <ele>433.191</ele>
        <time>2022-08-22T10:16:12Z</time>
      </trkpt>
      <trkpt lat="42.911714" lon="-8.023437">
        <ele>433.156</ele>
        <time>2022-08-22T10:16:16Z</time>
      </trkpt>
      <trkpt lat="42.911682" lon="-8.023481">
        <ele>433.148</ele>
        <time>2022-08-22T10:16:19Z</time>
      </trkpt>
      <trkpt lat="42.911649" lon="-8.023532">
        <ele>432.961</ele>
        <time>2022-08-22T10:16:22Z</time>
      </trkpt>
      <trkpt lat="42.911614" lon="-8.023581">
        <ele>432.717</ele>
        <time>2022-08-22T10:16:25Z</time>
      </trkpt>
      <trkpt lat="42.911577" lon="-8.023638">
        <ele>432.609</ele>
        <time>2022-08-22T10:16:29Z</time>
      </trkpt>
      <trkpt lat="42.911533" lon="-8.023686">
        <ele>432.625</ele>
        <time>2022-08-22T10:16:33Z</time>
      </trkpt>
      <trkpt lat="42.911503" lon="-8.023732">
        <ele>432.585</ele>
        <time>2022-08-22T10:16:36Z</time>
      </trkpt>
      <trkpt lat="42.911472" lon="-8.023777">
        <ele>432.415</ele>
        <time>2022-08-22T10:16:39Z</time>
      </trkpt>
      <trkpt lat="42.911439" lon="-8.023823">
        <ele>432.368</ele>
        <time>2022-08-22T10:16:42Z</time>
      </trkpt>
      <trkpt lat="42.911402" lon="-8.023885">
        <ele>432.310</ele>
        <time>2022-08-22T10:16:46Z</time>
      </trkpt>
      <trkpt lat="42.911368" lon="-8.023950">
        <ele>432.382</ele>
        <time>2022-08-22T10:16:50Z</time>
      </trkpt>
      <trkpt lat="42.911328" lon="-8.024002">
        <ele>432.322</ele>
        <time>2022-08-22T10:16:54Z</time>
      </trkpt>
      <trkpt lat="42.911295" lon="-8.024046">
        <ele>432.347</ele>
        <time>2022-08-22T10:16:58Z</time>
      </trkpt>
      <trkpt lat="42.911257" lon="-8.024101">
        <ele>432.342</ele>
        <time>2022-08-22T10:17:03Z</time>
      </trkpt>
      <trkpt lat="42.911241" lon="-8.024161">
        <ele>432.352</ele>
        <time>2022-08-22T10:17:07Z</time>
      </trkpt>
      <trkpt lat="42.911208" lon="-8.024218">
        <ele>432.353</ele>
        <time>2022-08-22T10:17:11Z</time>
      </trkpt>
      <trkpt lat="42.911189" lon="-8.024291">
        <ele>432.308</ele>
        <time>2022-08-22T10:17:15Z</time>
      </trkpt>
      <trkpt lat="42.911166" lon="-8.024357">
        <ele>432.209</ele>
        <time>2022-08-22T10:17:19Z</time>
      </trkpt>
      <trkpt lat="42.911154" lon="-8.024417">
        <ele>432.176</ele>
        <time>2022-08-22T10:17:23Z</time>
      </trkpt>
      <trkpt lat="42.911167" lon="-8.024485">
        <ele>432.066</ele>
        <time>2022-08-22T10:17:28Z</time>
      </trkpt>
      <trkpt lat="42.911181" lon="-8.024551">
        <ele>431.986</ele>
        <time>2022-08-22T10:17:33Z</time>
      </trkpt>
      <trkpt lat="42.911190" lon="-8.024626">
        <ele>431.739</ele>
        <time>2022-08-22T10:17:38Z</time>
      </trkpt>
      <trkpt lat="42.911201" lon="-8.024698">
        <ele>431.021</ele>
        <time>2022-08-22T10:17:42Z</time>
      </trkpt>
      <trkpt lat="42.911233" lon="-8.024763">
        <ele>430.373</ele>
        <time>2022-08-22T10:17:47Z</time>
      </trkpt>
      <trkpt lat="42.911242" lon="-8.024835">
        <ele>429.843</ele>
        <time>2022-08-22T10:17:51Z</time>
      </trkpt>
      <trkpt lat="42.911261" lon="-8.024893">
        <ele>429.768</ele>
        <time>2022-08-22T10:17:54Z</time>
      </trkpt>
      <trkpt lat="42.911286" lon="-8.024964">
        <ele>429.493</ele>
        <time>2022-08-22T10:17:58Z</time>
      </trkpt>
      <trkpt lat="42.911319" lon="-8.025030">
        <ele>429.178</ele>
        <time>2022-08-22T10:18:03Z</time>
      </trkpt>
      <trkpt lat="42.911330" lon="-8.025096">
        <ele>428.933</ele>
        <time>2022-08-22T10:18:06Z</time>
      </trkpt>
      <trkpt lat="42.911345" lon="-8.025156">
        <ele>428.626</ele>
        <time>2022-08-22T10:18:09Z</time>
      </trkpt>
      <trkpt lat="42.911369" lon="-8.025227">
        <ele>428.209</ele>
        <time>2022-08-22T10:18:14Z</time>
      </trkpt>
      <trkpt lat="42.911383" lon="-8.025297">
        <ele>428.178</ele>
        <time>2022-08-22T10:18:18Z</time>
      </trkpt>
      <trkpt lat="42.911394" lon="-8.025357">
        <ele>427.888</ele>
        <time>2022-08-22T10:18:21Z</time>
      </trkpt>
      <trkpt lat="42.911422" lon="-8.025428">
        <ele>427.478</ele>
        <time>2022-08-22T10:18:25Z</time>
      </trkpt>
      <trkpt lat="42.911442" lon="-8.025496">
        <ele>427.131</ele>
        <time>2022-08-22T10:18:29Z</time>
      </trkpt>
      <trkpt lat="42.911464" lon="-8.025552">
        <ele>426.893</ele>
        <time>2022-08-22T10:18:33Z</time>
      </trkpt>
      <trkpt lat="42.911497" lon="-8.025596">
        <ele>426.515</ele>
        <time>2022-08-22T10:18:37Z</time>
      </trkpt>
      <trkpt lat="42.911518" lon="-8.025652">
        <ele>426.275</ele>
        <time>2022-08-22T10:18:41Z</time>
      </trkpt>
      <trkpt lat="42.911535" lon="-8.025728">
        <ele>426.040</ele>
        <time>2022-08-22T10:18:45Z</time>
      </trkpt>
      <trkpt lat="42.911537" lon="-8.025790">
        <ele>425.785</ele>
        <time>2022-08-22T10:18:48Z</time>
      </trkpt>
      <trkpt lat="42.911552" lon="-8.025860">
        <ele>425.386</ele>
        <time>2022-08-22T10:18:52Z</time>
      </trkpt>
      <trkpt lat="42.911560" lon="-8.025940">
        <ele>425.060</ele>
        <time>2022-08-22T10:18:56Z</time>
      </trkpt>
      <trkpt lat="42.911571" lon="-8.026004">
        <ele>424.726</ele>
        <time>2022-08-22T10:19:00Z</time>
      </trkpt>
      <trkpt lat="42.911587" lon="-8.026065">
        <ele>424.409</ele>
        <time>2022-08-22T10:19:04Z</time>
      </trkpt>
      <trkpt lat="42.911592" lon="-8.026131">
        <ele>424.139</ele>
        <time>2022-08-22T10:19:08Z</time>
      </trkpt>
      <trkpt lat="42.911600" lon="-8.026201">
        <ele>423.949</ele>
        <time>2022-08-22T10:19:12Z</time>
      </trkpt>
      <trkpt lat="42.911609" lon="-8.026267">
        <ele>423.669</ele>
        <time>2022-08-22T10:19:16Z</time>
      </trkpt>
      <trkpt lat="42.911621" lon="-8.026330">
        <ele>423.232</ele>
        <time>2022-08-22T10:19:21Z</time>
      </trkpt>
      <trkpt lat="42.911643" lon="-8.026396">
        <ele>422.864</ele>
        <time>2022-08-22T10:19:24Z</time>
      </trkpt>
      <trkpt lat="42.911669" lon="-8.026449">
        <ele>422.226</ele>
        <time>2022-08-22T10:19:28Z</time>
      </trkpt>
      <trkpt lat="42.911701" lon="-8.026498">
        <ele>421.746</ele>
        <time>2022-08-22T10:19:32Z</time>
      </trkpt>
      <trkpt lat="42.911720" lon="-8.026568">
        <ele>421.451</ele>
        <time>2022-08-22T10:19:37Z</time>
      </trkpt>
      <trkpt lat="42.911737" lon="-8.026631">
        <ele>421.256</ele>
        <time>2022-08-22T10:19:41Z</time>
      </trkpt>
      <trkpt lat="42.911763" lon="-8.026688">
        <ele>420.916</ele>
        <time>2022-08-22T10:19:45Z</time>
      </trkpt>
      <trkpt lat="42.911789" lon="-8.026760">
        <ele>420.776</ele>
        <time>2022-08-22T10:19:49Z</time>
      </trkpt>
      <trkpt lat="42.911809" lon="-8.026818">
        <ele>420.613</ele>
        <time>2022-08-22T10:19:52Z</time>
      </trkpt>
      <trkpt lat="42.911836" lon="-8.026867">
        <ele>420.509</ele>
        <time>2022-08-22T10:19:57Z</time>
      </trkpt>
      <trkpt lat="42.911864" lon="-8.026937">
        <ele>420.442</ele>
        <time>2022-08-22T10:20:01Z</time>
      </trkpt>
      <trkpt lat="42.911897" lon="-8.027009">
        <ele>420.362</ele>
        <time>2022-08-22T10:20:05Z</time>
      </trkpt>
      <trkpt lat="42.911931" lon="-8.027083">
        <ele>420.222</ele>
        <time>2022-08-22T10:20:09Z</time>
      </trkpt>
      <trkpt lat="42.911950" lon="-8.027142">
        <ele>420.265</ele>
        <time>2022-08-22T10:20:12Z</time>
      </trkpt>
      <trkpt lat="42.911962" lon="-8.027203">
        <ele>420.177</ele>
        <time>2022-08-22T10:20:15Z</time>
      </trkpt>
      <trkpt lat="42.911975" lon="-8.027281">
        <ele>420.069</ele>
        <time>2022-08-22T10:20:19Z</time>
      </trkpt>
      <trkpt lat="42.911982" lon="-8.027352">
        <ele>419.969</ele>
        <time>2022-08-22T10:20:22Z</time>
      </trkpt>
      <trkpt lat="42.911980" lon="-8.027421">
        <ele>419.814</ele>
        <time>2022-08-22T10:20:25Z</time>
      </trkpt>
      <trkpt lat="42.911977" lon="-8.027492">
        <ele>419.819</ele>
        <time>2022-08-22T10:20:28Z</time>
      </trkpt>
      <trkpt lat="42.911985" lon="-8.027559">
        <ele>419.827</ele>
        <time>2022-08-22T10:20:31Z</time>
      </trkpt>
      <trkpt lat="42.911981" lon="-8.027621">
        <ele>419.868</ele>
        <time>2022-08-22T10:20:34Z</time>
      </trkpt>
      <trkpt lat="42.911991" lon="-8.027700">
        <ele>419.814</ele>
        <time>2022-08-22T10:20:38Z</time>
      </trkpt>
      <trkpt lat="42.911990" lon="-8.027780">
        <ele>419.909</ele>
        <time>2022-08-22T10:20:42Z</time>
      </trkpt>
      <trkpt lat="42.911995" lon="-8.027857">
        <ele>420.043</ele>
        <time>2022-08-22T10:20:46Z</time>
      </trkpt>
      <trkpt lat="42.912002" lon="-8.027937">
        <ele>420.183</ele>
        <time>2022-08-22T10:20:50Z</time>
      </trkpt>
      <trkpt lat="42.912015" lon="-8.028013">
        <ele>420.233</ele>
        <time>2022-08-22T10:20:54Z</time>
      </trkpt>
      <trkpt lat="42.912034" lon="-8.028085">
        <ele>420.446</ele>
        <time>2022-08-22T10:20:58Z</time>
      </trkpt>
      <trkpt lat="42.912039" lon="-8.028159">
        <ele>420.498</ele>
        <time>2022-08-22T10:21:02Z</time>
      </trkpt>
      <trkpt lat="42.912045" lon="-8.028232">
        <ele>420.580</ele>
        <time>2022-08-22T10:21:06Z</time>
      </trkpt>
      <trkpt lat="42.912062" lon="-8.028303">
        <ele>420.650</ele>
        <time>2022-08-22T10:21:10Z</time>
      </trkpt>
      <trkpt lat="42.912098" lon="-8.028361">
        <ele>420.795</ele>
        <time>2022-08-22T10:21:21Z</time>
      </trkpt>
      <trkpt lat="42.912118" lon="-8.028426">
        <ele>420.850</ele>
        <time>2022-08-22T10:21:26Z</time>
      </trkpt>
      <trkpt lat="42.912132" lon="-8.028494">
        <ele>420.925</ele>
        <time>2022-08-22T10:21:31Z</time>
      </trkpt>
      <trkpt lat="42.912132" lon="-8.028559">
        <ele>421.026</ele>
        <time>2022-08-22T10:21:35Z</time>
      </trkpt>
      <trkpt lat="42.912127" lon="-8.028632">
        <ele>421.208</ele>
        <time>2022-08-22T10:21:40Z</time>
      </trkpt>
      <trkpt lat="42.912116" lon="-8.028696">
        <ele>421.509</ele>
        <time>2022-08-22T10:21:44Z</time>
      </trkpt>
      <trkpt lat="42.912128" lon="-8.028765">
        <ele>421.873</ele>
        <time>2022-08-22T10:21:48Z</time>
      </trkpt>
      <trkpt lat="42.912141" lon="-8.028828">
        <ele>422.063</ele>
        <time>2022-08-22T10:21:52Z</time>
      </trkpt>
      <trkpt lat="42.912149" lon="-8.028888">
        <ele>422.223</ele>
        <time>2022-08-22T10:21:55Z</time>
      </trkpt>
      <trkpt lat="42.912155" lon="-8.028959">
        <ele>422.486</ele>
        <time>2022-08-22T10:21:58Z</time>
      </trkpt>
      <trkpt lat="42.912165" lon="-8.029026">
        <ele>422.648</ele>
        <time>2022-08-22T10:22:01Z</time>
      </trkpt>
      <trkpt lat="42.912173" lon="-8.029089">
        <ele>422.740</ele>
        <time>2022-08-22T10:22:04Z</time>
      </trkpt>
      <trkpt lat="42.912177" lon="-8.029171">
        <ele>422.890</ele>
        <time>2022-08-22T10:22:08Z</time>
      </trkpt>
      <trkpt lat="42.912177" lon="-8.029234">
        <ele>422.825</ele>
        <time>2022-08-22T10:22:11Z</time>
      </trkpt>
      <trkpt lat="42.912175" lon="-8.029309">
        <ele>422.860</ele>
        <time>2022-08-22T10:22:15Z</time>
      </trkpt>
      <trkpt lat="42.912176" lon="-8.029372">
        <ele>422.988</ele>
        <time>2022-08-22T10:22:19Z</time>
      </trkpt>
      <trkpt lat="42.912179" lon="-8.029434">
        <ele>423.024</ele>
        <time>2022-08-22T10:22:23Z</time>
      </trkpt>
      <trkpt lat="42.912183" lon="-8.029511">
        <ele>423.126</ele>
        <time>2022-08-22T10:22:28Z</time>
      </trkpt>
      <trkpt lat="42.912194" lon="-8.029586">
        <ele>423.209</ele>
        <time>2022-08-22T10:22:32Z</time>
      </trkpt>
      <trkpt lat="42.912200" lon="-8.029650">
        <ele>423.339</ele>
        <time>2022-08-22T10:22:35Z</time>
      </trkpt>
      <trkpt lat="42.912192" lon="-8.029713">
        <ele>423.469</ele>
        <time>2022-08-22T10:22:38Z</time>
      </trkpt>
      <trkpt lat="42.912197" lon="-8.029774">
        <ele>423.459</ele>
        <time>2022-08-22T10:22:41Z</time>
      </trkpt>
      <trkpt lat="42.912196" lon="-8.029836">
        <ele>423.482</ele>
        <time>2022-08-22T10:22:44Z</time>
      </trkpt>
      <trkpt lat="42.912204" lon="-8.029914">
        <ele>423.474</ele>
        <time>2022-08-22T10:22:48Z</time>
      </trkpt>
      <trkpt lat="42.912202" lon="-8.029992">
        <ele>423.456</ele>
        <time>2022-08-22T10:22:52Z</time>
      </trkpt>
      <trkpt lat="42.912203" lon="-8.030065">
        <ele>423.446</ele>
        <time>2022-08-22T10:22:56Z</time>
      </trkpt>
      <trkpt lat="42.912200" lon="-8.030140">
        <ele>423.371</ele>
        <time>2022-08-22T10:23:00Z</time>
      </trkpt>
      <trkpt lat="42.912201" lon="-8.030215">
        <ele>423.296</ele>
        <time>2022-08-22T10:23:04Z</time>
      </trkpt>
      <trkpt lat="42.912209" lon="-8.030292">
        <ele>423.172</ele>
        <time>2022-08-22T10:23:08Z</time>
      </trkpt>
      <trkpt lat="42.912211" lon="-8.030369">
        <ele>422.913</ele>
        <time>2022-08-22T10:23:12Z</time>
      </trkpt>
      <trkpt lat="42.912203" lon="-8.030447">
        <ele>422.614</ele>
        <time>2022-08-22T10:23:16Z</time>
      </trkpt>
      <trkpt lat="42.912200" lon="-8.030521">
        <ele>422.409</ele>
        <time>2022-08-22T10:23:20Z</time>
      </trkpt>
      <trkpt lat="42.912190" lon="-8.030596">
        <ele>422.438</ele>
        <time>2022-08-22T10:23:24Z</time>
      </trkpt>
      <trkpt lat="42.912186" lon="-8.030668">
        <ele>422.468</ele>
        <time>2022-08-22T10:23:28Z</time>
      </trkpt>
      <trkpt lat="42.912176" lon="-8.030741">
        <ele>422.498</ele>
        <time>2022-08-22T10:23:32Z</time>
      </trkpt>
      <trkpt lat="42.912171" lon="-8.030814">
        <ele>422.391</ele>
        <time>2022-08-22T10:23:36Z</time>
      </trkpt>
      <trkpt lat="42.912162" lon="-8.030887">
        <ele>422.393</ele>
        <time>2022-08-22T10:23:40Z</time>
      </trkpt>
      <trkpt lat="42.912156" lon="-8.030960">
        <ele>422.375</ele>
        <time>2022-08-22T10:23:44Z</time>
      </trkpt>
      <trkpt lat="42.912151" lon="-8.031030">
        <ele>422.295</ele>
        <time>2022-08-22T10:23:48Z</time>
      </trkpt>
      <trkpt lat="42.912140" lon="-8.031099">
        <ele>422.110</ele>
        <time>2022-08-22T10:23:52Z</time>
      </trkpt>
      <trkpt lat="42.912140" lon="-8.031171">
        <ele>422.085</ele>
        <time>2022-08-22T10:23:56Z</time>
      </trkpt>
      <trkpt lat="42.912120" lon="-8.031241">
        <ele>421.813</ele>
        <time>2022-08-22T10:24:00Z</time>
      </trkpt>
      <trkpt lat="42.912102" lon="-8.031310">
        <ele>421.643</ele>
        <time>2022-08-22T10:24:04Z</time>
      </trkpt>
      <trkpt lat="42.912084" lon="-8.031382">
        <ele>421.307</ele>
        <time>2022-08-22T10:24:08Z</time>
      </trkpt>
      <trkpt lat="42.912071" lon="-8.031454">
        <ele>421.109</ele>
        <time>2022-08-22T10:24:12Z</time>
      </trkpt>
      <trkpt lat="42.912055" lon="-8.031523">
        <ele>420.982</ele>
        <time>2022-08-22T10:24:16Z</time>
      </trkpt>
      <trkpt lat="42.912042" lon="-8.031598">
        <ele>420.962</ele>
        <time>2022-08-22T10:24:20Z</time>
      </trkpt>
      <trkpt lat="42.912032" lon="-8.031669">
        <ele>420.882</ele>
        <time>2022-08-22T10:24:24Z</time>
      </trkpt>
      <trkpt lat="42.912019" lon="-8.031739">
        <ele>420.785</ele>
        <time>2022-08-22T10:24:28Z</time>
      </trkpt>
      <trkpt lat="42.912014" lon="-8.031812">
        <ele>420.747</ele>
        <time>2022-08-22T10:24:32Z</time>
      </trkpt>
      <trkpt lat="42.912013" lon="-8.031885">
        <ele>420.769</ele>
        <time>2022-08-22T10:24:36Z</time>
      </trkpt>
      <trkpt lat="42.912012" lon="-8.031961">
        <ele>420.799</ele>
        <time>2022-08-22T10:24:40Z</time>
      </trkpt>
      <trkpt lat="42.912022" lon="-8.032038">
        <ele>420.894</ele>
        <time>2022-08-22T10:24:44Z</time>
      </trkpt>
      <trkpt lat="42.912031" lon="-8.032113">
        <ele>420.939</ele>
        <time>2022-08-22T10:24:48Z</time>
      </trkpt>
      <trkpt lat="42.912047" lon="-8.032183">
        <ele>421.049</ele>
        <time>2022-08-22T10:24:52Z</time>
      </trkpt>
      <trkpt lat="42.912068" lon="-8.032248">
        <ele>421.202</ele>
        <time>2022-08-22T10:24:56Z</time>
      </trkpt>
      <trkpt lat="42.912085" lon="-8.032311">
        <ele>421.422</ele>
        <time>2022-08-22T10:25:00Z</time>
      </trkpt>
      <trkpt lat="42.912091" lon="-8.032386">
        <ele>421.709</ele>
        <time>2022-08-22T10:25:04Z</time>
      </trkpt>
      <trkpt lat="42.912090" lon="-8.032461">
        <ele>422.015</ele>
        <time>2022-08-22T10:25:08Z</time>
      </trkpt>
      <trkpt lat="42.912071" lon="-8.032535">
        <ele>422.595</ele>
        <time>2022-08-22T10:25:12Z</time>
      </trkpt>
      <trkpt lat="42.912056" lon="-8.032603">
        <ele>422.955</ele>
        <time>2022-08-22T10:25:16Z</time>
      </trkpt>
      <trkpt lat="42.912042" lon="-8.032674">
        <ele>423.318</ele>
        <time>2022-08-22T10:25:20Z</time>
      </trkpt>
      <trkpt lat="42.912016" lon="-8.032739">
        <ele>423.570</ele>
        <time>2022-08-22T10:25:24Z</time>
      </trkpt>
      <trkpt lat="42.912010" lon="-8.032804">
        <ele>423.692</ele>
        <time>2022-08-22T10:25:30Z</time>
      </trkpt>
      <trkpt lat="42.912007" lon="-8.032874">
        <ele>423.842</ele>
        <time>2022-08-22T10:25:35Z</time>
      </trkpt>
      <trkpt lat="42.912009" lon="-8.032947">
        <ele>424.037</ele>
        <time>2022-08-22T10:25:39Z</time>
      </trkpt>
      <trkpt lat="42.912026" lon="-8.033015">
        <ele>424.382</ele>
        <time>2022-08-22T10:25:44Z</time>
      </trkpt>
      <trkpt lat="42.912024" lon="-8.033083">
        <ele>424.583</ele>
        <time>2022-08-22T10:25:50Z</time>
      </trkpt>
      <trkpt lat="42.912021" lon="-8.033159">
        <ele>424.825</ele>
        <time>2022-08-22T10:25:54Z</time>
      </trkpt>
      <trkpt lat="42.912025" lon="-8.033228">
        <ele>425.217</ele>
        <time>2022-08-22T10:25:57Z</time>
      </trkpt>
      <trkpt lat="42.912025" lon="-8.033301">
        <ele>425.509</ele>
        <time>2022-08-22T10:26:01Z</time>
      </trkpt>
      <trkpt lat="42.912019" lon="-8.033363">
        <ele>425.719</ele>
        <time>2022-08-22T10:26:04Z</time>
      </trkpt>
      <trkpt lat="42.912021" lon="-8.033431">
        <ele>425.959</ele>
        <time>2022-08-22T10:26:09Z</time>
      </trkpt>
      <trkpt lat="42.912031" lon="-8.033508">
        <ele>426.189</ele>
        <time>2022-08-22T10:26:14Z</time>
      </trkpt>
      <trkpt lat="42.912044" lon="-8.033586">
        <ele>426.372</ele>
        <time>2022-08-22T10:26:19Z</time>
      </trkpt>
      <trkpt lat="42.912068" lon="-8.033645">
        <ele>426.694</ele>
        <time>2022-08-22T10:26:22Z</time>
      </trkpt>
      <trkpt lat="42.912075" lon="-8.033706">
        <ele>427.086</ele>
        <time>2022-08-22T10:26:25Z</time>
      </trkpt>
      <trkpt lat="42.912085" lon="-8.033767">
        <ele>427.396</ele>
        <time>2022-08-22T10:26:28Z</time>
      </trkpt>
      <trkpt lat="42.912092" lon="-8.033834">
        <ele>427.521</ele>
        <time>2022-08-22T10:26:32Z</time>
      </trkpt>
      <trkpt lat="42.912105" lon="-8.033896">
        <ele>427.726</ele>
        <time>2022-08-22T10:26:35Z</time>
      </trkpt>
      <trkpt lat="42.912103" lon="-8.033975">
        <ele>427.959</ele>
        <time>2022-08-22T10:26:40Z</time>
      </trkpt>
      <trkpt lat="42.912111" lon="-8.034049">
        <ele>428.103</ele>
        <time>2022-08-22T10:26:43Z</time>
      </trkpt>
      <trkpt lat="42.912118" lon="-8.034117">
        <ele>428.423</ele>
        <time>2022-08-22T10:26:46Z</time>
      </trkpt>
      <trkpt lat="42.912132" lon="-8.034185">
        <ele>428.709</ele>
        <time>2022-08-22T10:26:49Z</time>
      </trkpt>
      <trkpt lat="42.912141" lon="-8.034248">
        <ele>428.866</ele>
        <time>2022-08-22T10:26:52Z</time>
      </trkpt>
      <trkpt lat="42.912155" lon="-8.034308">
        <ele>429.056</ele>
        <time>2022-08-22T10:26:55Z</time>
      </trkpt>
      <trkpt lat="42.912170" lon="-8.034384">
        <ele>429.256</ele>
        <time>2022-08-22T10:26:59Z</time>
      </trkpt>
      <trkpt lat="42.912189" lon="-8.034454">
        <ele>429.419</ele>
        <time>2022-08-22T10:27:03Z</time>
      </trkpt>
      <trkpt lat="42.912210" lon="-8.034514">
        <ele>429.771</ele>
        <time>2022-08-22T10:27:08Z</time>
      </trkpt>
      <trkpt lat="42.912224" lon="-8.034584">
        <ele>430.063</ele>
        <time>2022-08-22T10:27:14Z</time>
      </trkpt>
      <trkpt lat="42.912240" lon="-8.034642">
        <ele>430.363</ele>
        <time>2022-08-22T10:27:17Z</time>
      </trkpt>
      <trkpt lat="42.912261" lon="-8.034711">
        <ele>430.618</ele>
        <time>2022-08-22T10:27:21Z</time>
      </trkpt>
      <trkpt lat="42.912276" lon="-8.034772">
        <ele>430.973</ele>
        <time>2022-08-22T10:27:24Z</time>
      </trkpt>
      <trkpt lat="42.912291" lon="-8.034831">
        <ele>431.091</ele>
        <time>2022-08-22T10:27:27Z</time>
      </trkpt>
      <trkpt lat="42.912306" lon="-8.034899">
        <ele>431.081</ele>
        <time>2022-08-22T10:27:30Z</time>
      </trkpt>
      <trkpt lat="42.912317" lon="-8.034970">
        <ele>431.019</ele>
        <time>2022-08-22T10:27:33Z</time>
      </trkpt>
      <trkpt lat="42.912326" lon="-8.035031">
        <ele>431.009</ele>
        <time>2022-08-22T10:27:36Z</time>
      </trkpt>
      <trkpt lat="42.912335" lon="-8.035110">
        <ele>430.990</ele>
        <time>2022-08-22T10:27:40Z</time>
      </trkpt>
      <trkpt lat="42.912350" lon="-8.035171">
        <ele>430.890</ele>
        <time>2022-08-22T10:27:43Z</time>
      </trkpt>
      <trkpt lat="42.912370" lon="-8.035242">
        <ele>430.850</ele>
        <time>2022-08-22T10:27:47Z</time>
      </trkpt>
      <trkpt lat="42.912391" lon="-8.035301">
        <ele>430.853</ele>
        <time>2022-08-22T10:27:52Z</time>
      </trkpt>
      <trkpt lat="42.912414" lon="-8.035362">
        <ele>430.815</ele>
        <time>2022-08-22T10:27:56Z</time>
      </trkpt>
      <trkpt lat="42.912428" lon="-8.035423">
        <ele>430.987</ele>
        <time>2022-08-22T10:27:59Z</time>
      </trkpt>
      <trkpt lat="42.912450" lon="-8.035485">
        <ele>430.967</ele>
        <time>2022-08-22T10:28:03Z</time>
      </trkpt>
      <trkpt lat="42.912467" lon="-8.035554">
        <ele>430.982</ele>
        <time>2022-08-22T10:28:08Z</time>
      </trkpt>
      <trkpt lat="42.912489" lon="-8.035611">
        <ele>430.987</ele>
        <time>2022-08-22T10:28:12Z</time>
      </trkpt>
      <trkpt lat="42.912517" lon="-8.035677">
        <ele>430.991</ele>
        <time>2022-08-22T10:28:16Z</time>
      </trkpt>
      <trkpt lat="42.912535" lon="-8.035743">
        <ele>430.981</ele>
        <time>2022-08-22T10:28:20Z</time>
      </trkpt>
      <trkpt lat="42.912544" lon="-8.035806">
        <ele>430.919</ele>
        <time>2022-08-22T10:28:24Z</time>
      </trkpt>
      <trkpt lat="42.912553" lon="-8.035891">
        <ele>430.909</ele>
        <time>2022-08-22T10:28:28Z</time>
      </trkpt>
      <trkpt lat="42.912559" lon="-8.035953">
        <ele>430.830</ele>
        <time>2022-08-22T10:28:31Z</time>
      </trkpt>
      <trkpt lat="42.912565" lon="-8.036018">
        <ele>430.750</ele>
        <time>2022-08-22T10:28:34Z</time>
      </trkpt>
      <trkpt lat="42.912575" lon="-8.036097">
        <ele>430.750</ele>
        <time>2022-08-22T10:28:37Z</time>
      </trkpt>
      <trkpt lat="42.912573" lon="-8.036171">
        <ele>430.693</ele>
        <time>2022-08-22T10:28:40Z</time>
      </trkpt>
      <trkpt lat="42.912567" lon="-8.036233">
        <ele>430.535</ele>
        <time>2022-08-22T10:28:43Z</time>
      </trkpt>
      <trkpt lat="42.912565" lon="-8.036297">
        <ele>430.437</ele>
        <time>2022-08-22T10:28:46Z</time>
      </trkpt>
      <trkpt lat="42.912568" lon="-8.036361">
        <ele>430.377</ele>
        <time>2022-08-22T10:28:49Z</time>
      </trkpt>
      <trkpt lat="42.912565" lon="-8.036441">
        <ele>430.292</ele>
        <time>2022-08-22T10:28:53Z</time>
      </trkpt>
      <trkpt lat="42.912572" lon="-8.036519">
        <ele>430.157</ele>
        <time>2022-08-22T10:28:57Z</time>
      </trkpt>
      <trkpt lat="42.912583" lon="-8.036590">
        <ele>429.945</ele>
        <time>2022-08-22T10:29:02Z</time>
      </trkpt>
      <trkpt lat="42.912583" lon="-8.036667">
        <ele>429.747</ele>
        <time>2022-08-22T10:29:07Z</time>
      </trkpt>
      <trkpt lat="42.912593" lon="-8.036736">
        <ele>429.511</ele>
        <time>2022-08-22T10:29:11Z</time>
      </trkpt>
      <trkpt lat="42.912598" lon="-8.036803">
        <ele>429.409</ele>
        <time>2022-08-22T10:29:15Z</time>
      </trkpt>
      <trkpt lat="42.912596" lon="-8.036874">
        <ele>429.345</ele>
        <time>2022-08-22T10:29:19Z</time>
      </trkpt>
      <trkpt lat="42.912603" lon="-8.036945">
        <ele>429.295</ele>
        <time>2022-08-22T10:29:23Z</time>
      </trkpt>
      <trkpt lat="42.912612" lon="-8.037016">
        <ele>429.115</ele>
        <time>2022-08-22T10:29:26Z</time>
      </trkpt>
      <trkpt lat="42.912633" lon="-8.037089">
        <ele>429.158</ele>
        <time>2022-08-22T10:29:30Z</time>
      </trkpt>
      <trkpt lat="42.912657" lon="-8.037160">
        <ele>429.040</ele>
        <time>2022-08-22T10:29:34Z</time>
      </trkpt>
      <trkpt lat="42.912686" lon="-8.037224">
        <ele>428.942</ele>
        <time>2022-08-22T10:29:38Z</time>
      </trkpt>
      <trkpt lat="42.912711" lon="-8.037279">
        <ele>428.842</ele>
        <time>2022-08-22T10:29:42Z</time>
      </trkpt>
      <trkpt lat="42.912737" lon="-8.037338">
        <ele>428.897</ele>
        <time>2022-08-22T10:29:46Z</time>
      </trkpt>
      <trkpt lat="42.912759" lon="-8.037407">
        <ele>428.732</ele>
        <time>2022-08-22T10:29:50Z</time>
      </trkpt>
      <trkpt lat="42.912782" lon="-8.037479">
        <ele>428.673</ele>
        <time>2022-08-22T10:29:54Z</time>
      </trkpt>
      <trkpt lat="42.912805" lon="-8.037548">
        <ele>428.585</ele>
        <time>2022-08-22T10:29:58Z</time>
      </trkpt>
      <trkpt lat="42.912813" lon="-8.037622">
        <ele>428.413</ele>
        <time>2022-08-22T10:30:02Z</time>
      </trkpt>
      <trkpt lat="42.912854" lon="-8.037647">
        <ele>428.309</ele>
        <time>2022-08-22T10:30:05Z</time>
      </trkpt>
      <trkpt lat="42.912891" lon="-8.037684">
        <ele>428.388</ele>
        <time>2022-08-22T10:30:10Z</time>
      </trkpt>
      <trkpt lat="42.912917" lon="-8.037737">
        <ele>428.368</ele>
        <time>2022-08-22T10:30:14Z</time>
      </trkpt>
      <trkpt lat="42.912953" lon="-8.037787">
        <ele>428.388</ele>
        <time>2022-08-22T10:30:18Z</time>
      </trkpt>
      <trkpt lat="42.912980" lon="-8.037851">
        <ele>428.461</ele>
        <time>2022-08-22T10:30:23Z</time>
      </trkpt>
      <trkpt lat="42.913004" lon="-8.037929">
        <ele>428.543</ele>
        <time>2022-08-22T10:30:28Z</time>
      </trkpt>
      <trkpt lat="42.913033" lon="-8.037996">
        <ele>428.755</ele>
        <time>2022-08-22T10:30:33Z</time>
      </trkpt>
      <trkpt lat="42.913068" lon="-8.038058">
        <ele>428.935</ele>
        <time>2022-08-22T10:30:37Z</time>
      </trkpt>
      <trkpt lat="42.913090" lon="-8.038117">
        <ele>429.230</ele>
        <time>2022-08-22T10:30:41Z</time>
      </trkpt>
      <trkpt lat="42.913118" lon="-8.038183">
        <ele>429.825</ele>
        <time>2022-08-22T10:30:47Z</time>
      </trkpt>
      <trkpt lat="42.913140" lon="-8.038237">
        <ele>430.145</ele>
        <time>2022-08-22T10:30:52Z</time>
      </trkpt>
      <trkpt lat="42.913153" lon="-8.038299">
        <ele>430.847</ele>
        <time>2022-08-22T10:30:57Z</time>
      </trkpt>
      <trkpt lat="42.913173" lon="-8.038359">
        <ele>431.711</ele>
        <time>2022-08-22T10:31:02Z</time>
      </trkpt>
      <trkpt lat="42.913199" lon="-8.038423">
        <ele>432.609</ele>
        <time>2022-08-22T10:31:05Z</time>
      </trkpt>
      <trkpt lat="42.913226" lon="-8.038517">
        <ele>433.255</ele>
        <time>2022-08-22T10:31:13Z</time>
      </trkpt>
      <trkpt lat="42.913241" lon="-8.038580">
        <ele>433.665</ele>
        <time>2022-08-22T10:31:17Z</time>
      </trkpt>
      <trkpt lat="42.913299" lon="-8.038667">
        <ele>434.065</ele>
        <time>2022-08-22T10:31:25Z</time>
      </trkpt>
      <trkpt lat="42.913322" lon="-8.038730">
        <ele>434.038</ele>
        <time>2022-08-22T10:31:28Z</time>
      </trkpt>
      <trkpt lat="42.913335" lon="-8.038823">
        <ele>434.020</ele>
        <time>2022-08-22T10:31:34Z</time>
      </trkpt>
      <trkpt lat="42.913351" lon="-8.038882">
        <ele>433.972</ele>
        <time>2022-08-22T10:31:38Z</time>
      </trkpt>
      <trkpt lat="42.913379" lon="-8.038945">
        <ele>433.572</ele>
        <time>2022-08-22T10:31:43Z</time>
      </trkpt>
      <trkpt lat="42.913421" lon="-8.038983">
        <ele>433.147</ele>
        <time>2022-08-22T10:31:47Z</time>
      </trkpt>
      <trkpt lat="42.913457" lon="-8.039044">
        <ele>432.522</ele>
        <time>2022-08-22T10:31:51Z</time>
      </trkpt>
      <trkpt lat="42.913489" lon="-8.039113">
        <ele>432.294</ele>
        <time>2022-08-22T10:31:55Z</time>
      </trkpt>
      <trkpt lat="42.913517" lon="-8.039175">
        <ele>431.457</ele>
        <time>2022-08-22T10:32:00Z</time>
      </trkpt>
      <trkpt lat="42.913609" lon="-8.039251">
        <ele>431.222</ele>
        <time>2022-08-22T10:32:08Z</time>
      </trkpt>
      <trkpt lat="42.913654" lon="-8.039264">
        <ele>431.309</ele>
        <time>2022-08-22T10:32:10Z</time>
      </trkpt>
      <trkpt lat="42.913699" lon="-8.039276">
        <ele>431.250</ele>
        <time>2022-08-22T10:32:13Z</time>
      </trkpt>
      <trkpt lat="42.913745" lon="-8.039297">
        <ele>431.240</ele>
        <time>2022-08-22T10:32:18Z</time>
      </trkpt>
      <trkpt lat="42.913788" lon="-8.039338">
        <ele>431.270</ele>
        <time>2022-08-22T10:32:22Z</time>
      </trkpt>
      <trkpt lat="42.913834" lon="-8.039372">
        <ele>431.013</ele>
        <time>2022-08-22T10:32:25Z</time>
      </trkpt>
      <trkpt lat="42.913881" lon="-8.039429">
        <ele>430.885</ele>
        <time>2022-08-22T10:32:29Z</time>
      </trkpt>
      <trkpt lat="42.913919" lon="-8.039468">
        <ele>430.647</ele>
        <time>2022-08-22T10:32:32Z</time>
      </trkpt>
      <trkpt lat="42.913969" lon="-8.039523">
        <ele>430.457</ele>
        <time>2022-08-22T10:32:37Z</time>
      </trkpt>
      <trkpt lat="42.914007" lon="-8.039586">
        <ele>430.392</ele>
        <time>2022-08-22T10:32:41Z</time>
      </trkpt>
      <trkpt lat="42.914048" lon="-8.039636">
        <ele>430.157</ele>
        <time>2022-08-22T10:32:46Z</time>
      </trkpt>
      <trkpt lat="42.914077" lon="-8.039689">
        <ele>430.012</ele>
        <time>2022-08-22T10:32:50Z</time>
      </trkpt>
      <trkpt lat="42.914114" lon="-8.039734">
        <ele>429.732</ele>
        <time>2022-08-22T10:32:54Z</time>
      </trkpt>
      <trkpt lat="42.914156" lon="-8.039778">
        <ele>429.505</ele>
        <time>2022-08-22T10:32:58Z</time>
      </trkpt>
      <trkpt lat="42.914199" lon="-8.039822">
        <ele>429.209</ele>
        <time>2022-08-22T10:33:02Z</time>
      </trkpt>
      <trkpt lat="42.914243" lon="-8.039871">
        <ele>429.052</ele>
        <time>2022-08-22T10:33:06Z</time>
      </trkpt>
      <trkpt lat="42.914282" lon="-8.039914">
        <ele>428.862</ele>
        <time>2022-08-22T10:33:10Z</time>
      </trkpt>
      <trkpt lat="42.914317" lon="-8.039968">
        <ele>428.682</ele>
        <time>2022-08-22T10:33:15Z</time>
      </trkpt>
      <trkpt lat="42.914358" lon="-8.040013">
        <ele>428.525</ele>
        <time>2022-08-22T10:33:18Z</time>
      </trkpt>
      <trkpt lat="42.914410" lon="-8.040060">
        <ele>428.377</ele>
        <time>2022-08-22T10:33:21Z</time>
      </trkpt>
      <trkpt lat="42.914449" lon="-8.040092">
        <ele>428.359</ele>
        <time>2022-08-22T10:33:24Z</time>
      </trkpt>
      <trkpt lat="42.914483" lon="-8.040135">
        <ele>428.289</ele>
        <time>2022-08-22T10:33:28Z</time>
      </trkpt>
      <trkpt lat="42.914525" lon="-8.040171">
        <ele>428.194</ele>
        <time>2022-08-22T10:33:31Z</time>
      </trkpt>
      <trkpt lat="42.914561" lon="-8.040218">
        <ele>428.019</ele>
        <time>2022-08-22T10:33:34Z</time>
      </trkpt>
      <trkpt lat="42.914595" lon="-8.040271">
        <ele>427.955</ele>
        <time>2022-08-22T10:33:38Z</time>
      </trkpt>
      <trkpt lat="42.914632" lon="-8.040316">
        <ele>427.807</ele>
        <time>2022-08-22T10:33:42Z</time>
      </trkpt>
      <trkpt lat="42.914669" lon="-8.040357">
        <ele>427.617</ele>
        <time>2022-08-22T10:33:46Z</time>
      </trkpt>
      <trkpt lat="42.914713" lon="-8.040395">
        <ele>427.309</ele>
        <time>2022-08-22T10:33:49Z</time>
      </trkpt>
      <trkpt lat="42.914752" lon="-8.040433">
        <ele>427.016</ele>
        <time>2022-08-22T10:33:52Z</time>
      </trkpt>
      <trkpt lat="42.914782" lon="-8.040479">
        <ele>426.746</ele>
        <time>2022-08-22T10:33:56Z</time>
      </trkpt>
      <trkpt lat="42.914825" lon="-8.040541">
        <ele>426.496</ele>
        <time>2022-08-22T10:34:00Z</time>
      </trkpt>
      <trkpt lat="42.914861" lon="-8.040594">
        <ele>426.049</ele>
        <time>2022-08-22T10:34:03Z</time>
      </trkpt>
      <trkpt lat="42.914872" lon="-8.040664">
        <ele>425.481</ele>
        <time>2022-08-22T10:34:06Z</time>
      </trkpt>
      <trkpt lat="42.914896" lon="-8.040724">
        <ele>424.813</ele>
        <time>2022-08-22T10:34:09Z</time>
      </trkpt>
      <trkpt lat="42.914932" lon="-8.040784">
        <ele>424.123</ele>
        <time>2022-08-22T10:34:14Z</time>
      </trkpt>
      <trkpt lat="42.914955" lon="-8.040838">
        <ele>423.948</ele>
        <time>2022-08-22T10:34:17Z</time>
      </trkpt>
      <trkpt lat="42.914979" lon="-8.040894">
        <ele>423.333</ele>
        <time>2022-08-22T10:34:20Z</time>
      </trkpt>
      <trkpt lat="42.915022" lon="-8.040934">
        <ele>422.729</ele>
        <time>2022-08-22T10:34:24Z</time>
      </trkpt>
      <trkpt lat="42.915059" lon="-8.040989">
        <ele>422.300</ele>
        <time>2022-08-22T10:34:28Z</time>
      </trkpt>
      <trkpt lat="42.915088" lon="-8.041045">
        <ele>421.820</ele>
        <time>2022-08-22T10:34:33Z</time>
      </trkpt>
      <trkpt lat="42.915122" lon="-8.041094">
        <ele>421.109</ele>
        <time>2022-08-22T10:34:38Z</time>
      </trkpt>
      <trkpt lat="42.915156" lon="-8.041145">
        <ele>420.363</ele>
        <time>2022-08-22T10:34:43Z</time>
      </trkpt>
      <trkpt lat="42.915204" lon="-8.041189">
        <ele>419.633</ele>
        <time>2022-08-22T10:34:47Z</time>
      </trkpt>
      <trkpt lat="42.915251" lon="-8.041227">
        <ele>419.073</ele>
        <time>2022-08-22T10:34:52Z</time>
      </trkpt>
      <trkpt lat="42.915286" lon="-8.041288">
        <ele>418.516</ele>
        <time>2022-08-22T10:34:57Z</time>
      </trkpt>
      <trkpt lat="42.915294" lon="-8.041350">
        <ele>418.138</ele>
        <time>2022-08-22T10:35:02Z</time>
      </trkpt>
      <trkpt lat="42.915302" lon="-8.041427">
        <ele>417.720</ele>
        <time>2022-08-22T10:35:06Z</time>
      </trkpt>
      <trkpt lat="42.915297" lon="-8.041499">
        <ele>417.670</ele>
        <time>2022-08-22T10:35:11Z</time>
      </trkpt>
      <trkpt lat="42.915278" lon="-8.041586">
        <ele>417.035</ele>
        <time>2022-08-22T10:35:21Z</time>
      </trkpt>
      <trkpt lat="42.915706" lon="-8.042141">
        <ele>424.280</ele>
        <time>2022-08-22T10:36:20Z</time>
      </trkpt>
      <trkpt lat="42.915751" lon="-8.042157">
        <ele>424.484</ele>
        <time>2022-08-22T10:36:23Z</time>
      </trkpt>
      <trkpt lat="42.915795" lon="-8.042179">
        <ele>424.607</ele>
        <time>2022-08-22T10:36:27Z</time>
      </trkpt>
      <trkpt lat="42.915848" lon="-8.042218">
        <ele>424.817</ele>
        <time>2022-08-22T10:36:31Z</time>
      </trkpt>
      <trkpt lat="42.915889" lon="-8.042251">
        <ele>425.009</ele>
        <time>2022-08-22T10:36:35Z</time>
      </trkpt>
      <trkpt lat="42.915936" lon="-8.042282">
        <ele>425.139</ele>
        <time>2022-08-22T10:36:39Z</time>
      </trkpt>
      <trkpt lat="42.915980" lon="-8.042329">
        <ele>425.439</ele>
        <time>2022-08-22T10:36:43Z</time>
      </trkpt>
      <trkpt lat="42.916021" lon="-8.042361">
        <ele>425.739</ele>
        <time>2022-08-22T10:36:47Z</time>
      </trkpt>
      <trkpt lat="42.916069" lon="-8.042388">
        <ele>426.022</ele>
        <time>2022-08-22T10:36:52Z</time>
      </trkpt>
      <trkpt lat="42.916120" lon="-8.042418">
        <ele>426.374</ele>
        <time>2022-08-22T10:36:56Z</time>
      </trkpt>
      <trkpt lat="42.916153" lon="-8.042464">
        <ele>426.546</ele>
        <time>2022-08-22T10:37:01Z</time>
      </trkpt>
      <trkpt lat="42.916205" lon="-8.042486">
        <ele>426.726</ele>
        <time>2022-08-22T10:37:06Z</time>
      </trkpt>
      <trkpt lat="42.916237" lon="-8.042555">
        <ele>426.951</ele>
        <time>2022-08-22T10:37:10Z</time>
      </trkpt>
      <trkpt lat="42.916235" lon="-8.042620">
        <ele>427.186</ele>
        <time>2022-08-22T10:37:13Z</time>
      </trkpt>
      <trkpt lat="42.916235" lon="-8.042685">
        <ele>427.375</ele>
        <time>2022-08-22T10:37:17Z</time>
      </trkpt>
      <trkpt lat="42.916213" lon="-8.042753">
        <ele>427.528</ele>
        <time>2022-08-22T10:37:22Z</time>
      </trkpt>
      <trkpt lat="42.916197" lon="-8.042810">
        <ele>427.720</ele>
        <time>2022-08-22T10:37:25Z</time>
      </trkpt>
      <trkpt lat="42.916199" lon="-8.042876">
        <ele>427.909</ele>
        <time>2022-08-22T10:37:31Z</time>
      </trkpt>
      <trkpt lat="42.916204" lon="-8.042938">
        <ele>428.048</ele>
        <time>2022-08-22T10:37:35Z</time>
      </trkpt>
      <trkpt lat="42.916212" lon="-8.043004">
        <ele>428.288</ele>
        <time>2022-08-22T10:37:39Z</time>
      </trkpt>
      <trkpt lat="42.916214" lon="-8.043069">
        <ele>428.468</ele>
        <time>2022-08-22T10:37:43Z</time>
      </trkpt>
      <trkpt lat="42.916224" lon="-8.043150">
        <ele>428.611</ele>
        <time>2022-08-22T10:37:47Z</time>
      </trkpt>
      <trkpt lat="42.916240" lon="-8.043212">
        <ele>428.873</ele>
        <time>2022-08-22T10:37:51Z</time>
      </trkpt>
      <trkpt lat="42.916231" lon="-8.043274">
        <ele>429.035</ele>
        <time>2022-08-22T10:37:56Z</time>
      </trkpt>
      <trkpt lat="42.916240" lon="-8.043335">
        <ele>429.365</ele>
        <time>2022-08-22T10:38:00Z</time>
      </trkpt>
      <trkpt lat="42.916270" lon="-8.043389">
        <ele>429.940</ele>
        <time>2022-08-22T10:38:04Z</time>
      </trkpt>
      <trkpt lat="42.916262" lon="-8.043502">
        <ele>430.955</ele>
        <time>2022-08-22T10:38:12Z</time>
      </trkpt>
      <trkpt lat="42.916263" lon="-8.043578">
        <ele>431.682</ele>
        <time>2022-08-22T10:38:15Z</time>
      </trkpt>
      <trkpt lat="42.916257" lon="-8.043639">
        <ele>433.343</ele>
        <time>2022-08-22T10:38:18Z</time>
      </trkpt>
      <trkpt lat="42.916250" lon="-8.043700">
        <ele>433.817</ele>
        <time>2022-08-22T10:38:22Z</time>
      </trkpt>
      <trkpt lat="42.916251" lon="-8.043766">
        <ele>434.309</ele>
        <time>2022-08-22T10:38:25Z</time>
      </trkpt>
      <trkpt lat="42.916251" lon="-8.043839">
        <ele>434.629</ele>
        <time>2022-08-22T10:38:29Z</time>
      </trkpt>
      <trkpt lat="42.916258" lon="-8.043903">
        <ele>435.199</ele>
        <time>2022-08-22T10:38:33Z</time>
      </trkpt>
      <trkpt lat="42.916259" lon="-8.043968">
        <ele>435.529</ele>
        <time>2022-08-22T10:38:38Z</time>
      </trkpt>
      <trkpt lat="42.916251" lon="-8.044033">
        <ele>435.992</ele>
        <time>2022-08-22T10:38:43Z</time>
      </trkpt>
      <trkpt lat="42.916257" lon="-8.044107">
        <ele>436.454</ele>
        <time>2022-08-22T10:38:48Z</time>
      </trkpt>
      <trkpt lat="42.916279" lon="-8.044181">
        <ele>437.046</ele>
        <time>2022-08-22T10:38:51Z</time>
      </trkpt>
      <trkpt lat="42.916285" lon="-8.044248">
        <ele>437.666</ele>
        <time>2022-08-22T10:38:54Z</time>
      </trkpt>
      <trkpt lat="42.916297" lon="-8.044323">
        <ele>438.141</ele>
        <time>2022-08-22T10:38:58Z</time>
      </trkpt>
      <trkpt lat="42.916296" lon="-8.044391">
        <ele>438.536</ele>
        <time>2022-08-22T10:39:02Z</time>
      </trkpt>
      <trkpt lat="42.916290" lon="-8.044458">
        <ele>439.058</ele>
        <time>2022-08-22T10:39:06Z</time>
      </trkpt>
      <trkpt lat="42.916303" lon="-8.044530">
        <ele>439.652</ele>
        <time>2022-08-22T10:39:11Z</time>
      </trkpt>
      <trkpt lat="42.916294" lon="-8.044598">
        <ele>440.117</ele>
        <time>2022-08-22T10:39:15Z</time>
      </trkpt>
      <trkpt lat="42.916285" lon="-8.044661">
        <ele>440.709</ele>
        <time>2022-08-22T10:39:19Z</time>
      </trkpt>
      <trkpt lat="42.916287" lon="-8.044747">
        <ele>441.426</ele>
        <time>2022-08-22T10:39:25Z</time>
      </trkpt>
      <trkpt lat="42.916267" lon="-8.044805">
        <ele>442.066</ele>
        <time>2022-08-22T10:39:31Z</time>
      </trkpt>
      <trkpt lat="42.916242" lon="-8.044874">
        <ele>442.756</ele>
        <time>2022-08-22T10:39:35Z</time>
      </trkpt>
      <trkpt lat="42.916229" lon="-8.044936">
        <ele>443.699</ele>
        <time>2022-08-22T10:39:39Z</time>
      </trkpt>
      <trkpt lat="42.916225" lon="-8.044999">
        <ele>444.471</ele>
        <time>2022-08-22T10:39:43Z</time>
      </trkpt>
      <trkpt lat="42.916209" lon="-8.045061">
        <ele>444.963</ele>
        <time>2022-08-22T10:39:46Z</time>
      </trkpt>
      <trkpt lat="42.916211" lon="-8.045123">
        <ele>445.343</ele>
        <time>2022-08-22T10:39:49Z</time>
      </trkpt>
      <trkpt lat="42.916200" lon="-8.045183">
        <ele>445.778</ele>
        <time>2022-08-22T10:39:53Z</time>
      </trkpt>
      <trkpt lat="42.916181" lon="-8.045243">
        <ele>446.063</ele>
        <time>2022-08-22T10:39:56Z</time>
      </trkpt>
      <trkpt lat="42.916197" lon="-8.045312">
        <ele>446.315</ele>
        <time>2022-08-22T10:39:59Z</time>
      </trkpt>
      <trkpt lat="42.916197" lon="-8.045374">
        <ele>446.665</ele>
        <time>2022-08-22T10:40:02Z</time>
      </trkpt>
      <trkpt lat="42.916182" lon="-8.045440">
        <ele>446.911</ele>
        <time>2022-08-22T10:40:07Z</time>
      </trkpt>
      <trkpt lat="42.916201" lon="-8.045496">
        <ele>447.109</ele>
        <time>2022-08-22T10:40:11Z</time>
      </trkpt>
      <trkpt lat="42.916188" lon="-8.045567">
        <ele>447.512</ele>
        <time>2022-08-22T10:40:15Z</time>
      </trkpt>
      <trkpt lat="42.916160" lon="-8.045630">
        <ele>448.072</ele>
        <time>2022-08-22T10:40:19Z</time>
      </trkpt>
      <trkpt lat="42.916132" lon="-8.045683">
        <ele>448.482</ele>
        <time>2022-08-22T10:40:22Z</time>
      </trkpt>
      <trkpt lat="42.916113" lon="-8.045755">
        <ele>448.945</ele>
        <time>2022-08-22T10:40:26Z</time>
      </trkpt>
      <trkpt lat="42.916094" lon="-8.045833">
        <ele>449.577</ele>
        <time>2022-08-22T10:40:30Z</time>
      </trkpt>
      <trkpt lat="42.916068" lon="-8.045896">
        <ele>449.839</ele>
        <time>2022-08-22T10:40:34Z</time>
      </trkpt>
      <trkpt lat="42.916023" lon="-8.045952">
        <ele>450.189</ele>
        <time>2022-08-22T10:40:39Z</time>
      </trkpt>
      <trkpt lat="42.916005" lon="-8.046014">
        <ele>450.234</ele>
        <time>2022-08-22T10:40:43Z</time>
      </trkpt>
      <trkpt lat="42.915977" lon="-8.046081">
        <ele>450.339</ele>
        <time>2022-08-22T10:40:47Z</time>
      </trkpt>
      <trkpt lat="42.915951" lon="-8.046141">
        <ele>450.474</ele>
        <time>2022-08-22T10:40:52Z</time>
      </trkpt>
      <trkpt lat="42.915924" lon="-8.046199">
        <ele>450.556</ele>
        <time>2022-08-22T10:40:56Z</time>
      </trkpt>
      <trkpt lat="42.915930" lon="-8.046263">
        <ele>450.621</ele>
        <time>2022-08-22T10:41:00Z</time>
      </trkpt>
      <trkpt lat="42.915937" lon="-8.046348">
        <ele>450.609</ele>
        <time>2022-08-22T10:41:09Z</time>
      </trkpt>
      <trkpt lat="42.915964" lon="-8.046422">
        <ele>450.618</ele>
        <time>2022-08-22T10:41:15Z</time>
      </trkpt>
      <trkpt lat="42.915989" lon="-8.046488">
        <ele>450.698</ele>
        <time>2022-08-22T10:41:19Z</time>
      </trkpt>
      <trkpt lat="42.916027" lon="-8.046532">
        <ele>450.698</ele>
        <time>2022-08-22T10:41:21Z</time>
      </trkpt>
      <trkpt lat="42.916068" lon="-8.046590">
        <ele>450.681</ele>
        <time>2022-08-22T10:41:24Z</time>
      </trkpt>
      <trkpt lat="42.916094" lon="-8.046647">
        <ele>450.783</ele>
        <time>2022-08-22T10:41:27Z</time>
      </trkpt>
      <trkpt lat="42.916128" lon="-8.046721">
        <ele>450.765</ele>
        <time>2022-08-22T10:41:31Z</time>
      </trkpt>
      <trkpt lat="42.916162" lon="-8.046782">
        <ele>450.865</ele>
        <time>2022-08-22T10:41:35Z</time>
      </trkpt>
      <trkpt lat="42.916190" lon="-8.046835">
        <ele>450.990</ele>
        <time>2022-08-22T10:41:40Z</time>
      </trkpt>
      <trkpt lat="42.916236" lon="-8.046892">
        <ele>451.075</ele>
        <time>2022-08-22T10:41:45Z</time>
      </trkpt>
      <trkpt lat="42.916280" lon="-8.046958">
        <ele>451.141</ele>
        <time>2022-08-22T10:41:49Z</time>
      </trkpt>
      <trkpt lat="42.916327" lon="-8.047016">
        <ele>451.381</ele>
        <time>2022-08-22T10:41:52Z</time>
      </trkpt>
      <trkpt lat="42.916364" lon="-8.047073">
        <ele>451.309</ele>
        <time>2022-08-22T10:41:55Z</time>
      </trkpt>
      <trkpt lat="42.916394" lon="-8.047126">
        <ele>451.409</ele>
        <time>2022-08-22T10:41:58Z</time>
      </trkpt>
      <trkpt lat="42.916421" lon="-8.047183">
        <ele>451.785</ele>
        <time>2022-08-22T10:42:02Z</time>
      </trkpt>
      <trkpt lat="42.916448" lon="-8.047257">
        <ele>451.915</ele>
        <time>2022-08-22T10:42:06Z</time>
      </trkpt>
      <trkpt lat="42.916483" lon="-8.047317">
        <ele>452.285</ele>
        <time>2022-08-22T10:42:12Z</time>
      </trkpt>
      <trkpt lat="42.916515" lon="-8.047367">
        <ele>452.458</ele>
        <time>2022-08-22T10:42:15Z</time>
      </trkpt>
      <trkpt lat="42.916535" lon="-8.047426">
        <ele>452.990</ele>
        <time>2022-08-22T10:42:18Z</time>
      </trkpt>
      <trkpt lat="42.916561" lon="-8.047502">
        <ele>453.412</ele>
        <time>2022-08-22T10:42:22Z</time>
      </trkpt>
      <trkpt lat="42.916590" lon="-8.047575">
        <ele>453.592</ele>
        <time>2022-08-22T10:42:26Z</time>
      </trkpt>
      <trkpt lat="42.916614" lon="-8.047635">
        <ele>453.677</ele>
        <time>2022-08-22T10:42:29Z</time>
      </trkpt>
      <trkpt lat="42.916635" lon="-8.047692">
        <ele>453.812</ele>
        <time>2022-08-22T10:42:32Z</time>
      </trkpt>
      <trkpt lat="42.916653" lon="-8.047751">
        <ele>454.029</ele>
        <time>2022-08-22T10:42:35Z</time>
      </trkpt>
      <trkpt lat="42.916672" lon="-8.047807">
        <ele>454.100</ele>
        <time>2022-08-22T10:42:38Z</time>
      </trkpt>
      <trkpt lat="42.916689" lon="-8.047882">
        <ele>454.120</ele>
        <time>2022-08-22T10:42:42Z</time>
      </trkpt>
      <trkpt lat="42.916706" lon="-8.047958">
        <ele>454.209</ele>
        <time>2022-08-22T10:42:46Z</time>
      </trkpt>
      <trkpt lat="42.916723" lon="-8.048034">
        <ele>454.593</ele>
        <time>2022-08-22T10:42:50Z</time>
      </trkpt>
      <trkpt lat="42.916739" lon="-8.048108">
        <ele>455.063</ele>
        <time>2022-08-22T10:42:54Z</time>
      </trkpt>
      <trkpt lat="42.916750" lon="-8.048185">
        <ele>455.233</ele>
        <time>2022-08-22T10:42:58Z</time>
      </trkpt>
      <trkpt lat="42.916743" lon="-8.048262">
        <ele>455.316</ele>
        <time>2022-08-22T10:43:02Z</time>
      </trkpt>
      <trkpt lat="42.916742" lon="-8.048331">
        <ele>455.598</ele>
        <time>2022-08-22T10:43:06Z</time>
      </trkpt>
      <trkpt lat="42.916720" lon="-8.048386">
        <ele>455.740</ele>
        <time>2022-08-22T10:43:10Z</time>
      </trkpt>
      <trkpt lat="42.916700" lon="-8.048446">
        <ele>455.960</ele>
        <time>2022-08-22T10:43:14Z</time>
      </trkpt>
      <trkpt lat="42.916676" lon="-8.048509">
        <ele>456.035</ele>
        <time>2022-08-22T10:43:18Z</time>
      </trkpt>
      <trkpt lat="42.916644" lon="-8.048568">
        <ele>456.240</ele>
        <time>2022-08-22T10:43:22Z</time>
      </trkpt>
      <trkpt lat="42.916616" lon="-8.048632">
        <ele>456.597</ele>
        <time>2022-08-22T10:43:26Z</time>
      </trkpt>
      <trkpt lat="42.916601" lon="-8.048696">
        <ele>456.623</ele>
        <time>2022-08-22T10:43:30Z</time>
      </trkpt>
      <trkpt lat="42.916585" lon="-8.048767">
        <ele>456.625</ele>
        <time>2022-08-22T10:43:35Z</time>
      </trkpt>
      <trkpt lat="42.916595" lon="-8.048835">
        <ele>456.609</ele>
        <time>2022-08-22T10:43:40Z</time>
      </trkpt>
      <trkpt lat="42.916634" lon="-8.048869">
        <ele>456.480</ele>
        <time>2022-08-22T10:43:43Z</time>
      </trkpt>
      <trkpt lat="42.916679" lon="-8.048905">
        <ele>456.230</ele>
        <time>2022-08-22T10:43:47Z</time>
      </trkpt>
      <trkpt lat="42.916723" lon="-8.048943">
        <ele>456.290</ele>
        <time>2022-08-22T10:43:51Z</time>
      </trkpt>
      <trkpt lat="42.916764" lon="-8.048977">
        <ele>456.233</ele>
        <time>2022-08-22T10:43:54Z</time>
      </trkpt>
      <trkpt lat="42.916813" lon="-8.049022">
        <ele>456.435</ele>
        <time>2022-08-22T10:43:58Z</time>
      </trkpt>
      <trkpt lat="42.916849" lon="-8.049068">
        <ele>457.097</ele>
        <time>2022-08-22T10:44:01Z</time>
      </trkpt>
      <trkpt lat="42.916880" lon="-8.049113">
        <ele>457.557</ele>
        <time>2022-08-22T10:44:04Z</time>
      </trkpt>
      <trkpt lat="42.916929" lon="-8.049153">
        <ele>457.762</ele>
        <time>2022-08-22T10:44:08Z</time>
      </trkpt>
      <trkpt lat="42.916978" lon="-8.049199">
        <ele>457.727</ele>
        <time>2022-08-22T10:44:12Z</time>
      </trkpt>
      <trkpt lat="42.917004" lon="-8.049253">
        <ele>457.733</ele>
        <time>2022-08-22T10:44:15Z</time>
      </trkpt>
      <trkpt lat="42.917045" lon="-8.049309">
        <ele>457.623</ele>
        <time>2022-08-22T10:44:19Z</time>
      </trkpt>
      <trkpt lat="42.917097" lon="-8.049348">
        <ele>457.615</ele>
        <time>2022-08-22T10:44:23Z</time>
      </trkpt>
      <trkpt lat="42.917140" lon="-8.049397">
        <ele>457.609</ele>
        <time>2022-08-22T10:44:27Z</time>
      </trkpt>
      <trkpt lat="42.917175" lon="-8.049455">
        <ele>457.734</ele>
        <time>2022-08-22T10:44:31Z</time>
      </trkpt>
      <trkpt lat="42.917208" lon="-8.049519">
        <ele>457.764</ele>
        <time>2022-08-22T10:44:35Z</time>
      </trkpt>
      <trkpt lat="42.917245" lon="-8.049575">
        <ele>457.884</ele>
        <time>2022-08-22T10:44:39Z</time>
      </trkpt>
      <trkpt lat="42.917270" lon="-8.049643">
        <ele>457.817</ele>
        <time>2022-08-22T10:44:43Z</time>
      </trkpt>
      <trkpt lat="42.917305" lon="-8.049703">
        <ele>457.919</ele>
        <time>2022-08-22T10:44:47Z</time>
      </trkpt>
      <trkpt lat="42.917341" lon="-8.049758">
        <ele>458.011</ele>
        <time>2022-08-22T10:44:51Z</time>
      </trkpt>
      <trkpt lat="42.917371" lon="-8.049819">
        <ele>458.131</ele>
        <time>2022-08-22T10:44:55Z</time>
      </trkpt>
      <trkpt lat="42.917406" lon="-8.049875">
        <ele>458.566</ele>
        <time>2022-08-22T10:44:59Z</time>
      </trkpt>
      <trkpt lat="42.917426" lon="-8.049946">
        <ele>458.781</ele>
        <time>2022-08-22T10:45:03Z</time>
      </trkpt>
      <trkpt lat="42.917432" lon="-8.050024">
        <ele>458.739</ele>
        <time>2022-08-22T10:45:07Z</time>
      </trkpt>
      <trkpt lat="42.917430" lon="-8.050097">
        <ele>459.201</ele>
        <time>2022-08-22T10:45:11Z</time>
      </trkpt>
      <trkpt lat="42.917426" lon="-8.050169">
        <ele>459.221</ele>
        <time>2022-08-22T10:45:15Z</time>
      </trkpt>
      <trkpt lat="42.917430" lon="-8.050240">
        <ele>459.209</ele>
        <time>2022-08-22T10:45:19Z</time>
      </trkpt>
      <trkpt lat="42.917439" lon="-8.050309">
        <ele>459.214</ele>
        <time>2022-08-22T10:45:23Z</time>
      </trkpt>
      <trkpt lat="42.917450" lon="-8.050380">
        <ele>459.224</ele>
        <time>2022-08-22T10:45:27Z</time>
      </trkpt>
      <trkpt lat="42.917466" lon="-8.050453">
        <ele>459.274</ele>
        <time>2022-08-22T10:45:31Z</time>
      </trkpt>
      <trkpt lat="42.917473" lon="-8.050527">
        <ele>459.217</ele>
        <time>2022-08-22T10:45:35Z</time>
      </trkpt>
      <trkpt lat="42.917483" lon="-8.050600">
        <ele>459.369</ele>
        <time>2022-08-22T10:45:39Z</time>
      </trkpt>
      <trkpt lat="42.917489" lon="-8.050674">
        <ele>459.321</ele>
        <time>2022-08-22T10:45:43Z</time>
      </trkpt>
      <trkpt lat="42.917493" lon="-8.050749">
        <ele>459.341</ele>
        <time>2022-08-22T10:45:47Z</time>
      </trkpt>
      <trkpt lat="42.917500" lon="-8.050824">
        <ele>459.486</ele>
        <time>2022-08-22T10:45:51Z</time>
      </trkpt>
      <trkpt lat="42.917506" lon="-8.050893">
        <ele>459.491</ele>
        <time>2022-08-22T10:45:55Z</time>
      </trkpt>
      <trkpt lat="42.917514" lon="-8.050964">
        <ele>459.416</ele>
        <time>2022-08-22T10:45:59Z</time>
      </trkpt>
      <trkpt lat="42.917533" lon="-8.051024">
        <ele>459.576</ele>
        <time>2022-08-22T10:46:04Z</time>
      </trkpt>
      <trkpt lat="42.917542" lon="-8.051088">
        <ele>459.813</ele>
        <time>2022-08-22T10:46:08Z</time>
      </trkpt>
      <trkpt lat="42.917547" lon="-8.051162">
        <ele>460.109</ele>
        <time>2022-08-22T10:46:13Z</time>
      </trkpt>
      <trkpt lat="42.917550" lon="-8.051229">
        <ele>460.592</ele>
        <time>2022-08-22T10:46:17Z</time>
      </trkpt>
      <trkpt lat="42.917559" lon="-8.051296">
        <ele>460.932</ele>
        <time>2022-08-22T10:46:21Z</time>
      </trkpt>
      <trkpt lat="42.917572" lon="-8.051370">
        <ele>461.282</ele>
        <time>2022-08-22T10:46:25Z</time>
      </trkpt>
      <trkpt lat="42.917576" lon="-8.051449">
        <ele>461.585</ele>
        <time>2022-08-22T10:46:29Z</time>
      </trkpt>
      <trkpt lat="42.917583" lon="-8.051528">
        <ele>461.677</ele>
        <time>2022-08-22T10:46:33Z</time>
      </trkpt>
      <trkpt lat="42.917594" lon="-8.051599">
        <ele>461.729</ele>
        <time>2022-08-22T10:46:37Z</time>
      </trkpt>
      <trkpt lat="42.917588" lon="-8.051676">
        <ele>461.999</ele>
        <time>2022-08-22T10:46:41Z</time>
      </trkpt>
      <trkpt lat="42.917541" lon="-8.051715">
        <ele>462.174</ele>
        <time>2022-08-22T10:46:46Z</time>
      </trkpt>
      <trkpt lat="42.917496" lon="-8.051738">
        <ele>462.199</ele>
        <time>2022-08-22T10:46:53Z</time>
      </trkpt>
      <trkpt lat="42.917451" lon="-8.051762">
        <ele>462.039</ele>
        <time>2022-08-22T10:47:00Z</time>
      </trkpt>
      <trkpt lat="42.917397" lon="-8.051785">
        <ele>462.001</ele>
        <time>2022-08-22T10:47:05Z</time>
      </trkpt>
      <trkpt lat="42.917342" lon="-8.051791">
        <ele>461.821</ele>
        <time>2022-08-22T10:47:09Z</time>
      </trkpt>
      <trkpt lat="42.917299" lon="-8.051812">
        <ele>461.609</ele>
        <time>2022-08-22T10:47:13Z</time>
      </trkpt>
      <trkpt lat="42.917256" lon="-8.051849">
        <ele>461.484</ele>
        <time>2022-08-22T10:47:16Z</time>
      </trkpt>
      <trkpt lat="42.917217" lon="-8.051891">
        <ele>461.344</ele>
        <time>2022-08-22T10:47:20Z</time>
      </trkpt>
      <trkpt lat="42.917167" lon="-8.051922">
        <ele>461.274</ele>
        <time>2022-08-22T10:47:25Z</time>
      </trkpt>
      <trkpt lat="42.917115" lon="-8.051951">
        <ele>461.197</ele>
        <time>2022-08-22T10:47:29Z</time>
      </trkpt>
      <trkpt lat="42.917074" lon="-8.051987">
        <ele>461.039</ele>
        <time>2022-08-22T10:47:33Z</time>
      </trkpt>
      <trkpt lat="42.917030" lon="-8.052021">
        <ele>460.921</ele>
        <time>2022-08-22T10:47:37Z</time>
      </trkpt>
      <trkpt lat="42.916986" lon="-8.052075">
        <ele>460.851</ele>
        <time>2022-08-22T10:47:41Z</time>
      </trkpt>
      <trkpt lat="42.916960" lon="-8.052129">
        <ele>460.896</ele>
        <time>2022-08-22T10:47:46Z</time>
      </trkpt>
      <trkpt lat="42.916934" lon="-8.052185">
        <ele>460.851</ele>
        <time>2022-08-22T10:47:50Z</time>
      </trkpt>
      <trkpt lat="42.916923" lon="-8.052244">
        <ele>460.847</ele>
        <time>2022-08-22T10:47:53Z</time>
      </trkpt>
      <trkpt lat="42.916902" lon="-8.052304">
        <ele>460.829</ele>
        <time>2022-08-22T10:47:56Z</time>
      </trkpt>
      <trkpt lat="42.916889" lon="-8.052388">
        <ele>460.821</ele>
        <time>2022-08-22T10:47:59Z</time>
      </trkpt>
      <trkpt lat="42.916862" lon="-8.052446">
        <ele>460.809</ele>
        <time>2022-08-22T10:48:02Z</time>
      </trkpt>
      <trkpt lat="42.916824" lon="-8.052502">
        <ele>460.845</ele>
        <time>2022-08-22T10:48:06Z</time>
      </trkpt>
      <trkpt lat="42.916794" lon="-8.052575">
        <ele>460.965</ele>
        <time>2022-08-22T10:48:10Z</time>
      </trkpt>
      <trkpt lat="42.916775" lon="-8.052638">
        <ele>460.985</ele>
        <time>2022-08-22T10:48:14Z</time>
      </trkpt>
      <trkpt lat="42.916759" lon="-8.052698">
        <ele>460.968</ele>
        <time>2022-08-22T10:48:18Z</time>
      </trkpt>
      <trkpt lat="42.916743" lon="-8.052757">
        <ele>460.950</ele>
        <time>2022-08-22T10:48:22Z</time>
      </trkpt>
      <trkpt lat="42.916723" lon="-8.052839">
        <ele>460.972</ele>
        <time>2022-08-22T10:48:26Z</time>
      </trkpt>
      <trkpt lat="42.916703" lon="-8.052908">
        <ele>460.922</ele>
        <time>2022-08-22T10:48:29Z</time>
      </trkpt>
      <trkpt lat="42.916682" lon="-8.052981">
        <ele>461.037</ele>
        <time>2022-08-22T10:48:33Z</time>
      </trkpt>
      <trkpt lat="42.916662" lon="-8.053039">
        <ele>461.172</ele>
        <time>2022-08-22T10:48:36Z</time>
      </trkpt>
      <trkpt lat="42.916634" lon="-8.053094">
        <ele>461.312</ele>
        <time>2022-08-22T10:48:40Z</time>
      </trkpt>
      <trkpt lat="42.916611" lon="-8.053157">
        <ele>461.332</ele>
        <time>2022-08-22T10:48:44Z</time>
      </trkpt>
      <trkpt lat="42.916581" lon="-8.053220">
        <ele>461.405</ele>
        <time>2022-08-22T10:48:48Z</time>
      </trkpt>
      <trkpt lat="42.916555" lon="-8.053273">
        <ele>461.509</ele>
        <time>2022-08-22T10:48:53Z</time>
      </trkpt>
      <trkpt lat="42.916527" lon="-8.053334">
        <ele>461.612</ele>
        <time>2022-08-22T10:48:57Z</time>
      </trkpt>
      <trkpt lat="42.916496" lon="-8.053384">
        <ele>461.772</ele>
        <time>2022-08-22T10:49:00Z</time>
      </trkpt>
      <trkpt lat="42.916458" lon="-8.053422">
        <ele>461.832</ele>
        <time>2022-08-22T10:49:03Z</time>
      </trkpt>
      <trkpt lat="42.916421" lon="-8.053478">
        <ele>461.915</ele>
        <time>2022-08-22T10:49:07Z</time>
      </trkpt>
      <trkpt lat="42.916388" lon="-8.053543">
        <ele>461.937</ele>
        <time>2022-08-22T10:49:11Z</time>
      </trkpt>
      <trkpt lat="42.916372" lon="-8.053608">
        <ele>461.979</ele>
        <time>2022-08-22T10:49:16Z</time>
      </trkpt>
      <trkpt lat="42.916357" lon="-8.053667">
        <ele>461.979</ele>
        <time>2022-08-22T10:49:19Z</time>
      </trkpt>
      <trkpt lat="42.916334" lon="-8.053725">
        <ele>462.044</ele>
        <time>2022-08-22T10:49:22Z</time>
      </trkpt>
      <trkpt lat="42.916324" lon="-8.053790">
        <ele>462.099</ele>
        <time>2022-08-22T10:49:25Z</time>
      </trkpt>
      <trkpt lat="42.916320" lon="-8.053863">
        <ele>462.055</ele>
        <time>2022-08-22T10:49:30Z</time>
      </trkpt>
      <trkpt lat="42.916289" lon="-8.053917">
        <ele>462.007</ele>
        <time>2022-08-22T10:49:35Z</time>
      </trkpt>
      <trkpt lat="42.916249" lon="-8.053959">
        <ele>462.017</ele>
        <time>2022-08-22T10:49:39Z</time>
      </trkpt>
      <trkpt lat="42.916207" lon="-8.053985">
        <ele>462.109</ele>
        <time>2022-08-22T10:49:43Z</time>
      </trkpt>
      <trkpt lat="42.916182" lon="-8.054059">
        <ele>462.166</ele>
        <time>2022-08-22T10:49:47Z</time>
      </trkpt>
      <trkpt lat="42.916159" lon="-8.054115">
        <ele>462.126</ele>
        <time>2022-08-22T10:49:50Z</time>
      </trkpt>
      <trkpt lat="42.916130" lon="-8.054177">
        <ele>462.166</ele>
        <time>2022-08-22T10:49:53Z</time>
      </trkpt>
      <trkpt lat="42.916109" lon="-8.054250">
        <ele>462.189</ele>
        <time>2022-08-22T10:49:57Z</time>
      </trkpt>
      <trkpt lat="42.916093" lon="-8.054311">
        <ele>462.161</ele>
        <time>2022-08-22T10:50:00Z</time>
      </trkpt>
      <trkpt lat="42.916063" lon="-8.054377">
        <ele>462.143</ele>
        <time>2022-08-22T10:50:03Z</time>
      </trkpt>
      <trkpt lat="42.916046" lon="-8.054441">
        <ele>462.143</ele>
        <time>2022-08-22T10:50:07Z</time>
      </trkpt>
      <trkpt lat="42.916018" lon="-8.054502">
        <ele>462.228</ele>
        <time>2022-08-22T10:50:11Z</time>
      </trkpt>
      <trkpt lat="42.915990" lon="-8.054577">
        <ele>462.363</ele>
        <time>2022-08-22T10:50:16Z</time>
      </trkpt>
      <trkpt lat="42.915973" lon="-8.054643">
        <ele>462.415</ele>
        <time>2022-08-22T10:50:19Z</time>
      </trkpt>
      <trkpt lat="42.915951" lon="-8.054710">
        <ele>462.465</ele>
        <time>2022-08-22T10:50:23Z</time>
      </trkpt>
      <trkpt lat="42.915934" lon="-8.054781">
        <ele>462.511</ele>
        <time>2022-08-22T10:50:27Z</time>
      </trkpt>
      <trkpt lat="42.915909" lon="-8.054839">
        <ele>462.609</ele>
        <time>2022-08-22T10:50:31Z</time>
      </trkpt>
      <trkpt lat="42.915885" lon="-8.054892">
        <ele>462.692</ele>
        <time>2022-08-22T10:50:35Z</time>
      </trkpt>
      <trkpt lat="42.915862" lon="-8.054954">
        <ele>462.622</ele>
        <time>2022-08-22T10:50:39Z</time>
      </trkpt>
      <trkpt lat="42.915839" lon="-8.055007">
        <ele>462.652</ele>
        <time>2022-08-22T10:50:42Z</time>
      </trkpt>
      <trkpt lat="42.915813" lon="-8.055069">
        <ele>462.675</ele>
        <time>2022-08-22T10:50:45Z</time>
      </trkpt>
      <trkpt lat="42.915784" lon="-8.055144">
        <ele>462.737</ele>
        <time>2022-08-22T10:50:48Z</time>
      </trkpt>
      <trkpt lat="42.915775" lon="-8.055204">
        <ele>462.889</ele>
        <time>2022-08-22T10:50:51Z</time>
      </trkpt>
      <trkpt lat="42.915758" lon="-8.055271">
        <ele>462.849</ele>
        <time>2022-08-22T10:50:55Z</time>
      </trkpt>
      <trkpt lat="42.915739" lon="-8.055329">
        <ele>462.884</ele>
        <time>2022-08-22T10:50:58Z</time>
      </trkpt>
      <trkpt lat="42.915721" lon="-8.055399">
        <ele>462.839</ele>
        <time>2022-08-22T10:51:02Z</time>
      </trkpt>
      <trkpt lat="42.915704" lon="-8.055467">
        <ele>462.877</ele>
        <time>2022-08-22T10:51:05Z</time>
      </trkpt>
      <trkpt lat="42.915691" lon="-8.055534">
        <ele>462.861</ele>
        <time>2022-08-22T10:51:08Z</time>
      </trkpt>
      <trkpt lat="42.915677" lon="-8.055598">
        <ele>462.827</ele>
        <time>2022-08-22T10:51:11Z</time>
      </trkpt>
      <trkpt lat="42.915664" lon="-8.055661">
        <ele>462.809</ele>
        <time>2022-08-22T10:51:14Z</time>
      </trkpt>
      <trkpt lat="42.915650" lon="-8.055738">
        <ele>462.718</ele>
        <time>2022-08-22T10:51:18Z</time>
      </trkpt>
      <trkpt lat="42.915629" lon="-8.055796">
        <ele>462.618</ele>
        <time>2022-08-22T10:51:21Z</time>
      </trkpt>
      <trkpt lat="42.915619" lon="-8.055857">
        <ele>462.678</ele>
        <time>2022-08-22T10:51:24Z</time>
      </trkpt>
      <trkpt lat="42.915601" lon="-8.055932">
        <ele>462.671</ele>
        <time>2022-08-22T10:51:28Z</time>
      </trkpt>
      <trkpt lat="42.915590" lon="-8.056007">
        <ele>462.683</ele>
        <time>2022-08-22T10:51:32Z</time>
      </trkpt>
      <trkpt lat="42.915587" lon="-8.056070">
        <ele>462.685</ele>
        <time>2022-08-22T10:51:36Z</time>
      </trkpt>
      <trkpt lat="42.915593" lon="-8.056146">
        <ele>462.555</ele>
        <time>2022-08-22T10:51:40Z</time>
      </trkpt>
      <trkpt lat="42.915591" lon="-8.056219">
        <ele>462.390</ele>
        <time>2022-08-22T10:51:44Z</time>
      </trkpt>
      <trkpt lat="42.915578" lon="-8.056284">
        <ele>462.315</ele>
        <time>2022-08-22T10:51:49Z</time>
      </trkpt>
      <trkpt lat="42.915572" lon="-8.056361">
        <ele>462.237</ele>
        <time>2022-08-22T10:51:54Z</time>
      </trkpt>
      <trkpt lat="42.915570" lon="-8.056436">
        <ele>462.049</ele>
        <time>2022-08-22T10:51:58Z</time>
      </trkpt>
      <trkpt lat="42.915553" lon="-8.056513">
        <ele>461.913</ele>
        <time>2022-08-22T10:52:03Z</time>
      </trkpt>
      <trkpt lat="42.915540" lon="-8.056575">
        <ele>461.809</ele>
        <time>2022-08-22T10:52:06Z</time>
      </trkpt>
      <trkpt lat="42.915521" lon="-8.056649">
        <ele>461.644</ele>
        <time>2022-08-22T10:52:10Z</time>
      </trkpt>
      <trkpt lat="42.915497" lon="-8.056719">
        <ele>461.594</ele>
        <time>2022-08-22T10:52:15Z</time>
      </trkpt>
      <trkpt lat="42.915481" lon="-8.056781">
        <ele>461.574</ele>
        <time>2022-08-22T10:52:19Z</time>
      </trkpt>
      <trkpt lat="42.915474" lon="-8.056854">
        <ele>461.567</ele>
        <time>2022-08-22T10:52:23Z</time>
      </trkpt>
      <trkpt lat="42.915458" lon="-8.056931">
        <ele>461.549</ele>
        <time>2022-08-22T10:52:28Z</time>
      </trkpt>
      <trkpt lat="42.915431" lon="-8.056995">
        <ele>461.461</ele>
        <time>2022-08-22T10:52:33Z</time>
      </trkpt>
      <trkpt lat="42.915419" lon="-8.057069">
        <ele>461.361</ele>
        <time>2022-08-22T10:52:38Z</time>
      </trkpt>
      <trkpt lat="42.915401" lon="-8.057133">
        <ele>461.116</ele>
        <time>2022-08-22T10:52:41Z</time>
      </trkpt>
      <trkpt lat="42.915383" lon="-8.057206">
        <ele>460.981</ele>
        <time>2022-08-22T10:52:45Z</time>
      </trkpt>
      <trkpt lat="42.915375" lon="-8.057281">
        <ele>460.956</ele>
        <time>2022-08-22T10:52:49Z</time>
      </trkpt>
      <trkpt lat="42.915354" lon="-8.057338">
        <ele>460.959</ele>
        <time>2022-08-22T10:52:53Z</time>
      </trkpt>
      <trkpt lat="42.915351" lon="-8.057405">
        <ele>460.914</ele>
        <time>2022-08-22T10:52:57Z</time>
      </trkpt>
      <trkpt lat="42.915353" lon="-8.057471">
        <ele>460.909</ele>
        <time>2022-08-22T10:53:01Z</time>
      </trkpt>
      <trkpt lat="42.915346" lon="-8.057541">
        <ele>460.916</ele>
        <time>2022-08-22T10:53:05Z</time>
      </trkpt>
      <trkpt lat="42.915357" lon="-8.057608">
        <ele>460.916</ele>
        <time>2022-08-22T10:53:10Z</time>
      </trkpt>
      <trkpt lat="42.915355" lon="-8.057685">
        <ele>460.966</ele>
        <time>2022-08-22T10:53:14Z</time>
      </trkpt>
      <trkpt lat="42.915358" lon="-8.057749">
        <ele>460.949</ele>
        <time>2022-08-22T10:53:18Z</time>
      </trkpt>
      <trkpt lat="42.915359" lon="-8.057824">
        <ele>460.921</ele>
        <time>2022-08-22T10:53:22Z</time>
      </trkpt>
      <trkpt lat="42.915356" lon="-8.057903">
        <ele>460.893</ele>
        <time>2022-08-22T10:53:26Z</time>
      </trkpt>
      <trkpt lat="42.915357" lon="-8.057969">
        <ele>460.863</ele>
        <time>2022-08-22T10:53:29Z</time>
      </trkpt>
      <trkpt lat="42.915360" lon="-8.058036">
        <ele>460.848</ele>
        <time>2022-08-22T10:53:32Z</time>
      </trkpt>
      <trkpt lat="42.915368" lon="-8.058114">
        <ele>460.863</ele>
        <time>2022-08-22T10:53:36Z</time>
      </trkpt>
      <trkpt lat="42.915370" lon="-8.058184">
        <ele>460.827</ele>
        <time>2022-08-22T10:53:40Z</time>
      </trkpt>
      <trkpt lat="42.915367" lon="-8.058249">
        <ele>460.868</ele>
        <time>2022-08-22T10:53:44Z</time>
      </trkpt>
      <trkpt lat="42.915371" lon="-8.058319">
        <ele>460.714</ele>
        <time>2022-08-22T10:53:48Z</time>
      </trkpt>
      <trkpt lat="42.915375" lon="-8.058393">
        <ele>460.609</ele>
        <time>2022-08-22T10:53:52Z</time>
      </trkpt>
      <trkpt lat="42.915379" lon="-8.058464">
        <ele>460.693</ele>
        <time>2022-08-22T10:53:56Z</time>
      </trkpt>
      <trkpt lat="42.915377" lon="-8.058535">
        <ele>460.663</ele>
        <time>2022-08-22T10:54:01Z</time>
      </trkpt>
      <trkpt lat="42.915386" lon="-8.058605">
        <ele>460.683</ele>
        <time>2022-08-22T10:54:06Z</time>
      </trkpt>
      <trkpt lat="42.915397" lon="-8.058673">
        <ele>460.636</ele>
        <time>2022-08-22T10:54:11Z</time>
      </trkpt>
      <trkpt lat="42.915404" lon="-8.058737">
        <ele>460.518</ele>
        <time>2022-08-22T10:54:14Z</time>
      </trkpt>
      <trkpt lat="42.915406" lon="-8.058808">
        <ele>460.410</ele>
        <time>2022-08-22T10:54:20Z</time>
      </trkpt>
      <trkpt lat="42.915406" lon="-8.058878">
        <ele>460.440</ele>
        <time>2022-08-22T10:54:24Z</time>
      </trkpt>
      <trkpt lat="42.915407" lon="-8.058950">
        <ele>460.445</ele>
        <time>2022-08-22T10:54:30Z</time>
      </trkpt>
      <trkpt lat="42.915424" lon="-8.059021">
        <ele>460.440</ele>
        <time>2022-08-22T10:54:33Z</time>
      </trkpt>
      <trkpt lat="42.915427" lon="-8.059088">
        <ele>460.482</ele>
        <time>2022-08-22T10:54:36Z</time>
      </trkpt>
      <trkpt lat="42.915429" lon="-8.059160">
        <ele>460.443</ele>
        <time>2022-08-22T10:54:39Z</time>
      </trkpt>
      <trkpt lat="42.915422" lon="-8.059232">
        <ele>460.417</ele>
        <time>2022-08-22T10:54:44Z</time>
      </trkpt>
      <trkpt lat="42.915428" lon="-8.059300">
        <ele>460.409</ele>
        <time>2022-08-22T10:54:49Z</time>
      </trkpt>
      <trkpt lat="42.915430" lon="-8.059377">
        <ele>460.529</ele>
        <time>2022-08-22T10:54:54Z</time>
      </trkpt>
      <trkpt lat="42.915429" lon="-8.059448">
        <ele>460.729</ele>
        <time>2022-08-22T10:54:58Z</time>
      </trkpt>
      <trkpt lat="42.915423" lon="-8.059524">
        <ele>461.199</ele>
        <time>2022-08-22T10:55:01Z</time>
      </trkpt>
      <trkpt lat="42.915424" lon="-8.059600">
        <ele>461.392</ele>
        <time>2022-08-22T10:55:04Z</time>
      </trkpt>
      <trkpt lat="42.915425" lon="-8.059673">
        <ele>461.344</ele>
        <time>2022-08-22T10:55:07Z</time>
      </trkpt>
      <trkpt lat="42.915425" lon="-8.059745">
        <ele>461.396</ele>
        <time>2022-08-22T10:55:10Z</time>
      </trkpt>
      <trkpt lat="42.915433" lon="-8.059820">
        <ele>461.376</ele>
        <time>2022-08-22T10:55:13Z</time>
      </trkpt>
      <trkpt lat="42.915439" lon="-8.059885">
        <ele>461.371</ele>
        <time>2022-08-22T10:55:16Z</time>
      </trkpt>
      <trkpt lat="42.915455" lon="-8.059945">
        <ele>461.236</ele>
        <time>2022-08-22T10:55:20Z</time>
      </trkpt>
      <trkpt lat="42.915470" lon="-8.060012">
        <ele>461.169</ele>
        <time>2022-08-22T10:55:24Z</time>
      </trkpt>
      <trkpt lat="42.915498" lon="-8.060073">
        <ele>460.904</ele>
        <time>2022-08-22T10:55:27Z</time>
      </trkpt>
      <trkpt lat="42.915512" lon="-8.060133">
        <ele>460.724</ele>
        <time>2022-08-22T10:55:30Z</time>
      </trkpt>
      <trkpt lat="42.915528" lon="-8.060208">
        <ele>460.609</ele>
        <time>2022-08-22T10:55:34Z</time>
      </trkpt>
      <trkpt lat="42.915551" lon="-8.060277">
        <ele>460.547</ele>
        <time>2022-08-22T10:55:38Z</time>
      </trkpt>
      <trkpt lat="42.915566" lon="-8.060335">
        <ele>460.267</ele>
        <time>2022-08-22T10:55:41Z</time>
      </trkpt>
      <trkpt lat="42.915583" lon="-8.060392">
        <ele>459.947</ele>
        <time>2022-08-22T10:55:45Z</time>
      </trkpt>
      <trkpt lat="42.915595" lon="-8.060452">
        <ele>459.650</ele>
        <time>2022-08-22T10:55:49Z</time>
      </trkpt>
      <trkpt lat="42.915618" lon="-8.060511">
        <ele>459.382</ele>
        <time>2022-08-22T10:55:53Z</time>
      </trkpt>
      <trkpt lat="42.915626" lon="-8.060583">
        <ele>459.074</ele>
        <time>2022-08-22T10:55:57Z</time>
      </trkpt>
      <trkpt lat="42.915652" lon="-8.060653">
        <ele>458.654</ele>
        <time>2022-08-22T10:56:02Z</time>
      </trkpt>
      <trkpt lat="42.915673" lon="-8.060708">
        <ele>458.239</ele>
        <time>2022-08-22T10:56:05Z</time>
      </trkpt>
      <trkpt lat="42.915692" lon="-8.060769">
        <ele>457.794</ele>
        <time>2022-08-22T10:56:09Z</time>
      </trkpt>
      <trkpt lat="42.915718" lon="-8.060834">
        <ele>457.275</ele>
        <time>2022-08-22T10:56:14Z</time>
      </trkpt>
      <trkpt lat="42.915742" lon="-8.060892">
        <ele>456.828</ele>
        <time>2022-08-22T10:56:17Z</time>
      </trkpt>
      <trkpt lat="42.915767" lon="-8.060953">
        <ele>456.420</ele>
        <time>2022-08-22T10:56:20Z</time>
      </trkpt>
      <trkpt lat="42.915783" lon="-8.061023">
        <ele>456.009</ele>
        <time>2022-08-22T10:56:24Z</time>
      </trkpt>
      <trkpt lat="42.915807" lon="-8.061075">
        <ele>455.758</ele>
        <time>2022-08-22T10:56:28Z</time>
      </trkpt>
      <trkpt lat="42.915827" lon="-8.061139">
        <ele>455.458</ele>
        <time>2022-08-22T10:56:32Z</time>
      </trkpt>
      <trkpt lat="42.915855" lon="-8.061202">
        <ele>455.098</ele>
        <time>2022-08-22T10:56:36Z</time>
      </trkpt>
      <trkpt lat="42.915881" lon="-8.061255">
        <ele>454.591</ele>
        <time>2022-08-22T10:56:39Z</time>
      </trkpt>
      <trkpt lat="42.915901" lon="-8.061327">
        <ele>453.933</ele>
        <time>2022-08-22T10:56:43Z</time>
      </trkpt>
      <trkpt lat="42.915922" lon="-8.061382">
        <ele>453.425</ele>
        <time>2022-08-22T10:56:46Z</time>
      </trkpt>
      <trkpt lat="42.915949" lon="-8.061435">
        <ele>452.855</ele>
        <time>2022-08-22T10:56:50Z</time>
      </trkpt>
      <trkpt lat="42.915975" lon="-8.061489">
        <ele>452.390</ele>
        <time>2022-08-22T10:56:54Z</time>
      </trkpt>
      <trkpt lat="42.916002" lon="-8.061543">
        <ele>452.075</ele>
        <time>2022-08-22T10:56:58Z</time>
      </trkpt>
      <trkpt lat="42.916021" lon="-8.061602">
        <ele>451.914</ele>
        <time>2022-08-22T10:57:02Z</time>
      </trkpt>
      <trkpt lat="42.916040" lon="-8.061666">
        <ele>451.754</ele>
        <time>2022-08-22T10:57:06Z</time>
      </trkpt>
      <trkpt lat="42.916059" lon="-8.061725">
        <ele>451.409</ele>
        <time>2022-08-22T10:57:11Z</time>
      </trkpt>
      <trkpt lat="42.916089" lon="-8.061786">
        <ele>451.309</ele>
        <time>2022-08-22T10:57:14Z</time>
      </trkpt>
      <trkpt lat="42.916118" lon="-8.061844">
        <ele>451.122</ele>
        <time>2022-08-22T10:57:17Z</time>
      </trkpt>
      <trkpt lat="42.916131" lon="-8.061925">
        <ele>450.922</ele>
        <time>2022-08-22T10:57:22Z</time>
      </trkpt>
      <trkpt lat="42.916143" lon="-8.062010">
        <ele>450.742</ele>
        <time>2022-08-22T10:57:26Z</time>
      </trkpt>
      <trkpt lat="42.916150" lon="-8.062080">
        <ele>450.365</ele>
        <time>2022-08-22T10:57:29Z</time>
      </trkpt>
      <trkpt lat="42.916177" lon="-8.062141">
        <ele>449.917</ele>
        <time>2022-08-22T10:57:33Z</time>
      </trkpt>
      <trkpt lat="42.916200" lon="-8.062198">
        <ele>449.579</ele>
        <time>2022-08-22T10:57:37Z</time>
      </trkpt>
      <trkpt lat="42.916223" lon="-8.062272">
        <ele>448.969</ele>
        <time>2022-08-22T10:57:42Z</time>
      </trkpt>
      <trkpt lat="42.916247" lon="-8.062333">
        <ele>448.654</ele>
        <time>2022-08-22T10:57:45Z</time>
      </trkpt>
      <trkpt lat="42.916250" lon="-8.062398">
        <ele>448.059</ele>
        <time>2022-08-22T10:57:48Z</time>
      </trkpt>
      <trkpt lat="42.916256" lon="-8.062461">
        <ele>447.582</ele>
        <time>2022-08-22T10:57:51Z</time>
      </trkpt>
      <trkpt lat="42.916270" lon="-8.062542">
        <ele>447.143</ele>
        <time>2022-08-22T10:57:54Z</time>
      </trkpt>
      <trkpt lat="42.916278" lon="-8.062605">
        <ele>446.617</ele>
        <time>2022-08-22T10:57:59Z</time>
      </trkpt>
      <trkpt lat="42.916290" lon="-8.062679">
        <ele>446.109</ele>
        <time>2022-08-22T10:58:03Z</time>
      </trkpt>
      <trkpt lat="42.916294" lon="-8.062749">
        <ele>445.439</ele>
        <time>2022-08-22T10:58:09Z</time>
      </trkpt>
      <trkpt lat="42.916306" lon="-8.062808">
        <ele>444.749</ele>
        <time>2022-08-22T10:58:13Z</time>
      </trkpt>
      <trkpt lat="42.916319" lon="-8.062884">
        <ele>444.139</ele>
        <time>2022-08-22T10:58:18Z</time>
      </trkpt>
      <trkpt lat="42.916341" lon="-8.062956">
        <ele>443.692</ele>
        <time>2022-08-22T10:58:23Z</time>
      </trkpt>
      <trkpt lat="42.916358" lon="-8.063027">
        <ele>443.164</ele>
        <time>2022-08-22T10:58:27Z</time>
      </trkpt>
      <trkpt lat="42.916369" lon="-8.063098">
        <ele>442.496</ele>
        <time>2022-08-22T10:58:32Z</time>
      </trkpt>
      <trkpt lat="42.916399" lon="-8.063155">
        <ele>441.596</ele>
        <time>2022-08-22T10:58:36Z</time>
      </trkpt>
      <trkpt lat="42.916423" lon="-8.063209">
        <ele>441.291</ele>
        <time>2022-08-22T10:58:40Z</time>
      </trkpt>
      <trkpt lat="42.916445" lon="-8.063278">
        <ele>440.676</ele>
        <time>2022-08-22T10:58:45Z</time>
      </trkpt>
      <trkpt lat="42.916463" lon="-8.063340">
        <ele>440.067</ele>
        <time>2022-08-22T10:58:50Z</time>
      </trkpt>
      <trkpt lat="42.916488" lon="-8.063400">
        <ele>439.381</ele>
        <time>2022-08-22T10:58:54Z</time>
      </trkpt>
      <trkpt lat="42.916510" lon="-8.063455">
        <ele>438.619</ele>
        <time>2022-08-22T10:58:57Z</time>
      </trkpt>
      <trkpt lat="42.916530" lon="-8.063517">
        <ele>437.909</ele>
        <time>2022-08-22T10:59:01Z</time>
      </trkpt>
      <trkpt lat="42.916558" lon="-8.063590">
        <ele>437.227</ele>
        <time>2022-08-22T10:59:05Z</time>
      </trkpt>
      <trkpt lat="42.916581" lon="-8.063656">
        <ele>436.417</ele>
        <time>2022-08-22T10:59:10Z</time>
      </trkpt>
      <trkpt lat="42.916598" lon="-8.063733">
        <ele>435.487</ele>
        <time>2022-08-22T10:59:15Z</time>
      </trkpt>
      <trkpt lat="42.916628" lon="-8.063798">
        <ele>433.640</ele>
        <time>2022-08-22T10:59:19Z</time>
      </trkpt>
      <trkpt lat="42.916671" lon="-8.063848">
        <ele>432.552</ele>
        <time>2022-08-22T10:59:22Z</time>
      </trkpt>
      <trkpt lat="42.916717" lon="-8.063887">
        <ele>431.654</ele>
        <time>2022-08-22T10:59:26Z</time>
      </trkpt>
      <trkpt lat="42.916767" lon="-8.063911">
        <ele>431.084</ele>
        <time>2022-08-22T10:59:30Z</time>
      </trkpt>
      <trkpt lat="42.916818" lon="-8.063932">
        <ele>430.119</ele>
        <time>2022-08-22T10:59:35Z</time>
      </trkpt>
      <trkpt lat="42.916873" lon="-8.063956">
        <ele>429.234</ele>
        <time>2022-08-22T10:59:41Z</time>
      </trkpt>
      <trkpt lat="42.916903" lon="-8.064013">
        <ele>428.897</ele>
        <time>2022-08-22T10:59:45Z</time>
      </trkpt>
      <trkpt lat="42.916929" lon="-8.064070">
        <ele>427.823</ele>
        <time>2022-08-22T10:59:49Z</time>
      </trkpt>
      <trkpt lat="42.916950" lon="-8.064137">
        <ele>426.925</ele>
        <time>2022-08-22T10:59:53Z</time>
      </trkpt>
      <trkpt lat="42.916965" lon="-8.064218">
        <ele>425.609</ele>
        <time>2022-08-22T10:59:58Z</time>
      </trkpt>
      <trkpt lat="42.916965" lon="-8.064294">
        <ele>424.980</ele>
        <time>2022-08-22T11:00:02Z</time>
      </trkpt>
      <trkpt lat="42.916970" lon="-8.064367">
        <ele>424.160</ele>
        <time>2022-08-22T11:00:06Z</time>
      </trkpt>
      <trkpt lat="42.916977" lon="-8.064440">
        <ele>423.560</ele>
        <time>2022-08-22T11:00:11Z</time>
      </trkpt>
      <trkpt lat="42.916987" lon="-8.064502">
        <ele>423.083</ele>
        <time>2022-08-22T11:00:15Z</time>
      </trkpt>
      <trkpt lat="42.916991" lon="-8.064573">
        <ele>422.635</ele>
        <time>2022-08-22T11:00:19Z</time>
      </trkpt>
      <trkpt lat="42.916975" lon="-8.064655">
        <ele>421.917</ele>
        <time>2022-08-22T11:00:24Z</time>
      </trkpt>
      <trkpt lat="42.916954" lon="-8.064725">
        <ele>421.077</ele>
        <time>2022-08-22T11:00:28Z</time>
      </trkpt>
      <trkpt lat="42.916925" lon="-8.064790">
        <ele>420.532</ele>
        <time>2022-08-22T11:00:32Z</time>
      </trkpt>
      <trkpt lat="42.916906" lon="-8.064860">
        <ele>420.117</ele>
        <time>2022-08-22T11:00:36Z</time>
      </trkpt>
      <trkpt lat="42.916893" lon="-8.064920">
        <ele>419.732</ele>
        <time>2022-08-22T11:00:40Z</time>
      </trkpt>
      <trkpt lat="42.916870" lon="-8.064974">
        <ele>419.692</ele>
        <time>2022-08-22T11:00:43Z</time>
      </trkpt>
      <trkpt lat="42.916853" lon="-8.065031">
        <ele>419.411</ele>
        <time>2022-08-22T11:00:46Z</time>
      </trkpt>
      <trkpt lat="42.916821" lon="-8.065088">
        <ele>419.309</ele>
        <time>2022-08-22T11:00:50Z</time>
      </trkpt>
      <trkpt lat="42.916794" lon="-8.065141">
        <ele>419.234</ele>
        <time>2022-08-22T11:00:53Z</time>
      </trkpt>
      <trkpt lat="42.916763" lon="-8.065200">
        <ele>419.244</ele>
        <time>2022-08-22T11:00:56Z</time>
      </trkpt>
      <trkpt lat="42.916730" lon="-8.065267">
        <ele>419.254</ele>
        <time>2022-08-22T11:01:01Z</time>
      </trkpt>
      <trkpt lat="42.916708" lon="-8.065341">
        <ele>419.267</ele>
        <time>2022-08-22T11:01:06Z</time>
      </trkpt>
      <trkpt lat="42.916691" lon="-8.065405">
        <ele>419.329</ele>
        <time>2022-08-22T11:01:09Z</time>
      </trkpt>
      <trkpt lat="42.916664" lon="-8.065472">
        <ele>419.661</ele>
        <time>2022-08-22T11:01:12Z</time>
      </trkpt>
      <trkpt lat="42.916644" lon="-8.065528">
        <ele>419.881</ele>
        <time>2022-08-22T11:01:15Z</time>
      </trkpt>
      <trkpt lat="42.916631" lon="-8.065587">
        <ele>419.966</ele>
        <time>2022-08-22T11:01:18Z</time>
      </trkpt>
      <trkpt lat="42.916613" lon="-8.065648">
        <ele>420.211</ele>
        <time>2022-08-22T11:01:21Z</time>
      </trkpt>
      <trkpt lat="42.916603" lon="-8.065727">
        <ele>420.513</ele>
        <time>2022-08-22T11:01:25Z</time>
      </trkpt>
      <trkpt lat="42.916583" lon="-8.065798">
        <ele>420.743</ele>
        <time>2022-08-22T11:01:29Z</time>
      </trkpt>
      <trkpt lat="42.916565" lon="-8.065872">
        <ele>420.907</ele>
        <time>2022-08-22T11:01:33Z</time>
      </trkpt>
      <trkpt lat="42.916547" lon="-8.065949">
        <ele>421.409</ele>
        <time>2022-08-22T11:01:37Z</time>
      </trkpt>
      <trkpt lat="42.916538" lon="-8.066015">
        <ele>421.532</ele>
        <time>2022-08-22T11:01:41Z</time>
      </trkpt>
      <trkpt lat="42.916523" lon="-8.066077">
        <ele>421.662</ele>
        <time>2022-08-22T11:01:45Z</time>
      </trkpt>
      <trkpt lat="42.916492" lon="-8.066146">
        <ele>421.752</ele>
        <time>2022-08-22T11:01:49Z</time>
      </trkpt>
      <trkpt lat="42.916473" lon="-8.066208">
        <ele>421.795</ele>
        <time>2022-08-22T11:01:52Z</time>
      </trkpt>
      <trkpt lat="42.916459" lon="-8.066268">
        <ele>421.757</ele>
        <time>2022-08-22T11:01:55Z</time>
      </trkpt>
      <trkpt lat="42.916441" lon="-8.066335">
        <ele>421.899</ele>
        <time>2022-08-22T11:01:59Z</time>
      </trkpt>
      <trkpt lat="42.916425" lon="-8.066409">
        <ele>421.999</ele>
        <time>2022-08-22T11:02:03Z</time>
      </trkpt>
      <trkpt lat="42.916409" lon="-8.066469">
        <ele>421.934</ele>
        <time>2022-08-22T11:02:07Z</time>
      </trkpt>
      <trkpt lat="42.916403" lon="-8.066544">
        <ele>422.029</ele>
        <time>2022-08-22T11:02:11Z</time>
      </trkpt>
      <trkpt lat="42.916398" lon="-8.066615">
        <ele>422.233</ele>
        <time>2022-08-22T11:02:14Z</time>
      </trkpt>
      <trkpt lat="42.916388" lon="-8.066675">
        <ele>422.423</ele>
        <time>2022-08-22T11:02:18Z</time>
      </trkpt>
      <trkpt lat="42.916382" lon="-8.066742">
        <ele>422.515</ele>
        <time>2022-08-22T11:02:21Z</time>
      </trkpt>
      <trkpt lat="42.916371" lon="-8.066813">
        <ele>422.609</ele>
        <time>2022-08-22T11:02:24Z</time>
      </trkpt>
      <trkpt lat="42.916355" lon="-8.066887">
        <ele>422.664</ele>
        <time>2022-08-22T11:02:28Z</time>
      </trkpt>
      <trkpt lat="42.916341" lon="-8.066957">
        <ele>422.644</ele>
        <time>2022-08-22T11:02:32Z</time>
      </trkpt>
      <trkpt lat="42.916323" lon="-8.067029">
        <ele>422.614</ele>
        <time>2022-08-22T11:02:36Z</time>
      </trkpt>
      <trkpt lat="42.916297" lon="-8.067083">
        <ele>422.547</ele>
        <time>2022-08-22T11:02:40Z</time>
      </trkpt>
      <trkpt lat="42.916267" lon="-8.067146">
        <ele>422.299</ele>
        <time>2022-08-22T11:02:45Z</time>
      </trkpt>
      <trkpt lat="42.916246" lon="-8.067212">
        <ele>422.051</ele>
        <time>2022-08-22T11:02:49Z</time>
      </trkpt>
      <trkpt lat="42.916224" lon="-8.067267">
        <ele>422.091</ele>
        <time>2022-08-22T11:02:52Z</time>
      </trkpt>
      <trkpt lat="42.916217" lon="-8.067331">
        <ele>422.096</ele>
        <time>2022-08-22T11:02:55Z</time>
      </trkpt>
      <trkpt lat="42.916210" lon="-8.067410">
        <ele>422.111</ele>
        <time>2022-08-22T11:02:59Z</time>
      </trkpt>
      <trkpt lat="42.916196" lon="-8.067478">
        <ele>422.189</ele>
        <time>2022-08-22T11:03:03Z</time>
      </trkpt>
      <trkpt lat="42.916181" lon="-8.067559">
        <ele>422.106</ele>
        <time>2022-08-22T11:03:07Z</time>
      </trkpt>
      <trkpt lat="42.916178" lon="-8.067637">
        <ele>422.426</ele>
        <time>2022-08-22T11:03:11Z</time>
      </trkpt>
      <trkpt lat="42.916176" lon="-8.067703">
        <ele>422.509</ele>
        <time>2022-08-22T11:03:15Z</time>
      </trkpt>
      <trkpt lat="42.916164" lon="-8.067781">
        <ele>422.769</ele>
        <time>2022-08-22T11:03:19Z</time>
      </trkpt>
      <trkpt lat="42.916159" lon="-8.067854">
        <ele>423.069</ele>
        <time>2022-08-22T11:03:23Z</time>
      </trkpt>
      <trkpt lat="42.916151" lon="-8.067925">
        <ele>423.219</ele>
        <time>2022-08-22T11:03:27Z</time>
      </trkpt>
      <trkpt lat="42.916141" lon="-8.068000">
        <ele>423.282</ele>
        <time>2022-08-22T11:03:31Z</time>
      </trkpt>
      <trkpt lat="42.916133" lon="-8.068062">
        <ele>423.314</ele>
        <time>2022-08-22T11:03:34Z</time>
      </trkpt>
      <trkpt lat="42.916120" lon="-8.068122">
        <ele>423.496</ele>
        <time>2022-08-22T11:03:37Z</time>
      </trkpt>
      <trkpt lat="42.916111" lon="-8.068199">
        <ele>423.536</ele>
        <time>2022-08-22T11:03:41Z</time>
      </trkpt>
      <trkpt lat="42.916104" lon="-8.068270">
        <ele>423.641</ele>
        <time>2022-08-22T11:03:45Z</time>
      </trkpt>
      <trkpt lat="42.916097" lon="-8.068336">
        <ele>423.766</ele>
        <time>2022-08-22T11:03:49Z</time>
      </trkpt>
      <trkpt lat="42.916090" lon="-8.068418">
        <ele>423.848</ele>
        <time>2022-08-22T11:03:54Z</time>
      </trkpt>
      <trkpt lat="42.916079" lon="-8.068487">
        <ele>424.161</ele>
        <time>2022-08-22T11:03:58Z</time>
      </trkpt>
      <trkpt lat="42.916069" lon="-8.068560">
        <ele>424.217</ele>
        <time>2022-08-22T11:04:02Z</time>
      </trkpt>
      <trkpt lat="42.916055" lon="-8.068622">
        <ele>424.409</ele>
        <time>2022-08-22T11:04:06Z</time>
      </trkpt>
      <trkpt lat="42.916039" lon="-8.068688">
        <ele>424.665</ele>
        <time>2022-08-22T11:04:10Z</time>
      </trkpt>
      <trkpt lat="42.916029" lon="-8.068759">
        <ele>424.825</ele>
        <time>2022-08-22T11:04:14Z</time>
      </trkpt>
      <trkpt lat="42.916010" lon="-8.068832">
        <ele>424.985</ele>
        <time>2022-08-22T11:04:18Z</time>
      </trkpt>
      <trkpt lat="42.915993" lon="-8.068901">
        <ele>425.068</ele>
        <time>2022-08-22T11:04:22Z</time>
      </trkpt>
      <trkpt lat="42.915977" lon="-8.068966">
        <ele>425.080</ele>
        <time>2022-08-22T11:04:26Z</time>
      </trkpt>
      <trkpt lat="42.915956" lon="-8.069031">
        <ele>425.012</ele>
        <time>2022-08-22T11:04:30Z</time>
      </trkpt>
      <trkpt lat="42.915941" lon="-8.069102">
        <ele>425.052</ele>
        <time>2022-08-22T11:04:34Z</time>
      </trkpt>
      <trkpt lat="42.915916" lon="-8.069157">
        <ele>425.017</ele>
        <time>2022-08-22T11:04:37Z</time>
      </trkpt>
      <trkpt lat="42.915892" lon="-8.069213">
        <ele>425.032</ele>
        <time>2022-08-22T11:04:41Z</time>
      </trkpt>
      <trkpt lat="42.915868" lon="-8.069281">
        <ele>425.049</ele>
        <time>2022-08-22T11:04:45Z</time>
      </trkpt>
      <trkpt lat="42.915848" lon="-8.069349">
        <ele>425.102</ele>
        <time>2022-08-22T11:04:51Z</time>
      </trkpt>
      <trkpt lat="42.915833" lon="-8.069409">
        <ele>425.322</ele>
        <time>2022-08-22T11:04:54Z</time>
      </trkpt>
      <trkpt lat="42.915815" lon="-8.069470">
        <ele>425.609</ele>
        <time>2022-08-22T11:04:58Z</time>
      </trkpt>
      <trkpt lat="42.915800" lon="-8.069532">
        <ele>425.935</ele>
        <time>2022-08-22T11:05:02Z</time>
      </trkpt>
      <trkpt lat="42.915790" lon="-8.069597">
        <ele>426.045</ele>
        <time>2022-08-22T11:05:06Z</time>
      </trkpt>
      <trkpt lat="42.915766" lon="-8.069662">
        <ele>426.015</ele>
        <time>2022-08-22T11:05:10Z</time>
      </trkpt>
      <trkpt lat="42.915751" lon="-8.069731">
        <ele>426.148</ele>
        <time>2022-08-22T11:05:14Z</time>
      </trkpt>
      <trkpt lat="42.915751" lon="-8.069794">
        <ele>426.240</ele>
        <time>2022-08-22T11:05:18Z</time>
      </trkpt>
      <trkpt lat="42.915748" lon="-8.069865">
        <ele>426.282</ele>
        <time>2022-08-22T11:05:22Z</time>
      </trkpt>
      <trkpt lat="42.915738" lon="-8.069926">
        <ele>426.382</ele>
        <time>2022-08-22T11:05:26Z</time>
      </trkpt>
      <trkpt lat="42.915723" lon="-8.070004">
        <ele>426.617</ele>
        <time>2022-08-22T11:05:30Z</time>
      </trkpt>
      <trkpt lat="42.915712" lon="-8.070078">
        <ele>426.922</ele>
        <time>2022-08-22T11:05:35Z</time>
      </trkpt>
      <trkpt lat="42.915709" lon="-8.070140">
        <ele>427.059</ele>
        <time>2022-08-22T11:05:38Z</time>
      </trkpt>
      <trkpt lat="42.915703" lon="-8.070219">
        <ele>427.303</ele>
        <time>2022-08-22T11:05:42Z</time>
      </trkpt>
      <trkpt lat="42.915707" lon="-8.070293">
        <ele>427.723</ele>
        <time>2022-08-22T11:05:47Z</time>
      </trkpt>
      <trkpt lat="42.915724" lon="-8.070351">
        <ele>427.709</ele>
        <time>2022-08-22T11:05:51Z</time>
      </trkpt>
      <trkpt lat="42.915740" lon="-8.070426">
        <ele>427.856</ele>
        <time>2022-08-22T11:05:55Z</time>
      </trkpt>
      <trkpt lat="42.915738" lon="-8.070498">
        <ele>427.816</ele>
        <time>2022-08-22T11:05:59Z</time>
      </trkpt>
      <trkpt lat="42.915750" lon="-8.070576">
        <ele>428.026</ele>
        <time>2022-08-22T11:06:03Z</time>
      </trkpt>
      <trkpt lat="42.915765" lon="-8.070652">
        <ele>428.039</ele>
        <time>2022-08-22T11:06:07Z</time>
      </trkpt>
      <trkpt lat="42.915770" lon="-8.070728">
        <ele>428.061</ele>
        <time>2022-08-22T11:06:11Z</time>
      </trkpt>
      <trkpt lat="42.915769" lon="-8.070806">
        <ele>428.133</ele>
        <time>2022-08-22T11:06:16Z</time>
      </trkpt>
      <trkpt lat="42.915776" lon="-8.070873">
        <ele>428.173</ele>
        <time>2022-08-22T11:06:20Z</time>
      </trkpt>
      <trkpt lat="42.915781" lon="-8.070950">
        <ele>428.288</ele>
        <time>2022-08-22T11:06:24Z</time>
      </trkpt>
      <trkpt lat="42.915782" lon="-8.071014">
        <ele>428.373</ele>
        <time>2022-08-22T11:06:28Z</time>
      </trkpt>
      <trkpt lat="42.915776" lon="-8.071082">
        <ele>428.476</ele>
        <time>2022-08-22T11:06:32Z</time>
      </trkpt>
      <trkpt lat="42.915769" lon="-8.071151">
        <ele>428.590</ele>
        <time>2022-08-22T11:06:36Z</time>
      </trkpt>
      <trkpt lat="42.915759" lon="-8.071218">
        <ele>428.519</ele>
        <time>2022-08-22T11:06:40Z</time>
      </trkpt>
      <trkpt lat="42.915744" lon="-8.071281">
        <ele>428.509</ele>
        <time>2022-08-22T11:06:44Z</time>
      </trkpt>
      <trkpt lat="42.915739" lon="-8.071360">
        <ele>428.558</ele>
        <time>2022-08-22T11:06:48Z</time>
      </trkpt>
      <trkpt lat="42.915743" lon="-8.071427">
        <ele>428.438</ele>
        <time>2022-08-22T11:06:52Z</time>
      </trkpt>
      <trkpt lat="42.915746" lon="-8.071505">
        <ele>428.228</ele>
        <time>2022-08-22T11:06:56Z</time>
      </trkpt>
      <trkpt lat="42.915747" lon="-8.071571">
        <ele>428.091</ele>
        <time>2022-08-22T11:07:00Z</time>
      </trkpt>
      <trkpt lat="42.915752" lon="-8.071644">
        <ele>427.813</ele>
        <time>2022-08-22T11:07:04Z</time>
      </trkpt>
      <trkpt lat="42.915767" lon="-8.071713">
        <ele>427.625</ele>
        <time>2022-08-22T11:07:08Z</time>
      </trkpt>
      <trkpt lat="42.915786" lon="-8.071777">
        <ele>427.435</ele>
        <time>2022-08-22T11:07:12Z</time>
      </trkpt>
      <trkpt lat="42.915809" lon="-8.071853">
        <ele>427.190</ele>
        <time>2022-08-22T11:07:17Z</time>
      </trkpt>
      <trkpt lat="42.915838" lon="-8.071915">
        <ele>426.685</ele>
        <time>2022-08-22T11:07:21Z</time>
      </trkpt>
      <trkpt lat="42.915866" lon="-8.071987">
        <ele>426.477</ele>
        <time>2022-08-22T11:07:25Z</time>
      </trkpt>
      <trkpt lat="42.915887" lon="-8.072060">
        <ele>426.261</ele>
        <time>2022-08-22T11:07:29Z</time>
      </trkpt>
      <trkpt lat="42.915914" lon="-8.072125">
        <ele>426.027</ele>
        <time>2022-08-22T11:07:33Z</time>
      </trkpt>
      <trkpt lat="42.915936" lon="-8.072189">
        <ele>425.809</ele>
        <time>2022-08-22T11:07:37Z</time>
      </trkpt>
      <trkpt lat="42.915936" lon="-8.072259">
        <ele>425.668</ele>
        <time>2022-08-22T11:07:41Z</time>
      </trkpt>
      <trkpt lat="42.915924" lon="-8.072331">
        <ele>425.598</ele>
        <time>2022-08-22T11:07:45Z</time>
      </trkpt>
      <trkpt lat="42.915910" lon="-8.072401">
        <ele>425.488</ele>
        <time>2022-08-22T11:07:50Z</time>
      </trkpt>
      <trkpt lat="42.915888" lon="-8.072458">
        <ele>425.291</ele>
        <time>2022-08-22T11:07:54Z</time>
      </trkpt>
      <trkpt lat="42.915867" lon="-8.072531">
        <ele>424.813</ele>
        <time>2022-08-22T11:07:58Z</time>
      </trkpt>
      <trkpt lat="42.915837" lon="-8.072596">
        <ele>424.465</ele>
        <time>2022-08-22T11:08:02Z</time>
      </trkpt>
      <trkpt lat="42.915808" lon="-8.072662">
        <ele>424.345</ele>
        <time>2022-08-22T11:08:06Z</time>
      </trkpt>
      <trkpt lat="42.915776" lon="-8.072728">
        <ele>424.290</ele>
        <time>2022-08-22T11:08:10Z</time>
      </trkpt>
      <trkpt lat="42.915751" lon="-8.072791">
        <ele>423.975</ele>
        <time>2022-08-22T11:08:14Z</time>
      </trkpt>
      <trkpt lat="42.915727" lon="-8.072845">
        <ele>423.782</ele>
        <time>2022-08-22T11:08:18Z</time>
      </trkpt>
      <trkpt lat="42.915696" lon="-8.072898">
        <ele>423.643</ele>
        <time>2022-08-22T11:08:22Z</time>
      </trkpt>
      <trkpt lat="42.915658" lon="-8.072951">
        <ele>423.417</ele>
        <time>2022-08-22T11:08:26Z</time>
      </trkpt>
      <trkpt lat="42.915626" lon="-8.073011">
        <ele>423.209</ele>
        <time>2022-08-22T11:08:30Z</time>
      </trkpt>
      <trkpt lat="42.915601" lon="-8.073068">
        <ele>423.019</ele>
        <time>2022-08-22T11:08:34Z</time>
      </trkpt>
      <trkpt lat="42.915581" lon="-8.073125">
        <ele>422.779</ele>
        <time>2022-08-22T11:08:38Z</time>
      </trkpt>
      <trkpt lat="42.915564" lon="-8.073187">
        <ele>422.439</ele>
        <time>2022-08-22T11:08:42Z</time>
      </trkpt>
      <trkpt lat="42.915551" lon="-8.073250">
        <ele>422.242</ele>
        <time>2022-08-22T11:08:46Z</time>
      </trkpt>
      <trkpt lat="42.915532" lon="-8.073306">
        <ele>422.114</ele>
        <time>2022-08-22T11:08:50Z</time>
      </trkpt>
      <trkpt lat="42.915511" lon="-8.073376">
        <ele>422.176</ele>
        <time>2022-08-22T11:08:55Z</time>
      </trkpt>
      <trkpt lat="42.915494" lon="-8.073450">
        <ele>422.066</ele>
        <time>2022-08-22T11:09:00Z</time>
      </trkpt>
      <trkpt lat="42.915502" lon="-8.073510">
        <ele>421.831</ele>
        <time>2022-08-22T11:09:05Z</time>
      </trkpt>
      <trkpt lat="42.915518" lon="-8.073579">
        <ele>421.586</ele>
        <time>2022-08-22T11:09:09Z</time>
      </trkpt>
      <trkpt lat="42.915546" lon="-8.073646">
        <ele>421.166</ele>
        <time>2022-08-22T11:09:13Z</time>
      </trkpt>
      <trkpt lat="42.915574" lon="-8.073707">
        <ele>420.629</ele>
        <time>2022-08-22T11:09:17Z</time>
      </trkpt>
      <trkpt lat="42.915599" lon="-8.073761">
        <ele>420.121</ele>
        <time>2022-08-22T11:09:20Z</time>
      </trkpt>
      <trkpt lat="42.915620" lon="-8.073832">
        <ele>419.609</ele>
        <time>2022-08-22T11:09:24Z</time>
      </trkpt>
      <trkpt lat="42.915661" lon="-8.073878">
        <ele>419.237</ele>
        <time>2022-08-22T11:09:30Z</time>
      </trkpt>
      <trkpt lat="42.915698" lon="-8.073922">
        <ele>418.857</ele>
        <time>2022-08-22T11:09:33Z</time>
      </trkpt>
      <trkpt lat="42.915736" lon="-8.073959">
        <ele>418.357</ele>
        <time>2022-08-22T11:09:37Z</time>
      </trkpt>
      <trkpt lat="42.915775" lon="-8.073991">
        <ele>418.010</ele>
        <time>2022-08-22T11:09:41Z</time>
      </trkpt>
      <trkpt lat="42.915810" lon="-8.074042">
        <ele>417.872</ele>
        <time>2022-08-22T11:09:45Z</time>
      </trkpt>
      <trkpt lat="42.915846" lon="-8.074097">
        <ele>417.644</ele>
        <time>2022-08-22T11:09:49Z</time>
      </trkpt>
      <trkpt lat="42.915872" lon="-8.074160">
        <ele>417.374</ele>
        <time>2022-08-22T11:09:53Z</time>
      </trkpt>
      <trkpt lat="42.915899" lon="-8.074227">
        <ele>416.999</ele>
        <time>2022-08-22T11:09:57Z</time>
      </trkpt>
      <trkpt lat="42.915919" lon="-8.074307">
        <ele>416.464</ele>
        <time>2022-08-22T11:10:01Z</time>
      </trkpt>
      <trkpt lat="42.915924" lon="-8.074369">
        <ele>416.137</ele>
        <time>2022-08-22T11:10:04Z</time>
      </trkpt>
      <trkpt lat="42.915935" lon="-8.074438">
        <ele>415.949</ele>
        <time>2022-08-22T11:10:08Z</time>
      </trkpt>
      <trkpt lat="42.915930" lon="-8.074503">
        <ele>415.713</ele>
        <time>2022-08-22T11:10:11Z</time>
      </trkpt>
      <trkpt lat="42.915930" lon="-8.074577">
        <ele>415.409</ele>
        <time>2022-08-22T11:10:15Z</time>
      </trkpt>
      <trkpt lat="42.915937" lon="-8.074655">
        <ele>415.074</ele>
        <time>2022-08-22T11:10:19Z</time>
      </trkpt>
      <trkpt lat="42.915942" lon="-8.074734">
        <ele>414.354</ele>
        <time>2022-08-22T11:10:23Z</time>
      </trkpt>
      <trkpt lat="42.915952" lon="-8.074811">
        <ele>413.964</ele>
        <time>2022-08-22T11:10:27Z</time>
      </trkpt>
      <trkpt lat="42.915961" lon="-8.074888">
        <ele>413.657</ele>
        <time>2022-08-22T11:10:31Z</time>
      </trkpt>
      <trkpt lat="42.915969" lon="-8.074963">
        <ele>413.189</ele>
        <time>2022-08-22T11:10:35Z</time>
      </trkpt>
      <trkpt lat="42.915967" lon="-8.075038">
        <ele>412.641</ele>
        <time>2022-08-22T11:10:39Z</time>
      </trkpt>
      <trkpt lat="42.915964" lon="-8.075115">
        <ele>412.251</ele>
        <time>2022-08-22T11:10:43Z</time>
      </trkpt>
      <trkpt lat="42.915959" lon="-8.075193">
        <ele>411.956</ele>
        <time>2022-08-22T11:10:47Z</time>
      </trkpt>
      <trkpt lat="42.915955" lon="-8.075272">
        <ele>411.681</ele>
        <time>2022-08-22T11:10:51Z</time>
      </trkpt>
      <trkpt lat="42.915965" lon="-8.075346">
        <ele>411.419</ele>
        <time>2022-08-22T11:10:55Z</time>
      </trkpt>
      <trkpt lat="42.915967" lon="-8.075420">
        <ele>411.109</ele>
        <time>2022-08-22T11:10:59Z</time>
      </trkpt>
      <trkpt lat="42.915973" lon="-8.075494">
        <ele>410.819</ele>
        <time>2022-08-22T11:11:03Z</time>
      </trkpt>
      <trkpt lat="42.915962" lon="-8.075568">
        <ele>410.509</ele>
        <time>2022-08-22T11:11:07Z</time>
      </trkpt>
      <trkpt lat="42.915962" lon="-8.075641">
        <ele>410.352</ele>
        <time>2022-08-22T11:11:11Z</time>
      </trkpt>
      <trkpt lat="42.915977" lon="-8.075714">
        <ele>410.062</ele>
        <time>2022-08-22T11:11:15Z</time>
      </trkpt>
      <trkpt lat="42.915977" lon="-8.075789">
        <ele>409.732</ele>
        <time>2022-08-22T11:11:19Z</time>
      </trkpt>
      <trkpt lat="42.915982" lon="-8.075859">
        <ele>409.595</ele>
        <time>2022-08-22T11:11:23Z</time>
      </trkpt>
      <trkpt lat="42.915982" lon="-8.075932">
        <ele>409.357</ele>
        <time>2022-08-22T11:11:27Z</time>
      </trkpt>
      <trkpt lat="42.915991" lon="-8.076002">
        <ele>409.049</ele>
        <time>2022-08-22T11:11:33Z</time>
      </trkpt>
      <trkpt lat="42.916007" lon="-8.076064">
        <ele>408.739</ele>
        <time>2022-08-22T11:11:37Z</time>
      </trkpt>
      <trkpt lat="42.916012" lon="-8.076127">
        <ele>408.294</ele>
        <time>2022-08-22T11:11:41Z</time>
      </trkpt>
      <trkpt lat="42.916015" lon="-8.076200">
        <ele>407.769</ele>
        <time>2022-08-22T11:11:47Z</time>
      </trkpt>
      <trkpt lat="42.916037" lon="-8.076267">
        <ele>407.512</ele>
        <time>2022-08-22T11:11:51Z</time>
      </trkpt>
      <trkpt lat="42.916034" lon="-8.076340">
        <ele>407.132</ele>
        <time>2022-08-22T11:11:56Z</time>
      </trkpt>
      <trkpt lat="42.916053" lon="-8.076414">
        <ele>406.705</ele>
        <time>2022-08-22T11:12:00Z</time>
      </trkpt>
      <trkpt lat="42.916062" lon="-8.076483">
        <ele>405.909</ele>
        <time>2022-08-22T11:12:04Z</time>
      </trkpt>
      <trkpt lat="42.916073" lon="-8.076543">
        <ele>405.772</ele>
        <time>2022-08-22T11:12:08Z</time>
      </trkpt>
      <trkpt lat="42.916082" lon="-8.076608">
        <ele>405.432</ele>
        <time>2022-08-22T11:12:13Z</time>
      </trkpt>
      <trkpt lat="42.916084" lon="-8.076675">
        <ele>405.272</ele>
        <time>2022-08-22T11:12:16Z</time>
      </trkpt>
      <trkpt lat="42.916078" lon="-8.076749">
        <ele>404.995</ele>
        <time>2022-08-22T11:12:20Z</time>
      </trkpt>
      <trkpt lat="42.916073" lon="-8.076815">
        <ele>404.697</ele>
        <time>2022-08-22T11:12:23Z</time>
      </trkpt>
      <trkpt lat="42.916074" lon="-8.076881">
        <ele>404.459</ele>
        <time>2022-08-22T11:12:27Z</time>
      </trkpt>
      <trkpt lat="42.916069" lon="-8.076953">
        <ele>404.249</ele>
        <time>2022-08-22T11:12:31Z</time>
      </trkpt>
      <trkpt lat="42.916068" lon="-8.077020">
        <ele>404.134</ele>
        <time>2022-08-22T11:12:35Z</time>
      </trkpt>
      <trkpt lat="42.916069" lon="-8.077089">
        <ele>403.999</ele>
        <time>2022-08-22T11:12:39Z</time>
      </trkpt>
      <trkpt lat="42.916076" lon="-8.077155">
        <ele>403.741</ele>
        <time>2022-08-22T11:12:43Z</time>
      </trkpt>
      <trkpt lat="42.916077" lon="-8.077221">
        <ele>403.681</ele>
        <time>2022-08-22T11:12:46Z</time>
      </trkpt>
      <trkpt lat="42.916083" lon="-8.077292">
        <ele>403.509</ele>
        <time>2022-08-22T11:12:51Z</time>
      </trkpt>
      <trkpt lat="42.916084" lon="-8.077356">
        <ele>403.409</ele>
        <time>2022-08-22T11:12:55Z</time>
      </trkpt>
      <trkpt lat="42.916103" lon="-8.077414">
        <ele>403.235</ele>
        <time>2022-08-22T11:13:02Z</time>
      </trkpt>
      <trkpt lat="42.916097" lon="-8.077479">
        <ele>403.085</ele>
        <time>2022-08-22T11:13:07Z</time>
      </trkpt>
      <trkpt lat="42.916104" lon="-8.077544">
        <ele>402.755</ele>
        <time>2022-08-22T11:13:11Z</time>
      </trkpt>
      <trkpt lat="42.916093" lon="-8.077616">
        <ele>402.558</ele>
        <time>2022-08-22T11:13:15Z</time>
      </trkpt>
      <trkpt lat="42.916081" lon="-8.077685">
        <ele>402.470</ele>
        <time>2022-08-22T11:13:19Z</time>
      </trkpt>
      <trkpt lat="42.916071" lon="-8.077752">
        <ele>402.332</ele>
        <time>2022-08-22T11:13:23Z</time>
      </trkpt>
      <trkpt lat="42.916073" lon="-8.077816">
        <ele>402.242</ele>
        <time>2022-08-22T11:13:27Z</time>
      </trkpt>
      <trkpt lat="42.916061" lon="-8.077885">
        <ele>402.197</ele>
        <time>2022-08-22T11:13:32Z</time>
      </trkpt>
      <trkpt lat="42.916102" lon="-8.077923">
        <ele>401.992</ele>
        <time>2022-08-22T11:13:38Z</time>
      </trkpt>
      <trkpt lat="42.916145" lon="-8.077946">
        <ele>401.734</ele>
        <time>2022-08-22T11:13:42Z</time>
      </trkpt>
      <trkpt lat="42.916190" lon="-8.077960">
        <ele>401.755</ele>
        <time>2022-08-22T11:13:46Z</time>
      </trkpt>
      <trkpt lat="42.916237" lon="-8.077963">
        <ele>401.710</ele>
        <time>2022-08-22T11:13:51Z</time>
      </trkpt>
      <trkpt lat="42.916284" lon="-8.077972">
        <ele>401.709</ele>
        <time>2022-08-22T11:13:55Z</time>
      </trkpt>
      <trkpt lat="42.916329" lon="-8.077990">
        <ele>401.744</ele>
        <time>2022-08-22T11:13:59Z</time>
      </trkpt>
      <trkpt lat="42.916370" lon="-8.078031">
        <ele>401.744</ele>
        <time>2022-08-22T11:14:03Z</time>
      </trkpt>
      <trkpt lat="42.916392" lon="-8.078095">
        <ele>401.714</ele>
        <time>2022-08-22T11:14:07Z</time>
      </trkpt>
      <trkpt lat="42.916436" lon="-8.078154">
        <ele>401.717</ele>
        <time>2022-08-22T11:14:11Z</time>
      </trkpt>
      <trkpt lat="42.916465" lon="-8.078216">
        <ele>401.649</ele>
        <time>2022-08-22T11:14:14Z</time>
      </trkpt>
      <trkpt lat="42.916492" lon="-8.078283">
        <ele>401.491</ele>
        <time>2022-08-22T11:14:18Z</time>
      </trkpt>
      <trkpt lat="42.916512" lon="-8.078344">
        <ele>401.211</ele>
        <time>2022-08-22T11:14:22Z</time>
      </trkpt>
      <trkpt lat="42.916538" lon="-8.078409">
        <ele>400.966</ele>
        <time>2022-08-22T11:14:26Z</time>
      </trkpt>
      <trkpt lat="42.916554" lon="-8.078479">
        <ele>400.631</ele>
        <time>2022-08-22T11:14:30Z</time>
      </trkpt>
      <trkpt lat="42.916583" lon="-8.078532">
        <ele>400.391</ele>
        <time>2022-08-22T11:14:33Z</time>
      </trkpt>
      <trkpt lat="42.916615" lon="-8.078594">
        <ele>400.181</ele>
        <time>2022-08-22T11:14:37Z</time>
      </trkpt>
      <trkpt lat="42.916637" lon="-8.078660">
        <ele>399.719</ele>
        <time>2022-08-22T11:14:41Z</time>
      </trkpt>
      <trkpt lat="42.916657" lon="-8.078715">
        <ele>399.309</ele>
        <time>2022-08-22T11:14:44Z</time>
      </trkpt>
      <trkpt lat="42.916681" lon="-8.078770">
        <ele>398.980</ele>
        <time>2022-08-22T11:14:47Z</time>
      </trkpt>
      <trkpt lat="42.916709" lon="-8.078818">
        <ele>398.660</ele>
        <time>2022-08-22T11:14:50Z</time>
      </trkpt>
      <trkpt lat="42.916748" lon="-8.078869">
        <ele>398.420</ele>
        <time>2022-08-22T11:14:54Z</time>
      </trkpt>
      <trkpt lat="42.916789" lon="-8.078916">
        <ele>398.283</ele>
        <time>2022-08-22T11:14:58Z</time>
      </trkpt>
      <trkpt lat="42.916836" lon="-8.078952">
        <ele>397.965</ele>
        <time>2022-08-22T11:15:02Z</time>
      </trkpt>
      <trkpt lat="42.916883" lon="-8.078977">
        <ele>397.667</ele>
        <time>2022-08-22T11:15:06Z</time>
      </trkpt>
      <trkpt lat="42.916941" lon="-8.078993">
        <ele>397.327</ele>
        <time>2022-08-22T11:15:10Z</time>
      </trkpt>
      <trkpt lat="42.916997" lon="-8.079008">
        <ele>397.172</ele>
        <time>2022-08-22T11:15:14Z</time>
      </trkpt>
      <trkpt lat="42.917055" lon="-8.079014">
        <ele>396.857</ele>
        <time>2022-08-22T11:15:18Z</time>
      </trkpt>
      <trkpt lat="42.917111" lon="-8.079018">
        <ele>396.521</ele>
        <time>2022-08-22T11:15:22Z</time>
      </trkpt>
      <trkpt lat="42.917166" lon="-8.079023">
        <ele>396.241</ele>
        <time>2022-08-22T11:15:26Z</time>
      </trkpt>
      <trkpt lat="42.917216" lon="-8.079029">
        <ele>395.505</ele>
        <time>2022-08-22T11:15:30Z</time>
      </trkpt>
      <trkpt lat="42.917270" lon="-8.079029">
        <ele>394.709</ele>
        <time>2022-08-22T11:15:34Z</time>
      </trkpt>
      <trkpt lat="42.917321" lon="-8.079026">
        <ele>394.593</ele>
        <time>2022-08-22T11:15:38Z</time>
      </trkpt>
      <trkpt lat="42.917373" lon="-8.079017">
        <ele>394.223</ele>
        <time>2022-08-22T11:15:42Z</time>
      </trkpt>
      <trkpt lat="42.917420" lon="-8.079011">
        <ele>393.873</ele>
        <time>2022-08-22T11:15:46Z</time>
      </trkpt>
      <trkpt lat="42.917470" lon="-8.079016">
        <ele>393.276</ele>
        <time>2022-08-22T11:15:50Z</time>
      </trkpt>
      <trkpt lat="42.917516" lon="-8.079027">
        <ele>392.748</ele>
        <time>2022-08-22T11:15:54Z</time>
      </trkpt>
      <trkpt lat="42.917560" lon="-8.079043">
        <ele>392.120</ele>
        <time>2022-08-22T11:15:59Z</time>
      </trkpt>
      <trkpt lat="42.917604" lon="-8.079067">
        <ele>391.450</ele>
        <time>2022-08-22T11:16:06Z</time>
      </trkpt>
      <trkpt lat="42.917638" lon="-8.079109">
        <ele>390.475</ele>
        <time>2022-08-22T11:16:10Z</time>
      </trkpt>
      <trkpt lat="42.917683" lon="-8.079177">
        <ele>389.170</ele>
        <time>2022-08-22T11:16:14Z</time>
      </trkpt>
      <trkpt lat="42.917725" lon="-8.079211">
        <ele>388.026</ele>
        <time>2022-08-22T11:16:17Z</time>
      </trkpt>
      <trkpt lat="42.917772" lon="-8.079256">
        <ele>387.247</ele>
        <time>2022-08-22T11:16:21Z</time>
      </trkpt>
      <trkpt lat="42.917805" lon="-8.079299">
        <ele>386.611</ele>
        <time>2022-08-22T11:16:24Z</time>
      </trkpt>
      <trkpt lat="42.917835" lon="-8.079350">
        <ele>386.109</ele>
        <time>2022-08-22T11:16:28Z</time>
      </trkpt>
      <trkpt lat="42.917867" lon="-8.079413">
        <ele>385.733</ele>
        <time>2022-08-22T11:16:31Z</time>
      </trkpt>
      <trkpt lat="42.917893" lon="-8.079483">
        <ele>385.253</ele>
        <time>2022-08-22T11:16:35Z</time>
      </trkpt>
      <trkpt lat="42.917910" lon="-8.079558">
        <ele>384.643</ele>
        <time>2022-08-22T11:16:39Z</time>
      </trkpt>
      <trkpt lat="42.917928" lon="-8.079628">
        <ele>384.176</ele>
        <time>2022-08-22T11:16:43Z</time>
      </trkpt>
      <trkpt lat="42.917958" lon="-8.079696">
        <ele>383.048</ele>
        <time>2022-08-22T11:16:48Z</time>
      </trkpt>
      <trkpt lat="42.917972" lon="-8.079769">
        <ele>382.650</ele>
        <time>2022-08-22T11:16:52Z</time>
      </trkpt>
      <trkpt lat="42.917985" lon="-8.079844">
        <ele>381.730</ele>
        <time>2022-08-22T11:16:56Z</time>
      </trkpt>
      <trkpt lat="42.918000" lon="-8.079920">
        <ele>380.815</ele>
        <time>2022-08-22T11:17:00Z</time>
      </trkpt>
      <trkpt lat="42.918020" lon="-8.079985">
        <ele>380.390</ele>
        <time>2022-08-22T11:17:04Z</time>
      </trkpt>
      <trkpt lat="42.918039" lon="-8.080055">
        <ele>380.199</ele>
        <time>2022-08-22T11:17:08Z</time>
      </trkpt>
      <trkpt lat="42.918056" lon="-8.080120">
        <ele>379.807</ele>
        <time>2022-08-22T11:17:11Z</time>
      </trkpt>
      <trkpt lat="42.918064" lon="-8.080190">
        <ele>379.627</ele>
        <time>2022-08-22T11:17:15Z</time>
      </trkpt>
      <trkpt lat="42.918079" lon="-8.080249">
        <ele>379.309</ele>
        <time>2022-08-22T11:17:19Z</time>
      </trkpt>
      <trkpt lat="42.918095" lon="-8.080309">
        <ele>378.910</ele>
        <time>2022-08-22T11:17:22Z</time>
      </trkpt>
      <trkpt lat="42.918125" lon="-8.080375">
        <ele>378.490</ele>
        <time>2022-08-22T11:17:27Z</time>
      </trkpt>
      <trkpt lat="42.918143" lon="-8.080432">
        <ele>378.190</ele>
        <time>2022-08-22T11:17:31Z</time>
      </trkpt>
      <trkpt lat="42.918167" lon="-8.080493">
        <ele>377.823</ele>
        <time>2022-08-22T11:17:35Z</time>
      </trkpt>
      <trkpt lat="42.918178" lon="-8.080562">
        <ele>377.485</ele>
        <time>2022-08-22T11:17:40Z</time>
      </trkpt>
      <trkpt lat="42.918208" lon="-8.080627">
        <ele>377.117</ele>
        <time>2022-08-22T11:17:44Z</time>
      </trkpt>
      <trkpt lat="42.918227" lon="-8.080695">
        <ele>376.787</ele>
        <time>2022-08-22T11:17:48Z</time>
      </trkpt>
      <trkpt lat="42.918248" lon="-8.080751">
        <ele>376.262</ele>
        <time>2022-08-22T11:17:52Z</time>
      </trkpt>
      <trkpt lat="42.918269" lon="-8.080806">
        <ele>375.957</ele>
        <time>2022-08-22T11:17:57Z</time>
      </trkpt>
      <trkpt lat="42.918277" lon="-8.080882">
        <ele>375.615</ele>
        <time>2022-08-22T11:18:02Z</time>
      </trkpt>
      <trkpt lat="42.918277" lon="-8.080949">
        <ele>375.265</ele>
        <time>2022-08-22T11:18:05Z</time>
      </trkpt>
      <trkpt lat="42.918299" lon="-8.081023">
        <ele>374.711</ele>
        <time>2022-08-22T11:18:08Z</time>
      </trkpt>
      <trkpt lat="42.918308" lon="-8.081096">
        <ele>374.309</ele>
        <time>2022-08-22T11:18:12Z</time>
      </trkpt>
      <trkpt lat="42.918312" lon="-8.081169">
        <ele>373.852</ele>
        <time>2022-08-22T11:18:16Z</time>
      </trkpt>
      <trkpt lat="42.918316" lon="-8.081246">
        <ele>373.262</ele>
        <time>2022-08-22T11:18:21Z</time>
      </trkpt>
      <trkpt lat="42.918335" lon="-8.081323">
        <ele>372.592</ele>
        <time>2022-08-22T11:18:24Z</time>
      </trkpt>
      <trkpt lat="42.918335" lon="-8.081394">
        <ele>371.935</ele>
        <time>2022-08-22T11:18:28Z</time>
      </trkpt>
      <trkpt lat="42.918334" lon="-8.081469">
        <ele>371.367</ele>
        <time>2022-08-22T11:18:32Z</time>
      </trkpt>
      <trkpt lat="42.918336" lon="-8.081532">
        <ele>370.919</ele>
        <time>2022-08-22T11:18:35Z</time>
      </trkpt>
      <trkpt lat="42.918326" lon="-8.081598">
        <ele>370.789</ele>
        <time>2022-08-22T11:18:38Z</time>
      </trkpt>
      <trkpt lat="42.918369" lon="-8.081644">
        <ele>370.384</ele>
        <time>2022-08-22T11:18:46Z</time>
      </trkpt>
      <trkpt lat="42.918387" lon="-8.081709">
        <ele>369.969</ele>
        <time>2022-08-22T11:18:52Z</time>
      </trkpt>
      <trkpt lat="42.918376" lon="-8.081789">
        <ele>369.231</ele>
        <time>2022-08-22T11:18:56Z</time>
      </trkpt>
      <trkpt lat="42.918355" lon="-8.081857">
        <ele>368.561</ele>
        <time>2022-08-22T11:19:00Z</time>
      </trkpt>
      <trkpt lat="42.918336" lon="-8.081928">
        <ele>367.607</ele>
        <time>2022-08-22T11:19:05Z</time>
      </trkpt>
      <trkpt lat="42.918326" lon="-8.081998">
        <ele>366.709</ele>
        <time>2022-08-22T11:19:10Z</time>
      </trkpt>
      <trkpt lat="42.918318" lon="-8.082067">
        <ele>366.034</ele>
        <time>2022-08-22T11:19:14Z</time>
      </trkpt>
      <trkpt lat="42.918320" lon="-8.082132">
        <ele>365.764</ele>
        <time>2022-08-22T11:19:18Z</time>
      </trkpt>
      <trkpt lat="42.918319" lon="-8.082214">
        <ele>365.274</ele>
        <time>2022-08-22T11:19:24Z</time>
      </trkpt>
      <trkpt lat="42.918331" lon="-8.082275">
        <ele>364.837</ele>
        <time>2022-08-22T11:19:27Z</time>
      </trkpt>
      <trkpt lat="42.918341" lon="-8.082336">
        <ele>364.349</ele>
        <time>2022-08-22T11:19:30Z</time>
      </trkpt>
      <trkpt lat="42.918341" lon="-8.082397">
        <ele>363.911</ele>
        <time>2022-08-22T11:19:34Z</time>
      </trkpt>
      <trkpt lat="42.918358" lon="-8.082470">
        <ele>363.631</ele>
        <time>2022-08-22T11:19:38Z</time>
      </trkpt>
      <trkpt lat="42.918367" lon="-8.082530">
        <ele>363.366</ele>
        <time>2022-08-22T11:19:41Z</time>
      </trkpt>
      <trkpt lat="42.918365" lon="-8.082594">
        <ele>362.961</ele>
        <time>2022-08-22T11:19:47Z</time>
      </trkpt>
      <trkpt lat="42.918384" lon="-8.082660">
        <ele>362.583</ele>
        <time>2022-08-22T11:19:50Z</time>
      </trkpt>
      <trkpt lat="42.918395" lon="-8.082732">
        <ele>362.025</ele>
        <time>2022-08-22T11:19:54Z</time>
      </trkpt>
      <trkpt lat="42.918417" lon="-8.082806">
        <ele>361.617</ele>
        <time>2022-08-22T11:19:58Z</time>
      </trkpt>
      <trkpt lat="42.918424" lon="-8.082891">
        <ele>361.109</ele>
        <time>2022-08-22T11:20:02Z</time>
      </trkpt>
      <trkpt lat="42.918424" lon="-8.082959">
        <ele>360.999</ele>
        <time>2022-08-22T11:20:06Z</time>
      </trkpt>
      <trkpt lat="42.918431" lon="-8.083030">
        <ele>360.639</ele>
        <time>2022-08-22T11:20:10Z</time>
      </trkpt>
      <trkpt lat="42.918431" lon="-8.083096">
        <ele>360.149</ele>
        <time>2022-08-22T11:20:13Z</time>
      </trkpt>
      <trkpt lat="42.918429" lon="-8.083175">
        <ele>359.342</ele>
        <time>2022-08-22T11:20:16Z</time>
      </trkpt>
      <trkpt lat="42.918415" lon="-8.083235">
        <ele>359.044</ele>
        <time>2022-08-22T11:20:19Z</time>
      </trkpt>
      <trkpt lat="42.918391" lon="-8.083297">
        <ele>358.556</ele>
        <time>2022-08-22T11:20:24Z</time>
      </trkpt>
      <trkpt lat="42.918371" lon="-8.083362">
        <ele>358.146</ele>
        <time>2022-08-22T11:20:28Z</time>
      </trkpt>
      <trkpt lat="42.918347" lon="-8.083418">
        <ele>357.711</ele>
        <time>2022-08-22T11:20:32Z</time>
      </trkpt>
      <trkpt lat="42.918318" lon="-8.083483">
        <ele>357.466</ele>
        <time>2022-08-22T11:20:36Z</time>
      </trkpt>
      <trkpt lat="42.918279" lon="-8.083536">
        <ele>357.261</ele>
        <time>2022-08-22T11:20:41Z</time>
      </trkpt>
      <trkpt lat="42.918233" lon="-8.083576">
        <ele>356.921</ele>
        <time>2022-08-22T11:20:46Z</time>
      </trkpt>
      <trkpt lat="42.918195" lon="-8.083623">
        <ele>356.613</ele>
        <time>2022-08-22T11:20:49Z</time>
      </trkpt>
      <trkpt lat="42.918163" lon="-8.083677">
        <ele>356.409</ele>
        <time>2022-08-22T11:20:52Z</time>
      </trkpt>
      <trkpt lat="42.918136" lon="-8.083740">
        <ele>356.357</ele>
        <time>2022-08-22T11:20:55Z</time>
      </trkpt>
      <trkpt lat="42.918102" lon="-8.083812">
        <ele>356.177</ele>
        <time>2022-08-22T11:20:59Z</time>
      </trkpt>
      <trkpt lat="42.918069" lon="-8.083876">
        <ele>356.087</ele>
        <time>2022-08-22T11:21:03Z</time>
      </trkpt>
      <trkpt lat="42.918044" lon="-8.083935">
        <ele>355.920</ele>
        <time>2022-08-22T11:21:07Z</time>
      </trkpt>
      <trkpt lat="42.918027" lon="-8.083997">
        <ele>355.752</ele>
        <time>2022-08-22T11:21:11Z</time>
      </trkpt>
      <trkpt lat="42.918010" lon="-8.084072">
        <ele>355.514</ele>
        <time>2022-08-22T11:21:15Z</time>
      </trkpt>
      <trkpt lat="42.917993" lon="-8.084148">
        <ele>355.344</ele>
        <time>2022-08-22T11:21:19Z</time>
      </trkpt>
      <trkpt lat="42.917977" lon="-8.084222">
        <ele>355.079</ele>
        <time>2022-08-22T11:21:23Z</time>
      </trkpt>
      <trkpt lat="42.917981" lon="-8.084289">
        <ele>354.554</ele>
        <time>2022-08-22T11:21:27Z</time>
      </trkpt>
      <trkpt lat="42.917981" lon="-8.084369">
        <ele>353.817</ele>
        <time>2022-08-22T11:21:32Z</time>
      </trkpt>
      <trkpt lat="42.917983" lon="-8.084436">
        <ele>353.187</ele>
        <time>2022-08-22T11:21:36Z</time>
      </trkpt>
      <trkpt lat="42.917978" lon="-8.084502">
        <ele>352.615</ele>
        <time>2022-08-22T11:21:41Z</time>
      </trkpt>
      <trkpt lat="42.917981" lon="-8.084563">
        <ele>351.709</ele>
        <time>2022-08-22T11:21:46Z</time>
      </trkpt>
      <trkpt lat="42.917980" lon="-8.084632">
        <ele>350.932</ele>
        <time>2022-08-22T11:21:50Z</time>
      </trkpt>
      <trkpt lat="42.917993" lon="-8.084691">
        <ele>350.152</ele>
        <time>2022-08-22T11:21:54Z</time>
      </trkpt>
      <trkpt lat="42.918006" lon="-8.084756">
        <ele>349.422</ele>
        <time>2022-08-22T11:21:58Z</time>
      </trkpt>
      <trkpt lat="42.918098" lon="-8.085154">
        <ele>347.465</ele>
        <time>2022-08-22T11:22:18Z</time>
      </trkpt>
      <trkpt lat="42.918102" lon="-8.085221">
        <ele>347.317</ele>
        <time>2022-08-22T11:22:20Z</time>
      </trkpt>
      <trkpt lat="42.918110" lon="-8.085289">
        <ele>347.269</ele>
        <time>2022-08-22T11:22:24Z</time>
      </trkpt>
      <trkpt lat="42.918134" lon="-8.085344">
        <ele>347.059</ele>
        <time>2022-08-22T11:22:27Z</time>
      </trkpt>
      <trkpt lat="42.918153" lon="-8.085420">
        <ele>346.814</ele>
        <time>2022-08-22T11:22:33Z</time>
      </trkpt>
      <trkpt lat="42.918174" lon="-8.085482">
        <ele>346.669</ele>
        <time>2022-08-22T11:22:37Z</time>
      </trkpt>
      <trkpt lat="42.918188" lon="-8.085546">
        <ele>345.874</ele>
        <time>2022-08-22T11:22:43Z</time>
      </trkpt>
      <trkpt lat="42.918209" lon="-8.085602">
        <ele>344.956</ele>
        <time>2022-08-22T11:22:47Z</time>
      </trkpt>
      <trkpt lat="42.918223" lon="-8.085665">
        <ele>344.021</ele>
        <time>2022-08-22T11:22:51Z</time>
      </trkpt>
      <trkpt lat="42.918260" lon="-8.085726">
        <ele>343.209</ele>
        <time>2022-08-22T11:22:55Z</time>
      </trkpt>
      <trkpt lat="42.918288" lon="-8.085775">
        <ele>342.688</ele>
        <time>2022-08-22T11:22:59Z</time>
      </trkpt>
      <trkpt lat="42.918307" lon="-8.085831">
        <ele>342.088</ele>
        <time>2022-08-22T11:23:03Z</time>
      </trkpt>
      <trkpt lat="42.918337" lon="-8.085893">
        <ele>341.478</ele>
        <time>2022-08-22T11:23:07Z</time>
      </trkpt>
      <trkpt lat="42.918367" lon="-8.085943">
        <ele>340.951</ele>
        <time>2022-08-22T11:23:11Z</time>
      </trkpt>
      <trkpt lat="42.918396" lon="-8.085997">
        <ele>340.423</ele>
        <time>2022-08-22T11:23:15Z</time>
      </trkpt>
      <trkpt lat="42.918412" lon="-8.086062">
        <ele>339.985</ele>
        <time>2022-08-22T11:23:18Z</time>
      </trkpt>
      <trkpt lat="42.918417" lon="-8.086124">
        <ele>339.435</ele>
        <time>2022-08-22T11:23:22Z</time>
      </trkpt>
      <trkpt lat="42.918434" lon="-8.086188">
        <ele>338.930</ele>
        <time>2022-08-22T11:23:25Z</time>
      </trkpt>
      <trkpt lat="42.918450" lon="-8.086254">
        <ele>338.675</ele>
        <time>2022-08-22T11:23:29Z</time>
      </trkpt>
      <trkpt lat="42.918456" lon="-8.086321">
        <ele>338.437</ele>
        <time>2022-08-22T11:23:33Z</time>
      </trkpt>
      <trkpt lat="42.918481" lon="-8.086385">
        <ele>338.449</ele>
        <time>2022-08-22T11:23:37Z</time>
      </trkpt>
      <trkpt lat="42.918501" lon="-8.086444">
        <ele>338.413</ele>
        <time>2022-08-22T11:23:40Z</time>
      </trkpt>
      <trkpt lat="42.918515" lon="-8.086526">
        <ele>338.409</ele>
        <time>2022-08-22T11:23:45Z</time>
      </trkpt>
      <trkpt lat="42.918532" lon="-8.086598">
        <ele>338.514</ele>
        <time>2022-08-22T11:23:49Z</time>
      </trkpt>
      <trkpt lat="42.918537" lon="-8.086669">
        <ele>338.744</ele>
        <time>2022-08-22T11:23:53Z</time>
      </trkpt>
      <trkpt lat="42.918546" lon="-8.086752">
        <ele>338.824</ele>
        <time>2022-08-22T11:23:57Z</time>
      </trkpt>
      <trkpt lat="42.918565" lon="-8.086832">
        <ele>338.987</ele>
        <time>2022-08-22T11:24:01Z</time>
      </trkpt>
      <trkpt lat="42.918577" lon="-8.086902">
        <ele>339.179</ele>
        <time>2022-08-22T11:24:05Z</time>
      </trkpt>
      <trkpt lat="42.918571" lon="-8.086978">
        <ele>339.221</ele>
        <time>2022-08-22T11:24:09Z</time>
      </trkpt>
      <trkpt lat="42.918583" lon="-8.087051">
        <ele>339.211</ele>
        <time>2022-08-22T11:24:13Z</time>
      </trkpt>
      <trkpt lat="42.918602" lon="-8.087123">
        <ele>339.236</ele>
        <time>2022-08-22T11:24:17Z</time>
      </trkpt>
      <trkpt lat="42.918612" lon="-8.087193">
        <ele>339.391</ele>
        <time>2022-08-22T11:24:21Z</time>
      </trkpt>
      <trkpt lat="42.918631" lon="-8.087250">
        <ele>339.342</ele>
        <time>2022-08-22T11:24:26Z</time>
      </trkpt>
      <trkpt lat="42.918644" lon="-8.087321">
        <ele>339.422</ele>
        <time>2022-08-22T11:24:29Z</time>
      </trkpt>
      <trkpt lat="42.918648" lon="-8.087383">
        <ele>339.614</ele>
        <time>2022-08-22T11:24:32Z</time>
      </trkpt>
      <trkpt lat="42.918658" lon="-8.087445">
        <ele>339.809</ele>
        <time>2022-08-22T11:24:35Z</time>
      </trkpt>
      <trkpt lat="42.918667" lon="-8.087522">
        <ele>340.065</ele>
        <time>2022-08-22T11:24:39Z</time>
      </trkpt>
      <trkpt lat="42.918663" lon="-8.087592">
        <ele>340.245</ele>
        <time>2022-08-22T11:24:42Z</time>
      </trkpt>
      <trkpt lat="42.918645" lon="-8.087666">
        <ele>340.525</ele>
        <time>2022-08-22T11:24:46Z</time>
      </trkpt>
      <trkpt lat="42.918634" lon="-8.087735">
        <ele>340.878</ele>
        <time>2022-08-22T11:24:50Z</time>
      </trkpt>
      <trkpt lat="42.918613" lon="-8.087805">
        <ele>341.270</ele>
        <time>2022-08-22T11:24:55Z</time>
      </trkpt>
      <trkpt lat="42.918597" lon="-8.087871">
        <ele>341.332</ele>
        <time>2022-08-22T11:24:59Z</time>
      </trkpt>
      <trkpt lat="42.918573" lon="-8.087930">
        <ele>341.552</ele>
        <time>2022-08-22T11:25:04Z</time>
      </trkpt>
      <trkpt lat="42.918551" lon="-8.087987">
        <ele>341.637</ele>
        <time>2022-08-22T11:25:08Z</time>
      </trkpt>
      <trkpt lat="42.918534" lon="-8.088049">
        <ele>341.612</ele>
        <time>2022-08-22T11:25:12Z</time>
      </trkpt>
      <trkpt lat="42.918522" lon="-8.088131">
        <ele>341.724</ele>
        <time>2022-08-22T11:25:16Z</time>
      </trkpt>
      <trkpt lat="42.918511" lon="-8.088203">
        <ele>341.804</ele>
        <time>2022-08-22T11:25:20Z</time>
      </trkpt>
      <trkpt lat="42.918502" lon="-8.088274">
        <ele>341.914</ele>
        <time>2022-08-22T11:25:24Z</time>
      </trkpt>
      <trkpt lat="42.918502" lon="-8.088337">
        <ele>342.109</ele>
        <time>2022-08-22T11:25:28Z</time>
      </trkpt>
      <trkpt lat="42.918515" lon="-8.088415">
        <ele>342.663</ele>
        <time>2022-08-22T11:25:33Z</time>
      </trkpt>
      <trkpt lat="42.918503" lon="-8.088482">
        <ele>342.883</ele>
        <time>2022-08-22T11:25:38Z</time>
      </trkpt>
      <trkpt lat="42.918507" lon="-8.088553">
        <ele>343.143</ele>
        <time>2022-08-22T11:25:43Z</time>
      </trkpt>
      <trkpt lat="42.918522" lon="-8.088619">
        <ele>343.386</ele>
        <time>2022-08-22T11:25:46Z</time>
      </trkpt>
      <trkpt lat="42.918520" lon="-8.088697">
        <ele>343.648</ele>
        <time>2022-08-22T11:25:50Z</time>
      </trkpt>
      <trkpt lat="42.918519" lon="-8.088766">
        <ele>343.930</ele>
        <time>2022-08-22T11:25:54Z</time>
      </trkpt>
      <trkpt lat="42.918511" lon="-8.088827">
        <ele>344.330</ele>
        <time>2022-08-22T11:25:59Z</time>
      </trkpt>
      <trkpt lat="42.918499" lon="-8.088902">
        <ele>344.765</ele>
        <time>2022-08-22T11:26:04Z</time>
      </trkpt>
      <trkpt lat="42.918488" lon="-8.088962">
        <ele>345.220</ele>
        <time>2022-08-22T11:26:08Z</time>
      </trkpt>
      <trkpt lat="42.918498" lon="-8.089041">
        <ele>345.815</ele>
        <time>2022-08-22T11:26:13Z</time>
      </trkpt>
      <trkpt lat="42.918512" lon="-8.089118">
        <ele>346.265</ele>
        <time>2022-08-22T11:26:17Z</time>
      </trkpt>
      <trkpt lat="42.918548" lon="-8.089163">
        <ele>346.411</ele>
        <time>2022-08-22T11:26:22Z</time>
      </trkpt>
      <trkpt lat="42.918594" lon="-8.089164">
        <ele>346.609</ele>
        <time>2022-08-22T11:26:26Z</time>
      </trkpt>
      <trkpt lat="42.918640" lon="-8.089170">
        <ele>346.992</ele>
        <time>2022-08-22T11:26:30Z</time>
      </trkpt>
      <trkpt lat="42.918684" lon="-8.089146">
        <ele>347.442</ele>
        <time>2022-08-22T11:26:35Z</time>
      </trkpt>
      <trkpt lat="42.918729" lon="-8.089129">
        <ele>348.152</ele>
        <time>2022-08-22T11:26:39Z</time>
      </trkpt>
      <trkpt lat="42.918775" lon="-8.089104">
        <ele>348.965</ele>
        <time>2022-08-22T11:26:43Z</time>
      </trkpt>
      <trkpt lat="42.918816" lon="-8.089064">
        <ele>349.667</ele>
        <time>2022-08-22T11:26:48Z</time>
      </trkpt>
      <trkpt lat="42.918852" lon="-8.089006">
        <ele>350.329</ele>
        <time>2022-08-22T11:26:54Z</time>
      </trkpt>
      <trkpt lat="42.918885" lon="-8.088956">
        <ele>351.119</ele>
        <time>2022-08-22T11:26:59Z</time>
      </trkpt>
      <trkpt lat="42.918922" lon="-8.088918">
        <ele>352.074</ele>
        <time>2022-08-22T11:27:03Z</time>
      </trkpt>
      <trkpt lat="42.918965" lon="-8.088880">
        <ele>352.839</ele>
        <time>2022-08-22T11:27:08Z</time>
      </trkpt>
      <trkpt lat="42.919021" lon="-8.088859">
        <ele>353.613</ele>
        <time>2022-08-22T11:27:15Z</time>
      </trkpt>
      <trkpt lat="42.919088" lon="-8.088916">
        <ele>354.943</ele>
        <time>2022-08-22T11:27:25Z</time>
      </trkpt>
      <trkpt lat="42.919121" lon="-8.088967">
        <ele>356.107</ele>
        <time>2022-08-22T11:27:29Z</time>
      </trkpt>
      <trkpt lat="42.919152" lon="-8.089034">
        <ele>356.809</ele>
        <time>2022-08-22T11:27:35Z</time>
      </trkpt>
      <trkpt lat="42.919168" lon="-8.089106">
        <ele>357.052</ele>
        <time>2022-08-22T11:27:40Z</time>
      </trkpt>
      <trkpt lat="42.919195" lon="-8.089173">
        <ele>357.532</ele>
        <time>2022-08-22T11:27:44Z</time>
      </trkpt>
      <trkpt lat="42.919222" lon="-8.089239">
        <ele>358.172</ele>
        <time>2022-08-22T11:27:47Z</time>
      </trkpt>
      <trkpt lat="42.919241" lon="-8.089315">
        <ele>358.675</ele>
        <time>2022-08-22T11:27:52Z</time>
      </trkpt>
      <trkpt lat="42.919258" lon="-8.089377">
        <ele>359.067</ele>
        <time>2022-08-22T11:27:56Z</time>
      </trkpt>
      <trkpt lat="42.919277" lon="-8.089439">
        <ele>359.489</ele>
        <time>2022-08-22T11:28:00Z</time>
      </trkpt>
      <trkpt lat="42.919291" lon="-8.089505">
        <ele>360.169</ele>
        <time>2022-08-22T11:28:06Z</time>
      </trkpt>
      <trkpt lat="42.919302" lon="-8.089575">
        <ele>360.784</ele>
        <time>2022-08-22T11:28:11Z</time>
      </trkpt>
      <trkpt lat="42.919313" lon="-8.089634">
        <ele>361.469</ele>
        <time>2022-08-22T11:28:15Z</time>
      </trkpt>
      <trkpt lat="42.919327" lon="-8.089703">
        <ele>362.241</ele>
        <time>2022-08-22T11:28:19Z</time>
      </trkpt>
      <trkpt lat="42.919335" lon="-8.089769">
        <ele>363.081</ele>
        <time>2022-08-22T11:28:23Z</time>
      </trkpt>
      <trkpt lat="42.919355" lon="-8.089835">
        <ele>363.709</ele>
        <time>2022-08-22T11:28:27Z</time>
      </trkpt>
      <trkpt lat="42.919376" lon="-8.089896">
        <ele>364.409</ele>
        <time>2022-08-22T11:28:31Z</time>
      </trkpt>
      <trkpt lat="42.919386" lon="-8.089964">
        <ele>365.155</ele>
        <time>2022-08-22T11:28:35Z</time>
      </trkpt>
      <trkpt lat="42.919407" lon="-8.090033">
        <ele>365.865</ele>
        <time>2022-08-22T11:28:40Z</time>
      </trkpt>
      <trkpt lat="42.919413" lon="-8.090102">
        <ele>366.675</ele>
        <time>2022-08-22T11:28:44Z</time>
      </trkpt>
      <trkpt lat="42.919423" lon="-8.090176">
        <ele>367.488</ele>
        <time>2022-08-22T11:28:49Z</time>
      </trkpt>
      <trkpt lat="42.919437" lon="-8.090243">
        <ele>368.280</ele>
        <time>2022-08-22T11:28:53Z</time>
      </trkpt>
      <trkpt lat="42.919446" lon="-8.090309">
        <ele>369.072</ele>
        <time>2022-08-22T11:28:57Z</time>
      </trkpt>
      <trkpt lat="42.919444" lon="-8.090382">
        <ele>369.872</ele>
        <time>2022-08-22T11:29:01Z</time>
      </trkpt>
      <trkpt lat="42.919452" lon="-8.090449">
        <ele>370.447</ele>
        <time>2022-08-22T11:29:06Z</time>
      </trkpt>
      <trkpt lat="42.919450" lon="-8.090523">
        <ele>371.122</ele>
        <time>2022-08-22T11:29:10Z</time>
      </trkpt>
      <trkpt lat="42.919447" lon="-8.090601">
        <ele>371.897</ele>
        <time>2022-08-22T11:29:16Z</time>
      </trkpt>
      <trkpt lat="42.919456" lon="-8.090673">
        <ele>372.523</ele>
        <time>2022-08-22T11:29:20Z</time>
      </trkpt>
      <trkpt lat="42.919465" lon="-8.090737">
        <ele>373.325</ele>
        <time>2022-08-22T11:29:24Z</time>
      </trkpt>
      <trkpt lat="42.919479" lon="-8.090800">
        <ele>374.109</ele>
        <time>2022-08-22T11:29:28Z</time>
      </trkpt>
      <trkpt lat="42.919500" lon="-8.090857">
        <ele>374.850</ele>
        <time>2022-08-22T11:29:32Z</time>
      </trkpt>
      <trkpt lat="42.919518" lon="-8.090915">
        <ele>375.550</ele>
        <time>2022-08-22T11:29:36Z</time>
      </trkpt>
      <trkpt lat="42.919533" lon="-8.090987">
        <ele>376.210</ele>
        <time>2022-08-22T11:29:41Z</time>
      </trkpt>
      <trkpt lat="42.919561" lon="-8.091050">
        <ele>376.913</ele>
        <time>2022-08-22T11:29:45Z</time>
      </trkpt>
      <trkpt lat="42.919592" lon="-8.091107">
        <ele>377.755</ele>
        <time>2022-08-22T11:29:49Z</time>
      </trkpt>
      <trkpt lat="42.919623" lon="-8.091167">
        <ele>378.447</ele>
        <time>2022-08-22T11:29:53Z</time>
      </trkpt>
      <trkpt lat="42.919657" lon="-8.091211">
        <ele>379.097</ele>
        <time>2022-08-22T11:29:57Z</time>
      </trkpt>
      <trkpt lat="42.919692" lon="-8.091259">
        <ele>379.572</ele>
        <time>2022-08-22T11:30:01Z</time>
      </trkpt>
      <trkpt lat="42.919729" lon="-8.091302">
        <ele>379.867</ele>
        <time>2022-08-22T11:30:05Z</time>
      </trkpt>
      <trkpt lat="42.919774" lon="-8.091346">
        <ele>380.167</ele>
        <time>2022-08-22T11:30:11Z</time>
      </trkpt>
      <trkpt lat="42.919814" lon="-8.091398">
        <ele>380.581</ele>
        <time>2022-08-22T11:30:16Z</time>
      </trkpt>
      <trkpt lat="42.919854" lon="-8.091455">
        <ele>381.319</ele>
        <time>2022-08-22T11:30:20Z</time>
      </trkpt>
      <trkpt lat="42.919877" lon="-8.091508">
        <ele>382.309</ele>
        <time>2022-08-22T11:30:26Z</time>
      </trkpt>
      <trkpt lat="42.919895" lon="-8.091572">
        <ele>383.217</ele>
        <time>2022-08-22T11:30:31Z</time>
      </trkpt>
      <trkpt lat="42.919937" lon="-8.091615">
        <ele>384.117</ele>
        <time>2022-08-22T11:30:36Z</time>
      </trkpt>
      <trkpt lat="42.919969" lon="-8.091678">
        <ele>385.087</ele>
        <time>2022-08-22T11:30:40Z</time>
      </trkpt>
      <trkpt lat="42.920007" lon="-8.091731">
        <ele>385.840</ele>
        <time>2022-08-22T11:30:46Z</time>
      </trkpt>
      <trkpt lat="42.920048" lon="-8.091774">
        <ele>386.842</ele>
        <time>2022-08-22T11:30:51Z</time>
      </trkpt>
      <trkpt lat="42.920069" lon="-8.091836">
        <ele>388.044</ele>
        <time>2022-08-22T11:30:56Z</time>
      </trkpt>
      <trkpt lat="42.920104" lon="-8.091887">
        <ele>389.164</ele>
        <time>2022-08-22T11:31:00Z</time>
      </trkpt>
      <trkpt lat="42.920143" lon="-8.091936">
        <ele>390.099</ele>
        <time>2022-08-22T11:31:04Z</time>
      </trkpt>
      <trkpt lat="42.920175" lon="-8.091983">
        <ele>390.764</ele>
        <time>2022-08-22T11:31:07Z</time>
      </trkpt>
      <trkpt lat="42.920210" lon="-8.092029">
        <ele>391.331</ele>
        <time>2022-08-22T11:31:11Z</time>
      </trkpt>
      <trkpt lat="42.920248" lon="-8.092063">
        <ele>391.961</ele>
        <time>2022-08-22T11:31:16Z</time>
      </trkpt>
      <trkpt lat="42.920285" lon="-8.092116">
        <ele>392.507</ele>
        <time>2022-08-22T11:31:19Z</time>
      </trkpt>
      <trkpt lat="42.920310" lon="-8.092172">
        <ele>393.409</ele>
        <time>2022-08-22T11:31:23Z</time>
      </trkpt>
      <trkpt lat="42.920335" lon="-8.092245">
        <ele>394.494</ele>
        <time>2022-08-22T11:31:27Z</time>
      </trkpt>
      <trkpt lat="42.920363" lon="-8.092306">
        <ele>395.394</ele>
        <time>2022-08-22T11:31:32Z</time>
      </trkpt>
      <trkpt lat="42.920372" lon="-8.092381">
        <ele>396.344</ele>
        <time>2022-08-22T11:31:36Z</time>
      </trkpt>
      <trkpt lat="42.920394" lon="-8.092435">
        <ele>397.247</ele>
        <time>2022-08-22T11:31:41Z</time>
      </trkpt>
      <trkpt lat="42.920433" lon="-8.092469">
        <ele>397.859</ele>
        <time>2022-08-22T11:31:46Z</time>
      </trkpt>
      <trkpt lat="42.920469" lon="-8.092512">
        <ele>398.381</ele>
        <time>2022-08-22T11:31:51Z</time>
      </trkpt>
      <trkpt lat="42.920520" lon="-8.092535">
        <ele>398.991</ele>
        <time>2022-08-22T11:31:55Z</time>
      </trkpt>
      <trkpt lat="42.920574" lon="-8.092558">
        <ele>399.426</ele>
        <time>2022-08-22T11:31:59Z</time>
      </trkpt>
      <trkpt lat="42.920622" lon="-8.092575">
        <ele>399.981</ele>
        <time>2022-08-22T11:32:03Z</time>
      </trkpt>
      <trkpt lat="42.920671" lon="-8.092591">
        <ele>400.412</ele>
        <time>2022-08-22T11:32:07Z</time>
      </trkpt>
      <trkpt lat="42.920720" lon="-8.092617">
        <ele>400.832</ele>
        <time>2022-08-22T11:32:12Z</time>
      </trkpt>
      <trkpt lat="42.920769" lon="-8.092647">
        <ele>401.205</ele>
        <time>2022-08-22T11:32:16Z</time>
      </trkpt>
      <trkpt lat="42.920816" lon="-8.092669">
        <ele>401.609</ele>
        <time>2022-08-22T11:32:20Z</time>
      </trkpt>
      <trkpt lat="42.920863" lon="-8.092689">
        <ele>402.022</ele>
        <time>2022-08-22T11:32:24Z</time>
      </trkpt>
      <trkpt lat="42.920913" lon="-8.092717">
        <ele>402.322</ele>
        <time>2022-08-22T11:32:28Z</time>
      </trkpt>
      <trkpt lat="42.920966" lon="-8.092735">
        <ele>402.522</ele>
        <time>2022-08-22T11:32:33Z</time>
      </trkpt>
      <trkpt lat="42.921020" lon="-8.092755">
        <ele>402.855</ele>
        <time>2022-08-22T11:32:38Z</time>
      </trkpt>
      <trkpt lat="42.921061" lon="-8.092782">
        <ele>403.397</ele>
        <time>2022-08-22T11:32:41Z</time>
      </trkpt>
      <trkpt lat="42.921110" lon="-8.092798">
        <ele>403.899</ele>
        <time>2022-08-22T11:32:45Z</time>
      </trkpt>
      <trkpt lat="42.921161" lon="-8.092810">
        <ele>404.199</ele>
        <time>2022-08-22T11:32:49Z</time>
      </trkpt>
      <trkpt lat="42.921211" lon="-8.092824">
        <ele>404.314</ele>
        <time>2022-08-22T11:32:53Z</time>
      </trkpt>
      <trkpt lat="42.921262" lon="-8.092844">
        <ele>404.559</ele>
        <time>2022-08-22T11:32:57Z</time>
      </trkpt>
      <trkpt lat="42.921311" lon="-8.092873">
        <ele>404.728</ele>
        <time>2022-08-22T11:33:01Z</time>
      </trkpt>
      <trkpt lat="42.921355" lon="-8.092898">
        <ele>404.989</ele>
        <time>2022-08-22T11:33:04Z</time>
      </trkpt>
      <trkpt lat="42.921403" lon="-8.092922">
        <ele>405.117</ele>
        <time>2022-08-22T11:33:08Z</time>
      </trkpt>
      <trkpt lat="42.921454" lon="-8.092944">
        <ele>405.209</ele>
        <time>2022-08-22T11:33:12Z</time>
      </trkpt>
      <trkpt lat="42.921502" lon="-8.092963">
        <ele>405.393</ele>
        <time>2022-08-22T11:33:15Z</time>
      </trkpt>
      <trkpt lat="42.921556" lon="-8.092982">
        <ele>405.513</ele>
        <time>2022-08-22T11:33:19Z</time>
      </trkpt>
      <trkpt lat="42.921607" lon="-8.093009">
        <ele>405.833</ele>
        <time>2022-08-22T11:33:23Z</time>
      </trkpt>
      <trkpt lat="42.921661" lon="-8.093031">
        <ele>406.056</ele>
        <time>2022-08-22T11:33:27Z</time>
      </trkpt>
      <trkpt lat="42.921708" lon="-8.093041">
        <ele>406.128</ele>
        <time>2022-08-22T11:33:31Z</time>
      </trkpt>
      <trkpt lat="42.921760" lon="-8.093063">
        <ele>406.260</ele>
        <time>2022-08-22T11:33:36Z</time>
      </trkpt>
      <trkpt lat="42.921806" lon="-8.093079">
        <ele>406.420</ele>
        <time>2022-08-22T11:33:40Z</time>
      </trkpt>
      <trkpt lat="42.921858" lon="-8.093112">
        <ele>406.725</ele>
        <time>2022-08-22T11:33:44Z</time>
      </trkpt>
      <trkpt lat="42.921907" lon="-8.093149">
        <ele>406.930</ele>
        <time>2022-08-22T11:33:48Z</time>
      </trkpt>
      <trkpt lat="42.921953" lon="-8.093178">
        <ele>407.042</ele>
        <time>2022-08-22T11:33:52Z</time>
      </trkpt>
      <trkpt lat="42.922003" lon="-8.093205">
        <ele>407.222</ele>
        <time>2022-08-22T11:33:56Z</time>
      </trkpt>
      <trkpt lat="42.922057" lon="-8.093231">
        <ele>407.514</ele>
        <time>2022-08-22T11:34:01Z</time>
      </trkpt>
      <trkpt lat="42.922097" lon="-8.093261">
        <ele>407.609</ele>
        <time>2022-08-22T11:34:05Z</time>
      </trkpt>
      <trkpt lat="42.922143" lon="-8.093285">
        <ele>407.895</ele>
        <time>2022-08-22T11:34:09Z</time>
      </trkpt>
      <trkpt lat="42.922189" lon="-8.093311">
        <ele>408.095</ele>
        <time>2022-08-22T11:34:13Z</time>
      </trkpt>
      <trkpt lat="42.922229" lon="-8.093339">
        <ele>408.265</ele>
        <time>2022-08-22T11:34:16Z</time>
      </trkpt>
      <trkpt lat="42.922275" lon="-8.093376">
        <ele>408.488</ele>
        <time>2022-08-22T11:34:20Z</time>
      </trkpt>
      <trkpt lat="42.922321" lon="-8.093410">
        <ele>408.520</ele>
        <time>2022-08-22T11:34:24Z</time>
      </trkpt>
      <trkpt lat="42.922372" lon="-8.093439">
        <ele>408.652</ele>
        <time>2022-08-22T11:34:28Z</time>
      </trkpt>
      <trkpt lat="42.922420" lon="-8.093476">
        <ele>408.732</ele>
        <time>2022-08-22T11:34:32Z</time>
      </trkpt>
      <trkpt lat="42.922459" lon="-8.093512">
        <ele>408.777</ele>
        <time>2022-08-22T11:34:35Z</time>
      </trkpt>
      <trkpt lat="42.922505" lon="-8.093536">
        <ele>408.792</ele>
        <time>2022-08-22T11:34:38Z</time>
      </trkpt>
      <trkpt lat="42.922555" lon="-8.093576">
        <ele>408.742</ele>
        <time>2022-08-22T11:34:42Z</time>
      </trkpt>
      <trkpt lat="42.922608" lon="-8.093611">
        <ele>408.722</ele>
        <time>2022-08-22T11:34:46Z</time>
      </trkpt>
      <trkpt lat="42.922657" lon="-8.093656">
        <ele>408.714</ele>
        <time>2022-08-22T11:34:50Z</time>
      </trkpt>
      <trkpt lat="42.922707" lon="-8.093697">
        <ele>408.809</ele>
        <time>2022-08-22T11:34:54Z</time>
      </trkpt>
      <trkpt lat="42.922753" lon="-8.093743">
        <ele>408.865</ele>
        <time>2022-08-22T11:34:58Z</time>
      </trkpt>
      <trkpt lat="42.922802" lon="-8.093786">
        <ele>408.895</ele>
        <time>2022-08-22T11:35:02Z</time>
      </trkpt>
      <trkpt lat="42.922853" lon="-8.093819">
        <ele>408.815</ele>
        <time>2022-08-22T11:35:06Z</time>
      </trkpt>
      <trkpt lat="42.922900" lon="-8.093862">
        <ele>408.848</ele>
        <time>2022-08-22T11:35:10Z</time>
      </trkpt>
      <trkpt lat="42.922949" lon="-8.093901">
        <ele>408.850</ele>
        <time>2022-08-22T11:35:14Z</time>
      </trkpt>
      <trkpt lat="42.922995" lon="-8.093946">
        <ele>408.822</ele>
        <time>2022-08-22T11:35:18Z</time>
      </trkpt>
      <trkpt lat="42.923037" lon="-8.093999">
        <ele>408.812</ele>
        <time>2022-08-22T11:35:22Z</time>
      </trkpt>
      <trkpt lat="42.923082" lon="-8.094047">
        <ele>408.827</ele>
        <time>2022-08-22T11:35:26Z</time>
      </trkpt>
      <trkpt lat="42.923132" lon="-8.094080">
        <ele>408.892</ele>
        <time>2022-08-22T11:35:30Z</time>
      </trkpt>
      <trkpt lat="42.923179" lon="-8.094119">
        <ele>408.857</ele>
        <time>2022-08-22T11:35:34Z</time>
      </trkpt>
      <trkpt lat="42.923228" lon="-8.094154">
        <ele>408.900</ele>
        <time>2022-08-22T11:35:38Z</time>
      </trkpt>
      <trkpt lat="42.923272" lon="-8.094197">
        <ele>409.020</ele>
        <time>2022-08-22T11:35:42Z</time>
      </trkpt>
      <trkpt lat="42.923318" lon="-8.094239">
        <ele>409.109</ele>
        <time>2022-08-22T11:35:46Z</time>
      </trkpt>
      <trkpt lat="42.923366" lon="-8.094278">
        <ele>409.156</ele>
        <time>2022-08-22T11:35:50Z</time>
      </trkpt>
      <trkpt lat="42.923409" lon="-8.094320">
        <ele>409.236</ele>
        <time>2022-08-22T11:35:54Z</time>
      </trkpt>
      <trkpt lat="42.923457" lon="-8.094360">
        <ele>409.486</ele>
        <time>2022-08-22T11:35:58Z</time>
      </trkpt>
      <trkpt lat="42.923504" lon="-8.094400">
        <ele>409.599</ele>
        <time>2022-08-22T11:36:02Z</time>
      </trkpt>
      <trkpt lat="42.923548" lon="-8.094447">
        <ele>409.611</ele>
        <time>2022-08-22T11:36:06Z</time>
      </trkpt>
      <trkpt lat="42.923586" lon="-8.094481">
        <ele>409.613</ele>
        <time>2022-08-22T11:36:10Z</time>
      </trkpt>
      <trkpt lat="42.923633" lon="-8.094516">
        <ele>409.793</ele>
        <time>2022-08-22T11:36:15Z</time>
      </trkpt>
      <trkpt lat="42.923687" lon="-8.094537">
        <ele>409.878</ele>
        <time>2022-08-22T11:36:20Z</time>
      </trkpt>
      <trkpt lat="42.923724" lon="-8.094577">
        <ele>409.943</ele>
        <time>2022-08-22T11:36:24Z</time>
      </trkpt>
      <trkpt lat="42.923761" lon="-8.094625">
        <ele>410.139</ele>
        <time>2022-08-22T11:36:29Z</time>
      </trkpt>
      <trkpt lat="42.923804" lon="-8.094643">
        <ele>410.201</ele>
        <time>2022-08-22T11:36:33Z</time>
      </trkpt>
      <trkpt lat="42.923843" lon="-8.094697">
        <ele>410.321</ele>
        <time>2022-08-22T11:36:37Z</time>
      </trkpt>
      <trkpt lat="42.923882" lon="-8.094748">
        <ele>410.509</ele>
        <time>2022-08-22T11:36:41Z</time>
      </trkpt>
      <trkpt lat="42.923914" lon="-8.094811">
        <ele>410.744</ele>
        <time>2022-08-22T11:36:45Z</time>
      </trkpt>
      <trkpt lat="42.923953" lon="-8.094855">
        <ele>410.994</ele>
        <time>2022-08-22T11:36:49Z</time>
      </trkpt>
      <trkpt lat="42.923997" lon="-8.094911">
        <ele>411.194</ele>
        <time>2022-08-22T11:36:53Z</time>
      </trkpt>
      <trkpt lat="42.924028" lon="-8.094981">
        <ele>411.127</ele>
        <time>2022-08-22T11:36:57Z</time>
      </trkpt>
      <trkpt lat="42.924058" lon="-8.095042">
        <ele>411.119</ele>
        <time>2022-08-22T11:37:01Z</time>
      </trkpt>
      <trkpt lat="42.924094" lon="-8.095099">
        <ele>411.251</ele>
        <time>2022-08-22T11:37:05Z</time>
      </trkpt>
      <trkpt lat="42.924118" lon="-8.095158">
        <ele>411.471</ele>
        <time>2022-08-22T11:37:08Z</time>
      </trkpt>
      <trkpt lat="42.924152" lon="-8.095220">
        <ele>411.666</ele>
        <time>2022-08-22T11:37:12Z</time>
      </trkpt>
      <trkpt lat="42.924177" lon="-8.095273">
        <ele>411.751</ele>
        <time>2022-08-22T11:37:15Z</time>
      </trkpt>
      <trkpt lat="42.924206" lon="-8.095337">
        <ele>411.935</ele>
        <time>2022-08-22T11:37:19Z</time>
      </trkpt>
      <trkpt lat="42.924226" lon="-8.095405">
        <ele>412.186</ele>
        <time>2022-08-22T11:37:23Z</time>
      </trkpt>
      <trkpt lat="42.924247" lon="-8.095476">
        <ele>412.314</ele>
        <time>2022-08-22T11:37:27Z</time>
      </trkpt>
      <trkpt lat="42.924258" lon="-8.095549">
        <ele>412.509</ele>
        <time>2022-08-22T11:37:31Z</time>
      </trkpt>
      <trkpt lat="42.924275" lon="-8.095606">
        <ele>412.764</ele>
        <time>2022-08-22T11:37:35Z</time>
      </trkpt>
      <trkpt lat="42.924295" lon="-8.095677">
        <ele>412.954</ele>
        <time>2022-08-22T11:37:39Z</time>
      </trkpt>
      <trkpt lat="42.924311" lon="-8.095752">
        <ele>413.264</ele>
        <time>2022-08-22T11:37:43Z</time>
      </trkpt>
      <trkpt lat="42.924331" lon="-8.095811">
        <ele>413.427</ele>
        <time>2022-08-22T11:37:47Z</time>
      </trkpt>
      <trkpt lat="42.924357" lon="-8.095867">
        <ele>413.559</ele>
        <time>2022-08-22T11:37:51Z</time>
      </trkpt>
      <trkpt lat="42.924378" lon="-8.095935">
        <ele>413.781</ele>
        <time>2022-08-22T11:37:55Z</time>
      </trkpt>
      <trkpt lat="42.924393" lon="-8.095997">
        <ele>413.961</ele>
        <time>2022-08-22T11:37:59Z</time>
      </trkpt>
      <trkpt lat="42.924414" lon="-8.096065">
        <ele>414.016</ele>
        <time>2022-08-22T11:38:03Z</time>
      </trkpt>
      <trkpt lat="42.924425" lon="-8.096125">
        <ele>414.141</ele>
        <time>2022-08-22T11:38:07Z</time>
      </trkpt>
      <trkpt lat="42.924444" lon="-8.096187">
        <ele>414.247</ele>
        <time>2022-08-22T11:38:11Z</time>
      </trkpt>
      <trkpt lat="42.924458" lon="-8.096259">
        <ele>414.429</ele>
        <time>2022-08-22T11:38:15Z</time>
      </trkpt>
      <trkpt lat="42.924471" lon="-8.096333">
        <ele>414.721</ele>
        <time>2022-08-22T11:38:19Z</time>
      </trkpt>
      <trkpt lat="42.924491" lon="-8.096406">
        <ele>415.009</ele>
        <time>2022-08-22T11:38:23Z</time>
      </trkpt>
      <trkpt lat="42.924514" lon="-8.096471">
        <ele>415.265</ele>
        <time>2022-08-22T11:38:27Z</time>
      </trkpt>
      <trkpt lat="42.924528" lon="-8.096532">
        <ele>415.445</ele>
        <time>2022-08-22T11:38:31Z</time>
      </trkpt>
      <trkpt lat="42.924538" lon="-8.096597">
        <ele>415.575</ele>
        <time>2022-08-22T11:38:35Z</time>
      </trkpt>
      <trkpt lat="42.924556" lon="-8.096667">
        <ele>415.568</ele>
        <time>2022-08-22T11:38:39Z</time>
      </trkpt>
      <trkpt lat="42.924572" lon="-8.096733">
        <ele>415.550</ele>
        <time>2022-08-22T11:38:43Z</time>
      </trkpt>
      <trkpt lat="42.924589" lon="-8.096797">
        <ele>415.682</ele>
        <time>2022-08-22T11:38:47Z</time>
      </trkpt>
      <trkpt lat="42.924596" lon="-8.096867">
        <ele>415.782</ele>
        <time>2022-08-22T11:38:51Z</time>
      </trkpt>
      <trkpt lat="42.924615" lon="-8.096924">
        <ele>415.897</ele>
        <time>2022-08-22T11:38:54Z</time>
      </trkpt>
      <trkpt lat="42.924633" lon="-8.096981">
        <ele>415.952</ele>
        <time>2022-08-22T11:38:58Z</time>
      </trkpt>
      <trkpt lat="42.924648" lon="-8.097056">
        <ele>416.061</ele>
        <time>2022-08-22T11:39:02Z</time>
      </trkpt>
      <trkpt lat="42.924664" lon="-8.097117">
        <ele>416.121</ele>
        <time>2022-08-22T11:39:06Z</time>
      </trkpt>
      <trkpt lat="42.924688" lon="-8.097185">
        <ele>416.213</ele>
        <time>2022-08-22T11:39:10Z</time>
      </trkpt>
      <trkpt lat="42.924706" lon="-8.097257">
        <ele>416.309</ele>
        <time>2022-08-22T11:39:14Z</time>
      </trkpt>
      <trkpt lat="42.924720" lon="-8.097320">
        <ele>416.497</ele>
        <time>2022-08-22T11:39:18Z</time>
      </trkpt>
      <trkpt lat="42.924695" lon="-8.097374">
        <ele>416.417</ele>
        <time>2022-08-22T11:39:23Z</time>
      </trkpt>
      <trkpt lat="42.924674" lon="-8.097445">
        <ele>416.467</ele>
        <time>2022-08-22T11:39:27Z</time>
      </trkpt>
      <trkpt lat="42.924654" lon="-8.097518">
        <ele>416.440</ele>
        <time>2022-08-22T11:39:32Z</time>
      </trkpt>
      <trkpt lat="42.924656" lon="-8.097581">
        <ele>416.132</ele>
        <time>2022-08-22T11:39:36Z</time>
      </trkpt>
      <trkpt lat="42.924644" lon="-8.097647">
        <ele>415.644</ele>
        <time>2022-08-22T11:39:40Z</time>
      </trkpt>
      <trkpt lat="42.924607" lon="-8.097711">
        <ele>415.294</ele>
        <time>2022-08-22T11:39:44Z</time>
      </trkpt>
      <trkpt lat="42.924587" lon="-8.097781">
        <ele>414.919</ele>
        <time>2022-08-22T11:39:48Z</time>
      </trkpt>
      <trkpt lat="42.924575" lon="-8.097848">
        <ele>414.674</ele>
        <time>2022-08-22T11:39:52Z</time>
      </trkpt>
      <trkpt lat="42.924562" lon="-8.097910">
        <ele>414.456</ele>
        <time>2022-08-22T11:39:55Z</time>
      </trkpt>
      <trkpt lat="42.924555" lon="-8.097970">
        <ele>414.459</ele>
        <time>2022-08-22T11:39:58Z</time>
      </trkpt>
      <trkpt lat="42.924547" lon="-8.098047">
        <ele>414.414</ele>
        <time>2022-08-22T11:40:02Z</time>
      </trkpt>
      <trkpt lat="42.924539" lon="-8.098123">
        <ele>414.409</ele>
        <time>2022-08-22T11:40:06Z</time>
      </trkpt>
      <trkpt lat="42.924540" lon="-8.098186">
        <ele>414.456</ele>
        <time>2022-08-22T11:40:09Z</time>
      </trkpt>
      <trkpt lat="42.924537" lon="-8.098253">
        <ele>414.496</ele>
        <time>2022-08-22T11:40:13Z</time>
      </trkpt>
      <trkpt lat="42.924536" lon="-8.098321">
        <ele>414.566</ele>
        <time>2022-08-22T11:40:17Z</time>
      </trkpt>
      <trkpt lat="42.924544" lon="-8.098382">
        <ele>414.689</ele>
        <time>2022-08-22T11:40:20Z</time>
      </trkpt>
      <trkpt lat="42.924543" lon="-8.098451">
        <ele>414.671</ele>
        <time>2022-08-22T11:40:24Z</time>
      </trkpt>
      <trkpt lat="42.924546" lon="-8.098516">
        <ele>414.663</ele>
        <time>2022-08-22T11:40:28Z</time>
      </trkpt>
      <trkpt lat="42.924563" lon="-8.098590">
        <ele>414.593</ele>
        <time>2022-08-22T11:40:32Z</time>
      </trkpt>
      <trkpt lat="42.924578" lon="-8.098665">
        <ele>414.418</ele>
        <time>2022-08-22T11:40:36Z</time>
      </trkpt>
      <trkpt lat="42.924602" lon="-8.098730">
        <ele>414.163</ele>
        <time>2022-08-22T11:40:40Z</time>
      </trkpt>
      <trkpt lat="42.924622" lon="-8.098799">
        <ele>413.915</ele>
        <time>2022-08-22T11:40:45Z</time>
      </trkpt>
      <trkpt lat="42.924646" lon="-8.098856">
        <ele>413.865</ele>
        <time>2022-08-22T11:40:49Z</time>
      </trkpt>
      <trkpt lat="42.924653" lon="-8.098920">
        <ele>413.611</ele>
        <time>2022-08-22T11:40:53Z</time>
      </trkpt>
      <trkpt lat="42.924668" lon="-8.098989">
        <ele>413.309</ele>
        <time>2022-08-22T11:40:57Z</time>
      </trkpt>
      <trkpt lat="42.924676" lon="-8.099052">
        <ele>413.152</ele>
        <time>2022-08-22T11:41:01Z</time>
      </trkpt>
      <trkpt lat="42.924685" lon="-8.099116">
        <ele>412.952</ele>
        <time>2022-08-22T11:41:05Z</time>
      </trkpt>
      <trkpt lat="42.924691" lon="-8.099183">
        <ele>412.782</ele>
        <time>2022-08-22T11:41:09Z</time>
      </trkpt>
      <trkpt lat="42.924673" lon="-8.099255">
        <ele>412.445</ele>
        <time>2022-08-22T11:41:13Z</time>
      </trkpt>
      <trkpt lat="42.924678" lon="-8.099317">
        <ele>412.127</ele>
        <time>2022-08-22T11:41:16Z</time>
      </trkpt>
      <trkpt lat="42.924664" lon="-8.099375">
        <ele>411.729</ele>
        <time>2022-08-22T11:41:19Z</time>
      </trkpt>
      <trkpt lat="42.924652" lon="-8.099438">
        <ele>411.429</ele>
        <time>2022-08-22T11:41:23Z</time>
      </trkpt>
      <trkpt lat="42.924645" lon="-8.099505">
        <ele>411.214</ele>
        <time>2022-08-22T11:41:27Z</time>
      </trkpt>
      <trkpt lat="42.924641" lon="-8.099578">
        <ele>411.029</ele>
        <time>2022-08-22T11:41:31Z</time>
      </trkpt>
      <trkpt lat="42.924639" lon="-8.099652">
        <ele>410.749</ele>
        <time>2022-08-22T11:41:35Z</time>
      </trkpt>
      <trkpt lat="42.924632" lon="-8.099728">
        <ele>410.502</ele>
        <time>2022-08-22T11:41:40Z</time>
      </trkpt>
      <trkpt lat="42.924628" lon="-8.099803">
        <ele>410.322</ele>
        <time>2022-08-22T11:41:44Z</time>
      </trkpt>
      <trkpt lat="42.924628" lon="-8.099879">
        <ele>409.809</ele>
        <time>2022-08-22T11:41:48Z</time>
      </trkpt>
      <trkpt lat="42.924633" lon="-8.099955">
        <ele>409.585</ele>
        <time>2022-08-22T11:41:52Z</time>
      </trkpt>
      <trkpt lat="42.924632" lon="-8.100028">
        <ele>409.265</ele>
        <time>2022-08-22T11:41:56Z</time>
      </trkpt>
      <trkpt lat="42.924634" lon="-8.100103">
        <ele>408.935</ele>
        <time>2022-08-22T11:42:00Z</time>
      </trkpt>
      <trkpt lat="42.924632" lon="-8.100179">
        <ele>408.728</ele>
        <time>2022-08-22T11:42:04Z</time>
      </trkpt>
      <trkpt lat="42.924632" lon="-8.100254">
        <ele>408.540</ele>
        <time>2022-08-22T11:42:08Z</time>
      </trkpt>
      <trkpt lat="42.924627" lon="-8.100335">
        <ele>408.362</ele>
        <time>2022-08-22T11:42:12Z</time>
      </trkpt>
      <trkpt lat="42.924618" lon="-8.100408">
        <ele>408.182</ele>
        <time>2022-08-22T11:42:16Z</time>
      </trkpt>
      <trkpt lat="42.924620" lon="-8.100483">
        <ele>408.097</ele>
        <time>2022-08-22T11:42:20Z</time>
      </trkpt>
      <trkpt lat="42.924621" lon="-8.100558">
        <ele>407.942</ele>
        <time>2022-08-22T11:42:24Z</time>
      </trkpt>
      <trkpt lat="42.924620" lon="-8.100638">
        <ele>407.876</ele>
        <time>2022-08-22T11:42:28Z</time>
      </trkpt>
      <trkpt lat="42.924621" lon="-8.100717">
        <ele>407.690</ele>
        <time>2022-08-22T11:42:32Z</time>
      </trkpt>
      <trkpt lat="42.924620" lon="-8.100794">
        <ele>407.419</ele>
        <time>2022-08-22T11:42:36Z</time>
      </trkpt>
      <trkpt lat="42.924620" lon="-8.100870">
        <ele>407.309</ele>
        <time>2022-08-22T11:42:40Z</time>
      </trkpt>
      <trkpt lat="42.924621" lon="-8.100945">
        <ele>407.268</ele>
        <time>2022-08-22T11:42:44Z</time>
      </trkpt>
      <trkpt lat="42.924614" lon="-8.101018">
        <ele>406.968</ele>
        <time>2022-08-22T11:42:48Z</time>
      </trkpt>
      <trkpt lat="42.924610" lon="-8.101093">
        <ele>406.838</ele>
        <time>2022-08-22T11:42:52Z</time>
      </trkpt>
      <trkpt lat="42.924613" lon="-8.101167">
        <ele>406.781</ele>
        <time>2022-08-22T11:42:56Z</time>
      </trkpt>
      <trkpt lat="42.924620" lon="-8.101241">
        <ele>406.483</ele>
        <time>2022-08-22T11:43:00Z</time>
      </trkpt>
      <trkpt lat="42.924619" lon="-8.101317">
        <ele>406.435</ele>
        <time>2022-08-22T11:43:04Z</time>
      </trkpt>
      <trkpt lat="42.924630" lon="-8.101386">
        <ele>406.445</ele>
        <time>2022-08-22T11:43:08Z</time>
      </trkpt>
      <trkpt lat="42.924628" lon="-8.101461">
        <ele>406.490</ele>
        <time>2022-08-22T11:43:12Z</time>
      </trkpt>
      <trkpt lat="42.924631" lon="-8.101533">
        <ele>406.425</ele>
        <time>2022-08-22T11:43:16Z</time>
      </trkpt>
      <trkpt lat="42.924633" lon="-8.101605">
        <ele>406.452</ele>
        <time>2022-08-22T11:43:20Z</time>
      </trkpt>
      <trkpt lat="42.924641" lon="-8.101678">
        <ele>406.353</ele>
        <time>2022-08-22T11:43:24Z</time>
      </trkpt>
      <trkpt lat="42.924657" lon="-8.101746">
        <ele>406.108</ele>
        <time>2022-08-22T11:43:28Z</time>
      </trkpt>
      <trkpt lat="42.924677" lon="-8.101813">
        <ele>406.009</ele>
        <time>2022-08-22T11:43:32Z</time>
      </trkpt>
      <trkpt lat="42.924697" lon="-8.101879">
        <ele>405.836</ele>
        <time>2022-08-22T11:43:36Z</time>
      </trkpt>
      <trkpt lat="42.924723" lon="-8.101939">
        <ele>405.786</ele>
        <time>2022-08-22T11:43:41Z</time>
      </trkpt>
      <trkpt lat="42.924744" lon="-8.102005">
        <ele>405.596</ele>
        <time>2022-08-22T11:43:45Z</time>
      </trkpt>
      <trkpt lat="42.924770" lon="-8.102070">
        <ele>405.219</ele>
        <time>2022-08-22T11:43:50Z</time>
      </trkpt>
      <trkpt lat="42.924787" lon="-8.102139">
        <ele>405.061</ele>
        <time>2022-08-22T11:43:54Z</time>
      </trkpt>
      <trkpt lat="42.924801" lon="-8.102206">
        <ele>404.843</ele>
        <time>2022-08-22T11:43:58Z</time>
      </trkpt>
      <trkpt lat="42.924823" lon="-8.102267">
        <ele>404.553</ele>
        <time>2022-08-22T11:44:02Z</time>
      </trkpt>
      <trkpt lat="42.924840" lon="-8.102333">
        <ele>404.268</ele>
        <time>2022-08-22T11:44:07Z</time>
      </trkpt>
      <trkpt lat="42.924869" lon="-8.102398">
        <ele>404.023</ele>
        <time>2022-08-22T11:44:12Z</time>
      </trkpt>
      <trkpt lat="42.924886" lon="-8.102458">
        <ele>403.816</ele>
        <time>2022-08-22T11:44:15Z</time>
      </trkpt>
      <trkpt lat="42.924906" lon="-8.102529">
        <ele>403.676</ele>
        <time>2022-08-22T11:44:19Z</time>
      </trkpt>
      <trkpt lat="42.924925" lon="-8.102603">
        <ele>403.413</ele>
        <time>2022-08-22T11:44:23Z</time>
      </trkpt>
      <trkpt lat="42.924944" lon="-8.102670">
        <ele>403.109</ele>
        <time>2022-08-22T11:44:27Z</time>
      </trkpt>
      <trkpt lat="42.924965" lon="-8.102733">
        <ele>402.822</ele>
        <time>2022-08-22T11:44:31Z</time>
      </trkpt>
      <trkpt lat="42.924986" lon="-8.102798">
        <ele>402.672</ele>
        <time>2022-08-22T11:44:35Z</time>
      </trkpt>
      <trkpt lat="42.925005" lon="-8.102867">
        <ele>402.452</ele>
        <time>2022-08-22T11:44:39Z</time>
      </trkpt>
      <trkpt lat="42.925024" lon="-8.102935">
        <ele>402.055</ele>
        <time>2022-08-22T11:44:43Z</time>
      </trkpt>
      <trkpt lat="42.925052" lon="-8.102997">
        <ele>401.437</ele>
        <time>2022-08-22T11:44:47Z</time>
      </trkpt>
      <trkpt lat="42.925072" lon="-8.103068">
        <ele>400.889</ele>
        <time>2022-08-22T11:44:51Z</time>
      </trkpt>
      <trkpt lat="42.925095" lon="-8.103134">
        <ele>400.259</ele>
        <time>2022-08-22T11:44:55Z</time>
      </trkpt>
      <trkpt lat="42.925116" lon="-8.103202">
        <ele>399.834</ele>
        <time>2022-08-22T11:44:59Z</time>
      </trkpt>
      <trkpt lat="42.925137" lon="-8.103269">
        <ele>399.389</ele>
        <time>2022-08-22T11:45:03Z</time>
      </trkpt>
      <trkpt lat="42.925162" lon="-8.103335">
        <ele>399.023</ele>
        <time>2022-08-22T11:45:07Z</time>
      </trkpt>
      <trkpt lat="42.925180" lon="-8.103392">
        <ele>398.883</ele>
        <time>2022-08-22T11:45:11Z</time>
      </trkpt>
      <trkpt lat="42.925205" lon="-8.103464">
        <ele>398.411</ele>
        <time>2022-08-22T11:45:16Z</time>
      </trkpt>
      <trkpt lat="42.925229" lon="-8.103522">
        <ele>397.809</ele>
        <time>2022-08-22T11:45:20Z</time>
      </trkpt>
      <trkpt lat="42.925258" lon="-8.103588">
        <ele>397.213</ele>
        <time>2022-08-22T11:45:25Z</time>
      </trkpt>
      <trkpt lat="42.925293" lon="-8.103650">
        <ele>396.553</ele>
        <time>2022-08-22T11:45:30Z</time>
      </trkpt>
      <trkpt lat="42.925329" lon="-8.103701">
        <ele>395.433</ele>
        <time>2022-08-22T11:45:34Z</time>
      </trkpt>
      <trkpt lat="42.925365" lon="-8.103739">
        <ele>395.116</ele>
        <time>2022-08-22T11:45:37Z</time>
      </trkpt>
      <trkpt lat="42.925410" lon="-8.103781">
        <ele>394.668</ele>
        <time>2022-08-22T11:45:42Z</time>
      </trkpt>
      <trkpt lat="42.925457" lon="-8.103819">
        <ele>394.240</ele>
        <time>2022-08-22T11:45:46Z</time>
      </trkpt>
      <trkpt lat="42.925504" lon="-8.103853">
        <ele>393.660</ele>
        <time>2022-08-22T11:45:51Z</time>
      </trkpt>
      <trkpt lat="42.925545" lon="-8.103895">
        <ele>392.965</ele>
        <time>2022-08-22T11:45:55Z</time>
      </trkpt>
      <trkpt lat="42.925588" lon="-8.103921">
        <ele>392.230</ele>
        <time>2022-08-22T11:45:58Z</time>
      </trkpt>
      <trkpt lat="42.925628" lon="-8.103957">
        <ele>391.657</ele>
        <time>2022-08-22T11:46:02Z</time>
      </trkpt>
      <trkpt lat="42.925669" lon="-8.103985">
        <ele>391.200</ele>
        <time>2022-08-22T11:46:06Z</time>
      </trkpt>
      <trkpt lat="42.925711" lon="-8.104016">
        <ele>390.820</ele>
        <time>2022-08-22T11:46:10Z</time>
      </trkpt>
      <trkpt lat="42.925756" lon="-8.104048">
        <ele>390.309</ele>
        <time>2022-08-22T11:46:14Z</time>
      </trkpt>
      <trkpt lat="42.925810" lon="-8.104081">
        <ele>389.736</ele>
        <time>2022-08-22T11:46:18Z</time>
      </trkpt>
      <trkpt lat="42.925855" lon="-8.104105">
        <ele>389.096</ele>
        <time>2022-08-22T11:46:22Z</time>
      </trkpt>
      <trkpt lat="42.925909" lon="-8.104124">
        <ele>388.376</ele>
        <time>2022-08-22T11:46:26Z</time>
      </trkpt>
      <trkpt lat="42.925962" lon="-8.104147">
        <ele>387.539</ele>
        <time>2022-08-22T11:46:30Z</time>
      </trkpt>
      <trkpt lat="42.926017" lon="-8.104150">
        <ele>386.411</ele>
        <time>2022-08-22T11:46:34Z</time>
      </trkpt>
      <trkpt lat="42.926064" lon="-8.104163">
        <ele>386.143</ele>
        <time>2022-08-22T11:46:38Z</time>
      </trkpt>
      <trkpt lat="42.926112" lon="-8.104162">
        <ele>385.553</ele>
        <time>2022-08-22T11:46:42Z</time>
      </trkpt>
      <trkpt lat="42.926160" lon="-8.104165">
        <ele>384.988</ele>
        <time>2022-08-22T11:46:46Z</time>
      </trkpt>
      <trkpt lat="42.926206" lon="-8.104167">
        <ele>384.463</ele>
        <time>2022-08-22T11:46:49Z</time>
      </trkpt>
      <trkpt lat="42.926260" lon="-8.104175">
        <ele>384.033</ele>
        <time>2022-08-22T11:46:53Z</time>
      </trkpt>
      <trkpt lat="42.926305" lon="-8.104187">
        <ele>383.823</ele>
        <time>2022-08-22T11:46:56Z</time>
      </trkpt>
      <trkpt lat="42.926363" lon="-8.104200">
        <ele>383.615</ele>
        <time>2022-08-22T11:47:00Z</time>
      </trkpt>
      <trkpt lat="42.926419" lon="-8.104218">
        <ele>383.509</ele>
        <time>2022-08-22T11:47:04Z</time>
      </trkpt>
      <trkpt lat="42.926470" lon="-8.104239">
        <ele>383.534</ele>
        <time>2022-08-22T11:47:08Z</time>
      </trkpt>
      <trkpt lat="42.926515" lon="-8.104271">
        <ele>383.464</ele>
        <time>2022-08-22T11:47:13Z</time>
      </trkpt>
      <trkpt lat="42.926560" lon="-8.104298">
        <ele>383.394</ele>
        <time>2022-08-22T11:47:17Z</time>
      </trkpt>
      <trkpt lat="42.926595" lon="-8.104345">
        <ele>383.297</ele>
        <time>2022-08-22T11:47:22Z</time>
      </trkpt>
      <trkpt lat="42.926630" lon="-8.104408">
        <ele>383.119</ele>
        <time>2022-08-22T11:47:28Z</time>
      </trkpt>
      <trkpt lat="42.926655" lon="-8.104461">
        <ele>383.011</ele>
        <time>2022-08-22T11:47:32Z</time>
      </trkpt>
      <trkpt lat="42.926668" lon="-8.104527">
        <ele>382.921</ele>
        <time>2022-08-22T11:47:36Z</time>
      </trkpt>
      <trkpt lat="42.926673" lon="-8.104603">
        <ele>382.936</ele>
        <time>2022-08-22T11:47:41Z</time>
      </trkpt>
      <trkpt lat="42.926698" lon="-8.104655">
        <ele>382.991</ele>
        <time>2022-08-22T11:47:44Z</time>
      </trkpt>
      <trkpt lat="42.926721" lon="-8.104708">
        <ele>382.942</ele>
        <time>2022-08-22T11:47:47Z</time>
      </trkpt>
      <trkpt lat="42.926744" lon="-8.104773">
        <ele>382.922</ele>
        <time>2022-08-22T11:47:51Z</time>
      </trkpt>
      <trkpt lat="42.926764" lon="-8.104834">
        <ele>382.914</ele>
        <time>2022-08-22T11:47:54Z</time>
      </trkpt>
      <trkpt lat="42.926783" lon="-8.104892">
        <ele>382.909</ele>
        <time>2022-08-22T11:47:57Z</time>
      </trkpt>
      <trkpt lat="42.926798" lon="-8.104962">
        <ele>382.985</ele>
        <time>2022-08-22T11:48:01Z</time>
      </trkpt>
      <trkpt lat="42.926818" lon="-8.105033">
        <ele>382.985</ele>
        <time>2022-08-22T11:48:05Z</time>
      </trkpt>
      <trkpt lat="42.926831" lon="-8.105095">
        <ele>383.055</ele>
        <time>2022-08-22T11:48:08Z</time>
      </trkpt>
      <trkpt lat="42.926846" lon="-8.105164">
        <ele>383.318</ele>
        <time>2022-08-22T11:48:12Z</time>
      </trkpt>
      <trkpt lat="42.926868" lon="-8.105236">
        <ele>383.750</ele>
        <time>2022-08-22T11:48:16Z</time>
      </trkpt>
      <trkpt lat="42.926888" lon="-8.105309">
        <ele>383.942</ele>
        <time>2022-08-22T11:48:20Z</time>
      </trkpt>
      <trkpt lat="42.926912" lon="-8.105371">
        <ele>384.292</ele>
        <time>2022-08-22T11:48:25Z</time>
      </trkpt>
      <trkpt lat="42.926933" lon="-8.105429">
        <ele>384.727</ele>
        <time>2022-08-22T11:48:30Z</time>
      </trkpt>
      <trkpt lat="42.926960" lon="-8.105486">
        <ele>385.362</ele>
        <time>2022-08-22T11:48:34Z</time>
      </trkpt>
      <trkpt lat="42.926967" lon="-8.105549">
        <ele>385.849</ele>
        <time>2022-08-22T11:48:38Z</time>
      </trkpt>
      <trkpt lat="42.926980" lon="-8.105613">
        <ele>386.202</ele>
        <time>2022-08-22T11:48:42Z</time>
      </trkpt>
      <trkpt lat="42.926999" lon="-8.105676">
        <ele>386.622</ele>
        <time>2022-08-22T11:48:46Z</time>
      </trkpt>
      <trkpt lat="42.927020" lon="-8.105732">
        <ele>387.109</ele>
        <time>2022-08-22T11:48:50Z</time>
      </trkpt>
      <trkpt lat="42.927042" lon="-8.105790">
        <ele>387.625</ele>
        <time>2022-08-22T11:48:54Z</time>
      </trkpt>
      <trkpt lat="42.927065" lon="-8.105865">
        <ele>387.955</ele>
        <time>2022-08-22T11:48:58Z</time>
      </trkpt>
      <trkpt lat="42.927083" lon="-8.105934">
        <ele>388.275</ele>
        <time>2022-08-22T11:49:03Z</time>
      </trkpt>
      <trkpt lat="42.927110" lon="-8.106004">
        <ele>388.628</ele>
        <time>2022-08-22T11:49:08Z</time>
      </trkpt>
      <trkpt lat="42.927126" lon="-8.106073">
        <ele>389.210</ele>
        <time>2022-08-22T11:49:12Z</time>
      </trkpt>
      <trkpt lat="42.927148" lon="-8.106142">
        <ele>389.412</ele>
        <time>2022-08-22T11:49:16Z</time>
      </trkpt>
      <trkpt lat="42.927168" lon="-8.106208">
        <ele>389.762</ele>
        <time>2022-08-22T11:49:20Z</time>
      </trkpt>
      <trkpt lat="42.927185" lon="-8.106284">
        <ele>389.827</ele>
        <time>2022-08-22T11:49:24Z</time>
      </trkpt>
      <trkpt lat="42.927201" lon="-8.106360">
        <ele>390.222</ele>
        <time>2022-08-22T11:49:28Z</time>
      </trkpt>
      <trkpt lat="42.927222" lon="-8.106426">
        <ele>390.577</ele>
        <time>2022-08-22T11:49:32Z</time>
      </trkpt>
      <trkpt lat="42.927244" lon="-8.106490">
        <ele>390.861</ele>
        <time>2022-08-22T11:49:36Z</time>
      </trkpt>
      <trkpt lat="42.927261" lon="-8.106551">
        <ele>390.927</ele>
        <time>2022-08-22T11:49:40Z</time>
      </trkpt>
      <trkpt lat="42.927277" lon="-8.106609">
        <ele>391.009</ele>
        <time>2022-08-22T11:49:44Z</time>
      </trkpt>
      <trkpt lat="42.927298" lon="-8.106679">
        <ele>391.188</ele>
        <time>2022-08-22T11:49:49Z</time>
      </trkpt>
      <trkpt lat="42.927317" lon="-8.106742">
        <ele>391.278</ele>
        <time>2022-08-22T11:49:53Z</time>
      </trkpt>
      <trkpt lat="42.927334" lon="-8.106802">
        <ele>391.398</ele>
        <time>2022-08-22T11:49:57Z</time>
      </trkpt>
      <trkpt lat="42.927352" lon="-8.106865">
        <ele>391.581</ele>
        <time>2022-08-22T11:50:01Z</time>
      </trkpt>
      <trkpt lat="42.927368" lon="-8.106931">
        <ele>391.793</ele>
        <time>2022-08-22T11:50:05Z</time>
      </trkpt>
      <trkpt lat="42.927389" lon="-8.106986">
        <ele>391.935</ele>
        <time>2022-08-22T11:50:08Z</time>
      </trkpt>
      <trkpt lat="42.927409" lon="-8.107060">
        <ele>392.185</ele>
        <time>2022-08-22T11:50:12Z</time>
      </trkpt>
      <trkpt lat="42.927428" lon="-8.107121">
        <ele>392.320</ele>
        <time>2022-08-22T11:50:16Z</time>
      </trkpt>
      <trkpt lat="42.927445" lon="-8.107191">
        <ele>392.515</ele>
        <time>2022-08-22T11:50:20Z</time>
      </trkpt>
      <trkpt lat="42.927459" lon="-8.107250">
        <ele>392.762</ele>
        <time>2022-08-22T11:50:24Z</time>
      </trkpt>
      <trkpt lat="42.927480" lon="-8.107314">
        <ele>392.883</ele>
        <time>2022-08-22T11:50:28Z</time>
      </trkpt>
      <trkpt lat="42.927507" lon="-8.107379">
        <ele>392.911</ele>
        <time>2022-08-22T11:50:32Z</time>
      </trkpt>
      <trkpt lat="42.927533" lon="-8.107452">
        <ele>393.209</ele>
        <time>2022-08-22T11:50:36Z</time>
      </trkpt>
      <trkpt lat="42.927556" lon="-8.107521">
        <ele>393.577</ele>
        <time>2022-08-22T11:50:40Z</time>
      </trkpt>
      <trkpt lat="42.927570" lon="-8.107587">
        <ele>393.597</ele>
        <time>2022-08-22T11:50:44Z</time>
      </trkpt>
      <trkpt lat="42.927595" lon="-8.107645">
        <ele>393.537</ele>
        <time>2022-08-22T11:50:48Z</time>
      </trkpt>
      <trkpt lat="42.927617" lon="-8.107701">
        <ele>393.610</ele>
        <time>2022-08-22T11:50:52Z</time>
      </trkpt>
      <trkpt lat="42.927634" lon="-8.107758">
        <ele>393.672</ele>
        <time>2022-08-22T11:50:57Z</time>
      </trkpt>
      <trkpt lat="42.927647" lon="-8.107817">
        <ele>393.784</ele>
        <time>2022-08-22T11:51:01Z</time>
      </trkpt>
      <trkpt lat="42.927660" lon="-8.107879">
        <ele>393.954</ele>
        <time>2022-08-22T11:51:05Z</time>
      </trkpt>
      <trkpt lat="42.927678" lon="-8.107948">
        <ele>394.249</ele>
        <time>2022-08-22T11:51:10Z</time>
      </trkpt>
      <trkpt lat="42.927696" lon="-8.108012">
        <ele>394.624</ele>
        <time>2022-08-22T11:51:14Z</time>
      </trkpt>
      <trkpt lat="42.927708" lon="-8.108073">
        <ele>394.978</ele>
        <time>2022-08-22T11:51:18Z</time>
      </trkpt>
      <trkpt lat="42.927725" lon="-8.108135">
        <ele>395.033</ele>
        <time>2022-08-22T11:51:22Z</time>
      </trkpt>
      <trkpt lat="42.927739" lon="-8.108197">
        <ele>395.126</ele>
        <time>2022-08-22T11:51:26Z</time>
      </trkpt>
      <trkpt lat="42.927756" lon="-8.108257">
        <ele>395.509</ele>
        <time>2022-08-22T11:51:30Z</time>
      </trkpt>
      <trkpt lat="42.927782" lon="-8.108320">
        <ele>395.878</ele>
        <time>2022-08-22T11:51:34Z</time>
      </trkpt>
      <trkpt lat="42.927808" lon="-8.108394">
        <ele>396.128</ele>
        <time>2022-08-22T11:51:39Z</time>
      </trkpt>
      <trkpt lat="42.927822" lon="-8.108466">
        <ele>396.538</ele>
        <time>2022-08-22T11:51:43Z</time>
      </trkpt>
      <trkpt lat="42.927836" lon="-8.108528">
        <ele>396.821</ele>
        <time>2022-08-22T11:51:47Z</time>
      </trkpt>
      <trkpt lat="42.927851" lon="-8.108587">
        <ele>397.243</ele>
        <time>2022-08-22T11:51:51Z</time>
      </trkpt>
      <trkpt lat="42.927868" lon="-8.108656">
        <ele>397.655</ele>
        <time>2022-08-22T11:51:55Z</time>
      </trkpt>
      <trkpt lat="42.927888" lon="-8.108728">
        <ele>398.045</ele>
        <time>2022-08-22T11:51:59Z</time>
      </trkpt>
      <trkpt lat="42.927908" lon="-8.108788">
        <ele>398.490</ele>
        <time>2022-08-22T11:52:02Z</time>
      </trkpt>
      <trkpt lat="42.927927" lon="-8.108857">
        <ele>398.795</ele>
        <time>2022-08-22T11:52:06Z</time>
      </trkpt>
      <trkpt lat="42.927945" lon="-8.108915">
        <ele>398.994</ele>
        <time>2022-08-22T11:52:10Z</time>
      </trkpt>
      <trkpt lat="42.927963" lon="-8.108973">
        <ele>399.157</ele>
        <time>2022-08-22T11:52:14Z</time>
      </trkpt>
      <trkpt lat="42.927979" lon="-8.109032">
        <ele>399.422</ele>
        <time>2022-08-22T11:52:17Z</time>
      </trkpt>
      <trkpt lat="42.928001" lon="-8.109089">
        <ele>399.709</ele>
        <time>2022-08-22T11:52:22Z</time>
      </trkpt>
      <trkpt lat="42.928016" lon="-8.109148">
        <ele>400.030</ele>
        <time>2022-08-22T11:52:26Z</time>
      </trkpt>
      <trkpt lat="42.928033" lon="-8.109210">
        <ele>400.340</ele>
        <time>2022-08-22T11:52:30Z</time>
      </trkpt>
      <trkpt lat="42.928060" lon="-8.109268">
        <ele>400.750</ele>
        <time>2022-08-22T11:52:34Z</time>
      </trkpt>
      <trkpt lat="42.928082" lon="-8.109333">
        <ele>401.283</ele>
        <time>2022-08-22T11:52:38Z</time>
      </trkpt>
      <trkpt lat="42.928099" lon="-8.109409">
        <ele>401.775</ele>
        <time>2022-08-22T11:52:42Z</time>
      </trkpt>
      <trkpt lat="42.928109" lon="-8.109483">
        <ele>402.187</ele>
        <time>2022-08-22T11:52:46Z</time>
      </trkpt>
      <trkpt lat="42.928115" lon="-8.109550">
        <ele>402.567</ele>
        <time>2022-08-22T11:52:50Z</time>
      </trkpt>
      <trkpt lat="42.928126" lon="-8.109618">
        <ele>402.992</ele>
        <time>2022-08-22T11:52:54Z</time>
      </trkpt>
      <trkpt lat="42.928133" lon="-8.109680">
        <ele>403.337</ele>
        <time>2022-08-22T11:52:58Z</time>
      </trkpt>
      <trkpt lat="42.928130" lon="-8.109752">
        <ele>403.731</ele>
        <time>2022-08-22T11:53:03Z</time>
      </trkpt>
      <trkpt lat="42.928129" lon="-8.109832">
        <ele>404.161</ele>
        <time>2022-08-22T11:53:07Z</time>
      </trkpt>
      <trkpt lat="42.928123" lon="-8.109914">
        <ele>404.507</ele>
        <time>2022-08-22T11:53:12Z</time>
      </trkpt>
      <trkpt lat="42.928114" lon="-8.109982">
        <ele>405.009</ele>
        <time>2022-08-22T11:53:16Z</time>
      </trkpt>
      <trkpt lat="42.928109" lon="-8.110052">
        <ele>405.594</ele>
        <time>2022-08-22T11:53:20Z</time>
      </trkpt>
      <trkpt lat="42.928107" lon="-8.110114">
        <ele>405.754</ele>
        <time>2022-08-22T11:53:24Z</time>
      </trkpt>
      <trkpt lat="42.928103" lon="-8.110183">
        <ele>406.024</ele>
        <time>2022-08-22T11:53:28Z</time>
      </trkpt>
      <trkpt lat="42.928110" lon="-8.110245">
        <ele>406.267</ele>
        <time>2022-08-22T11:53:32Z</time>
      </trkpt>
      <trkpt lat="42.928105" lon="-8.110307">
        <ele>406.419</ele>
        <time>2022-08-22T11:53:36Z</time>
      </trkpt>
      <trkpt lat="42.928102" lon="-8.110374">
        <ele>406.781</ele>
        <time>2022-08-22T11:53:40Z</time>
      </trkpt>
      <trkpt lat="42.928093" lon="-8.110441">
        <ele>407.081</ele>
        <time>2022-08-22T11:53:44Z</time>
      </trkpt>
      <trkpt lat="42.928091" lon="-8.110510">
        <ele>407.336</ele>
        <time>2022-08-22T11:53:48Z</time>
      </trkpt>
      <trkpt lat="42.928096" lon="-8.110583">
        <ele>407.631</ele>
        <time>2022-08-22T11:53:52Z</time>
      </trkpt>
      <trkpt lat="42.928098" lon="-8.110651">
        <ele>407.998</ele>
        <time>2022-08-22T11:53:56Z</time>
      </trkpt>
      <trkpt lat="42.928090" lon="-8.110728">
        <ele>408.415</ele>
        <time>2022-08-22T11:54:01Z</time>
      </trkpt>
      <trkpt lat="42.928085" lon="-8.110807">
        <ele>408.926</ele>
        <time>2022-08-22T11:54:06Z</time>
      </trkpt>
      <trkpt lat="42.928078" lon="-8.110881">
        <ele>409.709</ele>
        <time>2022-08-22T11:54:12Z</time>
      </trkpt>
      <trkpt lat="42.928054" lon="-8.110941">
        <ele>410.360</ele>
        <time>2022-08-22T11:54:17Z</time>
      </trkpt>
      <trkpt lat="42.928031" lon="-8.111005">
        <ele>411.330</ele>
        <time>2022-08-22T11:54:21Z</time>
      </trkpt>
      <trkpt lat="42.928010" lon="-8.111066">
        <ele>411.720</ele>
        <time>2022-08-22T11:54:26Z</time>
      </trkpt>
      <trkpt lat="42.927978" lon="-8.111130">
        <ele>412.393</ele>
        <time>2022-08-22T11:54:30Z</time>
      </trkpt>
      <trkpt lat="42.927954" lon="-8.111185">
        <ele>412.875</ele>
        <time>2022-08-22T11:54:35Z</time>
      </trkpt>
      <trkpt lat="42.927943" lon="-8.111258">
        <ele>413.367</ele>
        <time>2022-08-22T11:54:39Z</time>
      </trkpt>
      <trkpt lat="42.927921" lon="-8.111312">
        <ele>413.827</ele>
        <time>2022-08-22T11:54:44Z</time>
      </trkpt>
      <trkpt lat="42.927895" lon="-8.111380">
        <ele>414.352</ele>
        <time>2022-08-22T11:54:49Z</time>
      </trkpt>
      <trkpt lat="42.927867" lon="-8.111441">
        <ele>414.997</ele>
        <time>2022-08-22T11:54:53Z</time>
      </trkpt>
      <trkpt lat="42.927838" lon="-8.111504">
        <ele>415.641</ele>
        <time>2022-08-22T11:54:58Z</time>
      </trkpt>
      <trkpt lat="42.927813" lon="-8.111557">
        <ele>416.281</ele>
        <time>2022-08-22T11:55:02Z</time>
      </trkpt>
      <trkpt lat="42.927779" lon="-8.111604">
        <ele>416.809</ele>
        <time>2022-08-22T11:55:06Z</time>
      </trkpt>
      <trkpt lat="42.927740" lon="-8.111649">
        <ele>417.409</ele>
        <time>2022-08-22T11:55:11Z</time>
      </trkpt>
      <trkpt lat="42.927705" lon="-8.111701">
        <ele>417.835</ele>
        <time>2022-08-22T11:55:15Z</time>
      </trkpt>
      <trkpt lat="42.927666" lon="-8.111743">
        <ele>418.245</ele>
        <time>2022-08-22T11:55:19Z</time>
      </trkpt>
      <trkpt lat="42.927636" lon="-8.111799">
        <ele>418.545</ele>
        <time>2022-08-22T11:55:23Z</time>
      </trkpt>
      <trkpt lat="42.927600" lon="-8.111851">
        <ele>418.738</ele>
        <time>2022-08-22T11:55:27Z</time>
      </trkpt>
      <trkpt lat="42.927555" lon="-8.111888">
        <ele>419.090</ele>
        <time>2022-08-22T11:55:31Z</time>
      </trkpt>
      <trkpt lat="42.927511" lon="-8.111922">
        <ele>419.392</ele>
        <time>2022-08-22T11:55:35Z</time>
      </trkpt>
      <trkpt lat="42.927480" lon="-8.111971">
        <ele>419.692</ele>
        <time>2022-08-22T11:55:39Z</time>
      </trkpt>
      <trkpt lat="42.927447" lon="-8.112022">
        <ele>420.097</ele>
        <time>2022-08-22T11:55:43Z</time>
      </trkpt>
      <trkpt lat="42.927410" lon="-8.112073">
        <ele>420.512</ele>
        <time>2022-08-22T11:55:47Z</time>
      </trkpt>
      <trkpt lat="42.927378" lon="-8.112121">
        <ele>421.098</ele>
        <time>2022-08-22T11:55:52Z</time>
      </trkpt>
      <trkpt lat="42.927344" lon="-8.112163">
        <ele>421.515</ele>
        <time>2022-08-22T11:55:55Z</time>
      </trkpt>
      <trkpt lat="42.927310" lon="-8.112213">
        <ele>422.126</ele>
        <time>2022-08-22T11:55:59Z</time>
      </trkpt>
      <trkpt lat="42.927278" lon="-8.112271">
        <ele>422.709</ele>
        <time>2022-08-22T11:56:03Z</time>
      </trkpt>
      <trkpt lat="42.927247" lon="-8.112320">
        <ele>423.290</ele>
        <time>2022-08-22T11:56:07Z</time>
      </trkpt>
      <trkpt lat="42.927218" lon="-8.112381">
        <ele>423.770</ele>
        <time>2022-08-22T11:56:12Z</time>
      </trkpt>
      <trkpt lat="42.927182" lon="-8.112433">
        <ele>424.350</ele>
        <time>2022-08-22T11:56:17Z</time>
      </trkpt>
      <trkpt lat="42.927147" lon="-8.112495">
        <ele>425.093</ele>
        <time>2022-08-22T11:56:22Z</time>
      </trkpt>
      <trkpt lat="42.927124" lon="-8.112549">
        <ele>425.765</ele>
        <time>2022-08-22T11:56:27Z</time>
      </trkpt>
      <trkpt lat="42.927155" lon="-8.112594">
        <ele>426.477</ele>
        <time>2022-08-22T11:56:34Z</time>
      </trkpt>
      <trkpt lat="42.927202" lon="-8.112619">
        <ele>427.377</ele>
        <time>2022-08-22T11:56:40Z</time>
      </trkpt>
      <trkpt lat="42.927247" lon="-8.112650">
        <ele>428.642</ele>
        <time>2022-08-22T11:56:45Z</time>
      </trkpt>
      <trkpt lat="42.927286" lon="-8.112693">
        <ele>429.997</ele>
        <time>2022-08-22T11:56:50Z</time>
      </trkpt>
      <trkpt lat="42.927326" lon="-8.112747">
        <ele>430.812</ele>
        <time>2022-08-22T11:56:55Z</time>
      </trkpt>
      <trkpt lat="42.927364" lon="-8.112790">
        <ele>431.632</ele>
        <time>2022-08-22T11:56:59Z</time>
      </trkpt>
      <trkpt lat="42.927398" lon="-8.112835">
        <ele>432.505</ele>
        <time>2022-08-22T11:57:03Z</time>
      </trkpt>
      <trkpt lat="42.927438" lon="-8.112882">
        <ele>433.209</ele>
        <time>2022-08-22T11:57:07Z</time>
      </trkpt>
      <trkpt lat="42.927476" lon="-8.112928">
        <ele>433.832</ele>
        <time>2022-08-22T11:57:11Z</time>
      </trkpt>
      <trkpt lat="42.927534" lon="-8.112941">
        <ele>434.262</ele>
        <time>2022-08-22T11:57:16Z</time>
      </trkpt>
      <trkpt lat="42.927593" lon="-8.112947">
        <ele>434.692</ele>
        <time>2022-08-22T11:57:20Z</time>
      </trkpt>
      <trkpt lat="42.927645" lon="-8.112947">
        <ele>435.095</ele>
        <time>2022-08-22T11:57:24Z</time>
      </trkpt>
      <trkpt lat="42.927693" lon="-8.112943">
        <ele>435.177</ele>
        <time>2022-08-22T11:57:28Z</time>
      </trkpt>
      <trkpt lat="42.927742" lon="-8.112923">
        <ele>435.259</ele>
        <time>2022-08-22T11:57:32Z</time>
      </trkpt>
      <trkpt lat="42.927792" lon="-8.112921">
        <ele>435.389</ele>
        <time>2022-08-22T11:57:36Z</time>
      </trkpt>
      <trkpt lat="42.927842" lon="-8.112952">
        <ele>435.424</ele>
        <time>2022-08-22T11:57:40Z</time>
      </trkpt>
      <trkpt lat="42.927885" lon="-8.112999">
        <ele>435.579</ele>
        <time>2022-08-22T11:57:45Z</time>
      </trkpt>
      <trkpt lat="42.927913" lon="-8.113067">
        <ele>435.722</ele>
        <time>2022-08-22T11:57:51Z</time>
      </trkpt>
      <trkpt lat="42.927947" lon="-8.113117">
        <ele>435.762</ele>
        <time>2022-08-22T11:57:56Z</time>
      </trkpt>
      <trkpt lat="42.927989" lon="-8.113168">
        <ele>435.808</ele>
        <time>2022-08-22T11:58:00Z</time>
      </trkpt>
      <trkpt lat="42.928027" lon="-8.113222">
        <ele>435.609</ele>
        <time>2022-08-22T11:58:04Z</time>
      </trkpt>
      <trkpt lat="42.928066" lon="-8.113261">
        <ele>435.533</ele>
        <time>2022-08-22T11:58:07Z</time>
      </trkpt>
      <trkpt lat="42.928113" lon="-8.113310">
        <ele>435.223</ele>
        <time>2022-08-22T11:58:11Z</time>
      </trkpt>
      <trkpt lat="42.928161" lon="-8.113354">
        <ele>434.823</ele>
        <time>2022-08-22T11:58:15Z</time>
      </trkpt>
      <trkpt lat="42.928211" lon="-8.113389">
        <ele>434.426</ele>
        <time>2022-08-22T11:58:20Z</time>
      </trkpt>
      <trkpt lat="42.928256" lon="-8.113426">
        <ele>434.018</ele>
        <time>2022-08-22T11:58:25Z</time>
      </trkpt>
      <trkpt lat="42.928295" lon="-8.113464">
        <ele>433.560</ele>
        <time>2022-08-22T11:58:30Z</time>
      </trkpt>
      <trkpt lat="42.928334" lon="-8.113502">
        <ele>433.260</ele>
        <time>2022-08-22T11:58:34Z</time>
      </trkpt>
      <trkpt lat="42.928374" lon="-8.113550">
        <ele>432.755</ele>
        <time>2022-08-22T11:58:38Z</time>
      </trkpt>
      <trkpt lat="42.928415" lon="-8.113598">
        <ele>432.210</ele>
        <time>2022-08-22T11:58:42Z</time>
      </trkpt>
      <trkpt lat="42.928442" lon="-8.113648">
        <ele>431.765</ele>
        <time>2022-08-22T11:58:46Z</time>
      </trkpt>
      <trkpt lat="42.928478" lon="-8.113716">
        <ele>431.268</ele>
        <time>2022-08-22T11:58:50Z</time>
      </trkpt>
      <trkpt lat="42.928504" lon="-8.113780">
        <ele>430.614</ele>
        <time>2022-08-22T11:58:54Z</time>
      </trkpt>
      <trkpt lat="42.928529" lon="-8.113837">
        <ele>429.909</ele>
        <time>2022-08-22T11:58:58Z</time>
      </trkpt>
      <trkpt lat="42.928549" lon="-8.113896">
        <ele>429.177</ele>
        <time>2022-08-22T11:59:03Z</time>
      </trkpt>
      <trkpt lat="42.928581" lon="-8.113963">
        <ele>427.917</ele>
        <time>2022-08-22T11:59:08Z</time>
      </trkpt>
      <trkpt lat="42.928598" lon="-8.114025">
        <ele>427.557</ele>
        <time>2022-08-22T11:59:11Z</time>
      </trkpt>
      <trkpt lat="42.928615" lon="-8.114093">
        <ele>426.850</ele>
        <time>2022-08-22T11:59:15Z</time>
      </trkpt>
      <trkpt lat="42.928628" lon="-8.114153">
        <ele>426.312</ele>
        <time>2022-08-22T11:59:18Z</time>
      </trkpt>
      <trkpt lat="42.928649" lon="-8.114224">
        <ele>425.684</ele>
        <time>2022-08-22T11:59:22Z</time>
      </trkpt>
      <trkpt lat="42.928665" lon="-8.114299">
        <ele>424.944</ele>
        <time>2022-08-22T11:59:27Z</time>
      </trkpt>
      <trkpt lat="42.928674" lon="-8.114370">
        <ele>424.489</ele>
        <time>2022-08-22T11:59:31Z</time>
      </trkpt>
      <trkpt lat="42.928696" lon="-8.114441">
        <ele>423.714</ele>
        <time>2022-08-22T11:59:36Z</time>
      </trkpt>
      <trkpt lat="42.928703" lon="-8.114506">
        <ele>422.494</ele>
        <time>2022-08-22T11:59:40Z</time>
      </trkpt>
      <trkpt lat="42.928718" lon="-8.114573">
        <ele>422.057</ele>
        <time>2022-08-22T11:59:44Z</time>
      </trkpt>
      <trkpt lat="42.928731" lon="-8.114634">
        <ele>421.322</ele>
        <time>2022-08-22T11:59:48Z</time>
      </trkpt>
      <trkpt lat="42.928744" lon="-8.114703">
        <ele>420.609</ele>
        <time>2022-08-22T11:59:52Z</time>
      </trkpt>
      <trkpt lat="42.928752" lon="-8.114772">
        <ele>419.890</ele>
        <time>2022-08-22T11:59:56Z</time>
      </trkpt>
      <trkpt lat="42.928762" lon="-8.114847">
        <ele>419.110</ele>
        <time>2022-08-22T12:00:01Z</time>
      </trkpt>
      <trkpt lat="42.928768" lon="-8.114913">
        <ele>418.690</ele>
        <time>2022-08-22T12:00:05Z</time>
      </trkpt>
      <trkpt lat="42.928786" lon="-8.114981">
        <ele>417.993</ele>
        <time>2022-08-22T12:00:10Z</time>
      </trkpt>
      <trkpt lat="42.928800" lon="-8.115060">
        <ele>417.295</ele>
        <time>2022-08-22T12:00:15Z</time>
      </trkpt>
      <trkpt lat="42.928818" lon="-8.115117">
        <ele>416.537</ele>
        <time>2022-08-22T12:00:19Z</time>
      </trkpt>
      <trkpt lat="42.928837" lon="-8.115187">
        <ele>415.877</ele>
        <time>2022-08-22T12:00:24Z</time>
      </trkpt>
      <trkpt lat="42.928850" lon="-8.115261">
        <ele>415.272</ele>
        <time>2022-08-22T12:00:29Z</time>
      </trkpt>
      <trkpt lat="42.928864" lon="-8.115337">
        <ele>414.627</ele>
        <time>2022-08-22T12:00:34Z</time>
      </trkpt>
      <trkpt lat="42.928876" lon="-8.115399">
        <ele>414.497</ele>
        <time>2022-08-22T12:00:38Z</time>
      </trkpt>
      <trkpt lat="42.928893" lon="-8.115481">
        <ele>413.623</ele>
        <time>2022-08-22T12:00:42Z</time>
      </trkpt>
      <trkpt lat="42.928913" lon="-8.115541">
        <ele>413.025</ele>
        <time>2022-08-22T12:00:45Z</time>
      </trkpt>
      <trkpt lat="42.928939" lon="-8.115611">
        <ele>412.309</ele>
        <time>2022-08-22T12:00:49Z</time>
      </trkpt>
      <trkpt lat="42.928955" lon="-8.115680">
        <ele>412.170</ele>
        <time>2022-08-22T12:00:54Z</time>
      </trkpt>
      <trkpt lat="42.928968" lon="-8.115772">
        <ele>411.350</ele>
        <time>2022-08-22T12:01:00Z</time>
      </trkpt>
      <trkpt lat="42.928983" lon="-8.115840">
        <ele>411.190</ele>
        <time>2022-08-22T12:01:06Z</time>
      </trkpt>
      <trkpt lat="42.928987" lon="-8.115903">
        <ele>410.543</ele>
        <time>2022-08-22T12:01:11Z</time>
      </trkpt>
      <trkpt lat="42.928993" lon="-8.115973">
        <ele>409.545</ele>
        <time>2022-08-22T12:01:16Z</time>
      </trkpt>
      <trkpt lat="42.929017" lon="-8.116026">
        <ele>409.277</ele>
        <time>2022-08-22T12:01:21Z</time>
      </trkpt>
      <trkpt lat="42.929051" lon="-8.116082">
        <ele>408.787</ele>
        <time>2022-08-22T12:01:32Z</time>
      </trkpt>
      <trkpt lat="42.929061" lon="-8.116143">
        <ele>408.122</ele>
        <time>2022-08-22T12:01:39Z</time>
      </trkpt>
      <trkpt lat="42.929031" lon="-8.116215">
        <ele>407.497</ele>
        <time>2022-08-22T12:02:49Z</time>
      </trkpt>
      <trkpt lat="42.929057" lon="-8.116274">
        <ele>406.947</ele>
        <time>2022-08-22T12:03:18Z</time>
      </trkpt>
      <trkpt lat="42.929070" lon="-8.116337">
        <ele>406.129</ele>
        <time>2022-08-22T12:03:23Z</time>
      </trkpt>
      <trkpt lat="42.929083" lon="-8.116401">
        <ele>405.421</ele>
        <time>2022-08-22T12:03:27Z</time>
      </trkpt>
      <trkpt lat="42.929091" lon="-8.116464">
        <ele>405.109</ele>
        <time>2022-08-22T12:03:31Z</time>
      </trkpt>
      <trkpt lat="42.929103" lon="-8.116529">
        <ele>404.655</ele>
        <time>2022-08-22T12:03:35Z</time>
      </trkpt>
      <trkpt lat="42.929121" lon="-8.116605">
        <ele>404.275</ele>
        <time>2022-08-22T12:03:40Z</time>
      </trkpt>
      <trkpt lat="42.929129" lon="-8.116682">
        <ele>403.935</ele>
        <time>2022-08-22T12:03:45Z</time>
      </trkpt>
      <trkpt lat="42.929137" lon="-8.116754">
        <ele>403.598</ele>
        <time>2022-08-22T12:03:50Z</time>
      </trkpt>
      <trkpt lat="42.929148" lon="-8.116821">
        <ele>403.030</ele>
        <time>2022-08-22T12:03:55Z</time>
      </trkpt>
      <trkpt lat="42.929165" lon="-8.116890">
        <ele>402.292</ele>
        <time>2022-08-22T12:03:59Z</time>
      </trkpt>
      <trkpt lat="42.929174" lon="-8.116958">
        <ele>401.982</ele>
        <time>2022-08-22T12:04:03Z</time>
      </trkpt>
      <trkpt lat="42.929184" lon="-8.117030">
        <ele>401.427</ele>
        <time>2022-08-22T12:04:07Z</time>
      </trkpt>
      <trkpt lat="42.929195" lon="-8.117093">
        <ele>401.112</ele>
        <time>2022-08-22T12:04:11Z</time>
      </trkpt>
      <trkpt lat="42.929211" lon="-8.117167">
        <ele>400.824</ele>
        <time>2022-08-22T12:04:15Z</time>
      </trkpt>
      <trkpt lat="42.929228" lon="-8.117241">
        <ele>400.504</ele>
        <time>2022-08-22T12:04:20Z</time>
      </trkpt>
      <trkpt lat="42.929239" lon="-8.117301">
        <ele>400.114</ele>
        <time>2022-08-22T12:04:24Z</time>
      </trkpt>
      <trkpt lat="42.929251" lon="-8.117375">
        <ele>399.609</ele>
        <time>2022-08-22T12:04:28Z</time>
      </trkpt>
      <trkpt lat="42.929264" lon="-8.117436">
        <ele>399.143</ele>
        <time>2022-08-22T12:04:32Z</time>
      </trkpt>
      <trkpt lat="42.929280" lon="-8.117506">
        <ele>398.773</ele>
        <time>2022-08-22T12:04:36Z</time>
      </trkpt>
      <trkpt lat="42.929295" lon="-8.117574">
        <ele>398.343</ele>
        <time>2022-08-22T12:04:41Z</time>
      </trkpt>
      <trkpt lat="42.929311" lon="-8.117648">
        <ele>397.976</ele>
        <time>2022-08-22T12:04:45Z</time>
      </trkpt>
      <trkpt lat="42.929324" lon="-8.117714">
        <ele>397.598</ele>
        <time>2022-08-22T12:04:49Z</time>
      </trkpt>
      <trkpt lat="42.929335" lon="-8.117784">
        <ele>397.090</ele>
        <time>2022-08-22T12:04:53Z</time>
      </trkpt>
      <trkpt lat="42.929342" lon="-8.117847">
        <ele>396.330</ele>
        <time>2022-08-22T12:04:56Z</time>
      </trkpt>
      <trkpt lat="42.929356" lon="-8.117911">
        <ele>395.745</ele>
        <time>2022-08-22T12:05:00Z</time>
      </trkpt>
      <trkpt lat="42.929372" lon="-8.117982">
        <ele>395.260</ele>
        <time>2022-08-22T12:05:04Z</time>
      </trkpt>
      <trkpt lat="42.929385" lon="-8.118059">
        <ele>394.651</ele>
        <time>2022-08-22T12:05:08Z</time>
      </trkpt>
      <trkpt lat="42.929387" lon="-8.118127">
        <ele>393.901</ele>
        <time>2022-08-22T12:05:12Z</time>
      </trkpt>
      <trkpt lat="42.929396" lon="-8.118192">
        <ele>393.511</ele>
        <time>2022-08-22T12:05:16Z</time>
      </trkpt>
      <trkpt lat="42.929405" lon="-8.118262">
        <ele>393.309</ele>
        <time>2022-08-22T12:05:20Z</time>
      </trkpt>
      <trkpt lat="42.929413" lon="-8.118331">
        <ele>393.136</ele>
        <time>2022-08-22T12:05:24Z</time>
      </trkpt>
      <trkpt lat="42.929422" lon="-8.118403">
        <ele>392.886</ele>
        <time>2022-08-22T12:05:28Z</time>
      </trkpt>
      <trkpt lat="42.929432" lon="-8.118467">
        <ele>392.536</ele>
        <time>2022-08-22T12:05:33Z</time>
      </trkpt>
      <trkpt lat="42.929442" lon="-8.118532">
        <ele>392.279</ele>
        <time>2022-08-22T12:05:38Z</time>
      </trkpt>
      <trkpt lat="42.929448" lon="-8.118595">
        <ele>391.861</ele>
        <time>2022-08-22T12:05:42Z</time>
      </trkpt>
      <trkpt lat="42.929460" lon="-8.118662">
        <ele>391.413</ele>
        <time>2022-08-22T12:05:46Z</time>
      </trkpt>
      <trkpt lat="42.929468" lon="-8.118737">
        <ele>391.083</ele>
        <time>2022-08-22T12:05:51Z</time>
      </trkpt>
      <trkpt lat="42.929473" lon="-8.118801">
        <ele>390.758</ele>
        <time>2022-08-22T12:05:55Z</time>
      </trkpt>
      <trkpt lat="42.929478" lon="-8.118871">
        <ele>390.453</ele>
        <time>2022-08-22T12:06:00Z</time>
      </trkpt>
      <trkpt lat="42.929477" lon="-8.118945">
        <ele>390.061</ele>
        <time>2022-08-22T12:06:04Z</time>
      </trkpt>
      <trkpt lat="42.929480" lon="-8.119011">
        <ele>389.621</ele>
        <time>2022-08-22T12:06:07Z</time>
      </trkpt>
      <trkpt lat="42.929483" lon="-8.119087">
        <ele>389.213</ele>
        <time>2022-08-22T12:06:11Z</time>
      </trkpt>
      <trkpt lat="42.929478" lon="-8.119168">
        <ele>388.909</ele>
        <time>2022-08-22T12:06:15Z</time>
      </trkpt>
      <trkpt lat="42.929478" lon="-8.119236">
        <ele>388.757</ele>
        <time>2022-08-22T12:06:18Z</time>
      </trkpt>
      <trkpt lat="42.929471" lon="-8.119304">
        <ele>388.437</ele>
        <time>2022-08-22T12:06:22Z</time>
      </trkpt>
      <trkpt lat="42.929472" lon="-8.119369">
        <ele>388.157</ele>
        <time>2022-08-22T12:06:25Z</time>
      </trkpt>
      <trkpt lat="42.929477" lon="-8.119450">
        <ele>387.960</ele>
        <time>2022-08-22T12:06:29Z</time>
      </trkpt>
      <trkpt lat="42.929484" lon="-8.119515">
        <ele>387.732</ele>
        <time>2022-08-22T12:06:32Z</time>
      </trkpt>
      <trkpt lat="42.929494" lon="-8.119578">
        <ele>387.564</ele>
        <time>2022-08-22T12:06:35Z</time>
      </trkpt>
      <trkpt lat="42.929504" lon="-8.119659">
        <ele>387.364</ele>
        <time>2022-08-22T12:06:39Z</time>
      </trkpt>
      <trkpt lat="42.929513" lon="-8.119723">
        <ele>387.219</ele>
        <time>2022-08-22T12:06:42Z</time>
      </trkpt>
      <trkpt lat="42.929514" lon="-8.119785">
        <ele>387.134</ele>
        <time>2022-08-22T12:06:45Z</time>
      </trkpt>
      <trkpt lat="42.929519" lon="-8.119865">
        <ele>387.153</ele>
        <time>2022-08-22T12:06:49Z</time>
      </trkpt>
      <trkpt lat="42.929519" lon="-8.119943">
        <ele>387.104</ele>
        <time>2022-08-22T12:06:53Z</time>
      </trkpt>
      <trkpt lat="42.929514" lon="-8.120016">
        <ele>387.114</ele>
        <time>2022-08-22T12:06:57Z</time>
      </trkpt>
      <trkpt lat="42.929490" lon="-8.120084">
        <ele>387.209</ele>
        <time>2022-08-22T12:07:01Z</time>
      </trkpt>
      <trkpt lat="42.929448" lon="-8.120133">
        <ele>387.256</ele>
        <time>2022-08-22T12:07:05Z</time>
      </trkpt>
      <trkpt lat="42.929407" lon="-8.120180">
        <ele>387.326</ele>
        <time>2022-08-22T12:07:09Z</time>
      </trkpt>
      <trkpt lat="42.929374" lon="-8.120241">
        <ele>387.446</ele>
        <time>2022-08-22T12:07:13Z</time>
      </trkpt>
      <trkpt lat="42.929386" lon="-8.120313">
        <ele>387.689</ele>
        <time>2022-08-22T12:07:17Z</time>
      </trkpt>
      <trkpt lat="42.929428" lon="-8.120360">
        <ele>387.651</ele>
        <time>2022-08-22T12:07:21Z</time>
      </trkpt>
      <trkpt lat="42.929467" lon="-8.120403">
        <ele>387.683</ele>
        <time>2022-08-22T12:07:25Z</time>
      </trkpt>
      <trkpt lat="42.929507" lon="-8.120447">
        <ele>387.683</ele>
        <time>2022-08-22T12:07:29Z</time>
      </trkpt>
      <trkpt lat="42.929546" lon="-8.120482">
        <ele>387.648</ele>
        <time>2022-08-22T12:07:34Z</time>
      </trkpt>
      <trkpt lat="42.929588" lon="-8.120519">
        <ele>387.623</ele>
        <time>2022-08-22T12:07:38Z</time>
      </trkpt>
      <trkpt lat="42.929609" lon="-8.120583">
        <ele>387.652</ele>
        <time>2022-08-22T12:07:42Z</time>
      </trkpt>
      <trkpt lat="42.929629" lon="-8.120648">
        <ele>387.653</ele>
        <time>2022-08-22T12:07:46Z</time>
      </trkpt>
      <trkpt lat="42.929642" lon="-8.120714">
        <ele>387.808</ele>
        <time>2022-08-22T12:07:51Z</time>
      </trkpt>
      <trkpt lat="42.929665" lon="-8.120786">
        <ele>388.309</ele>
        <time>2022-08-22T12:07:55Z</time>
      </trkpt>
      <trkpt lat="42.929679" lon="-8.120853">
        <ele>388.676</ele>
        <time>2022-08-22T12:07:59Z</time>
      </trkpt>
      <trkpt lat="42.929693" lon="-8.120926">
        <ele>388.676</ele>
        <time>2022-08-22T12:08:04Z</time>
      </trkpt>
      <trkpt lat="42.929715" lon="-8.120984">
        <ele>388.696</ele>
        <time>2022-08-22T12:08:09Z</time>
      </trkpt>
      <trkpt lat="42.929725" lon="-8.121045">
        <ele>388.569</ele>
        <time>2022-08-22T12:08:13Z</time>
      </trkpt>
      <trkpt lat="42.929742" lon="-8.121109">
        <ele>388.291</ele>
        <time>2022-08-22T12:08:17Z</time>
      </trkpt>
      <trkpt lat="42.929756" lon="-8.121181">
        <ele>387.923</ele>
        <time>2022-08-22T12:08:20Z</time>
      </trkpt>
      <trkpt lat="42.929774" lon="-8.121248">
        <ele>387.443</ele>
        <time>2022-08-22T12:08:25Z</time>
      </trkpt>
      <trkpt lat="42.929789" lon="-8.121314">
        <ele>386.818</ele>
        <time>2022-08-22T12:08:29Z</time>
      </trkpt>
      <trkpt lat="42.929808" lon="-8.121384">
        <ele>386.323</ele>
        <time>2022-08-22T12:08:33Z</time>
      </trkpt>
      <trkpt lat="42.929822" lon="-8.121446">
        <ele>385.822</ele>
        <time>2022-08-22T12:08:37Z</time>
      </trkpt>
      <trkpt lat="42.929838" lon="-8.121517">
        <ele>385.462</ele>
        <time>2022-08-22T12:08:42Z</time>
      </trkpt>
      <trkpt lat="42.929853" lon="-8.121594">
        <ele>385.008</ele>
        <time>2022-08-22T12:08:47Z</time>
      </trkpt>
      <trkpt lat="42.929869" lon="-8.121654">
        <ele>384.609</ele>
        <time>2022-08-22T12:08:52Z</time>
      </trkpt>
      <trkpt lat="42.929887" lon="-8.121717">
        <ele>384.133</ele>
        <time>2022-08-22T12:08:57Z</time>
      </trkpt>
      <trkpt lat="42.929903" lon="-8.121787">
        <ele>383.563</ele>
        <time>2022-08-22T12:09:02Z</time>
      </trkpt>
      <trkpt lat="42.929910" lon="-8.121848">
        <ele>382.873</ele>
        <time>2022-08-22T12:09:06Z</time>
      </trkpt>
      <trkpt lat="42.929927" lon="-8.121922">
        <ele>382.166</ele>
        <time>2022-08-22T12:09:10Z</time>
      </trkpt>
      <trkpt lat="42.929936" lon="-8.121993">
        <ele>381.518</ele>
        <time>2022-08-22T12:09:14Z</time>
      </trkpt>
      <trkpt lat="42.929940" lon="-8.122058">
        <ele>380.920</ele>
        <time>2022-08-22T12:09:18Z</time>
      </trkpt>
      <trkpt lat="42.929937" lon="-8.122125">
        <ele>380.330</ele>
        <time>2022-08-22T12:09:22Z</time>
      </trkpt>
      <trkpt lat="42.929947" lon="-8.122185">
        <ele>379.785</ele>
        <time>2022-08-22T12:09:25Z</time>
      </trkpt>
      <trkpt lat="42.929957" lon="-8.122245">
        <ele>379.110</ele>
        <time>2022-08-22T12:09:28Z</time>
      </trkpt>
      <trkpt lat="42.929968" lon="-8.122312">
        <ele>378.724</ele>
        <time>2022-08-22T12:09:32Z</time>
      </trkpt>
      <trkpt lat="42.929987" lon="-8.122368">
        <ele>378.304</ele>
        <time>2022-08-22T12:09:35Z</time>
      </trkpt>
      <trkpt lat="42.930003" lon="-8.122428">
        <ele>377.914</ele>
        <time>2022-08-22T12:09:38Z</time>
      </trkpt>
      <trkpt lat="42.930031" lon="-8.122495">
        <ele>377.509</ele>
        <time>2022-08-22T12:09:42Z</time>
      </trkpt>
      <trkpt lat="42.930055" lon="-8.122555">
        <ele>377.053</ele>
        <time>2022-08-22T12:09:46Z</time>
      </trkpt>
      <trkpt lat="42.930087" lon="-8.122621">
        <ele>376.773</ele>
        <time>2022-08-22T12:09:51Z</time>
      </trkpt>
      <trkpt lat="42.930104" lon="-8.122693">
        <ele>376.633</ele>
        <time>2022-08-22T12:09:55Z</time>
      </trkpt>
      <trkpt lat="42.930108" lon="-8.122758">
        <ele>376.556</ele>
        <time>2022-08-22T12:09:59Z</time>
      </trkpt>
      <trkpt lat="42.930113" lon="-8.122831">
        <ele>376.558</ele>
        <time>2022-08-22T12:10:03Z</time>
      </trkpt>
      <trkpt lat="42.930105" lon="-8.122894">
        <ele>376.380</ele>
        <time>2022-08-22T12:10:06Z</time>
      </trkpt>
      <trkpt lat="42.930095" lon="-8.122963">
        <ele>375.710</ele>
        <time>2022-08-22T12:10:09Z</time>
      </trkpt>
      <trkpt lat="42.930092" lon="-8.123042">
        <ele>375.135</ele>
        <time>2022-08-22T12:10:13Z</time>
      </trkpt>
      <trkpt lat="42.930089" lon="-8.123104">
        <ele>374.590</ele>
        <time>2022-08-22T12:10:17Z</time>
      </trkpt>
      <trkpt lat="42.930088" lon="-8.123167">
        <ele>373.867</ele>
        <time>2022-08-22T12:10:20Z</time>
      </trkpt>
      <trkpt lat="42.930082" lon="-8.123241">
        <ele>373.081</ele>
        <time>2022-08-22T12:10:24Z</time>
      </trkpt>
      <trkpt lat="42.930074" lon="-8.123313">
        <ele>372.319</ele>
        <time>2022-08-22T12:10:28Z</time>
      </trkpt>
      <trkpt lat="42.930068" lon="-8.123379">
        <ele>371.509</ele>
        <time>2022-08-22T12:10:32Z</time>
      </trkpt>
      <trkpt lat="42.930067" lon="-8.123451">
        <ele>370.647</ele>
        <time>2022-08-22T12:10:37Z</time>
      </trkpt>
      <trkpt lat="42.930072" lon="-8.123523">
        <ele>369.917</ele>
        <time>2022-08-22T12:10:41Z</time>
      </trkpt>
      <trkpt lat="42.930081" lon="-8.123603">
        <ele>369.277</ele>
        <time>2022-08-22T12:10:45Z</time>
      </trkpt>
      <trkpt lat="42.930098" lon="-8.123678">
        <ele>368.220</ele>
        <time>2022-08-22T12:10:49Z</time>
      </trkpt>
      <trkpt lat="42.930095" lon="-8.123762">
        <ele>367.632</ele>
        <time>2022-08-22T12:10:53Z</time>
      </trkpt>
      <trkpt lat="42.930097" lon="-8.123836">
        <ele>367.174</ele>
        <time>2022-08-22T12:10:57Z</time>
      </trkpt>
      <trkpt lat="42.930092" lon="-8.123904">
        <ele>366.694</ele>
        <time>2022-08-22T12:11:00Z</time>
      </trkpt>
      <trkpt lat="42.930096" lon="-8.123982">
        <ele>365.929</ele>
        <time>2022-08-22T12:11:04Z</time>
      </trkpt>
      <trkpt lat="42.930102" lon="-8.124051">
        <ele>365.544</ele>
        <time>2022-08-22T12:11:07Z</time>
      </trkpt>
      <trkpt lat="42.930110" lon="-8.124127">
        <ele>365.377</ele>
        <time>2022-08-22T12:11:11Z</time>
      </trkpt>
      <trkpt lat="42.930121" lon="-8.124201">
        <ele>364.761</ele>
        <time>2022-08-22T12:11:16Z</time>
      </trkpt>
      <trkpt lat="42.930135" lon="-8.124260">
        <ele>364.527</ele>
        <time>2022-08-22T12:11:19Z</time>
      </trkpt>
      <trkpt lat="42.930144" lon="-8.124340">
        <ele>363.909</ele>
        <time>2022-08-22T12:11:23Z</time>
      </trkpt>
      <trkpt lat="42.930154" lon="-8.124409">
        <ele>363.488</ele>
        <time>2022-08-22T12:11:27Z</time>
      </trkpt>
      <trkpt lat="42.930167" lon="-8.124482">
        <ele>362.958</ele>
        <time>2022-08-22T12:11:31Z</time>
      </trkpt>
      <trkpt lat="42.930176" lon="-8.124556">
        <ele>362.368</ele>
        <time>2022-08-22T12:11:36Z</time>
      </trkpt>
      <trkpt lat="42.930181" lon="-8.124620">
        <ele>361.841</ele>
        <time>2022-08-22T12:11:39Z</time>
      </trkpt>
      <trkpt lat="42.930187" lon="-8.124690">
        <ele>361.243</ele>
        <time>2022-08-22T12:11:43Z</time>
      </trkpt>
      <trkpt lat="42.930196" lon="-8.124760">
        <ele>360.635</ele>
        <time>2022-08-22T12:11:47Z</time>
      </trkpt>
      <trkpt lat="42.930208" lon="-8.124825">
        <ele>360.035</ele>
        <time>2022-08-22T12:11:51Z</time>
      </trkpt>
      <trkpt lat="42.930215" lon="-8.124897">
        <ele>359.350</ele>
        <time>2022-08-22T12:11:55Z</time>
      </trkpt>
      <trkpt lat="42.930223" lon="-8.124969">
        <ele>358.635</ele>
        <time>2022-08-22T12:11:59Z</time>
      </trkpt>
      <trkpt lat="42.930239" lon="-8.125036">
        <ele>357.834</ele>
        <time>2022-08-22T12:12:03Z</time>
      </trkpt>
      <trkpt lat="42.930257" lon="-8.125095">
        <ele>357.155</ele>
        <time>2022-08-22T12:12:07Z</time>
      </trkpt>
      <trkpt lat="42.930277" lon="-8.125150">
        <ele>356.510</ele>
        <time>2022-08-22T12:12:11Z</time>
      </trkpt>
      <trkpt lat="42.930309" lon="-8.125215">
        <ele>355.809</ele>
        <time>2022-08-22T12:12:16Z</time>
      </trkpt>
      <trkpt lat="42.930348" lon="-8.125271">
        <ele>355.044</ele>
        <time>2022-08-22T12:12:21Z</time>
      </trkpt>
      <trkpt lat="42.930369" lon="-8.125328">
        <ele>354.064</ele>
        <time>2022-08-22T12:12:25Z</time>
      </trkpt>
      <trkpt lat="42.930403" lon="-8.125376">
        <ele>353.034</ele>
        <time>2022-08-22T12:12:29Z</time>
      </trkpt>
      <trkpt lat="42.930432" lon="-8.125432">
        <ele>352.147</ele>
        <time>2022-08-22T12:12:33Z</time>
      </trkpt>
      <trkpt lat="42.930457" lon="-8.125483">
        <ele>351.449</ele>
        <time>2022-08-22T12:12:36Z</time>
      </trkpt>
      <trkpt lat="42.930481" lon="-8.125537">
        <ele>350.741</ele>
        <time>2022-08-22T12:12:39Z</time>
      </trkpt>
      <trkpt lat="42.930513" lon="-8.125590">
        <ele>350.041</ele>
        <time>2022-08-22T12:12:43Z</time>
      </trkpt>
      <trkpt lat="42.930537" lon="-8.125647">
        <ele>349.446</ele>
        <time>2022-08-22T12:12:47Z</time>
      </trkpt>
      <trkpt lat="42.930563" lon="-8.125700">
        <ele>348.981</ele>
        <time>2022-08-22T12:12:51Z</time>
      </trkpt>
      <trkpt lat="42.930596" lon="-8.125760">
        <ele>348.492</ele>
        <time>2022-08-22T12:12:56Z</time>
      </trkpt>
      <trkpt lat="42.930628" lon="-8.125810">
        <ele>347.973</ele>
        <time>2022-08-22T12:13:01Z</time>
      </trkpt>
      <trkpt lat="42.930661" lon="-8.125864">
        <ele>347.420</ele>
        <time>2022-08-22T12:13:05Z</time>
      </trkpt>
      <trkpt lat="42.930694" lon="-8.125923">
        <ele>346.909</ele>
        <time>2022-08-22T12:13:10Z</time>
      </trkpt>
      <trkpt lat="42.930725" lon="-8.125977">
        <ele>346.530</ele>
        <time>2022-08-22T12:13:14Z</time>
      </trkpt>
      <trkpt lat="42.930758" lon="-8.126030">
        <ele>346.030</ele>
        <time>2022-08-22T12:13:18Z</time>
      </trkpt>
      <trkpt lat="42.930771" lon="-8.126104">
        <ele>345.530</ele>
        <time>2022-08-22T12:13:22Z</time>
      </trkpt>
      <trkpt lat="42.930790" lon="-8.126171">
        <ele>345.173</ele>
        <time>2022-08-22T12:13:27Z</time>
      </trkpt>
      <trkpt lat="42.930799" lon="-8.126244">
        <ele>344.735</ele>
        <time>2022-08-22T12:13:31Z</time>
      </trkpt>
      <trkpt lat="42.930828" lon="-8.126296">
        <ele>344.367</ele>
        <time>2022-08-22T12:13:35Z</time>
      </trkpt>
      <trkpt lat="42.930851" lon="-8.126353">
        <ele>344.017</ele>
        <time>2022-08-22T12:13:39Z</time>
      </trkpt>
      <trkpt lat="42.930869" lon="-8.126410">
        <ele>343.882</ele>
        <time>2022-08-22T12:13:42Z</time>
      </trkpt>
      <trkpt lat="42.930890" lon="-8.126479">
        <ele>343.687</ele>
        <time>2022-08-22T12:13:46Z</time>
      </trkpt>
      <trkpt lat="42.930908" lon="-8.126557">
        <ele>343.426</ele>
        <time>2022-08-22T12:13:50Z</time>
      </trkpt>
      <trkpt lat="42.930918" lon="-8.126618">
        <ele>343.147</ele>
        <time>2022-08-22T12:13:53Z</time>
      </trkpt>
      <trkpt lat="42.930936" lon="-8.126679">
        <ele>342.711</ele>
        <time>2022-08-22T12:13:57Z</time>
      </trkpt>
      <trkpt lat="42.930949" lon="-8.126742">
        <ele>342.209</ele>
        <time>2022-08-22T12:14:01Z</time>
      </trkpt>
      <trkpt lat="42.930965" lon="-8.126813">
        <ele>341.743</ele>
        <time>2022-08-22T12:14:05Z</time>
      </trkpt>
      <trkpt lat="42.930977" lon="-8.126882">
        <ele>341.273</ele>
        <time>2022-08-22T12:14:09Z</time>
      </trkpt>
      <trkpt lat="42.930994" lon="-8.126949">
        <ele>340.733</ele>
        <time>2022-08-22T12:14:13Z</time>
      </trkpt>
      <trkpt lat="42.931002" lon="-8.127012">
        <ele>340.276</ele>
        <time>2022-08-22T12:14:16Z</time>
      </trkpt>
      <trkpt lat="42.931012" lon="-8.127080">
        <ele>339.638</ele>
        <time>2022-08-22T12:14:20Z</time>
      </trkpt>
      <trkpt lat="42.931019" lon="-8.127154">
        <ele>339.050</ele>
        <time>2022-08-22T12:14:24Z</time>
      </trkpt>
      <trkpt lat="42.931021" lon="-8.127219">
        <ele>338.570</ele>
        <time>2022-08-22T12:14:27Z</time>
      </trkpt>
      <trkpt lat="42.931032" lon="-8.127298">
        <ele>337.895</ele>
        <time>2022-08-22T12:14:31Z</time>
      </trkpt>
      <trkpt lat="42.931039" lon="-8.127375">
        <ele>337.160</ele>
        <time>2022-08-22T12:14:35Z</time>
      </trkpt>
      <trkpt lat="42.931033" lon="-8.127437">
        <ele>336.493</ele>
        <time>2022-08-22T12:14:38Z</time>
      </trkpt>
      <trkpt lat="42.931024" lon="-8.127507">
        <ele>335.665</ele>
        <time>2022-08-22T12:14:42Z</time>
      </trkpt>
      <trkpt lat="42.931029" lon="-8.127576">
        <ele>334.921</ele>
        <time>2022-08-22T12:14:46Z</time>
      </trkpt>
      <trkpt lat="42.931029" lon="-8.127640">
        <ele>334.209</ele>
        <time>2022-08-22T12:14:50Z</time>
      </trkpt>
      <trkpt lat="42.931025" lon="-8.127717">
        <ele>333.480</ele>
        <time>2022-08-22T12:14:55Z</time>
      </trkpt>
      <trkpt lat="42.931018" lon="-8.127791">
        <ele>332.590</ele>
        <time>2022-08-22T12:14:59Z</time>
      </trkpt>
      <trkpt lat="42.931012" lon="-8.127865">
        <ele>331.390</ele>
        <time>2022-08-22T12:15:03Z</time>
      </trkpt>
      <trkpt lat="42.931009" lon="-8.127933">
        <ele>330.183</ele>
        <time>2022-08-22T12:15:07Z</time>
      </trkpt>
      <trkpt lat="42.931004" lon="-8.128012">
        <ele>328.595</ele>
        <time>2022-08-22T12:15:12Z</time>
      </trkpt>
      <trkpt lat="42.930995" lon="-8.128073">
        <ele>328.057</ele>
        <time>2022-08-22T12:15:15Z</time>
      </trkpt>
      <trkpt lat="42.930988" lon="-8.128136">
        <ele>326.827</ele>
        <time>2022-08-22T12:15:19Z</time>
      </trkpt>
      <trkpt lat="42.930981" lon="-8.128202">
        <ele>325.712</ele>
        <time>2022-08-22T12:15:23Z</time>
      </trkpt>
      <trkpt lat="42.930971" lon="-8.128263">
        <ele>324.887</ele>
        <time>2022-08-22T12:15:27Z</time>
      </trkpt>
      <trkpt lat="42.930960" lon="-8.128334">
        <ele>323.794</ele>
        <time>2022-08-22T12:15:31Z</time>
      </trkpt>
      <trkpt lat="42.930959" lon="-8.128417">
        <ele>322.757</ele>
        <time>2022-08-22T12:15:35Z</time>
      </trkpt>
      <trkpt lat="42.930958" lon="-8.128503">
        <ele>321.322</ele>
        <time>2022-08-22T12:15:39Z</time>
      </trkpt>
      <trkpt lat="42.930950" lon="-8.128574">
        <ele>320.309</ele>
        <time>2022-08-22T12:15:43Z</time>
      </trkpt>
      <trkpt lat="42.930948" lon="-8.128636">
        <ele>319.670</ele>
        <time>2022-08-22T12:15:46Z</time>
      </trkpt>
      <trkpt lat="42.930951" lon="-8.128699">
        <ele>319.320</ele>
        <time>2022-08-22T12:15:49Z</time>
      </trkpt>
      <trkpt lat="42.930963" lon="-8.128771">
        <ele>318.770</ele>
        <time>2022-08-22T12:15:53Z</time>
      </trkpt>
      <trkpt lat="42.930954" lon="-8.128845">
        <ele>318.383</ele>
        <time>2022-08-22T12:15:56Z</time>
      </trkpt>
      <trkpt lat="42.930956" lon="-8.128917">
        <ele>317.855</ele>
        <time>2022-08-22T12:16:00Z</time>
      </trkpt>
      <trkpt lat="42.930963" lon="-8.128993">
        <ele>317.247</ele>
        <time>2022-08-22T12:16:04Z</time>
      </trkpt>
      <trkpt lat="42.930970" lon="-8.129068">
        <ele>316.427</ele>
        <time>2022-08-22T12:16:08Z</time>
      </trkpt>
      <trkpt lat="42.930974" lon="-8.129140">
        <ele>315.962</ele>
        <time>2022-08-22T12:16:12Z</time>
      </trkpt>
      <trkpt lat="42.930983" lon="-8.129202">
        <ele>315.737</ele>
        <time>2022-08-22T12:16:15Z</time>
      </trkpt>
      <trkpt lat="42.930998" lon="-8.129264">
        <ele>315.378</ele>
        <time>2022-08-22T12:16:18Z</time>
      </trkpt>
      <trkpt lat="42.931016" lon="-8.129339">
        <ele>315.033</ele>
        <time>2022-08-22T12:16:22Z</time>
      </trkpt>
      <trkpt lat="42.931026" lon="-8.129403">
        <ele>314.726</ele>
        <time>2022-08-22T12:16:25Z</time>
      </trkpt>
      <trkpt lat="42.931029" lon="-8.129478">
        <ele>314.409</ele>
        <time>2022-08-22T12:16:29Z</time>
      </trkpt>
      <trkpt lat="42.931025" lon="-8.129557">
        <ele>314.058</ele>
        <time>2022-08-22T12:16:33Z</time>
      </trkpt>
      <trkpt lat="42.931005" lon="-8.129633">
        <ele>313.488</ele>
        <time>2022-08-22T12:16:37Z</time>
      </trkpt>
      <trkpt lat="42.930996" lon="-8.129700">
        <ele>313.048</ele>
        <time>2022-08-22T12:16:41Z</time>
      </trkpt>
      <trkpt lat="42.930983" lon="-8.129773">
        <ele>312.711</ele>
        <time>2022-08-22T12:16:46Z</time>
      </trkpt>
      <trkpt lat="42.930959" lon="-8.129842">
        <ele>312.583</ele>
        <time>2022-08-22T12:16:50Z</time>
      </trkpt>
      <trkpt lat="42.930938" lon="-8.129898">
        <ele>312.315</ele>
        <time>2022-08-22T12:16:54Z</time>
      </trkpt>
      <trkpt lat="42.930912" lon="-8.129962">
        <ele>312.065</ele>
        <time>2022-08-22T12:16:58Z</time>
      </trkpt>
      <trkpt lat="42.930885" lon="-8.130027">
        <ele>311.820</ele>
        <time>2022-08-22T12:17:02Z</time>
      </trkpt>
      <trkpt lat="42.930860" lon="-8.130099">
        <ele>311.795</ele>
        <time>2022-08-22T12:17:06Z</time>
      </trkpt>
      <trkpt lat="42.930844" lon="-8.130164">
        <ele>311.747</ele>
        <time>2022-08-22T12:17:10Z</time>
      </trkpt>
      <trkpt lat="42.930819" lon="-8.130224">
        <ele>311.729</ele>
        <time>2022-08-22T12:17:14Z</time>
      </trkpt>
      <trkpt lat="42.930793" lon="-8.130284">
        <ele>311.721</ele>
        <time>2022-08-22T12:17:18Z</time>
      </trkpt>
      <trkpt lat="42.930764" lon="-8.130346">
        <ele>311.709</ele>
        <time>2022-08-22T12:17:22Z</time>
      </trkpt>
      <trkpt lat="42.930731" lon="-8.130391">
        <ele>311.795</ele>
        <time>2022-08-22T12:17:26Z</time>
      </trkpt>
      <trkpt lat="42.930691" lon="-8.130436">
        <ele>311.495</ele>
        <time>2022-08-22T12:17:30Z</time>
      </trkpt>
      <trkpt lat="42.930665" lon="-8.130501">
        <ele>310.845</ele>
        <time>2022-08-22T12:17:34Z</time>
      </trkpt>
      <trkpt lat="42.930650" lon="-8.130575">
        <ele>310.418</ele>
        <time>2022-08-22T12:17:38Z</time>
      </trkpt>
      <trkpt lat="42.930629" lon="-8.130641">
        <ele>310.320</ele>
        <time>2022-08-22T12:17:42Z</time>
      </trkpt>
      <trkpt lat="42.930602" lon="-8.130699">
        <ele>310.382</ele>
        <time>2022-08-22T12:17:46Z</time>
      </trkpt>
      <trkpt lat="42.930589" lon="-8.130761">
        <ele>310.342</ele>
        <time>2022-08-22T12:17:49Z</time>
      </trkpt>
      <trkpt lat="42.930578" lon="-8.130843">
        <ele>310.557</ele>
        <time>2022-08-22T12:17:53Z</time>
      </trkpt>
      <trkpt lat="42.930558" lon="-8.130907">
        <ele>310.792</ele>
        <time>2022-08-22T12:17:57Z</time>
      </trkpt>
      <trkpt lat="42.930525" lon="-8.130975">
        <ele>310.898</ele>
        <time>2022-08-22T12:18:01Z</time>
      </trkpt>
      <trkpt lat="42.930506" lon="-8.131031">
        <ele>310.815</ele>
        <time>2022-08-22T12:18:04Z</time>
      </trkpt>
      <trkpt lat="42.930491" lon="-8.131091">
        <ele>310.926</ele>
        <time>2022-08-22T12:18:07Z</time>
      </trkpt>
      <trkpt lat="42.930469" lon="-8.131167">
        <ele>311.109</ele>
        <time>2022-08-22T12:18:11Z</time>
      </trkpt>
      <trkpt lat="42.930449" lon="-8.131238">
        <ele>311.320</ele>
        <time>2022-08-22T12:18:15Z</time>
      </trkpt>
      <trkpt lat="42.930447" lon="-8.131311">
        <ele>311.570</ele>
        <time>2022-08-22T12:18:19Z</time>
      </trkpt>
      <trkpt lat="42.930452" lon="-8.131387">
        <ele>311.820</ele>
        <time>2022-08-22T12:18:23Z</time>
      </trkpt>
      <trkpt lat="42.930452" lon="-8.131460">
        <ele>312.153</ele>
        <time>2022-08-22T12:18:27Z</time>
      </trkpt>
      <trkpt lat="42.930445" lon="-8.131527">
        <ele>312.215</ele>
        <time>2022-08-22T12:18:32Z</time>
      </trkpt>
      <trkpt lat="42.930434" lon="-8.131589">
        <ele>312.387</ele>
        <time>2022-08-22T12:18:37Z</time>
      </trkpt>
      <trkpt lat="42.930435" lon="-8.131655">
        <ele>312.487</ele>
        <time>2022-08-22T12:18:42Z</time>
      </trkpt>
      <trkpt lat="42.930441" lon="-8.131721">
        <ele>312.762</ele>
        <time>2022-08-22T12:18:47Z</time>
      </trkpt>
      <trkpt lat="42.930449" lon="-8.131782">
        <ele>313.377</ele>
        <time>2022-08-22T12:18:51Z</time>
      </trkpt>
      <trkpt lat="42.930461" lon="-8.131854">
        <ele>313.989</ele>
        <time>2022-08-22T12:18:55Z</time>
      </trkpt>
      <trkpt lat="42.930473" lon="-8.131919">
        <ele>314.306</ele>
        <time>2022-08-22T12:18:59Z</time>
      </trkpt>
      <trkpt lat="42.930488" lon="-8.131992">
        <ele>314.626</ele>
        <time>2022-08-22T12:19:04Z</time>
      </trkpt>
      <trkpt lat="42.930504" lon="-8.132067">
        <ele>315.009</ele>
        <time>2022-08-22T12:19:09Z</time>
      </trkpt>
      <trkpt lat="42.930508" lon="-8.132130">
        <ele>315.499</ele>
        <time>2022-08-22T12:19:12Z</time>
      </trkpt>
      <trkpt lat="42.930512" lon="-8.132200">
        <ele>315.929</ele>
        <time>2022-08-22T12:19:16Z</time>
      </trkpt>
      <trkpt lat="42.930520" lon="-8.132270">
        <ele>316.349</ele>
        <time>2022-08-22T12:19:20Z</time>
      </trkpt>
      <trkpt lat="42.930531" lon="-8.132336">
        <ele>316.772</ele>
        <time>2022-08-22T12:19:24Z</time>
      </trkpt>
      <trkpt lat="42.930551" lon="-8.132403">
        <ele>317.294</ele>
        <time>2022-08-22T12:19:29Z</time>
      </trkpt>
      <trkpt lat="42.930564" lon="-8.132467">
        <ele>317.886</ele>
        <time>2022-08-22T12:19:34Z</time>
      </trkpt>
      <trkpt lat="42.930573" lon="-8.132532">
        <ele>318.546</ele>
        <time>2022-08-22T12:19:38Z</time>
      </trkpt>
      <trkpt lat="42.930586" lon="-8.132595">
        <ele>319.321</ele>
        <time>2022-08-22T12:19:43Z</time>
      </trkpt>
      <trkpt lat="42.930598" lon="-8.132657">
        <ele>320.276</ele>
        <time>2022-08-22T12:19:48Z</time>
      </trkpt>
      <trkpt lat="42.930613" lon="-8.132720">
        <ele>321.182</ele>
        <time>2022-08-22T12:19:52Z</time>
      </trkpt>
      <trkpt lat="42.930628" lon="-8.132789">
        <ele>322.243</ele>
        <time>2022-08-22T12:19:56Z</time>
      </trkpt>
      <trkpt lat="42.930639" lon="-8.132856">
        <ele>323.117</ele>
        <time>2022-08-22T12:20:00Z</time>
      </trkpt>
      <trkpt lat="42.930653" lon="-8.132920">
        <ele>323.809</ele>
        <time>2022-08-22T12:20:04Z</time>
      </trkpt>
      <trkpt lat="42.930668" lon="-8.132995">
        <ele>324.529</ele>
        <time>2022-08-22T12:20:09Z</time>
      </trkpt>
      <trkpt lat="42.930683" lon="-8.133067">
        <ele>325.179</ele>
        <time>2022-08-22T12:20:13Z</time>
      </trkpt>
      <trkpt lat="42.930697" lon="-8.133130">
        <ele>325.879</ele>
        <time>2022-08-22T12:20:17Z</time>
      </trkpt>
      <trkpt lat="42.930705" lon="-8.133202">
        <ele>326.582</ele>
        <time>2022-08-22T12:20:21Z</time>
      </trkpt>
      <trkpt lat="42.930717" lon="-8.133263">
        <ele>327.124</ele>
        <time>2022-08-22T12:20:25Z</time>
      </trkpt>
      <trkpt lat="42.930732" lon="-8.133335">
        <ele>327.646</ele>
        <time>2022-08-22T12:20:29Z</time>
      </trkpt>
      <trkpt lat="42.930746" lon="-8.133400">
        <ele>328.066</ele>
        <time>2022-08-22T12:20:33Z</time>
      </trkpt>
      <trkpt lat="42.930761" lon="-8.133468">
        <ele>328.581</ele>
        <time>2022-08-22T12:20:37Z</time>
      </trkpt>
      <trkpt lat="42.930775" lon="-8.133536">
        <ele>329.156</ele>
        <time>2022-08-22T12:20:41Z</time>
      </trkpt>
      <trkpt lat="42.930787" lon="-8.133611">
        <ele>329.679</ele>
        <time>2022-08-22T12:20:46Z</time>
      </trkpt>
      <trkpt lat="42.930804" lon="-8.133671">
        <ele>330.105</ele>
        <time>2022-08-22T12:20:50Z</time>
      </trkpt>
      <trkpt lat="42.930815" lon="-8.133737">
        <ele>330.725</ele>
        <time>2022-08-22T12:20:54Z</time>
      </trkpt>
      <trkpt lat="42.930825" lon="-8.133816">
        <ele>331.309</ele>
        <time>2022-08-22T12:20:59Z</time>
      </trkpt>
      <trkpt lat="42.930840" lon="-8.133888">
        <ele>331.838</ele>
        <time>2022-08-22T12:21:04Z</time>
      </trkpt>
      <trkpt lat="42.930858" lon="-8.133948">
        <ele>332.118</ele>
        <time>2022-08-22T12:21:09Z</time>
      </trkpt>
      <trkpt lat="42.930870" lon="-8.134018">
        <ele>332.588</ele>
        <time>2022-08-22T12:21:14Z</time>
      </trkpt>
      <trkpt lat="42.930884" lon="-8.134087">
        <ele>333.171</ele>
        <time>2022-08-22T12:21:19Z</time>
      </trkpt>
      <trkpt lat="42.930895" lon="-8.134151">
        <ele>333.633</ele>
        <time>2022-08-22T12:21:23Z</time>
      </trkpt>
      <trkpt lat="42.930909" lon="-8.134222">
        <ele>334.135</ele>
        <time>2022-08-22T12:21:28Z</time>
      </trkpt>
      <trkpt lat="42.930922" lon="-8.134288">
        <ele>334.475</ele>
        <time>2022-08-22T12:21:33Z</time>
      </trkpt>
      <trkpt lat="42.930935" lon="-8.134361">
        <ele>334.980</ele>
        <time>2022-08-22T12:21:38Z</time>
      </trkpt>
      <trkpt lat="42.930941" lon="-8.134431">
        <ele>335.535</ele>
        <time>2022-08-22T12:21:42Z</time>
      </trkpt>
      <trkpt lat="42.930943" lon="-8.134505">
        <ele>336.032</ele>
        <time>2022-08-22T12:21:46Z</time>
      </trkpt>
      <trkpt lat="42.930938" lon="-8.134567">
        <ele>336.492</ele>
        <time>2022-08-22T12:21:49Z</time>
      </trkpt>
      <trkpt lat="42.930911" lon="-8.134627">
        <ele>336.711</ele>
        <time>2022-08-22T12:21:53Z</time>
      </trkpt>
      <trkpt lat="42.930880" lon="-8.134680">
        <ele>337.009</ele>
        <time>2022-08-22T12:21:57Z</time>
      </trkpt>
      <trkpt lat="42.930846" lon="-8.134726">
        <ele>337.464</ele>
        <time>2022-08-22T12:22:01Z</time>
      </trkpt>
      <trkpt lat="42.930807" lon="-8.134781">
        <ele>337.914</ele>
        <time>2022-08-22T12:22:06Z</time>
      </trkpt>
      <trkpt lat="42.930772" lon="-8.134829">
        <ele>338.424</ele>
        <time>2022-08-22T12:22:10Z</time>
      </trkpt>
      <trkpt lat="42.930740" lon="-8.134876">
        <ele>339.197</ele>
        <time>2022-08-22T12:22:14Z</time>
      </trkpt>
      <trkpt lat="42.930708" lon="-8.134922">
        <ele>339.819</ele>
        <time>2022-08-22T12:22:18Z</time>
      </trkpt>
      <trkpt lat="42.930678" lon="-8.134971">
        <ele>340.381</ele>
        <time>2022-08-22T12:22:22Z</time>
      </trkpt>
      <trkpt lat="42.930647" lon="-8.135021">
        <ele>340.821</ele>
        <time>2022-08-22T12:22:26Z</time>
      </trkpt>
      <trkpt lat="42.930615" lon="-8.135065">
        <ele>341.416</ele>
        <time>2022-08-22T12:22:30Z</time>
      </trkpt>
      <trkpt lat="42.930582" lon="-8.135122">
        <ele>342.041</ele>
        <time>2022-08-22T12:22:35Z</time>
      </trkpt>
      <trkpt lat="42.930539" lon="-8.135165">
        <ele>342.588</ele>
        <time>2022-08-22T12:22:40Z</time>
      </trkpt>
      <trkpt lat="42.930496" lon="-8.135186">
        <ele>343.124</ele>
        <time>2022-08-22T12:22:44Z</time>
      </trkpt>
      <trkpt lat="42.930449" lon="-8.135203">
        <ele>343.826</ele>
        <time>2022-08-22T12:22:48Z</time>
      </trkpt>
      <trkpt lat="42.930402" lon="-8.135215">
        <ele>344.509</ele>
        <time>2022-08-22T12:22:52Z</time>
      </trkpt>
      <trkpt lat="42.930354" lon="-8.135224">
        <ele>345.029</ele>
        <time>2022-08-22T12:22:57Z</time>
      </trkpt>
      <trkpt lat="42.930306" lon="-8.135232">
        <ele>345.119</ele>
        <time>2022-08-22T12:23:01Z</time>
      </trkpt>
      <trkpt lat="42.930261" lon="-8.135225">
        <ele>345.179</ele>
        <time>2022-08-22T12:23:05Z</time>
      </trkpt>
      <trkpt lat="42.930211" lon="-8.135226">
        <ele>345.142</ele>
        <time>2022-08-22T12:23:09Z</time>
      </trkpt>
      <trkpt lat="42.930162" lon="-8.135223">
        <ele>344.964</ele>
        <time>2022-08-22T12:23:14Z</time>
      </trkpt>
      <trkpt lat="42.930110" lon="-8.135223">
        <ele>344.736</ele>
        <time>2022-08-22T12:23:18Z</time>
      </trkpt>
      <trkpt lat="42.930064" lon="-8.135228">
        <ele>344.626</ele>
        <time>2022-08-22T12:23:22Z</time>
      </trkpt>
      <trkpt lat="42.930008" lon="-8.135235">
        <ele>344.571</ele>
        <time>2022-08-22T12:23:26Z</time>
      </trkpt>
      <trkpt lat="42.929961" lon="-8.135245">
        <ele>344.556</ele>
        <time>2022-08-22T12:23:30Z</time>
      </trkpt>
      <trkpt lat="42.929905" lon="-8.135254">
        <ele>344.587</ele>
        <time>2022-08-22T12:23:34Z</time>
      </trkpt>
      <trkpt lat="42.929844" lon="-8.135260">
        <ele>344.542</ele>
        <time>2022-08-22T12:23:38Z</time>
      </trkpt>
      <trkpt lat="42.929787" lon="-8.135273">
        <ele>344.426</ele>
        <time>2022-08-22T12:23:42Z</time>
      </trkpt>
      <trkpt lat="42.929730" lon="-8.135290">
        <ele>344.309</ele>
        <time>2022-08-22T12:23:46Z</time>
      </trkpt>
      <trkpt lat="42.929677" lon="-8.135311">
        <ele>344.299</ele>
        <time>2022-08-22T12:23:50Z</time>
      </trkpt>
      <trkpt lat="42.929626" lon="-8.135336">
        <ele>344.149</ele>
        <time>2022-08-22T12:23:54Z</time>
      </trkpt>
      <trkpt lat="42.929571" lon="-8.135362">
        <ele>343.949</ele>
        <time>2022-08-22T12:23:59Z</time>
      </trkpt>
      <trkpt lat="42.929521" lon="-8.135385">
        <ele>343.662</ele>
        <time>2022-08-22T12:24:03Z</time>
      </trkpt>
      <trkpt lat="42.929473" lon="-8.135410">
        <ele>343.264</ele>
        <time>2022-08-22T12:24:07Z</time>
      </trkpt>
      <trkpt lat="42.929426" lon="-8.135431">
        <ele>343.086</ele>
        <time>2022-08-22T12:24:11Z</time>
      </trkpt>
      <trkpt lat="42.929382" lon="-8.135456">
        <ele>342.736</ele>
        <time>2022-08-22T12:24:15Z</time>
      </trkpt>
      <trkpt lat="42.929334" lon="-8.135480">
        <ele>342.491</ele>
        <time>2022-08-22T12:24:19Z</time>
      </trkpt>
      <trkpt lat="42.929286" lon="-8.135501">
        <ele>342.126</ele>
        <time>2022-08-22T12:24:23Z</time>
      </trkpt>
      <trkpt lat="42.929239" lon="-8.135544">
        <ele>341.823</ele>
        <time>2022-08-22T12:24:28Z</time>
      </trkpt>
      <trkpt lat="42.929214" lon="-8.135611">
        <ele>341.483</ele>
        <time>2022-08-22T12:24:33Z</time>
      </trkpt>
      <trkpt lat="42.929217" lon="-8.135679">
        <ele>340.811</ele>
        <time>2022-08-22T12:24:38Z</time>
      </trkpt>
      <trkpt lat="42.929222" lon="-8.135744">
        <ele>340.309</ele>
        <time>2022-08-22T12:24:44Z</time>
      </trkpt>
      <trkpt lat="42.929233" lon="-8.135810">
        <ele>340.133</ele>
        <time>2022-08-22T12:24:48Z</time>
      </trkpt>
      <trkpt lat="42.929224" lon="-8.135879">
        <ele>340.133</ele>
        <time>2022-08-22T12:24:52Z</time>
      </trkpt>
      <trkpt lat="42.929203" lon="-8.135934">
        <ele>340.183</ele>
        <time>2022-08-22T12:24:56Z</time>
      </trkpt>
      <trkpt lat="42.929164" lon="-8.135971">
        <ele>340.266</ele>
        <time>2022-08-22T12:25:00Z</time>
      </trkpt>
      <trkpt lat="42.929124" lon="-8.136007">
        <ele>340.638</ele>
        <time>2022-08-22T12:25:04Z</time>
      </trkpt>
      <trkpt lat="42.929088" lon="-8.136063">
        <ele>341.140</ele>
        <time>2022-08-22T12:25:08Z</time>
      </trkpt>
      <trkpt lat="42.929048" lon="-8.136115">
        <ele>341.770</ele>
        <time>2022-08-22T12:25:12Z</time>
      </trkpt>
      <trkpt lat="42.929000" lon="-8.136153">
        <ele>342.315</ele>
        <time>2022-08-22T12:25:16Z</time>
      </trkpt>
      <trkpt lat="42.928947" lon="-8.136191">
        <ele>343.460</ele>
        <time>2022-08-22T12:25:21Z</time>
      </trkpt>
      <trkpt lat="42.928906" lon="-8.136240">
        <ele>344.023</ele>
        <time>2022-08-22T12:25:26Z</time>
      </trkpt>
      <trkpt lat="42.928878" lon="-8.136291">
        <ele>344.783</ele>
        <time>2022-08-22T12:25:30Z</time>
      </trkpt>
      <trkpt lat="42.928921" lon="-8.136309">
        <ele>345.011</ele>
        <time>2022-08-22T12:25:38Z</time>
      </trkpt>
      <trkpt lat="42.928969" lon="-8.136289">
        <ele>345.609</ele>
        <time>2022-08-22T12:25:44Z</time>
      </trkpt>
      <trkpt lat="42.929025" lon="-8.136288">
        <ele>346.633</ele>
        <time>2022-08-22T12:25:50Z</time>
      </trkpt>
      <trkpt lat="42.929076" lon="-8.136274">
        <ele>347.733</ele>
        <time>2022-08-22T12:25:55Z</time>
      </trkpt>
      <trkpt lat="42.929124" lon="-8.136263">
        <ele>348.463</ele>
        <time>2022-08-22T12:25:59Z</time>
      </trkpt>
      <trkpt lat="42.929175" lon="-8.136248">
        <ele>348.976</ele>
        <time>2022-08-22T12:26:03Z</time>
      </trkpt>
      <trkpt lat="42.929227" lon="-8.136225">
        <ele>349.288</ele>
        <time>2022-08-22T12:26:07Z</time>
      </trkpt>
      <trkpt lat="42.929282" lon="-8.136206">
        <ele>349.510</ele>
        <time>2022-08-22T12:26:11Z</time>
      </trkpt>
      <trkpt lat="42.929329" lon="-8.136206">
        <ele>349.810</ele>
        <time>2022-08-22T12:26:14Z</time>
      </trkpt>
      <trkpt lat="42.929380" lon="-8.136197">
        <ele>350.075</ele>
        <time>2022-08-22T12:26:18Z</time>
      </trkpt>
      <trkpt lat="42.929435" lon="-8.136182">
        <ele>350.220</ele>
        <time>2022-08-22T12:26:22Z</time>
      </trkpt>
      <trkpt lat="42.929484" lon="-8.136170">
        <ele>350.478</ele>
        <time>2022-08-22T12:26:26Z</time>
      </trkpt>
      <trkpt lat="42.929539" lon="-8.136154">
        <ele>350.733</ele>
        <time>2022-08-22T12:26:30Z</time>
      </trkpt>
      <trkpt lat="42.929591" lon="-8.136140">
        <ele>351.026</ele>
        <time>2022-08-22T12:26:34Z</time>
      </trkpt>
      <trkpt lat="42.929641" lon="-8.136123">
        <ele>351.209</ele>
        <time>2022-08-22T12:26:38Z</time>
      </trkpt>
      <trkpt lat="42.929689" lon="-8.136120">
        <ele>351.578</ele>
        <time>2022-08-22T12:26:41Z</time>
      </trkpt>
      <trkpt lat="42.929745" lon="-8.136109">
        <ele>351.988</ele>
        <time>2022-08-22T12:26:45Z</time>
      </trkpt>
      <trkpt lat="42.929799" lon="-8.136099">
        <ele>352.398</ele>
        <time>2022-08-22T12:26:49Z</time>
      </trkpt>
      <trkpt lat="42.929855" lon="-8.136105">
        <ele>352.761</ele>
        <time>2022-08-22T12:26:53Z</time>
      </trkpt>
      <trkpt lat="42.929909" lon="-8.136094">
        <ele>352.933</ele>
        <time>2022-08-22T12:26:57Z</time>
      </trkpt>
      <trkpt lat="42.929961" lon="-8.136080">
        <ele>353.255</ele>
        <time>2022-08-22T12:27:01Z</time>
      </trkpt>
      <trkpt lat="42.930015" lon="-8.136077">
        <ele>353.515</ele>
        <time>2022-08-22T12:27:05Z</time>
      </trkpt>
      <trkpt lat="42.930069" lon="-8.136073">
        <ele>353.940</ele>
        <time>2022-08-22T12:27:09Z</time>
      </trkpt>
      <trkpt lat="42.930121" lon="-8.136080">
        <ele>354.175</ele>
        <time>2022-08-22T12:27:13Z</time>
      </trkpt>
      <trkpt lat="42.930174" lon="-8.136091">
        <ele>354.486</ele>
        <time>2022-08-22T12:27:17Z</time>
      </trkpt>
      <trkpt lat="42.930226" lon="-8.136106">
        <ele>354.660</ele>
        <time>2022-08-22T12:27:21Z</time>
      </trkpt>
      <trkpt lat="42.930278" lon="-8.136119">
        <ele>354.926</ele>
        <time>2022-08-22T12:27:25Z</time>
      </trkpt>
      <trkpt lat="42.930329" lon="-8.136135">
        <ele>355.209</ele>
        <time>2022-08-22T12:27:29Z</time>
      </trkpt>
      <trkpt lat="42.930381" lon="-8.136142">
        <ele>355.479</ele>
        <time>2022-08-22T12:27:33Z</time>
      </trkpt>
      <trkpt lat="42.930431" lon="-8.136167">
        <ele>355.779</ele>
        <time>2022-08-22T12:27:37Z</time>
      </trkpt>
      <trkpt lat="42.930481" lon="-8.136189">
        <ele>356.059</ele>
        <time>2022-08-22T12:27:41Z</time>
      </trkpt>
      <trkpt lat="42.930528" lon="-8.136224">
        <ele>356.352</ele>
        <time>2022-08-22T12:27:45Z</time>
      </trkpt>
      <trkpt lat="42.930573" lon="-8.136256">
        <ele>356.554</ele>
        <time>2022-08-22T12:27:49Z</time>
      </trkpt>
      <trkpt lat="42.930611" lon="-8.136302">
        <ele>356.856</ele>
        <time>2022-08-22T12:27:53Z</time>
      </trkpt>
      <trkpt lat="42.930644" lon="-8.136349">
        <ele>357.166</ele>
        <time>2022-08-22T12:27:57Z</time>
      </trkpt>
      <trkpt lat="42.930677" lon="-8.136401">
        <ele>357.321</ele>
        <time>2022-08-22T12:28:01Z</time>
      </trkpt>
      <trkpt lat="42.930704" lon="-8.136451">
        <ele>357.516</ele>
        <time>2022-08-22T12:28:05Z</time>
      </trkpt>
      <trkpt lat="42.930734" lon="-8.136513">
        <ele>357.859</ele>
        <time>2022-08-22T12:28:10Z</time>
      </trkpt>
      <trkpt lat="42.930758" lon="-8.136577">
        <ele>358.103</ele>
        <time>2022-08-22T12:28:15Z</time>
      </trkpt>
      <trkpt lat="42.930771" lon="-8.136637">
        <ele>358.423</ele>
        <time>2022-08-22T12:28:19Z</time>
      </trkpt>
      <trkpt lat="42.930795" lon="-8.136704">
        <ele>358.609</ele>
        <time>2022-08-22T12:28:24Z</time>
      </trkpt>
      <trkpt lat="42.930808" lon="-8.136781">
        <ele>358.746</ele>
        <time>2022-08-22T12:28:29Z</time>
      </trkpt>
      <trkpt lat="42.930828" lon="-8.136846">
        <ele>358.956</ele>
        <time>2022-08-22T12:28:34Z</time>
      </trkpt>
      <trkpt lat="42.930838" lon="-8.136914">
        <ele>359.146</ele>
        <time>2022-08-22T12:28:38Z</time>
      </trkpt>
      <trkpt lat="42.930850" lon="-8.136985">
        <ele>359.389</ele>
        <time>2022-08-22T12:28:42Z</time>
      </trkpt>
      <trkpt lat="42.930864" lon="-8.137061">
        <ele>359.621</ele>
        <time>2022-08-22T12:28:46Z</time>
      </trkpt>
      <trkpt lat="42.930877" lon="-8.137134">
        <ele>359.733</ele>
        <time>2022-08-22T12:28:50Z</time>
      </trkpt>
      <trkpt lat="42.930889" lon="-8.137204">
        <ele>360.163</ele>
        <time>2022-08-22T12:28:54Z</time>
      </trkpt>
      <trkpt lat="42.930899" lon="-8.137271">
        <ele>360.228</ele>
        <time>2022-08-22T12:28:58Z</time>
      </trkpt>
      <trkpt lat="42.930912" lon="-8.137345">
        <ele>360.693</ele>
        <time>2022-08-22T12:29:02Z</time>
      </trkpt>
      <trkpt lat="42.930920" lon="-8.137418">
        <ele>360.767</ele>
        <time>2022-08-22T12:29:06Z</time>
      </trkpt>
      <trkpt lat="42.930923" lon="-8.137486">
        <ele>361.081</ele>
        <time>2022-08-22T12:29:10Z</time>
      </trkpt>
      <trkpt lat="42.930928" lon="-8.137560">
        <ele>361.219</ele>
        <time>2022-08-22T12:29:15Z</time>
      </trkpt>
      <trkpt lat="42.930934" lon="-8.137624">
        <ele>361.409</ele>
        <time>2022-08-22T12:29:19Z</time>
      </trkpt>
      <trkpt lat="42.930945" lon="-8.137690">
        <ele>361.957</ele>
        <time>2022-08-22T12:29:24Z</time>
      </trkpt>
      <trkpt lat="42.930953" lon="-8.137765">
        <ele>362.587</ele>
        <time>2022-08-22T12:29:28Z</time>
      </trkpt>
      <trkpt lat="42.930956" lon="-8.137832">
        <ele>362.937</ele>
        <time>2022-08-22T12:29:32Z</time>
      </trkpt>
      <trkpt lat="42.930952" lon="-8.137895">
        <ele>363.390</ele>
        <time>2022-08-22T12:29:36Z</time>
      </trkpt>
      <trkpt lat="42.930950" lon="-8.137959">
        <ele>363.762</ele>
        <time>2022-08-22T12:29:40Z</time>
      </trkpt>
      <trkpt lat="42.930947" lon="-8.138033">
        <ele>364.024</ele>
        <time>2022-08-22T12:29:45Z</time>
      </trkpt>
      <trkpt lat="42.930945" lon="-8.138095">
        <ele>364.144</ele>
        <time>2022-08-22T12:29:49Z</time>
      </trkpt>
      <trkpt lat="42.930940" lon="-8.138162">
        <ele>364.359</ele>
        <time>2022-08-22T12:29:53Z</time>
      </trkpt>
      <trkpt lat="42.930931" lon="-8.138226">
        <ele>364.534</ele>
        <time>2022-08-22T12:29:57Z</time>
      </trkpt>
      <trkpt lat="42.930928" lon="-8.138287">
        <ele>364.843</ele>
        <time>2022-08-22T12:30:01Z</time>
      </trkpt>
      <trkpt lat="42.930922" lon="-8.138349">
        <ele>365.064</ele>
        <time>2022-08-22T12:30:05Z</time>
      </trkpt>
      <trkpt lat="42.930918" lon="-8.138420">
        <ele>365.210</ele>
        <time>2022-08-22T12:30:09Z</time>
      </trkpt>
      <trkpt lat="42.930914" lon="-8.138492">
        <ele>365.409</ele>
        <time>2022-08-22T12:30:13Z</time>
      </trkpt>
      <trkpt lat="42.930909" lon="-8.138562">
        <ele>365.635</ele>
        <time>2022-08-22T12:30:17Z</time>
      </trkpt>
      <trkpt lat="42.930904" lon="-8.138643">
        <ele>365.875</ele>
        <time>2022-08-22T12:30:22Z</time>
      </trkpt>
      <trkpt lat="42.930900" lon="-8.138718">
        <ele>366.015</ele>
        <time>2022-08-22T12:30:26Z</time>
      </trkpt>
      <trkpt lat="42.930898" lon="-8.138786">
        <ele>366.278</ele>
        <time>2022-08-22T12:30:30Z</time>
      </trkpt>
      <trkpt lat="42.930891" lon="-8.138860">
        <ele>366.470</ele>
        <time>2022-08-22T12:30:35Z</time>
      </trkpt>
      <trkpt lat="42.930884" lon="-8.138924">
        <ele>366.552</ele>
        <time>2022-08-22T12:30:39Z</time>
      </trkpt>
      <trkpt lat="42.930876" lon="-8.138994">
        <ele>366.892</ele>
        <time>2022-08-22T12:30:45Z</time>
      </trkpt>
      <trkpt lat="42.930865" lon="-8.139060">
        <ele>367.157</ele>
        <time>2022-08-22T12:30:48Z</time>
      </trkpt>
      <trkpt lat="42.930850" lon="-8.139120">
        <ele>367.582</ele>
        <time>2022-08-22T12:30:51Z</time>
      </trkpt>
      <trkpt lat="42.930847" lon="-8.139187">
        <ele>367.973</ele>
        <time>2022-08-22T12:30:56Z</time>
      </trkpt>
      <trkpt lat="42.930847" lon="-8.139254">
        <ele>368.285</ele>
        <time>2022-08-22T12:31:00Z</time>
      </trkpt>
      <trkpt lat="42.930843" lon="-8.139331">
        <ele>368.513</ele>
        <time>2022-08-22T12:31:04Z</time>
      </trkpt>
      <trkpt lat="42.930838" lon="-8.139396">
        <ele>368.909</ele>
        <time>2022-08-22T12:31:08Z</time>
      </trkpt>
      <trkpt lat="42.930826" lon="-8.139460">
        <ele>369.398</ele>
        <time>2022-08-22T12:31:12Z</time>
      </trkpt>
      <trkpt lat="42.930822" lon="-8.139528">
        <ele>369.798</ele>
        <time>2022-08-22T12:31:16Z</time>
      </trkpt>
      <trkpt lat="42.930808" lon="-8.139586">
        <ele>370.138</ele>
        <time>2022-08-22T12:31:21Z</time>
      </trkpt>
      <trkpt lat="42.930803" lon="-8.139658">
        <ele>370.441</ele>
        <time>2022-08-22T12:31:26Z</time>
      </trkpt>
      <trkpt lat="42.930791" lon="-8.139719">
        <ele>370.763</ele>
        <time>2022-08-22T12:31:30Z</time>
      </trkpt>
      <trkpt lat="42.930787" lon="-8.139785">
        <ele>371.185</ele>
        <time>2022-08-22T12:31:34Z</time>
      </trkpt>
      <trkpt lat="42.930774" lon="-8.139862">
        <ele>371.535</ele>
        <time>2022-08-22T12:31:38Z</time>
      </trkpt>
      <trkpt lat="42.930760" lon="-8.139939">
        <ele>371.850</ele>
        <time>2022-08-22T12:31:42Z</time>
      </trkpt>
      <trkpt lat="42.930759" lon="-8.140006">
        <ele>372.155</ele>
        <time>2022-08-22T12:31:46Z</time>
      </trkpt>
      <trkpt lat="42.930733" lon="-8.140069">
        <ele>372.411</ele>
        <time>2022-08-22T12:31:50Z</time>
      </trkpt>
      <trkpt lat="42.930718" lon="-8.140136">
        <ele>372.821</ele>
        <time>2022-08-22T12:31:54Z</time>
      </trkpt>
      <trkpt lat="42.930696" lon="-8.140202">
        <ele>372.903</ele>
        <time>2022-08-22T12:31:58Z</time>
      </trkpt>
      <trkpt lat="42.930675" lon="-8.140273">
        <ele>373.109</ele>
        <time>2022-08-22T12:32:02Z</time>
      </trkpt>
      <trkpt lat="42.930655" lon="-8.140333">
        <ele>373.312</ele>
        <time>2022-08-22T12:32:06Z</time>
      </trkpt>
      <trkpt lat="42.930621" lon="-8.140386">
        <ele>373.522</ele>
        <time>2022-08-22T12:32:10Z</time>
      </trkpt>
      <trkpt lat="42.930582" lon="-8.140419">
        <ele>373.712</ele>
        <time>2022-08-22T12:32:14Z</time>
      </trkpt>
      <trkpt lat="42.930539" lon="-8.140472">
        <ele>373.925</ele>
        <time>2022-08-22T12:32:18Z</time>
      </trkpt>
      <trkpt lat="42.930499" lon="-8.140522">
        <ele>374.127</ele>
        <time>2022-08-22T12:32:22Z</time>
      </trkpt>
      <trkpt lat="42.930472" lon="-8.140571">
        <ele>374.359</ele>
        <time>2022-08-22T12:32:25Z</time>
      </trkpt>
      <trkpt lat="42.930436" lon="-8.140630">
        <ele>374.559</ele>
        <time>2022-08-22T12:32:29Z</time>
      </trkpt>
      <trkpt lat="42.930399" lon="-8.140684">
        <ele>374.744</ele>
        <time>2022-08-22T12:32:33Z</time>
      </trkpt>
      <trkpt lat="42.930368" lon="-8.140743">
        <ele>374.989</ele>
        <time>2022-08-22T12:32:37Z</time>
      </trkpt>
      <trkpt lat="42.930337" lon="-8.140798">
        <ele>375.211</ele>
        <time>2022-08-22T12:32:41Z</time>
      </trkpt>
      <trkpt lat="42.930311" lon="-8.140855">
        <ele>375.521</ele>
        <time>2022-08-22T12:32:45Z</time>
      </trkpt>
      <trkpt lat="42.930284" lon="-8.140909">
        <ele>375.803</ele>
        <time>2022-08-22T12:32:49Z</time>
      </trkpt>
      <trkpt lat="42.930259" lon="-8.140969">
        <ele>376.209</ele>
        <time>2022-08-22T12:32:53Z</time>
      </trkpt>
      <trkpt lat="42.930233" lon="-8.141027">
        <ele>376.672</ele>
        <time>2022-08-22T12:32:57Z</time>
      </trkpt>
      <trkpt lat="42.930205" lon="-8.141087">
        <ele>376.942</ele>
        <time>2022-08-22T12:33:01Z</time>
      </trkpt>
      <trkpt lat="42.930181" lon="-8.141148">
        <ele>377.292</ele>
        <time>2022-08-22T12:33:05Z</time>
      </trkpt>
      <trkpt lat="42.930156" lon="-8.141208">
        <ele>377.565</ele>
        <time>2022-08-22T12:33:09Z</time>
      </trkpt>
      <trkpt lat="42.930130" lon="-8.141268">
        <ele>377.867</ele>
        <time>2022-08-22T12:33:13Z</time>
      </trkpt>
      <trkpt lat="42.930105" lon="-8.141329">
        <ele>378.079</ele>
        <time>2022-08-22T12:33:17Z</time>
      </trkpt>
      <trkpt lat="42.930076" lon="-8.141390">
        <ele>378.229</ele>
        <time>2022-08-22T12:33:21Z</time>
      </trkpt>
      <trkpt lat="42.930047" lon="-8.141459">
        <ele>378.534</ele>
        <time>2022-08-22T12:33:25Z</time>
      </trkpt>
      <trkpt lat="42.930024" lon="-8.141513">
        <ele>378.849</ele>
        <time>2022-08-22T12:33:29Z</time>
      </trkpt>
      <trkpt lat="42.930006" lon="-8.141579">
        <ele>379.175</ele>
        <time>2022-08-22T12:33:33Z</time>
      </trkpt>
      <trkpt lat="42.929992" lon="-8.141641">
        <ele>379.428</ele>
        <time>2022-08-22T12:33:37Z</time>
      </trkpt>
      <trkpt lat="42.929978" lon="-8.141712">
        <ele>379.620</ele>
        <time>2022-08-22T12:33:41Z</time>
      </trkpt>
      <trkpt lat="42.929965" lon="-8.141783">
        <ele>379.909</ele>
        <time>2022-08-22T12:33:46Z</time>
      </trkpt>
      <trkpt lat="42.929952" lon="-8.141851">
        <ele>380.258</ele>
        <time>2022-08-22T12:33:50Z</time>
      </trkpt>
      <trkpt lat="42.929942" lon="-8.141922">
        <ele>380.658</ele>
        <time>2022-08-22T12:33:54Z</time>
      </trkpt>
      <trkpt lat="42.929934" lon="-8.141996">
        <ele>380.988</ele>
        <time>2022-08-22T12:33:58Z</time>
      </trkpt>
      <trkpt lat="42.929925" lon="-8.142058">
        <ele>381.121</ele>
        <time>2022-08-22T12:34:01Z</time>
      </trkpt>
      <trkpt lat="42.929922" lon="-8.142130">
        <ele>381.353</ele>
        <time>2022-08-22T12:34:06Z</time>
      </trkpt>
      <trkpt lat="42.929912" lon="-8.142200">
        <ele>381.495</ele>
        <time>2022-08-22T12:34:10Z</time>
      </trkpt>
      <trkpt lat="42.929912" lon="-8.142276">
        <ele>381.655</ele>
        <time>2022-08-22T12:34:14Z</time>
      </trkpt>
      <trkpt lat="42.929906" lon="-8.142347">
        <ele>381.970</ele>
        <time>2022-08-22T12:34:18Z</time>
      </trkpt>
      <trkpt lat="42.929907" lon="-8.142418">
        <ele>382.225</ele>
        <time>2022-08-22T12:34:22Z</time>
      </trkpt>
      <trkpt lat="42.929908" lon="-8.142497">
        <ele>382.664</ele>
        <time>2022-08-22T12:34:27Z</time>
      </trkpt>
      <trkpt lat="42.929918" lon="-8.142565">
        <ele>382.706</ele>
        <time>2022-08-22T12:34:31Z</time>
      </trkpt>
      <trkpt lat="42.929921" lon="-8.142639">
        <ele>382.816</ele>
        <time>2022-08-22T12:34:35Z</time>
      </trkpt>
      <trkpt lat="42.929924" lon="-8.142700">
        <ele>383.009</ele>
        <time>2022-08-22T12:34:38Z</time>
      </trkpt>
      <trkpt lat="42.929914" lon="-8.142781">
        <ele>383.287</ele>
        <time>2022-08-22T12:34:42Z</time>
      </trkpt>
      <trkpt lat="42.929917" lon="-8.142857">
        <ele>383.347</ele>
        <time>2022-08-22T12:34:46Z</time>
      </trkpt>
      <trkpt lat="42.929911" lon="-8.142919">
        <ele>383.327</ele>
        <time>2022-08-22T12:34:49Z</time>
      </trkpt>
      <trkpt lat="42.929913" lon="-8.142989">
        <ele>383.610</ele>
        <time>2022-08-22T12:34:53Z</time>
      </trkpt>
      <trkpt lat="42.929906" lon="-8.143057">
        <ele>384.182</ele>
        <time>2022-08-22T12:34:56Z</time>
      </trkpt>
      <trkpt lat="42.929909" lon="-8.143133">
        <ele>384.474</ele>
        <time>2022-08-22T12:35:00Z</time>
      </trkpt>
      <trkpt lat="42.929912" lon="-8.143204">
        <ele>384.594</ele>
        <time>2022-08-22T12:35:04Z</time>
      </trkpt>
      <trkpt lat="42.929909" lon="-8.143266">
        <ele>384.539</ele>
        <time>2022-08-22T12:35:08Z</time>
      </trkpt>
      <trkpt lat="42.929904" lon="-8.143331">
        <ele>384.674</ele>
        <time>2022-08-22T12:35:12Z</time>
      </trkpt>
      <trkpt lat="42.929913" lon="-8.143404">
        <ele>384.821</ele>
        <time>2022-08-22T12:35:16Z</time>
      </trkpt>
      <trkpt lat="42.929919" lon="-8.143475">
        <ele>385.041</ele>
        <time>2022-08-22T12:35:20Z</time>
      </trkpt>
      <trkpt lat="42.929915" lon="-8.143543">
        <ele>385.105</ele>
        <time>2022-08-22T12:35:25Z</time>
      </trkpt>
      <trkpt lat="42.929916" lon="-8.143606">
        <ele>385.109</ele>
        <time>2022-08-22T12:35:29Z</time>
      </trkpt>
      <trkpt lat="42.929915" lon="-8.143669">
        <ele>385.393</ele>
        <time>2022-08-22T12:35:33Z</time>
      </trkpt>
      <trkpt lat="42.929916" lon="-8.143738">
        <ele>385.593</ele>
        <time>2022-08-22T12:35:37Z</time>
      </trkpt>
      <trkpt lat="42.929917" lon="-8.143814">
        <ele>385.693</ele>
        <time>2022-08-22T12:35:41Z</time>
      </trkpt>
      <trkpt lat="42.929923" lon="-8.143894">
        <ele>385.886</ele>
        <time>2022-08-22T12:35:46Z</time>
      </trkpt>
      <trkpt lat="42.929922" lon="-8.143968">
        <ele>386.098</ele>
        <time>2022-08-22T12:35:50Z</time>
      </trkpt>
      <trkpt lat="42.929928" lon="-8.144038">
        <ele>386.130</ele>
        <time>2022-08-22T12:35:54Z</time>
      </trkpt>
      <trkpt lat="42.929920" lon="-8.144112">
        <ele>386.190</ele>
        <time>2022-08-22T12:35:58Z</time>
      </trkpt>
      <trkpt lat="42.929914" lon="-8.144174">
        <ele>386.145</ele>
        <time>2022-08-22T12:36:02Z</time>
      </trkpt>
      <trkpt lat="42.929915" lon="-8.144236">
        <ele>386.230</ele>
        <time>2022-08-22T12:36:05Z</time>
      </trkpt>
      <trkpt lat="42.929918" lon="-8.144298">
        <ele>386.447</ele>
        <time>2022-08-22T12:36:08Z</time>
      </trkpt>
      <trkpt lat="42.929930" lon="-8.144364">
        <ele>386.429</ele>
        <time>2022-08-22T12:36:12Z</time>
      </trkpt>
      <trkpt lat="42.929937" lon="-8.144428">
        <ele>386.421</ele>
        <time>2022-08-22T12:36:15Z</time>
      </trkpt>
      <trkpt lat="42.929937" lon="-8.144497">
        <ele>386.409</ele>
        <time>2022-08-22T12:36:19Z</time>
      </trkpt>
      <trkpt lat="42.929941" lon="-8.144559">
        <ele>386.535</ele>
        <time>2022-08-22T12:36:23Z</time>
      </trkpt>
      <trkpt lat="42.929930" lon="-8.144633">
        <ele>386.795</ele>
        <time>2022-08-22T12:36:28Z</time>
      </trkpt>
      <trkpt lat="42.929932" lon="-8.144706">
        <ele>386.945</ele>
        <time>2022-08-22T12:36:33Z</time>
      </trkpt>
      <trkpt lat="42.929933" lon="-8.144769">
        <ele>387.028</ele>
        <time>2022-08-22T12:36:37Z</time>
      </trkpt>
      <trkpt lat="42.929930" lon="-8.144834">
        <ele>387.250</ele>
        <time>2022-08-22T12:36:41Z</time>
      </trkpt>
      <trkpt lat="42.929936" lon="-8.144905">
        <ele>387.492</ele>
        <time>2022-08-22T12:36:46Z</time>
      </trkpt>
      <trkpt lat="42.929931" lon="-8.144983">
        <ele>387.432</ele>
        <time>2022-08-22T12:36:50Z</time>
      </trkpt>
      <trkpt lat="42.929935" lon="-8.145057">
        <ele>387.657</ele>
        <time>2022-08-22T12:36:54Z</time>
      </trkpt>
      <trkpt lat="42.929933" lon="-8.145125">
        <ele>387.812</ele>
        <time>2022-08-22T12:36:59Z</time>
      </trkpt>
      <trkpt lat="42.929941" lon="-8.145186">
        <ele>387.838</ele>
        <time>2022-08-22T12:37:03Z</time>
      </trkpt>
      <trkpt lat="42.929940" lon="-8.145262">
        <ele>387.870</ele>
        <time>2022-08-22T12:37:07Z</time>
      </trkpt>
      <trkpt lat="42.929939" lon="-8.145340">
        <ele>387.817</ele>
        <time>2022-08-22T12:37:11Z</time>
      </trkpt>
      <trkpt lat="42.929935" lon="-8.145406">
        <ele>387.909</ele>
        <time>2022-08-22T12:37:15Z</time>
      </trkpt>
      <trkpt lat="42.929931" lon="-8.145480">
        <ele>388.084</ele>
        <time>2022-08-22T12:37:19Z</time>
      </trkpt>
      <trkpt lat="42.929939" lon="-8.145555">
        <ele>388.414</ele>
        <time>2022-08-22T12:37:23Z</time>
      </trkpt>
      <trkpt lat="42.929933" lon="-8.145630">
        <ele>388.554</ele>
        <time>2022-08-22T12:37:27Z</time>
      </trkpt>
      <trkpt lat="42.929931" lon="-8.145697">
        <ele>388.517</ele>
        <time>2022-08-22T12:37:31Z</time>
      </trkpt>
      <trkpt lat="42.929927" lon="-8.145759">
        <ele>388.629</ele>
        <time>2022-08-22T12:37:35Z</time>
      </trkpt>
      <trkpt lat="42.929931" lon="-8.145834">
        <ele>388.711</ele>
        <time>2022-08-22T12:37:39Z</time>
      </trkpt>
      <trkpt lat="42.929931" lon="-8.145902">
        <ele>388.921</ele>
        <time>2022-08-22T12:37:43Z</time>
      </trkpt>
      <trkpt lat="42.929931" lon="-8.145978">
        <ele>389.056</ele>
        <time>2022-08-22T12:37:47Z</time>
      </trkpt>
      <trkpt lat="42.929937" lon="-8.146050">
        <ele>389.131</ele>
        <time>2022-08-22T12:37:51Z</time>
      </trkpt>
      <trkpt lat="42.929936" lon="-8.146112">
        <ele>389.246</ele>
        <time>2022-08-22T12:37:54Z</time>
      </trkpt>
      <trkpt lat="42.929931" lon="-8.146177">
        <ele>389.388</ele>
        <time>2022-08-22T12:37:58Z</time>
      </trkpt>
      <trkpt lat="42.929930" lon="-8.146251">
        <ele>389.516</ele>
        <time>2022-08-22T12:38:02Z</time>
      </trkpt>
      <trkpt lat="42.929935" lon="-8.146314">
        <ele>389.809</ele>
        <time>2022-08-22T12:38:06Z</time>
      </trkpt>
      <trkpt lat="42.929931" lon="-8.146380">
        <ele>389.985</ele>
        <time>2022-08-22T12:38:10Z</time>
      </trkpt>
      <trkpt lat="42.929932" lon="-8.146449">
        <ele>389.975</ele>
        <time>2022-08-22T12:38:15Z</time>
      </trkpt>
      <trkpt lat="42.929936" lon="-8.146511">
        <ele>390.075</ele>
        <time>2022-08-22T12:38:19Z</time>
      </trkpt>
      <trkpt lat="42.929939" lon="-8.146592">
        <ele>390.198</ele>
        <time>2022-08-22T12:38:23Z</time>
      </trkpt>
      <trkpt lat="42.929937" lon="-8.146655">
        <ele>390.220</ele>
        <time>2022-08-22T12:38:27Z</time>
      </trkpt>
      <trkpt lat="42.929933" lon="-8.146725">
        <ele>390.322</ele>
        <time>2022-08-22T12:38:31Z</time>
      </trkpt>
      <trkpt lat="42.929936" lon="-8.146801">
        <ele>390.542</ele>
        <time>2022-08-22T12:38:35Z</time>
      </trkpt>
      <trkpt lat="42.929936" lon="-8.146874">
        <ele>390.717</ele>
        <time>2022-08-22T12:38:40Z</time>
      </trkpt>
      <trkpt lat="42.929941" lon="-8.146951">
        <ele>390.832</ele>
        <time>2022-08-22T12:38:44Z</time>
      </trkpt>
      <trkpt lat="42.929935" lon="-8.147016">
        <ele>391.017</ele>
        <time>2022-08-22T12:38:48Z</time>
      </trkpt>
      <trkpt lat="42.929929" lon="-8.147096">
        <ele>391.187</ele>
        <time>2022-08-22T12:38:52Z</time>
      </trkpt>
      <trkpt lat="42.929928" lon="-8.147171">
        <ele>391.215</ele>
        <time>2022-08-22T12:38:56Z</time>
      </trkpt>
      <trkpt lat="42.929931" lon="-8.147241">
        <ele>391.409</ele>
        <time>2022-08-22T12:39:00Z</time>
      </trkpt>
      <trkpt lat="42.929943" lon="-8.147306">
        <ele>391.582</ele>
        <time>2022-08-22T12:39:03Z</time>
      </trkpt>
      <trkpt lat="42.929952" lon="-8.147383">
        <ele>391.692</ele>
        <time>2022-08-22T12:39:07Z</time>
      </trkpt>
      <trkpt lat="42.929956" lon="-8.147450">
        <ele>391.612</ele>
        <time>2022-08-22T12:39:11Z</time>
      </trkpt>
      <trkpt lat="42.929956" lon="-8.147522">
        <ele>391.685</ele>
        <time>2022-08-22T12:39:16Z</time>
      </trkpt>
      <trkpt lat="42.929958" lon="-8.147590">
        <ele>391.737</ele>
        <time>2022-08-22T12:39:20Z</time>
      </trkpt>
      <trkpt lat="42.929963" lon="-8.147660">
        <ele>391.859</ele>
        <time>2022-08-22T12:39:24Z</time>
      </trkpt>
      <trkpt lat="42.929963" lon="-8.147728">
        <ele>392.089</ele>
        <time>2022-08-22T12:39:28Z</time>
      </trkpt>
      <trkpt lat="42.929964" lon="-8.147794">
        <ele>392.174</ele>
        <time>2022-08-22T12:39:32Z</time>
      </trkpt>
      <trkpt lat="42.929971" lon="-8.147856">
        <ele>392.229</ele>
        <time>2022-08-22T12:39:36Z</time>
      </trkpt>
      <trkpt lat="42.929973" lon="-8.147932">
        <ele>392.325</ele>
        <time>2022-08-22T12:39:40Z</time>
      </trkpt>
      <trkpt lat="42.929982" lon="-8.148003">
        <ele>392.526</ele>
        <time>2022-08-22T12:39:44Z</time>
      </trkpt>
      <trkpt lat="42.929987" lon="-8.148074">
        <ele>392.708</ele>
        <time>2022-08-22T12:39:48Z</time>
      </trkpt>
      <trkpt lat="42.929980" lon="-8.148149">
        <ele>392.809</ele>
        <time>2022-08-22T12:39:52Z</time>
      </trkpt>
      <trkpt lat="42.929983" lon="-8.148224">
        <ele>392.913</ele>
        <time>2022-08-22T12:39:56Z</time>
      </trkpt>
      <trkpt lat="42.929996" lon="-8.148295">
        <ele>392.973</ele>
        <time>2022-08-22T12:40:01Z</time>
      </trkpt>
      <trkpt lat="42.929996" lon="-8.148366">
        <ele>392.923</ele>
        <time>2022-08-22T12:40:05Z</time>
      </trkpt>
      <trkpt lat="42.929989" lon="-8.148440">
        <ele>392.986</ele>
        <time>2022-08-22T12:40:09Z</time>
      </trkpt>
      <trkpt lat="42.929980" lon="-8.148511">
        <ele>392.988</ele>
        <time>2022-08-22T12:40:13Z</time>
      </trkpt>
      <trkpt lat="42.929980" lon="-8.148580">
        <ele>392.960</ele>
        <time>2022-08-22T12:40:17Z</time>
      </trkpt>
      <trkpt lat="42.929981" lon="-8.148650">
        <ele>392.910</ele>
        <time>2022-08-22T12:40:22Z</time>
      </trkpt>
      <trkpt lat="42.929977" lon="-8.148731">
        <ele>392.965</ele>
        <time>2022-08-22T12:40:27Z</time>
      </trkpt>
      <trkpt lat="42.929976" lon="-8.148805">
        <ele>392.960</ele>
        <time>2022-08-22T12:40:32Z</time>
      </trkpt>
      <trkpt lat="42.929983" lon="-8.148879">
        <ele>392.914</ele>
        <time>2022-08-22T12:40:37Z</time>
      </trkpt>
      <trkpt lat="42.929978" lon="-8.148951">
        <ele>392.654</ele>
        <time>2022-08-22T12:40:41Z</time>
      </trkpt>
      <trkpt lat="42.929981" lon="-8.149021">
        <ele>392.509</ele>
        <time>2022-08-22T12:40:45Z</time>
      </trkpt>
      <trkpt lat="42.929998" lon="-8.149094">
        <ele>392.309</ele>
        <time>2022-08-22T12:40:49Z</time>
      </trkpt>
      <trkpt lat="42.930000" lon="-8.149162">
        <ele>392.182</ele>
        <time>2022-08-22T12:40:53Z</time>
      </trkpt>
      <trkpt lat="42.930017" lon="-8.149231">
        <ele>392.052</ele>
        <time>2022-08-22T12:40:57Z</time>
      </trkpt>
      <trkpt lat="42.930042" lon="-8.149301">
        <ele>391.912</ele>
        <time>2022-08-22T12:41:02Z</time>
      </trkpt>
      <trkpt lat="42.930044" lon="-8.149372">
        <ele>391.675</ele>
        <time>2022-08-22T12:41:06Z</time>
      </trkpt>
      <trkpt lat="42.930051" lon="-8.149448">
        <ele>391.297</ele>
        <time>2022-08-22T12:41:10Z</time>
      </trkpt>
      <trkpt lat="42.930059" lon="-8.149517">
        <ele>390.989</ele>
        <time>2022-08-22T12:41:14Z</time>
      </trkpt>
      <trkpt lat="42.930070" lon="-8.149589">
        <ele>390.939</ele>
        <time>2022-08-22T12:41:19Z</time>
      </trkpt>
      <trkpt lat="42.930083" lon="-8.149652">
        <ele>390.994</ele>
        <time>2022-08-22T12:41:23Z</time>
      </trkpt>
      <trkpt lat="42.930096" lon="-8.149724">
        <ele>390.919</ele>
        <time>2022-08-22T12:41:27Z</time>
      </trkpt>
      <trkpt lat="42.930080" lon="-8.149804">
        <ele>390.842</ele>
        <time>2022-08-22T12:41:31Z</time>
      </trkpt>
      <trkpt lat="42.930063" lon="-8.149880">
        <ele>390.522</ele>
        <time>2022-08-22T12:41:35Z</time>
      </trkpt>
      <trkpt lat="42.930070" lon="-8.149949">
        <ele>390.014</ele>
        <time>2022-08-22T12:41:39Z</time>
      </trkpt>
      <trkpt lat="42.930066" lon="-8.150011">
        <ele>389.909</ele>
        <time>2022-08-22T12:41:43Z</time>
      </trkpt>
      <trkpt lat="42.930066" lon="-8.150081">
        <ele>389.915</ele>
        <time>2022-08-22T12:41:47Z</time>
      </trkpt>
      <trkpt lat="42.930066" lon="-8.150151">
        <ele>389.975</ele>
        <time>2022-08-22T12:41:51Z</time>
      </trkpt>
      <trkpt lat="42.930059" lon="-8.150215">
        <ele>389.945</ele>
        <time>2022-08-22T12:41:55Z</time>
      </trkpt>
      <trkpt lat="42.930058" lon="-8.150283">
        <ele>389.838</ele>
        <time>2022-08-22T12:41:59Z</time>
      </trkpt>
      <trkpt lat="42.930057" lon="-8.150349">
        <ele>389.780</ele>
        <time>2022-08-22T12:42:03Z</time>
      </trkpt>
      <trkpt lat="42.930058" lon="-8.150418">
        <ele>389.752</ele>
        <time>2022-08-22T12:42:07Z</time>
      </trkpt>
      <trkpt lat="42.930061" lon="-8.150488">
        <ele>389.722</ele>
        <time>2022-08-22T12:42:11Z</time>
      </trkpt>
      <trkpt lat="42.930070" lon="-8.150559">
        <ele>389.757</ele>
        <time>2022-08-22T12:42:15Z</time>
      </trkpt>
      <trkpt lat="42.930068" lon="-8.150626">
        <ele>389.712</ele>
        <time>2022-08-22T12:42:19Z</time>
      </trkpt>
      <trkpt lat="42.930069" lon="-8.150697">
        <ele>389.725</ele>
        <time>2022-08-22T12:42:23Z</time>
      </trkpt>
      <trkpt lat="42.930066" lon="-8.150762">
        <ele>389.726</ele>
        <time>2022-08-22T12:42:27Z</time>
      </trkpt>
      <trkpt lat="42.930070" lon="-8.150823">
        <ele>389.708</ele>
        <time>2022-08-22T12:42:30Z</time>
      </trkpt>
      <trkpt lat="42.930062" lon="-8.150888">
        <ele>389.609</ele>
        <time>2022-08-22T12:42:34Z</time>
      </trkpt>
      <trkpt lat="42.930063" lon="-8.150951">
        <ele>389.553</ele>
        <time>2022-08-22T12:42:37Z</time>
      </trkpt>
      <trkpt lat="42.930062" lon="-8.151022">
        <ele>389.533</ele>
        <time>2022-08-22T12:42:42Z</time>
      </trkpt>
      <trkpt lat="42.930054" lon="-8.151099">
        <ele>389.533</ele>
        <time>2022-08-22T12:42:46Z</time>
      </trkpt>
      <trkpt lat="42.930053" lon="-8.151172">
        <ele>389.796</ele>
        <time>2022-08-22T12:42:51Z</time>
      </trkpt>
      <trkpt lat="42.930055" lon="-8.151244">
        <ele>389.938</ele>
        <time>2022-08-22T12:42:55Z</time>
      </trkpt>
      <trkpt lat="42.930052" lon="-8.151307">
        <ele>390.090</ele>
        <time>2022-08-22T12:42:59Z</time>
      </trkpt>
      <trkpt lat="42.930051" lon="-8.151380">
        <ele>390.110</ele>
        <time>2022-08-22T12:43:03Z</time>
      </trkpt>
      <trkpt lat="42.930045" lon="-8.151448">
        <ele>390.275</ele>
        <time>2022-08-22T12:43:07Z</time>
      </trkpt>
      <trkpt lat="42.930041" lon="-8.151511">
        <ele>390.360</ele>
        <time>2022-08-22T12:43:11Z</time>
      </trkpt>
      <trkpt lat="42.930034" lon="-8.151576">
        <ele>390.434</ele>
        <time>2022-08-22T12:43:15Z</time>
      </trkpt>
      <trkpt lat="42.930020" lon="-8.151637">
        <ele>390.655</ele>
        <time>2022-08-22T12:43:19Z</time>
      </trkpt>
      <trkpt lat="42.930006" lon="-8.151713">
        <ele>390.810</ele>
        <time>2022-08-22T12:43:23Z</time>
      </trkpt>
      <trkpt lat="42.930002" lon="-8.151782">
        <ele>391.009</ele>
        <time>2022-08-22T12:43:27Z</time>
      </trkpt>
      <trkpt lat="42.929988" lon="-8.151855">
        <ele>391.274</ele>
        <time>2022-08-22T12:43:31Z</time>
      </trkpt>
      <trkpt lat="42.929984" lon="-8.151930">
        <ele>391.414</ele>
        <time>2022-08-22T12:43:36Z</time>
      </trkpt>
      <trkpt lat="42.929984" lon="-8.152006">
        <ele>391.634</ele>
        <time>2022-08-22T12:43:40Z</time>
      </trkpt>
      <trkpt lat="42.929993" lon="-8.152070">
        <ele>391.767</ele>
        <time>2022-08-22T12:43:44Z</time>
      </trkpt>
      <trkpt lat="42.929971" lon="-8.152140">
        <ele>391.979</ele>
        <time>2022-08-22T12:43:48Z</time>
      </trkpt>
      <trkpt lat="42.929969" lon="-8.152209">
        <ele>391.991</ele>
        <time>2022-08-22T12:43:52Z</time>
      </trkpt>
      <trkpt lat="42.929959" lon="-8.152278">
        <ele>392.051</ele>
        <time>2022-08-22T12:43:56Z</time>
      </trkpt>
      <trkpt lat="42.929948" lon="-8.152356">
        <ele>392.236</ele>
        <time>2022-08-22T12:44:01Z</time>
      </trkpt>
      <trkpt lat="42.929940" lon="-8.152425">
        <ele>392.581</ele>
        <time>2022-08-22T12:44:05Z</time>
      </trkpt>
      <trkpt lat="42.929937" lon="-8.152487">
        <ele>392.859</ele>
        <time>2022-08-22T12:44:09Z</time>
      </trkpt>
      <trkpt lat="42.929927" lon="-8.152556">
        <ele>393.003</ele>
        <time>2022-08-22T12:44:13Z</time>
      </trkpt>
      <trkpt lat="42.929924" lon="-8.152640">
        <ele>393.123</ele>
        <time>2022-08-22T12:44:17Z</time>
      </trkpt>
      <trkpt lat="42.929916" lon="-8.152716">
        <ele>393.109</ele>
        <time>2022-08-22T12:44:21Z</time>
      </trkpt>
      <trkpt lat="42.929899" lon="-8.152787">
        <ele>393.226</ele>
        <time>2022-08-22T12:44:27Z</time>
      </trkpt>
      <trkpt lat="42.929894" lon="-8.152861">
        <ele>393.346</ele>
        <time>2022-08-22T12:44:31Z</time>
      </trkpt>
      <trkpt lat="42.929882" lon="-8.152929">
        <ele>393.636</ele>
        <time>2022-08-22T12:44:35Z</time>
      </trkpt>
      <trkpt lat="42.929875" lon="-8.152998">
        <ele>393.739</ele>
        <time>2022-08-22T12:44:39Z</time>
      </trkpt>
      <trkpt lat="42.929870" lon="-8.153062">
        <ele>393.861</ele>
        <time>2022-08-22T12:44:43Z</time>
      </trkpt>
      <trkpt lat="42.929844" lon="-8.153116">
        <ele>394.033</ele>
        <time>2022-08-22T12:44:47Z</time>
      </trkpt>
      <trkpt lat="42.929846" lon="-8.153186">
        <ele>394.273</ele>
        <time>2022-08-22T12:44:51Z</time>
      </trkpt>
      <trkpt lat="42.929833" lon="-8.153258">
        <ele>394.268</ele>
        <time>2022-08-22T12:44:56Z</time>
      </trkpt>
      <trkpt lat="42.929827" lon="-8.153329">
        <ele>394.253</ele>
        <time>2022-08-22T12:45:00Z</time>
      </trkpt>
      <trkpt lat="42.929810" lon="-8.153397">
        <ele>394.253</ele>
        <time>2022-08-22T12:45:04Z</time>
      </trkpt>
      <trkpt lat="42.929793" lon="-8.153479">
        <ele>394.204</ele>
        <time>2022-08-22T12:45:09Z</time>
      </trkpt>
      <trkpt lat="42.929776" lon="-8.153541">
        <ele>394.914</ele>
        <time>2022-08-22T12:45:13Z</time>
      </trkpt>
      <trkpt lat="42.929764" lon="-8.153609">
        <ele>395.109</ele>
        <time>2022-08-22T12:45:17Z</time>
      </trkpt>
      <trkpt lat="42.929744" lon="-8.153669">
        <ele>395.326</ele>
        <time>2022-08-22T12:45:21Z</time>
      </trkpt>
      <trkpt lat="42.929711" lon="-8.153730">
        <ele>395.396</ele>
        <time>2022-08-22T12:45:25Z</time>
      </trkpt>
      <trkpt lat="42.929697" lon="-8.153797">
        <ele>395.346</ele>
        <time>2022-08-22T12:45:30Z</time>
      </trkpt>
      <trkpt lat="42.929665" lon="-8.153868">
        <ele>395.369</ele>
        <time>2022-08-22T12:45:34Z</time>
      </trkpt>
      <trkpt lat="42.929642" lon="-8.153921">
        <ele>395.331</ele>
        <time>2022-08-22T12:45:38Z</time>
      </trkpt>
      <trkpt lat="42.929612" lon="-8.153974">
        <ele>395.313</ele>
        <time>2022-08-22T12:45:42Z</time>
      </trkpt>
      <trkpt lat="42.929583" lon="-8.154026">
        <ele>395.363</ele>
        <time>2022-08-22T12:45:47Z</time>
      </trkpt>
      <trkpt lat="42.929564" lon="-8.154092">
        <ele>395.448</ele>
        <time>2022-08-22T12:45:50Z</time>
      </trkpt>
      <trkpt lat="42.929555" lon="-8.154154">
        <ele>395.663</ele>
        <time>2022-08-22T12:45:53Z</time>
      </trkpt>
      <trkpt lat="42.929553" lon="-8.154223">
        <ele>395.745</ele>
        <time>2022-08-22T12:45:57Z</time>
      </trkpt>
      <trkpt lat="42.929548" lon="-8.154285">
        <ele>395.747</ele>
        <time>2022-08-22T12:46:01Z</time>
      </trkpt>
      <trkpt lat="42.929525" lon="-8.154344">
        <ele>395.711</ele>
        <time>2022-08-22T12:46:05Z</time>
      </trkpt>
      <trkpt lat="42.929510" lon="-8.154408">
        <ele>395.609</ele>
        <time>2022-08-22T12:46:09Z</time>
      </trkpt>
      <trkpt lat="42.929488" lon="-8.154466">
        <ele>395.695</ele>
        <time>2022-08-22T12:46:13Z</time>
      </trkpt>
      <trkpt lat="42.929459" lon="-8.154534">
        <ele>395.675</ele>
        <time>2022-08-22T12:46:18Z</time>
      </trkpt>
      <trkpt lat="42.929432" lon="-8.154595">
        <ele>395.675</ele>
        <time>2022-08-22T12:46:22Z</time>
      </trkpt>
      <trkpt lat="42.929395" lon="-8.154646">
        <ele>395.748</ele>
        <time>2022-08-22T12:46:27Z</time>
      </trkpt>
      <trkpt lat="42.929368" lon="-8.154703">
        <ele>395.980</ele>
        <time>2022-08-22T12:46:31Z</time>
      </trkpt>
      <trkpt lat="42.929335" lon="-8.154766">
        <ele>396.082</ele>
        <time>2022-08-22T12:46:35Z</time>
      </trkpt>
      <trkpt lat="42.929310" lon="-8.154820">
        <ele>396.152</ele>
        <time>2022-08-22T12:46:39Z</time>
      </trkpt>
      <trkpt lat="42.929282" lon="-8.154872">
        <ele>396.327</ele>
        <time>2022-08-22T12:46:43Z</time>
      </trkpt>
      <trkpt lat="42.929257" lon="-8.154937">
        <ele>396.412</ele>
        <time>2022-08-22T12:46:48Z</time>
      </trkpt>
      <trkpt lat="42.929234" lon="-8.154991">
        <ele>396.591</ele>
        <time>2022-08-22T12:46:52Z</time>
      </trkpt>
      <trkpt lat="42.929207" lon="-8.155041">
        <ele>396.781</ele>
        <time>2022-08-22T12:46:56Z</time>
      </trkpt>
      <trkpt lat="42.929184" lon="-8.155114">
        <ele>396.919</ele>
        <time>2022-08-22T12:47:01Z</time>
      </trkpt>
      <trkpt lat="42.929171" lon="-8.155179">
        <ele>397.009</ele>
        <time>2022-08-22T12:47:06Z</time>
      </trkpt>
      <trkpt lat="42.929133" lon="-8.155243">
        <ele>397.290</ele>
        <time>2022-08-22T12:47:10Z</time>
      </trkpt>
      <trkpt lat="42.929111" lon="-8.155307">
        <ele>397.430</ele>
        <time>2022-08-22T12:47:14Z</time>
      </trkpt>
      <trkpt lat="42.929081" lon="-8.155355">
        <ele>397.450</ele>
        <time>2022-08-22T12:47:18Z</time>
      </trkpt>
      <trkpt lat="42.929058" lon="-8.155416">
        <ele>397.493</ele>
        <time>2022-08-22T12:47:22Z</time>
      </trkpt>
      <trkpt lat="42.929063" lon="-8.155488">
        <ele>397.595</ele>
        <time>2022-08-22T12:47:26Z</time>
      </trkpt>
      <trkpt lat="42.929075" lon="-8.155561">
        <ele>397.647</ele>
        <time>2022-08-22T12:47:30Z</time>
      </trkpt>
      <trkpt lat="42.929047" lon="-8.155615">
        <ele>397.627</ele>
        <time>2022-08-22T12:47:34Z</time>
      </trkpt>
      <trkpt lat="42.929025" lon="-8.155684">
        <ele>397.732</ele>
        <time>2022-08-22T12:47:38Z</time>
      </trkpt>
      <trkpt lat="42.929011" lon="-8.155748">
        <ele>397.977</ele>
        <time>2022-08-22T12:47:42Z</time>
      </trkpt>
      <trkpt lat="42.928987" lon="-8.155804">
        <ele>398.146</ele>
        <time>2022-08-22T12:47:46Z</time>
      </trkpt>
      <trkpt lat="42.928957" lon="-8.155876">
        <ele>398.288</ele>
        <time>2022-08-22T12:47:51Z</time>
      </trkpt>
      <trkpt lat="42.928954" lon="-8.155939">
        <ele>398.316</ele>
        <time>2022-08-22T12:47:55Z</time>
      </trkpt>
      <trkpt lat="42.928957" lon="-8.156003">
        <ele>398.409</ele>
        <time>2022-08-22T12:47:58Z</time>
      </trkpt>
      <trkpt lat="42.928942" lon="-8.156079">
        <ele>398.635</ele>
        <time>2022-08-22T12:48:03Z</time>
      </trkpt>
      <trkpt lat="42.928920" lon="-8.156140">
        <ele>398.995</ele>
        <time>2022-08-22T12:48:09Z</time>
      </trkpt>
      <trkpt lat="42.928906" lon="-8.156203">
        <ele>399.135</ele>
        <time>2022-08-22T12:48:13Z</time>
      </trkpt>
      <trkpt lat="42.928881" lon="-8.156265">
        <ele>399.178</ele>
        <time>2022-08-22T12:48:18Z</time>
      </trkpt>
      <trkpt lat="42.928845" lon="-8.156314">
        <ele>399.170</ele>
        <time>2022-08-22T12:48:22Z</time>
      </trkpt>
      <trkpt lat="42.928806" lon="-8.156377">
        <ele>399.122</ele>
        <time>2022-08-22T12:48:26Z</time>
      </trkpt>
      <trkpt lat="42.928776" lon="-8.156425">
        <ele>399.122</ele>
        <time>2022-08-22T12:48:30Z</time>
      </trkpt>
      <trkpt lat="42.928723" lon="-8.156449">
        <ele>399.127</ele>
        <time>2022-08-22T12:48:33Z</time>
      </trkpt>
      <trkpt lat="42.928680" lon="-8.156491">
        <ele>399.152</ele>
        <time>2022-08-22T12:48:36Z</time>
      </trkpt>
      <trkpt lat="42.928664" lon="-8.156550">
        <ele>399.124</ele>
        <time>2022-08-22T12:48:55Z</time>
      </trkpt>
      <trkpt lat="42.928622" lon="-8.156597">
        <ele>399.104</ele>
        <time>2022-08-22T12:48:59Z</time>
      </trkpt>
      <trkpt lat="42.928592" lon="-8.156648">
        <ele>398.914</ele>
        <time>2022-08-22T12:49:03Z</time>
      </trkpt>
      <trkpt lat="42.928575" lon="-8.156710">
        <ele>398.709</ele>
        <time>2022-08-22T12:49:07Z</time>
      </trkpt>
      <trkpt lat="42.928563" lon="-8.156778">
        <ele>398.693</ele>
        <time>2022-08-22T12:49:11Z</time>
      </trkpt>
      <trkpt lat="42.930390" lon="-8.158692">
        <ele>405.358</ele>
        <time>2022-08-23T07:31:32Z</time>
      </trkpt>
      <trkpt lat="42.930419" lon="-8.158803">
        <ele>405.852</ele>
        <time>2022-08-23T07:31:34Z</time>
      </trkpt>
      <trkpt lat="42.930433" lon="-8.158862">
        <ele>406.217</ele>
        <time>2022-08-23T07:31:35Z</time>
      </trkpt>
      <trkpt lat="42.930447" lon="-8.158932">
        <ele>406.109</ele>
        <time>2022-08-23T07:31:37Z</time>
      </trkpt>
      <trkpt lat="42.930432" lon="-8.158990">
        <ele>406.096</ele>
        <time>2022-08-23T07:31:41Z</time>
      </trkpt>
      <trkpt lat="42.930398" lon="-8.159031">
        <ele>406.046</ele>
        <time>2022-08-23T07:31:46Z</time>
      </trkpt>
      <trkpt lat="42.930351" lon="-8.159076">
        <ele>405.886</ele>
        <time>2022-08-23T07:31:52Z</time>
      </trkpt>
      <trkpt lat="42.930295" lon="-8.159090">
        <ele>405.540</ele>
        <time>2022-08-23T07:31:54Z</time>
      </trkpt>
      <trkpt lat="42.930235" lon="-8.159110">
        <ele>405.370</ele>
        <time>2022-08-23T07:31:55Z</time>
      </trkpt>
      <trkpt lat="42.930175" lon="-8.159137">
        <ele>405.141</ele>
        <time>2022-08-23T07:31:59Z</time>
      </trkpt>
      <trkpt lat="42.930137" lon="-8.159172">
        <ele>405.049</ele>
        <time>2022-08-23T07:32:02Z</time>
      </trkpt>
      <trkpt lat="42.930097" lon="-8.159200">
        <ele>404.922</ele>
        <time>2022-08-23T07:32:07Z</time>
      </trkpt>
      <trkpt lat="42.930054" lon="-8.159233">
        <ele>404.867</ele>
        <time>2022-08-23T07:32:13Z</time>
      </trkpt>
      <trkpt lat="42.930010" lon="-8.159274">
        <ele>404.541</ele>
        <time>2022-08-23T07:32:18Z</time>
      </trkpt>
      <trkpt lat="42.929966" lon="-8.159316">
        <ele>404.381</ele>
        <time>2022-08-23T07:32:23Z</time>
      </trkpt>
      <trkpt lat="42.929925" lon="-8.159351">
        <ele>404.209</ele>
        <time>2022-08-23T07:32:28Z</time>
      </trkpt>
      <trkpt lat="42.929880" lon="-8.159378">
        <ele>404.109</ele>
        <time>2022-08-23T07:32:32Z</time>
      </trkpt>
      <trkpt lat="42.929836" lon="-8.159425">
        <ele>404.035</ele>
        <time>2022-08-23T07:32:38Z</time>
      </trkpt>
      <trkpt lat="42.929804" lon="-8.159470">
        <ele>403.935</ele>
        <time>2022-08-23T07:32:42Z</time>
      </trkpt>
      <trkpt lat="42.929763" lon="-8.159515">
        <ele>403.885</ele>
        <time>2022-08-23T07:32:47Z</time>
      </trkpt>
      <trkpt lat="42.929717" lon="-8.159552">
        <ele>403.769</ele>
        <time>2022-08-23T07:32:52Z</time>
      </trkpt>
      <trkpt lat="42.929686" lon="-8.159607">
        <ele>403.699</ele>
        <time>2022-08-23T07:32:56Z</time>
      </trkpt>
      <trkpt lat="42.929675" lon="-8.159666">
        <ele>403.560</ele>
        <time>2022-08-23T07:32:59Z</time>
      </trkpt>
      <trkpt lat="42.929648" lon="-8.159731">
        <ele>403.528</ele>
        <time>2022-08-23T07:33:03Z</time>
      </trkpt>
      <trkpt lat="42.929621" lon="-8.159784">
        <ele>403.431</ele>
        <time>2022-08-23T07:33:07Z</time>
      </trkpt>
      <trkpt lat="42.929585" lon="-8.159825">
        <ele>403.276</ele>
        <time>2022-08-23T07:33:11Z</time>
      </trkpt>
      <trkpt lat="42.929545" lon="-8.159870">
        <ele>403.192</ele>
        <time>2022-08-23T07:33:15Z</time>
      </trkpt>
      <trkpt lat="42.929508" lon="-8.159913">
        <ele>403.073</ele>
        <time>2022-08-23T07:33:19Z</time>
      </trkpt>
      <trkpt lat="42.929468" lon="-8.159947">
        <ele>402.920</ele>
        <time>2022-08-23T07:33:24Z</time>
      </trkpt>
      <trkpt lat="42.929419" lon="-8.159970">
        <ele>402.809</ele>
        <time>2022-08-23T07:33:29Z</time>
      </trkpt>
      <trkpt lat="42.929381" lon="-8.160016">
        <ele>402.840</ele>
        <time>2022-08-23T07:33:34Z</time>
      </trkpt>
      <trkpt lat="42.929373" lon="-8.160082">
        <ele>402.710</ele>
        <time>2022-08-23T07:33:39Z</time>
      </trkpt>
      <trkpt lat="42.929325" lon="-8.160039">
        <ele>402.530</ele>
        <time>2022-08-23T07:33:43Z</time>
      </trkpt>
      <trkpt lat="42.929300" lon="-8.160210">
        <ele>402.254</ele>
        <time>2022-08-23T07:33:57Z</time>
      </trkpt>
      <trkpt lat="42.929228" lon="-8.160220">
        <ele>402.064</ele>
        <time>2022-08-23T07:34:01Z</time>
      </trkpt>
      <trkpt lat="42.929183" lon="-8.160240">
        <ele>401.845</ele>
        <time>2022-08-23T07:34:03Z</time>
      </trkpt>
      <trkpt lat="42.929137" lon="-8.160276">
        <ele>401.713</ele>
        <time>2022-08-23T07:34:06Z</time>
      </trkpt>
      <trkpt lat="42.929097" lon="-8.160325">
        <ele>401.796</ele>
        <time>2022-08-23T07:34:09Z</time>
      </trkpt>
      <trkpt lat="42.929058" lon="-8.160358">
        <ele>401.571</ele>
        <time>2022-08-23T07:34:12Z</time>
      </trkpt>
      <trkpt lat="42.929010" lon="-8.160419">
        <ele>401.455</ele>
        <time>2022-08-23T07:34:15Z</time>
      </trkpt>
      <trkpt lat="42.928971" lon="-8.160458">
        <ele>401.207</ele>
        <time>2022-08-23T07:34:18Z</time>
      </trkpt>
      <trkpt lat="42.928925" lon="-8.160505">
        <ele>401.117</ele>
        <time>2022-08-23T07:34:22Z</time>
      </trkpt>
      <trkpt lat="42.928882" lon="-8.160553">
        <ele>401.009</ele>
        <time>2022-08-23T07:34:26Z</time>
      </trkpt>
      <trkpt lat="42.928847" lon="-8.160596">
        <ele>400.756</ele>
        <time>2022-08-23T07:34:30Z</time>
      </trkpt>
      <trkpt lat="42.928799" lon="-8.160624">
        <ele>400.596</ele>
        <time>2022-08-23T07:34:35Z</time>
      </trkpt>
      <trkpt lat="42.928743" lon="-8.160656">
        <ele>400.186</ele>
        <time>2022-08-23T07:34:39Z</time>
      </trkpt>
      <trkpt lat="42.928696" lon="-8.160679">
        <ele>400.050</ele>
        <time>2022-08-23T07:34:42Z</time>
      </trkpt>
      <trkpt lat="42.928652" lon="-8.160712">
        <ele>399.850</ele>
        <time>2022-08-23T07:34:45Z</time>
      </trkpt>
      <trkpt lat="42.928597" lon="-8.160753">
        <ele>399.631</ele>
        <time>2022-08-23T07:34:49Z</time>
      </trkpt>
      <trkpt lat="42.928546" lon="-8.160740">
        <ele>399.569</ele>
        <time>2022-08-23T07:34:54Z</time>
      </trkpt>
      <trkpt lat="42.928496" lon="-8.160729">
        <ele>399.552</ele>
        <time>2022-08-23T07:34:57Z</time>
      </trkpt>
      <trkpt lat="42.928450" lon="-8.160720">
        <ele>399.447</ele>
        <time>2022-08-23T07:35:00Z</time>
      </trkpt>
      <trkpt lat="42.928393" lon="-8.160711">
        <ele>399.111</ele>
        <time>2022-08-23T07:35:04Z</time>
      </trkpt>
      <trkpt lat="42.928341" lon="-8.160717">
        <ele>398.921</ele>
        <time>2022-08-23T07:35:08Z</time>
      </trkpt>
      <trkpt lat="42.928298" lon="-8.160738">
        <ele>398.703</ele>
        <time>2022-08-23T07:35:12Z</time>
      </trkpt>
      <trkpt lat="42.928246" lon="-8.160778">
        <ele>398.409</ele>
        <time>2022-08-23T07:35:17Z</time>
      </trkpt>
      <trkpt lat="42.928217" lon="-8.160825">
        <ele>398.062</ele>
        <time>2022-08-23T07:35:21Z</time>
      </trkpt>
      <trkpt lat="42.928173" lon="-8.160844">
        <ele>397.682</ele>
        <time>2022-08-23T07:35:25Z</time>
      </trkpt>
      <trkpt lat="42.928119" lon="-8.160826">
        <ele>397.362</ele>
        <time>2022-08-23T07:35:30Z</time>
      </trkpt>
      <trkpt lat="42.928069" lon="-8.160824">
        <ele>397.066</ele>
        <time>2022-08-23T07:35:34Z</time>
      </trkpt>
      <trkpt lat="42.928041" lon="-8.160891">
        <ele>396.596</ele>
        <time>2022-08-23T07:35:40Z</time>
      </trkpt>
      <trkpt lat="42.927991" lon="-8.160899">
        <ele>396.167</ele>
        <time>2022-08-23T07:35:49Z</time>
      </trkpt>
      <trkpt lat="42.927940" lon="-8.160892">
        <ele>395.775</ele>
        <time>2022-08-23T07:35:52Z</time>
      </trkpt>
      <trkpt lat="42.927892" lon="-8.160877">
        <ele>395.078</ele>
        <time>2022-08-23T07:35:55Z</time>
      </trkpt>
      <trkpt lat="42.927831" lon="-8.160839">
        <ele>394.373</ele>
        <time>2022-08-23T07:35:58Z</time>
      </trkpt>
      <trkpt lat="42.927792" lon="-8.160793">
        <ele>394.164</ele>
        <time>2022-08-23T07:36:01Z</time>
      </trkpt>
      <trkpt lat="42.927739" lon="-8.160765">
        <ele>393.606</ele>
        <time>2022-08-23T07:36:04Z</time>
      </trkpt>
      <trkpt lat="42.927692" lon="-8.160747">
        <ele>393.416</ele>
        <time>2022-08-23T07:36:07Z</time>
      </trkpt>
      <trkpt lat="42.927642" lon="-8.160729">
        <ele>393.409</ele>
        <time>2022-08-23T07:36:11Z</time>
      </trkpt>
      <trkpt lat="42.927593" lon="-8.160711">
        <ele>393.487</ele>
        <time>2022-08-23T07:36:14Z</time>
      </trkpt>
      <trkpt lat="42.927554" lon="-8.160680">
        <ele>393.247</ele>
        <time>2022-08-23T07:36:18Z</time>
      </trkpt>
      <trkpt lat="42.927517" lon="-8.160624">
        <ele>392.867</ele>
        <time>2022-08-23T07:36:22Z</time>
      </trkpt>
      <trkpt lat="42.927483" lon="-8.160578">
        <ele>392.351</ele>
        <time>2022-08-23T07:36:26Z</time>
      </trkpt>
      <trkpt lat="42.927442" lon="-8.160543">
        <ele>391.611</ele>
        <time>2022-08-23T07:36:29Z</time>
      </trkpt>
      <trkpt lat="42.927397" lon="-8.160516">
        <ele>390.962</ele>
        <time>2022-08-23T07:36:33Z</time>
      </trkpt>
      <trkpt lat="42.927348" lon="-8.160558">
        <ele>390.350</ele>
        <time>2022-08-23T07:36:37Z</time>
      </trkpt>
      <trkpt lat="42.927296" lon="-8.160577">
        <ele>389.943</ele>
        <time>2022-08-23T07:36:43Z</time>
      </trkpt>
      <trkpt lat="42.927230" lon="-8.160505">
        <ele>389.458</ele>
        <time>2022-08-23T07:36:58Z</time>
      </trkpt>
      <trkpt lat="42.927194" lon="-8.160554">
        <ele>389.219</ele>
        <time>2022-08-23T07:37:13Z</time>
      </trkpt>
      <trkpt lat="42.927167" lon="-8.160619">
        <ele>389.009</ele>
        <time>2022-08-23T07:37:17Z</time>
      </trkpt>
      <trkpt lat="42.927132" lon="-8.160669">
        <ele>387.919</ele>
        <time>2022-08-23T07:37:21Z</time>
      </trkpt>
      <trkpt lat="42.927092" lon="-8.160709">
        <ele>387.009</ele>
        <time>2022-08-23T07:37:26Z</time>
      </trkpt>
      <trkpt lat="42.927045" lon="-8.160719">
        <ele>386.842</ele>
        <time>2022-08-23T07:37:30Z</time>
      </trkpt>
      <trkpt lat="42.926996" lon="-8.160728">
        <ele>386.342</ele>
        <time>2022-08-23T07:37:35Z</time>
      </trkpt>
      <trkpt lat="42.926946" lon="-8.160760">
        <ele>385.822</ele>
        <time>2022-08-23T07:37:39Z</time>
      </trkpt>
      <trkpt lat="42.926908" lon="-8.160803">
        <ele>385.466</ele>
        <time>2022-08-23T07:37:43Z</time>
      </trkpt>
      <trkpt lat="42.926892" lon="-8.160862">
        <ele>385.186</ele>
        <time>2022-08-23T07:37:45Z</time>
      </trkpt>
      <trkpt lat="42.926832" lon="-8.160887">
        <ele>385.037</ele>
        <time>2022-08-23T07:37:50Z</time>
      </trkpt>
      <trkpt lat="42.926815" lon="-8.160944">
        <ele>385.025</ele>
        <time>2022-08-23T07:37:53Z</time>
      </trkpt>
      <trkpt lat="42.926792" lon="-8.161014">
        <ele>385.018</ele>
        <time>2022-08-23T07:37:58Z</time>
      </trkpt>
      <trkpt lat="42.926777" lon="-8.161072">
        <ele>385.013</ele>
        <time>2022-08-23T07:38:01Z</time>
      </trkpt>
      <trkpt lat="42.926742" lon="-8.161115">
        <ele>385.063</ele>
        <time>2022-08-23T07:38:04Z</time>
      </trkpt>
      <trkpt lat="42.926711" lon="-8.161173">
        <ele>385.044</ele>
        <time>2022-08-23T07:38:07Z</time>
      </trkpt>
      <trkpt lat="42.926685" lon="-8.161240">
        <ele>385.118</ele>
        <time>2022-08-23T07:38:11Z</time>
      </trkpt>
      <trkpt lat="42.926681" lon="-8.161304">
        <ele>385.209</ele>
        <time>2022-08-23T07:38:13Z</time>
      </trkpt>
      <trkpt lat="42.926664" lon="-8.161377">
        <ele>385.377</ele>
        <time>2022-08-23T07:38:16Z</time>
      </trkpt>
      <trkpt lat="42.926654" lon="-8.161450">
        <ele>385.417</ele>
        <time>2022-08-23T07:38:19Z</time>
      </trkpt>
      <trkpt lat="42.926655" lon="-8.161515">
        <ele>385.557</ele>
        <time>2022-08-23T07:38:22Z</time>
      </trkpt>
      <trkpt lat="42.926656" lon="-8.161589">
        <ele>385.611</ele>
        <time>2022-08-23T07:38:25Z</time>
      </trkpt>
      <trkpt lat="42.926647" lon="-8.161663">
        <ele>385.721</ele>
        <time>2022-08-23T07:38:29Z</time>
      </trkpt>
      <trkpt lat="42.926629" lon="-8.161725">
        <ele>385.842</ele>
        <time>2022-08-23T07:38:32Z</time>
      </trkpt>
      <trkpt lat="42.926623" lon="-8.161791">
        <ele>385.920</ele>
        <time>2022-08-23T07:38:36Z</time>
      </trkpt>
      <trkpt lat="42.926608" lon="-8.161864">
        <ele>386.093</ele>
        <time>2022-08-23T07:38:40Z</time>
      </trkpt>
      <trkpt lat="42.926591" lon="-8.161934">
        <ele>386.278</ele>
        <time>2022-08-23T07:38:44Z</time>
      </trkpt>
      <trkpt lat="42.926563" lon="-8.161992">
        <ele>386.489</ele>
        <time>2022-08-23T07:38:48Z</time>
      </trkpt>
      <trkpt lat="42.926539" lon="-8.162052">
        <ele>386.506</ele>
        <time>2022-08-23T07:38:52Z</time>
      </trkpt>
      <trkpt lat="42.926510" lon="-8.162117">
        <ele>386.526</ele>
        <time>2022-08-23T07:38:56Z</time>
      </trkpt>
      <trkpt lat="42.926491" lon="-8.162184">
        <ele>386.509</ele>
        <time>2022-08-23T07:39:00Z</time>
      </trkpt>
      <trkpt lat="42.926475" lon="-8.162268">
        <ele>386.549</ele>
        <time>2022-08-23T07:39:05Z</time>
      </trkpt>
      <trkpt lat="42.926440" lon="-8.162337">
        <ele>386.719</ele>
        <time>2022-08-23T07:39:09Z</time>
      </trkpt>
      <trkpt lat="42.926411" lon="-8.162398">
        <ele>386.899</ele>
        <time>2022-08-23T07:39:13Z</time>
      </trkpt>
      <trkpt lat="42.926393" lon="-8.162471">
        <ele>386.813</ele>
        <time>2022-08-23T07:39:17Z</time>
      </trkpt>
      <trkpt lat="42.926380" lon="-8.162536">
        <ele>386.823</ele>
        <time>2022-08-23T07:39:21Z</time>
      </trkpt>
      <trkpt lat="42.926375" lon="-8.162597">
        <ele>386.834</ele>
        <time>2022-08-23T07:39:24Z</time>
      </trkpt>
      <trkpt lat="42.926356" lon="-8.162663">
        <ele>386.852</ele>
        <time>2022-08-23T07:39:28Z</time>
      </trkpt>
      <trkpt lat="42.926341" lon="-8.162722">
        <ele>386.865</ele>
        <time>2022-08-23T07:39:32Z</time>
      </trkpt>
      <trkpt lat="42.926320" lon="-8.162793">
        <ele>386.850</ele>
        <time>2022-08-23T07:39:36Z</time>
      </trkpt>
      <trkpt lat="42.926307" lon="-8.162864">
        <ele>386.829</ele>
        <time>2022-08-23T07:39:41Z</time>
      </trkpt>
      <trkpt lat="42.926309" lon="-8.162938">
        <ele>386.800</ele>
        <time>2022-08-23T07:39:45Z</time>
      </trkpt>
      <trkpt lat="42.926308" lon="-8.163002">
        <ele>386.820</ele>
        <time>2022-08-23T07:39:49Z</time>
      </trkpt>
      <trkpt lat="42.926301" lon="-8.163067">
        <ele>386.809</ele>
        <time>2022-08-23T07:39:53Z</time>
      </trkpt>
      <trkpt lat="42.926280" lon="-8.163138">
        <ele>386.873</ele>
        <time>2022-08-23T07:39:57Z</time>
      </trkpt>
      <trkpt lat="42.926270" lon="-8.163209">
        <ele>386.763</ele>
        <time>2022-08-23T07:40:01Z</time>
      </trkpt>
      <trkpt lat="42.926267" lon="-8.163271">
        <ele>386.643</ele>
        <time>2022-08-23T07:40:05Z</time>
      </trkpt>
      <trkpt lat="42.926263" lon="-8.163340">
        <ele>386.567</ele>
        <time>2022-08-23T07:40:09Z</time>
      </trkpt>
      <trkpt lat="42.926259" lon="-8.163404">
        <ele>386.497</ele>
        <time>2022-08-23T07:40:13Z</time>
      </trkpt>
      <trkpt lat="42.926255" lon="-8.163473">
        <ele>386.328</ele>
        <time>2022-08-23T07:40:17Z</time>
      </trkpt>
      <trkpt lat="42.926255" lon="-8.163537">
        <ele>386.256</ele>
        <time>2022-08-23T07:40:21Z</time>
      </trkpt>
      <trkpt lat="42.926251" lon="-8.163605">
        <ele>386.149</ele>
        <time>2022-08-23T07:40:25Z</time>
      </trkpt>
      <trkpt lat="42.926252" lon="-8.163672">
        <ele>385.994</ele>
        <time>2022-08-23T07:40:29Z</time>
      </trkpt>
      <trkpt lat="42.926246" lon="-8.163746">
        <ele>385.766</ele>
        <time>2022-08-23T07:40:33Z</time>
      </trkpt>
      <trkpt lat="42.926234" lon="-8.163822">
        <ele>385.529</ele>
        <time>2022-08-23T07:40:38Z</time>
      </trkpt>
      <trkpt lat="42.926238" lon="-8.163884">
        <ele>385.321</ele>
        <time>2022-08-23T07:40:42Z</time>
      </trkpt>
      <trkpt lat="42.926237" lon="-8.163960">
        <ele>385.209</ele>
        <time>2022-08-23T07:40:47Z</time>
      </trkpt>
      <trkpt lat="42.926237" lon="-8.164038">
        <ele>385.017</ele>
        <time>2022-08-23T07:40:51Z</time>
      </trkpt>
      <trkpt lat="42.926248" lon="-8.164110">
        <ele>384.897</ele>
        <time>2022-08-23T07:40:55Z</time>
      </trkpt>
      <trkpt lat="42.926254" lon="-8.164172">
        <ele>384.467</ele>
        <time>2022-08-23T07:40:59Z</time>
      </trkpt>
      <trkpt lat="42.926263" lon="-8.164233">
        <ele>383.721</ele>
        <time>2022-08-23T07:41:02Z</time>
      </trkpt>
      <trkpt lat="42.926255" lon="-8.164303">
        <ele>383.291</ele>
        <time>2022-08-23T07:41:06Z</time>
      </trkpt>
      <trkpt lat="42.926253" lon="-8.164371">
        <ele>382.932</ele>
        <time>2022-08-23T07:41:09Z</time>
      </trkpt>
      <trkpt lat="42.926256" lon="-8.164438">
        <ele>382.650</ele>
        <time>2022-08-23T07:41:13Z</time>
      </trkpt>
      <trkpt lat="42.926262" lon="-8.164513">
        <ele>382.363</ele>
        <time>2022-08-23T07:41:17Z</time>
      </trkpt>
      <trkpt lat="42.926264" lon="-8.164582">
        <ele>382.088</ele>
        <time>2022-08-23T07:41:21Z</time>
      </trkpt>
      <trkpt lat="42.926266" lon="-8.164645">
        <ele>381.746</ele>
        <time>2022-08-23T07:41:24Z</time>
      </trkpt>
      <trkpt lat="42.926288" lon="-8.164704">
        <ele>381.588</ele>
        <time>2022-08-23T07:41:29Z</time>
      </trkpt>
      <trkpt lat="42.926314" lon="-8.164769">
        <ele>381.316</ele>
        <time>2022-08-23T07:41:33Z</time>
      </trkpt>
      <trkpt lat="42.926339" lon="-8.164828">
        <ele>380.809</ele>
        <time>2022-08-23T07:41:37Z</time>
      </trkpt>
      <trkpt lat="42.926359" lon="-8.164887">
        <ele>380.225</ele>
        <time>2022-08-23T07:41:40Z</time>
      </trkpt>
      <trkpt lat="42.926372" lon="-8.164951">
        <ele>379.845</ele>
        <time>2022-08-23T07:41:44Z</time>
      </trkpt>
      <trkpt lat="42.926366" lon="-8.165021">
        <ele>379.535</ele>
        <time>2022-08-23T07:41:47Z</time>
      </trkpt>
      <trkpt lat="42.926357" lon="-8.165084">
        <ele>379.349</ele>
        <time>2022-08-23T07:41:50Z</time>
      </trkpt>
      <trkpt lat="42.926349" lon="-8.165146">
        <ele>379.169</ele>
        <time>2022-08-23T07:41:53Z</time>
      </trkpt>
      <trkpt lat="42.926345" lon="-8.165223">
        <ele>378.840</ele>
        <time>2022-08-23T07:41:57Z</time>
      </trkpt>
      <trkpt lat="42.926340" lon="-8.165297">
        <ele>378.468</ele>
        <time>2022-08-23T07:42:01Z</time>
      </trkpt>
      <trkpt lat="42.926334" lon="-8.165372">
        <ele>377.921</ele>
        <time>2022-08-23T07:42:05Z</time>
      </trkpt>
      <trkpt lat="42.926347" lon="-8.165446">
        <ele>377.456</ele>
        <time>2022-08-23T07:42:10Z</time>
      </trkpt>
      <trkpt lat="42.926353" lon="-8.165515">
        <ele>376.745</ele>
        <time>2022-08-23T07:42:14Z</time>
      </trkpt>
      <trkpt lat="42.926370" lon="-8.165585">
        <ele>376.147</ele>
        <time>2022-08-23T07:42:18Z</time>
      </trkpt>
      <trkpt lat="42.926386" lon="-8.165655">
        <ele>375.611</ele>
        <time>2022-08-23T07:42:22Z</time>
      </trkpt>
      <trkpt lat="42.926408" lon="-8.165722">
        <ele>375.309</ele>
        <time>2022-08-23T07:42:26Z</time>
      </trkpt>
      <trkpt lat="42.926430" lon="-8.165778">
        <ele>374.795</ele>
        <time>2022-08-23T07:42:30Z</time>
      </trkpt>
      <trkpt lat="42.926452" lon="-8.165852">
        <ele>374.195</ele>
        <time>2022-08-23T07:42:34Z</time>
      </trkpt>
      <trkpt lat="42.926487" lon="-8.165915">
        <ele>373.265</ele>
        <time>2022-08-23T07:42:38Z</time>
      </trkpt>
      <trkpt lat="42.926524" lon="-8.165985">
        <ele>372.689</ele>
        <time>2022-08-23T07:42:43Z</time>
      </trkpt>
      <trkpt lat="42.926547" lon="-8.166044">
        <ele>372.189</ele>
        <time>2022-08-23T07:42:47Z</time>
      </trkpt>
      <trkpt lat="42.926575" lon="-8.166107">
        <ele>371.410</ele>
        <time>2022-08-23T07:42:51Z</time>
      </trkpt>
      <trkpt lat="42.926602" lon="-8.166173">
        <ele>370.928</ele>
        <time>2022-08-23T07:42:55Z</time>
      </trkpt>
      <trkpt lat="42.926630" lon="-8.166238">
        <ele>370.441</ele>
        <time>2022-08-23T07:42:59Z</time>
      </trkpt>
      <trkpt lat="42.926652" lon="-8.166310">
        <ele>369.616</ele>
        <time>2022-08-23T07:43:03Z</time>
      </trkpt>
      <trkpt lat="42.926661" lon="-8.166384">
        <ele>369.067</ele>
        <time>2022-08-23T07:43:07Z</time>
      </trkpt>
      <trkpt lat="42.926674" lon="-8.166451">
        <ele>368.681</ele>
        <time>2022-08-23T07:43:11Z</time>
      </trkpt>
      <trkpt lat="42.926706" lon="-8.166519">
        <ele>368.219</ele>
        <time>2022-08-23T07:43:15Z</time>
      </trkpt>
      <trkpt lat="42.926730" lon="-8.166576">
        <ele>367.909</ele>
        <time>2022-08-23T07:43:18Z</time>
      </trkpt>
      <trkpt lat="42.926753" lon="-8.166644">
        <ele>367.747</ele>
        <time>2022-08-23T07:43:22Z</time>
      </trkpt>
      <trkpt lat="42.926773" lon="-8.166721">
        <ele>367.187</ele>
        <time>2022-08-23T07:43:26Z</time>
      </trkpt>
      <trkpt lat="42.926773" lon="-8.166799">
        <ele>366.717</ele>
        <time>2022-08-23T07:43:32Z</time>
      </trkpt>
      <trkpt lat="42.926798" lon="-8.166861">
        <ele>366.561</ele>
        <time>2022-08-23T07:43:37Z</time>
      </trkpt>
      <trkpt lat="42.926813" lon="-8.166927">
        <ele>366.251</ele>
        <time>2022-08-23T07:43:41Z</time>
      </trkpt>
      <trkpt lat="42.926815" lon="-8.166989">
        <ele>366.062</ele>
        <time>2022-08-23T07:43:45Z</time>
      </trkpt>
      <trkpt lat="42.926821" lon="-8.167055">
        <ele>365.740</ele>
        <time>2022-08-23T07:43:49Z</time>
      </trkpt>
      <trkpt lat="42.926824" lon="-8.167123">
        <ele>365.353</ele>
        <time>2022-08-23T07:43:53Z</time>
      </trkpt>
      <trkpt lat="42.926823" lon="-8.167184">
        <ele>364.938</ele>
        <time>2022-08-23T07:43:57Z</time>
      </trkpt>
      <trkpt lat="42.926821" lon="-8.167249">
        <ele>364.485</ele>
        <time>2022-08-23T07:44:01Z</time>
      </trkpt>
      <trkpt lat="42.926824" lon="-8.167315">
        <ele>364.089</ele>
        <time>2022-08-23T07:44:05Z</time>
      </trkpt>
      <trkpt lat="42.926821" lon="-8.167396">
        <ele>363.617</ele>
        <time>2022-08-23T07:44:10Z</time>
      </trkpt>
      <trkpt lat="42.926822" lon="-8.167463">
        <ele>363.109</ele>
        <time>2022-08-23T07:44:14Z</time>
      </trkpt>
      <trkpt lat="42.926827" lon="-8.167528">
        <ele>362.419</ele>
        <time>2022-08-23T07:44:18Z</time>
      </trkpt>
      <trkpt lat="42.926823" lon="-8.167601">
        <ele>361.819</ele>
        <time>2022-08-23T07:44:22Z</time>
      </trkpt>
      <trkpt lat="42.926818" lon="-8.167676">
        <ele>361.269</ele>
        <time>2022-08-23T07:44:26Z</time>
      </trkpt>
      <trkpt lat="42.926812" lon="-8.167742">
        <ele>360.683</ele>
        <time>2022-08-23T07:44:30Z</time>
      </trkpt>
      <trkpt lat="42.926811" lon="-8.167818">
        <ele>359.993</ele>
        <time>2022-08-23T07:44:34Z</time>
      </trkpt>
      <trkpt lat="42.926819" lon="-8.167893">
        <ele>358.824</ele>
        <time>2022-08-23T07:44:38Z</time>
      </trkpt>
      <trkpt lat="42.926825" lon="-8.167958">
        <ele>358.562</ele>
        <time>2022-08-23T07:44:42Z</time>
      </trkpt>
      <trkpt lat="42.926827" lon="-8.168034">
        <ele>357.855</ele>
        <time>2022-08-23T07:44:46Z</time>
      </trkpt>
      <trkpt lat="42.926833" lon="-8.168107">
        <ele>357.110</ele>
        <time>2022-08-23T07:44:50Z</time>
      </trkpt>
      <trkpt lat="42.926844" lon="-8.168183">
        <ele>356.135</ele>
        <time>2022-08-23T07:44:54Z</time>
      </trkpt>
      <trkpt lat="42.926857" lon="-8.168256">
        <ele>355.486</ele>
        <time>2022-08-23T07:44:59Z</time>
      </trkpt>
      <trkpt lat="42.926871" lon="-8.168318">
        <ele>355.014</ele>
        <time>2022-08-23T07:45:03Z</time>
      </trkpt>
      <trkpt lat="42.926884" lon="-8.168394">
        <ele>353.709</ele>
        <time>2022-08-23T07:45:07Z</time>
      </trkpt>
      <trkpt lat="42.926897" lon="-8.168455">
        <ele>353.424</ele>
        <time>2022-08-23T07:45:11Z</time>
      </trkpt>
      <trkpt lat="42.926900" lon="-8.168521">
        <ele>352.744</ele>
        <time>2022-08-23T07:45:14Z</time>
      </trkpt>
      <trkpt lat="42.926910" lon="-8.168597">
        <ele>352.034</ele>
        <time>2022-08-23T07:45:18Z</time>
      </trkpt>
      <trkpt lat="42.926922" lon="-8.168668">
        <ele>351.438</ele>
        <time>2022-08-23T07:45:22Z</time>
      </trkpt>
      <trkpt lat="42.926941" lon="-8.168746">
        <ele>350.888</ele>
        <time>2022-08-23T07:45:27Z</time>
      </trkpt>
      <trkpt lat="42.926955" lon="-8.168804">
        <ele>350.079</ele>
        <time>2022-08-23T07:45:30Z</time>
      </trkpt>
      <trkpt lat="42.926974" lon="-8.168875">
        <ele>348.617</ele>
        <time>2022-08-23T07:45:34Z</time>
      </trkpt>
      <trkpt lat="42.926987" lon="-8.168945">
        <ele>348.330</ele>
        <time>2022-08-23T07:45:38Z</time>
      </trkpt>
      <trkpt lat="42.927001" lon="-8.169016">
        <ele>347.795</ele>
        <time>2022-08-23T07:45:42Z</time>
      </trkpt>
      <trkpt lat="42.927013" lon="-8.169087">
        <ele>347.094</ele>
        <time>2022-08-23T07:45:46Z</time>
      </trkpt>
      <trkpt lat="42.927027" lon="-8.169159">
        <ele>346.057</ele>
        <time>2022-08-23T07:45:50Z</time>
      </trkpt>
      <trkpt lat="42.927046" lon="-8.169226">
        <ele>345.722</ele>
        <time>2022-08-23T07:45:54Z</time>
      </trkpt>
      <trkpt lat="42.927054" lon="-8.169290">
        <ele>345.009</ele>
        <time>2022-08-23T07:45:58Z</time>
      </trkpt>
      <trkpt lat="42.927067" lon="-8.169360">
        <ele>344.450</ele>
        <time>2022-08-23T07:46:02Z</time>
      </trkpt>
      <trkpt lat="42.927079" lon="-8.169427">
        <ele>343.880</ele>
        <time>2022-08-23T07:46:06Z</time>
      </trkpt>
      <trkpt lat="42.927095" lon="-8.169500">
        <ele>343.380</ele>
        <time>2022-08-23T07:46:10Z</time>
      </trkpt>
      <trkpt lat="42.927115" lon="-8.169567">
        <ele>342.874</ele>
        <time>2022-08-23T07:46:14Z</time>
      </trkpt>
      <trkpt lat="42.927128" lon="-8.169641">
        <ele>342.314</ele>
        <time>2022-08-23T07:46:18Z</time>
      </trkpt>
      <trkpt lat="42.927140" lon="-8.169706">
        <ele>341.815</ele>
        <time>2022-08-23T07:46:21Z</time>
      </trkpt>
      <trkpt lat="42.927151" lon="-8.169784">
        <ele>341.123</ele>
        <time>2022-08-23T07:46:25Z</time>
      </trkpt>
      <trkpt lat="42.927167" lon="-8.169847">
        <ele>340.926</ele>
        <time>2022-08-23T07:46:29Z</time>
      </trkpt>
      <trkpt lat="42.927175" lon="-8.169917">
        <ele>340.551</ele>
        <time>2022-08-23T07:46:33Z</time>
      </trkpt>
      <trkpt lat="42.927167" lon="-8.169981">
        <ele>340.138</ele>
        <time>2022-08-23T07:46:36Z</time>
      </trkpt>
      <trkpt lat="42.927170" lon="-8.170054">
        <ele>339.770</ele>
        <time>2022-08-23T07:46:40Z</time>
      </trkpt>
      <trkpt lat="42.927160" lon="-8.170128">
        <ele>339.417</ele>
        <time>2022-08-23T07:46:44Z</time>
      </trkpt>
      <trkpt lat="42.927150" lon="-8.170191">
        <ele>339.109</ele>
        <time>2022-08-23T07:46:48Z</time>
      </trkpt>
      <trkpt lat="42.927138" lon="-8.170259">
        <ele>338.744</ele>
        <time>2022-08-23T07:46:52Z</time>
      </trkpt>
      <trkpt lat="42.927127" lon="-8.170331">
        <ele>338.424</ele>
        <time>2022-08-23T07:46:57Z</time>
      </trkpt>
      <trkpt lat="42.927112" lon="-8.170398">
        <ele>338.244</ele>
        <time>2022-08-23T07:47:01Z</time>
      </trkpt>
      <trkpt lat="42.927101" lon="-8.170468">
        <ele>337.968</ele>
        <time>2022-08-23T07:47:04Z</time>
      </trkpt>
      <trkpt lat="42.927085" lon="-8.170537">
        <ele>337.638</ele>
        <time>2022-08-23T07:47:07Z</time>
      </trkpt>
      <trkpt lat="42.927070" lon="-8.170602">
        <ele>337.429</ele>
        <time>2022-08-23T07:47:10Z</time>
      </trkpt>
      <trkpt lat="42.927059" lon="-8.170666">
        <ele>337.337</ele>
        <time>2022-08-23T07:47:14Z</time>
      </trkpt>
      <trkpt lat="42.927053" lon="-8.170731">
        <ele>337.290</ele>
        <time>2022-08-23T07:47:17Z</time>
      </trkpt>
      <trkpt lat="42.927050" lon="-8.170810">
        <ele>337.235</ele>
        <time>2022-08-23T07:47:21Z</time>
      </trkpt>
      <trkpt lat="42.927044" lon="-8.170875">
        <ele>337.237</ele>
        <time>2022-08-23T07:47:25Z</time>
      </trkpt>
      <trkpt lat="42.927038" lon="-8.170940">
        <ele>337.349</ele>
        <time>2022-08-23T07:47:30Z</time>
      </trkpt>
      <trkpt lat="42.927040" lon="-8.171028">
        <ele>337.513</ele>
        <time>2022-08-23T07:47:33Z</time>
      </trkpt>
      <trkpt lat="42.927040" lon="-8.171107">
        <ele>337.909</ele>
        <time>2022-08-23T07:47:37Z</time>
      </trkpt>
      <trkpt lat="42.927043" lon="-8.171187">
        <ele>338.184</ele>
        <time>2022-08-23T07:47:41Z</time>
      </trkpt>
      <trkpt lat="42.927042" lon="-8.171255">
        <ele>338.524</ele>
        <time>2022-08-23T07:47:45Z</time>
      </trkpt>
      <trkpt lat="42.927041" lon="-8.171335">
        <ele>338.924</ele>
        <time>2022-08-23T07:47:49Z</time>
      </trkpt>
      <trkpt lat="42.927045" lon="-8.171396">
        <ele>339.388</ele>
        <time>2022-08-23T07:47:52Z</time>
      </trkpt>
      <trkpt lat="42.927047" lon="-8.171461">
        <ele>339.538</ele>
        <time>2022-08-23T07:47:56Z</time>
      </trkpt>
      <trkpt lat="42.927045" lon="-8.171533">
        <ele>339.859</ele>
        <time>2022-08-23T07:48:00Z</time>
      </trkpt>
      <trkpt lat="42.927048" lon="-8.171595">
        <ele>340.227</ele>
        <time>2022-08-23T07:48:04Z</time>
      </trkpt>
      <trkpt lat="42.927060" lon="-8.171663">
        <ele>340.770</ele>
        <time>2022-08-23T07:48:09Z</time>
      </trkpt>
      <trkpt lat="42.927068" lon="-8.171732">
        <ele>341.215</ele>
        <time>2022-08-23T07:48:13Z</time>
      </trkpt>
      <trkpt lat="42.927081" lon="-8.171801">
        <ele>341.837</ele>
        <time>2022-08-23T07:48:18Z</time>
      </trkpt>
      <trkpt lat="42.927101" lon="-8.171863">
        <ele>342.549</ele>
        <time>2022-08-23T07:48:22Z</time>
      </trkpt>
      <trkpt lat="42.927128" lon="-8.171933">
        <ele>343.213</ele>
        <time>2022-08-23T07:48:27Z</time>
      </trkpt>
      <trkpt lat="42.927151" lon="-8.171995">
        <ele>344.009</ele>
        <time>2022-08-23T07:48:32Z</time>
      </trkpt>
      <trkpt lat="42.927170" lon="-8.172051">
        <ele>344.914</ele>
        <time>2022-08-23T07:48:36Z</time>
      </trkpt>
      <trkpt lat="42.927197" lon="-8.172112">
        <ele>345.964</ele>
        <time>2022-08-23T07:48:41Z</time>
      </trkpt>
      <trkpt lat="42.927228" lon="-8.172172">
        <ele>346.874</ele>
        <time>2022-08-23T07:48:44Z</time>
      </trkpt>
      <trkpt lat="42.927257" lon="-8.172231">
        <ele>347.778</ele>
        <time>2022-08-23T07:48:50Z</time>
      </trkpt>
      <trkpt lat="42.927266" lon="-8.172305">
        <ele>348.438</ele>
        <time>2022-08-23T07:48:53Z</time>
      </trkpt>
      <trkpt lat="42.927275" lon="-8.172378">
        <ele>348.989</ele>
        <time>2022-08-23T07:48:57Z</time>
      </trkpt>
      <trkpt lat="42.927294" lon="-8.172451">
        <ele>349.447</ele>
        <time>2022-08-23T07:49:01Z</time>
      </trkpt>
      <trkpt lat="42.927299" lon="-8.172519">
        <ele>349.670</ele>
        <time>2022-08-23T07:49:04Z</time>
      </trkpt>
      <trkpt lat="42.927306" lon="-8.172581">
        <ele>350.025</ele>
        <time>2022-08-23T07:49:07Z</time>
      </trkpt>
      <trkpt lat="42.927317" lon="-8.172642">
        <ele>350.482</ele>
        <time>2022-08-23T07:49:11Z</time>
      </trkpt>
      <trkpt lat="42.927341" lon="-8.172697">
        <ele>350.743</ele>
        <time>2022-08-23T07:49:14Z</time>
      </trkpt>
      <trkpt lat="42.927362" lon="-8.172753">
        <ele>351.117</ele>
        <time>2022-08-23T07:49:18Z</time>
      </trkpt>
      <trkpt lat="42.927387" lon="-8.172822">
        <ele>351.509</ele>
        <time>2022-08-23T07:49:23Z</time>
      </trkpt>
      <trkpt lat="42.927404" lon="-8.172881">
        <ele>351.819</ele>
        <time>2022-08-23T07:49:26Z</time>
      </trkpt>
      <trkpt lat="42.927424" lon="-8.172959">
        <ele>352.239</ele>
        <time>2022-08-23T07:49:30Z</time>
      </trkpt>
      <trkpt lat="42.927438" lon="-8.173017">
        <ele>352.589</ele>
        <time>2022-08-23T07:49:33Z</time>
      </trkpt>
      <trkpt lat="42.927446" lon="-8.173077">
        <ele>352.853</ele>
        <time>2022-08-23T07:49:36Z</time>
      </trkpt>
      <trkpt lat="42.927460" lon="-8.173137">
        <ele>353.153</ele>
        <time>2022-08-23T07:49:40Z</time>
      </trkpt>
      <trkpt lat="42.927480" lon="-8.173208">
        <ele>353.424</ele>
        <time>2022-08-23T07:49:44Z</time>
      </trkpt>
      <trkpt lat="42.927502" lon="-8.173272">
        <ele>353.722</ele>
        <time>2022-08-23T07:49:47Z</time>
      </trkpt>
      <trkpt lat="42.927522" lon="-8.173337">
        <ele>354.115</ele>
        <time>2022-08-23T07:49:51Z</time>
      </trkpt>
      <trkpt lat="42.927528" lon="-8.173410">
        <ele>354.570</ele>
        <time>2022-08-23T07:49:55Z</time>
      </trkpt>
      <trkpt lat="42.927515" lon="-8.173471">
        <ele>354.818</ele>
        <time>2022-08-23T07:49:58Z</time>
      </trkpt>
      <trkpt lat="42.927498" lon="-8.173530">
        <ele>355.198</ele>
        <time>2022-08-23T07:50:01Z</time>
      </trkpt>
      <trkpt lat="42.927478" lon="-8.173585">
        <ele>355.217</ele>
        <time>2022-08-23T07:50:05Z</time>
      </trkpt>
      <trkpt lat="42.927445" lon="-8.173659">
        <ele>355.209</ele>
        <time>2022-08-23T07:50:09Z</time>
      </trkpt>
      <trkpt lat="42.927417" lon="-8.173727">
        <ele>355.222</ele>
        <time>2022-08-23T07:50:13Z</time>
      </trkpt>
      <trkpt lat="42.927382" lon="-8.173783">
        <ele>355.182</ele>
        <time>2022-08-23T07:50:17Z</time>
      </trkpt>
      <trkpt lat="42.927350" lon="-8.173828">
        <ele>354.872</ele>
        <time>2022-08-23T07:50:22Z</time>
      </trkpt>
      <trkpt lat="42.927315" lon="-8.173870">
        <ele>354.516</ele>
        <time>2022-08-23T07:50:26Z</time>
      </trkpt>
      <trkpt lat="42.927282" lon="-8.173916">
        <ele>354.166</ele>
        <time>2022-08-23T07:50:30Z</time>
      </trkpt>
      <trkpt lat="42.927247" lon="-8.173963">
        <ele>353.877</ele>
        <time>2022-08-23T07:50:34Z</time>
      </trkpt>
      <trkpt lat="42.927199" lon="-8.174011">
        <ele>353.685</ele>
        <time>2022-08-23T07:50:40Z</time>
      </trkpt>
      <trkpt lat="42.927142" lon="-8.174043">
        <ele>353.548</ele>
        <time>2022-08-23T07:50:46Z</time>
      </trkpt>
      <trkpt lat="42.927098" lon="-8.174063">
        <ele>353.463</ele>
        <time>2022-08-23T07:50:50Z</time>
      </trkpt>
      <trkpt lat="42.927049" lon="-8.174081">
        <ele>353.379</ele>
        <time>2022-08-23T07:50:54Z</time>
      </trkpt>
      <trkpt lat="42.927001" lon="-8.174087">
        <ele>353.205</ele>
        <time>2022-08-23T07:50:58Z</time>
      </trkpt>
      <trkpt lat="42.926949" lon="-8.174090">
        <ele>353.125</ele>
        <time>2022-08-23T07:51:02Z</time>
      </trkpt>
      <trkpt lat="42.926892" lon="-8.174089">
        <ele>353.009</ele>
        <time>2022-08-23T07:51:06Z</time>
      </trkpt>
      <trkpt lat="42.926838" lon="-8.174103">
        <ele>352.988</ele>
        <time>2022-08-23T07:51:10Z</time>
      </trkpt>
      <trkpt lat="42.926792" lon="-8.174130">
        <ele>352.848</ele>
        <time>2022-08-23T07:51:13Z</time>
      </trkpt>
      <trkpt lat="42.926742" lon="-8.174150">
        <ele>352.898</ele>
        <time>2022-08-23T07:51:17Z</time>
      </trkpt>
      <trkpt lat="42.926690" lon="-8.174181">
        <ele>352.772</ele>
        <time>2022-08-23T07:51:21Z</time>
      </trkpt>
      <trkpt lat="42.926647" lon="-8.174208">
        <ele>352.632</ele>
        <time>2022-08-23T07:51:24Z</time>
      </trkpt>
      <trkpt lat="42.926596" lon="-8.174242">
        <ele>352.513</ele>
        <time>2022-08-23T07:51:28Z</time>
      </trkpt>
      <trkpt lat="42.926543" lon="-8.174273">
        <ele>352.511</ele>
        <time>2022-08-23T07:51:32Z</time>
      </trkpt>
      <trkpt lat="42.926496" lon="-8.174305">
        <ele>352.584</ele>
        <time>2022-08-23T07:51:36Z</time>
      </trkpt>
      <trkpt lat="42.926445" lon="-8.174355">
        <ele>352.569</ele>
        <time>2022-08-23T07:51:40Z</time>
      </trkpt>
      <trkpt lat="42.926425" lon="-8.174411">
        <ele>352.537</ele>
        <time>2022-08-23T07:51:43Z</time>
      </trkpt>
      <trkpt lat="42.926400" lon="-8.174478">
        <ele>352.549</ele>
        <time>2022-08-23T07:51:47Z</time>
      </trkpt>
      <trkpt lat="42.926374" lon="-8.174532">
        <ele>352.513</ele>
        <time>2022-08-23T07:51:51Z</time>
      </trkpt>
      <trkpt lat="42.926345" lon="-8.174596">
        <ele>352.409</ele>
        <time>2022-08-23T07:51:55Z</time>
      </trkpt>
      <trkpt lat="42.926309" lon="-8.174650">
        <ele>352.434</ele>
        <time>2022-08-23T07:51:59Z</time>
      </trkpt>
      <trkpt lat="42.926279" lon="-8.174718">
        <ele>352.484</ele>
        <time>2022-08-23T07:52:03Z</time>
      </trkpt>
      <trkpt lat="42.926255" lon="-8.174778">
        <ele>352.324</ele>
        <time>2022-08-23T07:52:06Z</time>
      </trkpt>
      <trkpt lat="42.926231" lon="-8.174845">
        <ele>352.148</ele>
        <time>2022-08-23T07:52:11Z</time>
      </trkpt>
      <trkpt lat="42.926200" lon="-8.174910">
        <ele>352.058</ele>
        <time>2022-08-23T07:52:15Z</time>
      </trkpt>
      <trkpt lat="42.926161" lon="-8.174968">
        <ele>351.889</ele>
        <time>2022-08-23T07:52:19Z</time>
      </trkpt>
      <trkpt lat="42.926136" lon="-8.175039">
        <ele>351.697</ele>
        <time>2022-08-23T07:52:23Z</time>
      </trkpt>
      <trkpt lat="42.926111" lon="-8.175105">
        <ele>351.480</ele>
        <time>2022-08-23T07:52:27Z</time>
      </trkpt>
      <trkpt lat="42.926091" lon="-8.175171">
        <ele>351.285</ele>
        <time>2022-08-23T07:52:32Z</time>
      </trkpt>
      <trkpt lat="42.926060" lon="-8.175237">
        <ele>351.021</ele>
        <time>2022-08-23T07:52:36Z</time>
      </trkpt>
      <trkpt lat="42.926043" lon="-8.175307">
        <ele>350.841</ele>
        <time>2022-08-23T07:52:40Z</time>
      </trkpt>
      <trkpt lat="42.926017" lon="-8.175369">
        <ele>350.605</ele>
        <time>2022-08-23T07:52:44Z</time>
      </trkpt>
      <trkpt lat="42.925982" lon="-8.175424">
        <ele>350.509</ele>
        <time>2022-08-23T07:52:48Z</time>
      </trkpt>
      <trkpt lat="42.925956" lon="-8.175489">
        <ele>350.353</ele>
        <time>2022-08-23T07:52:53Z</time>
      </trkpt>
      <trkpt lat="42.925932" lon="-8.175546">
        <ele>350.263</ele>
        <time>2022-08-23T07:52:57Z</time>
      </trkpt>
      <trkpt lat="42.925903" lon="-8.175614">
        <ele>350.163</ele>
        <time>2022-08-23T07:53:01Z</time>
      </trkpt>
      <trkpt lat="42.925879" lon="-8.175671">
        <ele>350.047</ele>
        <time>2022-08-23T07:53:04Z</time>
      </trkpt>
      <trkpt lat="42.925861" lon="-8.175736">
        <ele>349.827</ele>
        <time>2022-08-23T07:53:07Z</time>
      </trkpt>
      <trkpt lat="42.925837" lon="-8.175795">
        <ele>349.688</ele>
        <time>2022-08-23T07:53:11Z</time>
      </trkpt>
      <trkpt lat="42.925813" lon="-8.175867">
        <ele>349.336</ele>
        <time>2022-08-23T07:53:15Z</time>
      </trkpt>
      <trkpt lat="42.925790" lon="-8.175933">
        <ele>349.039</ele>
        <time>2022-08-23T07:53:19Z</time>
      </trkpt>
      <trkpt lat="42.925762" lon="-8.175999">
        <ele>348.624</ele>
        <time>2022-08-23T07:53:23Z</time>
      </trkpt>
      <trkpt lat="42.925744" lon="-8.176064">
        <ele>348.168</ele>
        <time>2022-08-23T07:53:26Z</time>
      </trkpt>
      <trkpt lat="42.925727" lon="-8.176131">
        <ele>347.442</ele>
        <time>2022-08-23T07:53:30Z</time>
      </trkpt>
      <trkpt lat="42.925702" lon="-8.176182">
        <ele>347.226</ele>
        <time>2022-08-23T07:53:33Z</time>
      </trkpt>
      <trkpt lat="42.925684" lon="-8.176256">
        <ele>346.809</ele>
        <time>2022-08-23T07:53:37Z</time>
      </trkpt>
      <trkpt lat="42.925659" lon="-8.176310">
        <ele>346.347</ele>
        <time>2022-08-23T07:53:40Z</time>
      </trkpt>
      <trkpt lat="42.925638" lon="-8.176378">
        <ele>345.997</ele>
        <time>2022-08-23T07:53:44Z</time>
      </trkpt>
      <trkpt lat="42.925615" lon="-8.176442">
        <ele>345.687</ele>
        <time>2022-08-23T07:53:48Z</time>
      </trkpt>
      <trkpt lat="42.925592" lon="-8.176510">
        <ele>345.241</ele>
        <time>2022-08-23T07:53:52Z</time>
      </trkpt>
      <trkpt lat="42.925565" lon="-8.176581">
        <ele>344.891</ele>
        <time>2022-08-23T07:53:56Z</time>
      </trkpt>
      <trkpt lat="42.925546" lon="-8.176651">
        <ele>344.122</ele>
        <time>2022-08-23T07:54:00Z</time>
      </trkpt>
      <trkpt lat="42.925518" lon="-8.176708">
        <ele>343.790</ele>
        <time>2022-08-23T07:54:04Z</time>
      </trkpt>
      <trkpt lat="42.925500" lon="-8.176783">
        <ele>343.353</ele>
        <time>2022-08-23T07:54:08Z</time>
      </trkpt>
      <trkpt lat="42.925485" lon="-8.176860">
        <ele>342.938</ele>
        <time>2022-08-23T07:54:12Z</time>
      </trkpt>
      <trkpt lat="42.925472" lon="-8.176931">
        <ele>342.619</ele>
        <time>2022-08-23T07:54:16Z</time>
      </trkpt>
      <trkpt lat="42.925448" lon="-8.177006">
        <ele>342.309</ele>
        <time>2022-08-23T07:54:20Z</time>
      </trkpt>
      <trkpt lat="42.925417" lon="-8.177075">
        <ele>342.019</ele>
        <time>2022-08-23T07:54:24Z</time>
      </trkpt>
      <trkpt lat="42.925399" lon="-8.177145">
        <ele>341.709</ele>
        <time>2022-08-23T07:54:28Z</time>
      </trkpt>
      <trkpt lat="42.925374" lon="-8.177210">
        <ele>341.352</ele>
        <time>2022-08-23T07:54:32Z</time>
      </trkpt>
      <trkpt lat="42.925355" lon="-8.177276">
        <ele>341.012</ele>
        <time>2022-08-23T07:54:36Z</time>
      </trkpt>
      <trkpt lat="42.925334" lon="-8.177338">
        <ele>340.972</ele>
        <time>2022-08-23T07:54:40Z</time>
      </trkpt>
      <trkpt lat="42.925317" lon="-8.177400">
        <ele>340.626</ele>
        <time>2022-08-23T07:54:45Z</time>
      </trkpt>
      <trkpt lat="42.925303" lon="-8.177471">
        <ele>340.336</ele>
        <time>2022-08-23T07:54:50Z</time>
      </trkpt>
      <trkpt lat="42.925290" lon="-8.177544">
        <ele>339.967</ele>
        <time>2022-08-23T07:54:54Z</time>
      </trkpt>
      <trkpt lat="42.925285" lon="-8.177612">
        <ele>339.315</ele>
        <time>2022-08-23T07:54:58Z</time>
      </trkpt>
      <trkpt lat="42.925271" lon="-8.177673">
        <ele>338.728</ele>
        <time>2022-08-23T07:55:02Z</time>
      </trkpt>
      <trkpt lat="42.925269" lon="-8.177739">
        <ele>338.263</ele>
        <time>2022-08-23T07:55:05Z</time>
      </trkpt>
      <trkpt lat="42.925274" lon="-8.177805">
        <ele>337.625</ele>
        <time>2022-08-23T07:55:08Z</time>
      </trkpt>
      <trkpt lat="42.925270" lon="-8.177877">
        <ele>337.126</ele>
        <time>2022-08-23T07:55:12Z</time>
      </trkpt>
      <trkpt lat="42.925271" lon="-8.177948">
        <ele>336.708</ele>
        <time>2022-08-23T07:55:16Z</time>
      </trkpt>
      <trkpt lat="42.925272" lon="-8.178021">
        <ele>336.209</ele>
        <time>2022-08-23T07:55:19Z</time>
      </trkpt>
      <trkpt lat="42.925279" lon="-8.178098">
        <ele>335.613</ele>
        <time>2022-08-23T07:55:23Z</time>
      </trkpt>
      <trkpt lat="42.925288" lon="-8.178160">
        <ele>335.193</ele>
        <time>2022-08-23T07:55:26Z</time>
      </trkpt>
      <trkpt lat="42.925284" lon="-8.178238">
        <ele>334.653</ele>
        <time>2022-08-23T07:55:30Z</time>
      </trkpt>
      <trkpt lat="42.925289" lon="-8.178310">
        <ele>334.117</ele>
        <time>2022-08-23T07:55:35Z</time>
      </trkpt>
      <trkpt lat="42.925290" lon="-8.178390">
        <ele>333.257</ele>
        <time>2022-08-23T07:55:39Z</time>
      </trkpt>
      <trkpt lat="42.925293" lon="-8.178458">
        <ele>332.738</ele>
        <time>2022-08-23T07:55:43Z</time>
      </trkpt>
      <trkpt lat="42.925288" lon="-8.178528">
        <ele>331.656</ele>
        <time>2022-08-23T07:55:47Z</time>
      </trkpt>
      <trkpt lat="42.925285" lon="-8.178600">
        <ele>331.299</ele>
        <time>2022-08-23T07:55:51Z</time>
      </trkpt>
      <trkpt lat="42.925286" lon="-8.178673">
        <ele>330.594</ele>
        <time>2022-08-23T07:55:55Z</time>
      </trkpt>
      <trkpt lat="42.925292" lon="-8.178734">
        <ele>329.735</ele>
        <time>2022-08-23T07:55:58Z</time>
      </trkpt>
      <trkpt lat="42.925302" lon="-8.178805">
        <ele>328.986</ele>
        <time>2022-08-23T07:56:02Z</time>
      </trkpt>
      <trkpt lat="42.925300" lon="-8.178874">
        <ele>328.314</ele>
        <time>2022-08-23T07:56:05Z</time>
      </trkpt>
      <trkpt lat="42.925302" lon="-8.178945">
        <ele>327.809</ele>
        <time>2022-08-23T07:56:09Z</time>
      </trkpt>
      <trkpt lat="42.925306" lon="-8.179019">
        <ele>327.364</ele>
        <time>2022-08-23T07:56:13Z</time>
      </trkpt>
      <trkpt lat="42.925316" lon="-8.179090">
        <ele>326.844</ele>
        <time>2022-08-23T07:56:17Z</time>
      </trkpt>
      <trkpt lat="42.925322" lon="-8.179156">
        <ele>326.344</ele>
        <time>2022-08-23T07:56:21Z</time>
      </trkpt>
      <trkpt lat="42.925328" lon="-8.179222">
        <ele>325.888</ele>
        <time>2022-08-23T07:56:25Z</time>
      </trkpt>
      <trkpt lat="42.925341" lon="-8.179287">
        <ele>325.458</ele>
        <time>2022-08-23T07:56:29Z</time>
      </trkpt>
      <trkpt lat="42.925360" lon="-8.179356">
        <ele>325.089</ele>
        <time>2022-08-23T07:56:33Z</time>
      </trkpt>
      <trkpt lat="42.925380" lon="-8.179414">
        <ele>324.647</ele>
        <time>2022-08-23T07:56:37Z</time>
      </trkpt>
      <trkpt lat="42.925395" lon="-8.179487">
        <ele>324.290</ele>
        <time>2022-08-23T07:56:42Z</time>
      </trkpt>
      <trkpt lat="42.925414" lon="-8.179560">
        <ele>323.875</ele>
        <time>2022-08-23T07:56:46Z</time>
      </trkpt>
      <trkpt lat="42.925436" lon="-8.179627">
        <ele>323.438</ele>
        <time>2022-08-23T07:56:50Z</time>
      </trkpt>
      <trkpt lat="42.925457" lon="-8.179688">
        <ele>323.070</ele>
        <time>2022-08-23T07:56:54Z</time>
      </trkpt>
      <trkpt lat="42.925480" lon="-8.179747">
        <ele>322.517</ele>
        <time>2022-08-23T07:56:58Z</time>
      </trkpt>
      <trkpt lat="42.925507" lon="-8.179810">
        <ele>321.909</ele>
        <time>2022-08-23T07:57:02Z</time>
      </trkpt>
      <trkpt lat="42.925531" lon="-8.179872">
        <ele>321.374</ele>
        <time>2022-08-23T07:57:07Z</time>
      </trkpt>
      <trkpt lat="42.925552" lon="-8.179943">
        <ele>320.624</ele>
        <time>2022-08-23T07:57:13Z</time>
      </trkpt>
      <trkpt lat="42.925567" lon="-8.180001">
        <ele>319.824</ele>
        <time>2022-08-23T07:57:17Z</time>
      </trkpt>
      <trkpt lat="42.925579" lon="-8.180074">
        <ele>318.948</ele>
        <time>2022-08-23T07:57:21Z</time>
      </trkpt>
      <trkpt lat="42.925595" lon="-8.180144">
        <ele>318.238</ele>
        <time>2022-08-23T07:57:24Z</time>
      </trkpt>
      <trkpt lat="42.925597" lon="-8.180213">
        <ele>317.789</ele>
        <time>2022-08-23T07:57:27Z</time>
      </trkpt>
      <trkpt lat="42.925578" lon="-8.180284">
        <ele>317.347</ele>
        <time>2022-08-23T07:57:31Z</time>
      </trkpt>
      <trkpt lat="42.925546" lon="-8.180336">
        <ele>316.950</ele>
        <time>2022-08-23T07:57:35Z</time>
      </trkpt>
      <trkpt lat="42.925506" lon="-8.180380">
        <ele>316.525</ele>
        <time>2022-08-23T07:57:40Z</time>
      </trkpt>
      <trkpt lat="42.925457" lon="-8.180393">
        <ele>316.019</ele>
        <time>2022-08-23T07:57:45Z</time>
      </trkpt>
      <trkpt lat="42.925412" lon="-8.180404">
        <ele>315.609</ele>
        <time>2022-08-23T07:57:49Z</time>
      </trkpt>
      <trkpt lat="42.925368" lon="-8.180419">
        <ele>315.419</ele>
        <time>2022-08-23T07:57:53Z</time>
      </trkpt>
      <trkpt lat="42.925320" lon="-8.180422">
        <ele>315.309</ele>
        <time>2022-08-23T07:57:58Z</time>
      </trkpt>
      <trkpt lat="42.925268" lon="-8.180428">
        <ele>315.162</ele>
        <time>2022-08-23T07:58:02Z</time>
      </trkpt>
      <trkpt lat="42.925215" lon="-8.180419">
        <ele>314.932</ele>
        <time>2022-08-23T07:58:06Z</time>
      </trkpt>
      <trkpt lat="42.925166" lon="-8.180413">
        <ele>314.772</ele>
        <time>2022-08-23T07:58:09Z</time>
      </trkpt>
      <trkpt lat="42.925111" lon="-8.180426">
        <ele>314.586</ele>
        <time>2022-08-23T07:58:13Z</time>
      </trkpt>
      <trkpt lat="42.925063" lon="-8.180437">
        <ele>314.396</ele>
        <time>2022-08-23T07:58:17Z</time>
      </trkpt>
      <trkpt lat="42.925016" lon="-8.180455">
        <ele>314.067</ele>
        <time>2022-08-23T07:58:21Z</time>
      </trkpt>
      <trkpt lat="42.924971" lon="-8.180466">
        <ele>313.775</ele>
        <time>2022-08-23T07:58:24Z</time>
      </trkpt>
      <trkpt lat="42.924924" lon="-8.180503">
        <ele>313.428</ele>
        <time>2022-08-23T07:58:28Z</time>
      </trkpt>
      <trkpt lat="42.924889" lon="-8.180553">
        <ele>313.213</ele>
        <time>2022-08-23T07:58:32Z</time>
      </trkpt>
      <trkpt lat="42.924853" lon="-8.180600">
        <ele>313.067</ele>
        <time>2022-08-23T07:58:36Z</time>
      </trkpt>
      <trkpt lat="42.924822" lon="-8.180662">
        <ele>312.781</ele>
        <time>2022-08-23T07:58:40Z</time>
      </trkpt>
      <trkpt lat="42.924797" lon="-8.180726">
        <ele>312.519</ele>
        <time>2022-08-23T07:58:44Z</time>
      </trkpt>
      <trkpt lat="42.924781" lon="-8.180799">
        <ele>312.409</ele>
        <time>2022-08-23T07:58:48Z</time>
      </trkpt>
      <trkpt lat="42.924774" lon="-8.180871">
        <ele>312.457</ele>
        <time>2022-08-23T07:58:53Z</time>
      </trkpt>
      <trkpt lat="42.924765" lon="-8.180941">
        <ele>312.457</ele>
        <time>2022-08-23T07:58:57Z</time>
      </trkpt>
      <trkpt lat="42.924757" lon="-8.181015">
        <ele>312.487</ele>
        <time>2022-08-23T07:59:00Z</time>
      </trkpt>
      <trkpt lat="42.924752" lon="-8.181087">
        <ele>312.431</ele>
        <time>2022-08-23T07:59:04Z</time>
      </trkpt>
      <trkpt lat="42.924745" lon="-8.181166">
        <ele>312.481</ele>
        <time>2022-08-23T07:59:08Z</time>
      </trkpt>
      <trkpt lat="42.924740" lon="-8.181240">
        <ele>312.562</ele>
        <time>2022-08-23T07:59:11Z</time>
      </trkpt>
      <trkpt lat="42.924733" lon="-8.181318">
        <ele>312.580</ele>
        <time>2022-08-23T07:59:15Z</time>
      </trkpt>
      <trkpt lat="42.924734" lon="-8.181380">
        <ele>312.513</ele>
        <time>2022-08-23T07:59:18Z</time>
      </trkpt>
      <trkpt lat="42.924725" lon="-8.181445">
        <ele>312.678</ele>
        <time>2022-08-23T07:59:22Z</time>
      </trkpt>
      <trkpt lat="42.924713" lon="-8.181506">
        <ele>312.717</ele>
        <time>2022-08-23T07:59:25Z</time>
      </trkpt>
      <trkpt lat="42.924699" lon="-8.181588">
        <ele>312.787</ele>
        <time>2022-08-23T07:59:29Z</time>
      </trkpt>
      <trkpt lat="42.924689" lon="-8.181665">
        <ele>312.715</ele>
        <time>2022-08-23T07:59:34Z</time>
      </trkpt>
      <trkpt lat="42.924677" lon="-8.181744">
        <ele>312.709</ele>
        <time>2022-08-23T07:59:38Z</time>
      </trkpt>
      <trkpt lat="42.924665" lon="-8.181803">
        <ele>312.742</ele>
        <time>2022-08-23T07:59:41Z</time>
      </trkpt>
      <trkpt lat="42.924650" lon="-8.181877">
        <ele>312.732</ele>
        <time>2022-08-23T07:59:46Z</time>
      </trkpt>
      <trkpt lat="42.924628" lon="-8.181940">
        <ele>312.722</ele>
        <time>2022-08-23T07:59:49Z</time>
      </trkpt>
      <trkpt lat="42.924619" lon="-8.182006">
        <ele>312.986</ele>
        <time>2022-08-23T07:59:54Z</time>
      </trkpt>
      <trkpt lat="42.924603" lon="-8.182064">
        <ele>313.116</ele>
        <time>2022-08-23T07:59:58Z</time>
      </trkpt>
      <trkpt lat="42.924586" lon="-8.182138">
        <ele>313.247</ele>
        <time>2022-08-23T08:00:02Z</time>
      </trkpt>
      <trkpt lat="42.924573" lon="-8.182212">
        <ele>313.435</ele>
        <time>2022-08-23T08:00:06Z</time>
      </trkpt>
      <trkpt lat="42.924561" lon="-8.182295">
        <ele>313.888</ele>
        <time>2022-08-23T08:00:10Z</time>
      </trkpt>
      <trkpt lat="42.924553" lon="-8.182373">
        <ele>314.683</ele>
        <time>2022-08-23T08:00:14Z</time>
      </trkpt>
      <trkpt lat="42.924550" lon="-8.182449">
        <ele>315.258</ele>
        <time>2022-08-23T08:00:18Z</time>
      </trkpt>
      <trkpt lat="42.924539" lon="-8.182508">
        <ele>315.952</ele>
        <time>2022-08-23T08:00:22Z</time>
      </trkpt>
      <trkpt lat="42.924536" lon="-8.182586">
        <ele>316.817</ele>
        <time>2022-08-23T08:00:27Z</time>
      </trkpt>
      <trkpt lat="42.924533" lon="-8.182654">
        <ele>317.209</ele>
        <time>2022-08-23T08:00:30Z</time>
      </trkpt>
      <trkpt lat="42.924536" lon="-8.182716">
        <ele>318.076</ele>
        <time>2022-08-23T08:00:34Z</time>
      </trkpt>
      <trkpt lat="42.924525" lon="-8.182786">
        <ele>318.796</ele>
        <time>2022-08-23T08:00:39Z</time>
      </trkpt>
      <trkpt lat="42.924517" lon="-8.182858">
        <ele>319.226</ele>
        <time>2022-08-23T08:00:43Z</time>
      </trkpt>
      <trkpt lat="42.924495" lon="-8.182913">
        <ele>319.830</ele>
        <time>2022-08-23T08:00:46Z</time>
      </trkpt>
      <trkpt lat="42.924481" lon="-8.182972">
        <ele>320.460</ele>
        <time>2022-08-23T08:00:50Z</time>
      </trkpt>
      <trkpt lat="42.924463" lon="-8.183029">
        <ele>320.871</ele>
        <time>2022-08-23T08:00:54Z</time>
      </trkpt>
      <trkpt lat="42.924429" lon="-8.183087">
        <ele>321.319</ele>
        <time>2022-08-23T08:00:59Z</time>
      </trkpt>
      <trkpt lat="42.924381" lon="-8.183145">
        <ele>321.922</ele>
        <time>2022-08-23T08:01:03Z</time>
      </trkpt>
      <trkpt lat="42.924343" lon="-8.183204">
        <ele>322.797</ele>
        <time>2022-08-23T08:01:07Z</time>
      </trkpt>
      <trkpt lat="42.924308" lon="-8.183257">
        <ele>323.994</ele>
        <time>2022-08-23T08:01:11Z</time>
      </trkpt>
      <trkpt lat="42.924285" lon="-8.183311">
        <ele>324.857</ele>
        <time>2022-08-23T08:01:15Z</time>
      </trkpt>
      <trkpt lat="42.924258" lon="-8.183379">
        <ele>325.722</ele>
        <time>2022-08-23T08:01:19Z</time>
      </trkpt>
      <trkpt lat="42.924242" lon="-8.183437">
        <ele>326.209</ele>
        <time>2022-08-23T08:01:22Z</time>
      </trkpt>
      <trkpt lat="42.924233" lon="-8.183510">
        <ele>327.010</ele>
        <time>2022-08-23T08:01:27Z</time>
      </trkpt>
      <trkpt lat="42.924226" lon="-8.183580">
        <ele>327.670</ele>
        <time>2022-08-23T08:01:31Z</time>
      </trkpt>
      <trkpt lat="42.924228" lon="-8.183653">
        <ele>328.220</ele>
        <time>2022-08-23T08:01:36Z</time>
      </trkpt>
      <trkpt lat="42.924227" lon="-8.183722">
        <ele>328.954</ele>
        <time>2022-08-23T08:01:40Z</time>
      </trkpt>
      <trkpt lat="42.924232" lon="-8.183798">
        <ele>329.674</ele>
        <time>2022-08-23T08:01:44Z</time>
      </trkpt>
      <trkpt lat="42.924234" lon="-8.183883">
        <ele>330.695</ele>
        <time>2022-08-23T08:01:48Z</time>
      </trkpt>
      <trkpt lat="42.924238" lon="-8.183950">
        <ele>331.353</ele>
        <time>2022-08-23T08:01:52Z</time>
      </trkpt>
      <trkpt lat="42.924236" lon="-8.184020">
        <ele>331.686</ele>
        <time>2022-08-23T08:01:56Z</time>
      </trkpt>
      <trkpt lat="42.924236" lon="-8.184083">
        <ele>332.261</ele>
        <time>2022-08-23T08:02:00Z</time>
      </trkpt>
      <trkpt lat="42.924233" lon="-8.184147">
        <ele>332.814</ele>
        <time>2022-08-23T08:02:03Z</time>
      </trkpt>
      <trkpt lat="42.924222" lon="-8.184217">
        <ele>333.454</ele>
        <time>2022-08-23T08:02:07Z</time>
      </trkpt>
      <trkpt lat="42.924200" lon="-8.184281">
        <ele>334.009</ele>
        <time>2022-08-23T08:02:11Z</time>
      </trkpt>
      <trkpt lat="42.924170" lon="-8.184341">
        <ele>334.609</ele>
        <time>2022-08-23T08:02:15Z</time>
      </trkpt>
      <trkpt lat="42.924145" lon="-8.184396">
        <ele>335.222</ele>
        <time>2022-08-23T08:02:20Z</time>
      </trkpt>
      <trkpt lat="42.924117" lon="-8.184459">
        <ele>335.872</ele>
        <time>2022-08-23T08:02:25Z</time>
      </trkpt>
      <trkpt lat="42.924081" lon="-8.184511">
        <ele>336.422</ele>
        <time>2022-08-23T08:02:30Z</time>
      </trkpt>
      <trkpt lat="42.924036" lon="-8.184566">
        <ele>337.056</ele>
        <time>2022-08-23T08:02:34Z</time>
      </trkpt>
      <trkpt lat="42.924003" lon="-8.184617">
        <ele>337.366</ele>
        <time>2022-08-23T08:02:38Z</time>
      </trkpt>
      <trkpt lat="42.923962" lon="-8.184661">
        <ele>337.327</ele>
        <time>2022-08-23T08:02:42Z</time>
      </trkpt>
      <trkpt lat="42.923919" lon="-8.184690">
        <ele>337.345</ele>
        <time>2022-08-23T08:02:46Z</time>
      </trkpt>
      <trkpt lat="42.923868" lon="-8.184708">
        <ele>337.348</ele>
        <time>2022-08-23T08:02:49Z</time>
      </trkpt>
      <trkpt lat="42.923822" lon="-8.184733">
        <ele>337.383</ele>
        <time>2022-08-23T08:02:53Z</time>
      </trkpt>
      <trkpt lat="42.923779" lon="-8.184755">
        <ele>337.353</ele>
        <time>2022-08-23T08:02:56Z</time>
      </trkpt>
      <trkpt lat="42.923722" lon="-8.184773">
        <ele>337.304</ele>
        <time>2022-08-23T08:03:00Z</time>
      </trkpt>
      <trkpt lat="42.923678" lon="-8.184789">
        <ele>337.414</ele>
        <time>2022-08-23T08:03:03Z</time>
      </trkpt>
      <trkpt lat="42.923633" lon="-8.184805">
        <ele>337.509</ele>
        <time>2022-08-23T08:03:07Z</time>
      </trkpt>
      <trkpt lat="42.923587" lon="-8.184833">
        <ele>337.656</ele>
        <time>2022-08-23T08:03:12Z</time>
      </trkpt>
      <trkpt lat="42.923529" lon="-8.184853">
        <ele>337.676</ele>
        <time>2022-08-23T08:03:16Z</time>
      </trkpt>
      <trkpt lat="42.923475" lon="-8.184868">
        <ele>337.796</ele>
        <time>2022-08-23T08:03:20Z</time>
      </trkpt>
      <trkpt lat="42.923425" lon="-8.184885">
        <ele>337.820</ele>
        <time>2022-08-23T08:03:24Z</time>
      </trkpt>
      <trkpt lat="42.923378" lon="-8.184897">
        <ele>337.870</ele>
        <time>2022-08-23T08:03:27Z</time>
      </trkpt>
      <trkpt lat="42.923331" lon="-8.184906">
        <ele>337.831</ele>
        <time>2022-08-23T08:03:30Z</time>
      </trkpt>
      <trkpt lat="42.923278" lon="-8.184925">
        <ele>337.899</ele>
        <time>2022-08-23T08:03:33Z</time>
      </trkpt>
      <trkpt lat="42.923229" lon="-8.184938">
        <ele>337.822</ele>
        <time>2022-08-23T08:03:36Z</time>
      </trkpt>
      <trkpt lat="42.923173" lon="-8.184951">
        <ele>337.897</ele>
        <time>2022-08-23T08:03:40Z</time>
      </trkpt>
      <trkpt lat="42.923129" lon="-8.184963">
        <ele>337.896</ele>
        <time>2022-08-23T08:03:43Z</time>
      </trkpt>
      <trkpt lat="42.923079" lon="-8.184980">
        <ele>337.831</ele>
        <time>2022-08-23T08:03:47Z</time>
      </trkpt>
      <trkpt lat="42.923024" lon="-8.185007">
        <ele>337.824</ele>
        <time>2022-08-23T08:03:52Z</time>
      </trkpt>
      <trkpt lat="42.922976" lon="-8.185038">
        <ele>337.709</ele>
        <time>2022-08-23T08:03:56Z</time>
      </trkpt>
      <trkpt lat="42.922937" lon="-8.185075">
        <ele>337.650</ele>
        <time>2022-08-23T08:04:00Z</time>
      </trkpt>
      <trkpt lat="42.922888" lon="-8.185112">
        <ele>337.530</ele>
        <time>2022-08-23T08:04:04Z</time>
      </trkpt>
      <trkpt lat="42.922839" lon="-8.185151">
        <ele>337.380</ele>
        <time>2022-08-23T08:04:08Z</time>
      </trkpt>
      <trkpt lat="42.922797" lon="-8.185202">
        <ele>337.264</ele>
        <time>2022-08-23T08:04:12Z</time>
      </trkpt>
      <trkpt lat="42.922771" lon="-8.185253">
        <ele>337.234</ele>
        <time>2022-08-23T08:04:15Z</time>
      </trkpt>
      <trkpt lat="42.922734" lon="-8.185311">
        <ele>337.115</ele>
        <time>2022-08-23T08:04:19Z</time>
      </trkpt>
      <trkpt lat="42.922703" lon="-8.185380">
        <ele>337.113</ele>
        <time>2022-08-23T08:04:23Z</time>
      </trkpt>
      <trkpt lat="42.922674" lon="-8.185433">
        <ele>337.156</ele>
        <time>2022-08-23T08:04:26Z</time>
      </trkpt>
      <trkpt lat="42.922649" lon="-8.185485">
        <ele>337.171</ele>
        <time>2022-08-23T08:04:29Z</time>
      </trkpt>
      <trkpt lat="42.922632" lon="-8.185542">
        <ele>337.234</ele>
        <time>2022-08-23T08:04:32Z</time>
      </trkpt>
      <trkpt lat="42.922618" lon="-8.185620">
        <ele>337.355</ele>
        <time>2022-08-23T08:04:36Z</time>
      </trkpt>
      <trkpt lat="42.922623" lon="-8.185682">
        <ele>337.310</ele>
        <time>2022-08-23T08:04:39Z</time>
      </trkpt>
      <trkpt lat="42.922631" lon="-8.185759">
        <ele>337.409</ele>
        <time>2022-08-23T08:04:43Z</time>
      </trkpt>
      <trkpt lat="42.922642" lon="-8.185830">
        <ele>337.654</ele>
        <time>2022-08-23T08:04:47Z</time>
      </trkpt>
      <trkpt lat="42.922655" lon="-8.185901">
        <ele>337.914</ele>
        <time>2022-08-23T08:04:51Z</time>
      </trkpt>
      <trkpt lat="42.922669" lon="-8.185968">
        <ele>338.274</ele>
        <time>2022-08-23T08:04:55Z</time>
      </trkpt>
      <trkpt lat="42.922680" lon="-8.186042">
        <ele>338.588</ele>
        <time>2022-08-23T08:05:00Z</time>
      </trkpt>
      <trkpt lat="42.922682" lon="-8.186103">
        <ele>338.828</ele>
        <time>2022-08-23T08:05:03Z</time>
      </trkpt>
      <trkpt lat="42.922678" lon="-8.186179">
        <ele>339.259</ele>
        <time>2022-08-23T08:05:07Z</time>
      </trkpt>
      <trkpt lat="42.922671" lon="-8.186250">
        <ele>339.637</ele>
        <time>2022-08-23T08:05:11Z</time>
      </trkpt>
      <trkpt lat="42.922660" lon="-8.186323">
        <ele>339.970</ele>
        <time>2022-08-23T08:05:15Z</time>
      </trkpt>
      <trkpt lat="42.922647" lon="-8.186398">
        <ele>340.365</ele>
        <time>2022-08-23T08:05:19Z</time>
      </trkpt>
      <trkpt lat="42.922628" lon="-8.186466">
        <ele>340.972</ele>
        <time>2022-08-23T08:05:23Z</time>
      </trkpt>
      <trkpt lat="42.922621" lon="-8.186535">
        <ele>341.113</ele>
        <time>2022-08-23T08:05:27Z</time>
      </trkpt>
      <trkpt lat="42.922612" lon="-8.186605">
        <ele>341.514</ele>
        <time>2022-08-23T08:05:31Z</time>
      </trkpt>
      <trkpt lat="42.922604" lon="-8.186674">
        <ele>341.909</ele>
        <time>2022-08-23T08:05:35Z</time>
      </trkpt>
      <trkpt lat="42.922599" lon="-8.186741">
        <ele>342.328</ele>
        <time>2022-08-23T08:05:39Z</time>
      </trkpt>
      <trkpt lat="42.922592" lon="-8.186806">
        <ele>342.888</ele>
        <time>2022-08-23T08:05:43Z</time>
      </trkpt>
      <trkpt lat="42.922593" lon="-8.186878">
        <ele>343.418</ele>
        <time>2022-08-23T08:05:47Z</time>
      </trkpt>
      <trkpt lat="42.922603" lon="-8.186942">
        <ele>344.092</ele>
        <time>2022-08-23T08:05:51Z</time>
      </trkpt>
      <trkpt lat="42.922636" lon="-8.187008">
        <ele>344.732</ele>
        <time>2022-08-23T08:05:56Z</time>
      </trkpt>
      <trkpt lat="42.922665" lon="-8.187073">
        <ele>345.373</ele>
        <time>2022-08-23T08:06:00Z</time>
      </trkpt>
      <trkpt lat="42.922694" lon="-8.187124">
        <ele>345.951</ele>
        <time>2022-08-23T08:06:04Z</time>
      </trkpt>
      <trkpt lat="42.922714" lon="-8.187181">
        <ele>346.394</ele>
        <time>2022-08-23T08:06:08Z</time>
      </trkpt>
      <trkpt lat="42.922727" lon="-8.187241">
        <ele>346.579</ele>
        <time>2022-08-23T08:06:12Z</time>
      </trkpt>
      <trkpt lat="42.922743" lon="-8.187310">
        <ele>346.655</ele>
        <time>2022-08-23T08:06:16Z</time>
      </trkpt>
      <trkpt lat="42.922753" lon="-8.187381">
        <ele>346.807</ele>
        <time>2022-08-23T08:06:20Z</time>
      </trkpt>
      <trkpt lat="42.922761" lon="-8.187446">
        <ele>347.017</ele>
        <time>2022-08-23T08:06:23Z</time>
      </trkpt>
      <trkpt lat="42.922771" lon="-8.187506">
        <ele>347.309</ele>
        <time>2022-08-23T08:06:26Z</time>
      </trkpt>
      <trkpt lat="42.922778" lon="-8.187578">
        <ele>347.626</ele>
        <time>2022-08-23T08:06:30Z</time>
      </trkpt>
      <trkpt lat="42.922788" lon="-8.187643">
        <ele>348.026</ele>
        <time>2022-08-23T08:06:34Z</time>
      </trkpt>
      <trkpt lat="42.922795" lon="-8.187710">
        <ele>348.596</ele>
        <time>2022-08-23T08:06:38Z</time>
      </trkpt>
      <trkpt lat="42.922806" lon="-8.187772">
        <ele>349.150</ele>
        <time>2022-08-23T08:06:42Z</time>
      </trkpt>
      <trkpt lat="42.922839" lon="-8.187834">
        <ele>349.720</ele>
        <time>2022-08-23T08:06:47Z</time>
      </trkpt>
      <trkpt lat="42.922884" lon="-8.187883">
        <ele>350.471</ele>
        <time>2022-08-23T08:06:52Z</time>
      </trkpt>
      <trkpt lat="42.922933" lon="-8.187923">
        <ele>351.249</ele>
        <time>2022-08-23T08:06:57Z</time>
      </trkpt>
      <trkpt lat="42.922977" lon="-8.187950">
        <ele>352.142</ele>
        <time>2022-08-23T08:07:01Z</time>
      </trkpt>
      <trkpt lat="42.923021" lon="-8.187980">
        <ele>353.017</ele>
        <time>2022-08-23T08:07:05Z</time>
      </trkpt>
      <trkpt lat="42.923066" lon="-8.188020">
        <ele>353.992</ele>
        <time>2022-08-23T08:07:10Z</time>
      </trkpt>
      <trkpt lat="42.923137" lon="-8.188133">
        <ele>354.873</ele>
        <time>2022-08-23T08:07:25Z</time>
      </trkpt>
      <trkpt lat="42.923185" lon="-8.188233">
        <ele>355.120</ele>
        <time>2022-08-23T08:07:26Z</time>
      </trkpt>
      <trkpt lat="42.923170" lon="-8.188323">
        <ele>355.209</ele>
        <time>2022-08-23T08:07:29Z</time>
      </trkpt>
      <trkpt lat="42.923127" lon="-8.188362">
        <ele>355.330</ele>
        <time>2022-08-23T08:07:35Z</time>
      </trkpt>
      <trkpt lat="42.923089" lon="-8.188416">
        <ele>355.420</ele>
        <time>2022-08-23T08:07:41Z</time>
      </trkpt>
      <trkpt lat="42.923057" lon="-8.188464">
        <ele>356.670</ele>
        <time>2022-08-23T08:07:45Z</time>
      </trkpt>
      <trkpt lat="42.923032" lon="-8.188515">
        <ele>357.334</ele>
        <time>2022-08-23T08:07:49Z</time>
      </trkpt>
      <trkpt lat="42.923041" lon="-8.188580">
        <ele>358.544</ele>
        <time>2022-08-23T08:07:53Z</time>
      </trkpt>
      <trkpt lat="42.923081" lon="-8.188608">
        <ele>359.525</ele>
        <time>2022-08-23T08:07:58Z</time>
      </trkpt>
      <trkpt lat="42.923123" lon="-8.188632">
        <ele>360.523</ele>
        <time>2022-08-23T08:08:02Z</time>
      </trkpt>
      <trkpt lat="42.923172" lon="-8.188658">
        <ele>361.556</ele>
        <time>2022-08-23T08:08:06Z</time>
      </trkpt>
      <trkpt lat="42.923220" lon="-8.188683">
        <ele>362.571</ele>
        <time>2022-08-23T08:08:10Z</time>
      </trkpt>
      <trkpt lat="42.923263" lon="-8.188708">
        <ele>363.319</ele>
        <time>2022-08-23T08:08:14Z</time>
      </trkpt>
      <trkpt lat="42.923309" lon="-8.188722">
        <ele>364.009</ele>
        <time>2022-08-23T08:08:18Z</time>
      </trkpt>
      <trkpt lat="42.923360" lon="-8.188753">
        <ele>364.719</ele>
        <time>2022-08-23T08:08:23Z</time>
      </trkpt>
      <trkpt lat="42.923410" lon="-8.188782">
        <ele>365.409</ele>
        <time>2022-08-23T08:08:28Z</time>
      </trkpt>
      <trkpt lat="42.923458" lon="-8.188802">
        <ele>366.162</ele>
        <time>2022-08-23T08:08:33Z</time>
      </trkpt>
      <trkpt lat="42.923510" lon="-8.188830">
        <ele>366.642</ele>
        <time>2022-08-23T08:08:38Z</time>
      </trkpt>
      <trkpt lat="42.923562" lon="-8.188853">
        <ele>367.182</ele>
        <time>2022-08-23T08:08:42Z</time>
      </trkpt>
      <trkpt lat="42.923609" lon="-8.188881">
        <ele>367.246</ele>
        <time>2022-08-23T08:08:45Z</time>
      </trkpt>
      <trkpt lat="42.923653" lon="-8.188902">
        <ele>367.366</ele>
        <time>2022-08-23T08:08:48Z</time>
      </trkpt>
      <trkpt lat="42.923707" lon="-8.188921">
        <ele>367.487</ele>
        <time>2022-08-23T08:08:52Z</time>
      </trkpt>
      <trkpt lat="42.923761" lon="-8.188945">
        <ele>367.415</ele>
        <time>2022-08-23T08:08:56Z</time>
      </trkpt>
      <trkpt lat="42.923811" lon="-8.188967">
        <ele>367.458</ele>
        <time>2022-08-23T08:09:00Z</time>
      </trkpt>
      <trkpt lat="42.923853" lon="-8.188994">
        <ele>367.593</ele>
        <time>2022-08-23T08:09:04Z</time>
      </trkpt>
      <trkpt lat="42.923901" lon="-8.189016">
        <ele>367.685</ele>
        <time>2022-08-23T08:09:08Z</time>
      </trkpt>
      <trkpt lat="42.923949" lon="-8.189033">
        <ele>367.789</ele>
        <time>2022-08-23T08:09:12Z</time>
      </trkpt>
      <trkpt lat="42.924005" lon="-8.189064">
        <ele>367.717</ele>
        <time>2022-08-23T08:09:16Z</time>
      </trkpt>
      <trkpt lat="42.924050" lon="-8.189084">
        <ele>367.709</ele>
        <time>2022-08-23T08:09:19Z</time>
      </trkpt>
      <trkpt lat="42.924106" lon="-8.189111">
        <ele>367.839</ele>
        <time>2022-08-23T08:09:23Z</time>
      </trkpt>
      <trkpt lat="42.924152" lon="-8.189130">
        <ele>367.939</ele>
        <time>2022-08-23T08:09:27Z</time>
      </trkpt>
      <trkpt lat="42.924206" lon="-8.189156">
        <ele>368.019</ele>
        <time>2022-08-23T08:09:32Z</time>
      </trkpt>
      <trkpt lat="42.924257" lon="-8.189177">
        <ele>368.013</ele>
        <time>2022-08-23T08:09:36Z</time>
      </trkpt>
      <trkpt lat="42.924305" lon="-8.189196">
        <ele>368.183</ele>
        <time>2022-08-23T08:09:40Z</time>
      </trkpt>
      <trkpt lat="42.924359" lon="-8.189214">
        <ele>368.214</ele>
        <time>2022-08-23T08:09:44Z</time>
      </trkpt>
      <trkpt lat="42.924411" lon="-8.189244">
        <ele>368.462</ele>
        <time>2022-08-23T08:09:48Z</time>
      </trkpt>
      <trkpt lat="42.924464" lon="-8.189265">
        <ele>368.565</ele>
        <time>2022-08-23T08:09:53Z</time>
      </trkpt>
      <trkpt lat="42.924516" lon="-8.189291">
        <ele>368.750</ele>
        <time>2022-08-23T08:09:57Z</time>
      </trkpt>
      <trkpt lat="42.924561" lon="-8.189306">
        <ele>368.822</ele>
        <time>2022-08-23T08:10:01Z</time>
      </trkpt>
      <trkpt lat="42.924617" lon="-8.189330">
        <ele>369.162</ele>
        <time>2022-08-23T08:10:05Z</time>
      </trkpt>
      <trkpt lat="42.924666" lon="-8.189357">
        <ele>369.208</ele>
        <time>2022-08-23T08:10:09Z</time>
      </trkpt>
      <trkpt lat="42.924718" lon="-8.189382">
        <ele>369.409</ele>
        <time>2022-08-23T08:10:14Z</time>
      </trkpt>
      <trkpt lat="42.924770" lon="-8.189414">
        <ele>369.623</ele>
        <time>2022-08-23T08:10:18Z</time>
      </trkpt>
      <trkpt lat="42.924821" lon="-8.189437">
        <ele>370.043</ele>
        <time>2022-08-23T08:10:22Z</time>
      </trkpt>
      <trkpt lat="42.924879" lon="-8.189460">
        <ele>370.253</ele>
        <time>2022-08-23T08:10:26Z</time>
      </trkpt>
      <trkpt lat="42.924935" lon="-8.189483">
        <ele>370.487</ele>
        <time>2022-08-23T08:10:30Z</time>
      </trkpt>
      <trkpt lat="42.924985" lon="-8.189501">
        <ele>370.697</ele>
        <time>2022-08-23T08:10:34Z</time>
      </trkpt>
      <trkpt lat="42.925038" lon="-8.189524">
        <ele>370.718</ele>
        <time>2022-08-23T08:10:38Z</time>
      </trkpt>
      <trkpt lat="42.925084" lon="-8.189535">
        <ele>370.886</ele>
        <time>2022-08-23T08:10:41Z</time>
      </trkpt>
      <trkpt lat="42.925135" lon="-8.189555">
        <ele>370.839</ele>
        <time>2022-08-23T08:10:45Z</time>
      </trkpt>
      <trkpt lat="42.925190" lon="-8.189575">
        <ele>370.934</ele>
        <time>2022-08-23T08:10:49Z</time>
      </trkpt>
      <trkpt lat="42.925244" lon="-8.189599">
        <ele>371.174</ele>
        <time>2022-08-23T08:10:53Z</time>
      </trkpt>
      <trkpt lat="42.925294" lon="-8.189619">
        <ele>371.256</ele>
        <time>2022-08-23T08:10:57Z</time>
      </trkpt>
      <trkpt lat="42.925346" lon="-8.189646">
        <ele>371.421</ele>
        <time>2022-08-23T08:11:01Z</time>
      </trkpt>
      <trkpt lat="42.925398" lon="-8.189665">
        <ele>371.609</ele>
        <time>2022-08-23T08:11:05Z</time>
      </trkpt>
      <trkpt lat="42.925448" lon="-8.189697">
        <ele>371.768</ele>
        <time>2022-08-23T08:11:09Z</time>
      </trkpt>
      <trkpt lat="42.925501" lon="-8.189729">
        <ele>371.858</ele>
        <time>2022-08-23T08:11:13Z</time>
      </trkpt>
      <trkpt lat="42.925549" lon="-8.189742">
        <ele>371.958</ele>
        <time>2022-08-23T08:11:17Z</time>
      </trkpt>
      <trkpt lat="42.925603" lon="-8.189770">
        <ele>372.192</ele>
        <time>2022-08-23T08:11:21Z</time>
      </trkpt>
      <trkpt lat="42.925649" lon="-8.189788">
        <ele>372.222</ele>
        <time>2022-08-23T08:11:25Z</time>
      </trkpt>
      <trkpt lat="42.925695" lon="-8.189809">
        <ele>372.383</ele>
        <time>2022-08-23T08:11:29Z</time>
      </trkpt>
      <trkpt lat="42.925747" lon="-8.189833">
        <ele>372.461</ele>
        <time>2022-08-23T08:11:33Z</time>
      </trkpt>
      <trkpt lat="42.925799" lon="-8.189858">
        <ele>372.664</ele>
        <time>2022-08-23T08:11:37Z</time>
      </trkpt>
      <trkpt lat="42.925847" lon="-8.189880">
        <ele>372.819</ele>
        <time>2022-08-23T08:11:41Z</time>
      </trkpt>
      <trkpt lat="42.925897" lon="-8.189907">
        <ele>373.081</ele>
        <time>2022-08-23T08:11:45Z</time>
      </trkpt>
      <trkpt lat="42.925941" lon="-8.189926">
        <ele>373.361</ele>
        <time>2022-08-23T08:11:48Z</time>
      </trkpt>
      <trkpt lat="42.925981" lon="-8.189956">
        <ele>373.617</ele>
        <time>2022-08-23T08:11:51Z</time>
      </trkpt>
      <trkpt lat="42.926030" lon="-8.189992">
        <ele>373.909</ele>
        <time>2022-08-23T08:11:55Z</time>
      </trkpt>
      <trkpt lat="42.926077" lon="-8.190040">
        <ele>374.199</ele>
        <time>2022-08-23T08:11:59Z</time>
      </trkpt>
      <trkpt lat="42.926107" lon="-8.190086">
        <ele>374.369</ele>
        <time>2022-08-23T08:12:02Z</time>
      </trkpt>
      <trkpt lat="42.926137" lon="-8.190151">
        <ele>374.519</ele>
        <time>2022-08-23T08:12:06Z</time>
      </trkpt>
      <trkpt lat="42.926156" lon="-8.190220">
        <ele>374.673</ele>
        <time>2022-08-23T08:12:10Z</time>
      </trkpt>
      <trkpt lat="42.926167" lon="-8.190293">
        <ele>374.643</ele>
        <time>2022-08-23T08:12:14Z</time>
      </trkpt>
      <trkpt lat="42.926172" lon="-8.190369">
        <ele>374.634</ele>
        <time>2022-08-23T08:12:18Z</time>
      </trkpt>
      <trkpt lat="42.926173" lon="-8.190443">
        <ele>374.862</ele>
        <time>2022-08-23T08:12:22Z</time>
      </trkpt>
      <trkpt lat="42.926172" lon="-8.190519">
        <ele>375.145</ele>
        <time>2022-08-23T08:12:26Z</time>
      </trkpt>
      <trkpt lat="42.926173" lon="-8.190594">
        <ele>375.430</ele>
        <time>2022-08-23T08:12:30Z</time>
      </trkpt>
      <trkpt lat="42.926174" lon="-8.190674">
        <ele>375.687</ele>
        <time>2022-08-23T08:12:34Z</time>
      </trkpt>
      <trkpt lat="42.926172" lon="-8.190750">
        <ele>376.042</ele>
        <time>2022-08-23T08:12:38Z</time>
      </trkpt>
      <trkpt lat="42.926173" lon="-8.190822">
        <ele>376.326</ele>
        <time>2022-08-23T08:12:42Z</time>
      </trkpt>
      <trkpt lat="42.926172" lon="-8.190901">
        <ele>376.609</ele>
        <time>2022-08-23T08:12:46Z</time>
      </trkpt>
      <trkpt lat="42.926170" lon="-8.190976">
        <ele>376.929</ele>
        <time>2022-08-23T08:12:50Z</time>
      </trkpt>
      <trkpt lat="42.926171" lon="-8.191050">
        <ele>377.289</ele>
        <time>2022-08-23T08:12:54Z</time>
      </trkpt>
      <trkpt lat="42.926168" lon="-8.191125">
        <ele>377.639</ele>
        <time>2022-08-23T08:12:58Z</time>
      </trkpt>
      <trkpt lat="42.926166" lon="-8.191198">
        <ele>377.973</ele>
        <time>2022-08-23T08:13:02Z</time>
      </trkpt>
      <trkpt lat="42.926167" lon="-8.191271">
        <ele>378.213</ele>
        <time>2022-08-23T08:13:06Z</time>
      </trkpt>
      <trkpt lat="42.926166" lon="-8.191343">
        <ele>378.464</ele>
        <time>2022-08-23T08:13:10Z</time>
      </trkpt>
      <trkpt lat="42.926169" lon="-8.191413">
        <ele>378.582</ele>
        <time>2022-08-23T08:13:14Z</time>
      </trkpt>
      <trkpt lat="42.926166" lon="-8.191483">
        <ele>378.755</ele>
        <time>2022-08-23T08:13:18Z</time>
      </trkpt>
      <trkpt lat="42.926161" lon="-8.191560">
        <ele>378.910</ele>
        <time>2022-08-23T08:13:22Z</time>
      </trkpt>
      <trkpt lat="42.926158" lon="-8.191632">
        <ele>379.142</ele>
        <time>2022-08-23T08:13:26Z</time>
      </trkpt>
      <trkpt lat="42.926154" lon="-8.191694">
        <ele>379.322</ele>
        <time>2022-08-23T08:13:30Z</time>
      </trkpt>
      <trkpt lat="42.926160" lon="-8.191774">
        <ele>379.514</ele>
        <time>2022-08-23T08:13:36Z</time>
      </trkpt>
      <trkpt lat="42.926163" lon="-8.191851">
        <ele>379.909</ele>
        <time>2022-08-23T08:13:40Z</time>
      </trkpt>
      <trkpt lat="42.926163" lon="-8.191915">
        <ele>380.085</ele>
        <time>2022-08-23T08:13:44Z</time>
      </trkpt>
      <trkpt lat="42.926161" lon="-8.191982">
        <ele>380.345</ele>
        <time>2022-08-23T08:13:48Z</time>
      </trkpt>
      <trkpt lat="42.926154" lon="-8.192057">
        <ele>380.575</ele>
        <time>2022-08-23T08:13:52Z</time>
      </trkpt>
      <trkpt lat="42.926155" lon="-8.192123">
        <ele>380.779</ele>
        <time>2022-08-23T08:13:56Z</time>
      </trkpt>
      <trkpt lat="42.926154" lon="-8.192199">
        <ele>380.979</ele>
        <time>2022-08-23T08:14:00Z</time>
      </trkpt>
      <trkpt lat="42.926159" lon="-8.192277">
        <ele>381.150</ele>
        <time>2022-08-23T08:14:04Z</time>
      </trkpt>
      <trkpt lat="42.926155" lon="-8.192349">
        <ele>381.458</ele>
        <time>2022-08-23T08:14:08Z</time>
      </trkpt>
      <trkpt lat="42.926156" lon="-8.192429">
        <ele>381.681</ele>
        <time>2022-08-23T08:14:13Z</time>
      </trkpt>
      <trkpt lat="42.926156" lon="-8.192503">
        <ele>381.886</ele>
        <time>2022-08-23T08:14:17Z</time>
      </trkpt>
      <trkpt lat="42.926153" lon="-8.192579">
        <ele>382.038</ele>
        <time>2022-08-23T08:14:21Z</time>
      </trkpt>
      <trkpt lat="42.926155" lon="-8.192645">
        <ele>382.270</ele>
        <time>2022-08-23T08:14:25Z</time>
      </trkpt>
      <trkpt lat="42.926152" lon="-8.192706">
        <ele>382.317</ele>
        <time>2022-08-23T08:14:28Z</time>
      </trkpt>
      <trkpt lat="42.926155" lon="-8.192782">
        <ele>382.509</ele>
        <time>2022-08-23T08:14:32Z</time>
      </trkpt>
      <trkpt lat="42.926159" lon="-8.192854">
        <ele>382.634</ele>
        <time>2022-08-23T08:14:36Z</time>
      </trkpt>
      <trkpt lat="42.926166" lon="-8.192925">
        <ele>382.834</ele>
        <time>2022-08-23T08:14:40Z</time>
      </trkpt>
      <trkpt lat="42.926173" lon="-8.192999">
        <ele>383.084</ele>
        <time>2022-08-23T08:14:44Z</time>
      </trkpt>
      <trkpt lat="42.926183" lon="-8.193063">
        <ele>383.418</ele>
        <time>2022-08-23T08:14:48Z</time>
      </trkpt>
      <trkpt lat="42.926202" lon="-8.193138">
        <ele>383.838</ele>
        <time>2022-08-23T08:14:53Z</time>
      </trkpt>
      <trkpt lat="42.926220" lon="-8.193196">
        <ele>384.099</ele>
        <time>2022-08-23T08:14:56Z</time>
      </trkpt>
      <trkpt lat="42.926239" lon="-8.193263">
        <ele>384.347</ele>
        <time>2022-08-23T08:15:00Z</time>
      </trkpt>
      <trkpt lat="42.926262" lon="-8.193327">
        <ele>384.670</ele>
        <time>2022-08-23T08:15:04Z</time>
      </trkpt>
      <trkpt lat="42.926279" lon="-8.193384">
        <ele>384.895</ele>
        <time>2022-08-23T08:15:07Z</time>
      </trkpt>
      <trkpt lat="42.926299" lon="-8.193455">
        <ele>385.069</ele>
        <time>2022-08-23T08:15:11Z</time>
      </trkpt>
      <trkpt lat="42.926316" lon="-8.193513">
        <ele>385.204</ele>
        <time>2022-08-23T08:15:14Z</time>
      </trkpt>
      <trkpt lat="42.926334" lon="-8.193585">
        <ele>385.424</ele>
        <time>2022-08-23T08:15:18Z</time>
      </trkpt>
      <trkpt lat="42.926341" lon="-8.193655">
        <ele>385.609</ele>
        <time>2022-08-23T08:15:22Z</time>
      </trkpt>
      <trkpt lat="42.926365" lon="-8.193726">
        <ele>385.757</ele>
        <time>2022-08-23T08:15:26Z</time>
      </trkpt>
      <trkpt lat="42.926381" lon="-8.193800">
        <ele>385.977</ele>
        <time>2022-08-23T08:15:30Z</time>
      </trkpt>
      <trkpt lat="42.926404" lon="-8.193859">
        <ele>386.267</ele>
        <time>2022-08-23T08:15:34Z</time>
      </trkpt>
      <trkpt lat="42.926423" lon="-8.193929">
        <ele>386.531</ele>
        <time>2022-08-23T08:15:38Z</time>
      </trkpt>
      <trkpt lat="42.926443" lon="-8.193985">
        <ele>386.671</ele>
        <time>2022-08-23T08:15:41Z</time>
      </trkpt>
      <trkpt lat="42.926458" lon="-8.194063">
        <ele>386.832</ele>
        <time>2022-08-23T08:15:45Z</time>
      </trkpt>
      <trkpt lat="42.926478" lon="-8.194132">
        <ele>387.020</ele>
        <time>2022-08-23T08:15:49Z</time>
      </trkpt>
      <trkpt lat="42.926490" lon="-8.194204">
        <ele>387.233</ele>
        <time>2022-08-23T08:15:53Z</time>
      </trkpt>
      <trkpt lat="42.926505" lon="-8.194273">
        <ele>387.418</ele>
        <time>2022-08-23T08:15:57Z</time>
      </trkpt>
      <trkpt lat="42.926517" lon="-8.194334">
        <ele>387.698</ele>
        <time>2022-08-23T08:16:00Z</time>
      </trkpt>
      <trkpt lat="42.926529" lon="-8.194394">
        <ele>387.715</ele>
        <time>2022-08-23T08:16:03Z</time>
      </trkpt>
      <trkpt lat="42.926541" lon="-8.194466">
        <ele>387.826</ele>
        <time>2022-08-23T08:16:07Z</time>
      </trkpt>
      <trkpt lat="42.926554" lon="-8.194532">
        <ele>387.909</ele>
        <time>2022-08-23T08:16:11Z</time>
      </trkpt>
      <trkpt lat="42.926569" lon="-8.194603">
        <ele>388.050</ele>
        <time>2022-08-23T08:16:15Z</time>
      </trkpt>
      <trkpt lat="42.926561" lon="-8.194668">
        <ele>388.150</ele>
        <time>2022-08-23T08:16:18Z</time>
      </trkpt>
      <trkpt lat="42.926566" lon="-8.194747">
        <ele>388.240</ele>
        <time>2022-08-23T08:16:22Z</time>
      </trkpt>
      <trkpt lat="42.926570" lon="-8.194822">
        <ele>388.364</ele>
        <time>2022-08-23T08:16:26Z</time>
      </trkpt>
      <trkpt lat="42.926585" lon="-8.194882">
        <ele>388.434</ele>
        <time>2022-08-23T08:16:30Z</time>
      </trkpt>
      <trkpt lat="42.926619" lon="-8.194931">
        <ele>388.585</ele>
        <time>2022-08-23T08:16:34Z</time>
      </trkpt>
      <trkpt lat="42.926646" lon="-8.194983">
        <ele>388.683</ele>
        <time>2022-08-23T08:16:38Z</time>
      </trkpt>
      <trkpt lat="42.926667" lon="-8.195059">
        <ele>388.776</ele>
        <time>2022-08-23T08:16:43Z</time>
      </trkpt>
      <trkpt lat="42.926672" lon="-8.195135">
        <ele>388.871</ele>
        <time>2022-08-23T08:16:47Z</time>
      </trkpt>
      <trkpt lat="42.926663" lon="-8.195213">
        <ele>389.125</ele>
        <time>2022-08-23T08:16:51Z</time>
      </trkpt>
      <trkpt lat="42.926658" lon="-8.195291">
        <ele>389.326</ele>
        <time>2022-08-23T08:16:55Z</time>
      </trkpt>
      <trkpt lat="42.926649" lon="-8.195367">
        <ele>389.408</ele>
        <time>2022-08-23T08:16:59Z</time>
      </trkpt>
      <trkpt lat="42.926649" lon="-8.195445">
        <ele>389.609</ele>
        <time>2022-08-23T08:17:04Z</time>
      </trkpt>
      <trkpt lat="42.926627" lon="-8.195510">
        <ele>389.873</ele>
        <time>2022-08-23T08:17:08Z</time>
      </trkpt>
      <trkpt lat="42.926631" lon="-8.195580">
        <ele>389.913</ele>
        <time>2022-08-23T08:17:12Z</time>
      </trkpt>
      <trkpt lat="42.926621" lon="-8.195648">
        <ele>389.983</ele>
        <time>2022-08-23T08:17:16Z</time>
      </trkpt>
      <trkpt lat="42.926620" lon="-8.195717">
        <ele>389.917</ele>
        <time>2022-08-23T08:17:20Z</time>
      </trkpt>
      <trkpt lat="42.926621" lon="-8.195792">
        <ele>389.947</ele>
        <time>2022-08-23T08:17:24Z</time>
      </trkpt>
      <trkpt lat="42.926628" lon="-8.195861">
        <ele>389.998</ele>
        <time>2022-08-23T08:17:29Z</time>
      </trkpt>
      <trkpt lat="42.926641" lon="-8.195924">
        <ele>389.916</ele>
        <time>2022-08-23T08:17:33Z</time>
      </trkpt>
      <trkpt lat="42.926615" lon="-8.195987">
        <ele>389.979</ele>
        <time>2022-08-23T08:17:37Z</time>
      </trkpt>
      <trkpt lat="42.926586" lon="-8.196043">
        <ele>389.844</ele>
        <time>2022-08-23T08:17:41Z</time>
      </trkpt>
      <trkpt lat="42.926549" lon="-8.196089">
        <ele>389.751</ele>
        <time>2022-08-23T08:17:45Z</time>
      </trkpt>
      <trkpt lat="42.926516" lon="-8.196145">
        <ele>389.601</ele>
        <time>2022-08-23T08:17:50Z</time>
      </trkpt>
      <trkpt lat="42.926476" lon="-8.196203">
        <ele>389.511</ele>
        <time>2022-08-23T08:17:54Z</time>
      </trkpt>
      <trkpt lat="42.926444" lon="-8.196260">
        <ele>389.309</ele>
        <time>2022-08-23T08:17:58Z</time>
      </trkpt>
      <trkpt lat="42.926418" lon="-8.196313">
        <ele>389.196</ele>
        <time>2022-08-23T08:18:01Z</time>
      </trkpt>
      <trkpt lat="42.926380" lon="-8.196375">
        <ele>389.026</ele>
        <time>2022-08-23T08:18:05Z</time>
      </trkpt>
      <trkpt lat="42.926348" lon="-8.196418">
        <ele>388.966</ele>
        <time>2022-08-23T08:18:08Z</time>
      </trkpt>
      <trkpt lat="42.926318" lon="-8.196469">
        <ele>388.790</ele>
        <time>2022-08-23T08:18:12Z</time>
      </trkpt>
      <trkpt lat="42.926291" lon="-8.196518">
        <ele>388.410</ele>
        <time>2022-08-23T08:18:16Z</time>
      </trkpt>
      <trkpt lat="42.926267" lon="-8.196576">
        <ele>388.051</ele>
        <time>2022-08-23T08:18:20Z</time>
      </trkpt>
      <trkpt lat="42.926242" lon="-8.196642">
        <ele>387.599</ele>
        <time>2022-08-23T08:18:24Z</time>
      </trkpt>
      <trkpt lat="42.926218" lon="-8.196701">
        <ele>387.122</ele>
        <time>2022-08-23T08:18:28Z</time>
      </trkpt>
      <trkpt lat="42.926190" lon="-8.196760">
        <ele>386.887</ele>
        <time>2022-08-23T08:18:32Z</time>
      </trkpt>
      <trkpt lat="42.926173" lon="-8.196833">
        <ele>386.663</ele>
        <time>2022-08-23T08:18:36Z</time>
      </trkpt>
      <trkpt lat="42.926141" lon="-8.196890">
        <ele>386.344</ele>
        <time>2022-08-23T08:18:39Z</time>
      </trkpt>
      <trkpt lat="42.926111" lon="-8.196953">
        <ele>386.018</ele>
        <time>2022-08-23T08:18:43Z</time>
      </trkpt>
      <trkpt lat="42.926091" lon="-8.197022">
        <ele>385.809</ele>
        <time>2022-08-23T08:18:47Z</time>
      </trkpt>
      <trkpt lat="42.926085" lon="-8.197086">
        <ele>385.537</ele>
        <time>2022-08-23T08:18:50Z</time>
      </trkpt>
      <trkpt lat="42.926071" lon="-8.197147">
        <ele>385.197</ele>
        <time>2022-08-23T08:18:54Z</time>
      </trkpt>
      <trkpt lat="42.926063" lon="-8.197211">
        <ele>384.727</ele>
        <time>2022-08-23T08:18:58Z</time>
      </trkpt>
      <trkpt lat="42.926041" lon="-8.197269">
        <ele>384.291</ele>
        <time>2022-08-23T08:19:02Z</time>
      </trkpt>
      <trkpt lat="42.926012" lon="-8.197326">
        <ele>383.641</ele>
        <time>2022-08-23T08:19:05Z</time>
      </trkpt>
      <trkpt lat="42.925987" lon="-8.197385">
        <ele>383.012</ele>
        <time>2022-08-23T08:19:09Z</time>
      </trkpt>
      <trkpt lat="42.925969" lon="-8.197442">
        <ele>382.590</ele>
        <time>2022-08-23T08:19:13Z</time>
      </trkpt>
      <trkpt lat="42.925954" lon="-8.197500">
        <ele>382.073</ele>
        <time>2022-08-23T08:19:17Z</time>
      </trkpt>
      <trkpt lat="42.925930" lon="-8.197569">
        <ele>381.578</ele>
        <time>2022-08-23T08:19:21Z</time>
      </trkpt>
      <trkpt lat="42.925911" lon="-8.197631">
        <ele>381.077</ele>
        <time>2022-08-23T08:19:24Z</time>
      </trkpt>
      <trkpt lat="42.925897" lon="-8.197705">
        <ele>380.661</ele>
        <time>2022-08-23T08:19:30Z</time>
      </trkpt>
      <trkpt lat="42.925898" lon="-8.197768">
        <ele>380.327</ele>
        <time>2022-08-23T08:19:34Z</time>
      </trkpt>
      <trkpt lat="42.925912" lon="-8.197839">
        <ele>379.709</ele>
        <time>2022-08-23T08:19:38Z</time>
      </trkpt>
      <trkpt lat="42.925938" lon="-8.197898">
        <ele>378.998</ele>
        <time>2022-08-23T08:19:42Z</time>
      </trkpt>
      <trkpt lat="42.925967" lon="-8.197953">
        <ele>378.338</ele>
        <time>2022-08-23T08:19:46Z</time>
      </trkpt>
      <trkpt lat="42.925997" lon="-8.197999">
        <ele>377.678</ele>
        <time>2022-08-23T08:19:49Z</time>
      </trkpt>
      <trkpt lat="42.926027" lon="-8.198050">
        <ele>376.942</ele>
        <time>2022-08-23T08:19:53Z</time>
      </trkpt>
      <trkpt lat="42.926063" lon="-8.198106">
        <ele>376.312</ele>
        <time>2022-08-23T08:19:57Z</time>
      </trkpt>
      <trkpt lat="42.926105" lon="-8.198147">
        <ele>375.813</ele>
        <time>2022-08-23T08:20:01Z</time>
      </trkpt>
      <trkpt lat="42.926144" lon="-8.198196">
        <ele>375.311</ele>
        <time>2022-08-23T08:20:05Z</time>
      </trkpt>
      <trkpt lat="42.926180" lon="-8.198241">
        <ele>374.864</ele>
        <time>2022-08-23T08:20:09Z</time>
      </trkpt>
      <trkpt lat="42.926212" lon="-8.198293">
        <ele>374.359</ele>
        <time>2022-08-23T08:20:12Z</time>
      </trkpt>
      <trkpt lat="42.926250" lon="-8.198349">
        <ele>373.834</ele>
        <time>2022-08-23T08:20:16Z</time>
      </trkpt>
      <trkpt lat="42.926292" lon="-8.198390">
        <ele>373.455</ele>
        <time>2022-08-23T08:20:20Z</time>
      </trkpt>
      <trkpt lat="42.926333" lon="-8.198431">
        <ele>372.810</ele>
        <time>2022-08-23T08:20:24Z</time>
      </trkpt>
      <trkpt lat="42.926359" lon="-8.198488">
        <ele>372.109</ele>
        <time>2022-08-23T08:20:28Z</time>
      </trkpt>
      <trkpt lat="42.926387" lon="-8.198543">
        <ele>371.434</ele>
        <time>2022-08-23T08:20:32Z</time>
      </trkpt>
      <trkpt lat="42.926419" lon="-8.198606">
        <ele>370.694</ele>
        <time>2022-08-23T08:20:37Z</time>
      </trkpt>
      <trkpt lat="42.926459" lon="-8.198662">
        <ele>369.814</ele>
        <time>2022-08-23T08:20:42Z</time>
      </trkpt>
      <trkpt lat="42.926494" lon="-8.198702">
        <ele>369.048</ele>
        <time>2022-08-23T08:20:47Z</time>
      </trkpt>
      <trkpt lat="42.926544" lon="-8.198747">
        <ele>368.148</ele>
        <time>2022-08-23T08:20:52Z</time>
      </trkpt>
      <trkpt lat="42.926585" lon="-8.198781">
        <ele>367.169</ele>
        <time>2022-08-23T08:20:55Z</time>
      </trkpt>
      <trkpt lat="42.926622" lon="-8.198823">
        <ele>366.147</ele>
        <time>2022-08-23T08:20:59Z</time>
      </trkpt>
      <trkpt lat="42.926659" lon="-8.198871">
        <ele>365.580</ele>
        <time>2022-08-23T08:21:04Z</time>
      </trkpt>
      <trkpt lat="42.926698" lon="-8.198920">
        <ele>365.125</ele>
        <time>2022-08-23T08:21:09Z</time>
      </trkpt>
      <trkpt lat="42.926735" lon="-8.198959">
        <ele>364.638</ele>
        <time>2022-08-23T08:21:13Z</time>
      </trkpt>
      <trkpt lat="42.926779" lon="-8.199002">
        <ele>364.070</ele>
        <time>2022-08-23T08:21:17Z</time>
      </trkpt>
      <trkpt lat="42.926812" lon="-8.199049">
        <ele>363.417</ele>
        <time>2022-08-23T08:21:21Z</time>
      </trkpt>
      <trkpt lat="42.926855" lon="-8.199082">
        <ele>362.809</ele>
        <time>2022-08-23T08:21:26Z</time>
      </trkpt>
      <trkpt lat="42.926891" lon="-8.199134">
        <ele>362.374</ele>
        <time>2022-08-23T08:21:30Z</time>
      </trkpt>
      <trkpt lat="42.926926" lon="-8.199189">
        <ele>361.944</ele>
        <time>2022-08-23T08:21:34Z</time>
      </trkpt>
      <trkpt lat="42.926961" lon="-8.199245">
        <ele>361.684</ele>
        <time>2022-08-23T08:21:38Z</time>
      </trkpt>
      <trkpt lat="42.927002" lon="-8.199298">
        <ele>361.358</ele>
        <time>2022-08-23T08:21:41Z</time>
      </trkpt>
      <trkpt lat="42.927037" lon="-8.199342">
        <ele>360.898</ele>
        <time>2022-08-23T08:21:45Z</time>
      </trkpt>
      <trkpt lat="42.927067" lon="-8.199389">
        <ele>360.369</ele>
        <time>2022-08-23T08:21:48Z</time>
      </trkpt>
      <trkpt lat="42.927108" lon="-8.199446">
        <ele>359.877</ele>
        <time>2022-08-23T08:21:52Z</time>
      </trkpt>
      <trkpt lat="42.927143" lon="-8.199502">
        <ele>359.360</ele>
        <time>2022-08-23T08:21:56Z</time>
      </trkpt>
      <trkpt lat="42.927176" lon="-8.199569">
        <ele>358.865</ele>
        <time>2022-08-23T08:22:00Z</time>
      </trkpt>
      <trkpt lat="42.927198" lon="-8.199634">
        <ele>358.126</ele>
        <time>2022-08-23T08:22:04Z</time>
      </trkpt>
      <trkpt lat="42.927221" lon="-8.199697">
        <ele>357.847</ele>
        <time>2022-08-23T08:22:09Z</time>
      </trkpt>
      <trkpt lat="42.927247" lon="-8.199762">
        <ele>357.511</ele>
        <time>2022-08-23T08:22:13Z</time>
      </trkpt>
      <trkpt lat="42.927270" lon="-8.199828">
        <ele>357.209</ele>
        <time>2022-08-23T08:22:17Z</time>
      </trkpt>
      <trkpt lat="42.927303" lon="-8.199896">
        <ele>357.033</ele>
        <time>2022-08-23T08:22:21Z</time>
      </trkpt>
      <trkpt lat="42.927325" lon="-8.199960">
        <ele>356.733</ele>
        <time>2022-08-23T08:22:24Z</time>
      </trkpt>
      <trkpt lat="42.927356" lon="-8.200032">
        <ele>356.433</ele>
        <time>2022-08-23T08:22:28Z</time>
      </trkpt>
      <trkpt lat="42.927375" lon="-8.200091">
        <ele>356.237</ele>
        <time>2022-08-23T08:22:31Z</time>
      </trkpt>
      <trkpt lat="42.927396" lon="-8.200154">
        <ele>356.057</ele>
        <time>2022-08-23T08:22:35Z</time>
      </trkpt>
      <trkpt lat="42.927420" lon="-8.200207">
        <ele>355.948</ele>
        <time>2022-08-23T08:22:38Z</time>
      </trkpt>
      <trkpt lat="42.927441" lon="-8.200275">
        <ele>355.876</ele>
        <time>2022-08-23T08:22:41Z</time>
      </trkpt>
      <trkpt lat="42.927464" lon="-8.200332">
        <ele>355.799</ele>
        <time>2022-08-23T08:22:44Z</time>
      </trkpt>
      <trkpt lat="42.927481" lon="-8.200392">
        <ele>355.644</ele>
        <time>2022-08-23T08:22:48Z</time>
      </trkpt>
      <trkpt lat="42.927505" lon="-8.200449">
        <ele>355.571</ele>
        <time>2022-08-23T08:22:51Z</time>
      </trkpt>
      <trkpt lat="42.927527" lon="-8.200507">
        <ele>355.441</ele>
        <time>2022-08-23T08:22:54Z</time>
      </trkpt>
      <trkpt lat="42.927557" lon="-8.200575">
        <ele>355.315</ele>
        <time>2022-08-23T08:22:58Z</time>
      </trkpt>
      <trkpt lat="42.927579" lon="-8.200629">
        <ele>355.209</ele>
        <time>2022-08-23T08:23:01Z</time>
      </trkpt>
      <trkpt lat="42.927614" lon="-8.200687">
        <ele>355.168</ele>
        <time>2022-08-23T08:23:05Z</time>
      </trkpt>
      <trkpt lat="42.927644" lon="-8.200744">
        <ele>355.058</ele>
        <time>2022-08-23T08:23:09Z</time>
      </trkpt>
      <trkpt lat="42.927678" lon="-8.200807">
        <ele>354.958</ele>
        <time>2022-08-23T08:23:13Z</time>
      </trkpt>
      <trkpt lat="42.927694" lon="-8.200874">
        <ele>354.942</ele>
        <time>2022-08-23T08:23:17Z</time>
      </trkpt>
      <trkpt lat="42.927683" lon="-8.200936">
        <ele>354.882</ele>
        <time>2022-08-23T08:23:21Z</time>
      </trkpt>
      <trkpt lat="42.927687" lon="-8.201016">
        <ele>354.853</ele>
        <time>2022-08-23T08:23:25Z</time>
      </trkpt>
      <trkpt lat="42.927686" lon="-8.201083">
        <ele>354.871</ele>
        <time>2022-08-23T08:23:29Z</time>
      </trkpt>
      <trkpt lat="42.927674" lon="-8.201155">
        <ele>354.984</ele>
        <time>2022-08-23T08:23:34Z</time>
      </trkpt>
      <trkpt lat="42.927661" lon="-8.201216">
        <ele>355.389</ele>
        <time>2022-08-23T08:23:38Z</time>
      </trkpt>
      <trkpt lat="42.927666" lon="-8.201284">
        <ele>356.086</ele>
        <time>2022-08-23T08:23:42Z</time>
      </trkpt>
      <trkpt lat="42.927665" lon="-8.201359">
        <ele>356.760</ele>
        <time>2022-08-23T08:23:47Z</time>
      </trkpt>
      <trkpt lat="42.927680" lon="-8.201424">
        <ele>357.226</ele>
        <time>2022-08-23T08:23:51Z</time>
      </trkpt>
      <trkpt lat="42.927694" lon="-8.201483">
        <ele>357.709</ele>
        <time>2022-08-23T08:23:56Z</time>
      </trkpt>
      <trkpt lat="42.927711" lon="-8.201561">
        <ele>358.279</ele>
        <time>2022-08-23T08:24:01Z</time>
      </trkpt>
      <trkpt lat="42.927734" lon="-8.201627">
        <ele>358.789</ele>
        <time>2022-08-23T08:24:04Z</time>
      </trkpt>
      <trkpt lat="42.927754" lon="-8.201686">
        <ele>359.549</ele>
        <time>2022-08-23T08:24:08Z</time>
      </trkpt>
      <trkpt lat="42.927768" lon="-8.201765">
        <ele>360.263</ele>
        <time>2022-08-23T08:24:13Z</time>
      </trkpt>
      <trkpt lat="42.927788" lon="-8.201833">
        <ele>361.133</ele>
        <time>2022-08-23T08:24:17Z</time>
      </trkpt>
      <trkpt lat="42.927795" lon="-8.201893">
        <ele>361.564</ele>
        <time>2022-08-23T08:24:21Z</time>
      </trkpt>
      <trkpt lat="42.927810" lon="-8.201967">
        <ele>362.372</ele>
        <time>2022-08-23T08:24:26Z</time>
      </trkpt>
      <trkpt lat="42.927824" lon="-8.202029">
        <ele>363.185</ele>
        <time>2022-08-23T08:24:29Z</time>
      </trkpt>
      <trkpt lat="42.927829" lon="-8.202105">
        <ele>364.060</ele>
        <time>2022-08-23T08:24:33Z</time>
      </trkpt>
      <trkpt lat="42.927830" lon="-8.202183">
        <ele>364.756</ele>
        <time>2022-08-23T08:24:38Z</time>
      </trkpt>
      <trkpt lat="42.927825" lon="-8.202246">
        <ele>365.359</ele>
        <time>2022-08-23T08:24:41Z</time>
      </trkpt>
      <trkpt lat="42.927823" lon="-8.202329">
        <ele>366.014</ele>
        <time>2022-08-23T08:24:46Z</time>
      </trkpt>
      <trkpt lat="42.927818" lon="-8.202403">
        <ele>366.809</ele>
        <time>2022-08-23T08:24:50Z</time>
      </trkpt>
      <trkpt lat="42.927794" lon="-8.202464">
        <ele>367.596</ele>
        <time>2022-08-23T08:24:54Z</time>
      </trkpt>
      <trkpt lat="42.927776" lon="-8.202537">
        <ele>368.156</ele>
        <time>2022-08-23T08:24:58Z</time>
      </trkpt>
      <trkpt lat="42.927759" lon="-8.202596">
        <ele>368.496</ele>
        <time>2022-08-23T08:25:02Z</time>
      </trkpt>
      <trkpt lat="42.927751" lon="-8.202675">
        <ele>369.170</ele>
        <time>2022-08-23T08:25:07Z</time>
      </trkpt>
      <trkpt lat="42.927743" lon="-8.202753">
        <ele>370.260</ele>
        <time>2022-08-23T08:25:11Z</time>
      </trkpt>
      <trkpt lat="42.927732" lon="-8.202827">
        <ele>370.921</ele>
        <time>2022-08-23T08:25:15Z</time>
      </trkpt>
      <trkpt lat="42.927718" lon="-8.202892">
        <ele>371.239</ele>
        <time>2022-08-23T08:25:18Z</time>
      </trkpt>
      <trkpt lat="42.927715" lon="-8.202960">
        <ele>372.082</ele>
        <time>2022-08-23T08:25:21Z</time>
      </trkpt>
      <trkpt lat="42.927700" lon="-8.203025">
        <ele>372.247</ele>
        <time>2022-08-23T08:25:25Z</time>
      </trkpt>
      <trkpt lat="42.927693" lon="-8.203093">
        <ele>372.672</ele>
        <time>2022-08-23T08:25:29Z</time>
      </trkpt>
      <trkpt lat="42.927681" lon="-8.203163">
        <ele>373.113</ele>
        <time>2022-08-23T08:25:33Z</time>
      </trkpt>
      <trkpt lat="42.927658" lon="-8.203224">
        <ele>373.714</ele>
        <time>2022-08-23T08:25:37Z</time>
      </trkpt>
      <trkpt lat="42.927639" lon="-8.203284">
        <ele>374.209</ele>
        <time>2022-08-23T08:25:40Z</time>
      </trkpt>
      <trkpt lat="42.927630" lon="-8.203352">
        <ele>374.778</ele>
        <time>2022-08-23T08:25:44Z</time>
      </trkpt>
      <trkpt lat="42.927615" lon="-8.203425">
        <ele>375.158</ele>
        <time>2022-08-23T08:25:48Z</time>
      </trkpt>
      <trkpt lat="42.927611" lon="-8.203491">
        <ele>375.538</ele>
        <time>2022-08-23T08:25:52Z</time>
      </trkpt>
      <trkpt lat="42.927598" lon="-8.203554">
        <ele>375.982</ele>
        <time>2022-08-23T08:25:56Z</time>
      </trkpt>
      <trkpt lat="42.927582" lon="-8.203619">
        <ele>376.282</ele>
        <time>2022-08-23T08:26:00Z</time>
      </trkpt>
      <trkpt lat="42.927568" lon="-8.203692">
        <ele>376.523</ele>
        <time>2022-08-23T08:26:05Z</time>
      </trkpt>
      <trkpt lat="42.927556" lon="-8.203752">
        <ele>376.841</ele>
        <time>2022-08-23T08:26:09Z</time>
      </trkpt>
      <trkpt lat="42.927549" lon="-8.203815">
        <ele>377.244</ele>
        <time>2022-08-23T08:26:13Z</time>
      </trkpt>
      <trkpt lat="42.927529" lon="-8.203888">
        <ele>377.669</ele>
        <time>2022-08-23T08:26:17Z</time>
      </trkpt>
      <trkpt lat="42.927518" lon="-8.203960">
        <ele>378.094</ele>
        <time>2022-08-23T08:26:21Z</time>
      </trkpt>
      <trkpt lat="42.927502" lon="-8.204040">
        <ele>378.457</ele>
        <time>2022-08-23T08:26:25Z</time>
      </trkpt>
      <trkpt lat="42.927493" lon="-8.204106">
        <ele>378.922</ele>
        <time>2022-08-23T08:26:29Z</time>
      </trkpt>
      <trkpt lat="42.927490" lon="-8.204169">
        <ele>379.409</ele>
        <time>2022-08-23T08:26:33Z</time>
      </trkpt>
      <trkpt lat="42.927485" lon="-8.204241">
        <ele>379.840</ele>
        <time>2022-08-23T08:26:37Z</time>
      </trkpt>
      <trkpt lat="42.927465" lon="-8.204306">
        <ele>380.140</ele>
        <time>2022-08-23T08:26:42Z</time>
      </trkpt>
      <trkpt lat="42.927457" lon="-8.204371">
        <ele>380.540</ele>
        <time>2022-08-23T08:26:46Z</time>
      </trkpt>
      <trkpt lat="42.927449" lon="-8.204443">
        <ele>381.084</ele>
        <time>2022-08-23T08:26:52Z</time>
      </trkpt>
      <trkpt lat="42.927436" lon="-8.204518">
        <ele>381.624</ele>
        <time>2022-08-23T08:26:56Z</time>
      </trkpt>
      <trkpt lat="42.927436" lon="-8.204584">
        <ele>382.325</ele>
        <time>2022-08-23T08:26:59Z</time>
      </trkpt>
      <trkpt lat="42.927436" lon="-8.204654">
        <ele>382.923</ele>
        <time>2022-08-23T08:27:02Z</time>
      </trkpt>
      <trkpt lat="42.927437" lon="-8.204728">
        <ele>383.346</ele>
        <time>2022-08-23T08:27:06Z</time>
      </trkpt>
      <trkpt lat="42.927436" lon="-8.204796">
        <ele>383.691</ele>
        <time>2022-08-23T08:27:10Z</time>
      </trkpt>
      <trkpt lat="42.927435" lon="-8.204872">
        <ele>384.034</ele>
        <time>2022-08-23T08:27:14Z</time>
      </trkpt>
      <trkpt lat="42.927434" lon="-8.204939">
        <ele>384.455</ele>
        <time>2022-08-23T08:27:17Z</time>
      </trkpt>
      <trkpt lat="42.927439" lon="-8.205010">
        <ele>384.910</ele>
        <time>2022-08-23T08:27:20Z</time>
      </trkpt>
      <trkpt lat="42.927444" lon="-8.205076">
        <ele>385.309</ele>
        <time>2022-08-23T08:27:24Z</time>
      </trkpt>
      <trkpt lat="42.927450" lon="-8.205143">
        <ele>385.734</ele>
        <time>2022-08-23T08:27:28Z</time>
      </trkpt>
      <trkpt lat="42.927460" lon="-8.205209">
        <ele>386.154</ele>
        <time>2022-08-23T08:27:32Z</time>
      </trkpt>
      <trkpt lat="42.927464" lon="-8.205279">
        <ele>386.524</ele>
        <time>2022-08-23T08:27:36Z</time>
      </trkpt>
      <trkpt lat="42.927456" lon="-8.205345">
        <ele>386.978</ele>
        <time>2022-08-23T08:27:40Z</time>
      </trkpt>
      <trkpt lat="42.927445" lon="-8.205426">
        <ele>387.218</ele>
        <time>2022-08-23T08:27:44Z</time>
      </trkpt>
      <trkpt lat="42.927436" lon="-8.205495">
        <ele>387.569</ele>
        <time>2022-08-23T08:27:48Z</time>
      </trkpt>
      <trkpt lat="42.927432" lon="-8.205564">
        <ele>387.827</ele>
        <time>2022-08-23T08:27:52Z</time>
      </trkpt>
      <trkpt lat="42.927421" lon="-8.205625">
        <ele>388.280</ele>
        <time>2022-08-23T08:27:56Z</time>
      </trkpt>
      <trkpt lat="42.927418" lon="-8.205698">
        <ele>388.525</ele>
        <time>2022-08-23T08:28:00Z</time>
      </trkpt>
      <trkpt lat="42.927430" lon="-8.205763">
        <ele>388.833</ele>
        <time>2022-08-23T08:28:05Z</time>
      </trkpt>
      <trkpt lat="42.927444" lon="-8.205834">
        <ele>389.123</ele>
        <time>2022-08-23T08:28:09Z</time>
      </trkpt>
      <trkpt lat="42.927455" lon="-8.205899">
        <ele>389.515</ele>
        <time>2022-08-23T08:28:12Z</time>
      </trkpt>
      <trkpt lat="42.927461" lon="-8.205968">
        <ele>389.809</ele>
        <time>2022-08-23T08:28:16Z</time>
      </trkpt>
      <trkpt lat="42.927464" lon="-8.206031">
        <ele>390.054</ele>
        <time>2022-08-23T08:28:19Z</time>
      </trkpt>
      <trkpt lat="42.927471" lon="-8.206099">
        <ele>390.254</ele>
        <time>2022-08-23T08:28:24Z</time>
      </trkpt>
      <trkpt lat="42.927481" lon="-8.206177">
        <ele>390.414</ele>
        <time>2022-08-23T08:28:28Z</time>
      </trkpt>
      <trkpt lat="42.927490" lon="-8.206249">
        <ele>390.718</ele>
        <time>2022-08-23T08:28:32Z</time>
      </trkpt>
      <trkpt lat="42.927490" lon="-8.206320">
        <ele>391.038</ele>
        <time>2022-08-23T08:28:36Z</time>
      </trkpt>
      <trkpt lat="42.927492" lon="-8.206385">
        <ele>391.319</ele>
        <time>2022-08-23T08:28:40Z</time>
      </trkpt>
      <trkpt lat="42.927495" lon="-8.206446">
        <ele>391.747</ele>
        <time>2022-08-23T08:28:43Z</time>
      </trkpt>
      <trkpt lat="42.927503" lon="-8.206510">
        <ele>392.070</ele>
        <time>2022-08-23T08:28:46Z</time>
      </trkpt>
      <trkpt lat="42.927509" lon="-8.206591">
        <ele>392.395</ele>
        <time>2022-08-23T08:28:50Z</time>
      </trkpt>
      <trkpt lat="42.927515" lon="-8.206669">
        <ele>392.566</ele>
        <time>2022-08-23T08:28:55Z</time>
      </trkpt>
      <trkpt lat="42.927523" lon="-8.206751">
        <ele>392.929</ele>
        <time>2022-08-23T08:28:59Z</time>
      </trkpt>
      <trkpt lat="42.927531" lon="-8.206832">
        <ele>393.121</ele>
        <time>2022-08-23T08:29:03Z</time>
      </trkpt>
      <trkpt lat="42.927540" lon="-8.206912">
        <ele>393.209</ele>
        <time>2022-08-23T08:29:07Z</time>
      </trkpt>
      <trkpt lat="42.927551" lon="-8.206991">
        <ele>393.337</ele>
        <time>2022-08-23T08:29:11Z</time>
      </trkpt>
      <trkpt lat="42.927566" lon="-8.207081">
        <ele>393.427</ele>
        <time>2022-08-23T08:29:14Z</time>
      </trkpt>
      <trkpt lat="42.927571" lon="-8.207153">
        <ele>393.457</ele>
        <time>2022-08-23T08:29:17Z</time>
      </trkpt>
      <trkpt lat="42.927582" lon="-8.207228">
        <ele>393.491</ele>
        <time>2022-08-23T08:29:21Z</time>
      </trkpt>
      <trkpt lat="42.927588" lon="-8.207289">
        <ele>393.531</ele>
        <time>2022-08-23T08:29:24Z</time>
      </trkpt>
      <trkpt lat="42.927598" lon="-8.207357">
        <ele>393.792</ele>
        <time>2022-08-23T08:29:27Z</time>
      </trkpt>
      <trkpt lat="42.927602" lon="-8.207419">
        <ele>393.810</ele>
        <time>2022-08-23T08:29:30Z</time>
      </trkpt>
      <trkpt lat="42.927608" lon="-8.207484">
        <ele>393.993</ele>
        <time>2022-08-23T08:29:33Z</time>
      </trkpt>
      <trkpt lat="42.927609" lon="-8.207560">
        <ele>394.138</ele>
        <time>2022-08-23T08:29:37Z</time>
      </trkpt>
      <trkpt lat="42.927605" lon="-8.207631">
        <ele>394.379</ele>
        <time>2022-08-23T08:29:40Z</time>
      </trkpt>
      <trkpt lat="42.927601" lon="-8.207708">
        <ele>394.605</ele>
        <time>2022-08-23T08:29:44Z</time>
      </trkpt>
      <trkpt lat="42.927587" lon="-8.207770">
        <ele>395.025</ele>
        <time>2022-08-23T08:29:48Z</time>
      </trkpt>
      <trkpt lat="42.927595" lon="-8.207840">
        <ele>395.509</ele>
        <time>2022-08-23T08:29:52Z</time>
      </trkpt>
      <trkpt lat="42.927611" lon="-8.207905">
        <ele>396.078</ele>
        <time>2022-08-23T08:29:58Z</time>
      </trkpt>
      <trkpt lat="42.927627" lon="-8.207962">
        <ele>396.278</ele>
        <time>2022-08-23T08:30:02Z</time>
      </trkpt>
      <trkpt lat="42.927645" lon="-8.208021">
        <ele>396.328</ele>
        <time>2022-08-23T08:30:05Z</time>
      </trkpt>
      <trkpt lat="42.927673" lon="-8.208081">
        <ele>396.572</ele>
        <time>2022-08-23T08:30:09Z</time>
      </trkpt>
      <trkpt lat="42.927690" lon="-8.208149">
        <ele>396.732</ele>
        <time>2022-08-23T08:30:13Z</time>
      </trkpt>
      <trkpt lat="42.927718" lon="-8.208205">
        <ele>396.943</ele>
        <time>2022-08-23T08:30:17Z</time>
      </trkpt>
      <trkpt lat="42.927746" lon="-8.208277">
        <ele>397.241</ele>
        <time>2022-08-23T08:30:22Z</time>
      </trkpt>
      <trkpt lat="42.927777" lon="-8.208347">
        <ele>397.554</ele>
        <time>2022-08-23T08:30:27Z</time>
      </trkpt>
      <trkpt lat="42.927799" lon="-8.208411">
        <ele>397.859</ele>
        <time>2022-08-23T08:30:31Z</time>
      </trkpt>
      <trkpt lat="42.927828" lon="-8.208466">
        <ele>398.048</ele>
        <time>2022-08-23T08:30:34Z</time>
      </trkpt>
      <trkpt lat="42.927855" lon="-8.208522">
        <ele>398.261</ele>
        <time>2022-08-23T08:30:37Z</time>
      </trkpt>
      <trkpt lat="42.927889" lon="-8.208583">
        <ele>398.317</ele>
        <time>2022-08-23T08:30:42Z</time>
      </trkpt>
      <trkpt lat="42.927921" lon="-8.208654">
        <ele>398.509</ele>
        <time>2022-08-23T08:30:46Z</time>
      </trkpt>
      <trkpt lat="42.927947" lon="-8.208708">
        <ele>398.815</ele>
        <time>2022-08-23T08:30:50Z</time>
      </trkpt>
      <trkpt lat="42.927980" lon="-8.208779">
        <ele>399.285</ele>
        <time>2022-08-23T08:30:54Z</time>
      </trkpt>
      <trkpt lat="42.928008" lon="-8.208831">
        <ele>399.415</ele>
        <time>2022-08-23T08:30:57Z</time>
      </trkpt>
      <trkpt lat="42.928035" lon="-8.208887">
        <ele>399.589</ele>
        <time>2022-08-23T08:31:00Z</time>
      </trkpt>
      <trkpt lat="42.928064" lon="-8.208947">
        <ele>399.759</ele>
        <time>2022-08-23T08:31:04Z</time>
      </trkpt>
      <trkpt lat="42.928088" lon="-8.208999">
        <ele>399.970</ele>
        <time>2022-08-23T08:31:08Z</time>
      </trkpt>
      <trkpt lat="42.928119" lon="-8.209073">
        <ele>400.248</ele>
        <time>2022-08-23T08:31:12Z</time>
      </trkpt>
      <trkpt lat="42.928146" lon="-8.209132">
        <ele>400.581</ele>
        <time>2022-08-23T08:31:16Z</time>
      </trkpt>
      <trkpt lat="42.928176" lon="-8.209193">
        <ele>400.896</ele>
        <time>2022-08-23T08:31:20Z</time>
      </trkpt>
      <trkpt lat="42.928197" lon="-8.209247">
        <ele>401.112</ele>
        <time>2022-08-23T08:31:23Z</time>
      </trkpt>
      <trkpt lat="42.928225" lon="-8.209301">
        <ele>401.532</ele>
        <time>2022-08-23T08:31:27Z</time>
      </trkpt>
      <trkpt lat="42.928248" lon="-8.209365">
        <ele>401.805</ele>
        <time>2022-08-23T08:31:31Z</time>
      </trkpt>
      <trkpt lat="42.928273" lon="-8.209431">
        <ele>402.109</ele>
        <time>2022-08-23T08:31:35Z</time>
      </trkpt>
      <trkpt lat="42.928286" lon="-8.209492">
        <ele>402.592</ele>
        <time>2022-08-23T08:31:38Z</time>
      </trkpt>
      <trkpt lat="42.928302" lon="-8.209553">
        <ele>402.812</ele>
        <time>2022-08-23T08:31:43Z</time>
      </trkpt>
      <trkpt lat="42.928324" lon="-8.209619">
        <ele>403.042</ele>
        <time>2022-08-23T08:31:48Z</time>
      </trkpt>
      <trkpt lat="42.928347" lon="-8.209681">
        <ele>403.246</ele>
        <time>2022-08-23T08:31:51Z</time>
      </trkpt>
      <trkpt lat="42.928371" lon="-8.209742">
        <ele>403.456</ele>
        <time>2022-08-23T08:31:55Z</time>
      </trkpt>
      <trkpt lat="42.928396" lon="-8.209805">
        <ele>403.517</ele>
        <time>2022-08-23T08:31:58Z</time>
      </trkpt>
      <trkpt lat="42.928415" lon="-8.209874">
        <ele>403.615</ele>
        <time>2022-08-23T08:32:02Z</time>
      </trkpt>
      <trkpt lat="42.928432" lon="-8.209939">
        <ele>403.748</ele>
        <time>2022-08-23T08:32:06Z</time>
      </trkpt>
      <trkpt lat="42.928456" lon="-8.210010">
        <ele>403.813</ele>
        <time>2022-08-23T08:32:09Z</time>
      </trkpt>
      <trkpt lat="42.928479" lon="-8.210066">
        <ele>404.035</ele>
        <time>2022-08-23T08:32:12Z</time>
      </trkpt>
      <trkpt lat="42.928505" lon="-8.210138">
        <ele>404.186</ele>
        <time>2022-08-23T08:32:16Z</time>
      </trkpt>
      <trkpt lat="42.928525" lon="-8.210206">
        <ele>404.114</ele>
        <time>2022-08-23T08:32:20Z</time>
      </trkpt>
      <trkpt lat="42.928537" lon="-8.210273">
        <ele>404.109</ele>
        <time>2022-08-23T08:32:24Z</time>
      </trkpt>
      <trkpt lat="42.928547" lon="-8.210349">
        <ele>404.184</ele>
        <time>2022-08-23T08:32:28Z</time>
      </trkpt>
      <trkpt lat="42.928560" lon="-8.210413">
        <ele>404.174</ele>
        <time>2022-08-23T08:32:32Z</time>
      </trkpt>
      <trkpt lat="42.928576" lon="-8.210470">
        <ele>404.144</ele>
        <time>2022-08-23T08:32:35Z</time>
      </trkpt>
      <trkpt lat="42.928598" lon="-8.210539">
        <ele>404.048</ele>
        <time>2022-08-23T08:32:39Z</time>
      </trkpt>
      <trkpt lat="42.928613" lon="-8.210609">
        <ele>403.938</ele>
        <time>2022-08-23T08:32:43Z</time>
      </trkpt>
      <trkpt lat="42.928623" lon="-8.210686">
        <ele>403.829</ele>
        <time>2022-08-23T08:32:47Z</time>
      </trkpt>
      <trkpt lat="42.928627" lon="-8.210762">
        <ele>403.697</ele>
        <time>2022-08-23T08:32:51Z</time>
      </trkpt>
      <trkpt lat="42.928637" lon="-8.210824">
        <ele>403.410</ele>
        <time>2022-08-23T08:32:54Z</time>
      </trkpt>
      <trkpt lat="42.928641" lon="-8.210888">
        <ele>403.165</ele>
        <time>2022-08-23T08:32:58Z</time>
      </trkpt>
      <trkpt lat="42.928651" lon="-8.210961">
        <ele>402.866</ele>
        <time>2022-08-23T08:33:02Z</time>
      </trkpt>
      <trkpt lat="42.928655" lon="-8.211034">
        <ele>402.529</ele>
        <time>2022-08-23T08:33:06Z</time>
      </trkpt>
      <trkpt lat="42.928655" lon="-8.211112">
        <ele>402.221</ele>
        <time>2022-08-23T08:33:10Z</time>
      </trkpt>
      <trkpt lat="42.928661" lon="-8.211182">
        <ele>401.909</ele>
        <time>2022-08-23T08:33:14Z</time>
      </trkpt>
      <trkpt lat="42.928667" lon="-8.211246">
        <ele>401.747</ele>
        <time>2022-08-23T08:33:18Z</time>
      </trkpt>
      <trkpt lat="42.928674" lon="-8.211307">
        <ele>401.557</ele>
        <time>2022-08-23T08:33:21Z</time>
      </trkpt>
      <trkpt lat="42.928680" lon="-8.211373">
        <ele>401.337</ele>
        <time>2022-08-23T08:33:24Z</time>
      </trkpt>
      <trkpt lat="42.928686" lon="-8.211438">
        <ele>401.121</ele>
        <time>2022-08-23T08:33:28Z</time>
      </trkpt>
      <trkpt lat="42.928684" lon="-8.211503">
        <ele>401.051</ele>
        <time>2022-08-23T08:33:32Z</time>
      </trkpt>
      <trkpt lat="42.928687" lon="-8.211571">
        <ele>400.932</ele>
        <time>2022-08-23T08:33:36Z</time>
      </trkpt>
      <trkpt lat="42.928683" lon="-8.211641">
        <ele>400.820</ele>
        <time>2022-08-23T08:33:40Z</time>
      </trkpt>
      <trkpt lat="42.928686" lon="-8.211716">
        <ele>400.783</ele>
        <time>2022-08-23T08:33:44Z</time>
      </trkpt>
      <trkpt lat="42.928692" lon="-8.211779">
        <ele>400.668</ele>
        <time>2022-08-23T08:33:47Z</time>
      </trkpt>
      <trkpt lat="42.928699" lon="-8.211857">
        <ele>400.513</ele>
        <time>2022-08-23T08:33:51Z</time>
      </trkpt>
      <trkpt lat="42.928712" lon="-8.211935">
        <ele>400.443</ele>
        <time>2022-08-23T08:33:56Z</time>
      </trkpt>
      <trkpt lat="42.928721" lon="-8.212010">
        <ele>400.407</ele>
        <time>2022-08-23T08:34:00Z</time>
      </trkpt>
      <trkpt lat="42.928730" lon="-8.212085">
        <ele>400.409</ele>
        <time>2022-08-23T08:34:04Z</time>
      </trkpt>
      <trkpt lat="42.928730" lon="-8.212152">
        <ele>400.342</ele>
        <time>2022-08-23T08:34:08Z</time>
      </trkpt>
      <trkpt lat="42.928734" lon="-8.212229">
        <ele>400.222</ele>
        <time>2022-08-23T08:34:13Z</time>
      </trkpt>
      <trkpt lat="42.928738" lon="-8.212299">
        <ele>400.252</ele>
        <time>2022-08-23T08:34:17Z</time>
      </trkpt>
      <trkpt lat="42.928749" lon="-8.212360">
        <ele>400.216</ele>
        <time>2022-08-23T08:34:21Z</time>
      </trkpt>
      <trkpt lat="42.928754" lon="-8.212432">
        <ele>400.236</ele>
        <time>2022-08-23T08:34:25Z</time>
      </trkpt>
      <trkpt lat="42.928754" lon="-8.212514">
        <ele>400.217</ele>
        <time>2022-08-23T08:34:29Z</time>
      </trkpt>
      <trkpt lat="42.928768" lon="-8.212588">
        <ele>400.215</ele>
        <time>2022-08-23T08:34:33Z</time>
      </trkpt>
      <trkpt lat="42.928767" lon="-8.212660">
        <ele>400.228</ele>
        <time>2022-08-23T08:34:37Z</time>
      </trkpt>
      <trkpt lat="42.928765" lon="-8.212725">
        <ele>400.273</ele>
        <time>2022-08-23T08:34:41Z</time>
      </trkpt>
      <trkpt lat="42.928767" lon="-8.212789">
        <ele>400.253</ele>
        <time>2022-08-23T08:34:44Z</time>
      </trkpt>
      <trkpt lat="42.928769" lon="-8.212863">
        <ele>400.204</ele>
        <time>2022-08-23T08:34:48Z</time>
      </trkpt>
      <trkpt lat="42.928769" lon="-8.212933">
        <ele>400.214</ele>
        <time>2022-08-23T08:34:51Z</time>
      </trkpt>
      <trkpt lat="42.928768" lon="-8.213002">
        <ele>400.209</ele>
        <time>2022-08-23T08:34:56Z</time>
      </trkpt>
      <trkpt lat="42.928773" lon="-8.213084">
        <ele>400.276</ele>
        <time>2022-08-23T08:35:00Z</time>
      </trkpt>
      <trkpt lat="42.928774" lon="-8.213156">
        <ele>400.316</ele>
        <time>2022-08-23T08:35:05Z</time>
      </trkpt>
      <trkpt lat="42.928767" lon="-8.213218">
        <ele>400.476</ele>
        <time>2022-08-23T08:35:08Z</time>
      </trkpt>
      <trkpt lat="42.928771" lon="-8.213282">
        <ele>400.570</ele>
        <time>2022-08-23T08:35:11Z</time>
      </trkpt>
      <trkpt lat="42.928774" lon="-8.213353">
        <ele>400.690</ele>
        <time>2022-08-23T08:35:14Z</time>
      </trkpt>
      <trkpt lat="42.928779" lon="-8.213420">
        <ele>400.751</ele>
        <time>2022-08-23T08:35:18Z</time>
      </trkpt>
      <trkpt lat="42.928791" lon="-8.213501">
        <ele>400.739</ele>
        <time>2022-08-23T08:35:22Z</time>
      </trkpt>
      <trkpt lat="42.928803" lon="-8.213570">
        <ele>400.812</ele>
        <time>2022-08-23T08:35:26Z</time>
      </trkpt>
      <trkpt lat="42.928807" lon="-8.213642">
        <ele>400.917</ele>
        <time>2022-08-23T08:35:29Z</time>
      </trkpt>
      <trkpt lat="42.928815" lon="-8.213720">
        <ele>401.022</ele>
        <time>2022-08-23T08:35:33Z</time>
      </trkpt>
      <trkpt lat="42.928808" lon="-8.213787">
        <ele>401.062</ele>
        <time>2022-08-23T08:35:37Z</time>
      </trkpt>
      <trkpt lat="42.928799" lon="-8.213864">
        <ele>401.008</ele>
        <time>2022-08-23T08:35:41Z</time>
      </trkpt>
      <trkpt lat="42.928787" lon="-8.213939">
        <ele>401.009</ele>
        <time>2022-08-23T08:35:45Z</time>
      </trkpt>
      <trkpt lat="42.928770" lon="-8.214015">
        <ele>401.093</ele>
        <time>2022-08-23T08:35:49Z</time>
      </trkpt>
      <trkpt lat="42.928757" lon="-8.214080">
        <ele>401.063</ele>
        <time>2022-08-23T08:35:52Z</time>
      </trkpt>
      <trkpt lat="42.928745" lon="-8.214143">
        <ele>401.033</ele>
        <time>2022-08-23T08:35:55Z</time>
      </trkpt>
      <trkpt lat="42.928730" lon="-8.214203">
        <ele>401.017</ele>
        <time>2022-08-23T08:35:59Z</time>
      </trkpt>
      <trkpt lat="42.928704" lon="-8.214253">
        <ele>401.027</ele>
        <time>2022-08-23T08:36:02Z</time>
      </trkpt>
      <trkpt lat="42.928678" lon="-8.214322">
        <ele>401.038</ele>
        <time>2022-08-23T08:36:06Z</time>
      </trkpt>
      <trkpt lat="42.928647" lon="-8.214387">
        <ele>401.046</ele>
        <time>2022-08-23T08:36:10Z</time>
      </trkpt>
      <trkpt lat="42.928606" lon="-8.214438">
        <ele>401.069</ele>
        <time>2022-08-23T08:36:14Z</time>
      </trkpt>
      <trkpt lat="42.928575" lon="-8.214488">
        <ele>401.024</ele>
        <time>2022-08-23T08:36:18Z</time>
      </trkpt>
      <trkpt lat="42.928565" lon="-8.214553">
        <ele>401.018</ele>
        <time>2022-08-23T08:36:23Z</time>
      </trkpt>
      <trkpt lat="42.928527" lon="-8.214619">
        <ele>401.198</ele>
        <time>2022-08-23T08:36:28Z</time>
      </trkpt>
      <trkpt lat="42.928495" lon="-8.214666">
        <ele>401.117</ele>
        <time>2022-08-23T08:36:31Z</time>
      </trkpt>
      <trkpt lat="42.928459" lon="-8.214710">
        <ele>401.209</ele>
        <time>2022-08-23T08:36:34Z</time>
      </trkpt>
      <trkpt lat="42.928430" lon="-8.214767">
        <ele>401.382</ele>
        <time>2022-08-23T08:36:38Z</time>
      </trkpt>
      <trkpt lat="42.928402" lon="-8.214826">
        <ele>401.492</ele>
        <time>2022-08-23T08:36:42Z</time>
      </trkpt>
      <trkpt lat="42.928372" lon="-8.214891">
        <ele>401.532</ele>
        <time>2022-08-23T08:36:46Z</time>
      </trkpt>
      <trkpt lat="42.928350" lon="-8.214949">
        <ele>401.696</ele>
        <time>2022-08-23T08:36:50Z</time>
      </trkpt>
      <trkpt lat="42.928341" lon="-8.215011">
        <ele>401.746</ele>
        <time>2022-08-23T08:36:54Z</time>
      </trkpt>
      <trkpt lat="42.928318" lon="-8.215079">
        <ele>401.887</ele>
        <time>2022-08-23T08:36:59Z</time>
      </trkpt>
      <trkpt lat="42.928291" lon="-8.215142">
        <ele>401.985</ele>
        <time>2022-08-23T08:37:03Z</time>
      </trkpt>
      <trkpt lat="42.928256" lon="-8.215206">
        <ele>402.018</ele>
        <time>2022-08-23T08:37:07Z</time>
      </trkpt>
      <trkpt lat="42.928237" lon="-8.215268">
        <ele>402.183</ele>
        <time>2022-08-23T08:37:11Z</time>
      </trkpt>
      <trkpt lat="42.928216" lon="-8.215327">
        <ele>402.227</ele>
        <time>2022-08-23T08:37:14Z</time>
      </trkpt>
      <trkpt lat="42.928194" lon="-8.215382">
        <ele>402.268</ele>
        <time>2022-08-23T08:37:17Z</time>
      </trkpt>
      <trkpt lat="42.928167" lon="-8.215446">
        <ele>402.214</ele>
        <time>2022-08-23T08:37:21Z</time>
      </trkpt>
      <trkpt lat="42.928136" lon="-8.215493">
        <ele>402.209</ele>
        <time>2022-08-23T08:37:24Z</time>
      </trkpt>
      <trkpt lat="42.928112" lon="-8.215555">
        <ele>402.163</ele>
        <time>2022-08-23T08:37:28Z</time>
      </trkpt>
      <trkpt lat="42.928087" lon="-8.215622">
        <ele>402.023</ele>
        <time>2022-08-23T08:37:32Z</time>
      </trkpt>
      <trkpt lat="42.928049" lon="-8.215688">
        <ele>401.933</ele>
        <time>2022-08-23T08:37:36Z</time>
      </trkpt>
      <trkpt lat="42.928020" lon="-8.215744">
        <ele>401.827</ele>
        <time>2022-08-23T08:37:39Z</time>
      </trkpt>
      <trkpt lat="42.927986" lon="-8.215799">
        <ele>401.667</ele>
        <time>2022-08-23T08:37:42Z</time>
      </trkpt>
      <trkpt lat="42.927968" lon="-8.215855">
        <ele>401.698</ele>
        <time>2022-08-23T08:37:45Z</time>
      </trkpt>
      <trkpt lat="42.927940" lon="-8.215923">
        <ele>401.556</ele>
        <time>2022-08-23T08:37:49Z</time>
      </trkpt>
      <trkpt lat="42.927910" lon="-8.215987">
        <ele>401.579</ele>
        <time>2022-08-23T08:37:53Z</time>
      </trkpt>
      <trkpt lat="42.927884" lon="-8.216052">
        <ele>401.314</ele>
        <time>2022-08-23T08:37:57Z</time>
      </trkpt>
      <trkpt lat="42.927855" lon="-8.216114">
        <ele>401.058</ele>
        <time>2022-08-23T08:38:01Z</time>
      </trkpt>
      <trkpt lat="42.927830" lon="-8.216179">
        <ele>400.752</ele>
        <time>2022-08-23T08:38:05Z</time>
      </trkpt>
      <trkpt lat="42.927806" lon="-8.216241">
        <ele>400.617</ele>
        <time>2022-08-23T08:38:09Z</time>
      </trkpt>
      <trkpt lat="42.927782" lon="-8.216303">
        <ele>400.509</ele>
        <time>2022-08-23T08:38:13Z</time>
      </trkpt>
      <trkpt lat="42.927761" lon="-8.216370">
        <ele>400.346</ele>
        <time>2022-08-23T08:38:17Z</time>
      </trkpt>
      <trkpt lat="42.927739" lon="-8.216434">
        <ele>400.096</ele>
        <time>2022-08-23T08:38:21Z</time>
      </trkpt>
      <trkpt lat="42.927713" lon="-8.216496">
        <ele>399.756</ele>
        <time>2022-08-23T08:38:25Z</time>
      </trkpt>
      <trkpt lat="42.927682" lon="-8.216552">
        <ele>399.490</ele>
        <time>2022-08-23T08:38:29Z</time>
      </trkpt>
      <trkpt lat="42.927663" lon="-8.216619">
        <ele>399.240</ele>
        <time>2022-08-23T08:38:33Z</time>
      </trkpt>
      <trkpt lat="42.927642" lon="-8.216692">
        <ele>399.011</ele>
        <time>2022-08-23T08:38:37Z</time>
      </trkpt>
      <trkpt lat="42.927619" lon="-8.216762">
        <ele>398.629</ele>
        <time>2022-08-23T08:38:41Z</time>
      </trkpt>
      <trkpt lat="42.927592" lon="-8.216822">
        <ele>398.442</ele>
        <time>2022-08-23T08:38:45Z</time>
      </trkpt>
      <trkpt lat="42.927566" lon="-8.216883">
        <ele>398.117</ele>
        <time>2022-08-23T08:38:49Z</time>
      </trkpt>
      <trkpt lat="42.927540" lon="-8.216941">
        <ele>398.015</ele>
        <time>2022-08-23T08:38:53Z</time>
      </trkpt>
      <trkpt lat="42.927518" lon="-8.217001">
        <ele>397.865</ele>
        <time>2022-08-23T08:38:57Z</time>
      </trkpt>
      <trkpt lat="42.927492" lon="-8.217063">
        <ele>397.511</ele>
        <time>2022-08-23T08:39:01Z</time>
      </trkpt>
      <trkpt lat="42.927469" lon="-8.217129">
        <ele>397.209</ele>
        <time>2022-08-23T08:39:05Z</time>
      </trkpt>
      <trkpt lat="42.927446" lon="-8.217196">
        <ele>397.022</ele>
        <time>2022-08-23T08:39:09Z</time>
      </trkpt>
      <trkpt lat="42.927425" lon="-8.217252">
        <ele>396.772</ele>
        <time>2022-08-23T08:39:12Z</time>
      </trkpt>
      <trkpt lat="42.927397" lon="-8.217312">
        <ele>396.442</ele>
        <time>2022-08-23T08:39:16Z</time>
      </trkpt>
      <trkpt lat="42.927371" lon="-8.217378">
        <ele>396.136</ele>
        <time>2022-08-23T08:39:20Z</time>
      </trkpt>
      <trkpt lat="42.927344" lon="-8.217445">
        <ele>395.776</ele>
        <time>2022-08-23T08:39:24Z</time>
      </trkpt>
      <trkpt lat="42.927321" lon="-8.217510">
        <ele>395.367</ele>
        <time>2022-08-23T08:39:28Z</time>
      </trkpt>
      <trkpt lat="42.927292" lon="-8.217574">
        <ele>394.835</ele>
        <time>2022-08-23T08:39:32Z</time>
      </trkpt>
      <trkpt lat="42.927263" lon="-8.217645">
        <ele>394.428</ele>
        <time>2022-08-23T08:39:36Z</time>
      </trkpt>
      <trkpt lat="42.927243" lon="-8.217707">
        <ele>394.093</ele>
        <time>2022-08-23T08:39:40Z</time>
      </trkpt>
      <trkpt lat="42.927217" lon="-8.217776">
        <ele>393.639</ele>
        <time>2022-08-23T08:39:44Z</time>
      </trkpt>
      <trkpt lat="42.927190" lon="-8.217834">
        <ele>393.201</ele>
        <time>2022-08-23T08:39:48Z</time>
      </trkpt>
      <trkpt lat="42.927162" lon="-8.217905">
        <ele>392.721</ele>
        <time>2022-08-23T08:39:52Z</time>
      </trkpt>
      <trkpt lat="42.927144" lon="-8.217963">
        <ele>392.509</ele>
        <time>2022-08-23T08:39:56Z</time>
      </trkpt>
      <trkpt lat="42.927102" lon="-8.218008">
        <ele>392.074</ele>
        <time>2022-08-23T08:40:00Z</time>
      </trkpt>
      <trkpt lat="42.927059" lon="-8.218052">
        <ele>391.594</ele>
        <time>2022-08-23T08:40:04Z</time>
      </trkpt>
      <trkpt lat="42.927025" lon="-8.218104">
        <ele>391.154</ele>
        <time>2022-08-23T08:40:08Z</time>
      </trkpt>
      <trkpt lat="42.926999" lon="-8.218161">
        <ele>390.818</ele>
        <time>2022-08-23T08:40:12Z</time>
      </trkpt>
      <trkpt lat="42.926978" lon="-8.218217">
        <ele>390.438</ele>
        <time>2022-08-23T08:40:16Z</time>
      </trkpt>
      <trkpt lat="42.926952" lon="-8.218272">
        <ele>389.999</ele>
        <time>2022-08-23T08:40:20Z</time>
      </trkpt>
      <trkpt lat="42.926936" lon="-8.218333">
        <ele>389.477</ele>
        <time>2022-08-23T08:40:24Z</time>
      </trkpt>
      <trkpt lat="42.926926" lon="-8.218402">
        <ele>388.820</ele>
        <time>2022-08-23T08:40:27Z</time>
      </trkpt>
      <trkpt lat="42.926913" lon="-8.218471">
        <ele>388.315</ele>
        <time>2022-08-23T08:40:31Z</time>
      </trkpt>
      <trkpt lat="42.926902" lon="-8.218536">
        <ele>387.938</ele>
        <time>2022-08-23T08:40:35Z</time>
      </trkpt>
      <trkpt lat="42.926878" lon="-8.218612">
        <ele>387.670</ele>
        <time>2022-08-23T08:40:40Z</time>
      </trkpt>
      <trkpt lat="42.926860" lon="-8.218676">
        <ele>387.317</ele>
        <time>2022-08-23T08:40:44Z</time>
      </trkpt>
      <trkpt lat="42.926833" lon="-8.218744">
        <ele>386.909</ele>
        <time>2022-08-23T08:40:48Z</time>
      </trkpt>
      <trkpt lat="42.926814" lon="-8.218806">
        <ele>386.594</ele>
        <time>2022-08-23T08:40:52Z</time>
      </trkpt>
      <trkpt lat="42.926792" lon="-8.218872">
        <ele>386.124</ele>
        <time>2022-08-23T08:40:56Z</time>
      </trkpt>
      <trkpt lat="42.926772" lon="-8.218932">
        <ele>386.064</ele>
        <time>2022-08-23T08:40:59Z</time>
      </trkpt>
      <trkpt lat="42.926752" lon="-8.218995">
        <ele>385.758</ele>
        <time>2022-08-23T08:41:03Z</time>
      </trkpt>
      <trkpt lat="42.926730" lon="-8.219059">
        <ele>385.438</ele>
        <time>2022-08-23T08:41:06Z</time>
      </trkpt>
      <trkpt lat="42.926708" lon="-8.219134">
        <ele>385.249</ele>
        <time>2022-08-23T08:41:09Z</time>
      </trkpt>
      <trkpt lat="42.926710" lon="-8.219209">
        <ele>385.077</ele>
        <time>2022-08-23T08:41:13Z</time>
      </trkpt>
      <trkpt lat="42.926688" lon="-8.219276">
        <ele>384.850</ele>
        <time>2022-08-23T08:41:17Z</time>
      </trkpt>
      <trkpt lat="42.926672" lon="-8.219339">
        <ele>384.755</ele>
        <time>2022-08-23T08:41:21Z</time>
      </trkpt>
      <trkpt lat="42.926652" lon="-8.219402">
        <ele>384.522</ele>
        <time>2022-08-23T08:41:24Z</time>
      </trkpt>
      <trkpt lat="42.926633" lon="-8.219475">
        <ele>384.362</ele>
        <time>2022-08-23T08:41:28Z</time>
      </trkpt>
      <trkpt lat="42.926621" lon="-8.219539">
        <ele>384.208</ele>
        <time>2022-08-23T08:41:32Z</time>
      </trkpt>
      <trkpt lat="42.926597" lon="-8.219606">
        <ele>384.109</ele>
        <time>2022-08-23T08:41:36Z</time>
      </trkpt>
      <trkpt lat="42.926589" lon="-8.219677">
        <ele>384.083</ele>
        <time>2022-08-23T08:41:40Z</time>
      </trkpt>
      <trkpt lat="42.926563" lon="-8.219737">
        <ele>384.093</ele>
        <time>2022-08-23T08:41:45Z</time>
      </trkpt>
      <trkpt lat="42.926543" lon="-8.219807">
        <ele>383.923</ele>
        <time>2022-08-23T08:41:49Z</time>
      </trkpt>
      <trkpt lat="42.926541" lon="-8.219880">
        <ele>383.837</ele>
        <time>2022-08-23T08:41:53Z</time>
      </trkpt>
      <trkpt lat="42.926519" lon="-8.219957">
        <ele>383.897</ele>
        <time>2022-08-23T08:41:57Z</time>
      </trkpt>
      <trkpt lat="42.926492" lon="-8.220009">
        <ele>383.898</ele>
        <time>2022-08-23T08:42:00Z</time>
      </trkpt>
      <trkpt lat="42.926465" lon="-8.220075">
        <ele>383.856</ele>
        <time>2022-08-23T08:42:04Z</time>
      </trkpt>
      <trkpt lat="42.926448" lon="-8.220144">
        <ele>383.859</ele>
        <time>2022-08-23T08:42:08Z</time>
      </trkpt>
      <trkpt lat="42.926434" lon="-8.220205">
        <ele>383.844</ele>
        <time>2022-08-23T08:42:11Z</time>
      </trkpt>
      <trkpt lat="42.926414" lon="-8.220276">
        <ele>383.819</ele>
        <time>2022-08-23T08:42:15Z</time>
      </trkpt>
      <trkpt lat="42.926400" lon="-8.220334">
        <ele>383.809</ele>
        <time>2022-08-23T08:42:18Z</time>
      </trkpt>
      <trkpt lat="42.926383" lon="-8.220394">
        <ele>383.919</ele>
        <time>2022-08-23T08:42:21Z</time>
      </trkpt>
      <trkpt lat="42.926357" lon="-8.220454">
        <ele>384.009</ele>
        <time>2022-08-23T08:42:25Z</time>
      </trkpt>
      <trkpt lat="42.926340" lon="-8.220521">
        <ele>384.082</ele>
        <time>2022-08-23T08:42:29Z</time>
      </trkpt>
      <trkpt lat="42.926326" lon="-8.220587">
        <ele>384.062</ele>
        <time>2022-08-23T08:42:32Z</time>
      </trkpt>
      <trkpt lat="42.926311" lon="-8.220667">
        <ele>384.052</ele>
        <time>2022-08-23T08:42:36Z</time>
      </trkpt>
      <trkpt lat="42.926288" lon="-8.220745">
        <ele>384.096</ele>
        <time>2022-08-23T08:42:40Z</time>
      </trkpt>
      <trkpt lat="42.926265" lon="-8.220813">
        <ele>384.116</ele>
        <time>2022-08-23T08:42:44Z</time>
      </trkpt>
      <trkpt lat="42.926244" lon="-8.220881">
        <ele>384.117</ele>
        <time>2022-08-23T08:42:48Z</time>
      </trkpt>
      <trkpt lat="42.926225" lon="-8.220936">
        <ele>384.115</ele>
        <time>2022-08-23T08:42:51Z</time>
      </trkpt>
      <trkpt lat="42.926209" lon="-8.220999">
        <ele>384.138</ele>
        <time>2022-08-23T08:42:54Z</time>
      </trkpt>
      <trkpt lat="42.926191" lon="-8.221070">
        <ele>384.143</ele>
        <time>2022-08-23T08:42:58Z</time>
      </trkpt>
      <trkpt lat="42.926173" lon="-8.221140">
        <ele>384.148</ele>
        <time>2022-08-23T08:43:02Z</time>
      </trkpt>
      <trkpt lat="42.926158" lon="-8.221199">
        <ele>384.161</ele>
        <time>2022-08-23T08:43:05Z</time>
      </trkpt>
      <trkpt lat="42.926141" lon="-8.221260">
        <ele>384.117</ele>
        <time>2022-08-23T08:43:09Z</time>
      </trkpt>
      <trkpt lat="42.926119" lon="-8.221337">
        <ele>384.109</ele>
        <time>2022-08-23T08:43:13Z</time>
      </trkpt>
      <trkpt lat="42.926106" lon="-8.221409">
        <ele>384.265</ele>
        <time>2022-08-23T08:43:17Z</time>
      </trkpt>
      <trkpt lat="42.926079" lon="-8.221469">
        <ele>384.365</ele>
        <time>2022-08-23T08:43:21Z</time>
      </trkpt>
      <trkpt lat="42.926051" lon="-8.221541">
        <ele>384.695</ele>
        <time>2022-08-23T08:43:25Z</time>
      </trkpt>
      <trkpt lat="42.926028" lon="-8.221616">
        <ele>384.839</ele>
        <time>2022-08-23T08:43:29Z</time>
      </trkpt>
      <trkpt lat="42.926003" lon="-8.221690">
        <ele>385.119</ele>
        <time>2022-08-23T08:43:33Z</time>
      </trkpt>
      <trkpt lat="42.925982" lon="-8.221758">
        <ele>385.560</ele>
        <time>2022-08-23T08:43:37Z</time>
      </trkpt>
      <trkpt lat="42.925979" lon="-8.221838">
        <ele>385.918</ele>
        <time>2022-08-23T08:43:41Z</time>
      </trkpt>
      <trkpt lat="42.925968" lon="-8.221898">
        <ele>386.261</ele>
        <time>2022-08-23T08:43:44Z</time>
      </trkpt>
      <trkpt lat="42.925948" lon="-8.221972">
        <ele>386.546</ele>
        <time>2022-08-23T08:43:48Z</time>
      </trkpt>
      <trkpt lat="42.925929" lon="-8.222036">
        <ele>386.637</ele>
        <time>2022-08-23T08:43:52Z</time>
      </trkpt>
      <trkpt lat="42.925918" lon="-8.222104">
        <ele>386.849</ele>
        <time>2022-08-23T08:43:56Z</time>
      </trkpt>
      <trkpt lat="42.925909" lon="-8.222182">
        <ele>387.013</ele>
        <time>2022-08-23T08:44:00Z</time>
      </trkpt>
      <trkpt lat="42.925902" lon="-8.222249">
        <ele>387.209</ele>
        <time>2022-08-23T08:44:04Z</time>
      </trkpt>
      <trkpt lat="42.925894" lon="-8.222326">
        <ele>387.454</ele>
        <time>2022-08-23T08:44:08Z</time>
      </trkpt>
      <trkpt lat="42.925900" lon="-8.222402">
        <ele>387.714</ele>
        <time>2022-08-23T08:44:12Z</time>
      </trkpt>
      <trkpt lat="42.925909" lon="-8.222478">
        <ele>388.084</ele>
        <time>2022-08-23T08:44:16Z</time>
      </trkpt>
      <trkpt lat="42.925920" lon="-8.222557">
        <ele>388.388</ele>
        <time>2022-08-23T08:44:20Z</time>
      </trkpt>
      <trkpt lat="42.925920" lon="-8.222631">
        <ele>388.698</ele>
        <time>2022-08-23T08:44:24Z</time>
      </trkpt>
      <trkpt lat="42.925891" lon="-8.222990">
        <ele>389.329</ele>
        <time>2022-08-23T08:45:14Z</time>
      </trkpt>
      <trkpt lat="42.925874" lon="-8.223048">
        <ele>389.597</ele>
        <time>2022-08-23T08:45:17Z</time>
      </trkpt>
      <trkpt lat="42.925854" lon="-8.223121">
        <ele>389.510</ele>
        <time>2022-08-23T08:45:21Z</time>
      </trkpt>
      <trkpt lat="42.925831" lon="-8.223191">
        <ele>389.615</ele>
        <time>2022-08-23T08:45:25Z</time>
      </trkpt>
      <trkpt lat="42.925806" lon="-8.223259">
        <ele>389.783</ele>
        <time>2022-08-23T08:45:29Z</time>
      </trkpt>
      <trkpt lat="42.925781" lon="-8.223328">
        <ele>389.825</ele>
        <time>2022-08-23T08:45:33Z</time>
      </trkpt>
      <trkpt lat="42.925762" lon="-8.223400">
        <ele>389.817</ele>
        <time>2022-08-23T08:45:37Z</time>
      </trkpt>
      <trkpt lat="42.925736" lon="-8.223467">
        <ele>389.809</ele>
        <time>2022-08-23T08:45:41Z</time>
      </trkpt>
      <trkpt lat="42.925719" lon="-8.223538">
        <ele>389.999</ele>
        <time>2022-08-23T08:45:45Z</time>
      </trkpt>
      <trkpt lat="42.925692" lon="-8.223601">
        <ele>390.129</ele>
        <time>2022-08-23T08:45:49Z</time>
      </trkpt>
      <trkpt lat="42.925666" lon="-8.223668">
        <ele>390.289</ele>
        <time>2022-08-23T08:45:53Z</time>
      </trkpt>
      <trkpt lat="42.925646" lon="-8.223737">
        <ele>390.313</ele>
        <time>2022-08-23T08:45:57Z</time>
      </trkpt>
      <trkpt lat="42.925626" lon="-8.223809">
        <ele>390.573</ele>
        <time>2022-08-23T08:46:01Z</time>
      </trkpt>
      <trkpt lat="42.925602" lon="-8.223881">
        <ele>390.744</ele>
        <time>2022-08-23T08:46:05Z</time>
      </trkpt>
      <trkpt lat="42.925579" lon="-8.223948">
        <ele>390.812</ele>
        <time>2022-08-23T08:46:09Z</time>
      </trkpt>
      <trkpt lat="42.925557" lon="-8.224011">
        <ele>390.995</ele>
        <time>2022-08-23T08:46:13Z</time>
      </trkpt>
      <trkpt lat="42.925529" lon="-8.224072">
        <ele>391.030</ele>
        <time>2022-08-23T08:46:17Z</time>
      </trkpt>
      <trkpt lat="42.925500" lon="-8.224132">
        <ele>391.018</ele>
        <time>2022-08-23T08:46:21Z</time>
      </trkpt>
      <trkpt lat="42.925472" lon="-8.224193">
        <ele>391.098</ele>
        <time>2022-08-23T08:46:25Z</time>
      </trkpt>
      <trkpt lat="42.925444" lon="-8.224253">
        <ele>391.017</ele>
        <time>2022-08-23T08:46:29Z</time>
      </trkpt>
      <trkpt lat="42.925414" lon="-8.224303">
        <ele>390.909</ele>
        <time>2022-08-23T08:46:33Z</time>
      </trkpt>
      <trkpt lat="42.925381" lon="-8.224362">
        <ele>390.732</ele>
        <time>2022-08-23T08:46:37Z</time>
      </trkpt>
      <trkpt lat="42.925357" lon="-8.224418">
        <ele>390.572</ele>
        <time>2022-08-23T08:46:41Z</time>
      </trkpt>
      <trkpt lat="42.925329" lon="-8.224479">
        <ele>390.312</ele>
        <time>2022-08-23T08:46:45Z</time>
      </trkpt>
      <trkpt lat="42.925296" lon="-8.224536">
        <ele>390.186</ele>
        <time>2022-08-23T08:46:49Z</time>
      </trkpt>
      <trkpt lat="42.925267" lon="-8.224601">
        <ele>390.096</ele>
        <time>2022-08-23T08:46:53Z</time>
      </trkpt>
      <trkpt lat="42.925239" lon="-8.224664">
        <ele>389.997</ele>
        <time>2022-08-23T08:46:57Z</time>
      </trkpt>
      <trkpt lat="42.925221" lon="-8.224725">
        <ele>389.875</ele>
        <time>2022-08-23T08:47:01Z</time>
      </trkpt>
      <trkpt lat="42.925196" lon="-8.224784">
        <ele>389.728</ele>
        <time>2022-08-23T08:47:05Z</time>
      </trkpt>
      <trkpt lat="42.925169" lon="-8.224841">
        <ele>389.653</ele>
        <time>2022-08-23T08:47:09Z</time>
      </trkpt>
      <trkpt lat="42.925145" lon="-8.224899">
        <ele>389.541</ele>
        <time>2022-08-23T08:47:13Z</time>
      </trkpt>
      <trkpt lat="42.925098" lon="-8.224918">
        <ele>389.481</ele>
        <time>2022-08-23T08:47:18Z</time>
      </trkpt>
      <trkpt lat="42.925052" lon="-8.224888">
        <ele>389.309</ele>
        <time>2022-08-23T08:47:23Z</time>
      </trkpt>
      <trkpt lat="42.925092" lon="-8.224983">
        <ele>389.209</ele>
        <time>2022-08-23T08:50:16Z</time>
      </trkpt>
      <trkpt lat="42.925080" lon="-8.225047">
        <ele>389.265</ele>
        <time>2022-08-23T08:50:20Z</time>
      </trkpt>
      <trkpt lat="42.925059" lon="-8.225102">
        <ele>388.655</ele>
        <time>2022-08-23T08:50:24Z</time>
      </trkpt>
      <trkpt lat="42.925042" lon="-8.225163">
        <ele>388.535</ele>
        <time>2022-08-23T08:50:28Z</time>
      </trkpt>
      <trkpt lat="42.925010" lon="-8.225235">
        <ele>388.439</ele>
        <time>2022-08-23T08:50:32Z</time>
      </trkpt>
      <trkpt lat="42.924985" lon="-8.225296">
        <ele>388.419</ele>
        <time>2022-08-23T08:50:37Z</time>
      </trkpt>
      <trkpt lat="42.924962" lon="-8.225354">
        <ele>388.420</ele>
        <time>2022-08-23T08:50:41Z</time>
      </trkpt>
      <trkpt lat="42.924937" lon="-8.225419">
        <ele>388.398</ele>
        <time>2022-08-23T08:50:46Z</time>
      </trkpt>
      <trkpt lat="42.924921" lon="-8.225487">
        <ele>388.241</ele>
        <time>2022-08-23T08:50:51Z</time>
      </trkpt>
      <trkpt lat="42.924897" lon="-8.225549">
        <ele>388.096</ele>
        <time>2022-08-23T08:50:55Z</time>
      </trkpt>
      <trkpt lat="42.924867" lon="-8.225597">
        <ele>387.927</ele>
        <time>2022-08-23T08:50:59Z</time>
      </trkpt>
      <trkpt lat="42.924832" lon="-8.225652">
        <ele>387.868</ele>
        <time>2022-08-23T08:51:03Z</time>
      </trkpt>
      <trkpt lat="42.924808" lon="-8.225728">
        <ele>387.714</ele>
        <time>2022-08-23T08:51:07Z</time>
      </trkpt>
      <trkpt lat="42.924793" lon="-8.225788">
        <ele>387.609</ele>
        <time>2022-08-23T08:51:10Z</time>
      </trkpt>
      <trkpt lat="42.924763" lon="-8.225857">
        <ele>387.543</ele>
        <time>2022-08-23T08:51:14Z</time>
      </trkpt>
      <trkpt lat="42.924742" lon="-8.225915">
        <ele>387.483</ele>
        <time>2022-08-23T08:51:17Z</time>
      </trkpt>
      <trkpt lat="42.924716" lon="-8.225981">
        <ele>387.273</ele>
        <time>2022-08-23T08:51:20Z</time>
      </trkpt>
      <trkpt lat="42.924694" lon="-8.226045">
        <ele>387.087</ele>
        <time>2022-08-23T08:51:24Z</time>
      </trkpt>
      <trkpt lat="42.924670" lon="-8.226108">
        <ele>386.947</ele>
        <time>2022-08-23T08:51:28Z</time>
      </trkpt>
      <trkpt lat="42.924642" lon="-8.226173">
        <ele>386.868</ele>
        <time>2022-08-23T08:51:32Z</time>
      </trkpt>
      <trkpt lat="42.924617" lon="-8.226247">
        <ele>386.546</ele>
        <time>2022-08-23T08:51:36Z</time>
      </trkpt>
      <trkpt lat="42.924589" lon="-8.226298">
        <ele>386.479</ele>
        <time>2022-08-23T08:51:39Z</time>
      </trkpt>
      <trkpt lat="42.924561" lon="-8.226365">
        <ele>386.294</ele>
        <time>2022-08-23T08:51:43Z</time>
      </trkpt>
      <trkpt lat="42.924530" lon="-8.226426">
        <ele>386.199</ele>
        <time>2022-08-23T08:51:47Z</time>
      </trkpt>
      <trkpt lat="42.924490" lon="-8.226468">
        <ele>386.107</ele>
        <time>2022-08-23T08:51:51Z</time>
      </trkpt>
      <trkpt lat="42.924453" lon="-8.226510">
        <ele>386.027</ele>
        <time>2022-08-23T08:51:55Z</time>
      </trkpt>
      <trkpt lat="42.924412" lon="-8.226551">
        <ele>385.809</ele>
        <time>2022-08-23T08:52:00Z</time>
      </trkpt>
      <trkpt lat="42.924367" lon="-8.226585">
        <ele>385.620</ele>
        <time>2022-08-23T08:52:03Z</time>
      </trkpt>
      <trkpt lat="42.924319" lon="-8.226613">
        <ele>385.550</ele>
        <time>2022-08-23T08:52:08Z</time>
      </trkpt>
      <trkpt lat="42.924274" lon="-8.226659">
        <ele>385.450</ele>
        <time>2022-08-23T08:52:11Z</time>
      </trkpt>
      <trkpt lat="42.924233" lon="-8.226693">
        <ele>385.314</ele>
        <time>2022-08-23T08:52:14Z</time>
      </trkpt>
      <trkpt lat="42.924190" lon="-8.226731">
        <ele>385.224</ele>
        <time>2022-08-23T08:52:17Z</time>
      </trkpt>
      <trkpt lat="42.924159" lon="-8.226779">
        <ele>385.175</ele>
        <time>2022-08-23T08:52:22Z</time>
      </trkpt>
      <trkpt lat="42.924124" lon="-8.226818">
        <ele>385.013</ele>
        <time>2022-08-23T08:52:26Z</time>
      </trkpt>
      <trkpt lat="42.924092" lon="-8.226873">
        <ele>384.916</ele>
        <time>2022-08-23T08:52:30Z</time>
      </trkpt>
      <trkpt lat="42.924054" lon="-8.226916">
        <ele>384.841</ele>
        <time>2022-08-23T08:52:34Z</time>
      </trkpt>
      <trkpt lat="42.924015" lon="-8.226953">
        <ele>384.816</ele>
        <time>2022-08-23T08:52:37Z</time>
      </trkpt>
      <trkpt lat="42.923977" lon="-8.226987">
        <ele>384.876</ele>
        <time>2022-08-23T08:52:40Z</time>
      </trkpt>
      <trkpt lat="42.923947" lon="-8.227048">
        <ele>384.713</ele>
        <time>2022-08-23T08:52:44Z</time>
      </trkpt>
      <trkpt lat="42.923917" lon="-8.227101">
        <ele>384.709</ele>
        <time>2022-08-23T08:52:47Z</time>
      </trkpt>
      <trkpt lat="42.923891" lon="-8.227158">
        <ele>384.722</ele>
        <time>2022-08-23T08:52:50Z</time>
      </trkpt>
      <trkpt lat="42.923865" lon="-8.227213">
        <ele>384.752</ele>
        <time>2022-08-23T08:52:53Z</time>
      </trkpt>
      <trkpt lat="42.923849" lon="-8.227274">
        <ele>384.742</ele>
        <time>2022-08-23T08:52:56Z</time>
      </trkpt>
      <trkpt lat="42.923817" lon="-8.227332">
        <ele>384.766</ele>
        <time>2022-08-23T08:53:00Z</time>
      </trkpt>
      <trkpt lat="42.923789" lon="-8.227393">
        <ele>384.736</ele>
        <time>2022-08-23T08:53:04Z</time>
      </trkpt>
      <trkpt lat="42.923766" lon="-8.227451">
        <ele>384.727</ele>
        <time>2022-08-23T08:53:08Z</time>
      </trkpt>
      <trkpt lat="42.923731" lon="-8.227506">
        <ele>384.785</ele>
        <time>2022-08-23T08:53:13Z</time>
      </trkpt>
      <trkpt lat="42.923703" lon="-8.227565">
        <ele>384.788</ele>
        <time>2022-08-23T08:53:17Z</time>
      </trkpt>
      <trkpt lat="42.923676" lon="-8.227617">
        <ele>384.723</ele>
        <time>2022-08-23T08:53:20Z</time>
      </trkpt>
      <trkpt lat="42.923643" lon="-8.227666">
        <ele>384.759</ele>
        <time>2022-08-23T08:53:23Z</time>
      </trkpt>
      <trkpt lat="42.923609" lon="-8.227737">
        <ele>384.703</ele>
        <time>2022-08-23T08:53:27Z</time>
      </trkpt>
      <trkpt lat="42.923581" lon="-8.227804">
        <ele>384.723</ele>
        <time>2022-08-23T08:53:31Z</time>
      </trkpt>
      <trkpt lat="42.923552" lon="-8.227856">
        <ele>384.809</ele>
        <time>2022-08-23T08:53:35Z</time>
      </trkpt>
      <trkpt lat="42.923531" lon="-8.227923">
        <ele>385.036</ele>
        <time>2022-08-23T08:53:39Z</time>
      </trkpt>
      <trkpt lat="42.923517" lon="-8.227982">
        <ele>385.246</ele>
        <time>2022-08-23T08:53:43Z</time>
      </trkpt>
      <trkpt lat="42.923495" lon="-8.228051">
        <ele>385.436</ele>
        <time>2022-08-23T08:53:47Z</time>
      </trkpt>
      <trkpt lat="42.923471" lon="-8.228104">
        <ele>385.680</ele>
        <time>2022-08-23T08:53:50Z</time>
      </trkpt>
      <trkpt lat="42.923432" lon="-8.228166">
        <ele>385.910</ele>
        <time>2022-08-23T08:53:54Z</time>
      </trkpt>
      <trkpt lat="42.923393" lon="-8.228213">
        <ele>386.251</ele>
        <time>2022-08-23T08:53:58Z</time>
      </trkpt>
      <trkpt lat="42.923362" lon="-8.228261">
        <ele>386.699</ele>
        <time>2022-08-23T08:54:02Z</time>
      </trkpt>
      <trkpt lat="42.923331" lon="-8.228321">
        <ele>387.182</ele>
        <time>2022-08-23T08:54:06Z</time>
      </trkpt>
      <trkpt lat="42.923293" lon="-8.228370">
        <ele>387.727</ele>
        <time>2022-08-23T08:54:11Z</time>
      </trkpt>
      <trkpt lat="42.923258" lon="-8.228410">
        <ele>388.382</ele>
        <time>2022-08-23T08:54:15Z</time>
      </trkpt>
      <trkpt lat="42.923216" lon="-8.228456">
        <ele>389.143</ele>
        <time>2022-08-23T08:54:19Z</time>
      </trkpt>
      <trkpt lat="42.923179" lon="-8.228510">
        <ele>389.817</ele>
        <time>2022-08-23T08:54:24Z</time>
      </trkpt>
      <trkpt lat="42.923137" lon="-8.228558">
        <ele>390.309</ele>
        <time>2022-08-23T08:54:28Z</time>
      </trkpt>
      <trkpt lat="42.923102" lon="-8.228615">
        <ele>390.859</ele>
        <time>2022-08-23T08:54:33Z</time>
      </trkpt>
      <trkpt lat="42.923062" lon="-8.228669">
        <ele>391.519</ele>
        <time>2022-08-23T08:54:38Z</time>
      </trkpt>
      <trkpt lat="42.923023" lon="-8.228715">
        <ele>392.079</ele>
        <time>2022-08-23T08:54:41Z</time>
      </trkpt>
      <trkpt lat="42.922981" lon="-8.228760">
        <ele>392.453</ele>
        <time>2022-08-23T08:54:45Z</time>
      </trkpt>
      <trkpt lat="42.922947" lon="-8.228812">
        <ele>392.513</ele>
        <time>2022-08-23T08:54:49Z</time>
      </trkpt>
      <trkpt lat="42.922924" lon="-8.228870">
        <ele>392.884</ele>
        <time>2022-08-23T08:54:53Z</time>
      </trkpt>
      <trkpt lat="42.922905" lon="-8.228932">
        <ele>393.192</ele>
        <time>2022-08-23T08:54:57Z</time>
      </trkpt>
      <trkpt lat="42.922872" lon="-8.228978">
        <ele>393.435</ele>
        <time>2022-08-23T08:55:00Z</time>
      </trkpt>
      <trkpt lat="42.922848" lon="-8.229031">
        <ele>393.750</ele>
        <time>2022-08-23T08:55:04Z</time>
      </trkpt>
      <trkpt lat="42.922815" lon="-8.229091">
        <ele>394.011</ele>
        <time>2022-08-23T08:55:08Z</time>
      </trkpt>
      <trkpt lat="42.922780" lon="-8.229159">
        <ele>394.421</ele>
        <time>2022-08-23T08:55:13Z</time>
      </trkpt>
      <trkpt lat="42.922756" lon="-8.229213">
        <ele>394.703</ele>
        <time>2022-08-23T08:55:16Z</time>
      </trkpt>
      <trkpt lat="42.922736" lon="-8.229272">
        <ele>395.009</ele>
        <time>2022-08-23T08:55:19Z</time>
      </trkpt>
      <trkpt lat="42.922703" lon="-8.229319">
        <ele>395.362</ele>
        <time>2022-08-23T08:55:22Z</time>
      </trkpt>
      <trkpt lat="42.922675" lon="-8.229384">
        <ele>395.542</ele>
        <time>2022-08-23T08:55:26Z</time>
      </trkpt>
      <trkpt lat="42.922654" lon="-8.229448">
        <ele>395.882</ele>
        <time>2022-08-23T08:55:30Z</time>
      </trkpt>
      <trkpt lat="42.922636" lon="-8.229515">
        <ele>396.126</ele>
        <time>2022-08-23T08:55:33Z</time>
      </trkpt>
      <trkpt lat="42.922612" lon="-8.229585">
        <ele>396.426</ele>
        <time>2022-08-23T08:55:37Z</time>
      </trkpt>
      <trkpt lat="42.922595" lon="-8.229657">
        <ele>396.727</ele>
        <time>2022-08-23T08:55:41Z</time>
      </trkpt>
      <trkpt lat="42.922578" lon="-8.229717">
        <ele>396.825</ele>
        <time>2022-08-23T08:55:44Z</time>
      </trkpt>
      <trkpt lat="42.922557" lon="-8.229781">
        <ele>396.928</ele>
        <time>2022-08-23T08:55:48Z</time>
      </trkpt>
      <trkpt lat="42.922534" lon="-8.229845">
        <ele>397.023</ele>
        <time>2022-08-23T08:55:52Z</time>
      </trkpt>
      <trkpt lat="42.922515" lon="-8.229914">
        <ele>397.176</ele>
        <time>2022-08-23T08:55:56Z</time>
      </trkpt>
      <trkpt lat="42.922492" lon="-8.229981">
        <ele>397.290</ele>
        <time>2022-08-23T08:56:00Z</time>
      </trkpt>
      <trkpt lat="42.922464" lon="-8.230046">
        <ele>397.319</ele>
        <time>2022-08-23T08:56:04Z</time>
      </trkpt>
      <trkpt lat="42.922443" lon="-8.230109">
        <ele>397.409</ele>
        <time>2022-08-23T08:56:08Z</time>
      </trkpt>
      <trkpt lat="42.922424" lon="-8.230177">
        <ele>397.548</ele>
        <time>2022-08-23T08:56:12Z</time>
      </trkpt>
      <trkpt lat="42.922405" lon="-8.230234">
        <ele>397.768</ele>
        <time>2022-08-23T08:56:16Z</time>
      </trkpt>
      <trkpt lat="42.922379" lon="-8.230296">
        <ele>397.968</ele>
        <time>2022-08-23T08:56:20Z</time>
      </trkpt>
      <trkpt lat="42.922353" lon="-8.230364">
        <ele>398.092</ele>
        <time>2022-08-23T08:56:24Z</time>
      </trkpt>
      <trkpt lat="42.922335" lon="-8.230429">
        <ele>398.082</ele>
        <time>2022-08-23T08:56:28Z</time>
      </trkpt>
      <trkpt lat="42.922313" lon="-8.230483">
        <ele>398.093</ele>
        <time>2022-08-23T08:56:31Z</time>
      </trkpt>
      <trkpt lat="42.922289" lon="-8.230545">
        <ele>398.071</ele>
        <time>2022-08-23T08:56:35Z</time>
      </trkpt>
      <trkpt lat="42.922279" lon="-8.230607">
        <ele>397.974</ele>
        <time>2022-08-23T08:56:39Z</time>
      </trkpt>
      <trkpt lat="42.922258" lon="-8.230664">
        <ele>397.539</ele>
        <time>2022-08-23T08:56:42Z</time>
      </trkpt>
      <trkpt lat="42.922230" lon="-8.230728">
        <ele>397.171</ele>
        <time>2022-08-23T08:56:46Z</time>
      </trkpt>
      <trkpt lat="42.922217" lon="-8.230792">
        <ele>396.841</ele>
        <time>2022-08-23T08:56:50Z</time>
      </trkpt>
      <trkpt lat="42.922193" lon="-8.230860">
        <ele>396.515</ele>
        <time>2022-08-23T08:56:54Z</time>
      </trkpt>
      <trkpt lat="42.922173" lon="-8.230921">
        <ele>396.109</ele>
        <time>2022-08-23T08:56:58Z</time>
      </trkpt>
      <trkpt lat="42.922163" lon="-8.230992">
        <ele>395.778</ele>
        <time>2022-08-23T08:57:03Z</time>
      </trkpt>
      <trkpt lat="42.922143" lon="-8.231062">
        <ele>395.368</ele>
        <time>2022-08-23T08:57:07Z</time>
      </trkpt>
      <trkpt lat="42.922135" lon="-8.231124">
        <ele>394.988</ele>
        <time>2022-08-23T08:57:11Z</time>
      </trkpt>
      <trkpt lat="42.922122" lon="-8.231187">
        <ele>394.532</ele>
        <time>2022-08-23T08:57:15Z</time>
      </trkpt>
      <trkpt lat="42.922113" lon="-8.231256">
        <ele>394.162</ele>
        <time>2022-08-23T08:57:19Z</time>
      </trkpt>
      <trkpt lat="42.922092" lon="-8.231319">
        <ele>393.753</ele>
        <time>2022-08-23T08:57:23Z</time>
      </trkpt>
      <trkpt lat="42.922072" lon="-8.231377">
        <ele>393.471</ele>
        <time>2022-08-23T08:57:28Z</time>
      </trkpt>
      <trkpt lat="42.922045" lon="-8.231432">
        <ele>393.174</ele>
        <time>2022-08-23T08:57:33Z</time>
      </trkpt>
      <trkpt lat="42.922013" lon="-8.231494">
        <ele>392.729</ele>
        <time>2022-08-23T08:57:38Z</time>
      </trkpt>
      <trkpt lat="42.921980" lon="-8.231545">
        <ele>392.379</ele>
        <time>2022-08-23T08:57:41Z</time>
      </trkpt>
      <trkpt lat="42.921948" lon="-8.231601">
        <ele>391.905</ele>
        <time>2022-08-23T08:57:45Z</time>
      </trkpt>
      <trkpt lat="42.921921" lon="-8.231653">
        <ele>391.625</ele>
        <time>2022-08-23T08:57:49Z</time>
      </trkpt>
      <trkpt lat="42.921893" lon="-8.231709">
        <ele>391.309</ele>
        <time>2022-08-23T08:57:53Z</time>
      </trkpt>
      <trkpt lat="42.921871" lon="-8.231765">
        <ele>391.018</ele>
        <time>2022-08-23T08:57:56Z</time>
      </trkpt>
      <trkpt lat="42.921856" lon="-8.231838">
        <ele>390.858</ele>
        <time>2022-08-23T08:58:00Z</time>
      </trkpt>
      <trkpt lat="42.921826" lon="-8.231889">
        <ele>390.788</ele>
        <time>2022-08-23T08:58:03Z</time>
      </trkpt>
      <trkpt lat="42.921795" lon="-8.231961">
        <ele>390.682</ele>
        <time>2022-08-23T08:58:07Z</time>
      </trkpt>
      <trkpt lat="42.921763" lon="-8.232025">
        <ele>390.552</ele>
        <time>2022-08-23T08:58:11Z</time>
      </trkpt>
      <trkpt lat="42.921736" lon="-8.232077">
        <ele>390.433</ele>
        <time>2022-08-23T08:58:15Z</time>
      </trkpt>
      <trkpt lat="42.921715" lon="-8.232145">
        <ele>390.361</ele>
        <time>2022-08-23T08:58:20Z</time>
      </trkpt>
      <trkpt lat="42.921688" lon="-8.232203">
        <ele>390.254</ele>
        <time>2022-08-23T08:58:25Z</time>
      </trkpt>
      <trkpt lat="42.921651" lon="-8.232251">
        <ele>390.039</ele>
        <time>2022-08-23T08:58:28Z</time>
      </trkpt>
      <trkpt lat="42.921635" lon="-8.232321">
        <ele>389.895</ele>
        <time>2022-08-23T08:58:32Z</time>
      </trkpt>
      <trkpt lat="42.921609" lon="-8.232385">
        <ele>389.649</ele>
        <time>2022-08-23T08:58:36Z</time>
      </trkpt>
      <trkpt lat="42.921586" lon="-8.232454">
        <ele>389.523</ele>
        <time>2022-08-23T08:58:40Z</time>
      </trkpt>
      <trkpt lat="42.921567" lon="-8.232510">
        <ele>389.309</ele>
        <time>2022-08-23T08:58:43Z</time>
      </trkpt>
      <trkpt lat="42.921541" lon="-8.232575">
        <ele>389.130</ele>
        <time>2022-08-23T08:58:47Z</time>
      </trkpt>
      <trkpt lat="42.921510" lon="-8.232641">
        <ele>389.080</ele>
        <time>2022-08-23T08:58:51Z</time>
      </trkpt>
      <trkpt lat="42.921477" lon="-8.232701">
        <ele>388.960</ele>
        <time>2022-08-23T08:58:55Z</time>
      </trkpt>
      <trkpt lat="42.921445" lon="-8.232756">
        <ele>388.884</ele>
        <time>2022-08-23T08:58:59Z</time>
      </trkpt>
      <trkpt lat="42.921419" lon="-8.232811">
        <ele>388.734</ele>
        <time>2022-08-23T08:59:02Z</time>
      </trkpt>
      <trkpt lat="42.921396" lon="-8.232866">
        <ele>388.665</ele>
        <time>2022-08-23T08:59:05Z</time>
      </trkpt>
      <trkpt lat="42.921367" lon="-8.232941">
        <ele>388.563</ele>
        <time>2022-08-23T08:59:09Z</time>
      </trkpt>
      <trkpt lat="42.921338" lon="-8.232993">
        <ele>388.496</ele>
        <time>2022-08-23T08:59:12Z</time>
      </trkpt>
      <trkpt lat="42.921307" lon="-8.233042">
        <ele>388.381</ele>
        <time>2022-08-23T08:59:15Z</time>
      </trkpt>
      <trkpt lat="42.921274" lon="-8.233091">
        <ele>388.267</ele>
        <time>2022-08-23T08:59:19Z</time>
      </trkpt>
      <trkpt lat="42.921239" lon="-8.233157">
        <ele>388.181</ele>
        <time>2022-08-23T08:59:23Z</time>
      </trkpt>
      <trkpt lat="42.921211" lon="-8.233230">
        <ele>388.019</ele>
        <time>2022-08-23T08:59:27Z</time>
      </trkpt>
      <trkpt lat="42.921188" lon="-8.233283">
        <ele>387.909</ele>
        <time>2022-08-23T08:59:30Z</time>
      </trkpt>
      <trkpt lat="42.921160" lon="-8.233352">
        <ele>387.847</ele>
        <time>2022-08-23T08:59:34Z</time>
      </trkpt>
      <trkpt lat="42.921125" lon="-8.233400">
        <ele>387.887</ele>
        <time>2022-08-23T08:59:37Z</time>
      </trkpt>
      <trkpt lat="42.921098" lon="-8.233452">
        <ele>387.827</ele>
        <time>2022-08-23T08:59:41Z</time>
      </trkpt>
      <trkpt lat="42.921070" lon="-8.233506">
        <ele>387.771</ele>
        <time>2022-08-23T08:59:45Z</time>
      </trkpt>
      <trkpt lat="42.921043" lon="-8.233562">
        <ele>387.671</ele>
        <time>2022-08-23T08:59:48Z</time>
      </trkpt>
      <trkpt lat="42.921019" lon="-8.233616">
        <ele>387.642</ele>
        <time>2022-08-23T08:59:51Z</time>
      </trkpt>
      <trkpt lat="42.920999" lon="-8.233694">
        <ele>387.540</ele>
        <time>2022-08-23T08:59:55Z</time>
      </trkpt>
      <trkpt lat="42.920977" lon="-8.233753">
        <ele>387.493</ele>
        <time>2022-08-23T08:59:58Z</time>
      </trkpt>
      <trkpt lat="42.920959" lon="-8.233811">
        <ele>387.388</ele>
        <time>2022-08-23T09:00:01Z</time>
      </trkpt>
      <trkpt lat="42.920930" lon="-8.233878">
        <ele>387.297</ele>
        <time>2022-08-23T09:00:05Z</time>
      </trkpt>
      <trkpt lat="42.920908" lon="-8.233934">
        <ele>387.123</ele>
        <time>2022-08-23T09:00:08Z</time>
      </trkpt>
      <trkpt lat="42.920896" lon="-8.234002">
        <ele>386.925</ele>
        <time>2022-08-23T09:00:13Z</time>
      </trkpt>
      <trkpt lat="42.920884" lon="-8.234076">
        <ele>386.609</ele>
        <time>2022-08-23T09:00:17Z</time>
      </trkpt>
      <trkpt lat="42.920879" lon="-8.234138">
        <ele>386.420</ele>
        <time>2022-08-23T09:00:20Z</time>
      </trkpt>
      <trkpt lat="42.920868" lon="-8.234204">
        <ele>386.230</ele>
        <time>2022-08-23T09:00:24Z</time>
      </trkpt>
      <trkpt lat="42.920852" lon="-8.234274">
        <ele>386.160</ele>
        <time>2022-08-23T09:00:28Z</time>
      </trkpt>
      <trkpt lat="42.920840" lon="-8.234341">
        <ele>386.074</ele>
        <time>2022-08-23T09:00:31Z</time>
      </trkpt>
      <trkpt lat="42.920833" lon="-8.234417">
        <ele>385.994</ele>
        <time>2022-08-23T09:00:35Z</time>
      </trkpt>
      <trkpt lat="42.920817" lon="-8.234479">
        <ele>385.965</ele>
        <time>2022-08-23T09:00:38Z</time>
      </trkpt>
      <trkpt lat="42.920794" lon="-8.234552">
        <ele>385.923</ele>
        <time>2022-08-23T09:00:42Z</time>
      </trkpt>
      <trkpt lat="42.920781" lon="-8.234625">
        <ele>385.946</ele>
        <time>2022-08-23T09:00:46Z</time>
      </trkpt>
      <trkpt lat="42.920766" lon="-8.234699">
        <ele>385.981</ele>
        <time>2022-08-23T09:00:50Z</time>
      </trkpt>
      <trkpt lat="42.920742" lon="-8.234769">
        <ele>385.982</ele>
        <time>2022-08-23T09:00:54Z</time>
      </trkpt>
      <trkpt lat="42.920720" lon="-8.234838">
        <ele>385.943</ele>
        <time>2022-08-23T09:00:58Z</time>
      </trkpt>
      <trkpt lat="42.920693" lon="-8.234900">
        <ele>385.917</ele>
        <time>2022-08-23T09:01:02Z</time>
      </trkpt>
      <trkpt lat="42.920668" lon="-8.234964">
        <ele>385.909</ele>
        <time>2022-08-23T09:01:06Z</time>
      </trkpt>
      <trkpt lat="42.920643" lon="-8.235030">
        <ele>386.059</ele>
        <time>2022-08-23T09:01:12Z</time>
      </trkpt>
      <trkpt lat="42.920633" lon="-8.235097">
        <ele>386.059</ele>
        <time>2022-08-23T09:01:16Z</time>
      </trkpt>
      <trkpt lat="42.920607" lon="-8.235157">
        <ele>386.149</ele>
        <time>2022-08-23T09:01:20Z</time>
      </trkpt>
      <trkpt lat="42.920577" lon="-8.235216">
        <ele>386.313</ele>
        <time>2022-08-23T09:01:24Z</time>
      </trkpt>
      <trkpt lat="42.920553" lon="-8.235285">
        <ele>386.513</ele>
        <time>2022-08-23T09:01:28Z</time>
      </trkpt>
      <trkpt lat="42.920530" lon="-8.235338">
        <ele>386.784</ele>
        <time>2022-08-23T09:01:31Z</time>
      </trkpt>
      <trkpt lat="42.920509" lon="-8.235402">
        <ele>387.062</ele>
        <time>2022-08-23T09:01:34Z</time>
      </trkpt>
      <trkpt lat="42.920476" lon="-8.235454">
        <ele>387.355</ele>
        <time>2022-08-23T09:01:38Z</time>
      </trkpt>
      <trkpt lat="42.920454" lon="-8.235519">
        <ele>387.470</ele>
        <time>2022-08-23T09:01:42Z</time>
      </trkpt>
      <trkpt lat="42.920438" lon="-8.235577">
        <ele>387.444</ele>
        <time>2022-08-23T09:01:45Z</time>
      </trkpt>
      <trkpt lat="42.920419" lon="-8.235653">
        <ele>387.405</ele>
        <time>2022-08-23T09:01:48Z</time>
      </trkpt>
      <trkpt lat="42.920407" lon="-8.235728">
        <ele>387.315</ele>
        <time>2022-08-23T09:01:51Z</time>
      </trkpt>
      <trkpt lat="42.920407" lon="-8.235802">
        <ele>387.109</ele>
        <time>2022-08-23T09:01:54Z</time>
      </trkpt>
      <trkpt lat="42.920398" lon="-8.235867">
        <ele>386.965</ele>
        <time>2022-08-23T09:01:57Z</time>
      </trkpt>
      <trkpt lat="42.920395" lon="-8.235938">
        <ele>386.615</ele>
        <time>2022-08-23T09:02:01Z</time>
      </trkpt>
      <trkpt lat="42.920387" lon="-8.236007">
        <ele>386.565</ele>
        <time>2022-08-23T09:02:05Z</time>
      </trkpt>
      <trkpt lat="42.920381" lon="-8.236072">
        <ele>386.389</ele>
        <time>2022-08-23T09:02:08Z</time>
      </trkpt>
      <trkpt lat="42.920386" lon="-8.236143">
        <ele>386.039</ele>
        <time>2022-08-23T09:02:12Z</time>
      </trkpt>
      <trkpt lat="42.920394" lon="-8.236210">
        <ele>385.610</ele>
        <time>2022-08-23T09:02:15Z</time>
      </trkpt>
      <trkpt lat="42.920406" lon="-8.236285">
        <ele>384.928</ele>
        <time>2022-08-23T09:02:19Z</time>
      </trkpt>
      <trkpt lat="42.920416" lon="-8.236353">
        <ele>384.271</ele>
        <time>2022-08-23T09:02:23Z</time>
      </trkpt>
      <trkpt lat="42.920427" lon="-8.236414">
        <ele>383.716</ele>
        <time>2022-08-23T09:02:26Z</time>
      </trkpt>
      <trkpt lat="42.920423" lon="-8.236476">
        <ele>383.335</ele>
        <time>2022-08-23T09:02:30Z</time>
      </trkpt>
      <trkpt lat="42.920410" lon="-8.236552">
        <ele>383.086</ele>
        <time>2022-08-23T09:02:34Z</time>
      </trkpt>
      <trkpt lat="42.920407" lon="-8.236633">
        <ele>382.714</ele>
        <time>2022-08-23T09:02:38Z</time>
      </trkpt>
      <trkpt lat="42.920408" lon="-8.236699">
        <ele>382.409</ele>
        <time>2022-08-23T09:02:42Z</time>
      </trkpt>
      <trkpt lat="42.920409" lon="-8.236768">
        <ele>382.114</ele>
        <time>2022-08-23T09:02:46Z</time>
      </trkpt>
      <trkpt lat="42.920411" lon="-8.236830">
        <ele>381.734</ele>
        <time>2022-08-23T09:02:50Z</time>
      </trkpt>
      <trkpt lat="42.920416" lon="-8.236896">
        <ele>381.254</ele>
        <time>2022-08-23T09:02:54Z</time>
      </trkpt>
      <trkpt lat="42.920395" lon="-8.236968">
        <ele>380.768</ele>
        <time>2022-08-23T09:02:58Z</time>
      </trkpt>
      <trkpt lat="42.920382" lon="-8.237043">
        <ele>380.348</ele>
        <time>2022-08-23T09:03:02Z</time>
      </trkpt>
      <trkpt lat="42.920340" lon="-8.237107">
        <ele>379.699</ele>
        <time>2022-08-23T09:03:06Z</time>
      </trkpt>
      <trkpt lat="42.920310" lon="-8.237159">
        <ele>378.997</ele>
        <time>2022-08-23T09:03:09Z</time>
      </trkpt>
      <trkpt lat="42.920288" lon="-8.237217">
        <ele>378.240</ele>
        <time>2022-08-23T09:03:13Z</time>
      </trkpt>
      <trkpt lat="42.920264" lon="-8.237274">
        <ele>378.055</ele>
        <time>2022-08-23T09:03:17Z</time>
      </trkpt>
      <trkpt lat="42.920213" lon="-8.237306">
        <ele>377.468</ele>
        <time>2022-08-23T09:03:21Z</time>
      </trkpt>
      <trkpt lat="42.920169" lon="-8.237330">
        <ele>376.642</ele>
        <time>2022-08-23T09:03:24Z</time>
      </trkpt>
      <trkpt lat="42.920126" lon="-8.237362">
        <ele>376.026</ele>
        <time>2022-08-23T09:03:27Z</time>
      </trkpt>
      <trkpt lat="42.920069" lon="-8.237400">
        <ele>375.609</ele>
        <time>2022-08-23T09:03:31Z</time>
      </trkpt>
      <trkpt lat="42.920025" lon="-8.237422">
        <ele>375.387</ele>
        <time>2022-08-23T09:03:34Z</time>
      </trkpt>
      <trkpt lat="42.919979" lon="-8.237444">
        <ele>375.067</ele>
        <time>2022-08-23T09:03:37Z</time>
      </trkpt>
      <trkpt lat="42.919931" lon="-8.237476">
        <ele>374.757</ele>
        <time>2022-08-23T09:03:41Z</time>
      </trkpt>
      <trkpt lat="42.919889" lon="-8.237531">
        <ele>374.471</ele>
        <time>2022-08-23T09:03:45Z</time>
      </trkpt>
      <trkpt lat="42.919850" lon="-8.237580">
        <ele>374.321</ele>
        <time>2022-08-23T09:03:49Z</time>
      </trkpt>
      <trkpt lat="42.919832" lon="-8.237636">
        <ele>374.182</ele>
        <time>2022-08-23T09:03:52Z</time>
      </trkpt>
      <trkpt lat="42.919808" lon="-8.237697">
        <ele>373.970</ele>
        <time>2022-08-23T09:03:56Z</time>
      </trkpt>
      <trkpt lat="42.919784" lon="-8.237753">
        <ele>373.713</ele>
        <time>2022-08-23T09:03:59Z</time>
      </trkpt>
      <trkpt lat="42.919761" lon="-8.237818">
        <ele>373.678</ele>
        <time>2022-08-23T09:04:03Z</time>
      </trkpt>
      <trkpt lat="42.919736" lon="-8.237880">
        <ele>373.518</ele>
        <time>2022-08-23T09:04:07Z</time>
      </trkpt>
      <trkpt lat="42.919696" lon="-8.237940">
        <ele>373.498</ele>
        <time>2022-08-23T09:04:11Z</time>
      </trkpt>
      <trkpt lat="42.919670" lon="-8.237992">
        <ele>373.317</ele>
        <time>2022-08-23T09:04:14Z</time>
      </trkpt>
      <trkpt lat="42.919650" lon="-8.238053">
        <ele>373.209</ele>
        <time>2022-08-23T09:04:17Z</time>
      </trkpt>
      <trkpt lat="42.919633" lon="-8.238110">
        <ele>373.172</ele>
        <time>2022-08-23T09:04:21Z</time>
      </trkpt>
      <trkpt lat="42.919601" lon="-8.238168">
        <ele>373.022</ele>
        <time>2022-08-23T09:04:25Z</time>
      </trkpt>
      <trkpt lat="42.919578" lon="-8.238226">
        <ele>372.912</ele>
        <time>2022-08-23T09:04:28Z</time>
      </trkpt>
      <trkpt lat="42.919562" lon="-8.238288">
        <ele>372.866</ele>
        <time>2022-08-23T09:04:32Z</time>
      </trkpt>
      <trkpt lat="42.919549" lon="-8.238354">
        <ele>372.736</ele>
        <time>2022-08-23T09:04:36Z</time>
      </trkpt>
      <trkpt lat="42.919519" lon="-8.238414">
        <ele>372.647</ele>
        <time>2022-08-23T09:04:40Z</time>
      </trkpt>
      <trkpt lat="42.919488" lon="-8.238475">
        <ele>372.545</ele>
        <time>2022-08-23T09:04:43Z</time>
      </trkpt>
      <trkpt lat="42.919461" lon="-8.238534">
        <ele>372.488</ele>
        <time>2022-08-23T09:04:46Z</time>
      </trkpt>
      <trkpt lat="42.919434" lon="-8.238585">
        <ele>372.333</ele>
        <time>2022-08-23T09:04:49Z</time>
      </trkpt>
      <trkpt lat="42.919402" lon="-8.238642">
        <ele>372.263</ele>
        <time>2022-08-23T09:04:53Z</time>
      </trkpt>
      <trkpt lat="42.919371" lon="-8.238690">
        <ele>372.144</ele>
        <time>2022-08-23T09:04:56Z</time>
      </trkpt>
      <trkpt lat="42.919346" lon="-8.238751">
        <ele>372.018</ele>
        <time>2022-08-23T09:04:59Z</time>
      </trkpt>
      <trkpt lat="42.919321" lon="-8.238804">
        <ele>371.909</ele>
        <time>2022-08-23T09:05:02Z</time>
      </trkpt>
      <trkpt lat="42.919297" lon="-8.238867">
        <ele>371.867</ele>
        <time>2022-08-23T09:05:06Z</time>
      </trkpt>
      <trkpt lat="42.919270" lon="-8.238935">
        <ele>371.777</ele>
        <time>2022-08-23T09:05:10Z</time>
      </trkpt>
      <trkpt lat="42.919235" lon="-8.239004">
        <ele>371.677</ele>
        <time>2022-08-23T09:05:14Z</time>
      </trkpt>
      <trkpt lat="42.919214" lon="-8.239075">
        <ele>371.461</ele>
        <time>2022-08-23T09:05:18Z</time>
      </trkpt>
      <trkpt lat="42.919191" lon="-8.239140">
        <ele>371.121</ele>
        <time>2022-08-23T09:05:22Z</time>
      </trkpt>
      <trkpt lat="42.919165" lon="-8.239199">
        <ele>370.822</ele>
        <time>2022-08-23T09:05:26Z</time>
      </trkpt>
      <trkpt lat="42.919142" lon="-8.239254">
        <ele>370.650</ele>
        <time>2022-08-23T09:05:31Z</time>
      </trkpt>
      <trkpt lat="42.919115" lon="-8.239305">
        <ele>370.213</ele>
        <time>2022-08-23T09:05:36Z</time>
      </trkpt>
      <trkpt lat="42.919103" lon="-8.239367">
        <ele>369.868</ele>
        <time>2022-08-23T09:05:41Z</time>
      </trkpt>
      <trkpt lat="42.919081" lon="-8.239433">
        <ele>369.384</ele>
        <time>2022-08-23T09:05:46Z</time>
      </trkpt>
      <trkpt lat="42.919057" lon="-8.239491">
        <ele>368.807</ele>
        <time>2022-08-23T09:05:50Z</time>
      </trkpt>
      <trkpt lat="42.919022" lon="-8.239545">
        <ele>368.417</ele>
        <time>2022-08-23T09:05:53Z</time>
      </trkpt>
      <trkpt lat="42.918982" lon="-8.239591">
        <ele>368.009</ele>
        <time>2022-08-23T09:05:56Z</time>
      </trkpt>
      <trkpt lat="42.918941" lon="-8.239649">
        <ele>367.659</ele>
        <time>2022-08-23T09:05:59Z</time>
      </trkpt>
      <trkpt lat="42.918918" lon="-8.239704">
        <ele>367.359</ele>
        <time>2022-08-23T09:06:02Z</time>
      </trkpt>
      <trkpt lat="42.918889" lon="-8.239761">
        <ele>366.989</ele>
        <time>2022-08-23T09:06:05Z</time>
      </trkpt>
      <trkpt lat="42.918856" lon="-8.239820">
        <ele>366.513</ele>
        <time>2022-08-23T09:06:08Z</time>
      </trkpt>
      <trkpt lat="42.918819" lon="-8.239867">
        <ele>366.143</ele>
        <time>2022-08-23T09:06:11Z</time>
      </trkpt>
      <trkpt lat="42.918786" lon="-8.239918">
        <ele>365.744</ele>
        <time>2022-08-23T09:06:15Z</time>
      </trkpt>
      <trkpt lat="42.918742" lon="-8.239956">
        <ele>365.242</ele>
        <time>2022-08-23T09:06:18Z</time>
      </trkpt>
      <trkpt lat="42.918693" lon="-8.239996">
        <ele>364.675</ele>
        <time>2022-08-23T09:06:22Z</time>
      </trkpt>
      <trkpt lat="42.918647" lon="-8.240041">
        <ele>364.190</ele>
        <time>2022-08-23T09:06:26Z</time>
      </trkpt>
      <trkpt lat="42.918608" lon="-8.240089">
        <ele>363.688</ele>
        <time>2022-08-23T09:06:30Z</time>
      </trkpt>
      <trkpt lat="42.918560" lon="-8.240128">
        <ele>362.924</ele>
        <time>2022-08-23T09:06:34Z</time>
      </trkpt>
      <trkpt lat="42.918530" lon="-8.240179">
        <ele>362.426</ele>
        <time>2022-08-23T09:06:38Z</time>
      </trkpt>
      <trkpt lat="42.918486" lon="-8.240215">
        <ele>362.209</ele>
        <time>2022-08-23T09:06:41Z</time>
      </trkpt>
      <trkpt lat="42.918444" lon="-8.240264">
        <ele>361.899</ele>
        <time>2022-08-23T09:06:45Z</time>
      </trkpt>
      <trkpt lat="42.918393" lon="-8.240304">
        <ele>361.299</ele>
        <time>2022-08-23T09:06:49Z</time>
      </trkpt>
      <trkpt lat="42.918354" lon="-8.240338">
        <ele>360.939</ele>
        <time>2022-08-23T09:06:53Z</time>
      </trkpt>
      <trkpt lat="42.918302" lon="-8.240369">
        <ele>360.343</ele>
        <time>2022-08-23T09:06:57Z</time>
      </trkpt>
      <trkpt lat="42.918257" lon="-8.240413">
        <ele>359.633</ele>
        <time>2022-08-23T09:07:01Z</time>
      </trkpt>
      <trkpt lat="42.918217" lon="-8.240458">
        <ele>359.474</ele>
        <time>2022-08-23T09:07:05Z</time>
      </trkpt>
      <trkpt lat="42.918174" lon="-8.240514">
        <ele>358.742</ele>
        <time>2022-08-23T09:07:10Z</time>
      </trkpt>
      <trkpt lat="42.918147" lon="-8.240571">
        <ele>358.335</ele>
        <time>2022-08-23T09:07:14Z</time>
      </trkpt>
      <trkpt lat="42.918121" lon="-8.240644">
        <ele>357.930</ele>
        <time>2022-08-23T09:07:18Z</time>
      </trkpt>
      <trkpt lat="42.918101" lon="-8.240701">
        <ele>357.738</ele>
        <time>2022-08-23T09:07:22Z</time>
      </trkpt>
      <trkpt lat="42.918073" lon="-8.240761">
        <ele>357.270</ele>
        <time>2022-08-23T09:07:25Z</time>
      </trkpt>
      <trkpt lat="42.918058" lon="-8.240821">
        <ele>356.717</ele>
        <time>2022-08-23T09:07:29Z</time>
      </trkpt>
      <trkpt lat="42.918052" lon="-8.240895">
        <ele>356.309</ele>
        <time>2022-08-23T09:07:33Z</time>
      </trkpt>
      <trkpt lat="42.918042" lon="-8.240956">
        <ele>355.964</ele>
        <time>2022-08-23T09:07:36Z</time>
      </trkpt>
      <trkpt lat="42.918023" lon="-8.241019">
        <ele>355.514</ele>
        <time>2022-08-23T09:07:40Z</time>
      </trkpt>
      <trkpt lat="42.918007" lon="-8.241077">
        <ele>355.264</ele>
        <time>2022-08-23T09:07:43Z</time>
      </trkpt>
      <trkpt lat="42.917979" lon="-8.241135">
        <ele>354.828</ele>
        <time>2022-08-23T09:07:47Z</time>
      </trkpt>
      <trkpt lat="42.917954" lon="-8.241199">
        <ele>354.388</ele>
        <time>2022-08-23T09:07:51Z</time>
      </trkpt>
      <trkpt lat="42.917916" lon="-8.241253">
        <ele>354.089</ele>
        <time>2022-08-23T09:07:55Z</time>
      </trkpt>
      <trkpt lat="42.917885" lon="-8.241300">
        <ele>353.727</ele>
        <time>2022-08-23T09:07:58Z</time>
      </trkpt>
      <trkpt lat="42.917864" lon="-8.241364">
        <ele>353.440</ele>
        <time>2022-08-23T09:08:02Z</time>
      </trkpt>
      <trkpt lat="42.917845" lon="-8.241423">
        <ele>353.175</ele>
        <time>2022-08-23T09:08:06Z</time>
      </trkpt>
      <trkpt lat="42.917806" lon="-8.241476">
        <ele>352.913</ele>
        <time>2022-08-23T09:08:10Z</time>
      </trkpt>
      <trkpt lat="42.917775" lon="-8.241533">
        <ele>352.643</ele>
        <time>2022-08-23T09:08:14Z</time>
      </trkpt>
      <trkpt lat="42.917748" lon="-8.241599">
        <ele>352.307</ele>
        <time>2022-08-23T09:08:18Z</time>
      </trkpt>
      <trkpt lat="42.917753" lon="-8.241669">
        <ele>352.009</ele>
        <time>2022-08-23T09:08:22Z</time>
      </trkpt>
      <trkpt lat="42.917758" lon="-8.241737">
        <ele>351.832</ele>
        <time>2022-08-23T09:08:26Z</time>
      </trkpt>
      <trkpt lat="42.917781" lon="-8.241798">
        <ele>351.562</ele>
        <time>2022-08-23T09:08:30Z</time>
      </trkpt>
      <trkpt lat="42.917802" lon="-8.241870">
        <ele>351.022</ele>
        <time>2022-08-23T09:08:34Z</time>
      </trkpt>
      <trkpt lat="42.917825" lon="-8.241941">
        <ele>350.596</ele>
        <time>2022-08-23T09:08:38Z</time>
      </trkpt>
      <trkpt lat="42.917846" lon="-8.241995">
        <ele>350.056</ele>
        <time>2022-08-23T09:08:41Z</time>
      </trkpt>
      <trkpt lat="42.917875" lon="-8.242056">
        <ele>349.537</ele>
        <time>2022-08-23T09:08:45Z</time>
      </trkpt>
      <trkpt lat="42.917886" lon="-8.242120">
        <ele>349.195</ele>
        <time>2022-08-23T09:08:49Z</time>
      </trkpt>
      <trkpt lat="42.917890" lon="-8.242183">
        <ele>348.828</ele>
        <time>2022-08-23T09:08:52Z</time>
      </trkpt>
      <trkpt lat="42.917902" lon="-8.242246">
        <ele>348.673</ele>
        <time>2022-08-23T09:08:56Z</time>
      </trkpt>
      <trkpt lat="42.917911" lon="-8.242314">
        <ele>348.395</ele>
        <time>2022-08-23T09:09:00Z</time>
      </trkpt>
      <trkpt lat="42.917925" lon="-8.242384">
        <ele>347.949</ele>
        <time>2022-08-23T09:09:05Z</time>
      </trkpt>
      <trkpt lat="42.917923" lon="-8.242460">
        <ele>347.423</ele>
        <time>2022-08-23T09:09:16Z</time>
      </trkpt>
      <trkpt lat="42.917953" lon="-8.242518">
        <ele>346.909</ele>
        <time>2022-08-23T09:09:19Z</time>
      </trkpt>
      <trkpt lat="42.917981" lon="-8.242574">
        <ele>346.360</ele>
        <time>2022-08-23T09:09:22Z</time>
      </trkpt>
      <trkpt lat="42.918012" lon="-8.242636">
        <ele>345.820</ele>
        <time>2022-08-23T09:09:25Z</time>
      </trkpt>
      <trkpt lat="42.918032" lon="-8.242694">
        <ele>345.540</ele>
        <time>2022-08-23T09:09:28Z</time>
      </trkpt>
      <trkpt lat="42.918058" lon="-8.242763">
        <ele>345.314</ele>
        <time>2022-08-23T09:09:32Z</time>
      </trkpt>
      <trkpt lat="42.918078" lon="-8.242825">
        <ele>345.084</ele>
        <time>2022-08-23T09:09:35Z</time>
      </trkpt>
      <trkpt lat="42.918098" lon="-8.242880">
        <ele>344.655</ele>
        <time>2022-08-23T09:09:38Z</time>
      </trkpt>
      <trkpt lat="42.918128" lon="-8.242929">
        <ele>344.223</ele>
        <time>2022-08-23T09:09:42Z</time>
      </trkpt>
      <trkpt lat="42.918158" lon="-8.242978">
        <ele>343.966</ele>
        <time>2022-08-23T09:09:45Z</time>
      </trkpt>
      <trkpt lat="42.918187" lon="-8.243029">
        <ele>343.571</ele>
        <time>2022-08-23T09:09:49Z</time>
      </trkpt>
      <trkpt lat="42.918218" lon="-8.243087">
        <ele>343.027</ele>
        <time>2022-08-23T09:09:53Z</time>
      </trkpt>
      <trkpt lat="42.918234" lon="-8.243158">
        <ele>342.568</ele>
        <time>2022-08-23T09:09:57Z</time>
      </trkpt>
      <trkpt lat="42.918240" lon="-8.243232">
        <ele>342.014</ele>
        <time>2022-08-23T09:10:01Z</time>
      </trkpt>
      <trkpt lat="42.918214" lon="-8.243296">
        <ele>341.509</ele>
        <time>2022-08-23T09:10:07Z</time>
      </trkpt>
      <trkpt lat="42.918215" lon="-8.243360">
        <ele>341.013</ele>
        <time>2022-08-23T09:10:35Z</time>
      </trkpt>
      <trkpt lat="42.918163" lon="-8.243366">
        <ele>340.533</ele>
        <time>2022-08-23T09:10:46Z</time>
      </trkpt>
      <trkpt lat="42.918122" lon="-8.243408">
        <ele>340.163</ele>
        <time>2022-08-23T09:10:53Z</time>
      </trkpt>
      <trkpt lat="42.918072" lon="-8.243433">
        <ele>340.077</ele>
        <time>2022-08-23T09:10:58Z</time>
      </trkpt>
      <trkpt lat="42.918022" lon="-8.243454">
        <ele>340.097</ele>
        <time>2022-08-23T09:11:02Z</time>
      </trkpt>
      <trkpt lat="42.917975" lon="-8.243490">
        <ele>340.018</ele>
        <time>2022-08-23T09:11:06Z</time>
      </trkpt>
      <trkpt lat="42.917954" lon="-8.243550">
        <ele>340.096</ele>
        <time>2022-08-23T09:11:11Z</time>
      </trkpt>
      <trkpt lat="42.917970" lon="-8.243621">
        <ele>340.029</ele>
        <time>2022-08-23T09:11:16Z</time>
      </trkpt>
      <trkpt lat="42.917980" lon="-8.243701">
        <ele>339.984</ele>
        <time>2022-08-23T09:11:21Z</time>
      </trkpt>
      <trkpt lat="42.917986" lon="-8.243772">
        <ele>339.284</ele>
        <time>2022-08-23T09:11:27Z</time>
      </trkpt>
      <trkpt lat="42.917996" lon="-8.243833">
        <ele>338.207</ele>
        <time>2022-08-23T09:11:32Z</time>
      </trkpt>
      <trkpt lat="42.917989" lon="-8.243904">
        <ele>337.517</ele>
        <time>2022-08-23T09:11:37Z</time>
      </trkpt>
      <trkpt lat="42.917979" lon="-8.243971">
        <ele>337.109</ele>
        <time>2022-08-23T09:11:40Z</time>
      </trkpt>
      <trkpt lat="42.917971" lon="-8.244035">
        <ele>337.039</ele>
        <time>2022-08-23T09:11:43Z</time>
      </trkpt>
      <trkpt lat="42.917978" lon="-8.244114">
        <ele>337.049</ele>
        <time>2022-08-23T09:11:47Z</time>
      </trkpt>
      <trkpt lat="42.917992" lon="-8.244183">
        <ele>337.059</ele>
        <time>2022-08-23T09:11:51Z</time>
      </trkpt>
      <trkpt lat="42.917996" lon="-8.244245">
        <ele>337.043</ele>
        <time>2022-08-23T09:11:55Z</time>
      </trkpt>
      <trkpt lat="42.917995" lon="-8.244321">
        <ele>337.083</ele>
        <time>2022-08-23T09:11:59Z</time>
      </trkpt>
      <trkpt lat="42.917968" lon="-8.244375">
        <ele>337.114</ele>
        <time>2022-08-23T09:12:03Z</time>
      </trkpt>
      <trkpt lat="42.917933" lon="-8.244449">
        <ele>337.332</ele>
        <time>2022-08-23T09:12:07Z</time>
      </trkpt>
      <trkpt lat="42.917918" lon="-8.244510">
        <ele>337.465</ele>
        <time>2022-08-23T09:12:11Z</time>
      </trkpt>
      <trkpt lat="42.917895" lon="-8.244568">
        <ele>337.490</ele>
        <time>2022-08-23T09:12:14Z</time>
      </trkpt>
      <trkpt lat="42.917865" lon="-8.244635">
        <ele>337.523</ele>
        <time>2022-08-23T09:12:18Z</time>
      </trkpt>
      <trkpt lat="42.917849" lon="-8.244717">
        <ele>337.683</ele>
        <time>2022-08-23T09:12:22Z</time>
      </trkpt>
      <trkpt lat="42.917839" lon="-8.244791">
        <ele>337.611</ele>
        <time>2022-08-23T09:12:26Z</time>
      </trkpt>
      <trkpt lat="42.917840" lon="-8.244869">
        <ele>337.709</ele>
        <time>2022-08-23T09:12:30Z</time>
      </trkpt>
      <trkpt lat="42.917841" lon="-8.244943">
        <ele>337.883</ele>
        <time>2022-08-23T09:12:34Z</time>
      </trkpt>
      <trkpt lat="42.917845" lon="-8.245016">
        <ele>338.073</ele>
        <time>2022-08-23T09:12:38Z</time>
      </trkpt>
      <trkpt lat="42.917836" lon="-8.245089">
        <ele>338.323</ele>
        <time>2022-08-23T09:12:42Z</time>
      </trkpt>
      <trkpt lat="42.917822" lon="-8.245152">
        <ele>338.677</ele>
        <time>2022-08-23T09:12:46Z</time>
      </trkpt>
      <trkpt lat="42.917811" lon="-8.245229">
        <ele>339.037</ele>
        <time>2022-08-23T09:12:50Z</time>
      </trkpt>
      <trkpt lat="42.917806" lon="-8.245298">
        <ele>339.318</ele>
        <time>2022-08-23T09:12:54Z</time>
      </trkpt>
      <trkpt lat="42.917803" lon="-8.245381">
        <ele>339.846</ele>
        <time>2022-08-23T09:12:58Z</time>
      </trkpt>
      <trkpt lat="42.917801" lon="-8.245453">
        <ele>340.029</ele>
        <time>2022-08-23T09:13:02Z</time>
      </trkpt>
      <trkpt lat="42.917787" lon="-8.245528">
        <ele>340.424</ele>
        <time>2022-08-23T09:13:06Z</time>
      </trkpt>
      <trkpt lat="42.917780" lon="-8.245600">
        <ele>340.633</ele>
        <time>2022-08-23T09:13:10Z</time>
      </trkpt>
      <trkpt lat="42.917777" lon="-8.245670">
        <ele>340.923</ele>
        <time>2022-08-23T09:13:14Z</time>
      </trkpt>
      <trkpt lat="42.917781" lon="-8.245738">
        <ele>341.015</ele>
        <time>2022-08-23T09:13:18Z</time>
      </trkpt>
      <trkpt lat="42.917790" lon="-8.245816">
        <ele>341.309</ele>
        <time>2022-08-23T09:13:22Z</time>
      </trkpt>
      <trkpt lat="42.917802" lon="-8.245878">
        <ele>341.424</ele>
        <time>2022-08-23T09:13:26Z</time>
      </trkpt>
      <trkpt lat="42.917826" lon="-8.245951">
        <ele>341.614</ele>
        <time>2022-08-23T09:13:30Z</time>
      </trkpt>
      <trkpt lat="42.917852" lon="-8.246020">
        <ele>341.874</ele>
        <time>2022-08-23T09:13:34Z</time>
      </trkpt>
      <trkpt lat="42.917880" lon="-8.246083">
        <ele>342.038</ele>
        <time>2022-08-23T09:13:38Z</time>
      </trkpt>
      <trkpt lat="42.917901" lon="-8.246150">
        <ele>342.128</ele>
        <time>2022-08-23T09:13:42Z</time>
      </trkpt>
      <trkpt lat="42.917918" lon="-8.246225">
        <ele>342.219</ele>
        <time>2022-08-23T09:13:46Z</time>
      </trkpt>
      <trkpt lat="42.917940" lon="-8.246295">
        <ele>342.447</ele>
        <time>2022-08-23T09:13:50Z</time>
      </trkpt>
      <trkpt lat="42.917958" lon="-8.246372">
        <ele>342.740</ele>
        <time>2022-08-23T09:13:54Z</time>
      </trkpt>
      <trkpt lat="42.917976" lon="-8.246447">
        <ele>343.125</ele>
        <time>2022-08-23T09:13:58Z</time>
      </trkpt>
      <trkpt lat="42.917987" lon="-8.246520">
        <ele>343.418</ele>
        <time>2022-08-23T09:14:02Z</time>
      </trkpt>
      <trkpt lat="42.917999" lon="-8.246592">
        <ele>343.798</ele>
        <time>2022-08-23T09:14:06Z</time>
      </trkpt>
      <trkpt lat="42.918002" lon="-8.246663">
        <ele>343.917</ele>
        <time>2022-08-23T09:14:10Z</time>
      </trkpt>
      <trkpt lat="42.918013" lon="-8.246735">
        <ele>344.109</ele>
        <time>2022-08-23T09:14:14Z</time>
      </trkpt>
      <trkpt lat="42.918024" lon="-8.246804">
        <ele>344.212</ele>
        <time>2022-08-23T09:14:19Z</time>
      </trkpt>
      <trkpt lat="42.918035" lon="-8.246874">
        <ele>344.372</ele>
        <time>2022-08-23T09:14:24Z</time>
      </trkpt>
      <trkpt lat="42.918040" lon="-8.246937">
        <ele>344.442</ele>
        <time>2022-08-23T09:14:28Z</time>
      </trkpt>
      <trkpt lat="42.918051" lon="-8.246997">
        <ele>344.766</ele>
        <time>2022-08-23T09:14:32Z</time>
      </trkpt>
      <trkpt lat="42.918052" lon="-8.247068">
        <ele>345.066</ele>
        <time>2022-08-23T09:14:36Z</time>
      </trkpt>
      <trkpt lat="42.918063" lon="-8.247139">
        <ele>345.187</ele>
        <time>2022-08-23T09:14:40Z</time>
      </trkpt>
      <trkpt lat="42.918074" lon="-8.247212">
        <ele>345.275</ele>
        <time>2022-08-23T09:14:44Z</time>
      </trkpt>
      <trkpt lat="42.918087" lon="-8.247280">
        <ele>345.318</ele>
        <time>2022-08-23T09:14:48Z</time>
      </trkpt>
      <trkpt lat="42.918098" lon="-8.247339">
        <ele>345.523</ele>
        <time>2022-08-23T09:14:51Z</time>
      </trkpt>
      <trkpt lat="42.918111" lon="-8.247400">
        <ele>345.765</ele>
        <time>2022-08-23T09:14:54Z</time>
      </trkpt>
      <trkpt lat="42.918133" lon="-8.247473">
        <ele>346.068</ele>
        <time>2022-08-23T09:14:57Z</time>
      </trkpt>
      <trkpt lat="42.918146" lon="-8.247543">
        <ele>346.314</ele>
        <time>2022-08-23T09:15:00Z</time>
      </trkpt>
      <trkpt lat="42.918156" lon="-8.247616">
        <ele>346.609</ele>
        <time>2022-08-23T09:15:03Z</time>
      </trkpt>
      <trkpt lat="42.918164" lon="-8.247682">
        <ele>346.987</ele>
        <time>2022-08-23T09:15:06Z</time>
      </trkpt>
      <trkpt lat="42.918170" lon="-8.247745">
        <ele>347.217</ele>
        <time>2022-08-23T09:15:09Z</time>
      </trkpt>
      <trkpt lat="42.918182" lon="-8.247823">
        <ele>347.587</ele>
        <time>2022-08-23T09:15:13Z</time>
      </trkpt>
      <trkpt lat="42.918193" lon="-8.247897">
        <ele>347.831</ele>
        <time>2022-08-23T09:15:17Z</time>
      </trkpt>
      <trkpt lat="42.918211" lon="-8.247968">
        <ele>348.231</ele>
        <time>2022-08-23T09:15:21Z</time>
      </trkpt>
      <trkpt lat="42.918222" lon="-8.248038">
        <ele>348.792</ele>
        <time>2022-08-23T09:15:25Z</time>
      </trkpt>
      <trkpt lat="42.918237" lon="-8.248108">
        <ele>349.410</ele>
        <time>2022-08-23T09:15:29Z</time>
      </trkpt>
      <trkpt lat="42.918250" lon="-8.248180">
        <ele>349.683</ele>
        <time>2022-08-23T09:15:33Z</time>
      </trkpt>
      <trkpt lat="42.918269" lon="-8.248249">
        <ele>349.668</ele>
        <time>2022-08-23T09:15:37Z</time>
      </trkpt>
      <trkpt lat="42.918285" lon="-8.248312">
        <ele>349.768</ele>
        <time>2022-08-23T09:15:41Z</time>
      </trkpt>
      <trkpt lat="42.918301" lon="-8.248377">
        <ele>349.842</ele>
        <time>2022-08-23T09:15:45Z</time>
      </trkpt>
      <trkpt lat="42.918316" lon="-8.248444">
        <ele>349.926</ele>
        <time>2022-08-23T09:15:49Z</time>
      </trkpt>
      <trkpt lat="42.918332" lon="-8.248517">
        <ele>350.009</ele>
        <time>2022-08-23T09:15:53Z</time>
      </trkpt>
      <trkpt lat="42.918349" lon="-8.248586">
        <ele>350.147</ele>
        <time>2022-08-23T09:15:57Z</time>
      </trkpt>
      <trkpt lat="42.918363" lon="-8.248660">
        <ele>350.347</ele>
        <time>2022-08-23T09:16:01Z</time>
      </trkpt>
      <trkpt lat="42.918384" lon="-8.248734">
        <ele>350.767</ele>
        <time>2022-08-23T09:16:05Z</time>
      </trkpt>
      <trkpt lat="42.918395" lon="-8.248802">
        <ele>351.011</ele>
        <time>2022-08-23T09:16:09Z</time>
      </trkpt>
      <trkpt lat="42.918408" lon="-8.248874">
        <ele>351.371</ele>
        <time>2022-08-23T09:16:13Z</time>
      </trkpt>
      <trkpt lat="42.918420" lon="-8.248948">
        <ele>351.692</ele>
        <time>2022-08-23T09:16:17Z</time>
      </trkpt>
      <trkpt lat="42.918436" lon="-8.249012">
        <ele>351.890</ele>
        <time>2022-08-23T09:16:21Z</time>
      </trkpt>
      <trkpt lat="42.918447" lon="-8.249077">
        <ele>352.123</ele>
        <time>2022-08-23T09:16:25Z</time>
      </trkpt>
      <trkpt lat="42.918464" lon="-8.249146">
        <ele>352.528</ele>
        <time>2022-08-23T09:16:29Z</time>
      </trkpt>
      <trkpt lat="42.918480" lon="-8.249216">
        <ele>353.023</ele>
        <time>2022-08-23T09:16:33Z</time>
      </trkpt>
      <trkpt lat="42.918492" lon="-8.249289">
        <ele>353.483</ele>
        <time>2022-08-23T09:16:37Z</time>
      </trkpt>
      <trkpt lat="42.918499" lon="-8.249355">
        <ele>353.811</ele>
        <time>2022-08-23T09:16:41Z</time>
      </trkpt>
      <trkpt lat="42.918507" lon="-8.249427">
        <ele>354.209</ele>
        <time>2022-08-23T09:16:45Z</time>
      </trkpt>
      <trkpt lat="42.918516" lon="-8.249503">
        <ele>354.583</ele>
        <time>2022-08-23T09:16:49Z</time>
      </trkpt>
      <trkpt lat="42.918524" lon="-8.249571">
        <ele>354.833</ele>
        <time>2022-08-23T09:16:53Z</time>
      </trkpt>
      <trkpt lat="42.918523" lon="-8.249643">
        <ele>355.023</ele>
        <time>2022-08-23T09:16:57Z</time>
      </trkpt>
      <trkpt lat="42.918533" lon="-8.249712">
        <ele>355.227</ele>
        <time>2022-08-23T09:17:01Z</time>
      </trkpt>
      <trkpt lat="42.918552" lon="-8.249783">
        <ele>355.487</ele>
        <time>2022-08-23T09:17:05Z</time>
      </trkpt>
      <trkpt lat="42.918564" lon="-8.249855">
        <ele>355.768</ele>
        <time>2022-08-23T09:17:09Z</time>
      </trkpt>
      <trkpt lat="42.918575" lon="-8.249925">
        <ele>356.066</ele>
        <time>2022-08-23T09:17:13Z</time>
      </trkpt>
      <trkpt lat="42.918592" lon="-8.249984">
        <ele>356.389</ele>
        <time>2022-08-23T09:17:17Z</time>
      </trkpt>
      <trkpt lat="42.918606" lon="-8.250053">
        <ele>356.664</ele>
        <time>2022-08-23T09:17:21Z</time>
      </trkpt>
      <trkpt lat="42.918624" lon="-8.250117">
        <ele>356.888</ele>
        <time>2022-08-23T09:17:25Z</time>
      </trkpt>
      <trkpt lat="42.918638" lon="-8.250180">
        <ele>357.024</ele>
        <time>2022-08-23T09:17:29Z</time>
      </trkpt>
      <trkpt lat="42.918643" lon="-8.250255">
        <ele>357.126</ele>
        <time>2022-08-23T09:17:33Z</time>
      </trkpt>
      <trkpt lat="42.918657" lon="-8.250336">
        <ele>357.209</ele>
        <time>2022-08-23T09:17:37Z</time>
      </trkpt>
      <trkpt lat="42.918663" lon="-8.250399">
        <ele>357.319</ele>
        <time>2022-08-23T09:17:41Z</time>
      </trkpt>
      <trkpt lat="42.918688" lon="-8.250462">
        <ele>357.519</ele>
        <time>2022-08-23T09:17:46Z</time>
      </trkpt>
      <trkpt lat="42.918705" lon="-8.250534">
        <ele>357.789</ele>
        <time>2022-08-23T09:17:50Z</time>
      </trkpt>
      <trkpt lat="42.918717" lon="-8.250614">
        <ele>357.893</ele>
        <time>2022-08-23T09:17:54Z</time>
      </trkpt>
      <trkpt lat="42.918720" lon="-8.250691">
        <ele>358.013</ele>
        <time>2022-08-23T09:17:58Z</time>
      </trkpt>
      <trkpt lat="42.918735" lon="-8.250765">
        <ele>358.254</ele>
        <time>2022-08-23T09:18:02Z</time>
      </trkpt>
      <trkpt lat="42.918745" lon="-8.250840">
        <ele>358.532</ele>
        <time>2022-08-23T09:18:07Z</time>
      </trkpt>
      <trkpt lat="42.918760" lon="-8.250901">
        <ele>358.825</ele>
        <time>2022-08-23T09:18:11Z</time>
      </trkpt>
      <trkpt lat="42.918786" lon="-8.250952">
        <ele>359.060</ele>
        <time>2022-08-23T09:18:14Z</time>
      </trkpt>
      <trkpt lat="42.918816" lon="-8.251009">
        <ele>359.356</ele>
        <time>2022-08-23T09:18:19Z</time>
      </trkpt>
      <trkpt lat="42.918840" lon="-8.251072">
        <ele>359.559</ele>
        <time>2022-08-23T09:18:23Z</time>
      </trkpt>
      <trkpt lat="42.918863" lon="-8.251127">
        <ele>359.914</ele>
        <time>2022-08-23T09:18:26Z</time>
      </trkpt>
      <trkpt lat="42.918877" lon="-8.251187">
        <ele>360.309</ele>
        <time>2022-08-23T09:18:30Z</time>
      </trkpt>
      <trkpt lat="42.918889" lon="-8.251248">
        <ele>360.566</ele>
        <time>2022-08-23T09:18:33Z</time>
      </trkpt>
      <trkpt lat="42.918913" lon="-8.251303">
        <ele>360.846</ele>
        <time>2022-08-23T09:18:37Z</time>
      </trkpt>
      <trkpt lat="42.918943" lon="-8.251363">
        <ele>361.246</ele>
        <time>2022-08-23T09:18:41Z</time>
      </trkpt>
      <trkpt lat="42.918977" lon="-8.251405">
        <ele>361.690</ele>
        <time>2022-08-23T09:18:45Z</time>
      </trkpt>
      <trkpt lat="42.919016" lon="-8.251439">
        <ele>362.110</ele>
        <time>2022-08-23T09:18:47Z</time>
      </trkpt>
      <trkpt lat="42.919050" lon="-8.251493">
        <ele>362.611</ele>
        <time>2022-08-23T09:18:51Z</time>
      </trkpt>
      <trkpt lat="42.919083" lon="-8.251536">
        <ele>362.819</ele>
        <time>2022-08-23T09:18:54Z</time>
      </trkpt>
      <trkpt lat="42.919117" lon="-8.251590">
        <ele>363.182</ele>
        <time>2022-08-23T09:18:58Z</time>
      </trkpt>
      <trkpt lat="42.919145" lon="-8.251643">
        <ele>363.427</ele>
        <time>2022-08-23T09:19:01Z</time>
      </trkpt>
      <trkpt lat="42.919172" lon="-8.251709">
        <ele>363.636</ele>
        <time>2022-08-23T09:19:05Z</time>
      </trkpt>
      <trkpt lat="42.919205" lon="-8.251764">
        <ele>363.917</ele>
        <time>2022-08-23T09:19:09Z</time>
      </trkpt>
      <trkpt lat="42.919241" lon="-8.251815">
        <ele>364.218</ele>
        <time>2022-08-23T09:19:13Z</time>
      </trkpt>
      <trkpt lat="42.919272" lon="-8.251870">
        <ele>364.409</ele>
        <time>2022-08-23T09:19:17Z</time>
      </trkpt>
      <trkpt lat="42.919306" lon="-8.251921">
        <ele>364.584</ele>
        <time>2022-08-23T09:19:21Z</time>
      </trkpt>
      <trkpt lat="42.919342" lon="-8.251963">
        <ele>364.794</ele>
        <time>2022-08-23T09:19:25Z</time>
      </trkpt>
      <trkpt lat="42.919358" lon="-8.252025">
        <ele>364.944</ele>
        <time>2022-08-23T09:19:28Z</time>
      </trkpt>
      <trkpt lat="42.919384" lon="-8.252088">
        <ele>365.258</ele>
        <time>2022-08-23T09:19:32Z</time>
      </trkpt>
      <trkpt lat="42.919403" lon="-8.252144">
        <ele>365.748</ele>
        <time>2022-08-23T09:19:35Z</time>
      </trkpt>
      <trkpt lat="42.919406" lon="-8.252210">
        <ele>366.159</ele>
        <time>2022-08-23T09:19:39Z</time>
      </trkpt>
      <trkpt lat="42.919418" lon="-8.252280">
        <ele>366.327</ele>
        <time>2022-08-23T09:19:43Z</time>
      </trkpt>
      <trkpt lat="42.919446" lon="-8.252331">
        <ele>366.540</ele>
        <time>2022-08-23T09:19:47Z</time>
      </trkpt>
      <trkpt lat="42.919483" lon="-8.252391">
        <ele>366.855</ele>
        <time>2022-08-23T09:19:51Z</time>
      </trkpt>
      <trkpt lat="42.919524" lon="-8.252446">
        <ele>367.071</ele>
        <time>2022-08-23T09:19:55Z</time>
      </trkpt>
      <trkpt lat="42.919560" lon="-8.252506">
        <ele>367.441</ele>
        <time>2022-08-23T09:19:59Z</time>
      </trkpt>
      <trkpt lat="42.919592" lon="-8.252562">
        <ele>367.715</ele>
        <time>2022-08-23T09:20:03Z</time>
      </trkpt>
      <trkpt lat="42.919617" lon="-8.252626">
        <ele>367.909</ele>
        <time>2022-08-23T09:20:07Z</time>
      </trkpt>
      <trkpt lat="42.919646" lon="-8.252686">
        <ele>368.218</ele>
        <time>2022-08-23T09:20:11Z</time>
      </trkpt>
      <trkpt lat="42.919670" lon="-8.252740">
        <ele>368.418</ele>
        <time>2022-08-23T09:20:15Z</time>
      </trkpt>
      <trkpt lat="42.919708" lon="-8.252795">
        <ele>368.848</ele>
        <time>2022-08-23T09:20:19Z</time>
      </trkpt>
      <trkpt lat="42.919751" lon="-8.252825">
        <ele>369.242</ele>
        <time>2022-08-23T09:20:22Z</time>
      </trkpt>
      <trkpt lat="42.919804" lon="-8.252863">
        <ele>369.632</ele>
        <time>2022-08-23T09:20:26Z</time>
      </trkpt>
      <trkpt lat="42.919846" lon="-8.252891">
        <ele>369.953</ele>
        <time>2022-08-23T09:20:29Z</time>
      </trkpt>
      <trkpt lat="42.919889" lon="-8.252917">
        <ele>370.241</ele>
        <time>2022-08-23T09:20:32Z</time>
      </trkpt>
      <trkpt lat="42.919942" lon="-8.252951">
        <ele>370.594</ele>
        <time>2022-08-23T09:20:36Z</time>
      </trkpt>
      <trkpt lat="42.919992" lon="-8.252991">
        <ele>370.829</ele>
        <time>2022-08-23T09:20:40Z</time>
      </trkpt>
      <trkpt lat="42.920039" lon="-8.253037">
        <ele>371.123</ele>
        <time>2022-08-23T09:20:44Z</time>
      </trkpt>
      <trkpt lat="42.920086" lon="-8.253077">
        <ele>371.883</ele>
        <time>2022-08-23T09:20:48Z</time>
      </trkpt>
      <trkpt lat="42.920146" lon="-8.253081">
        <ele>372.211</ele>
        <time>2022-08-23T09:20:52Z</time>
      </trkpt>
      <trkpt lat="42.920201" lon="-8.253101">
        <ele>372.609</ele>
        <time>2022-08-23T09:20:56Z</time>
      </trkpt>
      <trkpt lat="42.920247" lon="-8.253118">
        <ele>372.853</ele>
        <time>2022-08-23T09:21:00Z</time>
      </trkpt>
      <trkpt lat="42.920303" lon="-8.253130">
        <ele>373.023</ele>
        <time>2022-08-23T09:21:05Z</time>
      </trkpt>
      <trkpt lat="42.920356" lon="-8.253152">
        <ele>373.193</ele>
        <time>2022-08-23T09:21:09Z</time>
      </trkpt>
      <trkpt lat="42.920399" lon="-8.253174">
        <ele>373.277</ele>
        <time>2022-08-23T09:21:12Z</time>
      </trkpt>
      <trkpt lat="42.920446" lon="-8.253212">
        <ele>373.417</ele>
        <time>2022-08-23T09:21:16Z</time>
      </trkpt>
      <trkpt lat="42.920480" lon="-8.253254">
        <ele>373.648</ele>
        <time>2022-08-23T09:21:19Z</time>
      </trkpt>
      <trkpt lat="42.920521" lon="-8.253312">
        <ele>373.756</ele>
        <time>2022-08-23T09:21:23Z</time>
      </trkpt>
      <trkpt lat="42.920564" lon="-8.253354">
        <ele>373.869</ele>
        <time>2022-08-23T09:21:27Z</time>
      </trkpt>
      <trkpt lat="42.920605" lon="-8.253401">
        <ele>374.014</ele>
        <time>2022-08-23T09:21:32Z</time>
      </trkpt>
      <trkpt lat="42.920642" lon="-8.253446">
        <ele>374.146</ele>
        <time>2022-08-23T09:21:36Z</time>
      </trkpt>
      <trkpt lat="42.920681" lon="-8.253501">
        <ele>374.188</ele>
        <time>2022-08-23T09:21:40Z</time>
      </trkpt>
      <trkpt lat="42.920718" lon="-8.253549">
        <ele>374.216</ele>
        <time>2022-08-23T09:21:44Z</time>
      </trkpt>
      <trkpt lat="42.920754" lon="-8.253602">
        <ele>374.309</ele>
        <time>2022-08-23T09:21:48Z</time>
      </trkpt>
      <trkpt lat="42.920795" lon="-8.253656">
        <ele>374.435</ele>
        <time>2022-08-23T09:21:52Z</time>
      </trkpt>
      <trkpt lat="42.920836" lon="-8.253692">
        <ele>374.615</ele>
        <time>2022-08-23T09:21:56Z</time>
      </trkpt>
      <trkpt lat="42.920881" lon="-8.253730">
        <ele>374.855</ele>
        <time>2022-08-23T09:22:00Z</time>
      </trkpt>
      <trkpt lat="42.920924" lon="-8.253782">
        <ele>375.049</ele>
        <time>2022-08-23T09:22:04Z</time>
      </trkpt>
      <trkpt lat="42.920966" lon="-8.253841">
        <ele>375.239</ele>
        <time>2022-08-23T09:22:08Z</time>
      </trkpt>
      <trkpt lat="42.921009" lon="-8.253885">
        <ele>375.470</ele>
        <time>2022-08-23T09:22:12Z</time>
      </trkpt>
      <trkpt lat="42.921045" lon="-8.253923">
        <ele>375.648</ele>
        <time>2022-08-23T09:22:15Z</time>
      </trkpt>
      <trkpt lat="42.921080" lon="-8.253988">
        <ele>375.851</ele>
        <time>2022-08-23T09:22:19Z</time>
      </trkpt>
      <trkpt lat="42.921124" lon="-8.254032">
        <ele>375.936</ele>
        <time>2022-08-23T09:22:23Z</time>
      </trkpt>
      <trkpt lat="42.921160" lon="-8.254100">
        <ele>375.939</ele>
        <time>2022-08-23T09:22:27Z</time>
      </trkpt>
      <trkpt lat="42.921179" lon="-8.254173">
        <ele>375.901</ele>
        <time>2022-08-23T09:22:31Z</time>
      </trkpt>
      <trkpt lat="42.921207" lon="-8.254245">
        <ele>376.021</ele>
        <time>2022-08-23T09:22:35Z</time>
      </trkpt>
      <trkpt lat="42.921222" lon="-8.254306">
        <ele>376.109</ele>
        <time>2022-08-23T09:22:38Z</time>
      </trkpt>
      <trkpt lat="42.921245" lon="-8.254361">
        <ele>376.484</ele>
        <time>2022-08-23T09:22:42Z</time>
      </trkpt>
      <trkpt lat="42.921275" lon="-8.254411">
        <ele>376.524</ele>
        <time>2022-08-23T09:22:45Z</time>
      </trkpt>
      <trkpt lat="42.921296" lon="-8.254470">
        <ele>376.874</ele>
        <time>2022-08-23T09:22:49Z</time>
      </trkpt>
      <trkpt lat="42.921328" lon="-8.254520">
        <ele>377.198</ele>
        <time>2022-08-23T09:22:52Z</time>
      </trkpt>
      <trkpt lat="42.921353" lon="-8.254576">
        <ele>377.438</ele>
        <time>2022-08-23T09:22:56Z</time>
      </trkpt>
      <trkpt lat="42.921364" lon="-8.254638">
        <ele>377.779</ele>
        <time>2022-08-23T09:23:00Z</time>
      </trkpt>
      <trkpt lat="42.921394" lon="-8.254699">
        <ele>378.227</ele>
        <time>2022-08-23T09:23:04Z</time>
      </trkpt>
      <trkpt lat="42.921425" lon="-8.254760">
        <ele>378.890</ele>
        <time>2022-08-23T09:23:08Z</time>
      </trkpt>
      <trkpt lat="42.921451" lon="-8.254815">
        <ele>379.245</ele>
        <time>2022-08-23T09:23:12Z</time>
      </trkpt>
      <trkpt lat="42.921472" lon="-8.254880">
        <ele>379.523</ele>
        <time>2022-08-23T09:23:16Z</time>
      </trkpt>
      <trkpt lat="42.921497" lon="-8.254950">
        <ele>379.783</ele>
        <time>2022-08-23T09:23:20Z</time>
      </trkpt>
      <trkpt lat="42.921525" lon="-8.255015">
        <ele>379.811</ele>
        <time>2022-08-23T09:23:24Z</time>
      </trkpt>
      <trkpt lat="42.921554" lon="-8.255079">
        <ele>379.909</ele>
        <time>2022-08-23T09:23:28Z</time>
      </trkpt>
      <trkpt lat="42.921571" lon="-8.255162">
        <ele>380.453</ele>
        <time>2022-08-23T09:23:33Z</time>
      </trkpt>
      <trkpt lat="42.921598" lon="-8.255222">
        <ele>380.663</ele>
        <time>2022-08-23T09:23:37Z</time>
      </trkpt>
      <trkpt lat="42.921606" lon="-8.255284">
        <ele>380.943</ele>
        <time>2022-08-23T09:23:40Z</time>
      </trkpt>
      <trkpt lat="42.921637" lon="-8.255342">
        <ele>381.187</ele>
        <time>2022-08-23T09:23:44Z</time>
      </trkpt>
      <trkpt lat="42.921655" lon="-8.255404">
        <ele>381.347</ele>
        <time>2022-08-23T09:23:48Z</time>
      </trkpt>
      <trkpt lat="42.921670" lon="-8.255472">
        <ele>381.388</ele>
        <time>2022-08-23T09:23:52Z</time>
      </trkpt>
      <trkpt lat="42.921693" lon="-8.255543">
        <ele>381.346</ele>
        <time>2022-08-23T09:23:57Z</time>
      </trkpt>
      <trkpt lat="42.921720" lon="-8.255609">
        <ele>381.389</ele>
        <time>2022-08-23T09:24:02Z</time>
      </trkpt>
      <trkpt lat="42.921753" lon="-8.255666">
        <ele>381.254</ele>
        <time>2022-08-23T09:24:07Z</time>
      </trkpt>
      <trkpt lat="42.921779" lon="-8.255722">
        <ele>381.274</ele>
        <time>2022-08-23T09:24:11Z</time>
      </trkpt>
      <trkpt lat="42.921800" lon="-8.255777">
        <ele>381.156</ele>
        <time>2022-08-23T09:24:15Z</time>
      </trkpt>
      <trkpt lat="42.921829" lon="-8.255838">
        <ele>380.921</ele>
        <time>2022-08-23T09:24:19Z</time>
      </trkpt>
      <trkpt lat="42.921851" lon="-8.255893">
        <ele>380.509</ele>
        <time>2022-08-23T09:24:23Z</time>
      </trkpt>
      <trkpt lat="42.921882" lon="-8.255960">
        <ele>380.068</ele>
        <time>2022-08-23T09:24:27Z</time>
      </trkpt>
      <trkpt lat="42.921907" lon="-8.256019">
        <ele>379.668</ele>
        <time>2022-08-23T09:24:30Z</time>
      </trkpt>
      <trkpt lat="42.921926" lon="-8.256075">
        <ele>379.218</ele>
        <time>2022-08-23T09:24:33Z</time>
      </trkpt>
      <trkpt lat="42.921948" lon="-8.256138">
        <ele>378.852</ele>
        <time>2022-08-23T09:24:37Z</time>
      </trkpt>
      <trkpt lat="42.921986" lon="-8.256189">
        <ele>378.572</ele>
        <time>2022-08-23T09:24:41Z</time>
      </trkpt>
      <trkpt lat="42.922013" lon="-8.256242">
        <ele>378.253</ele>
        <time>2022-08-23T09:24:44Z</time>
      </trkpt>
      <trkpt lat="42.922050" lon="-8.256304">
        <ele>377.941</ele>
        <time>2022-08-23T09:24:48Z</time>
      </trkpt>
      <trkpt lat="42.922078" lon="-8.256361">
        <ele>377.714</ele>
        <time>2022-08-23T09:24:52Z</time>
      </trkpt>
      <trkpt lat="42.922103" lon="-8.256414">
        <ele>377.589</ele>
        <time>2022-08-23T09:24:56Z</time>
      </trkpt>
      <trkpt lat="42.922127" lon="-8.256466">
        <ele>377.367</ele>
        <time>2022-08-23T09:25:00Z</time>
      </trkpt>
      <trkpt lat="42.922156" lon="-8.256520">
        <ele>377.181</ele>
        <time>2022-08-23T09:25:04Z</time>
      </trkpt>
      <trkpt lat="42.922186" lon="-8.256580">
        <ele>377.019</ele>
        <time>2022-08-23T09:25:08Z</time>
      </trkpt>
      <trkpt lat="42.922215" lon="-8.256645">
        <ele>376.909</ele>
        <time>2022-08-23T09:25:12Z</time>
      </trkpt>
      <trkpt lat="42.922243" lon="-8.256711">
        <ele>376.877</ele>
        <time>2022-08-23T09:25:16Z</time>
      </trkpt>
      <trkpt lat="42.922264" lon="-8.256778">
        <ele>376.887</ele>
        <time>2022-08-23T09:25:20Z</time>
      </trkpt>
      <trkpt lat="42.922281" lon="-8.256839">
        <ele>376.877</ele>
        <time>2022-08-23T09:25:25Z</time>
      </trkpt>
      <trkpt lat="42.922293" lon="-8.256901">
        <ele>376.881</ele>
        <time>2022-08-23T09:25:28Z</time>
      </trkpt>
      <trkpt lat="42.922309" lon="-8.256964">
        <ele>376.851</ele>
        <time>2022-08-23T09:25:31Z</time>
      </trkpt>
      <trkpt lat="42.922325" lon="-8.257034">
        <ele>376.812</ele>
        <time>2022-08-23T09:25:34Z</time>
      </trkpt>
      <trkpt lat="42.922335" lon="-8.257113">
        <ele>376.830</ele>
        <time>2022-08-23T09:25:37Z</time>
      </trkpt>
      <trkpt lat="42.922348" lon="-8.257191">
        <ele>376.843</ele>
        <time>2022-08-23T09:25:41Z</time>
      </trkpt>
      <trkpt lat="42.922346" lon="-8.257256">
        <ele>376.838</ele>
        <time>2022-08-23T09:25:44Z</time>
      </trkpt>
      <trkpt lat="42.922353" lon="-8.257318">
        <ele>376.843</ele>
        <time>2022-08-23T09:25:47Z</time>
      </trkpt>
      <trkpt lat="42.922359" lon="-8.257388">
        <ele>376.864</ele>
        <time>2022-08-23T09:25:51Z</time>
      </trkpt>
      <trkpt lat="42.922371" lon="-8.257458">
        <ele>376.810</ele>
        <time>2022-08-23T09:25:55Z</time>
      </trkpt>
      <trkpt lat="42.922379" lon="-8.257537">
        <ele>376.809</ele>
        <time>2022-08-23T09:25:59Z</time>
      </trkpt>
      <trkpt lat="42.922385" lon="-8.257605">
        <ele>376.855</ele>
        <time>2022-08-23T09:26:03Z</time>
      </trkpt>
      <trkpt lat="42.922394" lon="-8.257665">
        <ele>376.825</ele>
        <time>2022-08-23T09:26:07Z</time>
      </trkpt>
      <trkpt lat="42.922395" lon="-8.257734">
        <ele>376.865</ele>
        <time>2022-08-23T09:26:11Z</time>
      </trkpt>
      <trkpt lat="42.922408" lon="-8.257809">
        <ele>376.869</ele>
        <time>2022-08-23T09:26:16Z</time>
      </trkpt>
      <trkpt lat="42.922416" lon="-8.257883">
        <ele>376.889</ele>
        <time>2022-08-23T09:26:21Z</time>
      </trkpt>
      <trkpt lat="42.922425" lon="-8.257959">
        <ele>376.880</ele>
        <time>2022-08-23T09:26:25Z</time>
      </trkpt>
      <trkpt lat="42.922431" lon="-8.258031">
        <ele>376.968</ele>
        <time>2022-08-23T09:26:29Z</time>
      </trkpt>
      <trkpt lat="42.922436" lon="-8.258107">
        <ele>376.921</ele>
        <time>2022-08-23T09:26:33Z</time>
      </trkpt>
      <trkpt lat="42.922443" lon="-8.258177">
        <ele>377.086</ele>
        <time>2022-08-23T09:26:36Z</time>
      </trkpt>
      <trkpt lat="42.922449" lon="-8.258249">
        <ele>377.123</ele>
        <time>2022-08-23T09:26:40Z</time>
      </trkpt>
      <trkpt lat="42.922452" lon="-8.258328">
        <ele>377.183</ele>
        <time>2022-08-23T09:26:45Z</time>
      </trkpt>
      <trkpt lat="42.922453" lon="-8.258403">
        <ele>377.311</ele>
        <time>2022-08-23T09:26:49Z</time>
      </trkpt>
      <trkpt lat="42.922452" lon="-8.258471">
        <ele>377.409</ele>
        <time>2022-08-23T09:26:53Z</time>
      </trkpt>
      <trkpt lat="42.922451" lon="-8.258540">
        <ele>377.643</ele>
        <time>2022-08-23T09:26:57Z</time>
      </trkpt>
      <trkpt lat="42.922452" lon="-8.258607">
        <ele>377.723</ele>
        <time>2022-08-23T09:27:01Z</time>
      </trkpt>
      <trkpt lat="42.922448" lon="-8.258673">
        <ele>377.843</ele>
        <time>2022-08-23T09:27:05Z</time>
      </trkpt>
      <trkpt lat="42.922439" lon="-8.258740">
        <ele>377.967</ele>
        <time>2022-08-23T09:27:09Z</time>
      </trkpt>
      <trkpt lat="42.922419" lon="-8.258798">
        <ele>377.917</ele>
        <time>2022-08-23T09:27:14Z</time>
      </trkpt>
      <trkpt lat="42.922377" lon="-8.258836">
        <ele>377.988</ele>
        <time>2022-08-23T09:27:19Z</time>
      </trkpt>
      <trkpt lat="42.922350" lon="-8.258890">
        <ele>377.996</ele>
        <time>2022-08-23T09:27:23Z</time>
      </trkpt>
      <trkpt lat="42.922323" lon="-8.258949">
        <ele>377.799</ele>
        <time>2022-08-23T09:27:29Z</time>
      </trkpt>
      <trkpt lat="42.922301" lon="-8.259006">
        <ele>377.334</ele>
        <time>2022-08-23T09:27:40Z</time>
      </trkpt>
      <trkpt lat="42.922299" lon="-8.259069">
        <ele>377.085</ele>
        <time>2022-08-23T09:27:48Z</time>
      </trkpt>
      <trkpt lat="42.922346" lon="-8.258963">
        <ele>376.689</ele>
        <time>2022-08-23T09:30:39Z</time>
      </trkpt>
      <trkpt lat="42.922278" lon="-8.258985">
        <ele>376.317</ele>
        <time>2022-08-23T09:47:37Z</time>
      </trkpt>
      <trkpt lat="42.922325" lon="-8.258984">
        <ele>376.309</ele>
        <time>2022-08-23T09:47:52Z</time>
      </trkpt>
      <trkpt lat="42.922329" lon="-8.258913">
        <ele>376.369</ele>
        <time>2022-08-23T09:48:01Z</time>
      </trkpt>
      <trkpt lat="42.922370" lon="-8.258872">
        <ele>376.799</ele>
        <time>2022-08-23T09:48:06Z</time>
      </trkpt>
      <trkpt lat="42.922412" lon="-8.258927">
        <ele>376.929</ele>
        <time>2022-08-23T09:48:24Z</time>
      </trkpt>
      <trkpt lat="42.922430" lon="-8.258870">
        <ele>377.133</ele>
        <time>2022-08-23T09:50:23Z</time>
      </trkpt>
      <trkpt lat="42.922386" lon="-8.258853">
        <ele>377.693</ele>
        <time>2022-08-23T09:56:17Z</time>
      </trkpt>
      <trkpt lat="42.922349" lon="-8.258899">
        <ele>377.624</ele>
        <time>2022-08-23T09:56:22Z</time>
      </trkpt>
      <trkpt lat="42.922337" lon="-8.258976">
        <ele>377.622</ele>
        <time>2022-08-23T09:57:55Z</time>
      </trkpt>
      <trkpt lat="42.922344" lon="-8.259041">
        <ele>377.655</ele>
        <time>2022-08-23T09:58:00Z</time>
      </trkpt>
      <trkpt lat="42.922342" lon="-8.259110">
        <ele>377.370</ele>
        <time>2022-08-23T09:58:05Z</time>
      </trkpt>
      <trkpt lat="42.922345" lon="-8.259176">
        <ele>377.374</ele>
        <time>2022-08-23T09:58:10Z</time>
      </trkpt>
      <trkpt lat="42.922340" lon="-8.259250">
        <ele>377.256</ele>
        <time>2022-08-23T09:58:15Z</time>
      </trkpt>
      <trkpt lat="42.922343" lon="-8.259314">
        <ele>377.121</ele>
        <time>2022-08-23T09:58:19Z</time>
      </trkpt>
      <trkpt lat="42.922341" lon="-8.259380">
        <ele>376.909</ele>
        <time>2022-08-23T09:58:23Z</time>
      </trkpt>
      <trkpt lat="42.922336" lon="-8.259448">
        <ele>376.858</ele>
        <time>2022-08-23T09:58:27Z</time>
      </trkpt>
      <trkpt lat="42.922330" lon="-8.259526">
        <ele>376.788</ele>
        <time>2022-08-23T09:58:31Z</time>
      </trkpt>
      <trkpt lat="42.922332" lon="-8.259595">
        <ele>376.638</ele>
        <time>2022-08-23T09:58:35Z</time>
      </trkpt>
      <trkpt lat="42.922335" lon="-8.259659">
        <ele>376.592</ele>
        <time>2022-08-23T09:58:39Z</time>
      </trkpt>
      <trkpt lat="42.922329" lon="-8.259733">
        <ele>376.452</ele>
        <time>2022-08-23T09:58:43Z</time>
      </trkpt>
      <trkpt lat="42.922326" lon="-8.259808">
        <ele>376.363</ele>
        <time>2022-08-23T09:58:48Z</time>
      </trkpt>
      <trkpt lat="42.922324" lon="-8.259873">
        <ele>376.221</ele>
        <time>2022-08-23T09:58:52Z</time>
      </trkpt>
      <trkpt lat="42.922322" lon="-8.259948">
        <ele>375.994</ele>
        <time>2022-08-23T09:58:57Z</time>
      </trkpt>
      <trkpt lat="42.922319" lon="-8.260027">
        <ele>375.679</ele>
        <time>2022-08-23T09:59:02Z</time>
      </trkpt>
      <trkpt lat="42.922308" lon="-8.260097">
        <ele>375.652</ele>
        <time>2022-08-23T09:59:06Z</time>
      </trkpt>
      <trkpt lat="42.922321" lon="-8.260167">
        <ele>375.553</ele>
        <time>2022-08-23T09:59:11Z</time>
      </trkpt>
      <trkpt lat="42.922319" lon="-8.260237">
        <ele>375.208</ele>
        <time>2022-08-23T09:59:17Z</time>
      </trkpt>
      <trkpt lat="42.922329" lon="-8.260304">
        <ele>375.109</ele>
        <time>2022-08-23T09:59:21Z</time>
      </trkpt>
      <trkpt lat="42.922347" lon="-8.260365">
        <ele>374.916</ele>
        <time>2022-08-23T09:59:23Z</time>
      </trkpt>
      <trkpt lat="42.922365" lon="-8.260423">
        <ele>374.726</ele>
        <time>2022-08-23T09:59:27Z</time>
      </trkpt>
      <trkpt lat="42.922378" lon="-8.260496">
        <ele>374.626</ele>
        <time>2022-08-23T09:59:31Z</time>
      </trkpt>
      <trkpt lat="42.922402" lon="-8.260569">
        <ele>374.550</ele>
        <time>2022-08-23T09:59:35Z</time>
      </trkpt>
      <trkpt lat="42.922415" lon="-8.260641">
        <ele>374.360</ele>
        <time>2022-08-23T09:59:39Z</time>
      </trkpt>
      <trkpt lat="42.922425" lon="-8.260708">
        <ele>374.171</ele>
        <time>2022-08-23T09:59:43Z</time>
      </trkpt>
      <trkpt lat="42.922425" lon="-8.260775">
        <ele>374.029</ele>
        <time>2022-08-23T09:59:47Z</time>
      </trkpt>
      <trkpt lat="42.922433" lon="-8.260853">
        <ele>373.732</ele>
        <time>2022-08-23T09:59:51Z</time>
      </trkpt>
      <trkpt lat="42.922451" lon="-8.260924">
        <ele>373.617</ele>
        <time>2022-08-23T09:59:55Z</time>
      </trkpt>
      <trkpt lat="42.922464" lon="-8.260986">
        <ele>373.517</ele>
        <time>2022-08-23T09:59:58Z</time>
      </trkpt>
      <trkpt lat="42.922472" lon="-8.261059">
        <ele>373.487</ele>
        <time>2022-08-23T10:00:01Z</time>
      </trkpt>
      <trkpt lat="42.922484" lon="-8.261140">
        <ele>373.015</ele>
        <time>2022-08-23T10:00:06Z</time>
      </trkpt>
      <trkpt lat="42.922490" lon="-8.261208">
        <ele>372.809</ele>
        <time>2022-08-23T10:00:11Z</time>
      </trkpt>
      <trkpt lat="42.922493" lon="-8.261283">
        <ele>372.442</ele>
        <time>2022-08-23T10:00:15Z</time>
      </trkpt>
      <trkpt lat="42.922497" lon="-8.261354">
        <ele>372.022</ele>
        <time>2022-08-23T10:00:18Z</time>
      </trkpt>
      <trkpt lat="42.922500" lon="-8.261418">
        <ele>371.842</ele>
        <time>2022-08-23T10:00:21Z</time>
      </trkpt>
      <trkpt lat="42.922507" lon="-8.261482">
        <ele>371.566</ele>
        <time>2022-08-23T10:00:24Z</time>
      </trkpt>
      <trkpt lat="42.922509" lon="-8.261555">
        <ele>371.276</ele>
        <time>2022-08-23T10:00:29Z</time>
      </trkpt>
      <trkpt lat="42.922522" lon="-8.261615">
        <ele>370.937</ele>
        <time>2022-08-23T10:00:39Z</time>
      </trkpt>
      <trkpt lat="42.922548" lon="-8.261674">
        <ele>370.535</ele>
        <time>2022-08-23T10:00:43Z</time>
      </trkpt>
      <trkpt lat="42.922586" lon="-8.261721">
        <ele>370.178</ele>
        <time>2022-08-23T10:00:48Z</time>
      </trkpt>
      <trkpt lat="42.922625" lon="-8.261779">
        <ele>369.873</ele>
        <time>2022-08-23T10:00:54Z</time>
      </trkpt>
      <trkpt lat="42.922665" lon="-8.261831">
        <ele>369.595</ele>
        <time>2022-08-23T10:00:59Z</time>
      </trkpt>
      <trkpt lat="42.922700" lon="-8.261887">
        <ele>369.349</ele>
        <time>2022-08-23T10:01:04Z</time>
      </trkpt>
      <trkpt lat="42.922727" lon="-8.261951">
        <ele>369.023</ele>
        <time>2022-08-23T10:01:08Z</time>
      </trkpt>
      <trkpt lat="42.922742" lon="-8.262010">
        <ele>368.909</ele>
        <time>2022-08-23T10:01:13Z</time>
      </trkpt>
      <trkpt lat="42.922759" lon="-8.262080">
        <ele>368.560</ele>
        <time>2022-08-23T10:01:18Z</time>
      </trkpt>
      <trkpt lat="42.922787" lon="-8.262151">
        <ele>368.050</ele>
        <time>2022-08-23T10:01:23Z</time>
      </trkpt>
      <trkpt lat="42.922822" lon="-8.262223">
        <ele>367.260</ele>
        <time>2022-08-23T10:01:27Z</time>
      </trkpt>
      <trkpt lat="42.922850" lon="-8.262287">
        <ele>366.744</ele>
        <time>2022-08-23T10:01:30Z</time>
      </trkpt>
      <trkpt lat="42.922872" lon="-8.262343">
        <ele>366.564</ele>
        <time>2022-08-23T10:01:34Z</time>
      </trkpt>
      <trkpt lat="42.922881" lon="-8.262406">
        <ele>366.355</ele>
        <time>2022-08-23T10:01:38Z</time>
      </trkpt>
      <trkpt lat="42.922891" lon="-8.262472">
        <ele>366.163</ele>
        <time>2022-08-23T10:01:42Z</time>
      </trkpt>
      <trkpt lat="42.922902" lon="-8.262532">
        <ele>365.676</ele>
        <time>2022-08-23T10:01:45Z</time>
      </trkpt>
      <trkpt lat="42.922918" lon="-8.262591">
        <ele>364.971</ele>
        <time>2022-08-23T10:01:48Z</time>
      </trkpt>
      <trkpt lat="42.922938" lon="-8.262666">
        <ele>364.326</ele>
        <time>2022-08-23T10:01:52Z</time>
      </trkpt>
      <trkpt lat="42.922962" lon="-8.262742">
        <ele>363.947</ele>
        <time>2022-08-23T10:01:56Z</time>
      </trkpt>
      <trkpt lat="42.922978" lon="-8.262803">
        <ele>363.511</ele>
        <time>2022-08-23T10:01:59Z</time>
      </trkpt>
      <trkpt lat="42.922998" lon="-8.262869">
        <ele>363.109</ele>
        <time>2022-08-23T10:02:03Z</time>
      </trkpt>
      <trkpt lat="42.923017" lon="-8.262941">
        <ele>362.753</ele>
        <time>2022-08-23T10:02:07Z</time>
      </trkpt>
      <trkpt lat="42.923036" lon="-8.263007">
        <ele>362.683</ele>
        <time>2022-08-23T10:02:10Z</time>
      </trkpt>
      <trkpt lat="42.923046" lon="-8.263084">
        <ele>362.423</ele>
        <time>2022-08-23T10:02:13Z</time>
      </trkpt>
      <trkpt lat="42.923069" lon="-8.263151">
        <ele>362.297</ele>
        <time>2022-08-23T10:02:16Z</time>
      </trkpt>
      <trkpt lat="42.923087" lon="-8.263214">
        <ele>362.197</ele>
        <time>2022-08-23T10:02:19Z</time>
      </trkpt>
      <trkpt lat="42.923104" lon="-8.263284">
        <ele>362.038</ele>
        <time>2022-08-23T10:02:22Z</time>
      </trkpt>
      <trkpt lat="42.923115" lon="-8.263349">
        <ele>361.966</ele>
        <time>2022-08-23T10:02:25Z</time>
      </trkpt>
      <trkpt lat="42.923129" lon="-8.263415">
        <ele>361.929</ele>
        <time>2022-08-23T10:02:28Z</time>
      </trkpt>
      <trkpt lat="42.923149" lon="-8.263480">
        <ele>361.924</ele>
        <time>2022-08-23T10:02:31Z</time>
      </trkpt>
      <trkpt lat="42.923171" lon="-8.263553">
        <ele>361.911</ele>
        <time>2022-08-23T10:02:35Z</time>
      </trkpt>
      <trkpt lat="42.923193" lon="-8.263626">
        <ele>361.921</ele>
        <time>2022-08-23T10:02:39Z</time>
      </trkpt>
      <trkpt lat="42.923210" lon="-8.263684">
        <ele>361.803</ele>
        <time>2022-08-23T10:02:43Z</time>
      </trkpt>
      <trkpt lat="42.923227" lon="-8.263747">
        <ele>361.609</ele>
        <time>2022-08-23T10:02:46Z</time>
      </trkpt>
      <trkpt lat="42.923249" lon="-8.263816">
        <ele>361.582</ele>
        <time>2022-08-23T10:02:50Z</time>
      </trkpt>
      <trkpt lat="42.923265" lon="-8.263881">
        <ele>361.582</ele>
        <time>2022-08-23T10:02:53Z</time>
      </trkpt>
      <trkpt lat="42.923286" lon="-8.263956">
        <ele>361.562</ele>
        <time>2022-08-23T10:02:57Z</time>
      </trkpt>
      <trkpt lat="42.923301" lon="-8.264031">
        <ele>361.666</ele>
        <time>2022-08-23T10:03:02Z</time>
      </trkpt>
      <trkpt lat="42.923313" lon="-8.264093">
        <ele>361.776</ele>
        <time>2022-08-23T10:03:05Z</time>
      </trkpt>
      <trkpt lat="42.923330" lon="-8.264163">
        <ele>361.897</ele>
        <time>2022-08-23T10:03:09Z</time>
      </trkpt>
      <trkpt lat="42.923340" lon="-8.264233">
        <ele>361.835</ele>
        <time>2022-08-23T10:03:13Z</time>
      </trkpt>
      <trkpt lat="42.923355" lon="-8.264291">
        <ele>361.838</ele>
        <time>2022-08-23T10:03:16Z</time>
      </trkpt>
      <trkpt lat="42.923378" lon="-8.264366">
        <ele>361.823</ele>
        <time>2022-08-23T10:03:20Z</time>
      </trkpt>
      <trkpt lat="42.923398" lon="-8.264442">
        <ele>361.887</ele>
        <time>2022-08-23T10:03:24Z</time>
      </trkpt>
      <trkpt lat="42.923418" lon="-8.264507">
        <ele>361.942</ele>
        <time>2022-08-23T10:03:28Z</time>
      </trkpt>
      <trkpt lat="42.923434" lon="-8.264582">
        <ele>362.226</ele>
        <time>2022-08-23T10:03:32Z</time>
      </trkpt>
      <trkpt lat="42.923459" lon="-8.264658">
        <ele>362.409</ele>
        <time>2022-08-23T10:03:36Z</time>
      </trkpt>
      <trkpt lat="42.923478" lon="-8.264720">
        <ele>362.429</ele>
        <time>2022-08-23T10:03:40Z</time>
      </trkpt>
      <trkpt lat="42.923492" lon="-8.264791">
        <ele>362.689</ele>
        <time>2022-08-23T10:03:44Z</time>
      </trkpt>
      <trkpt lat="42.923510" lon="-8.264863">
        <ele>362.749</ele>
        <time>2022-08-23T10:03:48Z</time>
      </trkpt>
      <trkpt lat="42.923530" lon="-8.264920">
        <ele>362.813</ele>
        <time>2022-08-23T10:03:51Z</time>
      </trkpt>
      <trkpt lat="42.923555" lon="-8.264985">
        <ele>363.083</ele>
        <time>2022-08-23T10:03:55Z</time>
      </trkpt>
      <trkpt lat="42.923586" lon="-8.265047">
        <ele>363.394</ele>
        <time>2022-08-23T10:03:59Z</time>
      </trkpt>
      <trkpt lat="42.923607" lon="-8.265117">
        <ele>363.562</ele>
        <time>2022-08-23T10:04:03Z</time>
      </trkpt>
      <trkpt lat="42.923612" lon="-8.265185">
        <ele>363.865</ele>
        <time>2022-08-23T10:04:07Z</time>
      </trkpt>
      <trkpt lat="42.923608" lon="-8.265260">
        <ele>363.960</ele>
        <time>2022-08-23T10:04:11Z</time>
      </trkpt>
      <trkpt lat="42.923600" lon="-8.265325">
        <ele>363.814</ele>
        <time>2022-08-23T10:04:15Z</time>
      </trkpt>
      <trkpt lat="42.923597" lon="-8.265391">
        <ele>363.854</ele>
        <time>2022-08-23T10:04:20Z</time>
      </trkpt>
      <trkpt lat="42.923609" lon="-8.265453">
        <ele>363.609</ele>
        <time>2022-08-23T10:04:25Z</time>
      </trkpt>
      <trkpt lat="42.923614" lon="-8.265523">
        <ele>363.509</ele>
        <time>2022-08-23T10:04:30Z</time>
      </trkpt>
      <trkpt lat="42.923616" lon="-8.265592">
        <ele>363.552</ele>
        <time>2022-08-23T10:04:35Z</time>
      </trkpt>
      <trkpt lat="42.923623" lon="-8.265660">
        <ele>363.592</ele>
        <time>2022-08-23T10:04:38Z</time>
      </trkpt>
      <trkpt lat="42.923622" lon="-8.265722">
        <ele>363.512</ele>
        <time>2022-08-23T10:04:41Z</time>
      </trkpt>
      <trkpt lat="42.923625" lon="-8.265803">
        <ele>363.576</ele>
        <time>2022-08-23T10:04:45Z</time>
      </trkpt>
      <trkpt lat="42.923616" lon="-8.265883">
        <ele>363.526</ele>
        <time>2022-08-23T10:04:50Z</time>
      </trkpt>
      <trkpt lat="42.923609" lon="-8.265951">
        <ele>363.577</ele>
        <time>2022-08-23T10:04:54Z</time>
      </trkpt>
      <trkpt lat="42.923598" lon="-8.266013">
        <ele>363.535</ele>
        <time>2022-08-23T10:04:57Z</time>
      </trkpt>
      <trkpt lat="42.923592" lon="-8.266085">
        <ele>363.518</ele>
        <time>2022-08-23T10:05:01Z</time>
      </trkpt>
      <trkpt lat="42.923574" lon="-8.266154">
        <ele>363.613</ele>
        <time>2022-08-23T10:05:05Z</time>
      </trkpt>
      <trkpt lat="42.923544" lon="-8.266222">
        <ele>363.897</ele>
        <time>2022-08-23T10:05:09Z</time>
      </trkpt>
      <trkpt lat="42.923531" lon="-8.266287">
        <ele>364.123</ele>
        <time>2022-08-23T10:05:13Z</time>
      </trkpt>
      <trkpt lat="42.923515" lon="-8.266350">
        <ele>364.425</ele>
        <time>2022-08-23T10:05:17Z</time>
      </trkpt>
      <trkpt lat="42.923488" lon="-8.266416">
        <ele>364.709</ele>
        <time>2022-08-23T10:05:21Z</time>
      </trkpt>
      <trkpt lat="42.923486" lon="-8.266493">
        <ele>364.950</ele>
        <time>2022-08-23T10:05:25Z</time>
      </trkpt>
      <trkpt lat="42.923487" lon="-8.266559">
        <ele>365.120</ele>
        <time>2022-08-23T10:05:29Z</time>
      </trkpt>
      <trkpt lat="42.923484" lon="-8.266620">
        <ele>365.330</ele>
        <time>2022-08-23T10:05:33Z</time>
      </trkpt>
      <trkpt lat="42.923488" lon="-8.266693">
        <ele>365.544</ele>
        <time>2022-08-23T10:05:37Z</time>
      </trkpt>
      <trkpt lat="42.923490" lon="-8.266762">
        <ele>365.734</ele>
        <time>2022-08-23T10:05:41Z</time>
      </trkpt>
      <trkpt lat="42.923498" lon="-8.266838">
        <ele>365.915</ele>
        <time>2022-08-23T10:05:45Z</time>
      </trkpt>
      <trkpt lat="42.923508" lon="-8.266910">
        <ele>366.213</ele>
        <time>2022-08-23T10:05:48Z</time>
      </trkpt>
      <trkpt lat="42.923520" lon="-8.266980">
        <ele>366.546</ele>
        <time>2022-08-23T10:05:52Z</time>
      </trkpt>
      <trkpt lat="42.923543" lon="-8.267050">
        <ele>366.811</ele>
        <time>2022-08-23T10:05:56Z</time>
      </trkpt>
      <trkpt lat="42.923566" lon="-8.267118">
        <ele>367.144</ele>
        <time>2022-08-23T10:06:00Z</time>
      </trkpt>
      <trkpt lat="42.923590" lon="-8.267173">
        <ele>367.205</ele>
        <time>2022-08-23T10:06:03Z</time>
      </trkpt>
      <trkpt lat="42.923614" lon="-8.267230">
        <ele>367.415</ele>
        <time>2022-08-23T10:06:07Z</time>
      </trkpt>
      <trkpt lat="42.923631" lon="-8.267295">
        <ele>367.609</ele>
        <time>2022-08-23T10:06:11Z</time>
      </trkpt>
      <trkpt lat="42.923653" lon="-8.267349">
        <ele>367.875</ele>
        <time>2022-08-23T10:06:15Z</time>
      </trkpt>
      <trkpt lat="42.923680" lon="-8.267400">
        <ele>368.155</ele>
        <time>2022-08-23T10:06:19Z</time>
      </trkpt>
      <trkpt lat="42.923703" lon="-8.267454">
        <ele>368.465</ele>
        <time>2022-08-23T10:06:23Z</time>
      </trkpt>
      <trkpt lat="42.923728" lon="-8.267515">
        <ele>368.769</ele>
        <time>2022-08-23T10:06:27Z</time>
      </trkpt>
      <trkpt lat="42.923756" lon="-8.267579">
        <ele>368.919</ele>
        <time>2022-08-23T10:06:31Z</time>
      </trkpt>
      <trkpt lat="42.923800" lon="-8.267634">
        <ele>369.270</ele>
        <time>2022-08-23T10:06:35Z</time>
      </trkpt>
      <trkpt lat="42.923835" lon="-8.267690">
        <ele>369.548</ele>
        <time>2022-08-23T10:06:39Z</time>
      </trkpt>
      <trkpt lat="42.923872" lon="-8.267743">
        <ele>369.941</ele>
        <time>2022-08-23T10:06:43Z</time>
      </trkpt>
      <trkpt lat="42.923912" lon="-8.267786">
        <ele>370.186</ele>
        <time>2022-08-23T10:06:47Z</time>
      </trkpt>
      <trkpt lat="42.923949" lon="-8.267837">
        <ele>370.319</ele>
        <time>2022-08-23T10:06:52Z</time>
      </trkpt>
      <trkpt lat="42.923986" lon="-8.267879">
        <ele>370.409</ele>
        <time>2022-08-23T10:06:56Z</time>
      </trkpt>
      <trkpt lat="42.924015" lon="-8.267926">
        <ele>370.619</ele>
        <time>2022-08-23T10:07:00Z</time>
      </trkpt>
      <trkpt lat="42.924053" lon="-8.267978">
        <ele>370.809</ele>
        <time>2022-08-23T10:07:05Z</time>
      </trkpt>
      <trkpt lat="42.924088" lon="-8.268034">
        <ele>371.082</ele>
        <time>2022-08-23T10:07:10Z</time>
      </trkpt>
      <trkpt lat="42.924122" lon="-8.268082">
        <ele>371.342</ele>
        <time>2022-08-23T10:07:14Z</time>
      </trkpt>
      <trkpt lat="42.924155" lon="-8.268130">
        <ele>371.662</ele>
        <time>2022-08-23T10:07:18Z</time>
      </trkpt>
      <trkpt lat="42.924200" lon="-8.268182">
        <ele>371.866</ele>
        <time>2022-08-23T10:07:23Z</time>
      </trkpt>
      <trkpt lat="42.924228" lon="-8.268230">
        <ele>372.076</ele>
        <time>2022-08-23T10:07:26Z</time>
      </trkpt>
      <trkpt lat="42.924276" lon="-8.268278">
        <ele>372.277</ele>
        <time>2022-08-23T10:07:30Z</time>
      </trkpt>
      <trkpt lat="42.924318" lon="-8.268328">
        <ele>372.425</ele>
        <time>2022-08-23T10:07:34Z</time>
      </trkpt>
      <trkpt lat="42.924357" lon="-8.268368">
        <ele>372.618</ele>
        <time>2022-08-23T10:07:38Z</time>
      </trkpt>
      <trkpt lat="42.924400" lon="-8.268397">
        <ele>372.823</ele>
        <time>2022-08-23T10:07:42Z</time>
      </trkpt>
      <trkpt lat="42.924439" lon="-8.268430">
        <ele>373.061</ele>
        <time>2022-08-23T10:07:46Z</time>
      </trkpt>
      <trkpt lat="42.924483" lon="-8.268460">
        <ele>373.321</ele>
        <time>2022-08-23T10:07:50Z</time>
      </trkpt>
      <trkpt lat="42.924530" lon="-8.268492">
        <ele>373.613</ele>
        <time>2022-08-23T10:07:54Z</time>
      </trkpt>
      <trkpt lat="42.924580" lon="-8.268517">
        <ele>373.909</ele>
        <time>2022-08-23T10:07:58Z</time>
      </trkpt>
      <trkpt lat="42.924626" lon="-8.268557">
        <ele>374.237</ele>
        <time>2022-08-23T10:08:02Z</time>
      </trkpt>
      <trkpt lat="42.924670" lon="-8.268589">
        <ele>374.487</ele>
        <time>2022-08-23T10:08:06Z</time>
      </trkpt>
      <trkpt lat="42.924714" lon="-8.268628">
        <ele>374.517</ele>
        <time>2022-08-23T10:08:11Z</time>
      </trkpt>
      <trkpt lat="42.924746" lon="-8.268682">
        <ele>374.621</ele>
        <time>2022-08-23T10:08:16Z</time>
      </trkpt>
      <trkpt lat="42.924780" lon="-8.268734">
        <ele>374.871</ele>
        <time>2022-08-23T10:08:21Z</time>
      </trkpt>
      <trkpt lat="42.924808" lon="-8.268793">
        <ele>375.022</ele>
        <time>2022-08-23T10:08:25Z</time>
      </trkpt>
      <trkpt lat="42.924835" lon="-8.268852">
        <ele>375.230</ele>
        <time>2022-08-23T10:08:29Z</time>
      </trkpt>
      <trkpt lat="42.924858" lon="-8.268918">
        <ele>375.483</ele>
        <time>2022-08-23T10:08:33Z</time>
      </trkpt>
      <trkpt lat="42.924876" lon="-8.268986">
        <ele>375.458</ele>
        <time>2022-08-23T10:08:37Z</time>
      </trkpt>
      <trkpt lat="42.924898" lon="-8.269042">
        <ele>375.418</ele>
        <time>2022-08-23T10:08:41Z</time>
      </trkpt>
      <trkpt lat="42.924925" lon="-8.269113">
        <ele>375.498</ele>
        <time>2022-08-23T10:08:45Z</time>
      </trkpt>
      <trkpt lat="42.924952" lon="-8.269184">
        <ele>375.217</ele>
        <time>2022-08-23T10:08:49Z</time>
      </trkpt>
      <trkpt lat="42.924966" lon="-8.269256">
        <ele>375.109</ele>
        <time>2022-08-23T10:08:53Z</time>
      </trkpt>
      <trkpt lat="42.924988" lon="-8.269329">
        <ele>375.072</ele>
        <time>2022-08-23T10:08:57Z</time>
      </trkpt>
      <trkpt lat="42.925000" lon="-8.269393">
        <ele>374.922</ele>
        <time>2022-08-23T10:09:00Z</time>
      </trkpt>
      <trkpt lat="42.925015" lon="-8.269454">
        <ele>374.862</ele>
        <time>2022-08-23T10:09:03Z</time>
      </trkpt>
      <trkpt lat="42.925025" lon="-8.269520">
        <ele>374.586</ele>
        <time>2022-08-23T10:09:07Z</time>
      </trkpt>
      <trkpt lat="42.925026" lon="-8.269582">
        <ele>374.366</ele>
        <time>2022-08-23T10:09:11Z</time>
      </trkpt>
      <trkpt lat="42.925031" lon="-8.269653">
        <ele>374.147</ele>
        <time>2022-08-23T10:09:16Z</time>
      </trkpt>
      <trkpt lat="42.925043" lon="-8.269723">
        <ele>373.915</ele>
        <time>2022-08-23T10:09:20Z</time>
      </trkpt>
      <trkpt lat="42.925051" lon="-8.269794">
        <ele>373.758</ele>
        <time>2022-08-23T10:09:25Z</time>
      </trkpt>
      <trkpt lat="42.925060" lon="-8.269855">
        <ele>373.673</ele>
        <time>2022-08-23T10:09:29Z</time>
      </trkpt>
      <trkpt lat="42.925072" lon="-8.269915">
        <ele>373.561</ele>
        <time>2022-08-23T10:09:32Z</time>
      </trkpt>
      <trkpt lat="42.925087" lon="-8.269973">
        <ele>373.421</ele>
        <time>2022-08-23T10:09:36Z</time>
      </trkpt>
      <trkpt lat="42.925093" lon="-8.270044">
        <ele>373.313</ele>
        <time>2022-08-23T10:09:41Z</time>
      </trkpt>
      <trkpt lat="42.925097" lon="-8.270124">
        <ele>373.309</ele>
        <time>2022-08-23T10:09:47Z</time>
      </trkpt>
      <trkpt lat="42.925101" lon="-8.270189">
        <ele>373.367</ele>
        <time>2022-08-23T10:09:51Z</time>
      </trkpt>
      <trkpt lat="42.925113" lon="-8.270264">
        <ele>373.377</ele>
        <time>2022-08-23T10:09:55Z</time>
      </trkpt>
      <trkpt lat="42.925137" lon="-8.270350">
        <ele>373.397</ele>
        <time>2022-08-23T10:09:59Z</time>
      </trkpt>
      <trkpt lat="42.925154" lon="-8.270407">
        <ele>373.261</ele>
        <time>2022-08-23T10:10:02Z</time>
      </trkpt>
      <trkpt lat="42.925173" lon="-8.270483">
        <ele>373.111</ele>
        <time>2022-08-23T10:10:06Z</time>
      </trkpt>
      <trkpt lat="42.925184" lon="-8.270546">
        <ele>373.012</ele>
        <time>2022-08-23T10:10:09Z</time>
      </trkpt>
      <trkpt lat="42.925199" lon="-8.270608">
        <ele>373.070</ele>
        <time>2022-08-23T10:10:12Z</time>
      </trkpt>
      <trkpt lat="42.925214" lon="-8.270683">
        <ele>373.073</ele>
        <time>2022-08-23T10:10:16Z</time>
      </trkpt>
      <trkpt lat="42.925225" lon="-8.270755">
        <ele>373.078</ele>
        <time>2022-08-23T10:10:20Z</time>
      </trkpt>
      <trkpt lat="42.925238" lon="-8.270824">
        <ele>373.024</ele>
        <time>2022-08-23T10:10:24Z</time>
      </trkpt>
      <trkpt lat="42.925240" lon="-8.270897">
        <ele>372.904</ele>
        <time>2022-08-23T10:10:28Z</time>
      </trkpt>
      <trkpt lat="42.925250" lon="-8.270964">
        <ele>372.814</ele>
        <time>2022-08-23T10:10:33Z</time>
      </trkpt>
      <trkpt lat="42.925254" lon="-8.271038">
        <ele>372.709</ele>
        <time>2022-08-23T10:10:38Z</time>
      </trkpt>
      <trkpt lat="42.925259" lon="-8.271108">
        <ele>372.713</ele>
        <time>2022-08-23T10:10:42Z</time>
      </trkpt>
      <trkpt lat="42.925268" lon="-8.271172">
        <ele>372.753</ele>
        <time>2022-08-23T10:10:46Z</time>
      </trkpt>
      <trkpt lat="42.925268" lon="-8.271238">
        <ele>372.743</ele>
        <time>2022-08-23T10:10:50Z</time>
      </trkpt>
      <trkpt lat="42.925274" lon="-8.271309">
        <ele>372.787</ele>
        <time>2022-08-23T10:10:53Z</time>
      </trkpt>
      <trkpt lat="42.925284" lon="-8.271385">
        <ele>372.737</ele>
        <time>2022-08-23T10:10:57Z</time>
      </trkpt>
      <trkpt lat="42.925298" lon="-8.271452">
        <ele>372.748</ele>
        <time>2022-08-23T10:11:00Z</time>
      </trkpt>
      <trkpt lat="42.925318" lon="-8.271513">
        <ele>372.766</ele>
        <time>2022-08-23T10:11:04Z</time>
      </trkpt>
      <trkpt lat="42.925335" lon="-8.271575">
        <ele>372.749</ele>
        <time>2022-08-23T10:11:08Z</time>
      </trkpt>
      <trkpt lat="42.925342" lon="-8.271637">
        <ele>372.774</ele>
        <time>2022-08-23T10:11:11Z</time>
      </trkpt>
      <trkpt lat="42.925351" lon="-8.271707">
        <ele>372.774</ele>
        <time>2022-08-23T10:11:14Z</time>
      </trkpt>
      <trkpt lat="42.925362" lon="-8.271783">
        <ele>372.756</ele>
        <time>2022-08-23T10:11:18Z</time>
      </trkpt>
      <trkpt lat="42.925381" lon="-8.271859">
        <ele>372.721</ele>
        <time>2022-08-23T10:11:22Z</time>
      </trkpt>
      <trkpt lat="42.925391" lon="-8.271922">
        <ele>372.709</ele>
        <time>2022-08-23T10:11:26Z</time>
      </trkpt>
      <trkpt lat="42.925407" lon="-8.271992">
        <ele>372.768</ele>
        <time>2022-08-23T10:11:30Z</time>
      </trkpt>
      <trkpt lat="42.925421" lon="-8.272061">
        <ele>372.798</ele>
        <time>2022-08-23T10:11:34Z</time>
      </trkpt>
      <trkpt lat="42.925429" lon="-8.272129">
        <ele>372.848</ele>
        <time>2022-08-23T10:11:39Z</time>
      </trkpt>
      <trkpt lat="42.925434" lon="-8.272198">
        <ele>372.922</ele>
        <time>2022-08-23T10:11:43Z</time>
      </trkpt>
      <trkpt lat="42.925451" lon="-8.272264">
        <ele>373.042</ele>
        <time>2022-08-23T10:11:46Z</time>
      </trkpt>
      <trkpt lat="42.925458" lon="-8.272328">
        <ele>373.123</ele>
        <time>2022-08-23T10:11:49Z</time>
      </trkpt>
      <trkpt lat="42.925470" lon="-8.272391">
        <ele>373.141</ele>
        <time>2022-08-23T10:11:52Z</time>
      </trkpt>
      <trkpt lat="42.925484" lon="-8.272456">
        <ele>373.174</ele>
        <time>2022-08-23T10:11:55Z</time>
      </trkpt>
      <trkpt lat="42.925499" lon="-8.272527">
        <ele>373.129</ele>
        <time>2022-08-23T10:11:59Z</time>
      </trkpt>
      <trkpt lat="42.925520" lon="-8.272602">
        <ele>373.117</ele>
        <time>2022-08-23T10:12:03Z</time>
      </trkpt>
      <trkpt lat="42.925543" lon="-8.272666">
        <ele>373.187</ele>
        <time>2022-08-23T10:12:07Z</time>
      </trkpt>
      <trkpt lat="42.925562" lon="-8.272726">
        <ele>373.015</ele>
        <time>2022-08-23T10:12:10Z</time>
      </trkpt>
      <trkpt lat="42.925578" lon="-8.272786">
        <ele>372.909</ele>
        <time>2022-08-23T10:12:13Z</time>
      </trkpt>
      <trkpt lat="42.925595" lon="-8.272851">
        <ele>372.772</ele>
        <time>2022-08-23T10:12:16Z</time>
      </trkpt>
      <trkpt lat="42.925604" lon="-8.272925">
        <ele>372.542</ele>
        <time>2022-08-23T10:12:20Z</time>
      </trkpt>
      <trkpt lat="42.925626" lon="-8.272998">
        <ele>372.272</ele>
        <time>2022-08-23T10:12:24Z</time>
      </trkpt>
      <trkpt lat="42.925645" lon="-8.273064">
        <ele>371.926</ele>
        <time>2022-08-23T10:12:28Z</time>
      </trkpt>
      <trkpt lat="42.925653" lon="-8.273132">
        <ele>371.746</ele>
        <time>2022-08-23T10:12:32Z</time>
      </trkpt>
      <trkpt lat="42.925672" lon="-8.273201">
        <ele>371.627</ele>
        <time>2022-08-23T10:12:36Z</time>
      </trkpt>
      <trkpt lat="42.925682" lon="-8.273279">
        <ele>371.635</ele>
        <time>2022-08-23T10:12:40Z</time>
      </trkpt>
      <trkpt lat="42.925695" lon="-8.273351">
        <ele>371.698</ele>
        <time>2022-08-23T10:12:45Z</time>
      </trkpt>
      <trkpt lat="42.925709" lon="-8.273419">
        <ele>371.553</ele>
        <time>2022-08-23T10:12:50Z</time>
      </trkpt>
      <trkpt lat="42.925728" lon="-8.273489">
        <ele>371.235</ele>
        <time>2022-08-23T10:12:54Z</time>
      </trkpt>
      <trkpt lat="42.925731" lon="-8.273561">
        <ele>370.986</ele>
        <time>2022-08-23T10:12:59Z</time>
      </trkpt>
      <trkpt lat="42.925747" lon="-8.273619">
        <ele>370.814</ele>
        <time>2022-08-23T10:13:02Z</time>
      </trkpt>
      <trkpt lat="42.925772" lon="-8.273692">
        <ele>370.609</ele>
        <time>2022-08-23T10:13:06Z</time>
      </trkpt>
      <trkpt lat="42.925792" lon="-8.273762">
        <ele>370.564</ele>
        <time>2022-08-23T10:13:10Z</time>
      </trkpt>
      <trkpt lat="42.925813" lon="-8.273817">
        <ele>370.564</ele>
        <time>2022-08-23T10:13:13Z</time>
      </trkpt>
      <trkpt lat="42.925835" lon="-8.273886">
        <ele>370.554</ele>
        <time>2022-08-23T10:13:17Z</time>
      </trkpt>
      <trkpt lat="42.925866" lon="-8.273942">
        <ele>370.518</ele>
        <time>2022-08-23T10:13:21Z</time>
      </trkpt>
      <trkpt lat="42.925894" lon="-8.273999">
        <ele>370.498</ele>
        <time>2022-08-23T10:13:25Z</time>
      </trkpt>
      <trkpt lat="42.925927" lon="-8.274053">
        <ele>370.229</ele>
        <time>2022-08-23T10:13:29Z</time>
      </trkpt>
      <trkpt lat="42.925953" lon="-8.274103">
        <ele>369.967</ele>
        <time>2022-08-23T10:13:34Z</time>
      </trkpt>
      <trkpt lat="42.925993" lon="-8.274149">
        <ele>369.550</ele>
        <time>2022-08-23T10:13:38Z</time>
      </trkpt>
      <trkpt lat="42.926035" lon="-8.274184">
        <ele>369.425</ele>
        <time>2022-08-23T10:13:41Z</time>
      </trkpt>
      <trkpt lat="42.926073" lon="-8.274223">
        <ele>369.425</ele>
        <time>2022-08-23T10:13:44Z</time>
      </trkpt>
      <trkpt lat="42.926104" lon="-8.274287">
        <ele>369.426</ele>
        <time>2022-08-23T10:13:48Z</time>
      </trkpt>
      <trkpt lat="42.926133" lon="-8.274349">
        <ele>369.608</ele>
        <time>2022-08-23T10:13:52Z</time>
      </trkpt>
      <trkpt lat="42.926156" lon="-8.274408">
        <ele>369.909</ele>
        <time>2022-08-23T10:13:56Z</time>
      </trkpt>
      <trkpt lat="42.926184" lon="-8.274473">
        <ele>369.913</ele>
        <time>2022-08-23T10:14:00Z</time>
      </trkpt>
      <trkpt lat="42.926210" lon="-8.274547">
        <ele>370.033</ele>
        <time>2022-08-23T10:14:04Z</time>
      </trkpt>
      <trkpt lat="42.926237" lon="-8.274605">
        <ele>369.693</ele>
        <time>2022-08-23T10:14:08Z</time>
      </trkpt>
      <trkpt lat="42.926254" lon="-8.274674">
        <ele>369.437</ele>
        <time>2022-08-23T10:14:12Z</time>
      </trkpt>
      <trkpt lat="42.926274" lon="-8.274746">
        <ele>369.067</ele>
        <time>2022-08-23T10:14:16Z</time>
      </trkpt>
      <trkpt lat="42.926294" lon="-8.274811">
        <ele>368.918</ele>
        <time>2022-08-23T10:14:20Z</time>
      </trkpt>
      <trkpt lat="42.926308" lon="-8.274881">
        <ele>368.826</ele>
        <time>2022-08-23T10:14:24Z</time>
      </trkpt>
      <trkpt lat="42.926327" lon="-8.274947">
        <ele>368.799</ele>
        <time>2022-08-23T10:14:28Z</time>
      </trkpt>
      <trkpt lat="42.926336" lon="-8.275008">
        <ele>368.754</ele>
        <time>2022-08-23T10:14:32Z</time>
      </trkpt>
      <trkpt lat="42.926353" lon="-8.275079">
        <ele>368.738</ele>
        <time>2022-08-23T10:14:37Z</time>
      </trkpt>
      <trkpt lat="42.926374" lon="-8.275141">
        <ele>368.770</ele>
        <time>2022-08-23T10:14:41Z</time>
      </trkpt>
      <trkpt lat="42.926396" lon="-8.275216">
        <ele>368.717</ele>
        <time>2022-08-23T10:14:45Z</time>
      </trkpt>
      <trkpt lat="42.926404" lon="-8.275279">
        <ele>368.709</ele>
        <time>2022-08-23T10:14:48Z</time>
      </trkpt>
      <trkpt lat="42.926422" lon="-8.275337">
        <ele>368.754</ele>
        <time>2022-08-23T10:14:51Z</time>
      </trkpt>
      <trkpt lat="42.926439" lon="-8.275410">
        <ele>368.734</ele>
        <time>2022-08-23T10:14:55Z</time>
      </trkpt>
      <trkpt lat="42.926454" lon="-8.275490">
        <ele>368.554</ele>
        <time>2022-08-23T10:14:59Z</time>
      </trkpt>
      <trkpt lat="42.926461" lon="-8.275560">
        <ele>368.258</ele>
        <time>2022-08-23T10:15:03Z</time>
      </trkpt>
      <trkpt lat="42.926453" lon="-8.275636">
        <ele>368.148</ele>
        <time>2022-08-23T10:15:08Z</time>
      </trkpt>
      <trkpt lat="42.926450" lon="-8.275708">
        <ele>368.119</ele>
        <time>2022-08-23T10:15:12Z</time>
      </trkpt>
      <trkpt lat="42.926455" lon="-8.275786">
        <ele>368.137</ele>
        <time>2022-08-23T10:15:16Z</time>
      </trkpt>
      <trkpt lat="42.926463" lon="-8.275852">
        <ele>368.120</ele>
        <time>2022-08-23T10:15:20Z</time>
      </trkpt>
      <trkpt lat="42.926469" lon="-8.275930">
        <ele>368.165</ele>
        <time>2022-08-23T10:15:24Z</time>
      </trkpt>
      <trkpt lat="42.926472" lon="-8.276000">
        <ele>368.158</ele>
        <time>2022-08-23T10:15:28Z</time>
      </trkpt>
      <trkpt lat="42.926463" lon="-8.276068">
        <ele>368.152</ele>
        <time>2022-08-23T10:15:32Z</time>
      </trkpt>
      <trkpt lat="42.926475" lon="-8.276129">
        <ele>368.017</ele>
        <time>2022-08-23T10:15:36Z</time>
      </trkpt>
      <trkpt lat="42.926478" lon="-8.276198">
        <ele>367.909</ele>
        <time>2022-08-23T10:15:40Z</time>
      </trkpt>
      <trkpt lat="42.926478" lon="-8.276261">
        <ele>367.896</ele>
        <time>2022-08-23T10:15:43Z</time>
      </trkpt>
      <trkpt lat="42.926475" lon="-8.276340">
        <ele>367.726</ele>
        <time>2022-08-23T10:15:48Z</time>
      </trkpt>
      <trkpt lat="42.926477" lon="-8.276406">
        <ele>367.686</ele>
        <time>2022-08-23T10:15:52Z</time>
      </trkpt>
      <trkpt lat="42.926488" lon="-8.276468">
        <ele>367.510</ele>
        <time>2022-08-23T10:15:55Z</time>
      </trkpt>
      <trkpt lat="42.926494" lon="-8.276540">
        <ele>367.410</ele>
        <time>2022-08-23T10:15:59Z</time>
      </trkpt>
      <trkpt lat="42.926494" lon="-8.276609">
        <ele>367.321</ele>
        <time>2022-08-23T10:16:03Z</time>
      </trkpt>
      <trkpt lat="42.926497" lon="-8.276686">
        <ele>367.239</ele>
        <time>2022-08-23T10:16:07Z</time>
      </trkpt>
      <trkpt lat="42.926495" lon="-8.276765">
        <ele>367.082</ele>
        <time>2022-08-23T10:16:12Z</time>
      </trkpt>
      <trkpt lat="42.926486" lon="-8.276837">
        <ele>366.617</ele>
        <time>2022-08-23T10:16:16Z</time>
      </trkpt>
      <trkpt lat="42.926470" lon="-8.276895">
        <ele>366.327</ele>
        <time>2022-08-23T10:16:19Z</time>
      </trkpt>
      <trkpt lat="42.926463" lon="-8.276973">
        <ele>365.668</ele>
        <time>2022-08-23T10:16:24Z</time>
      </trkpt>
      <trkpt lat="42.926444" lon="-8.277038">
        <ele>365.514</ele>
        <time>2022-08-23T10:16:28Z</time>
      </trkpt>
      <trkpt lat="42.926428" lon="-8.277111">
        <ele>365.109</ele>
        <time>2022-08-23T10:16:32Z</time>
      </trkpt>
      <trkpt lat="42.926407" lon="-8.277183">
        <ele>364.763</ele>
        <time>2022-08-23T10:16:37Z</time>
      </trkpt>
      <trkpt lat="42.926388" lon="-8.277244">
        <ele>364.343</ele>
        <time>2022-08-23T10:16:41Z</time>
      </trkpt>
      <trkpt lat="42.926378" lon="-8.277315">
        <ele>364.293</ele>
        <time>2022-08-23T10:16:45Z</time>
      </trkpt>
      <trkpt lat="42.926365" lon="-8.277389">
        <ele>363.757</ele>
        <time>2022-08-23T10:16:49Z</time>
      </trkpt>
      <trkpt lat="42.926350" lon="-8.277466">
        <ele>363.777</ele>
        <time>2022-08-23T10:16:53Z</time>
      </trkpt>
      <trkpt lat="42.926327" lon="-8.277526">
        <ele>363.748</ele>
        <time>2022-08-23T10:16:56Z</time>
      </trkpt>
      <trkpt lat="42.926291" lon="-8.277580">
        <ele>363.726</ele>
        <time>2022-08-23T10:17:00Z</time>
      </trkpt>
      <trkpt lat="42.926268" lon="-8.277638">
        <ele>363.719</ele>
        <time>2022-08-23T10:17:04Z</time>
      </trkpt>
      <trkpt lat="42.926264" lon="-8.277710">
        <ele>363.744</ele>
        <time>2022-08-23T10:17:08Z</time>
      </trkpt>
      <trkpt lat="42.926268" lon="-8.277783">
        <ele>363.645</ele>
        <time>2022-08-23T10:17:12Z</time>
      </trkpt>
      <trkpt lat="42.926272" lon="-8.277849">
        <ele>363.447</ele>
        <time>2022-08-23T10:17:16Z</time>
      </trkpt>
      <trkpt lat="42.926281" lon="-8.277918">
        <ele>363.211</ele>
        <time>2022-08-23T10:17:20Z</time>
      </trkpt>
      <trkpt lat="42.926293" lon="-8.277982">
        <ele>363.009</ele>
        <time>2022-08-23T10:17:23Z</time>
      </trkpt>
      <trkpt lat="42.926295" lon="-8.278049">
        <ele>362.835</ele>
        <time>2022-08-23T10:17:27Z</time>
      </trkpt>
      <trkpt lat="42.926306" lon="-8.278117">
        <ele>362.665</ele>
        <time>2022-08-23T10:17:31Z</time>
      </trkpt>
      <trkpt lat="42.926308" lon="-8.278186">
        <ele>362.555</ele>
        <time>2022-08-23T10:17:35Z</time>
      </trkpt>
      <trkpt lat="42.926314" lon="-8.278252">
        <ele>362.499</ele>
        <time>2022-08-23T10:17:38Z</time>
      </trkpt>
      <trkpt lat="42.926319" lon="-8.278314">
        <ele>362.279</ele>
        <time>2022-08-23T10:17:41Z</time>
      </trkpt>
      <trkpt lat="42.926325" lon="-8.278384">
        <ele>361.990</ele>
        <time>2022-08-23T10:17:45Z</time>
      </trkpt>
      <trkpt lat="42.926324" lon="-8.278459">
        <ele>361.998</ele>
        <time>2022-08-23T10:17:49Z</time>
      </trkpt>
      <trkpt lat="42.926334" lon="-8.278531">
        <ele>361.921</ele>
        <time>2022-08-23T10:17:53Z</time>
      </trkpt>
      <trkpt lat="42.926337" lon="-8.278613">
        <ele>362.056</ele>
        <time>2022-08-23T10:17:58Z</time>
      </trkpt>
      <trkpt lat="42.926345" lon="-8.278686">
        <ele>362.248</ele>
        <time>2022-08-23T10:18:02Z</time>
      </trkpt>
      <trkpt lat="42.926352" lon="-8.278765">
        <ele>362.261</ele>
        <time>2022-08-23T10:18:06Z</time>
      </trkpt>
      <trkpt lat="42.926358" lon="-8.278832">
        <ele>362.117</ele>
        <time>2022-08-23T10:18:10Z</time>
      </trkpt>
      <trkpt lat="42.926371" lon="-8.278912">
        <ele>362.109</ele>
        <time>2022-08-23T10:18:14Z</time>
      </trkpt>
      <trkpt lat="42.926382" lon="-8.278974">
        <ele>362.035</ele>
        <time>2022-08-23T10:18:17Z</time>
      </trkpt>
      <trkpt lat="42.926383" lon="-8.279054">
        <ele>361.975</ele>
        <time>2022-08-23T10:18:21Z</time>
      </trkpt>
      <trkpt lat="42.926391" lon="-8.279132">
        <ele>361.915</ele>
        <time>2022-08-23T10:18:25Z</time>
      </trkpt>
      <trkpt lat="42.926397" lon="-8.279197">
        <ele>361.929</ele>
        <time>2022-08-23T10:18:29Z</time>
      </trkpt>
      <trkpt lat="42.926403" lon="-8.279272">
        <ele>361.939</ele>
        <time>2022-08-23T10:18:33Z</time>
      </trkpt>
      <trkpt lat="42.926406" lon="-8.279349">
        <ele>361.910</ele>
        <time>2022-08-23T10:18:37Z</time>
      </trkpt>
      <trkpt lat="42.926419" lon="-8.279421">
        <ele>361.928</ele>
        <time>2022-08-23T10:18:41Z</time>
      </trkpt>
      <trkpt lat="42.926429" lon="-8.279498">
        <ele>361.911</ele>
        <time>2022-08-23T10:18:45Z</time>
      </trkpt>
      <trkpt lat="42.926435" lon="-8.279577">
        <ele>361.986</ele>
        <time>2022-08-23T10:18:49Z</time>
      </trkpt>
      <trkpt lat="42.926438" lon="-8.279650">
        <ele>361.993</ele>
        <time>2022-08-23T10:18:53Z</time>
      </trkpt>
      <trkpt lat="42.926440" lon="-8.279725">
        <ele>361.965</ele>
        <time>2022-08-23T10:18:57Z</time>
      </trkpt>
      <trkpt lat="42.926443" lon="-8.279795">
        <ele>361.921</ele>
        <time>2022-08-23T10:19:01Z</time>
      </trkpt>
      <trkpt lat="42.926435" lon="-8.279859">
        <ele>361.909</ele>
        <time>2022-08-23T10:19:05Z</time>
      </trkpt>
      <trkpt lat="42.926433" lon="-8.279927">
        <ele>361.920</ele>
        <time>2022-08-23T10:19:09Z</time>
      </trkpt>
      <trkpt lat="42.926438" lon="-8.279989">
        <ele>361.950</ele>
        <time>2022-08-23T10:19:12Z</time>
      </trkpt>
      <trkpt lat="42.926439" lon="-8.280051">
        <ele>361.980</ele>
        <time>2022-08-23T10:19:15Z</time>
      </trkpt>
      <trkpt lat="42.926438" lon="-8.280119">
        <ele>361.984</ele>
        <time>2022-08-23T10:19:19Z</time>
      </trkpt>
      <trkpt lat="42.926439" lon="-8.280181">
        <ele>362.034</ele>
        <time>2022-08-23T10:19:22Z</time>
      </trkpt>
      <trkpt lat="42.926438" lon="-8.280259">
        <ele>362.125</ele>
        <time>2022-08-23T10:19:26Z</time>
      </trkpt>
      <trkpt lat="42.926434" lon="-8.280338">
        <ele>362.233</ele>
        <time>2022-08-23T10:19:30Z</time>
      </trkpt>
      <trkpt lat="42.926438" lon="-8.280416">
        <ele>362.356</ele>
        <time>2022-08-23T10:19:34Z</time>
      </trkpt>
      <trkpt lat="42.926425" lon="-8.280494">
        <ele>362.361</ele>
        <time>2022-08-23T10:19:38Z</time>
      </trkpt>
      <trkpt lat="42.926409" lon="-8.280559">
        <ele>362.349</ele>
        <time>2022-08-23T10:19:42Z</time>
      </trkpt>
      <trkpt lat="42.926391" lon="-8.280619">
        <ele>362.202</ele>
        <time>2022-08-23T10:19:46Z</time>
      </trkpt>
      <trkpt lat="42.926378" lon="-8.280681">
        <ele>362.222</ele>
        <time>2022-08-23T10:19:50Z</time>
      </trkpt>
      <trkpt lat="42.926368" lon="-8.280749">
        <ele>362.209</ele>
        <time>2022-08-23T10:19:54Z</time>
      </trkpt>
      <trkpt lat="42.926358" lon="-8.280818">
        <ele>362.255</ele>
        <time>2022-08-23T10:19:58Z</time>
      </trkpt>
      <trkpt lat="42.926338" lon="-8.280882">
        <ele>362.235</ele>
        <time>2022-08-23T10:20:02Z</time>
      </trkpt>
      <trkpt lat="42.926325" lon="-8.280956">
        <ele>362.235</ele>
        <time>2022-08-23T10:20:06Z</time>
      </trkpt>
      <trkpt lat="42.926301" lon="-8.281026">
        <ele>362.339</ele>
        <time>2022-08-23T10:20:10Z</time>
      </trkpt>
      <trkpt lat="42.926284" lon="-8.281089">
        <ele>362.439</ele>
        <time>2022-08-23T10:20:16Z</time>
      </trkpt>
      <trkpt lat="42.926265" lon="-8.281156">
        <ele>362.530</ele>
        <time>2022-08-23T10:20:20Z</time>
      </trkpt>
      <trkpt lat="42.926253" lon="-8.281216">
        <ele>362.598</ele>
        <time>2022-08-23T10:20:23Z</time>
      </trkpt>
      <trkpt lat="42.926234" lon="-8.281278">
        <ele>362.521</ele>
        <time>2022-08-23T10:20:27Z</time>
      </trkpt>
      <trkpt lat="42.926216" lon="-8.281343">
        <ele>362.546</ele>
        <time>2022-08-23T10:20:31Z</time>
      </trkpt>
      <trkpt lat="42.926197" lon="-8.281406">
        <ele>362.519</ele>
        <time>2022-08-23T10:20:35Z</time>
      </trkpt>
      <trkpt lat="42.926170" lon="-8.281466">
        <ele>362.509</ele>
        <time>2022-08-23T10:20:40Z</time>
      </trkpt>
      <trkpt lat="42.926153" lon="-8.281532">
        <ele>362.619</ele>
        <time>2022-08-23T10:20:44Z</time>
      </trkpt>
      <trkpt lat="42.926123" lon="-8.281584">
        <ele>362.709</ele>
        <time>2022-08-23T10:20:48Z</time>
      </trkpt>
      <trkpt lat="42.926101" lon="-8.281640">
        <ele>362.882</ele>
        <time>2022-08-23T10:20:52Z</time>
      </trkpt>
      <trkpt lat="42.926066" lon="-8.281701">
        <ele>362.972</ele>
        <time>2022-08-23T10:20:56Z</time>
      </trkpt>
      <trkpt lat="42.926041" lon="-8.281755">
        <ele>363.012</ele>
        <time>2022-08-23T10:21:00Z</time>
      </trkpt>
      <trkpt lat="42.926017" lon="-8.281830">
        <ele>363.126</ele>
        <time>2022-08-23T10:21:04Z</time>
      </trkpt>
      <trkpt lat="42.925984" lon="-8.281898">
        <ele>363.436</ele>
        <time>2022-08-23T10:21:08Z</time>
      </trkpt>
      <trkpt lat="42.925965" lon="-8.281962">
        <ele>363.577</ele>
        <time>2022-08-23T10:21:11Z</time>
      </trkpt>
      <trkpt lat="42.925939" lon="-8.282030">
        <ele>363.685</ele>
        <time>2022-08-23T10:21:15Z</time>
      </trkpt>
      <trkpt lat="42.925918" lon="-8.282085">
        <ele>363.748</ele>
        <time>2022-08-23T10:21:18Z</time>
      </trkpt>
      <trkpt lat="42.925895" lon="-8.282140">
        <ele>363.723</ele>
        <time>2022-08-23T10:21:21Z</time>
      </trkpt>
      <trkpt lat="42.925863" lon="-8.282193">
        <ele>363.882</ele>
        <time>2022-08-23T10:21:25Z</time>
      </trkpt>
      <trkpt lat="42.925833" lon="-8.282251">
        <ele>363.943</ele>
        <time>2022-08-23T10:21:29Z</time>
      </trkpt>
      <trkpt lat="42.925805" lon="-8.282319">
        <ele>364.217</ele>
        <time>2022-08-23T10:21:33Z</time>
      </trkpt>
      <trkpt lat="42.925785" lon="-8.282380">
        <ele>364.609</ele>
        <time>2022-08-23T10:21:37Z</time>
      </trkpt>
      <trkpt lat="42.925757" lon="-8.282442">
        <ele>364.999</ele>
        <time>2022-08-23T10:21:41Z</time>
      </trkpt>
      <trkpt lat="42.925723" lon="-8.282503">
        <ele>365.059</ele>
        <time>2022-08-23T10:21:46Z</time>
      </trkpt>
      <trkpt lat="42.925703" lon="-8.282558">
        <ele>365.119</ele>
        <time>2022-08-23T10:21:49Z</time>
      </trkpt>
      <trkpt lat="42.925681" lon="-8.282633">
        <ele>365.313</ele>
        <time>2022-08-23T10:21:53Z</time>
      </trkpt>
      <trkpt lat="42.925665" lon="-8.282702">
        <ele>365.543</ele>
        <time>2022-08-23T10:21:57Z</time>
      </trkpt>
      <trkpt lat="42.925648" lon="-8.282771">
        <ele>365.674</ele>
        <time>2022-08-23T10:22:01Z</time>
      </trkpt>
      <trkpt lat="42.925634" lon="-8.282838">
        <ele>365.752</ele>
        <time>2022-08-23T10:22:05Z</time>
      </trkpt>
      <trkpt lat="42.925618" lon="-8.282909">
        <ele>366.085</ele>
        <time>2022-08-23T10:22:09Z</time>
      </trkpt>
      <trkpt lat="42.925594" lon="-8.282979">
        <ele>366.220</ele>
        <time>2022-08-23T10:22:13Z</time>
      </trkpt>
      <trkpt lat="42.925579" lon="-8.283044">
        <ele>366.537</ele>
        <time>2022-08-23T10:22:17Z</time>
      </trkpt>
      <trkpt lat="42.925563" lon="-8.283108">
        <ele>366.749</ele>
        <time>2022-08-23T10:22:21Z</time>
      </trkpt>
      <trkpt lat="42.925551" lon="-8.283170">
        <ele>366.913</ele>
        <time>2022-08-23T10:22:25Z</time>
      </trkpt>
      <trkpt lat="42.925535" lon="-8.283239">
        <ele>367.209</ele>
        <time>2022-08-23T10:22:29Z</time>
      </trkpt>
      <trkpt lat="42.925524" lon="-8.283310">
        <ele>367.564</ele>
        <time>2022-08-23T10:22:33Z</time>
      </trkpt>
      <trkpt lat="42.925506" lon="-8.283366">
        <ele>367.874</ele>
        <time>2022-08-23T10:22:37Z</time>
      </trkpt>
      <trkpt lat="42.925490" lon="-8.283436">
        <ele>368.154</ele>
        <time>2022-08-23T10:22:41Z</time>
      </trkpt>
      <trkpt lat="42.925475" lon="-8.283498">
        <ele>368.498</ele>
        <time>2022-08-23T10:22:45Z</time>
      </trkpt>
      <trkpt lat="42.925462" lon="-8.283570">
        <ele>368.838</ele>
        <time>2022-08-23T10:22:50Z</time>
      </trkpt>
      <trkpt lat="42.925446" lon="-8.283637">
        <ele>369.219</ele>
        <time>2022-08-23T10:22:54Z</time>
      </trkpt>
      <trkpt lat="42.925439" lon="-8.283704">
        <ele>369.697</ele>
        <time>2022-08-23T10:22:58Z</time>
      </trkpt>
      <trkpt lat="42.925429" lon="-8.283773">
        <ele>370.040</ele>
        <time>2022-08-23T10:23:02Z</time>
      </trkpt>
      <trkpt lat="42.925423" lon="-8.283852">
        <ele>370.595</ele>
        <time>2022-08-23T10:23:07Z</time>
      </trkpt>
      <trkpt lat="42.925439" lon="-8.283928">
        <ele>371.042</ele>
        <time>2022-08-23T10:23:12Z</time>
      </trkpt>
      <trkpt lat="42.925455" lon="-8.283994">
        <ele>371.522</ele>
        <time>2022-08-23T10:23:16Z</time>
      </trkpt>
      <trkpt lat="42.925467" lon="-8.284058">
        <ele>372.014</ele>
        <time>2022-08-23T10:23:20Z</time>
      </trkpt>
      <trkpt lat="42.925485" lon="-8.284122">
        <ele>372.509</ele>
        <time>2022-08-23T10:23:24Z</time>
      </trkpt>
      <trkpt lat="42.925500" lon="-8.284181">
        <ele>372.995</ele>
        <time>2022-08-23T10:23:28Z</time>
      </trkpt>
      <trkpt lat="42.925514" lon="-8.284247">
        <ele>373.415</ele>
        <time>2022-08-23T10:23:32Z</time>
      </trkpt>
      <trkpt lat="42.925519" lon="-8.284313">
        <ele>373.965</ele>
        <time>2022-08-23T10:23:36Z</time>
      </trkpt>
      <trkpt lat="42.925532" lon="-8.284373">
        <ele>374.339</ele>
        <time>2022-08-23T10:23:40Z</time>
      </trkpt>
      <trkpt lat="42.925542" lon="-8.284450">
        <ele>374.669</ele>
        <time>2022-08-23T10:23:44Z</time>
      </trkpt>
      <trkpt lat="42.925523" lon="-8.284524">
        <ele>374.990</ele>
        <time>2022-08-23T10:23:49Z</time>
      </trkpt>
      <trkpt lat="42.925507" lon="-8.284584">
        <ele>375.168</ele>
        <time>2022-08-23T10:23:52Z</time>
      </trkpt>
      <trkpt lat="42.925498" lon="-8.284653">
        <ele>375.371</ele>
        <time>2022-08-23T10:23:56Z</time>
      </trkpt>
      <trkpt lat="42.925480" lon="-8.284718">
        <ele>375.646</ele>
        <time>2022-08-23T10:24:00Z</time>
      </trkpt>
      <trkpt lat="42.925465" lon="-8.284793">
        <ele>375.968</ele>
        <time>2022-08-23T10:24:04Z</time>
      </trkpt>
      <trkpt lat="42.925455" lon="-8.284854">
        <ele>376.242</ele>
        <time>2022-08-23T10:24:08Z</time>
      </trkpt>
      <trkpt lat="42.925445" lon="-8.284918">
        <ele>376.626</ele>
        <time>2022-08-23T10:24:12Z</time>
      </trkpt>
      <trkpt lat="42.925436" lon="-8.284987">
        <ele>377.009</ele>
        <time>2022-08-23T10:24:17Z</time>
      </trkpt>
      <trkpt lat="42.925427" lon="-8.285050">
        <ele>377.447</ele>
        <time>2022-08-23T10:24:22Z</time>
      </trkpt>
      <trkpt lat="42.925433" lon="-8.285112">
        <ele>377.957</ele>
        <time>2022-08-23T10:24:26Z</time>
      </trkpt>
      <trkpt lat="42.925413" lon="-8.285184">
        <ele>378.487</ele>
        <time>2022-08-23T10:24:31Z</time>
      </trkpt>
      <trkpt lat="42.925409" lon="-8.285260">
        <ele>378.931</ele>
        <time>2022-08-23T10:24:36Z</time>
      </trkpt>
      <trkpt lat="42.925381" lon="-8.285321">
        <ele>379.351</ele>
        <time>2022-08-23T10:24:40Z</time>
      </trkpt>
      <trkpt lat="42.925370" lon="-8.285396">
        <ele>379.882</ele>
        <time>2022-08-23T10:24:44Z</time>
      </trkpt>
      <trkpt lat="42.925354" lon="-8.285467">
        <ele>380.440</ele>
        <time>2022-08-23T10:24:48Z</time>
      </trkpt>
      <trkpt lat="42.925340" lon="-8.285531">
        <ele>380.623</ele>
        <time>2022-08-23T10:24:52Z</time>
      </trkpt>
      <trkpt lat="42.925325" lon="-8.285606">
        <ele>381.038</ele>
        <time>2022-08-23T10:24:56Z</time>
      </trkpt>
      <trkpt lat="42.925306" lon="-8.285675">
        <ele>381.481</ele>
        <time>2022-08-23T10:25:00Z</time>
      </trkpt>
      <trkpt lat="42.925289" lon="-8.285752">
        <ele>381.761</ele>
        <time>2022-08-23T10:25:04Z</time>
      </trkpt>
      <trkpt lat="42.925265" lon="-8.285818">
        <ele>382.017</ele>
        <time>2022-08-23T10:25:08Z</time>
      </trkpt>
      <trkpt lat="42.925248" lon="-8.285888">
        <ele>382.209</ele>
        <time>2022-08-23T10:25:12Z</time>
      </trkpt>
      <trkpt lat="42.925242" lon="-8.285958">
        <ele>382.579</ele>
        <time>2022-08-23T10:25:16Z</time>
      </trkpt>
      <trkpt lat="42.925235" lon="-8.286023">
        <ele>382.659</ele>
        <time>2022-08-23T10:25:20Z</time>
      </trkpt>
      <trkpt lat="42.925223" lon="-8.286088">
        <ele>382.969</ele>
        <time>2022-08-23T10:25:24Z</time>
      </trkpt>
      <trkpt lat="42.925218" lon="-8.286161">
        <ele>383.193</ele>
        <time>2022-08-23T10:25:28Z</time>
      </trkpt>
      <trkpt lat="42.925212" lon="-8.286227">
        <ele>383.323</ele>
        <time>2022-08-23T10:25:32Z</time>
      </trkpt>
      <trkpt lat="42.925209" lon="-8.286302">
        <ele>383.594</ele>
        <time>2022-08-23T10:25:36Z</time>
      </trkpt>
      <trkpt lat="42.925208" lon="-8.286373">
        <ele>383.712</ele>
        <time>2022-08-23T10:25:40Z</time>
      </trkpt>
      <trkpt lat="42.925217" lon="-8.286450">
        <ele>383.855</ele>
        <time>2022-08-23T10:25:44Z</time>
      </trkpt>
      <trkpt lat="42.925214" lon="-8.286527">
        <ele>383.990</ele>
        <time>2022-08-23T10:25:49Z</time>
      </trkpt>
      <trkpt lat="42.925223" lon="-8.286595">
        <ele>383.991</ele>
        <time>2022-08-23T10:25:53Z</time>
      </trkpt>
      <trkpt lat="42.925219" lon="-8.286668">
        <ele>383.981</ele>
        <time>2022-08-23T10:25:58Z</time>
      </trkpt>
      <trkpt lat="42.925215" lon="-8.286734">
        <ele>383.919</ele>
        <time>2022-08-23T10:26:03Z</time>
      </trkpt>
      <trkpt lat="42.925217" lon="-8.286803">
        <ele>383.809</ele>
        <time>2022-08-23T10:26:07Z</time>
      </trkpt>
      <trkpt lat="42.925205" lon="-8.286868">
        <ele>383.710</ele>
        <time>2022-08-23T10:26:11Z</time>
      </trkpt>
      <trkpt lat="42.925212" lon="-8.286940">
        <ele>383.730</ele>
        <time>2022-08-23T10:26:15Z</time>
      </trkpt>
      <trkpt lat="42.925203" lon="-8.287010">
        <ele>383.780</ele>
        <time>2022-08-23T10:26:19Z</time>
      </trkpt>
      <trkpt lat="42.925181" lon="-8.287070">
        <ele>383.754</ele>
        <time>2022-08-23T10:26:23Z</time>
      </trkpt>
      <trkpt lat="42.925181" lon="-8.287136">
        <ele>383.774</ele>
        <time>2022-08-23T10:26:27Z</time>
      </trkpt>
      <trkpt lat="42.925176" lon="-8.287206">
        <ele>383.765</ele>
        <time>2022-08-23T10:26:31Z</time>
      </trkpt>
      <trkpt lat="42.925161" lon="-8.287276">
        <ele>383.783</ele>
        <time>2022-08-23T10:26:36Z</time>
      </trkpt>
      <trkpt lat="42.925148" lon="-8.287335">
        <ele>383.746</ele>
        <time>2022-08-23T10:26:40Z</time>
      </trkpt>
      <trkpt lat="42.925137" lon="-8.287401">
        <ele>383.871</ele>
        <time>2022-08-23T10:26:44Z</time>
      </trkpt>
      <trkpt lat="42.925127" lon="-8.287463">
        <ele>383.846</ele>
        <time>2022-08-23T10:26:48Z</time>
      </trkpt>
      <trkpt lat="42.925114" lon="-8.287530">
        <ele>383.888</ele>
        <time>2022-08-23T10:26:52Z</time>
      </trkpt>
      <trkpt lat="42.925097" lon="-8.287604">
        <ele>383.816</ele>
        <time>2022-08-23T10:26:57Z</time>
      </trkpt>
      <trkpt lat="42.925089" lon="-8.287668">
        <ele>383.809</ele>
        <time>2022-08-23T10:27:00Z</time>
      </trkpt>
      <trkpt lat="42.925075" lon="-8.287740">
        <ele>383.855</ele>
        <time>2022-08-23T10:27:04Z</time>
      </trkpt>
      <trkpt lat="42.925057" lon="-8.287817">
        <ele>383.885</ele>
        <time>2022-08-23T10:27:09Z</time>
      </trkpt>
      <trkpt lat="42.925033" lon="-8.287882">
        <ele>383.845</ele>
        <time>2022-08-23T10:27:13Z</time>
      </trkpt>
      <trkpt lat="42.925010" lon="-8.287952">
        <ele>383.869</ele>
        <time>2022-08-23T10:27:16Z</time>
      </trkpt>
      <trkpt lat="42.924996" lon="-8.288011">
        <ele>383.829</ele>
        <time>2022-08-23T10:27:19Z</time>
      </trkpt>
      <trkpt lat="42.924974" lon="-8.288078">
        <ele>383.880</ele>
        <time>2022-08-23T10:27:22Z</time>
      </trkpt>
      <trkpt lat="42.924954" lon="-8.288155">
        <ele>383.828</ele>
        <time>2022-08-23T10:27:26Z</time>
      </trkpt>
      <trkpt lat="42.924923" lon="-8.288213">
        <ele>383.861</ele>
        <time>2022-08-23T10:27:31Z</time>
      </trkpt>
      <trkpt lat="42.924909" lon="-8.288283">
        <ele>383.816</ele>
        <time>2022-08-23T10:27:36Z</time>
      </trkpt>
      <trkpt lat="42.924905" lon="-8.288353">
        <ele>383.857</ele>
        <time>2022-08-23T10:27:39Z</time>
      </trkpt>
      <trkpt lat="42.924888" lon="-8.288428">
        <ele>383.800</ele>
        <time>2022-08-23T10:27:43Z</time>
      </trkpt>
      <trkpt lat="42.924870" lon="-8.288485">
        <ele>383.820</ele>
        <time>2022-08-23T10:27:46Z</time>
      </trkpt>
      <trkpt lat="42.924846" lon="-8.288538">
        <ele>383.809</ele>
        <time>2022-08-23T10:27:49Z</time>
      </trkpt>
      <trkpt lat="42.924810" lon="-8.288589">
        <ele>383.866</ele>
        <time>2022-08-23T10:27:53Z</time>
      </trkpt>
      <trkpt lat="42.924779" lon="-8.288657">
        <ele>383.846</ele>
        <time>2022-08-23T10:27:58Z</time>
      </trkpt>
      <trkpt lat="42.924739" lon="-8.288708">
        <ele>383.836</ele>
        <time>2022-08-23T10:28:03Z</time>
      </trkpt>
      <trkpt lat="42.924709" lon="-8.288755">
        <ele>383.850</ele>
        <time>2022-08-23T10:28:06Z</time>
      </trkpt>
      <trkpt lat="42.924678" lon="-8.288805">
        <ele>383.850</ele>
        <time>2022-08-23T10:28:10Z</time>
      </trkpt>
      <trkpt lat="42.924654" lon="-8.288862">
        <ele>383.931</ele>
        <time>2022-08-23T10:28:14Z</time>
      </trkpt>
      <trkpt lat="42.924623" lon="-8.288923">
        <ele>384.079</ele>
        <time>2022-08-23T10:28:19Z</time>
      </trkpt>
      <trkpt lat="42.924592" lon="-8.288995">
        <ele>384.022</ele>
        <time>2022-08-23T10:28:23Z</time>
      </trkpt>
      <trkpt lat="42.924572" lon="-8.289062">
        <ele>384.027</ele>
        <time>2022-08-23T10:28:26Z</time>
      </trkpt>
      <trkpt lat="42.924552" lon="-8.289129">
        <ele>384.127</ele>
        <time>2022-08-23T10:28:29Z</time>
      </trkpt>
      <trkpt lat="42.924531" lon="-8.289184">
        <ele>384.168</ele>
        <time>2022-08-23T10:28:32Z</time>
      </trkpt>
      <trkpt lat="42.924516" lon="-8.289242">
        <ele>384.214</ele>
        <time>2022-08-23T10:28:35Z</time>
      </trkpt>
      <trkpt lat="42.924501" lon="-8.289319">
        <ele>384.309</ele>
        <time>2022-08-23T10:28:39Z</time>
      </trkpt>
      <trkpt lat="42.924487" lon="-8.289391">
        <ele>384.493</ele>
        <time>2022-08-23T10:28:43Z</time>
      </trkpt>
      <trkpt lat="42.924464" lon="-8.289461">
        <ele>384.453</ele>
        <time>2022-08-23T10:28:47Z</time>
      </trkpt>
      <trkpt lat="42.924447" lon="-8.289520">
        <ele>384.563</ele>
        <time>2022-08-23T10:28:51Z</time>
      </trkpt>
      <trkpt lat="42.924436" lon="-8.289583">
        <ele>384.737</ele>
        <time>2022-08-23T10:28:55Z</time>
      </trkpt>
      <trkpt lat="42.924422" lon="-8.289653">
        <ele>384.857</ele>
        <time>2022-08-23T10:28:59Z</time>
      </trkpt>
      <trkpt lat="42.924401" lon="-8.289712">
        <ele>384.978</ele>
        <time>2022-08-23T10:29:03Z</time>
      </trkpt>
      <trkpt lat="42.924390" lon="-8.289774">
        <ele>385.026</ele>
        <time>2022-08-23T10:29:07Z</time>
      </trkpt>
      <trkpt lat="42.924375" lon="-8.289838">
        <ele>385.259</ele>
        <time>2022-08-23T10:29:11Z</time>
      </trkpt>
      <trkpt lat="42.924353" lon="-8.289909">
        <ele>385.334</ele>
        <time>2022-08-23T10:29:15Z</time>
      </trkpt>
      <trkpt lat="42.924335" lon="-8.289969">
        <ele>385.454</ele>
        <time>2022-08-23T10:29:19Z</time>
      </trkpt>
      <trkpt lat="42.924310" lon="-8.290043">
        <ele>385.656</ele>
        <time>2022-08-23T10:29:23Z</time>
      </trkpt>
      <trkpt lat="42.924290" lon="-8.290109">
        <ele>385.811</ele>
        <time>2022-08-23T10:29:27Z</time>
      </trkpt>
      <trkpt lat="42.924267" lon="-8.290162">
        <ele>385.909</ele>
        <time>2022-08-23T10:29:30Z</time>
      </trkpt>
      <trkpt lat="42.924246" lon="-8.290227">
        <ele>386.086</ele>
        <time>2022-08-23T10:29:34Z</time>
      </trkpt>
      <trkpt lat="42.924215" lon="-8.290274">
        <ele>386.146</ele>
        <time>2022-08-23T10:29:43Z</time>
      </trkpt>
      <trkpt lat="42.924162" lon="-8.290306">
        <ele>386.256</ele>
        <time>2022-08-23T10:29:48Z</time>
      </trkpt>
      <trkpt lat="42.924113" lon="-8.290342">
        <ele>386.570</ele>
        <time>2022-08-23T10:29:52Z</time>
      </trkpt>
      <trkpt lat="42.924068" lon="-8.290386">
        <ele>386.820</ele>
        <time>2022-08-23T10:29:56Z</time>
      </trkpt>
      <trkpt lat="42.924027" lon="-8.290427">
        <ele>387.031</ele>
        <time>2022-08-23T10:30:00Z</time>
      </trkpt>
      <trkpt lat="42.923999" lon="-8.290476">
        <ele>387.129</ele>
        <time>2022-08-23T10:30:04Z</time>
      </trkpt>
      <trkpt lat="42.923967" lon="-8.290529">
        <ele>387.162</ele>
        <time>2022-08-23T10:30:08Z</time>
      </trkpt>
      <trkpt lat="42.923937" lon="-8.290581">
        <ele>387.137</ele>
        <time>2022-08-23T10:30:12Z</time>
      </trkpt>
      <trkpt lat="42.923908" lon="-8.290633">
        <ele>387.159</ele>
        <time>2022-08-23T10:30:16Z</time>
      </trkpt>
      <trkpt lat="42.923876" lon="-8.290689">
        <ele>387.103</ele>
        <time>2022-08-23T10:30:20Z</time>
      </trkpt>
      <trkpt lat="42.923835" lon="-8.290741">
        <ele>387.123</ele>
        <time>2022-08-23T10:30:24Z</time>
      </trkpt>
      <trkpt lat="42.923806" lon="-8.290789">
        <ele>387.109</ele>
        <time>2022-08-23T10:30:27Z</time>
      </trkpt>
      <trkpt lat="42.923777" lon="-8.290841">
        <ele>387.196</ele>
        <time>2022-08-23T10:30:31Z</time>
      </trkpt>
      <trkpt lat="42.923740" lon="-8.290895">
        <ele>387.166</ele>
        <time>2022-08-23T10:30:35Z</time>
      </trkpt>
      <trkpt lat="42.923706" lon="-8.290943">
        <ele>387.146</ele>
        <time>2022-08-23T10:30:39Z</time>
      </trkpt>
      <trkpt lat="42.923667" lon="-8.290993">
        <ele>387.110</ele>
        <time>2022-08-23T10:30:43Z</time>
      </trkpt>
      <trkpt lat="42.923634" lon="-8.291046">
        <ele>387.120</ele>
        <time>2022-08-23T10:30:47Z</time>
      </trkpt>
      <trkpt lat="42.923597" lon="-8.291095">
        <ele>387.281</ele>
        <time>2022-08-23T10:30:51Z</time>
      </trkpt>
      <trkpt lat="42.923567" lon="-8.291157">
        <ele>387.349</ele>
        <time>2022-08-23T10:30:55Z</time>
      </trkpt>
      <trkpt lat="42.923540" lon="-8.291217">
        <ele>387.372</ele>
        <time>2022-08-23T10:30:59Z</time>
      </trkpt>
      <trkpt lat="42.923499" lon="-8.291259">
        <ele>387.447</ele>
        <time>2022-08-23T10:31:04Z</time>
      </trkpt>
      <trkpt lat="42.923474" lon="-8.291316">
        <ele>387.637</ele>
        <time>2022-08-23T10:31:08Z</time>
      </trkpt>
      <trkpt lat="42.923447" lon="-8.291384">
        <ele>387.849</ele>
        <time>2022-08-23T10:31:13Z</time>
      </trkpt>
      <trkpt lat="42.923419" lon="-8.291445">
        <ele>388.013</ele>
        <time>2022-08-23T10:31:17Z</time>
      </trkpt>
      <trkpt lat="42.923391" lon="-8.291513">
        <ele>388.309</ele>
        <time>2022-08-23T10:31:21Z</time>
      </trkpt>
      <trkpt lat="42.923375" lon="-8.291579">
        <ele>388.684</ele>
        <time>2022-08-23T10:31:26Z</time>
      </trkpt>
      <trkpt lat="42.923351" lon="-8.291648">
        <ele>389.144</ele>
        <time>2022-08-23T10:31:31Z</time>
      </trkpt>
      <trkpt lat="42.923335" lon="-8.291709">
        <ele>389.434</ele>
        <time>2022-08-23T10:31:35Z</time>
      </trkpt>
      <trkpt lat="42.923315" lon="-8.291766">
        <ele>390.258</ele>
        <time>2022-08-23T10:31:39Z</time>
      </trkpt>
      <trkpt lat="42.923271" lon="-8.291822">
        <ele>390.998</ele>
        <time>2022-08-23T10:31:42Z</time>
      </trkpt>
      <trkpt lat="42.923243" lon="-8.291879">
        <ele>391.559</ele>
        <time>2022-08-23T10:31:46Z</time>
      </trkpt>
      <trkpt lat="42.923220" lon="-8.291938">
        <ele>392.197</ele>
        <time>2022-08-23T10:31:49Z</time>
      </trkpt>
      <trkpt lat="42.923198" lon="-8.292005">
        <ele>392.580</ele>
        <time>2022-08-23T10:31:54Z</time>
      </trkpt>
      <trkpt lat="42.923179" lon="-8.292075">
        <ele>392.995</ele>
        <time>2022-08-23T10:31:58Z</time>
      </trkpt>
      <trkpt lat="42.923156" lon="-8.292134">
        <ele>393.474</ele>
        <time>2022-08-23T10:32:02Z</time>
      </trkpt>
      <trkpt lat="42.923128" lon="-8.292192">
        <ele>393.956</ele>
        <time>2022-08-23T10:32:06Z</time>
      </trkpt>
      <trkpt lat="42.923115" lon="-8.292262">
        <ele>394.221</ele>
        <time>2022-08-23T10:32:09Z</time>
      </trkpt>
      <trkpt lat="42.923089" lon="-8.292320">
        <ele>394.409</ele>
        <time>2022-08-23T10:32:12Z</time>
      </trkpt>
      <trkpt lat="42.923062" lon="-8.292393">
        <ele>394.688</ele>
        <time>2022-08-23T10:32:16Z</time>
      </trkpt>
      <trkpt lat="42.923043" lon="-8.292455">
        <ele>394.818</ele>
        <time>2022-08-23T10:32:20Z</time>
      </trkpt>
      <trkpt lat="42.923013" lon="-8.292520">
        <ele>395.048</ele>
        <time>2022-08-23T10:32:24Z</time>
      </trkpt>
      <trkpt lat="42.922992" lon="-8.292586">
        <ele>395.272</ele>
        <time>2022-08-23T10:32:28Z</time>
      </trkpt>
      <trkpt lat="42.922964" lon="-8.292654">
        <ele>395.682</ele>
        <time>2022-08-23T10:32:32Z</time>
      </trkpt>
      <trkpt lat="42.922935" lon="-8.292714">
        <ele>395.753</ele>
        <time>2022-08-23T10:32:37Z</time>
      </trkpt>
      <trkpt lat="42.922898" lon="-8.292775">
        <ele>395.991</ele>
        <time>2022-08-23T10:32:41Z</time>
      </trkpt>
      <trkpt lat="42.922864" lon="-8.292829">
        <ele>396.124</ele>
        <time>2022-08-23T10:32:46Z</time>
      </trkpt>
      <trkpt lat="42.922830" lon="-8.292883">
        <ele>396.349</ele>
        <time>2022-08-23T10:32:51Z</time>
      </trkpt>
      <trkpt lat="42.922794" lon="-8.292930">
        <ele>396.439</ele>
        <time>2022-08-23T10:32:55Z</time>
      </trkpt>
      <trkpt lat="42.922764" lon="-8.292985">
        <ele>396.701</ele>
        <time>2022-08-23T10:32:58Z</time>
      </trkpt>
      <trkpt lat="42.922739" lon="-8.293044">
        <ele>396.921</ele>
        <time>2022-08-23T10:33:01Z</time>
      </trkpt>
      <trkpt lat="42.922721" lon="-8.293105">
        <ele>397.009</ele>
        <time>2022-08-23T10:33:04Z</time>
      </trkpt>
      <trkpt lat="42.922706" lon="-8.293179">
        <ele>397.224</ele>
        <time>2022-08-23T10:33:08Z</time>
      </trkpt>
      <trkpt lat="42.922688" lon="-8.293238">
        <ele>397.444</ele>
        <time>2022-08-23T10:33:11Z</time>
      </trkpt>
      <trkpt lat="42.922674" lon="-8.293311">
        <ele>397.724</ele>
        <time>2022-08-23T10:33:15Z</time>
      </trkpt>
      <trkpt lat="42.922644" lon="-8.293367">
        <ele>398.198</ele>
        <time>2022-08-23T10:33:19Z</time>
      </trkpt>
      <trkpt lat="42.922625" lon="-8.293446">
        <ele>398.658</ele>
        <time>2022-08-23T10:33:23Z</time>
      </trkpt>
      <trkpt lat="42.922603" lon="-8.293521">
        <ele>399.079</ele>
        <time>2022-08-23T10:33:27Z</time>
      </trkpt>
      <trkpt lat="42.922586" lon="-8.293580">
        <ele>399.477</ele>
        <time>2022-08-23T10:33:30Z</time>
      </trkpt>
      <trkpt lat="42.922564" lon="-8.293645">
        <ele>399.550</ele>
        <time>2022-08-23T10:33:34Z</time>
      </trkpt>
      <trkpt lat="42.922536" lon="-8.293704">
        <ele>399.835</ele>
        <time>2022-08-23T10:33:38Z</time>
      </trkpt>
      <trkpt lat="42.922506" lon="-8.293763">
        <ele>399.961</ele>
        <time>2022-08-23T10:33:43Z</time>
      </trkpt>
      <trkpt lat="42.922476" lon="-8.293822">
        <ele>400.021</ele>
        <time>2022-08-23T10:33:47Z</time>
      </trkpt>
      <trkpt lat="42.922450" lon="-8.293881">
        <ele>400.013</ele>
        <time>2022-08-23T10:33:51Z</time>
      </trkpt>
      <trkpt lat="42.922421" lon="-8.293937">
        <ele>400.109</ele>
        <time>2022-08-23T10:33:56Z</time>
      </trkpt>
      <trkpt lat="42.922392" lon="-8.294002">
        <ele>400.287</ele>
        <time>2022-08-23T10:34:01Z</time>
      </trkpt>
      <trkpt lat="42.922361" lon="-8.294046">
        <ele>400.377</ele>
        <time>2022-08-23T10:34:05Z</time>
      </trkpt>
      <trkpt lat="42.922334" lon="-8.294103">
        <ele>400.417</ele>
        <time>2022-08-23T10:34:09Z</time>
      </trkpt>
      <trkpt lat="42.922303" lon="-8.294162">
        <ele>400.541</ele>
        <time>2022-08-23T10:34:13Z</time>
      </trkpt>
      <trkpt lat="42.922270" lon="-8.294218">
        <ele>400.621</ele>
        <time>2022-08-23T10:34:16Z</time>
      </trkpt>
      <trkpt lat="42.922247" lon="-8.294286">
        <ele>400.612</ele>
        <time>2022-08-23T10:34:20Z</time>
      </trkpt>
      <trkpt lat="42.922221" lon="-8.294346">
        <ele>400.620</ele>
        <time>2022-08-23T10:34:24Z</time>
      </trkpt>
      <trkpt lat="42.922187" lon="-8.294413">
        <ele>400.613</ele>
        <time>2022-08-23T10:34:28Z</time>
      </trkpt>
      <trkpt lat="42.922159" lon="-8.294485">
        <ele>400.618</ele>
        <time>2022-08-23T10:34:32Z</time>
      </trkpt>
      <trkpt lat="42.922135" lon="-8.294540">
        <ele>400.576</ele>
        <time>2022-08-23T10:34:35Z</time>
      </trkpt>
      <trkpt lat="42.922106" lon="-8.294592">
        <ele>400.490</ele>
        <time>2022-08-23T10:34:38Z</time>
      </trkpt>
      <trkpt lat="42.922074" lon="-8.294656">
        <ele>400.119</ele>
        <time>2022-08-23T10:34:42Z</time>
      </trkpt>
      <trkpt lat="42.922044" lon="-8.294713">
        <ele>400.009</ele>
        <time>2022-08-23T10:34:45Z</time>
      </trkpt>
      <trkpt lat="42.922012" lon="-8.294758">
        <ele>399.858</ele>
        <time>2022-08-23T10:34:48Z</time>
      </trkpt>
      <trkpt lat="42.921984" lon="-8.294806">
        <ele>399.658</ele>
        <time>2022-08-23T10:34:51Z</time>
      </trkpt>
      <trkpt lat="42.921947" lon="-8.294855">
        <ele>399.498</ele>
        <time>2022-08-23T10:34:55Z</time>
      </trkpt>
      <trkpt lat="42.921913" lon="-8.294912">
        <ele>399.212</ele>
        <time>2022-08-23T10:34:59Z</time>
      </trkpt>
      <trkpt lat="42.921877" lon="-8.294968">
        <ele>399.092</ele>
        <time>2022-08-23T10:35:04Z</time>
      </trkpt>
      <trkpt lat="42.921839" lon="-8.295031">
        <ele>398.753</ele>
        <time>2022-08-23T10:35:08Z</time>
      </trkpt>
      <trkpt lat="42.921812" lon="-8.295090">
        <ele>398.291</ele>
        <time>2022-08-23T10:35:12Z</time>
      </trkpt>
      <trkpt lat="42.921786" lon="-8.295141">
        <ele>398.134</ele>
        <time>2022-08-23T10:35:15Z</time>
      </trkpt>
      <trkpt lat="42.921757" lon="-8.295195">
        <ele>397.879</ele>
        <time>2022-08-23T10:35:19Z</time>
      </trkpt>
      <trkpt lat="42.921730" lon="-8.295254">
        <ele>397.591</ele>
        <time>2022-08-23T10:35:23Z</time>
      </trkpt>
      <trkpt lat="42.921706" lon="-8.295311">
        <ele>397.381</ele>
        <time>2022-08-23T10:35:27Z</time>
      </trkpt>
      <trkpt lat="42.921673" lon="-8.295377">
        <ele>397.119</ele>
        <time>2022-08-23T10:35:31Z</time>
      </trkpt>
      <trkpt lat="42.921655" lon="-8.295437">
        <ele>396.909</ele>
        <time>2022-08-23T10:35:35Z</time>
      </trkpt>
      <trkpt lat="42.921628" lon="-8.295496">
        <ele>396.670</ele>
        <time>2022-08-23T10:35:39Z</time>
      </trkpt>
      <trkpt lat="42.921601" lon="-8.295554">
        <ele>396.390</ele>
        <time>2022-08-23T10:35:42Z</time>
      </trkpt>
      <trkpt lat="42.921581" lon="-8.295613">
        <ele>396.030</ele>
        <time>2022-08-23T10:35:46Z</time>
      </trkpt>
      <trkpt lat="42.921553" lon="-8.295676">
        <ele>395.864</ele>
        <time>2022-08-23T10:35:50Z</time>
      </trkpt>
      <trkpt lat="42.921531" lon="-8.295747">
        <ele>395.614</ele>
        <time>2022-08-23T10:35:54Z</time>
      </trkpt>
      <trkpt lat="42.921501" lon="-8.295808">
        <ele>395.365</ele>
        <time>2022-08-23T10:35:58Z</time>
      </trkpt>
      <trkpt lat="42.921473" lon="-8.295861">
        <ele>395.023</ele>
        <time>2022-08-23T10:36:01Z</time>
      </trkpt>
      <trkpt lat="42.921451" lon="-8.295917">
        <ele>394.756</ele>
        <time>2022-08-23T10:36:04Z</time>
      </trkpt>
      <trkpt lat="42.921425" lon="-8.295978">
        <ele>394.481</ele>
        <time>2022-08-23T10:36:08Z</time>
      </trkpt>
      <trkpt lat="42.921395" lon="-8.296044">
        <ele>394.127</ele>
        <time>2022-08-23T10:36:12Z</time>
      </trkpt>
      <trkpt lat="42.921355" lon="-8.296097">
        <ele>393.868</ele>
        <time>2022-08-23T10:36:16Z</time>
      </trkpt>
      <trkpt lat="42.921321" lon="-8.296147">
        <ele>393.514</ele>
        <time>2022-08-23T10:36:20Z</time>
      </trkpt>
      <trkpt lat="42.921287" lon="-8.296201">
        <ele>393.209</ele>
        <time>2022-08-23T10:36:23Z</time>
      </trkpt>
      <trkpt lat="42.921243" lon="-8.296234">
        <ele>392.993</ele>
        <time>2022-08-23T10:36:26Z</time>
      </trkpt>
      <trkpt lat="42.921201" lon="-8.296290">
        <ele>392.613</ele>
        <time>2022-08-23T10:36:30Z</time>
      </trkpt>
      <trkpt lat="42.921151" lon="-8.296341">
        <ele>392.233</ele>
        <time>2022-08-23T10:36:34Z</time>
      </trkpt>
      <trkpt lat="42.921116" lon="-8.296386">
        <ele>391.967</ele>
        <time>2022-08-23T10:36:37Z</time>
      </trkpt>
      <trkpt lat="42.921082" lon="-8.296430">
        <ele>391.727</ele>
        <time>2022-08-23T10:36:40Z</time>
      </trkpt>
      <trkpt lat="42.921036" lon="-8.296478">
        <ele>391.268</ele>
        <time>2022-08-23T10:36:44Z</time>
      </trkpt>
      <trkpt lat="42.920995" lon="-8.296531">
        <ele>391.086</ele>
        <time>2022-08-23T10:36:48Z</time>
      </trkpt>
      <trkpt lat="42.920958" lon="-8.296572">
        <ele>390.859</ele>
        <time>2022-08-23T10:36:52Z</time>
      </trkpt>
      <trkpt lat="42.920918" lon="-8.296617">
        <ele>390.574</ele>
        <time>2022-08-23T10:36:56Z</time>
      </trkpt>
      <trkpt lat="42.920884" lon="-8.296665">
        <ele>390.395</ele>
        <time>2022-08-23T10:37:01Z</time>
      </trkpt>
      <trkpt lat="42.920840" lon="-8.296717">
        <ele>390.149</ele>
        <time>2022-08-23T10:37:06Z</time>
      </trkpt>
      <trkpt lat="42.920807" lon="-8.296761">
        <ele>389.823</ele>
        <time>2022-08-23T10:37:09Z</time>
      </trkpt>
      <trkpt lat="42.920774" lon="-8.296808">
        <ele>389.509</ele>
        <time>2022-08-23T10:37:12Z</time>
      </trkpt>
      <trkpt lat="42.920739" lon="-8.296868">
        <ele>389.350</ele>
        <time>2022-08-23T10:37:16Z</time>
      </trkpt>
      <trkpt lat="42.920701" lon="-8.296929">
        <ele>389.250</ele>
        <time>2022-08-23T10:37:20Z</time>
      </trkpt>
      <trkpt lat="42.920668" lon="-8.296973">
        <ele>389.030</ele>
        <time>2022-08-23T10:37:23Z</time>
      </trkpt>
      <trkpt lat="42.920635" lon="-8.297018">
        <ele>388.874</ele>
        <time>2022-08-23T10:37:26Z</time>
      </trkpt>
      <trkpt lat="42.920608" lon="-8.297073">
        <ele>388.644</ele>
        <time>2022-08-23T10:37:29Z</time>
      </trkpt>
      <trkpt lat="42.920576" lon="-8.297127">
        <ele>388.325</ele>
        <time>2022-08-23T10:37:33Z</time>
      </trkpt>
      <trkpt lat="42.920552" lon="-8.297189">
        <ele>388.093</ele>
        <time>2022-08-23T10:37:37Z</time>
      </trkpt>
      <trkpt lat="42.920516" lon="-8.297236">
        <ele>387.646</ele>
        <time>2022-08-23T10:37:41Z</time>
      </trkpt>
      <trkpt lat="42.920488" lon="-8.297293">
        <ele>387.011</ele>
        <time>2022-08-23T10:37:45Z</time>
      </trkpt>
      <trkpt lat="42.920475" lon="-8.297352">
        <ele>386.382</ele>
        <time>2022-08-23T10:37:49Z</time>
      </trkpt>
      <trkpt lat="42.920458" lon="-8.297409">
        <ele>385.643</ele>
        <time>2022-08-23T10:37:54Z</time>
      </trkpt>
      <trkpt lat="42.920441" lon="-8.297470">
        <ele>385.017</ele>
        <time>2022-08-23T10:37:58Z</time>
      </trkpt>
      <trkpt lat="42.920429" lon="-8.297552">
        <ele>384.509</ele>
        <time>2022-08-23T10:38:03Z</time>
      </trkpt>
      <trkpt lat="42.920422" lon="-8.297627">
        <ele>384.019</ele>
        <time>2022-08-23T10:38:07Z</time>
      </trkpt>
      <trkpt lat="42.920416" lon="-8.297704">
        <ele>383.449</ele>
        <time>2022-08-23T10:38:11Z</time>
      </trkpt>
      <trkpt lat="42.920404" lon="-8.297769">
        <ele>382.439</ele>
        <time>2022-08-23T10:38:15Z</time>
      </trkpt>
      <trkpt lat="42.920390" lon="-8.297828">
        <ele>382.183</ele>
        <time>2022-08-23T10:38:18Z</time>
      </trkpt>
      <trkpt lat="42.920377" lon="-8.297889">
        <ele>381.473</ele>
        <time>2022-08-23T10:38:21Z</time>
      </trkpt>
      <trkpt lat="42.920360" lon="-8.297954">
        <ele>380.774</ele>
        <time>2022-08-23T10:38:24Z</time>
      </trkpt>
      <trkpt lat="42.920351" lon="-8.298023">
        <ele>380.162</ele>
        <time>2022-08-23T10:38:28Z</time>
      </trkpt>
      <trkpt lat="42.920331" lon="-8.298104">
        <ele>379.775</ele>
        <time>2022-08-23T10:38:32Z</time>
      </trkpt>
      <trkpt lat="42.920312" lon="-8.298164">
        <ele>379.480</ele>
        <time>2022-08-23T10:38:35Z</time>
      </trkpt>
      <trkpt lat="42.920289" lon="-8.298220">
        <ele>379.174</ele>
        <time>2022-08-23T10:38:38Z</time>
      </trkpt>
      <trkpt lat="42.920275" lon="-8.298288">
        <ele>378.956</ele>
        <time>2022-08-23T10:38:42Z</time>
      </trkpt>
      <trkpt lat="42.920285" lon="-8.298361">
        <ele>378.721</ele>
        <time>2022-08-23T10:38:48Z</time>
      </trkpt>
      <trkpt lat="42.920281" lon="-8.298425">
        <ele>378.209</ele>
        <time>2022-08-23T10:38:52Z</time>
      </trkpt>
      <trkpt lat="42.920281" lon="-8.298490">
        <ele>377.068</ele>
        <time>2022-08-23T10:38:56Z</time>
      </trkpt>
      <trkpt lat="42.920291" lon="-8.298564">
        <ele>375.698</ele>
        <time>2022-08-23T10:39:01Z</time>
      </trkpt>
      <trkpt lat="42.920297" lon="-8.298636">
        <ele>374.898</ele>
        <time>2022-08-23T10:39:04Z</time>
      </trkpt>
      <trkpt lat="42.920293" lon="-8.298699">
        <ele>374.122</ele>
        <time>2022-08-23T10:39:07Z</time>
      </trkpt>
      <trkpt lat="42.920270" lon="-8.298774">
        <ele>373.612</ele>
        <time>2022-08-23T10:39:10Z</time>
      </trkpt>
      <trkpt lat="42.920257" lon="-8.298849">
        <ele>373.243</ele>
        <time>2022-08-23T10:39:13Z</time>
      </trkpt>
      <trkpt lat="42.920233" lon="-8.298905">
        <ele>373.141</ele>
        <time>2022-08-23T10:39:16Z</time>
      </trkpt>
      <trkpt lat="42.920211" lon="-8.298980">
        <ele>372.874</ele>
        <time>2022-08-23T10:39:20Z</time>
      </trkpt>
      <trkpt lat="42.920193" lon="-8.299041">
        <ele>372.729</ele>
        <time>2022-08-23T10:39:24Z</time>
      </trkpt>
      <trkpt lat="42.920152" lon="-8.299088">
        <ele>372.634</ele>
        <time>2022-08-23T10:39:29Z</time>
      </trkpt>
      <trkpt lat="42.920108" lon="-8.299124">
        <ele>372.455</ele>
        <time>2022-08-23T10:39:33Z</time>
      </trkpt>
      <trkpt lat="42.920068" lon="-8.299159">
        <ele>372.210</ele>
        <time>2022-08-23T10:39:37Z</time>
      </trkpt>
      <trkpt lat="42.920023" lon="-8.299199">
        <ele>372.209</ele>
        <time>2022-08-23T10:39:40Z</time>
      </trkpt>
      <trkpt lat="42.919978" lon="-8.299221">
        <ele>372.264</ele>
        <time>2022-08-23T10:39:44Z</time>
      </trkpt>
      <trkpt lat="42.919939" lon="-8.299262">
        <ele>372.214</ele>
        <time>2022-08-23T10:39:47Z</time>
      </trkpt>
      <trkpt lat="42.919892" lon="-8.299305">
        <ele>372.234</ele>
        <time>2022-08-23T10:39:51Z</time>
      </trkpt>
      <trkpt lat="42.919845" lon="-8.299354">
        <ele>372.338</ele>
        <time>2022-08-23T10:39:55Z</time>
      </trkpt>
      <trkpt lat="42.919799" lon="-8.299380">
        <ele>372.478</ele>
        <time>2022-08-23T10:39:59Z</time>
      </trkpt>
      <trkpt lat="42.919764" lon="-8.299429">
        <ele>372.599</ele>
        <time>2022-08-23T10:40:02Z</time>
      </trkpt>
      <trkpt lat="42.919716" lon="-8.299466">
        <ele>372.687</ele>
        <time>2022-08-23T10:40:06Z</time>
      </trkpt>
      <trkpt lat="42.919665" lon="-8.299509">
        <ele>372.660</ele>
        <time>2022-08-23T10:40:10Z</time>
      </trkpt>
      <trkpt lat="42.919617" lon="-8.299558">
        <ele>372.685</ele>
        <time>2022-08-23T10:40:14Z</time>
      </trkpt>
      <trkpt lat="42.919575" lon="-8.299606">
        <ele>372.627</ele>
        <time>2022-08-23T10:40:18Z</time>
      </trkpt>
      <trkpt lat="42.919539" lon="-8.299665">
        <ele>372.668</ele>
        <time>2022-08-23T10:40:22Z</time>
      </trkpt>
      <trkpt lat="42.919509" lon="-8.299716">
        <ele>372.614</ele>
        <time>2022-08-23T10:40:26Z</time>
      </trkpt>
      <trkpt lat="42.919465" lon="-8.299764">
        <ele>372.709</ele>
        <time>2022-08-23T10:40:30Z</time>
      </trkpt>
      <trkpt lat="42.919430" lon="-8.299811">
        <ele>372.853</ele>
        <time>2022-08-23T10:40:33Z</time>
      </trkpt>
      <trkpt lat="42.919398" lon="-8.299869">
        <ele>372.933</ele>
        <time>2022-08-23T10:40:37Z</time>
      </trkpt>
      <trkpt lat="42.919368" lon="-8.299916">
        <ele>373.013</ele>
        <time>2022-08-23T10:40:41Z</time>
      </trkpt>
      <trkpt lat="42.919339" lon="-8.299965">
        <ele>373.197</ele>
        <time>2022-08-23T10:40:46Z</time>
      </trkpt>
      <trkpt lat="42.919322" lon="-8.300035">
        <ele>373.287</ele>
        <time>2022-08-23T10:40:51Z</time>
      </trkpt>
      <trkpt lat="42.919300" lon="-8.300100">
        <ele>373.378</ele>
        <time>2022-08-23T10:40:55Z</time>
      </trkpt>
      <trkpt lat="42.919280" lon="-8.300176">
        <ele>373.416</ele>
        <time>2022-08-23T10:40:59Z</time>
      </trkpt>
      <trkpt lat="42.919273" lon="-8.300241">
        <ele>373.529</ele>
        <time>2022-08-23T10:41:02Z</time>
      </trkpt>
      <trkpt lat="42.919262" lon="-8.300305">
        <ele>373.594</ele>
        <time>2022-08-23T10:41:05Z</time>
      </trkpt>
      <trkpt lat="42.919239" lon="-8.300364">
        <ele>373.526</ele>
        <time>2022-08-23T10:41:07Z</time>
      </trkpt>
      <trkpt lat="42.919223" lon="-8.300429">
        <ele>373.547</ele>
        <time>2022-08-23T10:41:10Z</time>
      </trkpt>
      <trkpt lat="42.919210" lon="-8.300491">
        <ele>373.511</ele>
        <time>2022-08-23T10:41:13Z</time>
      </trkpt>
      <trkpt lat="42.919188" lon="-8.300560">
        <ele>373.609</ele>
        <time>2022-08-23T10:41:17Z</time>
      </trkpt>
      <trkpt lat="42.919167" lon="-8.300637">
        <ele>373.743</ele>
        <time>2022-08-23T10:41:22Z</time>
      </trkpt>
      <trkpt lat="42.919155" lon="-8.300708">
        <ele>373.883</ele>
        <time>2022-08-23T10:41:26Z</time>
      </trkpt>
      <trkpt lat="42.919120" lon="-8.300762">
        <ele>374.023</ele>
        <time>2022-08-23T10:41:30Z</time>
      </trkpt>
      <trkpt lat="42.919086" lon="-8.300808">
        <ele>374.327</ele>
        <time>2022-08-23T10:41:34Z</time>
      </trkpt>
      <trkpt lat="42.919050" lon="-8.300868">
        <ele>375.047</ele>
        <time>2022-08-23T10:41:38Z</time>
      </trkpt>
      <trkpt lat="42.919010" lon="-8.300913">
        <ele>375.058</ele>
        <time>2022-08-23T10:41:42Z</time>
      </trkpt>
      <trkpt lat="42.918973" lon="-8.300964">
        <ele>375.046</ele>
        <time>2022-08-23T10:41:46Z</time>
      </trkpt>
      <trkpt lat="42.918933" lon="-8.301013">
        <ele>375.059</ele>
        <time>2022-08-23T10:41:50Z</time>
      </trkpt>
      <trkpt lat="42.918888" lon="-8.301050">
        <ele>374.754</ele>
        <time>2022-08-23T10:41:54Z</time>
      </trkpt>
      <trkpt lat="42.918869" lon="-8.301115">
        <ele>374.263</ele>
        <time>2022-08-23T10:41:58Z</time>
      </trkpt>
      <trkpt lat="42.918956" lon="-8.301239">
        <ele>373.344</ele>
        <time>2022-08-23T10:42:10Z</time>
      </trkpt>
      <trkpt lat="42.918970" lon="-8.301309">
        <ele>372.918</ele>
        <time>2022-08-23T10:42:12Z</time>
      </trkpt>
      <trkpt lat="42.918991" lon="-8.301368">
        <ele>372.909</ele>
        <time>2022-08-23T10:42:15Z</time>
      </trkpt>
      <trkpt lat="42.918996" lon="-8.301444">
        <ele>372.957</ele>
        <time>2022-08-23T10:42:19Z</time>
      </trkpt>
      <trkpt lat="42.919004" lon="-8.301519">
        <ele>373.047</ele>
        <time>2022-08-23T10:42:24Z</time>
      </trkpt>
      <trkpt lat="42.919024" lon="-8.301582">
        <ele>373.217</ele>
        <time>2022-08-23T10:42:28Z</time>
      </trkpt>
      <trkpt lat="42.919062" lon="-8.301629">
        <ele>373.911</ele>
        <time>2022-08-23T10:42:32Z</time>
      </trkpt>
      <trkpt lat="42.919095" lon="-8.301688">
        <ele>374.821</ele>
        <time>2022-08-23T10:42:37Z</time>
      </trkpt>
      <trkpt lat="42.919105" lon="-8.301750">
        <ele>375.582</ele>
        <time>2022-08-23T10:42:42Z</time>
      </trkpt>
      <trkpt lat="42.919116" lon="-8.301816">
        <ele>376.110</ele>
        <time>2022-08-23T10:42:45Z</time>
      </trkpt>
      <trkpt lat="42.919127" lon="-8.301889">
        <ele>376.443</ele>
        <time>2022-08-23T10:42:50Z</time>
      </trkpt>
      <trkpt lat="42.919129" lon="-8.301962">
        <ele>376.488</ele>
        <time>2022-08-23T10:42:55Z</time>
      </trkpt>
      <trkpt lat="42.919127" lon="-8.302024">
        <ele>376.527</ele>
        <time>2022-08-23T10:43:00Z</time>
      </trkpt>
      <trkpt lat="42.919125" lon="-8.302096">
        <ele>376.668</ele>
        <time>2022-08-23T10:43:03Z</time>
      </trkpt>
      <trkpt lat="42.919140" lon="-8.302157">
        <ele>376.714</ele>
        <time>2022-08-23T10:43:07Z</time>
      </trkpt>
      <trkpt lat="42.919154" lon="-8.302233">
        <ele>376.809</ele>
        <time>2022-08-23T10:43:10Z</time>
      </trkpt>
      <trkpt lat="42.919172" lon="-8.302307">
        <ele>376.913</ele>
        <time>2022-08-23T10:43:13Z</time>
      </trkpt>
      <trkpt lat="42.919184" lon="-8.302370">
        <ele>377.013</ele>
        <time>2022-08-23T10:43:16Z</time>
      </trkpt>
      <trkpt lat="42.919185" lon="-8.302447">
        <ele>377.193</ele>
        <time>2022-08-23T10:43:20Z</time>
      </trkpt>
      <trkpt lat="42.919201" lon="-8.302518">
        <ele>377.477</ele>
        <time>2022-08-23T10:43:23Z</time>
      </trkpt>
      <trkpt lat="42.919206" lon="-8.302581">
        <ele>377.697</ele>
        <time>2022-08-23T10:43:26Z</time>
      </trkpt>
      <trkpt lat="42.919212" lon="-8.302642">
        <ele>377.828</ele>
        <time>2022-08-23T10:43:29Z</time>
      </trkpt>
      <trkpt lat="42.919213" lon="-8.302715">
        <ele>377.926</ele>
        <time>2022-08-23T10:43:33Z</time>
      </trkpt>
      <trkpt lat="42.919238" lon="-8.302787">
        <ele>378.019</ele>
        <time>2022-08-23T10:43:37Z</time>
      </trkpt>
      <trkpt lat="42.919260" lon="-8.302853">
        <ele>378.184</ele>
        <time>2022-08-23T10:43:41Z</time>
      </trkpt>
      <trkpt lat="42.919281" lon="-8.302920">
        <ele>378.333</ele>
        <time>2022-08-23T10:43:45Z</time>
      </trkpt>
      <trkpt lat="42.919289" lon="-8.302981">
        <ele>378.623</ele>
        <time>2022-08-23T10:43:48Z</time>
      </trkpt>
      <trkpt lat="42.919294" lon="-8.303044">
        <ele>378.915</ele>
        <time>2022-08-23T10:43:51Z</time>
      </trkpt>
      <trkpt lat="42.919311" lon="-8.303121">
        <ele>379.009</ele>
        <time>2022-08-23T10:43:55Z</time>
      </trkpt>
      <trkpt lat="42.919309" lon="-8.303198">
        <ele>379.114</ele>
        <time>2022-08-23T10:43:59Z</time>
      </trkpt>
      <trkpt lat="42.919300" lon="-8.303273">
        <ele>379.324</ele>
        <time>2022-08-23T10:44:03Z</time>
      </trkpt>
      <trkpt lat="42.919305" lon="-8.303349">
        <ele>379.654</ele>
        <time>2022-08-23T10:44:07Z</time>
      </trkpt>
      <trkpt lat="42.919308" lon="-8.303422">
        <ele>379.868</ele>
        <time>2022-08-23T10:44:11Z</time>
      </trkpt>
      <trkpt lat="42.919317" lon="-8.303485">
        <ele>379.928</ele>
        <time>2022-08-23T10:44:14Z</time>
      </trkpt>
      <trkpt lat="42.919322" lon="-8.303563">
        <ele>380.279</ele>
        <time>2022-08-23T10:44:18Z</time>
      </trkpt>
      <trkpt lat="42.919319" lon="-8.303639">
        <ele>380.327</ele>
        <time>2022-08-23T10:44:22Z</time>
      </trkpt>
      <trkpt lat="42.919309" lon="-8.303715">
        <ele>380.470</ele>
        <time>2022-08-23T10:44:26Z</time>
      </trkpt>
      <trkpt lat="42.919288" lon="-8.303770">
        <ele>380.535</ele>
        <time>2022-08-23T10:44:30Z</time>
      </trkpt>
      <trkpt lat="42.919275" lon="-8.303843">
        <ele>380.884</ele>
        <time>2022-08-23T10:44:34Z</time>
      </trkpt>
      <trkpt lat="42.919270" lon="-8.303920">
        <ele>380.807</ele>
        <time>2022-08-23T10:44:38Z</time>
      </trkpt>
      <trkpt lat="42.919262" lon="-8.303996">
        <ele>380.817</ele>
        <time>2022-08-23T10:44:42Z</time>
      </trkpt>
      <trkpt lat="42.919253" lon="-8.304069">
        <ele>380.709</ele>
        <time>2022-08-23T10:44:46Z</time>
      </trkpt>
      <trkpt lat="42.919239" lon="-8.304144">
        <ele>380.649</ele>
        <time>2022-08-23T10:44:50Z</time>
      </trkpt>
      <trkpt lat="42.919232" lon="-8.304220">
        <ele>380.419</ele>
        <time>2022-08-23T10:44:54Z</time>
      </trkpt>
      <trkpt lat="42.919218" lon="-8.304295">
        <ele>380.159</ele>
        <time>2022-08-23T10:44:58Z</time>
      </trkpt>
      <trkpt lat="42.919209" lon="-8.304360">
        <ele>379.993</ele>
        <time>2022-08-23T10:45:02Z</time>
      </trkpt>
      <trkpt lat="42.919206" lon="-8.304432">
        <ele>379.713</ele>
        <time>2022-08-23T10:45:07Z</time>
      </trkpt>
      <trkpt lat="42.919192" lon="-8.304500">
        <ele>379.554</ele>
        <time>2022-08-23T10:45:11Z</time>
      </trkpt>
      <trkpt lat="42.919179" lon="-8.304575">
        <ele>379.272</ele>
        <time>2022-08-23T10:45:16Z</time>
      </trkpt>
      <trkpt lat="42.919174" lon="-8.304646">
        <ele>378.985</ele>
        <time>2022-08-23T10:45:20Z</time>
      </trkpt>
      <trkpt lat="42.919152" lon="-8.304718">
        <ele>378.520</ele>
        <time>2022-08-23T10:45:24Z</time>
      </trkpt>
      <trkpt lat="42.919134" lon="-8.304795">
        <ele>378.311</ele>
        <time>2022-08-23T10:45:28Z</time>
      </trkpt>
      <trkpt lat="42.919117" lon="-8.304852">
        <ele>378.121</ele>
        <time>2022-08-23T10:45:32Z</time>
      </trkpt>
      <trkpt lat="42.919109" lon="-8.304913">
        <ele>378.003</ele>
        <time>2022-08-23T10:45:35Z</time>
      </trkpt>
      <trkpt lat="42.919102" lon="-8.304978">
        <ele>377.709</ele>
        <time>2022-08-23T10:45:38Z</time>
      </trkpt>
      <trkpt lat="42.919096" lon="-8.305042">
        <ele>377.572</ele>
        <time>2022-08-23T10:45:41Z</time>
      </trkpt>
      <trkpt lat="42.919074" lon="-8.305103">
        <ele>377.362</ele>
        <time>2022-08-23T10:45:44Z</time>
      </trkpt>
      <trkpt lat="42.919029" lon="-8.305133">
        <ele>377.172</ele>
        <time>2022-08-23T10:45:48Z</time>
      </trkpt>
      <trkpt lat="42.918983" lon="-8.305169">
        <ele>376.976</ele>
        <time>2022-08-23T10:45:52Z</time>
      </trkpt>
      <trkpt lat="42.918938" lon="-8.305207">
        <ele>376.736</ele>
        <time>2022-08-23T10:45:56Z</time>
      </trkpt>
      <trkpt lat="42.918894" lon="-8.305249">
        <ele>376.477</ele>
        <time>2022-08-23T10:46:01Z</time>
      </trkpt>
      <trkpt lat="42.918856" lon="-8.305285">
        <ele>376.185</ele>
        <time>2022-08-23T10:46:04Z</time>
      </trkpt>
      <trkpt lat="42.918853" lon="-8.305361">
        <ele>375.828</ele>
        <time>2022-08-23T10:46:08Z</time>
      </trkpt>
      <trkpt lat="42.918861" lon="-8.305438">
        <ele>375.653</ele>
        <time>2022-08-23T10:46:12Z</time>
      </trkpt>
      <trkpt lat="42.918863" lon="-8.305512">
        <ele>375.425</ele>
        <time>2022-08-23T10:46:16Z</time>
      </trkpt>
      <trkpt lat="42.918888" lon="-8.305576">
        <ele>375.126</ele>
        <time>2022-08-23T10:46:20Z</time>
      </trkpt>
      <trkpt lat="42.918932" lon="-8.305615">
        <ele>374.608</ele>
        <time>2022-08-23T10:46:24Z</time>
      </trkpt>
      <trkpt lat="42.918972" lon="-8.305662">
        <ele>374.309</ele>
        <time>2022-08-23T10:46:28Z</time>
      </trkpt>
      <trkpt lat="42.918999" lon="-8.305726">
        <ele>373.733</ele>
        <time>2022-08-23T10:46:32Z</time>
      </trkpt>
      <trkpt lat="42.919008" lon="-8.305802">
        <ele>373.113</ele>
        <time>2022-08-23T10:46:36Z</time>
      </trkpt>
      <trkpt lat="42.919003" lon="-8.305865">
        <ele>372.553</ele>
        <time>2022-08-23T10:46:39Z</time>
      </trkpt>
      <trkpt lat="42.919005" lon="-8.305936">
        <ele>371.967</ele>
        <time>2022-08-23T10:46:43Z</time>
      </trkpt>
      <trkpt lat="42.919007" lon="-8.306006">
        <ele>371.427</ele>
        <time>2022-08-23T10:46:47Z</time>
      </trkpt>
      <trkpt lat="42.919003" lon="-8.306085">
        <ele>371.078</ele>
        <time>2022-08-23T10:46:51Z</time>
      </trkpt>
      <trkpt lat="42.919003" lon="-8.306151">
        <ele>370.446</ele>
        <time>2022-08-23T10:46:54Z</time>
      </trkpt>
      <trkpt lat="42.919008" lon="-8.306213">
        <ele>369.839</ele>
        <time>2022-08-23T10:46:57Z</time>
      </trkpt>
      <trkpt lat="42.919009" lon="-8.306292">
        <ele>369.374</ele>
        <time>2022-08-23T10:47:01Z</time>
      </trkpt>
      <trkpt lat="42.919015" lon="-8.306356">
        <ele>368.925</ele>
        <time>2022-08-23T10:47:04Z</time>
      </trkpt>
      <trkpt lat="42.919017" lon="-8.306440">
        <ele>368.526</ele>
        <time>2022-08-23T10:47:08Z</time>
      </trkpt>
      <trkpt lat="42.919026" lon="-8.306510">
        <ele>368.108</ele>
        <time>2022-08-23T10:47:12Z</time>
      </trkpt>
      <trkpt lat="42.919027" lon="-8.306573">
        <ele>367.709</ele>
        <time>2022-08-23T10:47:15Z</time>
      </trkpt>
      <trkpt lat="42.919023" lon="-8.306634">
        <ele>367.323</ele>
        <time>2022-08-23T10:47:18Z</time>
      </trkpt>
      <trkpt lat="42.919019" lon="-8.306708">
        <ele>367.083</ele>
        <time>2022-08-23T10:47:22Z</time>
      </trkpt>
      <trkpt lat="42.919011" lon="-8.306786">
        <ele>366.853</ele>
        <time>2022-08-23T10:47:26Z</time>
      </trkpt>
      <trkpt lat="42.918993" lon="-8.306856">
        <ele>366.747</ele>
        <time>2022-08-23T10:47:30Z</time>
      </trkpt>
      <trkpt lat="42.918962" lon="-8.306911">
        <ele>366.527</ele>
        <time>2022-08-23T10:47:34Z</time>
      </trkpt>
      <trkpt lat="42.918936" lon="-8.306971">
        <ele>366.398</ele>
        <time>2022-08-23T10:47:38Z</time>
      </trkpt>
      <trkpt lat="42.918908" lon="-8.307037">
        <ele>366.086</ele>
        <time>2022-08-23T10:47:42Z</time>
      </trkpt>
      <trkpt lat="42.918876" lon="-8.307099">
        <ele>366.099</ele>
        <time>2022-08-23T10:47:46Z</time>
      </trkpt>
      <trkpt lat="42.918844" lon="-8.307153">
        <ele>366.024</ele>
        <time>2022-08-23T10:47:50Z</time>
      </trkpt>
      <trkpt lat="42.918818" lon="-8.307218">
        <ele>365.977</ele>
        <time>2022-08-23T10:47:55Z</time>
      </trkpt>
      <trkpt lat="42.918798" lon="-8.307277">
        <ele>365.861</ele>
        <time>2022-08-23T10:47:59Z</time>
      </trkpt>
      <trkpt lat="42.918765" lon="-8.307340">
        <ele>365.827</ele>
        <time>2022-08-23T10:48:04Z</time>
      </trkpt>
      <trkpt lat="42.918741" lon="-8.307399">
        <ele>365.809</ele>
        <time>2022-08-23T10:48:08Z</time>
      </trkpt>
      <trkpt lat="42.918711" lon="-8.307452">
        <ele>365.868</ele>
        <time>2022-08-23T10:48:12Z</time>
      </trkpt>
      <trkpt lat="42.918671" lon="-8.307508">
        <ele>365.868</ele>
        <time>2022-08-23T10:48:16Z</time>
      </trkpt>
      <trkpt lat="42.918632" lon="-8.307568">
        <ele>365.828</ele>
        <time>2022-08-23T10:48:20Z</time>
      </trkpt>
      <trkpt lat="42.918599" lon="-8.307618">
        <ele>365.822</ele>
        <time>2022-08-23T10:48:24Z</time>
      </trkpt>
      <trkpt lat="42.918569" lon="-8.307679">
        <ele>365.862</ele>
        <time>2022-08-23T10:48:28Z</time>
      </trkpt>
      <trkpt lat="42.918548" lon="-8.307744">
        <ele>365.873</ele>
        <time>2022-08-23T10:48:31Z</time>
      </trkpt>
      <trkpt lat="42.918537" lon="-8.307805">
        <ele>365.861</ele>
        <time>2022-08-23T10:48:34Z</time>
      </trkpt>
      <trkpt lat="42.918525" lon="-8.307879">
        <ele>365.924</ele>
        <time>2022-08-23T10:48:38Z</time>
      </trkpt>
      <trkpt lat="42.918520" lon="-8.307952">
        <ele>366.019</ele>
        <time>2022-08-23T10:48:43Z</time>
      </trkpt>
      <trkpt lat="42.918506" lon="-8.308014">
        <ele>366.115</ele>
        <time>2022-08-23T10:48:47Z</time>
      </trkpt>
      <trkpt lat="42.918482" lon="-8.308073">
        <ele>366.265</ele>
        <time>2022-08-23T10:48:50Z</time>
      </trkpt>
      <trkpt lat="42.918466" lon="-8.308136">
        <ele>366.211</ele>
        <time>2022-08-23T10:48:53Z</time>
      </trkpt>
      <trkpt lat="42.918453" lon="-8.308219">
        <ele>366.209</ele>
        <time>2022-08-23T10:48:57Z</time>
      </trkpt>
      <trkpt lat="42.918441" lon="-8.308283">
        <ele>366.332</ele>
        <time>2022-08-23T10:49:00Z</time>
      </trkpt>
      <trkpt lat="42.918435" lon="-8.308347">
        <ele>366.312</ele>
        <time>2022-08-23T10:49:03Z</time>
      </trkpt>
      <trkpt lat="42.918436" lon="-8.308425">
        <ele>366.362</ele>
        <time>2022-08-23T10:49:07Z</time>
      </trkpt>
      <trkpt lat="42.918447" lon="-8.308485">
        <ele>366.326</ele>
        <time>2022-08-23T10:49:10Z</time>
      </trkpt>
      <trkpt lat="42.918453" lon="-8.308547">
        <ele>366.376</ele>
        <time>2022-08-23T10:49:13Z</time>
      </trkpt>
      <trkpt lat="42.918466" lon="-8.308608">
        <ele>366.467</ele>
        <time>2022-08-23T10:49:16Z</time>
      </trkpt>
      <trkpt lat="42.918480" lon="-8.308686">
        <ele>366.525</ele>
        <time>2022-08-23T10:49:20Z</time>
      </trkpt>
      <trkpt lat="42.918491" lon="-8.308748">
        <ele>366.668</ele>
        <time>2022-08-23T10:49:23Z</time>
      </trkpt>
      <trkpt lat="42.918480" lon="-8.308819">
        <ele>366.723</ele>
        <time>2022-08-23T10:49:26Z</time>
      </trkpt>
      <trkpt lat="42.918464" lon="-8.308878">
        <ele>366.814</ele>
        <time>2022-08-23T10:49:29Z</time>
      </trkpt>
      <trkpt lat="42.918440" lon="-8.308951">
        <ele>366.854</ele>
        <time>2022-08-23T10:49:33Z</time>
      </trkpt>
      <trkpt lat="42.918414" lon="-8.309016">
        <ele>366.809</ele>
        <time>2022-08-23T10:49:37Z</time>
      </trkpt>
      <trkpt lat="42.918387" lon="-8.309080">
        <ele>366.909</ele>
        <time>2022-08-23T10:49:41Z</time>
      </trkpt>
      <trkpt lat="42.918381" lon="-8.309159">
        <ele>367.382</ele>
        <time>2022-08-23T10:49:45Z</time>
      </trkpt>
      <trkpt lat="42.918378" lon="-8.309229">
        <ele>367.462</ele>
        <time>2022-08-23T10:49:49Z</time>
      </trkpt>
      <trkpt lat="42.918372" lon="-8.309303">
        <ele>367.682</ele>
        <time>2022-08-23T10:49:53Z</time>
      </trkpt>
      <trkpt lat="42.918375" lon="-8.309374">
        <ele>367.976</ele>
        <time>2022-08-23T10:49:57Z</time>
      </trkpt>
      <trkpt lat="42.918380" lon="-8.309452">
        <ele>368.046</ele>
        <time>2022-08-23T10:50:01Z</time>
      </trkpt>
      <trkpt lat="42.918382" lon="-8.309526">
        <ele>368.157</ele>
        <time>2022-08-23T10:50:05Z</time>
      </trkpt>
      <trkpt lat="42.918390" lon="-8.309602">
        <ele>368.315</ele>
        <time>2022-08-23T10:50:09Z</time>
      </trkpt>
      <trkpt lat="42.918395" lon="-8.309676">
        <ele>368.598</ele>
        <time>2022-08-23T10:50:13Z</time>
      </trkpt>
      <trkpt lat="42.918398" lon="-8.309753">
        <ele>368.683</ele>
        <time>2022-08-23T10:50:17Z</time>
      </trkpt>
      <trkpt lat="42.918390" lon="-8.309829">
        <ele>368.745</ele>
        <time>2022-08-23T10:50:21Z</time>
      </trkpt>
      <trkpt lat="42.918385" lon="-8.309906">
        <ele>368.847</ele>
        <time>2022-08-23T10:50:25Z</time>
      </trkpt>
      <trkpt lat="42.918394" lon="-8.309974">
        <ele>368.911</ele>
        <time>2022-08-23T10:50:29Z</time>
      </trkpt>
      <trkpt lat="42.918396" lon="-8.310040">
        <ele>369.009</ele>
        <time>2022-08-23T10:50:32Z</time>
      </trkpt>
      <trkpt lat="42.918396" lon="-8.310112">
        <ele>369.345</ele>
        <time>2022-08-23T10:50:36Z</time>
      </trkpt>
      <trkpt lat="42.918386" lon="-8.310180">
        <ele>369.665</ele>
        <time>2022-08-23T10:50:40Z</time>
      </trkpt>
      <trkpt lat="42.918383" lon="-8.310244">
        <ele>369.935</ele>
        <time>2022-08-23T10:50:43Z</time>
      </trkpt>
      <trkpt lat="42.918376" lon="-8.310325">
        <ele>370.159</ele>
        <time>2022-08-23T10:50:47Z</time>
      </trkpt>
      <trkpt lat="42.918372" lon="-8.310401">
        <ele>370.299</ele>
        <time>2022-08-23T10:50:51Z</time>
      </trkpt>
      <trkpt lat="42.918361" lon="-8.310477">
        <ele>370.380</ele>
        <time>2022-08-23T10:50:55Z</time>
      </trkpt>
      <trkpt lat="42.918351" lon="-8.310554">
        <ele>370.458</ele>
        <time>2022-08-23T10:50:59Z</time>
      </trkpt>
      <trkpt lat="42.918319" lon="-8.310621">
        <ele>370.511</ele>
        <time>2022-08-23T10:51:03Z</time>
      </trkpt>
      <trkpt lat="42.918267" lon="-8.310644">
        <ele>370.696</ele>
        <time>2022-08-23T10:51:07Z</time>
      </trkpt>
      <trkpt lat="42.918213" lon="-8.310629">
        <ele>370.779</ele>
        <time>2022-08-23T10:51:11Z</time>
      </trkpt>
      <trkpt lat="42.918158" lon="-8.310619">
        <ele>370.805</ele>
        <time>2022-08-23T10:51:15Z</time>
      </trkpt>
      <trkpt lat="42.918103" lon="-8.310607">
        <ele>370.825</ele>
        <time>2022-08-23T10:51:19Z</time>
      </trkpt>
      <trkpt lat="42.918050" lon="-8.310593">
        <ele>370.809</ele>
        <time>2022-08-23T10:51:23Z</time>
      </trkpt>
      <trkpt lat="42.917997" lon="-8.310577">
        <ele>370.728</ele>
        <time>2022-08-23T10:51:27Z</time>
      </trkpt>
      <trkpt lat="42.917943" lon="-8.310565">
        <ele>370.618</ele>
        <time>2022-08-23T10:51:31Z</time>
      </trkpt>
      <trkpt lat="42.917885" lon="-8.310551">
        <ele>370.558</ele>
        <time>2022-08-23T10:51:35Z</time>
      </trkpt>
      <trkpt lat="42.917830" lon="-8.310535">
        <ele>370.452</ele>
        <time>2022-08-23T10:51:39Z</time>
      </trkpt>
      <trkpt lat="42.917775" lon="-8.310519">
        <ele>370.292</ele>
        <time>2022-08-23T10:51:43Z</time>
      </trkpt>
      <trkpt lat="42.917720" lon="-8.310502">
        <ele>370.083</ele>
        <time>2022-08-23T10:51:47Z</time>
      </trkpt>
      <trkpt lat="42.917666" lon="-8.310492">
        <ele>369.861</ele>
        <time>2022-08-23T10:51:51Z</time>
      </trkpt>
      <trkpt lat="42.917611" lon="-8.310481">
        <ele>369.674</ele>
        <time>2022-08-23T10:51:55Z</time>
      </trkpt>
      <trkpt lat="42.917554" lon="-8.310471">
        <ele>369.269</ele>
        <time>2022-08-23T10:51:59Z</time>
      </trkpt>
      <trkpt lat="42.917515" lon="-8.310507">
        <ele>369.065</ele>
        <time>2022-08-23T10:52:03Z</time>
      </trkpt>
      <trkpt lat="42.917509" lon="-8.310575">
        <ele>369.168</ele>
        <time>2022-08-23T10:52:08Z</time>
      </trkpt>
      <trkpt lat="42.917503" lon="-8.310641">
        <ele>369.114</ele>
        <time>2022-08-23T10:52:12Z</time>
      </trkpt>
      <trkpt lat="42.917495" lon="-8.310710">
        <ele>369.109</ele>
        <time>2022-08-23T10:52:16Z</time>
      </trkpt>
      <trkpt lat="42.917484" lon="-8.310775">
        <ele>369.417</ele>
        <time>2022-08-23T10:52:19Z</time>
      </trkpt>
      <trkpt lat="42.917478" lon="-8.310836">
        <ele>369.857</ele>
        <time>2022-08-23T10:52:22Z</time>
      </trkpt>
      <trkpt lat="42.917470" lon="-8.310913">
        <ele>370.167</ele>
        <time>2022-08-23T10:52:26Z</time>
      </trkpt>
      <trkpt lat="42.917458" lon="-8.310991">
        <ele>370.311</ele>
        <time>2022-08-23T10:52:30Z</time>
      </trkpt>
      <trkpt lat="42.917447" lon="-8.311064">
        <ele>370.521</ele>
        <time>2022-08-23T10:52:34Z</time>
      </trkpt>
      <trkpt lat="42.917436" lon="-8.311141">
        <ele>370.942</ele>
        <time>2022-08-23T10:52:38Z</time>
      </trkpt>
      <trkpt lat="42.917428" lon="-8.311215">
        <ele>371.280</ele>
        <time>2022-08-23T10:52:42Z</time>
      </trkpt>
      <trkpt lat="42.917415" lon="-8.311294">
        <ele>371.523</ele>
        <time>2022-08-23T10:52:46Z</time>
      </trkpt>
      <trkpt lat="42.917402" lon="-8.311369">
        <ele>371.768</ele>
        <time>2022-08-23T10:52:50Z</time>
      </trkpt>
      <trkpt lat="42.917401" lon="-8.311445">
        <ele>371.959</ele>
        <time>2022-08-23T10:52:54Z</time>
      </trkpt>
      <trkpt lat="42.917380" lon="-8.311518">
        <ele>372.203</ele>
        <time>2022-08-23T10:52:58Z</time>
      </trkpt>
      <trkpt lat="42.917374" lon="-8.311593">
        <ele>372.523</ele>
        <time>2022-08-23T10:53:02Z</time>
      </trkpt>
      <trkpt lat="42.917374" lon="-8.311668">
        <ele>372.809</ele>
        <time>2022-08-23T10:53:06Z</time>
      </trkpt>
      <trkpt lat="42.917361" lon="-8.311741">
        <ele>372.966</ele>
        <time>2022-08-23T10:53:10Z</time>
      </trkpt>
      <trkpt lat="42.917357" lon="-8.311816">
        <ele>373.046</ele>
        <time>2022-08-23T10:53:14Z</time>
      </trkpt>
      <trkpt lat="42.917350" lon="-8.311890">
        <ele>373.316</ele>
        <time>2022-08-23T10:53:18Z</time>
      </trkpt>
      <trkpt lat="42.917348" lon="-8.311966">
        <ele>373.420</ele>
        <time>2022-08-23T10:53:22Z</time>
      </trkpt>
      <trkpt lat="42.917339" lon="-8.312039">
        <ele>373.710</ele>
        <time>2022-08-23T10:53:26Z</time>
      </trkpt>
      <trkpt lat="42.917335" lon="-8.312110">
        <ele>373.991</ele>
        <time>2022-08-23T10:53:30Z</time>
      </trkpt>
      <trkpt lat="42.917320" lon="-8.312181">
        <ele>374.189</ele>
        <time>2022-08-23T10:53:34Z</time>
      </trkpt>
      <trkpt lat="42.917310" lon="-8.312254">
        <ele>374.412</ele>
        <time>2022-08-23T10:53:38Z</time>
      </trkpt>
      <trkpt lat="42.917309" lon="-8.312322">
        <ele>374.687</ele>
        <time>2022-08-23T10:53:42Z</time>
      </trkpt>
      <trkpt lat="42.917301" lon="-8.312391">
        <ele>374.912</ele>
        <time>2022-08-23T10:53:46Z</time>
      </trkpt>
      <trkpt lat="42.917295" lon="-8.312467">
        <ele>375.132</ele>
        <time>2022-08-23T10:53:51Z</time>
      </trkpt>
      <trkpt lat="42.917291" lon="-8.312532">
        <ele>375.305</ele>
        <time>2022-08-23T10:53:55Z</time>
      </trkpt>
      <trkpt lat="42.917281" lon="-8.312609">
        <ele>375.409</ele>
        <time>2022-08-23T10:53:59Z</time>
      </trkpt>
      <trkpt lat="42.917276" lon="-8.312671">
        <ele>375.512</ele>
        <time>2022-08-23T10:54:02Z</time>
      </trkpt>
      <trkpt lat="42.917270" lon="-8.312733">
        <ele>375.652</ele>
        <time>2022-08-23T10:54:05Z</time>
      </trkpt>
      <trkpt lat="42.917266" lon="-8.312806">
        <ele>375.732</ele>
        <time>2022-08-23T10:54:09Z</time>
      </trkpt>
      <trkpt lat="42.917262" lon="-8.312880">
        <ele>375.876</ele>
        <time>2022-08-23T10:54:13Z</time>
      </trkpt>
      <trkpt lat="42.917248" lon="-8.312955">
        <ele>375.986</ele>
        <time>2022-08-23T10:54:17Z</time>
      </trkpt>
      <trkpt lat="42.917242" lon="-8.313024">
        <ele>376.077</ele>
        <time>2022-08-23T10:54:21Z</time>
      </trkpt>
      <trkpt lat="42.917236" lon="-8.313095">
        <ele>376.155</ele>
        <time>2022-08-23T10:54:25Z</time>
      </trkpt>
      <trkpt lat="42.917232" lon="-8.313169">
        <ele>376.228</ele>
        <time>2022-08-23T10:54:29Z</time>
      </trkpt>
      <trkpt lat="42.917221" lon="-8.313245">
        <ele>376.483</ele>
        <time>2022-08-23T10:54:33Z</time>
      </trkpt>
      <trkpt lat="42.917210" lon="-8.313318">
        <ele>376.493</ele>
        <time>2022-08-23T10:54:37Z</time>
      </trkpt>
      <trkpt lat="42.917207" lon="-8.313392">
        <ele>376.465</ele>
        <time>2022-08-23T10:54:41Z</time>
      </trkpt>
      <trkpt lat="42.917204" lon="-8.313456">
        <ele>376.521</ele>
        <time>2022-08-23T10:54:45Z</time>
      </trkpt>
      <trkpt lat="42.917200" lon="-8.313523">
        <ele>376.609</ele>
        <time>2022-08-23T10:54:49Z</time>
      </trkpt>
      <trkpt lat="42.917202" lon="-8.313586">
        <ele>376.730</ele>
        <time>2022-08-23T10:54:53Z</time>
      </trkpt>
      <trkpt lat="42.917184" lon="-8.313650">
        <ele>376.960</ele>
        <time>2022-08-23T10:54:57Z</time>
      </trkpt>
      <trkpt lat="42.917173" lon="-8.313722">
        <ele>377.060</ele>
        <time>2022-08-23T10:55:01Z</time>
      </trkpt>
      <trkpt lat="42.917160" lon="-8.313799">
        <ele>377.134</ele>
        <time>2022-08-23T10:55:05Z</time>
      </trkpt>
      <trkpt lat="42.917147" lon="-8.313862">
        <ele>377.114</ele>
        <time>2022-08-23T10:55:09Z</time>
      </trkpt>
      <trkpt lat="42.917140" lon="-8.313931">
        <ele>377.285</ele>
        <time>2022-08-23T10:55:13Z</time>
      </trkpt>
      <trkpt lat="42.917135" lon="-8.313999">
        <ele>377.493</ele>
        <time>2022-08-23T10:55:17Z</time>
      </trkpt>
      <trkpt lat="42.917127" lon="-8.314064">
        <ele>377.666</ele>
        <time>2022-08-23T10:55:21Z</time>
      </trkpt>
      <trkpt lat="42.917121" lon="-8.314128">
        <ele>377.821</ele>
        <time>2022-08-23T10:55:25Z</time>
      </trkpt>
      <trkpt lat="42.917120" lon="-8.314189">
        <ele>378.122</ele>
        <time>2022-08-23T10:55:28Z</time>
      </trkpt>
      <trkpt lat="42.917115" lon="-8.314267">
        <ele>378.362</ele>
        <time>2022-08-23T10:55:32Z</time>
      </trkpt>
      <trkpt lat="42.917105" lon="-8.314343">
        <ele>378.408</ele>
        <time>2022-08-23T10:55:36Z</time>
      </trkpt>
      <trkpt lat="42.917098" lon="-8.314405">
        <ele>378.509</ele>
        <time>2022-08-23T10:55:39Z</time>
      </trkpt>
      <trkpt lat="42.917091" lon="-8.314479">
        <ele>378.663</ele>
        <time>2022-08-23T10:55:43Z</time>
      </trkpt>
      <trkpt lat="42.917079" lon="-8.314549">
        <ele>378.753</ele>
        <time>2022-08-23T10:55:47Z</time>
      </trkpt>
      <trkpt lat="42.917078" lon="-8.314625">
        <ele>378.833</ele>
        <time>2022-08-23T10:55:51Z</time>
      </trkpt>
      <trkpt lat="42.917069" lon="-8.314689">
        <ele>378.917</ele>
        <time>2022-08-23T10:55:55Z</time>
      </trkpt>
      <trkpt lat="42.917060" lon="-8.314766">
        <ele>379.187</ele>
        <time>2022-08-23T10:56:00Z</time>
      </trkpt>
      <trkpt lat="42.917055" lon="-8.314841">
        <ele>379.358</ele>
        <time>2022-08-23T10:56:04Z</time>
      </trkpt>
      <trkpt lat="42.917052" lon="-8.314907">
        <ele>379.496</ele>
        <time>2022-08-23T10:56:08Z</time>
      </trkpt>
      <trkpt lat="42.917047" lon="-8.314969">
        <ele>379.599</ele>
        <time>2022-08-23T10:56:12Z</time>
      </trkpt>
      <trkpt lat="42.917033" lon="-8.315045">
        <ele>379.644</ele>
        <time>2022-08-23T10:56:16Z</time>
      </trkpt>
      <trkpt lat="42.917029" lon="-8.315113">
        <ele>379.886</ele>
        <time>2022-08-23T10:56:19Z</time>
      </trkpt>
      <trkpt lat="42.917019" lon="-8.315181">
        <ele>380.060</ele>
        <time>2022-08-23T10:56:23Z</time>
      </trkpt>
      <trkpt lat="42.917015" lon="-8.315246">
        <ele>380.126</ele>
        <time>2022-08-23T10:56:27Z</time>
      </trkpt>
      <trkpt lat="42.917012" lon="-8.315307">
        <ele>380.209</ele>
        <time>2022-08-23T10:56:30Z</time>
      </trkpt>
      <trkpt lat="42.917005" lon="-8.315386">
        <ele>380.319</ele>
        <time>2022-08-23T10:56:34Z</time>
      </trkpt>
      <trkpt lat="42.916979" lon="-8.315451">
        <ele>380.579</ele>
        <time>2022-08-23T10:56:38Z</time>
      </trkpt>
      <trkpt lat="42.916925" lon="-8.315462">
        <ele>380.779</ele>
        <time>2022-08-23T10:56:42Z</time>
      </trkpt>
      <trkpt lat="42.916876" lon="-8.315491">
        <ele>380.933</ele>
        <time>2022-08-23T10:56:46Z</time>
      </trkpt>
      <trkpt lat="42.916838" lon="-8.315545">
        <ele>381.463</ele>
        <time>2022-08-23T10:56:50Z</time>
      </trkpt>
      <trkpt lat="42.916817" lon="-8.315610">
        <ele>381.474</ele>
        <time>2022-08-23T10:56:54Z</time>
      </trkpt>
      <trkpt lat="42.916806" lon="-8.315684">
        <ele>381.412</ele>
        <time>2022-08-23T10:56:58Z</time>
      </trkpt>
      <trkpt lat="42.916799" lon="-8.315757">
        <ele>381.485</ele>
        <time>2022-08-23T10:57:02Z</time>
      </trkpt>
      <trkpt lat="42.916787" lon="-8.315830">
        <ele>381.450</ele>
        <time>2022-08-23T10:57:06Z</time>
      </trkpt>
      <trkpt lat="42.916767" lon="-8.315904">
        <ele>381.455</ele>
        <time>2022-08-23T10:57:10Z</time>
      </trkpt>
      <trkpt lat="42.916755" lon="-8.315976">
        <ele>381.707</ele>
        <time>2022-08-23T10:57:14Z</time>
      </trkpt>
      <trkpt lat="42.916737" lon="-8.316038">
        <ele>381.817</ele>
        <time>2022-08-23T10:57:18Z</time>
      </trkpt>
      <trkpt lat="42.916725" lon="-8.316104">
        <ele>381.809</ele>
        <time>2022-08-23T10:57:22Z</time>
      </trkpt>
      <trkpt lat="42.916713" lon="-8.316172">
        <ele>381.976</ele>
        <time>2022-08-23T10:57:26Z</time>
      </trkpt>
      <trkpt lat="42.916699" lon="-8.316244">
        <ele>382.096</ele>
        <time>2022-08-23T10:57:30Z</time>
      </trkpt>
      <trkpt lat="42.916689" lon="-8.316316">
        <ele>382.146</ele>
        <time>2022-08-23T10:57:34Z</time>
      </trkpt>
      <trkpt lat="42.916675" lon="-8.316391">
        <ele>382.140</ele>
        <time>2022-08-23T10:57:38Z</time>
      </trkpt>
      <trkpt lat="42.916666" lon="-8.316464">
        <ele>382.290</ele>
        <time>2022-08-23T10:57:42Z</time>
      </trkpt>
      <trkpt lat="42.916659" lon="-8.316530">
        <ele>382.311</ele>
        <time>2022-08-23T10:57:46Z</time>
      </trkpt>
      <trkpt lat="42.916647" lon="-8.316601">
        <ele>382.419</ele>
        <time>2022-08-23T10:57:50Z</time>
      </trkpt>
      <trkpt lat="42.916636" lon="-8.316669">
        <ele>382.792</ele>
        <time>2022-08-23T10:57:55Z</time>
      </trkpt>
      <trkpt lat="42.916626" lon="-8.316739">
        <ele>382.987</ele>
        <time>2022-08-23T10:57:59Z</time>
      </trkpt>
      <trkpt lat="42.916609" lon="-8.316809">
        <ele>383.094</ele>
        <time>2022-08-23T10:58:03Z</time>
      </trkpt>
      <trkpt lat="42.916601" lon="-8.316878">
        <ele>383.157</ele>
        <time>2022-08-23T10:58:07Z</time>
      </trkpt>
      <trkpt lat="42.916591" lon="-8.316949">
        <ele>383.122</ele>
        <time>2022-08-23T10:58:11Z</time>
      </trkpt>
      <trkpt lat="42.916585" lon="-8.317019">
        <ele>383.109</ele>
        <time>2022-08-23T10:58:15Z</time>
      </trkpt>
      <trkpt lat="42.916580" lon="-8.317087">
        <ele>383.180</ele>
        <time>2022-08-23T10:58:19Z</time>
      </trkpt>
      <trkpt lat="42.916567" lon="-8.317148">
        <ele>383.170</ele>
        <time>2022-08-23T10:58:23Z</time>
      </trkpt>
      <trkpt lat="42.916550" lon="-8.317217">
        <ele>383.350</ele>
        <time>2022-08-23T10:58:27Z</time>
      </trkpt>
      <trkpt lat="42.916540" lon="-8.317281">
        <ele>383.824</ele>
        <time>2022-08-23T10:58:31Z</time>
      </trkpt>
      <trkpt lat="42.916526" lon="-8.317356">
        <ele>384.154</ele>
        <time>2022-08-23T10:58:35Z</time>
      </trkpt>
      <trkpt lat="42.916509" lon="-8.317424">
        <ele>384.225</ele>
        <time>2022-08-23T10:58:39Z</time>
      </trkpt>
      <trkpt lat="42.916502" lon="-8.317488">
        <ele>384.373</ele>
        <time>2022-08-23T10:58:43Z</time>
      </trkpt>
      <trkpt lat="42.916485" lon="-8.317560">
        <ele>384.586</ele>
        <time>2022-08-23T10:58:47Z</time>
      </trkpt>
      <trkpt lat="42.916476" lon="-8.317624">
        <ele>384.771</ele>
        <time>2022-08-23T10:58:51Z</time>
      </trkpt>
      <trkpt lat="42.916466" lon="-8.317693">
        <ele>384.954</ele>
        <time>2022-08-23T10:58:55Z</time>
      </trkpt>
      <trkpt lat="42.916455" lon="-8.317769">
        <ele>385.156</ele>
        <time>2022-08-23T10:58:59Z</time>
      </trkpt>
      <trkpt lat="42.916444" lon="-8.317844">
        <ele>385.411</ele>
        <time>2022-08-23T10:59:03Z</time>
      </trkpt>
      <trkpt lat="42.916428" lon="-8.317906">
        <ele>385.709</ele>
        <time>2022-08-23T10:59:07Z</time>
      </trkpt>
      <trkpt lat="42.916421" lon="-8.317970">
        <ele>386.066</ele>
        <time>2022-08-23T10:59:11Z</time>
      </trkpt>
      <trkpt lat="42.916414" lon="-8.318035">
        <ele>386.386</ele>
        <time>2022-08-23T10:59:15Z</time>
      </trkpt>
      <trkpt lat="42.916418" lon="-8.318100">
        <ele>386.636</ele>
        <time>2022-08-23T10:59:19Z</time>
      </trkpt>
      <trkpt lat="42.916410" lon="-8.318172">
        <ele>386.920</ele>
        <time>2022-08-23T10:59:23Z</time>
      </trkpt>
      <trkpt lat="42.916392" lon="-8.318240">
        <ele>387.290</ele>
        <time>2022-08-23T10:59:27Z</time>
      </trkpt>
      <trkpt lat="42.916371" lon="-8.318294">
        <ele>387.661</ele>
        <time>2022-08-23T10:59:30Z</time>
      </trkpt>
      <trkpt lat="42.916358" lon="-8.318363">
        <ele>388.019</ele>
        <time>2022-08-23T10:59:34Z</time>
      </trkpt>
      <trkpt lat="42.916343" lon="-8.318431">
        <ele>388.342</ele>
        <time>2022-08-23T10:59:38Z</time>
      </trkpt>
      <trkpt lat="42.916325" lon="-8.318502">
        <ele>388.617</ele>
        <time>2022-08-23T10:59:42Z</time>
      </trkpt>
      <trkpt lat="42.916297" lon="-8.318557">
        <ele>388.914</ele>
        <time>2022-08-23T10:59:46Z</time>
      </trkpt>
      <trkpt lat="42.916284" lon="-8.318622">
        <ele>389.254</ele>
        <time>2022-08-23T10:59:50Z</time>
      </trkpt>
      <trkpt lat="42.916265" lon="-8.318695">
        <ele>389.509</ele>
        <time>2022-08-23T10:59:54Z</time>
      </trkpt>
      <trkpt lat="42.916236" lon="-8.318761">
        <ele>389.809</ele>
        <time>2022-08-23T10:59:58Z</time>
      </trkpt>
      <trkpt lat="42.916212" lon="-8.318826">
        <ele>390.032</ele>
        <time>2022-08-23T11:00:02Z</time>
      </trkpt>
      <trkpt lat="42.916186" lon="-8.318889">
        <ele>390.292</ele>
        <time>2022-08-23T11:00:06Z</time>
      </trkpt>
      <trkpt lat="42.916165" lon="-8.318947">
        <ele>390.342</ele>
        <time>2022-08-23T11:00:10Z</time>
      </trkpt>
      <trkpt lat="42.916142" lon="-8.319006">
        <ele>390.536</ele>
        <time>2022-08-23T11:00:14Z</time>
      </trkpt>
      <trkpt lat="42.916118" lon="-8.319070">
        <ele>390.866</ele>
        <time>2022-08-23T11:00:18Z</time>
      </trkpt>
      <trkpt lat="42.916087" lon="-8.319135">
        <ele>391.177</ele>
        <time>2022-08-23T11:00:23Z</time>
      </trkpt>
      <trkpt lat="42.916055" lon="-8.319199">
        <ele>391.265</ele>
        <time>2022-08-23T11:00:27Z</time>
      </trkpt>
      <trkpt lat="42.916028" lon="-8.319269">
        <ele>391.798</ele>
        <time>2022-08-23T11:00:31Z</time>
      </trkpt>
      <trkpt lat="42.916005" lon="-8.319330">
        <ele>391.993</ele>
        <time>2022-08-23T11:00:35Z</time>
      </trkpt>
      <trkpt lat="42.915978" lon="-8.319399">
        <ele>392.592</ele>
        <time>2022-08-23T11:00:39Z</time>
      </trkpt>
      <trkpt lat="42.915942" lon="-8.319466">
        <ele>392.973</ele>
        <time>2022-08-23T11:00:43Z</time>
      </trkpt>
      <trkpt lat="42.915918" lon="-8.319532">
        <ele>393.220</ele>
        <time>2022-08-23T11:00:47Z</time>
      </trkpt>
      <trkpt lat="42.915897" lon="-8.319594">
        <ele>393.509</ele>
        <time>2022-08-23T11:00:51Z</time>
      </trkpt>
      <trkpt lat="42.915876" lon="-8.319655">
        <ele>394.070</ele>
        <time>2022-08-23T11:00:55Z</time>
      </trkpt>
      <trkpt lat="42.915855" lon="-8.319721">
        <ele>394.220</ele>
        <time>2022-08-23T11:00:59Z</time>
      </trkpt>
      <trkpt lat="42.915832" lon="-8.319784">
        <ele>394.540</ele>
        <time>2022-08-23T11:01:03Z</time>
      </trkpt>
      <trkpt lat="42.915802" lon="-8.319848">
        <ele>394.754</ele>
        <time>2022-08-23T11:01:07Z</time>
      </trkpt>
      <trkpt lat="42.915777" lon="-8.319915">
        <ele>394.954</ele>
        <time>2022-08-23T11:01:11Z</time>
      </trkpt>
      <trkpt lat="42.915762" lon="-8.319988">
        <ele>395.315</ele>
        <time>2022-08-23T11:01:15Z</time>
      </trkpt>
      <trkpt lat="42.915731" lon="-8.320045">
        <ele>395.663</ele>
        <time>2022-08-23T11:01:19Z</time>
      </trkpt>
      <trkpt lat="42.915708" lon="-8.320107">
        <ele>395.726</ele>
        <time>2022-08-23T11:01:23Z</time>
      </trkpt>
      <trkpt lat="42.915686" lon="-8.320174">
        <ele>395.741</ele>
        <time>2022-08-23T11:01:27Z</time>
      </trkpt>
      <trkpt lat="42.915664" lon="-8.320240">
        <ele>395.956</ele>
        <time>2022-08-23T11:01:31Z</time>
      </trkpt>
      <trkpt lat="42.915642" lon="-8.320312">
        <ele>396.259</ele>
        <time>2022-08-23T11:01:35Z</time>
      </trkpt>
      <trkpt lat="42.915619" lon="-8.320376">
        <ele>396.414</ele>
        <time>2022-08-23T11:01:39Z</time>
      </trkpt>
      <trkpt lat="42.915605" lon="-8.320446">
        <ele>396.609</ele>
        <time>2022-08-23T11:01:43Z</time>
      </trkpt>
      <trkpt lat="42.915584" lon="-8.320516">
        <ele>396.916</ele>
        <time>2022-08-23T11:01:47Z</time>
      </trkpt>
      <trkpt lat="42.915567" lon="-8.320583">
        <ele>397.036</ele>
        <time>2022-08-23T11:01:51Z</time>
      </trkpt>
      <trkpt lat="42.915554" lon="-8.320646">
        <ele>397.056</ele>
        <time>2022-08-23T11:01:55Z</time>
      </trkpt>
      <trkpt lat="42.915536" lon="-8.320717">
        <ele>397.120</ele>
        <time>2022-08-23T11:01:59Z</time>
      </trkpt>
      <trkpt lat="42.915525" lon="-8.320796">
        <ele>397.280</ele>
        <time>2022-08-23T11:02:03Z</time>
      </trkpt>
      <trkpt lat="42.915507" lon="-8.320868">
        <ele>397.761</ele>
        <time>2022-08-23T11:02:07Z</time>
      </trkpt>
      <trkpt lat="42.915496" lon="-8.320942">
        <ele>397.849</ele>
        <time>2022-08-23T11:02:11Z</time>
      </trkpt>
      <trkpt lat="42.915486" lon="-8.321015">
        <ele>398.172</ele>
        <time>2022-08-23T11:02:15Z</time>
      </trkpt>
      <trkpt lat="42.915476" lon="-8.321087">
        <ele>398.497</ele>
        <time>2022-08-23T11:02:19Z</time>
      </trkpt>
      <trkpt lat="42.915462" lon="-8.321158">
        <ele>398.633</ele>
        <time>2022-08-23T11:02:23Z</time>
      </trkpt>
      <trkpt lat="42.915450" lon="-8.321219">
        <ele>398.723</ele>
        <time>2022-08-23T11:02:27Z</time>
      </trkpt>
      <trkpt lat="42.915436" lon="-8.321293">
        <ele>398.815</ele>
        <time>2022-08-23T11:02:31Z</time>
      </trkpt>
      <trkpt lat="42.915421" lon="-8.321364">
        <ele>398.909</ele>
        <time>2022-08-23T11:02:35Z</time>
      </trkpt>
      <trkpt lat="42.915408" lon="-8.321435">
        <ele>399.154</ele>
        <time>2022-08-23T11:02:39Z</time>
      </trkpt>
      <trkpt lat="42.915397" lon="-8.321511">
        <ele>399.334</ele>
        <time>2022-08-23T11:02:43Z</time>
      </trkpt>
      <trkpt lat="42.915385" lon="-8.321580">
        <ele>399.644</ele>
        <time>2022-08-23T11:02:47Z</time>
      </trkpt>
      <trkpt lat="42.915375" lon="-8.321647">
        <ele>399.638</ele>
        <time>2022-08-23T11:02:52Z</time>
      </trkpt>
      <trkpt lat="42.915361" lon="-8.321725">
        <ele>399.738</ele>
        <time>2022-08-23T11:02:56Z</time>
      </trkpt>
      <trkpt lat="42.915353" lon="-8.321801">
        <ele>400.029</ele>
        <time>2022-08-23T11:03:00Z</time>
      </trkpt>
      <trkpt lat="42.915347" lon="-8.321878">
        <ele>400.077</ele>
        <time>2022-08-23T11:03:04Z</time>
      </trkpt>
      <trkpt lat="42.915334" lon="-8.321946">
        <ele>400.140</ele>
        <time>2022-08-23T11:03:08Z</time>
      </trkpt>
      <trkpt lat="42.915326" lon="-8.322017">
        <ele>400.175</ele>
        <time>2022-08-23T11:03:12Z</time>
      </trkpt>
      <trkpt lat="42.915326" lon="-8.322081">
        <ele>400.145</ele>
        <time>2022-08-23T11:03:16Z</time>
      </trkpt>
      <trkpt lat="42.915319" lon="-8.322154">
        <ele>400.247</ele>
        <time>2022-08-23T11:03:20Z</time>
      </trkpt>
      <trkpt lat="42.915312" lon="-8.322219">
        <ele>400.311</ele>
        <time>2022-08-23T11:03:24Z</time>
      </trkpt>
      <trkpt lat="42.915304" lon="-8.322280">
        <ele>400.509</ele>
        <time>2022-08-23T11:03:28Z</time>
      </trkpt>
      <trkpt lat="42.915302" lon="-8.322348">
        <ele>400.865</ele>
        <time>2022-08-23T11:03:32Z</time>
      </trkpt>
      <trkpt lat="42.915294" lon="-8.322420">
        <ele>401.115</ele>
        <time>2022-08-23T11:03:36Z</time>
      </trkpt>
      <trkpt lat="42.915289" lon="-8.322492">
        <ele>401.345</ele>
        <time>2022-08-23T11:03:40Z</time>
      </trkpt>
      <trkpt lat="42.915292" lon="-8.322564">
        <ele>401.579</ele>
        <time>2022-08-23T11:03:44Z</time>
      </trkpt>
      <trkpt lat="42.915296" lon="-8.322638">
        <ele>401.689</ele>
        <time>2022-08-23T11:03:48Z</time>
      </trkpt>
      <trkpt lat="42.915297" lon="-8.322704">
        <ele>401.720</ele>
        <time>2022-08-23T11:03:52Z</time>
      </trkpt>
      <trkpt lat="42.915305" lon="-8.322774">
        <ele>401.898</ele>
        <time>2022-08-23T11:03:56Z</time>
      </trkpt>
      <trkpt lat="42.915303" lon="-8.322849">
        <ele>402.081</ele>
        <time>2022-08-23T11:04:00Z</time>
      </trkpt>
      <trkpt lat="42.915310" lon="-8.322919">
        <ele>402.276</ele>
        <time>2022-08-23T11:04:04Z</time>
      </trkpt>
      <trkpt lat="42.915321" lon="-8.322980">
        <ele>402.484</ele>
        <time>2022-08-23T11:04:08Z</time>
      </trkpt>
      <trkpt lat="42.915322" lon="-8.323054">
        <ele>402.607</ele>
        <time>2022-08-23T11:04:12Z</time>
      </trkpt>
      <trkpt lat="42.915333" lon="-8.323118">
        <ele>402.717</ele>
        <time>2022-08-23T11:04:17Z</time>
      </trkpt>
      <trkpt lat="42.915334" lon="-8.323195">
        <ele>402.809</ele>
        <time>2022-08-23T11:04:22Z</time>
      </trkpt>
      <trkpt lat="42.915323" lon="-8.323265">
        <ele>403.199</ele>
        <time>2022-08-23T11:04:27Z</time>
      </trkpt>
      <trkpt lat="42.915325" lon="-8.323328">
        <ele>403.519</ele>
        <time>2022-08-23T11:04:30Z</time>
      </trkpt>
      <trkpt lat="42.915333" lon="-8.323401">
        <ele>403.779</ele>
        <time>2022-08-23T11:04:34Z</time>
      </trkpt>
      <trkpt lat="42.915349" lon="-8.323466">
        <ele>403.983</ele>
        <time>2022-08-23T11:04:38Z</time>
      </trkpt>
      <trkpt lat="42.915384" lon="-8.323509">
        <ele>404.013</ele>
        <time>2022-08-23T11:04:45Z</time>
      </trkpt>
      <trkpt lat="42.915438" lon="-8.323546">
        <ele>404.134</ele>
        <time>2022-08-23T11:04:49Z</time>
      </trkpt>
      <trkpt lat="42.915483" lon="-8.323572">
        <ele>404.162</ele>
        <time>2022-08-23T11:04:53Z</time>
      </trkpt>
      <trkpt lat="42.915533" lon="-8.323573">
        <ele>404.375</ele>
        <time>2022-08-23T11:04:57Z</time>
      </trkpt>
      <trkpt lat="42.915585" lon="-8.323568">
        <ele>404.590</ele>
        <time>2022-08-23T11:05:01Z</time>
      </trkpt>
      <trkpt lat="42.915645" lon="-8.323563">
        <ele>404.666</ele>
        <time>2022-08-23T11:05:05Z</time>
      </trkpt>
      <trkpt lat="42.915696" lon="-8.323559">
        <ele>404.729</ele>
        <time>2022-08-23T11:05:09Z</time>
      </trkpt>
      <trkpt lat="42.915748" lon="-8.323534">
        <ele>404.821</ele>
        <time>2022-08-23T11:05:13Z</time>
      </trkpt>
      <trkpt lat="42.915798" lon="-8.323506">
        <ele>404.909</ele>
        <time>2022-08-23T11:05:17Z</time>
      </trkpt>
      <trkpt lat="42.915845" lon="-8.323468">
        <ele>405.387</ele>
        <time>2022-08-23T11:05:21Z</time>
      </trkpt>
      <trkpt lat="42.915894" lon="-8.323437">
        <ele>405.387</ele>
        <time>2022-08-23T11:05:25Z</time>
      </trkpt>
      <trkpt lat="42.915945" lon="-8.323405">
        <ele>405.487</ele>
        <time>2022-08-23T11:05:30Z</time>
      </trkpt>
      <trkpt lat="42.915992" lon="-8.323385">
        <ele>405.431</ele>
        <time>2022-08-23T11:05:33Z</time>
      </trkpt>
      <trkpt lat="42.916036" lon="-8.323374">
        <ele>405.591</ele>
        <time>2022-08-23T11:05:37Z</time>
      </trkpt>
      <trkpt lat="42.916090" lon="-8.323357">
        <ele>405.782</ele>
        <time>2022-08-23T11:05:41Z</time>
      </trkpt>
      <trkpt lat="42.916141" lon="-8.323359">
        <ele>405.930</ele>
        <time>2022-08-23T11:05:44Z</time>
      </trkpt>
      <trkpt lat="42.916189" lon="-8.323362">
        <ele>406.163</ele>
        <time>2022-08-23T11:05:47Z</time>
      </trkpt>
      <trkpt lat="42.916235" lon="-8.323367">
        <ele>406.298</ele>
        <time>2022-08-23T11:05:50Z</time>
      </trkpt>
      <trkpt lat="42.916291" lon="-8.323372">
        <ele>406.311</ele>
        <time>2022-08-23T11:05:54Z</time>
      </trkpt>
      <trkpt lat="42.916349" lon="-8.323372">
        <ele>406.421</ele>
        <time>2022-08-23T11:05:58Z</time>
      </trkpt>
      <trkpt lat="42.916394" lon="-8.323366">
        <ele>406.703</ele>
        <time>2022-08-23T11:06:01Z</time>
      </trkpt>
      <trkpt lat="42.916452" lon="-8.323373">
        <ele>406.909</ele>
        <time>2022-08-23T11:06:05Z</time>
      </trkpt>
      <trkpt lat="42.916509" lon="-8.323382">
        <ele>407.142</ele>
        <time>2022-08-23T11:06:09Z</time>
      </trkpt>
      <trkpt lat="42.916560" lon="-8.323412">
        <ele>407.552</ele>
        <time>2022-08-23T11:06:13Z</time>
      </trkpt>
      <trkpt lat="42.916575" lon="-8.323473">
        <ele>407.642</ele>
        <time>2022-08-23T11:06:17Z</time>
      </trkpt>
      <trkpt lat="42.916563" lon="-8.323548">
        <ele>407.946</ele>
        <time>2022-08-23T11:06:21Z</time>
      </trkpt>
      <trkpt lat="42.916553" lon="-8.323628">
        <ele>407.956</ele>
        <time>2022-08-23T11:06:26Z</time>
      </trkpt>
      <trkpt lat="42.916544" lon="-8.323697">
        <ele>407.957</ele>
        <time>2022-08-23T11:06:30Z</time>
      </trkpt>
      <trkpt lat="42.916532" lon="-8.323764">
        <ele>407.835</ele>
        <time>2022-08-23T11:06:34Z</time>
      </trkpt>
      <trkpt lat="42.916523" lon="-8.323829">
        <ele>407.688</ele>
        <time>2022-08-23T11:06:38Z</time>
      </trkpt>
      <trkpt lat="42.916524" lon="-8.323900">
        <ele>407.463</ele>
        <time>2022-08-23T11:06:44Z</time>
      </trkpt>
      <trkpt lat="42.916532" lon="-8.323968">
        <ele>407.289</ele>
        <time>2022-08-23T11:06:48Z</time>
      </trkpt>
      <trkpt lat="42.916528" lon="-8.324031">
        <ele>407.006</ele>
        <time>2022-08-23T11:06:51Z</time>
      </trkpt>
      <trkpt lat="42.916528" lon="-8.324098">
        <ele>406.826</ele>
        <time>2022-08-23T11:06:55Z</time>
      </trkpt>
      <trkpt lat="42.916515" lon="-8.324169">
        <ele>406.709</ele>
        <time>2022-08-23T11:06:59Z</time>
      </trkpt>
      <trkpt lat="42.916508" lon="-8.324245">
        <ele>406.619</ele>
        <time>2022-08-23T11:07:03Z</time>
      </trkpt>
      <trkpt lat="42.916500" lon="-8.324313">
        <ele>406.539</ele>
        <time>2022-08-23T11:07:07Z</time>
      </trkpt>
      <trkpt lat="42.916490" lon="-8.324400">
        <ele>406.339</ele>
        <time>2022-08-23T11:07:11Z</time>
      </trkpt>
      <trkpt lat="42.916479" lon="-8.324484">
        <ele>406.173</ele>
        <time>2022-08-23T11:07:15Z</time>
      </trkpt>
      <trkpt lat="42.916476" lon="-8.324565">
        <ele>405.933</ele>
        <time>2022-08-23T11:07:19Z</time>
      </trkpt>
      <trkpt lat="42.916462" lon="-8.324643">
        <ele>405.774</ele>
        <time>2022-08-23T11:07:23Z</time>
      </trkpt>
      <trkpt lat="42.916447" lon="-8.324725">
        <ele>405.582</ele>
        <time>2022-08-23T11:07:27Z</time>
      </trkpt>
      <trkpt lat="42.916448" lon="-8.324798">
        <ele>405.295</ele>
        <time>2022-08-23T11:07:31Z</time>
      </trkpt>
      <trkpt lat="42.916450" lon="-8.324872">
        <ele>404.940</ele>
        <time>2022-08-23T11:07:35Z</time>
      </trkpt>
      <trkpt lat="42.916444" lon="-8.324948">
        <ele>404.786</ele>
        <time>2022-08-23T11:07:39Z</time>
      </trkpt>
      <trkpt lat="42.916438" lon="-8.325027">
        <ele>404.660</ele>
        <time>2022-08-23T11:07:43Z</time>
      </trkpt>
      <trkpt lat="42.916424" lon="-8.325100">
        <ele>404.526</ele>
        <time>2022-08-23T11:07:47Z</time>
      </trkpt>
      <trkpt lat="42.916418" lon="-8.325161">
        <ele>404.409</ele>
        <time>2022-08-23T11:07:50Z</time>
      </trkpt>
      <trkpt lat="42.916406" lon="-8.325224">
        <ele>404.299</ele>
        <time>2022-08-23T11:07:54Z</time>
      </trkpt>
      <trkpt lat="42.916413" lon="-8.325289">
        <ele>404.099</ele>
        <time>2022-08-23T11:07:59Z</time>
      </trkpt>
      <trkpt lat="42.916403" lon="-8.325354">
        <ele>403.889</ele>
        <time>2022-08-23T11:08:04Z</time>
      </trkpt>
      <trkpt lat="42.916403" lon="-8.325419">
        <ele>403.563</ele>
        <time>2022-08-23T11:08:07Z</time>
      </trkpt>
      <trkpt lat="42.916401" lon="-8.325493">
        <ele>403.113</ele>
        <time>2022-08-23T11:08:10Z</time>
      </trkpt>
      <trkpt lat="42.916410" lon="-8.325559">
        <ele>402.864</ele>
        <time>2022-08-23T11:08:13Z</time>
      </trkpt>
      <trkpt lat="42.916412" lon="-8.325626">
        <ele>402.622</ele>
        <time>2022-08-23T11:08:17Z</time>
      </trkpt>
      <trkpt lat="42.916428" lon="-8.325694">
        <ele>402.385</ele>
        <time>2022-08-23T11:08:21Z</time>
      </trkpt>
      <trkpt lat="42.916430" lon="-8.325767">
        <ele>401.960</ele>
        <time>2022-08-23T11:08:25Z</time>
      </trkpt>
      <trkpt lat="42.916443" lon="-8.325845">
        <ele>401.657</ele>
        <time>2022-08-23T11:08:29Z</time>
      </trkpt>
      <trkpt lat="42.916452" lon="-8.325921">
        <ele>401.200</ele>
        <time>2022-08-23T11:08:33Z</time>
      </trkpt>
      <trkpt lat="42.916463" lon="-8.325983">
        <ele>400.920</ele>
        <time>2022-08-23T11:08:36Z</time>
      </trkpt>
      <trkpt lat="42.916462" lon="-8.326049">
        <ele>400.209</ele>
        <time>2022-08-23T11:08:40Z</time>
      </trkpt>
      <trkpt lat="42.916479" lon="-8.326119">
        <ele>399.866</ele>
        <time>2022-08-23T11:08:47Z</time>
      </trkpt>
      <trkpt lat="42.916497" lon="-8.326177">
        <ele>399.726</ele>
        <time>2022-08-23T11:08:52Z</time>
      </trkpt>
      <trkpt lat="42.916502" lon="-8.326242">
        <ele>399.496</ele>
        <time>2022-08-23T11:08:56Z</time>
      </trkpt>
      <trkpt lat="42.916518" lon="-8.326313">
        <ele>399.120</ele>
        <time>2022-08-23T11:09:00Z</time>
      </trkpt>
      <trkpt lat="42.916530" lon="-8.326377">
        <ele>398.980</ele>
        <time>2022-08-23T11:09:04Z</time>
      </trkpt>
      <trkpt lat="42.916543" lon="-8.326444">
        <ele>398.751</ele>
        <time>2022-08-23T11:09:07Z</time>
      </trkpt>
      <trkpt lat="42.916550" lon="-8.326507">
        <ele>398.549</ele>
        <time>2022-08-23T11:09:11Z</time>
      </trkpt>
      <trkpt lat="42.916553" lon="-8.326586">
        <ele>398.312</ele>
        <time>2022-08-23T11:09:15Z</time>
      </trkpt>
      <trkpt lat="42.916575" lon="-8.326649">
        <ele>398.067</ele>
        <time>2022-08-23T11:09:19Z</time>
      </trkpt>
      <trkpt lat="42.916603" lon="-8.326698">
        <ele>397.628</ele>
        <time>2022-08-23T11:09:23Z</time>
      </trkpt>
      <trkpt lat="42.916617" lon="-8.326765">
        <ele>397.389</ele>
        <time>2022-08-23T11:09:27Z</time>
      </trkpt>
      <trkpt lat="42.916637" lon="-8.326831">
        <ele>397.117</ele>
        <time>2022-08-23T11:09:31Z</time>
      </trkpt>
      <trkpt lat="42.916636" lon="-8.326901">
        <ele>396.809</ele>
        <time>2022-08-23T11:09:35Z</time>
      </trkpt>
      <trkpt lat="42.916630" lon="-8.326974">
        <ele>396.513</ele>
        <time>2022-08-23T11:09:39Z</time>
      </trkpt>
      <trkpt lat="42.916638" lon="-8.327054">
        <ele>396.283</ele>
        <time>2022-08-23T11:09:43Z</time>
      </trkpt>
      <trkpt lat="42.916638" lon="-8.327126">
        <ele>396.083</ele>
        <time>2022-08-23T11:09:46Z</time>
      </trkpt>
      <trkpt lat="42.916637" lon="-8.327207">
        <ele>395.537</ele>
        <time>2022-08-23T11:09:50Z</time>
      </trkpt>
      <trkpt lat="42.916642" lon="-8.327283">
        <ele>395.287</ele>
        <time>2022-08-23T11:09:55Z</time>
      </trkpt>
      <trkpt lat="42.916642" lon="-8.327363">
        <ele>394.828</ele>
        <time>2022-08-23T11:10:00Z</time>
      </trkpt>
      <trkpt lat="42.916661" lon="-8.327449">
        <ele>394.256</ele>
        <time>2022-08-23T11:10:04Z</time>
      </trkpt>
      <trkpt lat="42.916682" lon="-8.327516">
        <ele>393.689</ele>
        <time>2022-08-23T11:10:08Z</time>
      </trkpt>
      <trkpt lat="42.916691" lon="-8.327578">
        <ele>393.154</ele>
        <time>2022-08-23T11:10:11Z</time>
      </trkpt>
      <trkpt lat="42.916703" lon="-8.327652">
        <ele>392.633</ele>
        <time>2022-08-23T11:10:14Z</time>
      </trkpt>
      <trkpt lat="42.916725" lon="-8.327708">
        <ele>392.423</ele>
        <time>2022-08-23T11:10:17Z</time>
      </trkpt>
      <trkpt lat="42.916738" lon="-8.327769">
        <ele>392.015</ele>
        <time>2022-08-23T11:10:19Z</time>
      </trkpt>
      <trkpt lat="42.916774" lon="-8.327824">
        <ele>391.609</ele>
        <time>2022-08-23T11:10:22Z</time>
      </trkpt>
      <trkpt lat="42.916800" lon="-8.327887">
        <ele>391.364</ele>
        <time>2022-08-23T11:10:25Z</time>
      </trkpt>
      <trkpt lat="42.916824" lon="-8.327945">
        <ele>391.024</ele>
        <time>2022-08-23T11:10:28Z</time>
      </trkpt>
      <trkpt lat="42.916853" lon="-8.327994">
        <ele>390.714</ele>
        <time>2022-08-23T11:10:31Z</time>
      </trkpt>
      <trkpt lat="42.916878" lon="-8.328055">
        <ele>390.488</ele>
        <time>2022-08-23T11:10:35Z</time>
      </trkpt>
      <trkpt lat="42.916896" lon="-8.328116">
        <ele>390.058</ele>
        <time>2022-08-23T11:10:40Z</time>
      </trkpt>
      <trkpt lat="42.916916" lon="-8.328186">
        <ele>389.539</ele>
        <time>2022-08-23T11:10:44Z</time>
      </trkpt>
      <trkpt lat="42.916937" lon="-8.328245">
        <ele>388.767</ele>
        <time>2022-08-23T11:10:47Z</time>
      </trkpt>
      <trkpt lat="42.916957" lon="-8.328318">
        <ele>387.850</ele>
        <time>2022-08-23T11:10:51Z</time>
      </trkpt>
      <trkpt lat="42.916972" lon="-8.328399">
        <ele>386.725</ele>
        <time>2022-08-23T11:10:54Z</time>
      </trkpt>
      <trkpt lat="42.916982" lon="-8.328459">
        <ele>386.393</ele>
        <time>2022-08-23T11:10:57Z</time>
      </trkpt>
      <trkpt lat="42.916998" lon="-8.328518">
        <ele>385.665</ele>
        <time>2022-08-23T11:11:00Z</time>
      </trkpt>
      <trkpt lat="42.917010" lon="-8.328580">
        <ele>385.021</ele>
        <time>2022-08-23T11:11:03Z</time>
      </trkpt>
      <trkpt lat="42.917019" lon="-8.328652">
        <ele>384.409</ele>
        <time>2022-08-23T11:11:08Z</time>
      </trkpt>
      <trkpt lat="42.917026" lon="-8.328723">
        <ele>383.790</ele>
        <time>2022-08-23T11:11:12Z</time>
      </trkpt>
      <trkpt lat="42.917031" lon="-8.328792">
        <ele>382.980</ele>
        <time>2022-08-23T11:11:16Z</time>
      </trkpt>
      <trkpt lat="42.917045" lon="-8.328855">
        <ele>382.240</ele>
        <time>2022-08-23T11:11:19Z</time>
      </trkpt>
      <trkpt lat="42.917074" lon="-8.328923">
        <ele>381.734</ele>
        <time>2022-08-23T11:11:23Z</time>
      </trkpt>
      <trkpt lat="42.917102" lon="-8.328974">
        <ele>381.314</ele>
        <time>2022-08-23T11:11:27Z</time>
      </trkpt>
      <trkpt lat="42.917128" lon="-8.329026">
        <ele>380.845</ele>
        <time>2022-08-23T11:11:31Z</time>
      </trkpt>
      <trkpt lat="42.917160" lon="-8.329086">
        <ele>380.143</ele>
        <time>2022-08-23T11:11:35Z</time>
      </trkpt>
      <trkpt lat="42.917200" lon="-8.329133">
        <ele>379.456</ele>
        <time>2022-08-23T11:11:39Z</time>
      </trkpt>
      <trkpt lat="42.917245" lon="-8.329177">
        <ele>378.781</ele>
        <time>2022-08-23T11:11:42Z</time>
      </trkpt>
      <trkpt lat="42.917255" lon="-8.329238">
        <ele>378.169</ele>
        <time>2022-08-23T11:11:45Z</time>
      </trkpt>
      <trkpt lat="42.917276" lon="-8.329300">
        <ele>377.604</ele>
        <time>2022-08-23T11:11:49Z</time>
      </trkpt>
      <trkpt lat="42.917297" lon="-8.329363">
        <ele>377.324</ele>
        <time>2022-08-23T11:11:53Z</time>
      </trkpt>
      <trkpt lat="42.917322" lon="-8.329417">
        <ele>376.909</ele>
        <time>2022-08-23T11:11:56Z</time>
      </trkpt>
      <trkpt lat="42.917325" lon="-8.329483">
        <ele>376.427</ele>
        <time>2022-08-23T11:12:00Z</time>
      </trkpt>
      <trkpt lat="42.917341" lon="-8.329543">
        <ele>375.987</ele>
        <time>2022-08-23T11:12:04Z</time>
      </trkpt>
      <trkpt lat="42.917354" lon="-8.329612">
        <ele>375.567</ele>
        <time>2022-08-23T11:12:08Z</time>
      </trkpt>
      <trkpt lat="42.917375" lon="-8.329681">
        <ele>375.141</ele>
        <time>2022-08-23T11:12:12Z</time>
      </trkpt>
      <trkpt lat="42.917374" lon="-8.329755">
        <ele>374.861</ele>
        <time>2022-08-23T11:12:16Z</time>
      </trkpt>
      <trkpt lat="42.917387" lon="-8.329823">
        <ele>374.432</ele>
        <time>2022-08-23T11:12:20Z</time>
      </trkpt>
      <trkpt lat="42.917399" lon="-8.329892">
        <ele>374.070</ele>
        <time>2022-08-23T11:12:24Z</time>
      </trkpt>
      <trkpt lat="42.917402" lon="-8.329967">
        <ele>373.663</ele>
        <time>2022-08-23T11:12:28Z</time>
      </trkpt>
      <trkpt lat="42.917425" lon="-8.330030">
        <ele>373.358</ele>
        <time>2022-08-23T11:12:31Z</time>
      </trkpt>
      <trkpt lat="42.917445" lon="-8.330097">
        <ele>373.095</ele>
        <time>2022-08-23T11:12:35Z</time>
      </trkpt>
      <trkpt lat="42.917455" lon="-8.330165">
        <ele>372.749</ele>
        <time>2022-08-23T11:12:40Z</time>
      </trkpt>
      <trkpt lat="42.917465" lon="-8.330228">
        <ele>372.423</ele>
        <time>2022-08-23T11:12:44Z</time>
      </trkpt>
      <trkpt lat="42.917487" lon="-8.330288">
        <ele>371.909</ele>
        <time>2022-08-23T11:12:48Z</time>
      </trkpt>
      <trkpt lat="42.917504" lon="-8.330356">
        <ele>371.380</ele>
        <time>2022-08-23T11:12:52Z</time>
      </trkpt>
      <trkpt lat="42.917493" lon="-8.330420">
        <ele>370.660</ele>
        <time>2022-08-23T11:12:59Z</time>
      </trkpt>
      <trkpt lat="42.917513" lon="-8.330478">
        <ele>369.960</ele>
        <time>2022-08-23T11:13:05Z</time>
      </trkpt>
      <trkpt lat="42.917542" lon="-8.330536">
        <ele>369.514</ele>
        <time>2022-08-23T11:13:11Z</time>
      </trkpt>
      <trkpt lat="42.917546" lon="-8.330609">
        <ele>369.324</ele>
        <time>2022-08-23T11:13:15Z</time>
      </trkpt>
      <trkpt lat="42.917547" lon="-8.330686">
        <ele>369.245</ele>
        <time>2022-08-23T11:13:20Z</time>
      </trkpt>
      <trkpt lat="42.917558" lon="-8.330753">
        <ele>369.133</ele>
        <time>2022-08-23T11:13:23Z</time>
      </trkpt>
      <trkpt lat="42.917564" lon="-8.330821">
        <ele>368.966</ele>
        <time>2022-08-23T11:13:26Z</time>
      </trkpt>
      <trkpt lat="42.917575" lon="-8.330899">
        <ele>368.781</ele>
        <time>2022-08-23T11:13:31Z</time>
      </trkpt>
      <trkpt lat="42.917585" lon="-8.330979">
        <ele>368.516</ele>
        <time>2022-08-23T11:13:35Z</time>
      </trkpt>
      <trkpt lat="42.917585" lon="-8.331052">
        <ele>368.376</ele>
        <time>2022-08-23T11:13:39Z</time>
      </trkpt>
      <trkpt lat="42.917580" lon="-8.331122">
        <ele>368.113</ele>
        <time>2022-08-23T11:13:43Z</time>
      </trkpt>
      <trkpt lat="42.917586" lon="-8.331198">
        <ele>367.909</ele>
        <time>2022-08-23T11:13:46Z</time>
      </trkpt>
      <trkpt lat="42.917603" lon="-8.331273">
        <ele>367.782</ele>
        <time>2022-08-23T11:13:50Z</time>
      </trkpt>
      <trkpt lat="42.917621" lon="-8.331351">
        <ele>367.622</ele>
        <time>2022-08-23T11:13:53Z</time>
      </trkpt>
      <trkpt lat="42.917629" lon="-8.331440">
        <ele>367.552</ele>
        <time>2022-08-23T11:13:57Z</time>
      </trkpt>
      <trkpt lat="42.917633" lon="-8.331504">
        <ele>367.556</ele>
        <time>2022-08-23T11:14:00Z</time>
      </trkpt>
      <trkpt lat="42.917639" lon="-8.331565">
        <ele>367.576</ele>
        <time>2022-08-23T11:14:03Z</time>
      </trkpt>
      <trkpt lat="42.917636" lon="-8.331629">
        <ele>367.517</ele>
        <time>2022-08-23T11:14:06Z</time>
      </trkpt>
      <trkpt lat="42.917636" lon="-8.331692">
        <ele>367.585</ele>
        <time>2022-08-23T11:14:09Z</time>
      </trkpt>
      <trkpt lat="42.917636" lon="-8.331771">
        <ele>367.588</ele>
        <time>2022-08-23T11:14:13Z</time>
      </trkpt>
      <trkpt lat="42.917643" lon="-8.331840">
        <ele>367.523</ele>
        <time>2022-08-23T11:14:17Z</time>
      </trkpt>
      <trkpt lat="42.917651" lon="-8.331903">
        <ele>367.411</ele>
        <time>2022-08-23T11:14:20Z</time>
      </trkpt>
      <trkpt lat="42.917655" lon="-8.331983">
        <ele>367.321</ele>
        <time>2022-08-23T11:14:24Z</time>
      </trkpt>
      <trkpt lat="42.917661" lon="-8.332050">
        <ele>367.203</ele>
        <time>2022-08-23T11:14:28Z</time>
      </trkpt>
      <trkpt lat="42.917651" lon="-8.332124">
        <ele>367.109</ele>
        <time>2022-08-23T11:14:32Z</time>
      </trkpt>
      <trkpt lat="42.917657" lon="-8.332195">
        <ele>367.032</ele>
        <time>2022-08-23T11:14:36Z</time>
      </trkpt>
      <trkpt lat="42.917662" lon="-8.332270">
        <ele>367.052</ele>
        <time>2022-08-23T11:14:40Z</time>
      </trkpt>
      <trkpt lat="42.917668" lon="-8.332341">
        <ele>367.092</ele>
        <time>2022-08-23T11:14:44Z</time>
      </trkpt>
      <trkpt lat="42.917679" lon="-8.332410">
        <ele>366.916</ele>
        <time>2022-08-23T11:14:48Z</time>
      </trkpt>
      <trkpt lat="42.917694" lon="-8.332474">
        <ele>366.836</ele>
        <time>2022-08-23T11:14:52Z</time>
      </trkpt>
      <trkpt lat="42.917695" lon="-8.332551">
        <ele>366.847</ele>
        <time>2022-08-23T11:14:57Z</time>
      </trkpt>
      <trkpt lat="42.917708" lon="-8.332610">
        <ele>366.865</ele>
        <time>2022-08-23T11:15:00Z</time>
      </trkpt>
      <trkpt lat="42.917723" lon="-8.332680">
        <ele>366.788</ele>
        <time>2022-08-23T11:15:04Z</time>
      </trkpt>
      <trkpt lat="42.917734" lon="-8.332755">
        <ele>366.663</ele>
        <time>2022-08-23T11:15:08Z</time>
      </trkpt>
      <trkpt lat="42.917744" lon="-8.332823">
        <ele>366.515</ele>
        <time>2022-08-23T11:15:12Z</time>
      </trkpt>
      <trkpt lat="42.917761" lon="-8.332901">
        <ele>366.465</ele>
        <time>2022-08-23T11:15:16Z</time>
      </trkpt>
      <trkpt lat="42.917780" lon="-8.332957">
        <ele>366.411</ele>
        <time>2022-08-23T11:15:19Z</time>
      </trkpt>
      <trkpt lat="42.917789" lon="-8.333034">
        <ele>366.309</ele>
        <time>2022-08-23T11:15:23Z</time>
      </trkpt>
      <trkpt lat="42.917799" lon="-8.333094">
        <ele>366.082</ele>
        <time>2022-08-23T11:15:26Z</time>
      </trkpt>
      <trkpt lat="42.917811" lon="-8.333158">
        <ele>365.662</ele>
        <time>2022-08-23T11:15:30Z</time>
      </trkpt>
      <trkpt lat="42.917829" lon="-8.333220">
        <ele>365.142</ele>
        <time>2022-08-23T11:15:34Z</time>
      </trkpt>
      <trkpt lat="42.917837" lon="-8.333287">
        <ele>364.646</ele>
        <time>2022-08-23T11:15:37Z</time>
      </trkpt>
      <trkpt lat="42.917849" lon="-8.333347">
        <ele>364.196</ele>
        <time>2022-08-23T11:15:40Z</time>
      </trkpt>
      <trkpt lat="42.917855" lon="-8.333411">
        <ele>363.747</ele>
        <time>2022-08-23T11:15:44Z</time>
      </trkpt>
      <trkpt lat="42.917858" lon="-8.333477">
        <ele>363.695</ele>
        <time>2022-08-23T11:15:48Z</time>
      </trkpt>
      <trkpt lat="42.917861" lon="-8.333551">
        <ele>363.698</ele>
        <time>2022-08-23T11:15:52Z</time>
      </trkpt>
      <trkpt lat="42.917886" lon="-8.333614">
        <ele>363.633</ele>
        <time>2022-08-23T11:15:56Z</time>
      </trkpt>
      <trkpt lat="42.917910" lon="-8.333673">
        <ele>363.647</ele>
        <time>2022-08-23T11:16:00Z</time>
      </trkpt>
      <trkpt lat="42.917941" lon="-8.333736">
        <ele>363.629</ele>
        <time>2022-08-23T11:16:05Z</time>
      </trkpt>
      <trkpt lat="42.917968" lon="-8.333787">
        <ele>363.621</ele>
        <time>2022-08-23T11:16:09Z</time>
      </trkpt>
      <trkpt lat="42.917997" lon="-8.333849">
        <ele>363.509</ele>
        <time>2022-08-23T11:16:12Z</time>
      </trkpt>
      <trkpt lat="42.918022" lon="-8.333903">
        <ele>363.315</ele>
        <time>2022-08-23T11:16:15Z</time>
      </trkpt>
      <trkpt lat="42.918050" lon="-8.333967">
        <ele>363.185</ele>
        <time>2022-08-23T11:16:19Z</time>
      </trkpt>
      <trkpt lat="42.918068" lon="-8.334030">
        <ele>362.975</ele>
        <time>2022-08-23T11:16:23Z</time>
      </trkpt>
      <trkpt lat="42.918078" lon="-8.334095">
        <ele>362.729</ele>
        <time>2022-08-23T11:16:27Z</time>
      </trkpt>
      <trkpt lat="42.918095" lon="-8.334171">
        <ele>362.579</ele>
        <time>2022-08-23T11:16:32Z</time>
      </trkpt>
      <trkpt lat="42.918114" lon="-8.334240">
        <ele>362.330</ele>
        <time>2022-08-23T11:16:37Z</time>
      </trkpt>
      <trkpt lat="42.918120" lon="-8.334311">
        <ele>362.198</ele>
        <time>2022-08-23T11:16:41Z</time>
      </trkpt>
      <trkpt lat="42.918129" lon="-8.334392">
        <ele>361.861</ele>
        <time>2022-08-23T11:16:46Z</time>
      </trkpt>
      <trkpt lat="42.918148" lon="-8.334451">
        <ele>361.756</ele>
        <time>2022-08-23T11:16:49Z</time>
      </trkpt>
      <trkpt lat="42.918167" lon="-8.334509">
        <ele>361.658</ele>
        <time>2022-08-23T11:16:52Z</time>
      </trkpt>
      <trkpt lat="42.918191" lon="-8.334566">
        <ele>361.552</ele>
        <time>2022-08-23T11:16:56Z</time>
      </trkpt>
      <trkpt lat="42.918191" lon="-8.334634">
        <ele>361.417</ele>
        <time>2022-08-23T11:17:00Z</time>
      </trkpt>
      <trkpt lat="42.918189" lon="-8.334709">
        <ele>361.409</ele>
        <time>2022-08-23T11:17:05Z</time>
      </trkpt>
      <trkpt lat="42.918197" lon="-8.334786">
        <ele>361.446</ele>
        <time>2022-08-23T11:17:09Z</time>
      </trkpt>
      <trkpt lat="42.918202" lon="-8.334857">
        <ele>361.266</ele>
        <time>2022-08-23T11:17:12Z</time>
      </trkpt>
      <trkpt lat="42.918208" lon="-8.334928">
        <ele>360.956</ele>
        <time>2022-08-23T11:17:16Z</time>
      </trkpt>
      <trkpt lat="42.918227" lon="-8.334996">
        <ele>360.580</ele>
        <time>2022-08-23T11:17:20Z</time>
      </trkpt>
      <trkpt lat="42.918229" lon="-8.335061">
        <ele>360.370</ele>
        <time>2022-08-23T11:17:23Z</time>
      </trkpt>
      <trkpt lat="42.918228" lon="-8.335139">
        <ele>360.061</ele>
        <time>2022-08-23T11:17:27Z</time>
      </trkpt>
      <trkpt lat="42.918238" lon="-8.335205">
        <ele>359.819</ele>
        <time>2022-08-23T11:17:31Z</time>
      </trkpt>
      <trkpt lat="42.918246" lon="-8.335277">
        <ele>359.612</ele>
        <time>2022-08-23T11:17:35Z</time>
      </trkpt>
      <trkpt lat="42.918244" lon="-8.335339">
        <ele>359.327</ele>
        <time>2022-08-23T11:17:38Z</time>
      </trkpt>
      <trkpt lat="42.918254" lon="-8.335419">
        <ele>359.073</ele>
        <time>2022-08-23T11:17:42Z</time>
      </trkpt>
      <trkpt lat="42.918266" lon="-8.335496">
        <ele>358.785</ele>
        <time>2022-08-23T11:17:46Z</time>
      </trkpt>
      <trkpt lat="42.918276" lon="-8.335564">
        <ele>358.413</ele>
        <time>2022-08-23T11:17:50Z</time>
      </trkpt>
      <trkpt lat="42.918292" lon="-8.335626">
        <ele>358.109</ele>
        <time>2022-08-23T11:17:55Z</time>
      </trkpt>
      <trkpt lat="42.918295" lon="-8.335691">
        <ele>357.978</ele>
        <time>2022-08-23T11:17:58Z</time>
      </trkpt>
      <trkpt lat="42.918293" lon="-8.335753">
        <ele>357.578</ele>
        <time>2022-08-23T11:18:01Z</time>
      </trkpt>
      <trkpt lat="42.918294" lon="-8.335832">
        <ele>357.188</ele>
        <time>2022-08-23T11:18:05Z</time>
      </trkpt>
      <trkpt lat="42.918304" lon="-8.335907">
        <ele>356.932</ele>
        <time>2022-08-23T11:18:09Z</time>
      </trkpt>
      <trkpt lat="42.918316" lon="-8.335981">
        <ele>356.852</ele>
        <time>2022-08-23T11:18:13Z</time>
      </trkpt>
      <trkpt lat="42.918323" lon="-8.336055">
        <ele>356.653</ele>
        <time>2022-08-23T11:18:17Z</time>
      </trkpt>
      <trkpt lat="42.918334" lon="-8.336125">
        <ele>356.391</ele>
        <time>2022-08-23T11:18:21Z</time>
      </trkpt>
      <trkpt lat="42.918338" lon="-8.336195">
        <ele>355.934</ele>
        <time>2022-08-23T11:18:25Z</time>
      </trkpt>
      <trkpt lat="42.918344" lon="-8.336268">
        <ele>355.899</ele>
        <time>2022-08-23T11:18:29Z</time>
      </trkpt>
      <trkpt lat="42.918351" lon="-8.336346">
        <ele>355.357</ele>
        <time>2022-08-23T11:18:33Z</time>
      </trkpt>
      <trkpt lat="42.918360" lon="-8.336412">
        <ele>355.100</ele>
        <time>2022-08-23T11:18:37Z</time>
      </trkpt>
      <trkpt lat="42.918362" lon="-8.336482">
        <ele>354.720</ele>
        <time>2022-08-23T11:18:41Z</time>
      </trkpt>
      <trkpt lat="42.918370" lon="-8.336563">
        <ele>354.109</ele>
        <time>2022-08-23T11:18:45Z</time>
      </trkpt>
      <trkpt lat="42.918378" lon="-8.336638">
        <ele>353.876</ele>
        <time>2022-08-23T11:18:49Z</time>
      </trkpt>
      <trkpt lat="42.918381" lon="-8.336703">
        <ele>353.626</ele>
        <time>2022-08-23T11:18:52Z</time>
      </trkpt>
      <trkpt lat="42.918392" lon="-8.336771">
        <ele>353.346</ele>
        <time>2022-08-23T11:18:56Z</time>
      </trkpt>
      <trkpt lat="42.918396" lon="-8.336837">
        <ele>353.070</ele>
        <time>2022-08-23T11:19:00Z</time>
      </trkpt>
      <trkpt lat="42.918403" lon="-8.336913">
        <ele>352.760</ele>
        <time>2022-08-23T11:19:04Z</time>
      </trkpt>
      <trkpt lat="42.918409" lon="-8.336982">
        <ele>352.441</ele>
        <time>2022-08-23T11:19:08Z</time>
      </trkpt>
      <trkpt lat="42.918418" lon="-8.337056">
        <ele>352.189</ele>
        <time>2022-08-23T11:19:12Z</time>
      </trkpt>
      <trkpt lat="42.918423" lon="-8.337125">
        <ele>351.872</ele>
        <time>2022-08-23T11:19:19Z</time>
      </trkpt>
      <trkpt lat="42.918425" lon="-8.337195">
        <ele>351.417</ele>
        <time>2022-08-23T11:19:23Z</time>
      </trkpt>
      <trkpt lat="42.918439" lon="-8.337269">
        <ele>351.074</ele>
        <time>2022-08-23T11:19:27Z</time>
      </trkpt>
      <trkpt lat="42.918448" lon="-8.337333">
        <ele>350.656</ele>
        <time>2022-08-23T11:19:30Z</time>
      </trkpt>
      <trkpt lat="42.918453" lon="-8.337396">
        <ele>350.221</ele>
        <time>2022-08-23T11:19:33Z</time>
      </trkpt>
      <trkpt lat="42.918455" lon="-8.337459">
        <ele>349.709</ele>
        <time>2022-08-23T11:19:36Z</time>
      </trkpt>
      <trkpt lat="42.918460" lon="-8.337522">
        <ele>349.328</ele>
        <time>2022-08-23T11:19:40Z</time>
      </trkpt>
      <trkpt lat="42.918463" lon="-8.337591">
        <ele>348.998</ele>
        <time>2022-08-23T11:19:44Z</time>
      </trkpt>
      <trkpt lat="42.918467" lon="-8.337654">
        <ele>348.588</ele>
        <time>2022-08-23T11:19:47Z</time>
      </trkpt>
      <trkpt lat="42.918478" lon="-8.337717">
        <ele>348.182</ele>
        <time>2022-08-23T11:19:51Z</time>
      </trkpt>
      <trkpt lat="42.918482" lon="-8.337778">
        <ele>347.862</ele>
        <time>2022-08-23T11:19:54Z</time>
      </trkpt>
      <trkpt lat="42.918482" lon="-8.337854">
        <ele>347.653</ele>
        <time>2022-08-23T11:19:58Z</time>
      </trkpt>
      <trkpt lat="42.918487" lon="-8.337930">
        <ele>347.421</ele>
        <time>2022-08-23T11:20:02Z</time>
      </trkpt>
      <trkpt lat="42.918493" lon="-8.338005">
        <ele>347.234</ele>
        <time>2022-08-23T11:20:06Z</time>
      </trkpt>
      <trkpt lat="42.918496" lon="-8.338076">
        <ele>346.969</ele>
        <time>2022-08-23T11:20:10Z</time>
      </trkpt>
      <trkpt lat="42.918500" lon="-8.338147">
        <ele>346.333</ele>
        <time>2022-08-23T11:20:14Z</time>
      </trkpt>
      <trkpt lat="42.918500" lon="-8.338225">
        <ele>345.923</ele>
        <time>2022-08-23T11:20:18Z</time>
      </trkpt>
      <trkpt lat="42.918493" lon="-8.338306">
        <ele>345.415</ele>
        <time>2022-08-23T11:20:22Z</time>
      </trkpt>
      <trkpt lat="42.918496" lon="-8.338381">
        <ele>345.209</ele>
        <time>2022-08-23T11:20:26Z</time>
      </trkpt>
      <trkpt lat="42.918499" lon="-8.338448">
        <ele>345.214</ele>
        <time>2022-08-23T11:20:30Z</time>
      </trkpt>
      <trkpt lat="42.918492" lon="-8.338510">
        <ele>345.244</ele>
        <time>2022-08-23T11:20:33Z</time>
      </trkpt>
      <trkpt lat="42.918480" lon="-8.338580">
        <ele>345.154</ele>
        <time>2022-08-23T11:20:37Z</time>
      </trkpt>
      <trkpt lat="42.918468" lon="-8.338660">
        <ele>344.928</ele>
        <time>2022-08-23T11:20:42Z</time>
      </trkpt>
      <trkpt lat="42.918448" lon="-8.338725">
        <ele>344.928</ele>
        <time>2022-08-23T11:20:46Z</time>
      </trkpt>
      <trkpt lat="42.918443" lon="-8.338793">
        <ele>344.999</ele>
        <time>2022-08-23T11:20:50Z</time>
      </trkpt>
      <trkpt lat="42.918433" lon="-8.338861">
        <ele>344.897</ele>
        <time>2022-08-23T11:20:54Z</time>
      </trkpt>
      <trkpt lat="42.918418" lon="-8.338923">
        <ele>344.740</ele>
        <time>2022-08-23T11:20:58Z</time>
      </trkpt>
      <trkpt lat="42.918407" lon="-8.338983">
        <ele>344.745</ele>
        <time>2022-08-23T11:21:01Z</time>
      </trkpt>
      <trkpt lat="42.918392" lon="-8.339046">
        <ele>344.735</ele>
        <time>2022-08-23T11:21:05Z</time>
      </trkpt>
      <trkpt lat="42.918376" lon="-8.339117">
        <ele>344.586</ele>
        <time>2022-08-23T11:21:09Z</time>
      </trkpt>
      <trkpt lat="42.918362" lon="-8.339182">
        <ele>344.414</ele>
        <time>2022-08-23T11:21:13Z</time>
      </trkpt>
      <trkpt lat="42.918342" lon="-8.339245">
        <ele>344.209</ele>
        <time>2022-08-23T11:21:17Z</time>
      </trkpt>
      <trkpt lat="42.918323" lon="-8.339309">
        <ele>344.094</ele>
        <time>2022-08-23T11:21:20Z</time>
      </trkpt>
      <trkpt lat="42.918309" lon="-8.339369">
        <ele>343.944</ele>
        <time>2022-08-23T11:21:23Z</time>
      </trkpt>
      <trkpt lat="42.918291" lon="-8.339425">
        <ele>343.714</ele>
        <time>2022-08-23T11:21:26Z</time>
      </trkpt>
      <trkpt lat="42.918271" lon="-8.339493">
        <ele>343.538</ele>
        <time>2022-08-23T11:21:30Z</time>
      </trkpt>
      <trkpt lat="42.918246" lon="-8.339557">
        <ele>343.468</ele>
        <time>2022-08-23T11:21:36Z</time>
      </trkpt>
      <trkpt lat="42.918220" lon="-8.339628">
        <ele>343.459</ele>
        <time>2022-08-23T11:21:41Z</time>
      </trkpt>
      <trkpt lat="42.918198" lon="-8.339689">
        <ele>343.477</ele>
        <time>2022-08-23T11:21:47Z</time>
      </trkpt>
      <trkpt lat="42.918175" lon="-8.339757">
        <ele>343.360</ele>
        <time>2022-08-23T11:21:51Z</time>
      </trkpt>
      <trkpt lat="42.918153" lon="-8.339812">
        <ele>343.365</ele>
        <time>2022-08-23T11:21:56Z</time>
      </trkpt>
      <trkpt lat="42.918137" lon="-8.339870">
        <ele>343.388</ele>
        <time>2022-08-23T11:21:59Z</time>
      </trkpt>
      <trkpt lat="42.918118" lon="-8.339942">
        <ele>343.224</ele>
        <time>2022-08-23T11:22:03Z</time>
      </trkpt>
      <trkpt lat="42.918105" lon="-8.340007">
        <ele>343.026</ele>
        <time>2022-08-23T11:22:08Z</time>
      </trkpt>
      <trkpt lat="42.918101" lon="-8.340071">
        <ele>342.909</ele>
        <time>2022-08-23T11:22:12Z</time>
      </trkpt>
      <trkpt lat="42.918095" lon="-8.340151">
        <ele>342.829</ele>
        <time>2022-08-23T11:22:16Z</time>
      </trkpt>
      <trkpt lat="42.918083" lon="-8.340216">
        <ele>342.839</ele>
        <time>2022-08-23T11:22:19Z</time>
      </trkpt>
      <trkpt lat="42.918078" lon="-8.340284">
        <ele>342.829</ele>
        <time>2022-08-23T11:22:23Z</time>
      </trkpt>
      <trkpt lat="42.918053" lon="-8.340355">
        <ele>342.733</ele>
        <time>2022-08-23T11:22:27Z</time>
      </trkpt>
      <trkpt lat="42.918028" lon="-8.340415">
        <ele>342.653</ele>
        <time>2022-08-23T11:22:32Z</time>
      </trkpt>
      <trkpt lat="42.918008" lon="-8.340485">
        <ele>342.544</ele>
        <time>2022-08-23T11:22:37Z</time>
      </trkpt>
      <trkpt lat="42.917987" lon="-8.340554">
        <ele>342.312</ele>
        <time>2022-08-23T11:22:41Z</time>
      </trkpt>
      <trkpt lat="42.917962" lon="-8.340605">
        <ele>342.015</ele>
        <time>2022-08-23T11:22:45Z</time>
      </trkpt>
      <trkpt lat="42.917941" lon="-8.340666">
        <ele>341.710</ele>
        <time>2022-08-23T11:22:50Z</time>
      </trkpt>
      <trkpt lat="42.917935" lon="-8.340734">
        <ele>341.336</ele>
        <time>2022-08-23T11:22:56Z</time>
      </trkpt>
      <trkpt lat="42.917925" lon="-8.340802">
        <ele>340.917</ele>
        <time>2022-08-23T11:23:00Z</time>
      </trkpt>
      <trkpt lat="42.917908" lon="-8.340866">
        <ele>340.518</ele>
        <time>2022-08-23T11:23:05Z</time>
      </trkpt>
      <trkpt lat="42.917898" lon="-8.340929">
        <ele>340.109</ele>
        <time>2022-08-23T11:23:09Z</time>
      </trkpt>
      <trkpt lat="42.917883" lon="-8.340991">
        <ele>339.624</ele>
        <time>2022-08-23T11:23:13Z</time>
      </trkpt>
      <trkpt lat="42.917878" lon="-8.341054">
        <ele>339.134</ele>
        <time>2022-08-23T11:23:16Z</time>
      </trkpt>
      <trkpt lat="42.917851" lon="-8.341106">
        <ele>338.764</ele>
        <time>2022-08-23T11:23:20Z</time>
      </trkpt>
      <trkpt lat="42.917812" lon="-8.341159">
        <ele>338.498</ele>
        <time>2022-08-23T11:23:24Z</time>
      </trkpt>
      <trkpt lat="42.917780" lon="-8.341210">
        <ele>338.128</ele>
        <time>2022-08-23T11:23:28Z</time>
      </trkpt>
      <trkpt lat="42.917754" lon="-8.341278">
        <ele>337.969</ele>
        <time>2022-08-23T11:23:32Z</time>
      </trkpt>
      <trkpt lat="42.917739" lon="-8.341353">
        <ele>337.747</ele>
        <time>2022-08-23T11:23:36Z</time>
      </trkpt>
      <trkpt lat="42.917730" lon="-8.341416">
        <ele>337.440</ele>
        <time>2022-08-23T11:23:39Z</time>
      </trkpt>
      <trkpt lat="42.917708" lon="-8.341486">
        <ele>337.195</ele>
        <time>2022-08-23T11:23:43Z</time>
      </trkpt>
      <trkpt lat="42.917676" lon="-8.341555">
        <ele>336.786</ele>
        <time>2022-08-23T11:23:48Z</time>
      </trkpt>
      <trkpt lat="42.917659" lon="-8.341612">
        <ele>336.560</ele>
        <time>2022-08-23T11:23:51Z</time>
      </trkpt>
      <trkpt lat="42.917639" lon="-8.341668">
        <ele>336.226</ele>
        <time>2022-08-23T11:23:54Z</time>
      </trkpt>
      <trkpt lat="42.917612" lon="-8.341724">
        <ele>335.909</ele>
        <time>2022-08-23T11:23:58Z</time>
      </trkpt>
      <trkpt lat="42.917581" lon="-8.341776">
        <ele>335.739</ele>
        <time>2022-08-23T11:24:02Z</time>
      </trkpt>
      <trkpt lat="42.917559" lon="-8.341851">
        <ele>335.549</ele>
        <time>2022-08-23T11:24:06Z</time>
      </trkpt>
      <trkpt lat="42.917533" lon="-8.341916">
        <ele>335.369</ele>
        <time>2022-08-23T11:24:09Z</time>
      </trkpt>
      <trkpt lat="42.917516" lon="-8.341989">
        <ele>335.163</ele>
        <time>2022-08-23T11:24:14Z</time>
      </trkpt>
      <trkpt lat="42.917507" lon="-8.342051">
        <ele>335.013</ele>
        <time>2022-08-23T11:24:17Z</time>
      </trkpt>
      <trkpt lat="42.917505" lon="-8.342118">
        <ele>334.934</ele>
        <time>2022-08-23T11:24:21Z</time>
      </trkpt>
      <trkpt lat="42.917481" lon="-8.342182">
        <ele>334.882</ele>
        <time>2022-08-23T11:24:25Z</time>
      </trkpt>
      <trkpt lat="42.917457" lon="-8.342247">
        <ele>334.645</ele>
        <time>2022-08-23T11:24:31Z</time>
      </trkpt>
      <trkpt lat="42.917428" lon="-8.342315">
        <ele>334.260</ele>
        <time>2022-08-23T11:24:35Z</time>
      </trkpt>
      <trkpt lat="42.917407" lon="-8.342378">
        <ele>333.791</ele>
        <time>2022-08-23T11:24:39Z</time>
      </trkpt>
      <trkpt lat="42.917391" lon="-8.342436">
        <ele>333.281</ele>
        <time>2022-08-23T11:24:43Z</time>
      </trkpt>
      <trkpt lat="42.917360" lon="-8.342511">
        <ele>332.519</ele>
        <time>2022-08-23T11:24:48Z</time>
      </trkpt>
      <trkpt lat="42.917337" lon="-8.342573">
        <ele>332.309</ele>
        <time>2022-08-23T11:24:53Z</time>
      </trkpt>
      <trkpt lat="42.917319" lon="-8.342630">
        <ele>331.870</ele>
        <time>2022-08-23T11:24:57Z</time>
      </trkpt>
      <trkpt lat="42.917289" lon="-8.342706">
        <ele>331.420</ele>
        <time>2022-08-23T11:25:02Z</time>
      </trkpt>
      <trkpt lat="42.917262" lon="-8.342756">
        <ele>331.090</ele>
        <time>2022-08-23T11:25:05Z</time>
      </trkpt>
      <trkpt lat="42.917247" lon="-8.342834">
        <ele>330.624</ele>
        <time>2022-08-23T11:25:09Z</time>
      </trkpt>
      <trkpt lat="42.917217" lon="-8.342906">
        <ele>330.194</ele>
        <time>2022-08-23T11:25:13Z</time>
      </trkpt>
      <trkpt lat="42.917187" lon="-8.342980">
        <ele>329.815</ele>
        <time>2022-08-23T11:25:17Z</time>
      </trkpt>
      <trkpt lat="42.917164" lon="-8.343037">
        <ele>329.593</ele>
        <time>2022-08-23T11:25:20Z</time>
      </trkpt>
      <trkpt lat="42.917138" lon="-8.343110">
        <ele>329.116</ele>
        <time>2022-08-23T11:25:24Z</time>
      </trkpt>
      <trkpt lat="42.917102" lon="-8.343165">
        <ele>328.881</ele>
        <time>2022-08-23T11:25:28Z</time>
      </trkpt>
      <trkpt lat="42.917054" lon="-8.343204">
        <ele>328.448</ele>
        <time>2022-08-23T11:25:34Z</time>
      </trkpt>
      <trkpt lat="42.916998" lon="-8.343230">
        <ele>328.161</ele>
        <time>2022-08-23T11:25:38Z</time>
      </trkpt>
      <trkpt lat="42.916955" lon="-8.343253">
        <ele>327.917</ele>
        <time>2022-08-23T11:25:42Z</time>
      </trkpt>
      <trkpt lat="42.916909" lon="-8.343262">
        <ele>327.809</ele>
        <time>2022-08-23T11:25:45Z</time>
      </trkpt>
      <trkpt lat="42.916858" lon="-8.343266">
        <ele>327.525</ele>
        <time>2022-08-23T11:25:48Z</time>
      </trkpt>
      <trkpt lat="42.916804" lon="-8.343260">
        <ele>327.275</ele>
        <time>2022-08-23T11:25:51Z</time>
      </trkpt>
      <trkpt lat="42.916758" lon="-8.343248">
        <ele>326.935</ele>
        <time>2022-08-23T11:25:54Z</time>
      </trkpt>
      <trkpt lat="42.916710" lon="-8.343229">
        <ele>326.599</ele>
        <time>2022-08-23T11:25:57Z</time>
      </trkpt>
      <trkpt lat="42.916663" lon="-8.343231">
        <ele>325.929</ele>
        <time>2022-08-23T11:26:00Z</time>
      </trkpt>
      <trkpt lat="42.916616" lon="-8.343240">
        <ele>325.350</ele>
        <time>2022-08-23T11:26:04Z</time>
      </trkpt>
      <trkpt lat="42.916576" lon="-8.343300">
        <ele>324.938</ele>
        <time>2022-08-23T11:26:08Z</time>
      </trkpt>
      <trkpt lat="42.916565" lon="-8.343371">
        <ele>324.651</ele>
        <time>2022-08-23T11:26:12Z</time>
      </trkpt>
      <trkpt lat="42.916557" lon="-8.343443">
        <ele>324.356</ele>
        <time>2022-08-23T11:26:16Z</time>
      </trkpt>
      <trkpt lat="42.916551" lon="-8.343511">
        <ele>323.818</ele>
        <time>2022-08-23T11:26:20Z</time>
      </trkpt>
      <trkpt lat="42.916552" lon="-8.343585">
        <ele>323.198</ele>
        <time>2022-08-23T11:26:24Z</time>
      </trkpt>
      <trkpt lat="42.916555" lon="-8.343660">
        <ele>322.917</ele>
        <time>2022-08-23T11:26:28Z</time>
      </trkpt>
      <trkpt lat="42.916567" lon="-8.343733">
        <ele>322.209</ele>
        <time>2022-08-23T11:26:32Z</time>
      </trkpt>
      <trkpt lat="42.916557" lon="-8.343803">
        <ele>321.392</ele>
        <time>2022-08-23T11:26:36Z</time>
      </trkpt>
      <trkpt lat="42.916525" lon="-8.343853">
        <ele>320.312</ele>
        <time>2022-08-23T11:26:40Z</time>
      </trkpt>
      <trkpt lat="42.916454" lon="-8.343927">
        <ele>319.052</ele>
        <time>2022-08-23T11:26:53Z</time>
      </trkpt>
      <trkpt lat="42.916390" lon="-8.343950">
        <ele>318.096</ele>
        <time>2022-08-23T11:26:56Z</time>
      </trkpt>
      <trkpt lat="42.916360" lon="-8.344001">
        <ele>317.156</ele>
        <time>2022-08-23T11:26:59Z</time>
      </trkpt>
      <trkpt lat="42.916328" lon="-8.344048">
        <ele>317.137</ele>
        <time>2022-08-23T11:27:02Z</time>
      </trkpt>
      <trkpt lat="42.916319" lon="-8.344110">
        <ele>317.155</ele>
        <time>2022-08-23T11:27:05Z</time>
      </trkpt>
      <trkpt lat="42.916311" lon="-8.344183">
        <ele>317.238</ele>
        <time>2022-08-23T11:27:09Z</time>
      </trkpt>
      <trkpt lat="42.916316" lon="-8.344249">
        <ele>317.593</ele>
        <time>2022-08-23T11:27:13Z</time>
      </trkpt>
      <trkpt lat="42.916325" lon="-8.344320">
        <ele>317.758</ele>
        <time>2022-08-23T11:27:17Z</time>
      </trkpt>
      <trkpt lat="42.916317" lon="-8.344386">
        <ele>317.752</ele>
        <time>2022-08-23T11:27:21Z</time>
      </trkpt>
      <trkpt lat="42.916292" lon="-8.344456">
        <ele>317.717</ele>
        <time>2022-08-23T11:27:26Z</time>
      </trkpt>
      <trkpt lat="42.916270" lon="-8.344525">
        <ele>317.409</ele>
        <time>2022-08-23T11:27:31Z</time>
      </trkpt>
      <trkpt lat="42.916255" lon="-8.344587">
        <ele>316.616</ele>
        <time>2022-08-23T11:27:35Z</time>
      </trkpt>
      <trkpt lat="42.916233" lon="-8.344650">
        <ele>315.756</ele>
        <time>2022-08-23T11:27:39Z</time>
      </trkpt>
      <trkpt lat="42.916216" lon="-8.344724">
        <ele>315.086</ele>
        <time>2022-08-23T11:27:43Z</time>
      </trkpt>
      <trkpt lat="42.916199" lon="-8.344788">
        <ele>314.460</ele>
        <time>2022-08-23T11:27:47Z</time>
      </trkpt>
      <trkpt lat="42.916179" lon="-8.344847">
        <ele>313.810</ele>
        <time>2022-08-23T11:27:51Z</time>
      </trkpt>
      <trkpt lat="42.916153" lon="-8.344916">
        <ele>313.221</ele>
        <time>2022-08-23T11:27:55Z</time>
      </trkpt>
      <trkpt lat="42.916129" lon="-8.344992">
        <ele>312.589</ele>
        <time>2022-08-23T11:28:00Z</time>
      </trkpt>
      <trkpt lat="42.916111" lon="-8.345051">
        <ele>312.382</ele>
        <time>2022-08-23T11:28:03Z</time>
      </trkpt>
      <trkpt lat="42.916101" lon="-8.345111">
        <ele>311.927</ele>
        <time>2022-08-23T11:28:07Z</time>
      </trkpt>
      <trkpt lat="42.916091" lon="-8.345183">
        <ele>311.576</ele>
        <time>2022-08-23T11:28:11Z</time>
      </trkpt>
      <trkpt lat="42.916076" lon="-8.345251">
        <ele>311.290</ele>
        <time>2022-08-23T11:28:15Z</time>
      </trkpt>
      <trkpt lat="42.916059" lon="-8.345312">
        <ele>310.819</ele>
        <time>2022-08-23T11:28:19Z</time>
      </trkpt>
      <trkpt lat="42.916043" lon="-8.345387">
        <ele>310.409</ele>
        <time>2022-08-23T11:28:24Z</time>
      </trkpt>
      <trkpt lat="42.916014" lon="-8.345440">
        <ele>310.118</ele>
        <time>2022-08-23T11:28:28Z</time>
      </trkpt>
      <trkpt lat="42.915972" lon="-8.345496">
        <ele>309.838</ele>
        <time>2022-08-23T11:28:32Z</time>
      </trkpt>
      <trkpt lat="42.915941" lon="-8.345558">
        <ele>309.428</ele>
        <time>2022-08-23T11:28:36Z</time>
      </trkpt>
      <trkpt lat="42.915910" lon="-8.345616">
        <ele>309.082</ele>
        <time>2022-08-23T11:28:40Z</time>
      </trkpt>
      <trkpt lat="42.915876" lon="-8.345677">
        <ele>308.852</ele>
        <time>2022-08-23T11:28:44Z</time>
      </trkpt>
      <trkpt lat="42.915844" lon="-8.345722">
        <ele>308.623</ele>
        <time>2022-08-23T11:28:47Z</time>
      </trkpt>
      <trkpt lat="42.915800" lon="-8.345778">
        <ele>308.381</ele>
        <time>2022-08-23T11:28:51Z</time>
      </trkpt>
      <trkpt lat="42.915758" lon="-8.345834">
        <ele>307.914</ele>
        <time>2022-08-23T11:28:55Z</time>
      </trkpt>
      <trkpt lat="42.915729" lon="-8.345898">
        <ele>307.589</ele>
        <time>2022-08-23T11:28:59Z</time>
      </trkpt>
      <trkpt lat="42.915700" lon="-8.345961">
        <ele>307.197</ele>
        <time>2022-08-23T11:29:03Z</time>
      </trkpt>
      <trkpt lat="42.915683" lon="-8.346032">
        <ele>306.723</ele>
        <time>2022-08-23T11:29:07Z</time>
      </trkpt>
      <trkpt lat="42.915663" lon="-8.346099">
        <ele>306.425</ele>
        <time>2022-08-23T11:29:11Z</time>
      </trkpt>
      <trkpt lat="42.915647" lon="-8.346158">
        <ele>306.209</ele>
        <time>2022-08-23T11:29:16Z</time>
      </trkpt>
      <trkpt lat="42.915628" lon="-8.346225">
        <ele>305.920</ele>
        <time>2022-08-23T11:29:21Z</time>
      </trkpt>
      <trkpt lat="42.915598" lon="-8.346286">
        <ele>305.680</ele>
        <time>2022-08-23T11:29:25Z</time>
      </trkpt>
      <trkpt lat="42.915570" lon="-8.346343">
        <ele>305.350</ele>
        <time>2022-08-23T11:29:30Z</time>
      </trkpt>
      <trkpt lat="42.915533" lon="-8.346405">
        <ele>305.064</ele>
        <time>2022-08-23T11:29:34Z</time>
      </trkpt>
      <trkpt lat="42.915498" lon="-8.346473">
        <ele>304.774</ele>
        <time>2022-08-23T11:29:39Z</time>
      </trkpt>
      <trkpt lat="42.915467" lon="-8.346533">
        <ele>304.565</ele>
        <time>2022-08-23T11:29:44Z</time>
      </trkpt>
      <trkpt lat="42.915441" lon="-8.346588">
        <ele>304.263</ele>
        <time>2022-08-23T11:29:48Z</time>
      </trkpt>
      <trkpt lat="42.915413" lon="-8.346647">
        <ele>304.066</ele>
        <time>2022-08-23T11:29:52Z</time>
      </trkpt>
      <trkpt lat="42.915382" lon="-8.346692">
        <ele>303.961</ele>
        <time>2022-08-23T11:29:55Z</time>
      </trkpt>
      <trkpt lat="42.915336" lon="-8.346745">
        <ele>303.765</ele>
        <time>2022-08-23T11:29:59Z</time>
      </trkpt>
      <trkpt lat="42.915302" lon="-8.346790">
        <ele>303.568</ele>
        <time>2022-08-23T11:30:02Z</time>
      </trkpt>
      <trkpt lat="42.915264" lon="-8.346824">
        <ele>303.314</ele>
        <time>2022-08-23T11:30:05Z</time>
      </trkpt>
      <trkpt lat="42.915238" lon="-8.346884">
        <ele>303.109</ele>
        <time>2022-08-23T11:30:10Z</time>
      </trkpt>
      <trkpt lat="42.915197" lon="-8.346942">
        <ele>303.067</ele>
        <time>2022-08-23T11:30:14Z</time>
      </trkpt>
      <trkpt lat="42.915158" lon="-8.346997">
        <ele>302.917</ele>
        <time>2022-08-23T11:30:18Z</time>
      </trkpt>
      <trkpt lat="42.915126" lon="-8.347040">
        <ele>302.697</ele>
        <time>2022-08-23T11:30:21Z</time>
      </trkpt>
      <trkpt lat="42.915086" lon="-8.347090">
        <ele>302.221</ele>
        <time>2022-08-23T11:30:25Z</time>
      </trkpt>
      <trkpt lat="42.915043" lon="-8.347142">
        <ele>301.871</ele>
        <time>2022-08-23T11:30:29Z</time>
      </trkpt>
      <trkpt lat="42.915008" lon="-8.347199">
        <ele>301.642</ele>
        <time>2022-08-23T11:30:33Z</time>
      </trkpt>
      <trkpt lat="42.914980" lon="-8.347256">
        <ele>301.360</ele>
        <time>2022-08-23T11:30:37Z</time>
      </trkpt>
      <trkpt lat="42.914941" lon="-8.347307">
        <ele>300.913</ele>
        <time>2022-08-23T11:30:41Z</time>
      </trkpt>
      <trkpt lat="42.914903" lon="-8.347360">
        <ele>300.528</ele>
        <time>2022-08-23T11:30:45Z</time>
      </trkpt>
      <trkpt lat="42.914869" lon="-8.347407">
        <ele>300.311</ele>
        <time>2022-08-23T11:30:49Z</time>
      </trkpt>
      <trkpt lat="42.914833" lon="-8.347473">
        <ele>299.921</ele>
        <time>2022-08-23T11:30:54Z</time>
      </trkpt>
      <trkpt lat="42.914802" lon="-8.347524">
        <ele>299.503</ele>
        <time>2022-08-23T11:30:58Z</time>
      </trkpt>
      <trkpt lat="42.914768" lon="-8.347578">
        <ele>298.909</ele>
        <time>2022-08-23T11:31:02Z</time>
      </trkpt>
      <trkpt lat="42.914739" lon="-8.347627">
        <ele>298.312</ele>
        <time>2022-08-23T11:31:05Z</time>
      </trkpt>
      <trkpt lat="42.914718" lon="-8.347682">
        <ele>297.882</ele>
        <time>2022-08-23T11:31:09Z</time>
      </trkpt>
      <trkpt lat="42.914694" lon="-8.347740">
        <ele>297.582</ele>
        <time>2022-08-23T11:31:13Z</time>
      </trkpt>
      <trkpt lat="42.914672" lon="-8.347798">
        <ele>297.246</ele>
        <time>2022-08-23T11:31:17Z</time>
      </trkpt>
      <trkpt lat="42.914656" lon="-8.347872">
        <ele>296.926</ele>
        <time>2022-08-23T11:31:21Z</time>
      </trkpt>
      <trkpt lat="42.914635" lon="-8.347934">
        <ele>296.717</ele>
        <time>2022-08-23T11:31:24Z</time>
      </trkpt>
      <trkpt lat="42.914620" lon="-8.348009">
        <ele>296.615</ele>
        <time>2022-08-23T11:31:28Z</time>
      </trkpt>
      <trkpt lat="42.914604" lon="-8.348083">
        <ele>296.538</ele>
        <time>2022-08-23T11:31:32Z</time>
      </trkpt>
      <trkpt lat="42.914589" lon="-8.348152">
        <ele>296.373</ele>
        <time>2022-08-23T11:31:36Z</time>
      </trkpt>
      <trkpt lat="42.914567" lon="-8.348223">
        <ele>296.246</ele>
        <time>2022-08-23T11:31:40Z</time>
      </trkpt>
      <trkpt lat="42.914544" lon="-8.348282">
        <ele>296.188</ele>
        <time>2022-08-23T11:31:44Z</time>
      </trkpt>
      <trkpt lat="42.914526" lon="-8.348343">
        <ele>296.116</ele>
        <time>2022-08-23T11:31:48Z</time>
      </trkpt>
      <trkpt lat="42.914503" lon="-8.348403">
        <ele>296.009</ele>
        <time>2022-08-23T11:31:52Z</time>
      </trkpt>
      <trkpt lat="42.914478" lon="-8.348475">
        <ele>295.825</ele>
        <time>2022-08-23T11:31:57Z</time>
      </trkpt>
      <trkpt lat="42.914457" lon="-8.348539">
        <ele>295.575</ele>
        <time>2022-08-23T11:32:01Z</time>
      </trkpt>
      <trkpt lat="42.914434" lon="-8.348606">
        <ele>295.115</ele>
        <time>2022-08-23T11:32:05Z</time>
      </trkpt>
      <trkpt lat="42.914408" lon="-8.348674">
        <ele>294.479</ele>
        <time>2022-08-23T11:32:09Z</time>
      </trkpt>
      <trkpt lat="42.914390" lon="-8.348736">
        <ele>294.219</ele>
        <time>2022-08-23T11:32:13Z</time>
      </trkpt>
      <trkpt lat="42.914379" lon="-8.348814">
        <ele>293.840</ele>
        <time>2022-08-23T11:32:18Z</time>
      </trkpt>
      <trkpt lat="42.914363" lon="-8.348880">
        <ele>293.398</ele>
        <time>2022-08-23T11:32:22Z</time>
      </trkpt>
      <trkpt lat="42.914352" lon="-8.348942">
        <ele>292.761</ele>
        <time>2022-08-23T11:32:25Z</time>
      </trkpt>
      <trkpt lat="42.914361" lon="-8.349006">
        <ele>292.136</ele>
        <time>2022-08-23T11:32:29Z</time>
      </trkpt>
      <trkpt lat="42.914386" lon="-8.349075">
        <ele>291.752</ele>
        <time>2022-08-23T11:32:34Z</time>
      </trkpt>
      <trkpt lat="42.914417" lon="-8.349121">
        <ele>291.353</ele>
        <time>2022-08-23T11:32:39Z</time>
      </trkpt>
      <trkpt lat="42.914459" lon="-8.349167">
        <ele>291.008</ele>
        <time>2022-08-23T11:32:43Z</time>
      </trkpt>
      <trkpt lat="42.914503" lon="-8.349198">
        <ele>290.709</ele>
        <time>2022-08-23T11:32:47Z</time>
      </trkpt>
      <trkpt lat="42.914546" lon="-8.349240">
        <ele>290.446</ele>
        <time>2022-08-23T11:32:52Z</time>
      </trkpt>
      <trkpt lat="42.914582" lon="-8.349296">
        <ele>290.196</ele>
        <time>2022-08-23T11:32:57Z</time>
      </trkpt>
      <trkpt lat="42.914612" lon="-8.349346">
        <ele>289.676</ele>
        <time>2022-08-23T11:33:01Z</time>
      </trkpt>
      <trkpt lat="42.914640" lon="-8.349399">
        <ele>288.810</ele>
        <time>2022-08-23T11:33:05Z</time>
      </trkpt>
      <trkpt lat="42.914671" lon="-8.349450">
        <ele>287.910</ele>
        <time>2022-08-23T11:33:09Z</time>
      </trkpt>
      <trkpt lat="42.914689" lon="-8.349516">
        <ele>287.061</ele>
        <time>2022-08-23T11:33:12Z</time>
      </trkpt>
      <trkpt lat="42.914713" lon="-8.349587">
        <ele>285.939</ele>
        <time>2022-08-23T11:33:16Z</time>
      </trkpt>
      <trkpt lat="42.914722" lon="-8.349672">
        <ele>285.032</ele>
        <time>2022-08-23T11:33:20Z</time>
      </trkpt>
      <trkpt lat="42.914716" lon="-8.349737">
        <ele>284.397</ele>
        <time>2022-08-23T11:33:23Z</time>
      </trkpt>
      <trkpt lat="42.914728" lon="-8.349814">
        <ele>283.295</ele>
        <time>2022-08-23T11:33:27Z</time>
      </trkpt>
      <trkpt lat="42.914736" lon="-8.349883">
        <ele>282.849</ele>
        <time>2022-08-23T11:33:31Z</time>
      </trkpt>
      <trkpt lat="42.914730" lon="-8.349951">
        <ele>282.423</ele>
        <time>2022-08-23T11:33:35Z</time>
      </trkpt>
      <trkpt lat="42.914717" lon="-8.350011">
        <ele>282.309</ele>
        <time>2022-08-23T11:33:38Z</time>
      </trkpt>
      <trkpt lat="42.914685" lon="-8.350071">
        <ele>282.030</ele>
        <time>2022-08-23T11:33:42Z</time>
      </trkpt>
      <trkpt lat="42.914655" lon="-8.350119">
        <ele>281.890</ele>
        <time>2022-08-23T11:33:45Z</time>
      </trkpt>
      <trkpt lat="42.914638" lon="-8.350186">
        <ele>281.630</ele>
        <time>2022-08-23T11:33:49Z</time>
      </trkpt>
      <trkpt lat="42.914617" lon="-8.350255">
        <ele>281.484</ele>
        <time>2022-08-23T11:33:53Z</time>
      </trkpt>
      <trkpt lat="42.914589" lon="-8.350319">
        <ele>281.294</ele>
        <time>2022-08-23T11:33:57Z</time>
      </trkpt>
      <trkpt lat="42.914552" lon="-8.350387">
        <ele>280.955</ele>
        <time>2022-08-23T11:34:01Z</time>
      </trkpt>
      <trkpt lat="42.914531" lon="-8.350449">
        <ele>280.463</ele>
        <time>2022-08-23T11:34:07Z</time>
      </trkpt>
      <trkpt lat="42.914524" lon="-8.350514">
        <ele>280.196</ele>
        <time>2022-08-23T11:34:12Z</time>
      </trkpt>
      <trkpt lat="42.914515" lon="-8.350577">
        <ele>279.941</ele>
        <time>2022-08-23T11:34:15Z</time>
      </trkpt>
      <trkpt lat="42.914517" lon="-8.350646">
        <ele>279.674</ele>
        <time>2022-08-23T11:34:24Z</time>
      </trkpt>
      <trkpt lat="42.914492" lon="-8.350703">
        <ele>279.556</ele>
        <time>2022-08-23T11:34:27Z</time>
      </trkpt>
      <trkpt lat="42.914465" lon="-8.350764">
        <ele>279.421</ele>
        <time>2022-08-23T11:34:31Z</time>
      </trkpt>
      <trkpt lat="42.914445" lon="-8.350823">
        <ele>279.309</ele>
        <time>2022-08-23T11:34:35Z</time>
      </trkpt>
      <trkpt lat="42.914416" lon="-8.350884">
        <ele>279.278</ele>
        <time>2022-08-23T11:34:40Z</time>
      </trkpt>
      <trkpt lat="42.914400" lon="-8.350945">
        <ele>279.118</ele>
        <time>2022-08-23T11:34:43Z</time>
      </trkpt>
      <trkpt lat="42.914376" lon="-8.351007">
        <ele>279.038</ele>
        <time>2022-08-23T11:34:46Z</time>
      </trkpt>
      <trkpt lat="42.914364" lon="-8.351071">
        <ele>278.982</ele>
        <time>2022-08-23T11:34:49Z</time>
      </trkpt>
      <trkpt lat="42.914337" lon="-8.351121">
        <ele>278.862</ele>
        <time>2022-08-23T11:34:52Z</time>
      </trkpt>
      <trkpt lat="42.914307" lon="-8.351170">
        <ele>278.733</ele>
        <time>2022-08-23T11:34:55Z</time>
      </trkpt>
      <trkpt lat="42.914290" lon="-8.351227">
        <ele>278.611</ele>
        <time>2022-08-23T11:34:58Z</time>
      </trkpt>
      <trkpt lat="42.914276" lon="-8.351306">
        <ele>278.514</ele>
        <time>2022-08-23T11:35:02Z</time>
      </trkpt>
      <trkpt lat="42.914252" lon="-8.351361">
        <ele>278.569</ele>
        <time>2022-08-23T11:35:05Z</time>
      </trkpt>
      <trkpt lat="42.914221" lon="-8.351426">
        <ele>278.465</ele>
        <time>2022-08-23T11:35:09Z</time>
      </trkpt>
      <trkpt lat="42.914194" lon="-8.351495">
        <ele>278.368</ele>
        <time>2022-08-23T11:35:13Z</time>
      </trkpt>
      <trkpt lat="42.914164" lon="-8.351559">
        <ele>278.114</ele>
        <time>2022-08-23T11:35:17Z</time>
      </trkpt>
      <trkpt lat="42.914145" lon="-8.351634">
        <ele>277.809</ele>
        <time>2022-08-23T11:35:21Z</time>
      </trkpt>
      <trkpt lat="42.914115" lon="-8.351699">
        <ele>277.667</ele>
        <time>2022-08-23T11:35:25Z</time>
      </trkpt>
      <trkpt lat="42.914094" lon="-8.351766">
        <ele>277.567</ele>
        <time>2022-08-23T11:35:29Z</time>
      </trkpt>
      <trkpt lat="42.914071" lon="-8.351832">
        <ele>277.487</ele>
        <time>2022-08-23T11:35:33Z</time>
      </trkpt>
      <trkpt lat="42.914036" lon="-8.351888">
        <ele>277.271</ele>
        <time>2022-08-23T11:35:37Z</time>
      </trkpt>
      <trkpt lat="42.914015" lon="-8.351948">
        <ele>277.121</ele>
        <time>2022-08-23T11:35:41Z</time>
      </trkpt>
      <trkpt lat="42.913994" lon="-8.352017">
        <ele>277.092</ele>
        <time>2022-08-23T11:35:45Z</time>
      </trkpt>
      <trkpt lat="42.913967" lon="-8.352074">
        <ele>277.050</ele>
        <time>2022-08-23T11:35:49Z</time>
      </trkpt>
      <trkpt lat="42.913945" lon="-8.352131">
        <ele>277.073</ele>
        <time>2022-08-23T11:35:53Z</time>
      </trkpt>
      <trkpt lat="42.913934" lon="-8.352198">
        <ele>276.958</ele>
        <time>2022-08-23T11:35:57Z</time>
      </trkpt>
      <trkpt lat="42.913907" lon="-8.352267">
        <ele>276.886</ele>
        <time>2022-08-23T11:36:01Z</time>
      </trkpt>
      <trkpt lat="42.913886" lon="-8.352334">
        <ele>276.760</ele>
        <time>2022-08-23T11:36:05Z</time>
      </trkpt>
      <trkpt lat="42.913856" lon="-8.352395">
        <ele>276.726</ele>
        <time>2022-08-23T11:36:09Z</time>
      </trkpt>
      <trkpt lat="42.913833" lon="-8.352461">
        <ele>276.609</ele>
        <time>2022-08-23T11:36:13Z</time>
      </trkpt>
      <trkpt lat="42.913814" lon="-8.352528">
        <ele>276.679</ele>
        <time>2022-08-23T11:36:17Z</time>
      </trkpt>
      <trkpt lat="42.913802" lon="-8.352602">
        <ele>276.619</ele>
        <time>2022-08-23T11:36:21Z</time>
      </trkpt>
      <trkpt lat="42.913780" lon="-8.352668">
        <ele>276.639</ele>
        <time>2022-08-23T11:36:25Z</time>
      </trkpt>
      <trkpt lat="42.913750" lon="-8.352732">
        <ele>276.443</ele>
        <time>2022-08-23T11:36:29Z</time>
      </trkpt>
      <trkpt lat="42.913717" lon="-8.352790">
        <ele>276.273</ele>
        <time>2022-08-23T11:36:33Z</time>
      </trkpt>
      <trkpt lat="42.913686" lon="-8.352845">
        <ele>276.214</ele>
        <time>2022-08-23T11:36:37Z</time>
      </trkpt>
      <trkpt lat="42.913658" lon="-8.352901">
        <ele>276.152</ele>
        <time>2022-08-23T11:36:41Z</time>
      </trkpt>
      <trkpt lat="42.913623" lon="-8.352957">
        <ele>276.015</ele>
        <time>2022-08-23T11:36:45Z</time>
      </trkpt>
      <trkpt lat="42.913585" lon="-8.353007">
        <ele>275.920</ele>
        <time>2022-08-23T11:36:49Z</time>
      </trkpt>
      <trkpt lat="42.913543" lon="-8.353054">
        <ele>275.978</ele>
        <time>2022-08-23T11:36:53Z</time>
      </trkpt>
      <trkpt lat="42.913499" lon="-8.353102">
        <ele>275.833</ele>
        <time>2022-08-23T11:36:57Z</time>
      </trkpt>
      <trkpt lat="42.913455" lon="-8.353146">
        <ele>275.726</ele>
        <time>2022-08-23T11:37:01Z</time>
      </trkpt>
      <trkpt lat="42.913410" lon="-8.353188">
        <ele>275.609</ele>
        <time>2022-08-23T11:37:05Z</time>
      </trkpt>
      <trkpt lat="42.913366" lon="-8.353231">
        <ele>275.538</ele>
        <time>2022-08-23T11:37:09Z</time>
      </trkpt>
      <trkpt lat="42.913325" lon="-8.353271">
        <ele>275.418</ele>
        <time>2022-08-23T11:37:13Z</time>
      </trkpt>
      <trkpt lat="42.913283" lon="-8.353320">
        <ele>275.398</ele>
        <time>2022-08-23T11:37:17Z</time>
      </trkpt>
      <trkpt lat="42.913242" lon="-8.353366">
        <ele>275.162</ele>
        <time>2022-08-23T11:37:21Z</time>
      </trkpt>
      <trkpt lat="42.913206" lon="-8.353418">
        <ele>274.972</ele>
        <time>2022-08-23T11:37:25Z</time>
      </trkpt>
      <trkpt lat="42.913162" lon="-8.353466">
        <ele>274.843</ele>
        <time>2022-08-23T11:37:30Z</time>
      </trkpt>
      <trkpt lat="42.913123" lon="-8.353514">
        <ele>274.611</ele>
        <time>2022-08-23T11:37:35Z</time>
      </trkpt>
      <trkpt lat="42.913086" lon="-8.353553">
        <ele>274.694</ele>
        <time>2022-08-23T11:37:40Z</time>
      </trkpt>
      <trkpt lat="42.913053" lon="-8.353598">
        <ele>274.619</ele>
        <time>2022-08-23T11:37:44Z</time>
      </trkpt>
      <trkpt lat="42.913017" lon="-8.353639">
        <ele>274.692</ele>
        <time>2022-08-23T11:37:50Z</time>
      </trkpt>
      <trkpt lat="42.912996" lon="-8.353701">
        <ele>274.673</ele>
        <time>2022-08-23T11:37:57Z</time>
      </trkpt>
      <trkpt lat="42.912969" lon="-8.353760">
        <ele>274.620</ele>
        <time>2022-08-23T11:38:01Z</time>
      </trkpt>
      <trkpt lat="42.912964" lon="-8.353826">
        <ele>274.609</ele>
        <time>2022-08-23T11:38:05Z</time>
      </trkpt>
      <trkpt lat="42.912939" lon="-8.353881">
        <ele>274.540</ele>
        <time>2022-08-23T11:38:08Z</time>
      </trkpt>
      <trkpt lat="42.912917" lon="-8.353936">
        <ele>274.390</ele>
        <time>2022-08-23T11:38:11Z</time>
      </trkpt>
      <trkpt lat="42.912893" lon="-8.354000">
        <ele>274.020</ele>
        <time>2022-08-23T11:38:15Z</time>
      </trkpt>
      <trkpt lat="42.912876" lon="-8.354067">
        <ele>273.794</ele>
        <time>2022-08-23T11:38:19Z</time>
      </trkpt>
      <trkpt lat="42.912860" lon="-8.354130">
        <ele>273.434</ele>
        <time>2022-08-23T11:38:23Z</time>
      </trkpt>
      <trkpt lat="42.912829" lon="-8.354190">
        <ele>273.115</ele>
        <time>2022-08-23T11:38:27Z</time>
      </trkpt>
      <trkpt lat="42.912812" lon="-8.354252">
        <ele>272.983</ele>
        <time>2022-08-23T11:38:31Z</time>
      </trkpt>
      <trkpt lat="42.912789" lon="-8.354315">
        <ele>272.676</ele>
        <time>2022-08-23T11:38:35Z</time>
      </trkpt>
      <trkpt lat="42.912771" lon="-8.354388">
        <ele>272.221</ele>
        <time>2022-08-23T11:38:40Z</time>
      </trkpt>
      <trkpt lat="42.912758" lon="-8.354449">
        <ele>271.973</ele>
        <time>2022-08-23T11:38:44Z</time>
      </trkpt>
      <trkpt lat="42.912747" lon="-8.354515">
        <ele>271.685</ele>
        <time>2022-08-23T11:38:48Z</time>
      </trkpt>
      <trkpt lat="42.912724" lon="-8.354590">
        <ele>271.213</ele>
        <time>2022-08-23T11:38:52Z</time>
      </trkpt>
      <trkpt lat="42.912715" lon="-8.354651">
        <ele>270.809</ele>
        <time>2022-08-23T11:38:56Z</time>
      </trkpt>
      <trkpt lat="42.912700" lon="-8.354724">
        <ele>270.438</ele>
        <time>2022-08-23T11:39:00Z</time>
      </trkpt>
      <trkpt lat="42.912682" lon="-8.354788">
        <ele>270.158</ele>
        <time>2022-08-23T11:39:04Z</time>
      </trkpt>
      <trkpt lat="42.912671" lon="-8.354853">
        <ele>269.968</ele>
        <time>2022-08-23T11:39:08Z</time>
      </trkpt>
      <trkpt lat="42.912659" lon="-8.354917">
        <ele>269.642</ele>
        <time>2022-08-23T11:39:12Z</time>
      </trkpt>
      <trkpt lat="42.912636" lon="-8.354988">
        <ele>269.312</ele>
        <time>2022-08-23T11:39:16Z</time>
      </trkpt>
      <trkpt lat="42.912609" lon="-8.355061">
        <ele>269.023</ele>
        <time>2022-08-23T11:39:20Z</time>
      </trkpt>
      <trkpt lat="42.912588" lon="-8.355131">
        <ele>268.761</ele>
        <time>2022-08-23T11:39:24Z</time>
      </trkpt>
      <trkpt lat="42.912564" lon="-8.355204">
        <ele>268.344</ele>
        <time>2022-08-23T11:39:28Z</time>
      </trkpt>
      <trkpt lat="42.912542" lon="-8.355275">
        <ele>267.879</ele>
        <time>2022-08-23T11:39:32Z</time>
      </trkpt>
      <trkpt lat="42.912512" lon="-8.355338">
        <ele>267.527</ele>
        <time>2022-08-23T11:39:36Z</time>
      </trkpt>
      <trkpt lat="42.912496" lon="-8.355403">
        <ele>267.368</ele>
        <time>2022-08-23T11:39:40Z</time>
      </trkpt>
      <trkpt lat="42.912480" lon="-8.355466">
        <ele>267.114</ele>
        <time>2022-08-23T11:39:44Z</time>
      </trkpt>
      <trkpt lat="42.912475" lon="-8.355535">
        <ele>267.009</ele>
        <time>2022-08-23T11:39:48Z</time>
      </trkpt>
      <trkpt lat="42.912472" lon="-8.355607">
        <ele>266.833</ele>
        <time>2022-08-23T11:39:52Z</time>
      </trkpt>
      <trkpt lat="42.912473" lon="-8.355681">
        <ele>266.573</ele>
        <time>2022-08-23T11:39:56Z</time>
      </trkpt>
      <trkpt lat="42.912473" lon="-8.355744">
        <ele>266.173</ele>
        <time>2022-08-23T11:40:00Z</time>
      </trkpt>
      <trkpt lat="42.912472" lon="-8.355809">
        <ele>265.697</ele>
        <time>2022-08-23T11:40:04Z</time>
      </trkpt>
      <trkpt lat="42.912470" lon="-8.355882">
        <ele>265.087</ele>
        <time>2022-08-23T11:40:09Z</time>
      </trkpt>
      <trkpt lat="42.912468" lon="-8.355945">
        <ele>264.528</ele>
        <time>2022-08-23T11:40:13Z</time>
      </trkpt>
      <trkpt lat="42.912471" lon="-8.356007">
        <ele>264.036</ele>
        <time>2022-08-23T11:40:17Z</time>
      </trkpt>
      <trkpt lat="42.912473" lon="-8.356080">
        <ele>263.599</ele>
        <time>2022-08-23T11:40:22Z</time>
      </trkpt>
      <trkpt lat="42.912472" lon="-8.356142">
        <ele>263.164</ele>
        <time>2022-08-23T11:40:26Z</time>
      </trkpt>
      <trkpt lat="42.912478" lon="-8.356219">
        <ele>262.667</ele>
        <time>2022-08-23T11:40:31Z</time>
      </trkpt>
      <trkpt lat="42.912477" lon="-8.356285">
        <ele>262.181</ele>
        <time>2022-08-23T11:40:35Z</time>
      </trkpt>
      <trkpt lat="42.912474" lon="-8.356353">
        <ele>261.619</ele>
        <time>2022-08-23T11:40:39Z</time>
      </trkpt>
      <trkpt lat="42.912467" lon="-8.356424">
        <ele>261.009</ele>
        <time>2022-08-23T11:40:44Z</time>
      </trkpt>
      <trkpt lat="42.912469" lon="-8.356492">
        <ele>260.567</ele>
        <time>2022-08-23T11:40:49Z</time>
      </trkpt>
      <trkpt lat="42.912478" lon="-8.356552">
        <ele>260.267</ele>
        <time>2022-08-23T11:40:52Z</time>
      </trkpt>
      <trkpt lat="42.912479" lon="-8.356626">
        <ele>260.027</ele>
        <time>2022-08-23T11:40:57Z</time>
      </trkpt>
      <trkpt lat="42.912467" lon="-8.356688">
        <ele>260.031</ele>
        <time>2022-08-23T11:41:01Z</time>
      </trkpt>
      <trkpt lat="42.912465" lon="-8.356754">
        <ele>260.031</ele>
        <time>2022-08-23T11:41:05Z</time>
      </trkpt>
      <trkpt lat="42.912465" lon="-8.356817">
        <ele>260.122</ele>
        <time>2022-08-23T11:41:09Z</time>
      </trkpt>
      <trkpt lat="42.912439" lon="-8.356885">
        <ele>260.360</ele>
        <time>2022-08-23T11:41:14Z</time>
      </trkpt>
      <trkpt lat="42.912419" lon="-8.356949">
        <ele>260.373</ele>
        <time>2022-08-23T11:41:18Z</time>
      </trkpt>
      <trkpt lat="42.912411" lon="-8.357012">
        <ele>260.468</ele>
        <time>2022-08-23T11:41:22Z</time>
      </trkpt>
      <trkpt lat="42.912384" lon="-8.357082">
        <ele>260.883</ele>
        <time>2022-08-23T11:41:26Z</time>
      </trkpt>
      <trkpt lat="42.912355" lon="-8.357143">
        <ele>261.325</ele>
        <time>2022-08-23T11:41:29Z</time>
      </trkpt>
      <trkpt lat="42.912334" lon="-8.357210">
        <ele>261.817</ele>
        <time>2022-08-23T11:41:33Z</time>
      </trkpt>
      <trkpt lat="42.912311" lon="-8.357268">
        <ele>262.309</ele>
        <time>2022-08-23T11:41:36Z</time>
      </trkpt>
      <trkpt lat="42.912279" lon="-8.357315">
        <ele>262.869</ele>
        <time>2022-08-23T11:41:39Z</time>
      </trkpt>
      <trkpt lat="42.912237" lon="-8.357344">
        <ele>263.349</ele>
        <time>2022-08-23T11:41:43Z</time>
      </trkpt>
      <trkpt lat="42.912188" lon="-8.357375">
        <ele>263.749</ele>
        <time>2022-08-23T11:41:48Z</time>
      </trkpt>
      <trkpt lat="42.912135" lon="-8.357403">
        <ele>264.153</ele>
        <time>2022-08-23T11:41:55Z</time>
      </trkpt>
      <trkpt lat="42.912084" lon="-8.357405">
        <ele>264.463</ele>
        <time>2022-08-23T11:41:58Z</time>
      </trkpt>
      <trkpt lat="42.912035" lon="-8.357437">
        <ele>264.534</ele>
        <time>2022-08-23T11:42:02Z</time>
      </trkpt>
      <trkpt lat="42.911990" lon="-8.357446">
        <ele>264.532</ele>
        <time>2022-08-23T11:42:06Z</time>
      </trkpt>
      <trkpt lat="42.912003" lon="-8.357512">
        <ele>264.535</ele>
        <time>2022-08-23T11:42:15Z</time>
      </trkpt>
      <trkpt lat="42.912008" lon="-8.357594">
        <ele>264.510</ele>
        <time>2022-08-23T11:42:19Z</time>
      </trkpt>
      <trkpt lat="42.912007" lon="-8.357657">
        <ele>264.565</ele>
        <time>2022-08-23T11:42:23Z</time>
      </trkpt>
      <trkpt lat="42.911999" lon="-8.357729">
        <ele>264.568</ele>
        <time>2022-08-23T11:42:27Z</time>
      </trkpt>
      <trkpt lat="42.911977" lon="-8.357785">
        <ele>264.714</ele>
        <time>2022-08-23T11:42:31Z</time>
      </trkpt>
      <trkpt lat="42.911944" lon="-8.357837">
        <ele>264.909</ele>
        <time>2022-08-23T11:42:35Z</time>
      </trkpt>
      <trkpt lat="42.911903" lon="-8.357893">
        <ele>264.987</ele>
        <time>2022-08-23T11:42:41Z</time>
      </trkpt>
      <trkpt lat="42.911868" lon="-8.357946">
        <ele>265.297</ele>
        <time>2022-08-23T11:42:46Z</time>
      </trkpt>
      <trkpt lat="42.911818" lon="-8.357996">
        <ele>265.837</ele>
        <time>2022-08-23T11:42:51Z</time>
      </trkpt>
      <trkpt lat="42.911781" lon="-8.358042">
        <ele>266.211</ele>
        <time>2022-08-23T11:42:56Z</time>
      </trkpt>
      <trkpt lat="42.911743" lon="-8.358089">
        <ele>266.691</ele>
        <time>2022-08-23T11:43:01Z</time>
      </trkpt>
      <trkpt lat="42.911714" lon="-8.358139">
        <ele>266.772</ele>
        <time>2022-08-23T11:43:05Z</time>
      </trkpt>
      <trkpt lat="42.911673" lon="-8.358183">
        <ele>267.020</ele>
        <time>2022-08-23T11:43:09Z</time>
      </trkpt>
      <trkpt lat="42.911635" lon="-8.358230">
        <ele>267.223</ele>
        <time>2022-08-23T11:43:14Z</time>
      </trkpt>
      <trkpt lat="42.911607" lon="-8.358286">
        <ele>267.428</ele>
        <time>2022-08-23T11:43:18Z</time>
      </trkpt>
      <trkpt lat="42.911574" lon="-8.358336">
        <ele>267.739</ele>
        <time>2022-08-23T11:43:22Z</time>
      </trkpt>
      <trkpt lat="42.911552" lon="-8.358399">
        <ele>268.001</ele>
        <time>2022-08-23T11:43:26Z</time>
      </trkpt>
      <trkpt lat="42.911518" lon="-8.358466">
        <ele>268.421</ele>
        <time>2022-08-23T11:43:31Z</time>
      </trkpt>
      <trkpt lat="42.911478" lon="-8.358518">
        <ele>268.709</ele>
        <time>2022-08-23T11:43:35Z</time>
      </trkpt>
      <trkpt lat="42.911441" lon="-8.358570">
        <ele>269.074</ele>
        <time>2022-08-23T11:43:39Z</time>
      </trkpt>
      <trkpt lat="42.911403" lon="-8.358605">
        <ele>269.284</ele>
        <time>2022-08-23T11:43:43Z</time>
      </trkpt>
      <trkpt lat="42.911383" lon="-8.358663">
        <ele>269.284</ele>
        <time>2022-08-23T11:43:46Z</time>
      </trkpt>
      <trkpt lat="42.911349" lon="-8.358735">
        <ele>269.288</ele>
        <time>2022-08-23T11:43:50Z</time>
      </trkpt>
      <trkpt lat="42.911325" lon="-8.358803">
        <ele>269.328</ele>
        <time>2022-08-23T11:43:54Z</time>
      </trkpt>
      <trkpt lat="42.911299" lon="-8.358868">
        <ele>269.439</ele>
        <time>2022-08-23T11:43:58Z</time>
      </trkpt>
      <trkpt lat="42.911275" lon="-8.358930">
        <ele>269.477</ele>
        <time>2022-08-23T11:44:02Z</time>
      </trkpt>
      <trkpt lat="42.911231" lon="-8.358980">
        <ele>269.460</ele>
        <time>2022-08-23T11:44:07Z</time>
      </trkpt>
      <trkpt lat="42.911199" lon="-8.359024">
        <ele>269.575</ele>
        <time>2022-08-23T11:44:10Z</time>
      </trkpt>
      <trkpt lat="42.911168" lon="-8.359090">
        <ele>269.741</ele>
        <time>2022-08-23T11:44:14Z</time>
      </trkpt>
      <trkpt lat="42.911136" lon="-8.359139">
        <ele>270.081</ele>
        <time>2022-08-23T11:44:18Z</time>
      </trkpt>
      <trkpt lat="42.911113" lon="-8.359200">
        <ele>270.109</ele>
        <time>2022-08-23T11:44:22Z</time>
      </trkpt>
      <trkpt lat="42.911085" lon="-8.359256">
        <ele>270.209</ele>
        <time>2022-08-23T11:44:26Z</time>
      </trkpt>
      <trkpt lat="42.911059" lon="-8.359328">
        <ele>270.455</ele>
        <time>2022-08-23T11:44:31Z</time>
      </trkpt>
      <trkpt lat="42.911038" lon="-8.359384">
        <ele>270.635</ele>
        <time>2022-08-23T11:44:35Z</time>
      </trkpt>
      <trkpt lat="42.911013" lon="-8.359449">
        <ele>270.875</ele>
        <time>2022-08-23T11:44:39Z</time>
      </trkpt>
      <trkpt lat="42.910971" lon="-8.359492">
        <ele>271.039</ele>
        <time>2022-08-23T11:44:44Z</time>
      </trkpt>
      <trkpt lat="42.910939" lon="-8.359551">
        <ele>271.299</ele>
        <time>2022-08-23T11:44:49Z</time>
      </trkpt>
      <trkpt lat="42.910912" lon="-8.359607">
        <ele>271.490</ele>
        <time>2022-08-23T11:44:53Z</time>
      </trkpt>
      <trkpt lat="42.910878" lon="-8.359653">
        <ele>271.628</ele>
        <time>2022-08-23T11:44:57Z</time>
      </trkpt>
      <trkpt lat="42.910842" lon="-8.359712">
        <ele>271.891</ele>
        <time>2022-08-23T11:45:02Z</time>
      </trkpt>
      <trkpt lat="42.910800" lon="-8.359755">
        <ele>272.036</ele>
        <time>2022-08-23T11:45:06Z</time>
      </trkpt>
      <trkpt lat="42.910761" lon="-8.359794">
        <ele>272.215</ele>
        <time>2022-08-23T11:45:10Z</time>
      </trkpt>
      <trkpt lat="42.910729" lon="-8.359846">
        <ele>272.465</ele>
        <time>2022-08-23T11:45:15Z</time>
      </trkpt>
      <trkpt lat="42.910712" lon="-8.359907">
        <ele>272.611</ele>
        <time>2022-08-23T11:45:19Z</time>
      </trkpt>
      <trkpt lat="42.910673" lon="-8.359949">
        <ele>272.809</ele>
        <time>2022-08-23T11:45:25Z</time>
      </trkpt>
      <trkpt lat="42.910603" lon="-8.359979">
        <ele>272.922</ele>
        <time>2022-08-23T11:45:44Z</time>
      </trkpt>
      <trkpt lat="42.910573" lon="-8.360053">
        <ele>273.512</ele>
        <time>2022-08-23T11:45:53Z</time>
      </trkpt>
      <trkpt lat="42.910548" lon="-8.360116">
        <ele>273.612</ele>
        <time>2022-08-23T11:45:58Z</time>
      </trkpt>
      <trkpt lat="42.910508" lon="-8.360155">
        <ele>273.826</ele>
        <time>2022-08-23T11:46:03Z</time>
      </trkpt>
      <trkpt lat="42.910493" lon="-8.360227">
        <ele>273.816</ele>
        <time>2022-08-23T11:46:07Z</time>
      </trkpt>
      <trkpt lat="42.910483" lon="-8.360302">
        <ele>273.717</ele>
        <time>2022-08-23T11:46:11Z</time>
      </trkpt>
      <trkpt lat="42.910465" lon="-8.360366">
        <ele>273.765</ele>
        <time>2022-08-23T11:46:14Z</time>
      </trkpt>
      <trkpt lat="42.910443" lon="-8.360432">
        <ele>273.728</ele>
        <time>2022-08-23T11:46:18Z</time>
      </trkpt>
      <trkpt lat="42.910431" lon="-8.360502">
        <ele>273.783</ele>
        <time>2022-08-23T11:46:22Z</time>
      </trkpt>
      <trkpt lat="42.910421" lon="-8.360564">
        <ele>273.815</ele>
        <time>2022-08-23T11:46:26Z</time>
      </trkpt>
      <trkpt lat="42.910399" lon="-8.360636">
        <ele>274.165</ele>
        <time>2022-08-23T11:46:31Z</time>
      </trkpt>
      <trkpt lat="42.910371" lon="-8.360689">
        <ele>274.511</ele>
        <time>2022-08-23T11:46:35Z</time>
      </trkpt>
      <trkpt lat="42.910332" lon="-8.360735">
        <ele>275.109</ele>
        <time>2022-08-23T11:46:38Z</time>
      </trkpt>
      <trkpt lat="42.910291" lon="-8.360780">
        <ele>275.722</ele>
        <time>2022-08-23T11:46:41Z</time>
      </trkpt>
      <trkpt lat="42.910261" lon="-8.360849">
        <ele>275.922</ele>
        <time>2022-08-23T11:46:45Z</time>
      </trkpt>
      <trkpt lat="42.910223" lon="-8.360893">
        <ele>276.072</ele>
        <time>2022-08-23T11:46:48Z</time>
      </trkpt>
      <trkpt lat="42.910197" lon="-8.360943">
        <ele>276.166</ele>
        <time>2022-08-23T11:46:51Z</time>
      </trkpt>
      <trkpt lat="42.910163" lon="-8.360985">
        <ele>276.276</ele>
        <time>2022-08-23T11:46:54Z</time>
      </trkpt>
      <trkpt lat="42.910145" lon="-8.361041">
        <ele>276.397</ele>
        <time>2022-08-23T11:46:59Z</time>
      </trkpt>
      <trkpt lat="42.910121" lon="-8.361096">
        <ele>276.525</ele>
        <time>2022-08-23T11:47:03Z</time>
      </trkpt>
      <trkpt lat="42.910100" lon="-8.361161">
        <ele>276.778</ele>
        <time>2022-08-23T11:47:07Z</time>
      </trkpt>
      <trkpt lat="42.910076" lon="-8.361230">
        <ele>277.083</ele>
        <time>2022-08-23T11:47:12Z</time>
      </trkpt>
      <trkpt lat="42.910053" lon="-8.361292">
        <ele>277.146</ele>
        <time>2022-08-23T11:47:16Z</time>
      </trkpt>
      <trkpt lat="42.910046" lon="-8.361353">
        <ele>277.288</ele>
        <time>2022-08-23T11:47:20Z</time>
      </trkpt>
      <trkpt lat="42.910032" lon="-8.361429">
        <ele>277.516</ele>
        <time>2022-08-23T11:47:25Z</time>
      </trkpt>
      <trkpt lat="42.910021" lon="-8.361499">
        <ele>277.809</ele>
        <time>2022-08-23T11:47:29Z</time>
      </trkpt>
      <trkpt lat="42.910015" lon="-8.361565">
        <ele>278.285</ele>
        <time>2022-08-23T11:47:34Z</time>
      </trkpt>
      <trkpt lat="42.910020" lon="-8.361634">
        <ele>278.755</ele>
        <time>2022-08-23T11:47:39Z</time>
      </trkpt>
      <trkpt lat="42.910007" lon="-8.361698">
        <ele>279.525</ele>
        <time>2022-08-23T11:47:43Z</time>
      </trkpt>
      <trkpt lat="42.909985" lon="-8.361757">
        <ele>280.539</ele>
        <time>2022-08-23T11:47:48Z</time>
      </trkpt>
      <trkpt lat="42.909967" lon="-8.361817">
        <ele>281.269</ele>
        <time>2022-08-23T11:47:52Z</time>
      </trkpt>
      <trkpt lat="42.909957" lon="-8.361877">
        <ele>281.790</ele>
        <time>2022-08-23T11:47:57Z</time>
      </trkpt>
      <trkpt lat="42.909940" lon="-8.361942">
        <ele>282.068</ele>
        <time>2022-08-23T11:48:01Z</time>
      </trkpt>
      <trkpt lat="42.909926" lon="-8.362005">
        <ele>282.291</ele>
        <time>2022-08-23T11:48:05Z</time>
      </trkpt>
      <trkpt lat="42.909915" lon="-8.362078">
        <ele>282.436</ele>
        <time>2022-08-23T11:48:09Z</time>
      </trkpt>
      <trkpt lat="42.909905" lon="-8.362142">
        <ele>282.863</ele>
        <time>2022-08-23T11:48:12Z</time>
      </trkpt>
      <trkpt lat="42.909880" lon="-8.362201">
        <ele>283.244</ele>
        <time>2022-08-23T11:48:15Z</time>
      </trkpt>
      <trkpt lat="42.909854" lon="-8.362252">
        <ele>283.418</ele>
        <time>2022-08-23T11:48:19Z</time>
      </trkpt>
      <trkpt lat="42.909827" lon="-8.362305">
        <ele>283.609</ele>
        <time>2022-08-23T11:48:23Z</time>
      </trkpt>
      <trkpt lat="42.909797" lon="-8.362356">
        <ele>283.857</ele>
        <time>2022-08-23T11:48:26Z</time>
      </trkpt>
      <trkpt lat="42.909782" lon="-8.362439">
        <ele>284.077</ele>
        <time>2022-08-23T11:48:31Z</time>
      </trkpt>
      <trkpt lat="42.909771" lon="-8.362499">
        <ele>284.397</ele>
        <time>2022-08-23T11:48:36Z</time>
      </trkpt>
      <trkpt lat="42.909743" lon="-8.362550">
        <ele>284.681</ele>
        <time>2022-08-23T11:48:39Z</time>
      </trkpt>
      <trkpt lat="42.909729" lon="-8.362612">
        <ele>285.191</ele>
        <time>2022-08-23T11:48:43Z</time>
      </trkpt>
      <trkpt lat="42.909699" lon="-8.362669">
        <ele>285.582</ele>
        <time>2022-08-23T11:48:47Z</time>
      </trkpt>
      <trkpt lat="42.909670" lon="-8.362722">
        <ele>285.870</ele>
        <time>2022-08-23T11:48:50Z</time>
      </trkpt>
      <trkpt lat="42.909653" lon="-8.362790">
        <ele>286.173</ele>
        <time>2022-08-23T11:48:55Z</time>
      </trkpt>
      <trkpt lat="42.909622" lon="-8.362846">
        <ele>286.358</ele>
        <time>2022-08-23T11:48:59Z</time>
      </trkpt>
      <trkpt lat="42.909583" lon="-8.362904">
        <ele>286.645</ele>
        <time>2022-08-23T11:49:03Z</time>
      </trkpt>
      <trkpt lat="42.909543" lon="-8.362938">
        <ele>286.947</ele>
        <time>2022-08-23T11:49:08Z</time>
      </trkpt>
      <trkpt lat="42.909503" lon="-8.362974">
        <ele>287.111</ele>
        <time>2022-08-23T11:49:12Z</time>
      </trkpt>
      <trkpt lat="42.909462" lon="-8.363027">
        <ele>287.509</ele>
        <time>2022-08-23T11:49:17Z</time>
      </trkpt>
      <trkpt lat="42.909429" lon="-8.363077">
        <ele>287.935</ele>
        <time>2022-08-23T11:49:21Z</time>
      </trkpt>
      <trkpt lat="42.909408" lon="-8.363133">
        <ele>288.155</ele>
        <time>2022-08-23T11:49:24Z</time>
      </trkpt>
      <trkpt lat="42.909379" lon="-8.363193">
        <ele>288.355</ele>
        <time>2022-08-23T11:49:28Z</time>
      </trkpt>
      <trkpt lat="42.909334" lon="-8.363253">
        <ele>288.519</ele>
        <time>2022-08-23T11:49:31Z</time>
      </trkpt>
      <trkpt lat="42.909298" lon="-8.363302">
        <ele>288.729</ele>
        <time>2022-08-23T11:49:35Z</time>
      </trkpt>
      <trkpt lat="42.909272" lon="-8.363353">
        <ele>288.970</ele>
        <time>2022-08-23T11:49:38Z</time>
      </trkpt>
      <trkpt lat="42.909237" lon="-8.363398">
        <ele>289.078</ele>
        <time>2022-08-23T11:49:43Z</time>
      </trkpt>
      <trkpt lat="42.909211" lon="-8.363455">
        <ele>289.171</ele>
        <time>2022-08-23T11:49:47Z</time>
      </trkpt>
      <trkpt lat="42.909179" lon="-8.363509">
        <ele>289.336</ele>
        <time>2022-08-23T11:49:51Z</time>
      </trkpt>
      <trkpt lat="42.909150" lon="-8.363563">
        <ele>289.517</ele>
        <time>2022-08-23T11:49:55Z</time>
      </trkpt>
      <trkpt lat="42.909111" lon="-8.363615">
        <ele>289.687</ele>
        <time>2022-08-23T11:50:00Z</time>
      </trkpt>
      <trkpt lat="42.909066" lon="-8.363638">
        <ele>289.815</ele>
        <time>2022-08-23T11:50:03Z</time>
      </trkpt>
      <trkpt lat="42.909002" lon="-8.363632">
        <ele>290.009</ele>
        <time>2022-08-23T11:50:09Z</time>
      </trkpt>
      <trkpt lat="42.908947" lon="-8.363609">
        <ele>290.222</ele>
        <time>2022-08-23T11:50:14Z</time>
      </trkpt>
      <trkpt lat="42.908901" lon="-8.363545">
        <ele>290.572</ele>
        <time>2022-08-23T11:50:21Z</time>
      </trkpt>
      <trkpt lat="42.908857" lon="-8.363494">
        <ele>290.832</ele>
        <time>2022-08-23T11:50:26Z</time>
      </trkpt>
      <trkpt lat="42.908818" lon="-8.363445">
        <ele>291.216</ele>
        <time>2022-08-23T11:50:31Z</time>
      </trkpt>
      <trkpt lat="42.908789" lon="-8.363396">
        <ele>291.466</ele>
        <time>2022-08-23T11:50:35Z</time>
      </trkpt>
      <trkpt lat="42.908753" lon="-8.363334">
        <ele>291.957</ele>
        <time>2022-08-23T11:50:40Z</time>
      </trkpt>
      <trkpt lat="42.908715" lon="-8.363287">
        <ele>292.265</ele>
        <time>2022-08-23T11:50:43Z</time>
      </trkpt>
      <trkpt lat="42.908678" lon="-8.363248">
        <ele>292.788</ele>
        <time>2022-08-23T11:50:46Z</time>
      </trkpt>
      <trkpt lat="42.908630" lon="-8.363234">
        <ele>293.023</ele>
        <time>2022-08-23T11:50:50Z</time>
      </trkpt>
      <trkpt lat="42.908573" lon="-8.363248">
        <ele>293.284</ele>
        <time>2022-08-23T11:50:54Z</time>
      </trkpt>
      <trkpt lat="42.908523" lon="-8.363253">
        <ele>293.507</ele>
        <time>2022-08-23T11:50:58Z</time>
      </trkpt>
      <trkpt lat="42.908457" lon="-8.363259">
        <ele>293.717</ele>
        <time>2022-08-23T11:51:03Z</time>
      </trkpt>
      <trkpt lat="42.908403" lon="-8.363260">
        <ele>293.809</ele>
        <time>2022-08-23T11:51:08Z</time>
      </trkpt>
      <trkpt lat="42.908353" lon="-8.363269">
        <ele>293.959</ele>
        <time>2022-08-23T11:51:12Z</time>
      </trkpt>
      <trkpt lat="42.908311" lon="-8.363299">
        <ele>293.949</ele>
        <time>2022-08-23T11:51:17Z</time>
      </trkpt>
      <trkpt lat="42.908259" lon="-8.363306">
        <ele>294.169</ele>
        <time>2022-08-23T11:51:21Z</time>
      </trkpt>
      <trkpt lat="42.908207" lon="-8.363335">
        <ele>294.343</ele>
        <time>2022-08-23T11:51:27Z</time>
      </trkpt>
      <trkpt lat="42.908166" lon="-8.363363">
        <ele>294.443</ele>
        <time>2022-08-23T11:51:31Z</time>
      </trkpt>
      <trkpt lat="42.908118" lon="-8.363380">
        <ele>294.414</ele>
        <time>2022-08-23T11:51:36Z</time>
      </trkpt>
      <trkpt lat="42.908070" lon="-8.363406">
        <ele>294.462</ele>
        <time>2022-08-23T11:51:41Z</time>
      </trkpt>
      <trkpt lat="42.908015" lon="-8.363437">
        <ele>294.415</ele>
        <time>2022-08-23T11:51:46Z</time>
      </trkpt>
      <trkpt lat="42.907961" lon="-8.363461">
        <ele>294.330</ele>
        <time>2022-08-23T11:51:51Z</time>
      </trkpt>
      <trkpt lat="42.907910" lon="-8.363476">
        <ele>294.326</ele>
        <time>2022-08-23T11:51:55Z</time>
      </trkpt>
      <trkpt lat="42.907862" lon="-8.363495">
        <ele>294.247</ele>
        <time>2022-08-23T11:52:00Z</time>
      </trkpt>
      <trkpt lat="42.907818" lon="-8.363518">
        <ele>294.211</ele>
        <time>2022-08-23T11:52:04Z</time>
      </trkpt>
      <trkpt lat="42.907776" lon="-8.363540">
        <ele>294.209</ele>
        <time>2022-08-23T11:52:08Z</time>
      </trkpt>
      <trkpt lat="42.907729" lon="-8.363589">
        <ele>294.283</ele>
        <time>2022-08-23T11:52:12Z</time>
      </trkpt>
      <trkpt lat="42.907682" lon="-8.363620">
        <ele>294.283</ele>
        <time>2022-08-23T11:52:16Z</time>
      </trkpt>
      <trkpt lat="42.907636" lon="-8.363640">
        <ele>294.183</ele>
        <time>2022-08-23T11:52:20Z</time>
      </trkpt>
      <trkpt lat="42.907588" lon="-8.363657">
        <ele>294.127</ele>
        <time>2022-08-23T11:52:24Z</time>
      </trkpt>
      <trkpt lat="42.907543" lon="-8.363673">
        <ele>294.127</ele>
        <time>2022-08-23T11:52:29Z</time>
      </trkpt>
      <trkpt lat="42.907493" lon="-8.363699">
        <ele>293.818</ele>
        <time>2022-08-23T11:52:33Z</time>
      </trkpt>
      <trkpt lat="42.907469" lon="-8.363755">
        <ele>293.486</ele>
        <time>2022-08-23T11:52:37Z</time>
      </trkpt>
      <trkpt lat="42.907433" lon="-8.363793">
        <ele>293.219</ele>
        <time>2022-08-23T11:52:42Z</time>
      </trkpt>
      <trkpt lat="42.907394" lon="-8.363826">
        <ele>293.064</ele>
        <time>2022-08-23T11:52:46Z</time>
      </trkpt>
      <trkpt lat="42.907363" lon="-8.363870">
        <ele>292.854</ele>
        <time>2022-08-23T11:52:49Z</time>
      </trkpt>
      <trkpt lat="42.907325" lon="-8.363908">
        <ele>292.656</ele>
        <time>2022-08-23T11:52:53Z</time>
      </trkpt>
      <trkpt lat="42.907281" lon="-8.363960">
        <ele>292.311</ele>
        <time>2022-08-23T11:52:58Z</time>
      </trkpt>
      <trkpt lat="42.907229" lon="-8.363985">
        <ele>291.909</ele>
        <time>2022-08-23T11:53:02Z</time>
      </trkpt>
      <trkpt lat="42.907178" lon="-8.363971">
        <ele>291.566</ele>
        <time>2022-08-23T11:53:05Z</time>
      </trkpt>
      <trkpt lat="42.907119" lon="-8.363967">
        <ele>291.396</ele>
        <time>2022-08-23T11:53:09Z</time>
      </trkpt>
      <trkpt lat="42.907072" lon="-8.363948">
        <ele>291.386</ele>
        <time>2022-08-23T11:53:13Z</time>
      </trkpt>
      <trkpt lat="42.907017" lon="-8.363933">
        <ele>291.580</ele>
        <time>2022-08-23T11:53:17Z</time>
      </trkpt>
      <trkpt lat="42.906971" lon="-8.363909">
        <ele>291.740</ele>
        <time>2022-08-23T11:53:21Z</time>
      </trkpt>
      <trkpt lat="42.906923" lon="-8.363875">
        <ele>291.931</ele>
        <time>2022-08-23T11:53:26Z</time>
      </trkpt>
      <trkpt lat="42.906874" lon="-8.363853">
        <ele>292.019</ele>
        <time>2022-08-23T11:53:29Z</time>
      </trkpt>
      <trkpt lat="42.906827" lon="-8.363836">
        <ele>292.032</ele>
        <time>2022-08-23T11:53:34Z</time>
      </trkpt>
      <trkpt lat="42.906782" lon="-8.363823">
        <ele>292.047</ele>
        <time>2022-08-23T11:53:38Z</time>
      </trkpt>
      <trkpt lat="42.906735" lon="-8.363803">
        <ele>292.174</ele>
        <time>2022-08-23T11:53:42Z</time>
      </trkpt>
      <trkpt lat="42.906688" lon="-8.363783">
        <ele>292.256</ele>
        <time>2022-08-23T11:53:46Z</time>
      </trkpt>
      <trkpt lat="42.906633" lon="-8.363768">
        <ele>292.221</ele>
        <time>2022-08-23T11:53:50Z</time>
      </trkpt>
      <trkpt lat="42.906589" lon="-8.363754">
        <ele>292.409</ele>
        <time>2022-08-23T11:53:54Z</time>
      </trkpt>
      <trkpt lat="42.906543" lon="-8.363729">
        <ele>292.638</ele>
        <time>2022-08-23T11:53:58Z</time>
      </trkpt>
      <trkpt lat="42.906497" lon="-8.363696">
        <ele>292.998</ele>
        <time>2022-08-23T11:54:02Z</time>
      </trkpt>
      <trkpt lat="42.906444" lon="-8.363667">
        <ele>293.018</ele>
        <time>2022-08-23T11:54:07Z</time>
      </trkpt>
      <trkpt lat="42.906397" lon="-8.363640">
        <ele>293.142</ele>
        <time>2022-08-23T11:54:11Z</time>
      </trkpt>
      <trkpt lat="42.906356" lon="-8.363603">
        <ele>293.352</ele>
        <time>2022-08-23T11:54:15Z</time>
      </trkpt>
      <trkpt lat="42.906305" lon="-8.363583">
        <ele>293.593</ele>
        <time>2022-08-23T11:54:20Z</time>
      </trkpt>
      <trkpt lat="42.906260" lon="-8.363561">
        <ele>293.791</ele>
        <time>2022-08-23T11:54:24Z</time>
      </trkpt>
      <trkpt lat="42.906215" lon="-8.363537">
        <ele>293.994</ele>
        <time>2022-08-23T11:54:28Z</time>
      </trkpt>
      <trkpt lat="42.906169" lon="-8.363514">
        <ele>294.059</ele>
        <time>2022-08-23T11:54:32Z</time>
      </trkpt>
      <trkpt lat="42.906114" lon="-8.363503">
        <ele>294.054</ele>
        <time>2022-08-23T11:54:36Z</time>
      </trkpt>
      <trkpt lat="42.906070" lon="-8.363489">
        <ele>294.156</ele>
        <time>2022-08-23T11:54:39Z</time>
      </trkpt>
      <trkpt lat="42.906016" lon="-8.363474">
        <ele>294.211</ele>
        <time>2022-08-23T11:54:44Z</time>
      </trkpt>
      <trkpt lat="42.905971" lon="-8.363444">
        <ele>294.209</ele>
        <time>2022-08-23T11:54:48Z</time>
      </trkpt>
      <trkpt lat="42.905918" lon="-8.363413">
        <ele>294.286</ele>
        <time>2022-08-23T11:54:53Z</time>
      </trkpt>
      <trkpt lat="42.905873" lon="-8.363362">
        <ele>294.316</ele>
        <time>2022-08-23T11:54:58Z</time>
      </trkpt>
      <trkpt lat="42.905826" lon="-8.363326">
        <ele>294.436</ele>
        <time>2022-08-23T11:55:02Z</time>
      </trkpt>
      <trkpt lat="42.905787" lon="-8.363292">
        <ele>294.630</ele>
        <time>2022-08-23T11:55:06Z</time>
      </trkpt>
      <trkpt lat="42.905739" lon="-8.363276">
        <ele>294.890</ele>
        <time>2022-08-23T11:55:11Z</time>
      </trkpt>
      <trkpt lat="42.905690" lon="-8.363257">
        <ele>294.951</ele>
        <time>2022-08-23T11:55:16Z</time>
      </trkpt>
      <trkpt lat="42.905643" lon="-8.363250">
        <ele>294.989</ele>
        <time>2022-08-23T11:55:21Z</time>
      </trkpt>
      <trkpt lat="42.905593" lon="-8.363213">
        <ele>294.972</ele>
        <time>2022-08-23T11:55:26Z</time>
      </trkpt>
      <trkpt lat="42.905552" lon="-8.363188">
        <ele>294.957</ele>
        <time>2022-08-23T11:55:30Z</time>
      </trkpt>
      <trkpt lat="42.905506" lon="-8.363183">
        <ele>294.947</ele>
        <time>2022-08-23T11:55:33Z</time>
      </trkpt>
      <trkpt lat="42.905457" lon="-8.363161">
        <ele>294.829</ele>
        <time>2022-08-23T11:55:37Z</time>
      </trkpt>
      <trkpt lat="42.905408" lon="-8.363136">
        <ele>294.721</ele>
        <time>2022-08-23T11:55:41Z</time>
      </trkpt>
      <trkpt lat="42.905373" lon="-8.363097">
        <ele>294.709</ele>
        <time>2022-08-23T11:55:49Z</time>
      </trkpt>
      <trkpt lat="42.905185" lon="-8.363066">
        <ele>287.565</ele>
        <time>2022-08-24T05:08:28Z</time>
      </trkpt>
      <trkpt lat="42.905229" lon="-8.363083">
        <ele>289.268</ele>
        <time>2022-08-24T05:08:33Z</time>
      </trkpt>
      <trkpt lat="42.905276" lon="-8.363097">
        <ele>290.914</ele>
        <time>2022-08-24T05:08:39Z</time>
      </trkpt>
      <trkpt lat="42.905330" lon="-8.363122">
        <ele>291.009</ele>
        <time>2022-08-24T05:08:43Z</time>
      </trkpt>
      <trkpt lat="42.905381" lon="-8.363101">
        <ele>291.147</ele>
        <time>2022-08-24T05:08:52Z</time>
      </trkpt>
      <trkpt lat="42.905429" lon="-8.363099">
        <ele>291.277</ele>
        <time>2022-08-24T05:08:55Z</time>
      </trkpt>
      <trkpt lat="42.905470" lon="-8.363130">
        <ele>291.537</ele>
        <time>2022-08-24T05:08:59Z</time>
      </trkpt>
      <trkpt lat="42.905502" lon="-8.363175">
        <ele>291.782</ele>
        <time>2022-08-24T05:09:04Z</time>
      </trkpt>
      <trkpt lat="42.905551" lon="-8.363199">
        <ele>291.720</ele>
        <time>2022-08-24T05:09:09Z</time>
      </trkpt>
      <trkpt lat="42.905608" lon="-8.363221">
        <ele>291.880</ele>
        <time>2022-08-24T05:09:14Z</time>
      </trkpt>
      <trkpt lat="42.905661" lon="-8.363242">
        <ele>292.054</ele>
        <time>2022-08-24T05:09:17Z</time>
      </trkpt>
      <trkpt lat="42.905712" lon="-8.363270">
        <ele>292.289</ele>
        <time>2022-08-24T05:09:21Z</time>
      </trkpt>
      <trkpt lat="42.905764" lon="-8.363290">
        <ele>292.463</ele>
        <time>2022-08-24T05:09:26Z</time>
      </trkpt>
      <trkpt lat="42.905791" lon="-8.363340">
        <ele>292.415</ele>
        <time>2022-08-24T05:09:29Z</time>
      </trkpt>
      <trkpt lat="42.905832" lon="-8.363391">
        <ele>292.465</ele>
        <time>2022-08-24T05:09:35Z</time>
      </trkpt>
      <trkpt lat="42.905876" lon="-8.363420">
        <ele>292.411</ele>
        <time>2022-08-24T05:09:40Z</time>
      </trkpt>
      <trkpt lat="42.905924" lon="-8.363425">
        <ele>292.309</ele>
        <time>2022-08-24T05:09:47Z</time>
      </trkpt>
      <trkpt lat="42.905977" lon="-8.363433">
        <ele>292.242</ele>
        <time>2022-08-24T05:09:52Z</time>
      </trkpt>
      <trkpt lat="42.906021" lon="-8.363464">
        <ele>292.242</ele>
        <time>2022-08-24T05:09:57Z</time>
      </trkpt>
      <trkpt lat="42.906066" lon="-8.363485">
        <ele>292.162</ele>
        <time>2022-08-24T05:10:01Z</time>
      </trkpt>
      <trkpt lat="42.906126" lon="-8.363496">
        <ele>292.047</ele>
        <time>2022-08-24T05:10:07Z</time>
      </trkpt>
      <trkpt lat="42.906173" lon="-8.363518">
        <ele>291.915</ele>
        <time>2022-08-24T05:10:11Z</time>
      </trkpt>
      <trkpt lat="42.906220" lon="-8.363549">
        <ele>291.895</ele>
        <time>2022-08-24T05:10:15Z</time>
      </trkpt>
      <trkpt lat="42.906269" lon="-8.363570">
        <ele>291.729</ele>
        <time>2022-08-24T05:10:18Z</time>
      </trkpt>
      <trkpt lat="42.906311" lon="-8.363597">
        <ele>291.734</ele>
        <time>2022-08-24T05:10:21Z</time>
      </trkpt>
      <trkpt lat="42.906361" lon="-8.363611">
        <ele>291.728</ele>
        <time>2022-08-24T05:10:25Z</time>
      </trkpt>
      <trkpt lat="42.906403" lon="-8.363649">
        <ele>291.755</ele>
        <time>2022-08-24T05:10:29Z</time>
      </trkpt>
      <trkpt lat="42.906442" lon="-8.363680">
        <ele>291.707</ele>
        <time>2022-08-24T05:10:33Z</time>
      </trkpt>
      <trkpt lat="42.906486" lon="-8.363717">
        <ele>291.617</ele>
        <time>2022-08-24T05:10:37Z</time>
      </trkpt>
      <trkpt lat="42.906534" lon="-8.363742">
        <ele>291.409</ele>
        <time>2022-08-24T05:10:41Z</time>
      </trkpt>
      <trkpt lat="42.906583" lon="-8.363754">
        <ele>291.386</ele>
        <time>2022-08-24T05:10:45Z</time>
      </trkpt>
      <trkpt lat="42.906631" lon="-8.363780">
        <ele>291.246</ele>
        <time>2022-08-24T05:10:49Z</time>
      </trkpt>
      <trkpt lat="42.906680" lon="-8.363801">
        <ele>291.126</ele>
        <time>2022-08-24T05:10:53Z</time>
      </trkpt>
      <trkpt lat="42.906735" lon="-8.363833">
        <ele>291.021</ele>
        <time>2022-08-24T05:10:57Z</time>
      </trkpt>
      <trkpt lat="42.906782" lon="-8.363835">
        <ele>290.949</ele>
        <time>2022-08-24T05:11:00Z</time>
      </trkpt>
      <trkpt lat="42.906833" lon="-8.363864">
        <ele>290.899</ele>
        <time>2022-08-24T05:11:04Z</time>
      </trkpt>
      <trkpt lat="42.906874" lon="-8.363891">
        <ele>290.743</ele>
        <time>2022-08-24T05:11:08Z</time>
      </trkpt>
      <trkpt lat="42.906920" lon="-8.363899">
        <ele>290.618</ele>
        <time>2022-08-24T05:11:13Z</time>
      </trkpt>
      <trkpt lat="42.906968" lon="-8.363914">
        <ele>290.552</ele>
        <time>2022-08-24T05:11:19Z</time>
      </trkpt>
      <trkpt lat="42.907017" lon="-8.363928">
        <ele>290.476</ele>
        <time>2022-08-24T05:11:23Z</time>
      </trkpt>
      <trkpt lat="42.907063" lon="-8.363965">
        <ele>290.290</ele>
        <time>2022-08-24T05:11:27Z</time>
      </trkpt>
      <trkpt lat="42.907111" lon="-8.363998">
        <ele>290.019</ele>
        <time>2022-08-24T05:11:31Z</time>
      </trkpt>
      <trkpt lat="42.907157" lon="-8.364026">
        <ele>289.809</ele>
        <time>2022-08-24T05:11:36Z</time>
      </trkpt>
      <trkpt lat="42.907192" lon="-8.364064">
        <ele>289.668</ele>
        <time>2022-08-24T05:11:39Z</time>
      </trkpt>
      <trkpt lat="42.907235" lon="-8.364113">
        <ele>289.458</ele>
        <time>2022-08-24T05:11:43Z</time>
      </trkpt>
      <trkpt lat="42.907279" lon="-8.364161">
        <ele>289.238</ele>
        <time>2022-08-24T05:11:48Z</time>
      </trkpt>
      <trkpt lat="42.907317" lon="-8.364203">
        <ele>289.193</ele>
        <time>2022-08-24T05:11:53Z</time>
      </trkpt>
      <trkpt lat="42.907362" lon="-8.364214">
        <ele>289.031</ele>
        <time>2022-08-24T05:11:58Z</time>
      </trkpt>
      <trkpt lat="42.907405" lon="-8.364262">
        <ele>288.941</ele>
        <time>2022-08-24T05:12:02Z</time>
      </trkpt>
      <trkpt lat="42.907447" lon="-8.364315">
        <ele>288.845</ele>
        <time>2022-08-24T05:12:06Z</time>
      </trkpt>
      <trkpt lat="42.907478" lon="-8.364382">
        <ele>288.870</ele>
        <time>2022-08-24T05:12:10Z</time>
      </trkpt>
      <trkpt lat="42.907505" lon="-8.364432">
        <ele>288.834</ele>
        <time>2022-08-24T05:12:14Z</time>
      </trkpt>
      <trkpt lat="42.907531" lon="-8.364499">
        <ele>288.748</ele>
        <time>2022-08-24T05:12:18Z</time>
      </trkpt>
      <trkpt lat="42.907570" lon="-8.364555">
        <ele>288.761</ele>
        <time>2022-08-24T05:12:22Z</time>
      </trkpt>
      <trkpt lat="42.907613" lon="-8.364596">
        <ele>288.717</ele>
        <time>2022-08-24T05:12:27Z</time>
      </trkpt>
      <trkpt lat="42.907650" lon="-8.364634">
        <ele>288.709</ele>
        <time>2022-08-24T05:12:30Z</time>
      </trkpt>
      <trkpt lat="42.907674" lon="-8.364695">
        <ele>288.785</ele>
        <time>2022-08-24T05:12:35Z</time>
      </trkpt>
      <trkpt lat="42.907713" lon="-8.364742">
        <ele>288.755</ele>
        <time>2022-08-24T05:12:40Z</time>
      </trkpt>
      <trkpt lat="42.907760" lon="-8.364786">
        <ele>288.785</ele>
        <time>2022-08-24T05:12:44Z</time>
      </trkpt>
      <trkpt lat="42.907807" lon="-8.364822">
        <ele>288.750</ele>
        <time>2022-08-24T05:12:48Z</time>
      </trkpt>
      <trkpt lat="42.907837" lon="-8.364878">
        <ele>288.748</ele>
        <time>2022-08-24T05:12:52Z</time>
      </trkpt>
      <trkpt lat="42.907864" lon="-8.364936">
        <ele>288.778</ele>
        <time>2022-08-24T05:12:57Z</time>
      </trkpt>
      <trkpt lat="42.907894" lon="-8.364987">
        <ele>288.772</ele>
        <time>2022-08-24T05:13:01Z</time>
      </trkpt>
      <trkpt lat="42.907928" lon="-8.365029">
        <ele>288.727</ele>
        <time>2022-08-24T05:13:06Z</time>
      </trkpt>
      <trkpt lat="42.907972" lon="-8.365091">
        <ele>288.761</ele>
        <time>2022-08-24T05:13:12Z</time>
      </trkpt>
      <trkpt lat="42.908004" lon="-8.365145">
        <ele>288.734</ele>
        <time>2022-08-24T05:13:16Z</time>
      </trkpt>
      <trkpt lat="42.908040" lon="-8.365189">
        <ele>288.755</ele>
        <time>2022-08-24T05:13:19Z</time>
      </trkpt>
      <trkpt lat="42.908070" lon="-8.365238">
        <ele>288.710</ele>
        <time>2022-08-24T05:13:23Z</time>
      </trkpt>
      <trkpt lat="42.908108" lon="-8.365296">
        <ele>288.709</ele>
        <time>2022-08-24T05:13:28Z</time>
      </trkpt>
      <trkpt lat="42.908152" lon="-8.365332">
        <ele>288.894</ele>
        <time>2022-08-24T05:13:32Z</time>
      </trkpt>
      <trkpt lat="42.908180" lon="-8.365389">
        <ele>288.974</ele>
        <time>2022-08-24T05:13:35Z</time>
      </trkpt>
      <trkpt lat="42.908228" lon="-8.365428">
        <ele>289.024</ele>
        <time>2022-08-24T05:13:39Z</time>
      </trkpt>
      <trkpt lat="42.908272" lon="-8.365460">
        <ele>289.219</ele>
        <time>2022-08-24T05:13:43Z</time>
      </trkpt>
      <trkpt lat="42.908312" lon="-8.365519">
        <ele>289.487</ele>
        <time>2022-08-24T05:13:47Z</time>
      </trkpt>
      <trkpt lat="42.908327" lon="-8.365578">
        <ele>289.697</ele>
        <time>2022-08-24T05:13:50Z</time>
      </trkpt>
      <trkpt lat="42.908332" lon="-8.365640">
        <ele>289.851</ele>
        <time>2022-08-24T05:13:53Z</time>
      </trkpt>
      <trkpt lat="42.908316" lon="-8.365697">
        <ele>289.956</ele>
        <time>2022-08-24T05:13:56Z</time>
      </trkpt>
      <trkpt lat="42.908295" lon="-8.365762">
        <ele>290.040</ele>
        <time>2022-08-24T05:14:00Z</time>
      </trkpt>
      <trkpt lat="42.908275" lon="-8.365825">
        <ele>290.152</ele>
        <time>2022-08-24T05:14:04Z</time>
      </trkpt>
      <trkpt lat="42.908255" lon="-8.365891">
        <ele>290.153</ele>
        <time>2022-08-24T05:14:09Z</time>
      </trkpt>
      <trkpt lat="42.908228" lon="-8.365945">
        <ele>290.108</ele>
        <time>2022-08-24T05:14:13Z</time>
      </trkpt>
      <trkpt lat="42.908199" lon="-8.365997">
        <ele>290.109</ele>
        <time>2022-08-24T05:14:18Z</time>
      </trkpt>
      <trkpt lat="42.908170" lon="-8.366065">
        <ele>290.176</ele>
        <time>2022-08-24T05:14:22Z</time>
      </trkpt>
      <trkpt lat="42.908135" lon="-8.366111">
        <ele>290.056</ele>
        <time>2022-08-24T05:14:27Z</time>
      </trkpt>
      <trkpt lat="42.908117" lon="-8.366185">
        <ele>290.066</ele>
        <time>2022-08-24T05:14:33Z</time>
      </trkpt>
      <trkpt lat="42.908107" lon="-8.366260">
        <ele>290.021</ele>
        <time>2022-08-24T05:14:37Z</time>
      </trkpt>
      <trkpt lat="42.908103" lon="-8.366333">
        <ele>290.019</ele>
        <time>2022-08-24T05:14:40Z</time>
      </trkpt>
      <trkpt lat="42.908095" lon="-8.366397">
        <ele>290.049</ele>
        <time>2022-08-24T05:14:44Z</time>
      </trkpt>
      <trkpt lat="42.908084" lon="-8.366460">
        <ele>290.093</ele>
        <time>2022-08-24T05:14:47Z</time>
      </trkpt>
      <trkpt lat="42.908062" lon="-8.366519">
        <ele>290.028</ele>
        <time>2022-08-24T05:14:51Z</time>
      </trkpt>
      <trkpt lat="42.908044" lon="-8.366580">
        <ele>290.022</ele>
        <time>2022-08-24T05:14:54Z</time>
      </trkpt>
      <trkpt lat="42.908015" lon="-8.366651">
        <ele>290.037</ele>
        <time>2022-08-24T05:14:59Z</time>
      </trkpt>
      <trkpt lat="42.907986" lon="-8.366713">
        <ele>289.949</ele>
        <time>2022-08-24T05:15:04Z</time>
      </trkpt>
      <trkpt lat="42.907958" lon="-8.366761">
        <ele>289.813</ele>
        <time>2022-08-24T05:15:08Z</time>
      </trkpt>
      <trkpt lat="42.907931" lon="-8.366817">
        <ele>289.709</ele>
        <time>2022-08-24T05:15:12Z</time>
      </trkpt>
      <trkpt lat="42.907905" lon="-8.366881">
        <ele>289.714</ele>
        <time>2022-08-24T05:15:16Z</time>
      </trkpt>
      <trkpt lat="42.907881" lon="-8.366941">
        <ele>289.754</ele>
        <time>2022-08-24T05:15:20Z</time>
      </trkpt>
      <trkpt lat="42.907861" lon="-8.366997">
        <ele>289.764</ele>
        <time>2022-08-24T05:15:23Z</time>
      </trkpt>
      <trkpt lat="42.907834" lon="-8.367059">
        <ele>289.649</ele>
        <time>2022-08-24T05:15:28Z</time>
      </trkpt>
      <trkpt lat="42.907786" lon="-8.367109">
        <ele>289.427</ele>
        <time>2022-08-24T05:15:33Z</time>
      </trkpt>
      <trkpt lat="42.907765" lon="-8.367163">
        <ele>289.267</ele>
        <time>2022-08-24T05:15:37Z</time>
      </trkpt>
      <trkpt lat="42.907755" lon="-8.367231">
        <ele>289.041</ele>
        <time>2022-08-24T05:15:41Z</time>
      </trkpt>
      <trkpt lat="42.907739" lon="-8.367291">
        <ele>288.996</ele>
        <time>2022-08-24T05:15:44Z</time>
      </trkpt>
      <trkpt lat="42.907711" lon="-8.367351">
        <ele>288.890</ele>
        <time>2022-08-24T05:15:51Z</time>
      </trkpt>
      <trkpt lat="42.907693" lon="-8.367415">
        <ele>288.773</ele>
        <time>2022-08-24T05:15:55Z</time>
      </trkpt>
      <trkpt lat="42.907673" lon="-8.367471">
        <ele>288.685</ele>
        <time>2022-08-24T05:15:58Z</time>
      </trkpt>
      <trkpt lat="42.907636" lon="-8.367518">
        <ele>288.513</ele>
        <time>2022-08-24T05:16:04Z</time>
      </trkpt>
      <trkpt lat="42.907595" lon="-8.367561">
        <ele>288.409</ele>
        <time>2022-08-24T05:16:08Z</time>
      </trkpt>
      <trkpt lat="42.907555" lon="-8.367615">
        <ele>288.388</ele>
        <time>2022-08-24T05:16:12Z</time>
      </trkpt>
      <trkpt lat="42.907529" lon="-8.367683">
        <ele>288.128</ele>
        <time>2022-08-24T05:16:16Z</time>
      </trkpt>
      <trkpt lat="42.907505" lon="-8.367749">
        <ele>288.038</ele>
        <time>2022-08-24T05:16:20Z</time>
      </trkpt>
      <trkpt lat="42.907489" lon="-8.367812">
        <ele>287.913</ele>
        <time>2022-08-24T05:16:24Z</time>
      </trkpt>
      <trkpt lat="42.907473" lon="-8.367871">
        <ele>287.851</ele>
        <time>2022-08-24T05:16:27Z</time>
      </trkpt>
      <trkpt lat="42.907449" lon="-8.367943">
        <ele>287.761</ele>
        <time>2022-08-24T05:16:31Z</time>
      </trkpt>
      <trkpt lat="42.907440" lon="-8.368013">
        <ele>287.545</ele>
        <time>2022-08-24T05:16:34Z</time>
      </trkpt>
      <trkpt lat="42.907428" lon="-8.368083">
        <ele>287.330</ele>
        <time>2022-08-24T05:16:37Z</time>
      </trkpt>
      <trkpt lat="42.907394" lon="-8.368151">
        <ele>286.994</ele>
        <time>2022-08-24T05:16:41Z</time>
      </trkpt>
      <trkpt lat="42.907372" lon="-8.368207">
        <ele>286.689</ele>
        <time>2022-08-24T05:16:45Z</time>
      </trkpt>
      <trkpt lat="42.907352" lon="-8.368275">
        <ele>286.506</ele>
        <time>2022-08-24T05:16:49Z</time>
      </trkpt>
      <trkpt lat="42.907323" lon="-8.368329">
        <ele>286.326</ele>
        <time>2022-08-24T05:16:52Z</time>
      </trkpt>
      <trkpt lat="42.907303" lon="-8.368391">
        <ele>286.209</ele>
        <time>2022-08-24T05:16:57Z</time>
      </trkpt>
      <trkpt lat="42.907286" lon="-8.368457">
        <ele>286.119</ele>
        <time>2022-08-24T05:17:00Z</time>
      </trkpt>
      <trkpt lat="42.907271" lon="-8.368521">
        <ele>286.099</ele>
        <time>2022-08-24T05:17:03Z</time>
      </trkpt>
      <trkpt lat="42.907264" lon="-8.368582">
        <ele>285.939</ele>
        <time>2022-08-24T05:17:06Z</time>
      </trkpt>
      <trkpt lat="42.907255" lon="-8.368652">
        <ele>285.994</ele>
        <time>2022-08-24T05:17:10Z</time>
      </trkpt>
      <trkpt lat="42.907248" lon="-8.368718">
        <ele>285.952</ele>
        <time>2022-08-24T05:17:14Z</time>
      </trkpt>
      <trkpt lat="42.907234" lon="-8.368785">
        <ele>285.932</ele>
        <time>2022-08-24T05:17:20Z</time>
      </trkpt>
      <trkpt lat="42.907213" lon="-8.368846">
        <ele>285.976</ele>
        <time>2022-08-24T05:17:25Z</time>
      </trkpt>
      <trkpt lat="42.907189" lon="-8.368904">
        <ele>285.971</ele>
        <time>2022-08-24T05:17:29Z</time>
      </trkpt>
      <trkpt lat="42.907164" lon="-8.368956">
        <ele>285.965</ele>
        <time>2022-08-24T05:17:32Z</time>
      </trkpt>
      <trkpt lat="42.907128" lon="-8.369029">
        <ele>285.998</ele>
        <time>2022-08-24T05:17:37Z</time>
      </trkpt>
      <trkpt lat="42.907090" lon="-8.369077">
        <ele>285.915</ele>
        <time>2022-08-24T05:17:40Z</time>
      </trkpt>
      <trkpt lat="42.907073" lon="-8.369148">
        <ele>285.926</ele>
        <time>2022-08-24T05:17:44Z</time>
      </trkpt>
      <trkpt lat="42.907040" lon="-8.369207">
        <ele>285.709</ele>
        <time>2022-08-24T05:17:47Z</time>
      </trkpt>
      <trkpt lat="42.907010" lon="-8.369253">
        <ele>285.420</ele>
        <time>2022-08-24T05:17:51Z</time>
      </trkpt>
      <trkpt lat="42.906989" lon="-8.369310">
        <ele>285.370</ele>
        <time>2022-08-24T05:17:54Z</time>
      </trkpt>
      <trkpt lat="42.906961" lon="-8.369363">
        <ele>285.140</ele>
        <time>2022-08-24T05:17:59Z</time>
      </trkpt>
      <trkpt lat="42.906934" lon="-8.369416">
        <ele>285.025</ele>
        <time>2022-08-24T05:18:03Z</time>
      </trkpt>
      <trkpt lat="42.906925" lon="-8.369480">
        <ele>284.943</ele>
        <time>2022-08-24T05:18:06Z</time>
      </trkpt>
      <trkpt lat="42.906904" lon="-8.369535">
        <ele>284.633</ele>
        <time>2022-08-24T05:18:11Z</time>
      </trkpt>
      <trkpt lat="42.906890" lon="-8.369599">
        <ele>284.297</ele>
        <time>2022-08-24T05:18:15Z</time>
      </trkpt>
      <trkpt lat="42.906866" lon="-8.369655">
        <ele>283.732</ele>
        <time>2022-08-24T05:18:18Z</time>
      </trkpt>
      <trkpt lat="42.906845" lon="-8.369713">
        <ele>283.236</ele>
        <time>2022-08-24T05:18:22Z</time>
      </trkpt>
      <trkpt lat="42.906820" lon="-8.369775">
        <ele>282.878</ele>
        <time>2022-08-24T05:18:25Z</time>
      </trkpt>
      <trkpt lat="42.906790" lon="-8.369824">
        <ele>282.533</ele>
        <time>2022-08-24T05:18:29Z</time>
      </trkpt>
      <trkpt lat="42.906760" lon="-8.369871">
        <ele>282.326</ele>
        <time>2022-08-24T05:18:32Z</time>
      </trkpt>
      <trkpt lat="42.906738" lon="-8.369930">
        <ele>282.109</ele>
        <time>2022-08-24T05:18:37Z</time>
      </trkpt>
      <trkpt lat="42.906707" lon="-8.369977">
        <ele>281.988</ele>
        <time>2022-08-24T05:18:40Z</time>
      </trkpt>
      <trkpt lat="42.906673" lon="-8.370053">
        <ele>281.768</ele>
        <time>2022-08-24T05:18:44Z</time>
      </trkpt>
      <trkpt lat="42.906651" lon="-8.370121">
        <ele>281.458</ele>
        <time>2022-08-24T05:18:47Z</time>
      </trkpt>
      <trkpt lat="42.906615" lon="-8.370190">
        <ele>280.993</ele>
        <time>2022-08-24T05:18:51Z</time>
      </trkpt>
      <trkpt lat="42.906588" lon="-8.370248">
        <ele>280.671</ele>
        <time>2022-08-24T05:18:54Z</time>
      </trkpt>
      <trkpt lat="42.906558" lon="-8.370294">
        <ele>280.111</ele>
        <time>2022-08-24T05:18:58Z</time>
      </trkpt>
      <trkpt lat="42.906513" lon="-8.370332">
        <ele>279.985</ele>
        <time>2022-08-24T05:19:02Z</time>
      </trkpt>
      <trkpt lat="42.906461" lon="-8.370351">
        <ele>279.650</ele>
        <time>2022-08-24T05:19:06Z</time>
      </trkpt>
      <trkpt lat="42.906412" lon="-8.370368">
        <ele>279.474</ele>
        <time>2022-08-24T05:19:11Z</time>
      </trkpt>
      <trkpt lat="42.906369" lon="-8.370407">
        <ele>279.117</ele>
        <time>2022-08-24T05:19:14Z</time>
      </trkpt>
      <trkpt lat="42.906332" lon="-8.370465">
        <ele>278.687</ele>
        <time>2022-08-24T05:19:18Z</time>
      </trkpt>
      <trkpt lat="42.906310" lon="-8.370527">
        <ele>278.115</ele>
        <time>2022-08-24T05:19:22Z</time>
      </trkpt>
      <trkpt lat="42.906317" lon="-8.370602">
        <ele>277.709</ele>
        <time>2022-08-24T05:19:27Z</time>
      </trkpt>
      <trkpt lat="42.906345" lon="-8.370666">
        <ele>277.462</ele>
        <time>2022-08-24T05:19:31Z</time>
      </trkpt>
      <trkpt lat="42.906378" lon="-8.370715">
        <ele>277.162</ele>
        <time>2022-08-24T05:19:35Z</time>
      </trkpt>
      <trkpt lat="42.906398" lon="-8.370784">
        <ele>276.752</ele>
        <time>2022-08-24T05:19:39Z</time>
      </trkpt>
      <trkpt lat="42.906416" lon="-8.370849">
        <ele>276.317</ele>
        <time>2022-08-24T05:19:43Z</time>
      </trkpt>
      <trkpt lat="42.906443" lon="-8.370915">
        <ele>275.995</ele>
        <time>2022-08-24T05:19:47Z</time>
      </trkpt>
      <trkpt lat="42.906457" lon="-8.370976">
        <ele>275.575</ele>
        <time>2022-08-24T05:19:51Z</time>
      </trkpt>
      <trkpt lat="42.906448" lon="-8.371048">
        <ele>275.169</ele>
        <time>2022-08-24T05:19:55Z</time>
      </trkpt>
      <trkpt lat="42.906410" lon="-8.371100">
        <ele>274.714</ele>
        <time>2022-08-24T05:19:59Z</time>
      </trkpt>
      <trkpt lat="42.906383" lon="-8.371154">
        <ele>274.218</ele>
        <time>2022-08-24T05:20:03Z</time>
      </trkpt>
      <trkpt lat="42.906352" lon="-8.371202">
        <ele>273.671</ele>
        <time>2022-08-24T05:20:07Z</time>
      </trkpt>
      <trkpt lat="42.906305" lon="-8.371246">
        <ele>273.041</ele>
        <time>2022-08-24T05:20:11Z</time>
      </trkpt>
      <trkpt lat="42.906264" lon="-8.371284">
        <ele>272.415</ele>
        <time>2022-08-24T05:20:15Z</time>
      </trkpt>
      <trkpt lat="42.906223" lon="-8.371319">
        <ele>271.809</ele>
        <time>2022-08-24T05:20:19Z</time>
      </trkpt>
      <trkpt lat="42.906191" lon="-8.371363">
        <ele>271.358</ele>
        <time>2022-08-24T05:20:23Z</time>
      </trkpt>
      <trkpt lat="42.906160" lon="-8.371422">
        <ele>270.938</ele>
        <time>2022-08-24T05:20:33Z</time>
      </trkpt>
      <trkpt lat="42.906118" lon="-8.371478">
        <ele>270.618</ele>
        <time>2022-08-24T05:20:37Z</time>
      </trkpt>
      <trkpt lat="42.906078" lon="-8.371542">
        <ele>270.383</ele>
        <time>2022-08-24T05:20:42Z</time>
      </trkpt>
      <trkpt lat="42.906044" lon="-8.371589">
        <ele>270.141</ele>
        <time>2022-08-24T05:20:46Z</time>
      </trkpt>
      <trkpt lat="42.906002" lon="-8.371631">
        <ele>269.881</ele>
        <time>2022-08-24T05:20:50Z</time>
      </trkpt>
      <trkpt lat="42.905960" lon="-8.371670">
        <ele>269.645</ele>
        <time>2022-08-24T05:20:55Z</time>
      </trkpt>
      <trkpt lat="42.905918" lon="-8.371699">
        <ele>269.550</ele>
        <time>2022-08-24T05:21:00Z</time>
      </trkpt>
      <trkpt lat="42.905883" lon="-8.371748">
        <ele>269.364</ele>
        <time>2022-08-24T05:21:05Z</time>
      </trkpt>
      <trkpt lat="42.905849" lon="-8.371795">
        <ele>269.255</ele>
        <time>2022-08-24T05:21:09Z</time>
      </trkpt>
      <trkpt lat="42.905826" lon="-8.371850">
        <ele>269.107</ele>
        <time>2022-08-24T05:21:14Z</time>
      </trkpt>
      <trkpt lat="42.905828" lon="-8.371932">
        <ele>269.017</ele>
        <time>2022-08-24T05:21:19Z</time>
      </trkpt>
      <trkpt lat="42.905842" lon="-8.372004">
        <ele>269.009</ele>
        <time>2022-08-24T05:21:24Z</time>
      </trkpt>
      <trkpt lat="42.905870" lon="-8.372073">
        <ele>269.096</ele>
        <time>2022-08-24T05:21:29Z</time>
      </trkpt>
      <trkpt lat="42.905908" lon="-8.372135">
        <ele>269.086</ele>
        <time>2022-08-24T05:21:36Z</time>
      </trkpt>
      <trkpt lat="42.905936" lon="-8.372186">
        <ele>269.166</ele>
        <time>2022-08-24T05:21:40Z</time>
      </trkpt>
      <trkpt lat="42.905979" lon="-8.372234">
        <ele>269.141</ele>
        <time>2022-08-24T05:21:46Z</time>
      </trkpt>
      <trkpt lat="42.906016" lon="-8.372287">
        <ele>269.189</ele>
        <time>2022-08-24T05:21:50Z</time>
      </trkpt>
      <trkpt lat="42.906049" lon="-8.372335">
        <ele>269.269</ele>
        <time>2022-08-24T05:21:54Z</time>
      </trkpt>
      <trkpt lat="42.906070" lon="-8.372419">
        <ele>269.393</ele>
        <time>2022-08-24T05:21:58Z</time>
      </trkpt>
      <trkpt lat="42.906087" lon="-8.372477">
        <ele>269.488</ele>
        <time>2022-08-24T05:22:01Z</time>
      </trkpt>
      <trkpt lat="42.906088" lon="-8.372545">
        <ele>269.582</ele>
        <time>2022-08-24T05:22:06Z</time>
      </trkpt>
      <trkpt lat="42.906090" lon="-8.372618">
        <ele>269.625</ele>
        <time>2022-08-24T05:22:11Z</time>
      </trkpt>
      <trkpt lat="42.906084" lon="-8.372689">
        <ele>269.726</ele>
        <time>2022-08-24T05:22:15Z</time>
      </trkpt>
      <trkpt lat="42.906076" lon="-8.372755">
        <ele>269.808</ele>
        <time>2022-08-24T05:22:18Z</time>
      </trkpt>
      <trkpt lat="42.906059" lon="-8.372827">
        <ele>270.009</ele>
        <time>2022-08-24T05:22:21Z</time>
      </trkpt>
      <trkpt lat="42.906045" lon="-8.372893">
        <ele>270.193</ele>
        <time>2022-08-24T05:22:24Z</time>
      </trkpt>
      <trkpt lat="42.906045" lon="-8.372958">
        <ele>270.273</ele>
        <time>2022-08-24T05:22:28Z</time>
      </trkpt>
      <trkpt lat="42.906041" lon="-8.373030">
        <ele>270.433</ele>
        <time>2022-08-24T05:22:32Z</time>
      </trkpt>
      <trkpt lat="42.906042" lon="-8.373094">
        <ele>270.658</ele>
        <time>2022-08-24T05:22:36Z</time>
      </trkpt>
      <trkpt lat="42.906008" lon="-8.373154">
        <ele>270.836</ele>
        <time>2022-08-24T05:22:40Z</time>
      </trkpt>
      <trkpt lat="42.905972" lon="-8.373213">
        <ele>271.056</ele>
        <time>2022-08-24T05:22:44Z</time>
      </trkpt>
      <trkpt lat="42.905945" lon="-8.373283">
        <ele>271.260</ele>
        <time>2022-08-24T05:22:48Z</time>
      </trkpt>
      <trkpt lat="42.905927" lon="-8.373347">
        <ele>271.345</ele>
        <time>2022-08-24T05:22:53Z</time>
      </trkpt>
      <trkpt lat="42.905906" lon="-8.373415">
        <ele>271.699</ele>
        <time>2022-08-24T05:22:58Z</time>
      </trkpt>
      <trkpt lat="42.905880" lon="-8.373480">
        <ele>271.926</ele>
        <time>2022-08-24T05:23:02Z</time>
      </trkpt>
      <trkpt lat="42.905864" lon="-8.373543">
        <ele>272.047</ele>
        <time>2022-08-24T05:23:06Z</time>
      </trkpt>
      <trkpt lat="42.905840" lon="-8.373608">
        <ele>272.111</ele>
        <time>2022-08-24T05:23:11Z</time>
      </trkpt>
      <trkpt lat="42.905813" lon="-8.373668">
        <ele>272.209</ele>
        <time>2022-08-24T05:23:15Z</time>
      </trkpt>
      <trkpt lat="42.905787" lon="-8.373741">
        <ele>272.393</ele>
        <time>2022-08-24T05:23:19Z</time>
      </trkpt>
      <trkpt lat="42.905761" lon="-8.373806">
        <ele>272.363</ele>
        <time>2022-08-24T05:23:23Z</time>
      </trkpt>
      <trkpt lat="42.905734" lon="-8.373865">
        <ele>272.483</ele>
        <time>2022-08-24T05:23:27Z</time>
      </trkpt>
      <trkpt lat="42.905711" lon="-8.373929">
        <ele>272.528</ele>
        <time>2022-08-24T05:23:31Z</time>
      </trkpt>
      <trkpt lat="42.905676" lon="-8.373980">
        <ele>272.646</ele>
        <time>2022-08-24T05:23:34Z</time>
      </trkpt>
      <trkpt lat="42.905671" lon="-8.374049">
        <ele>272.716</ele>
        <time>2022-08-24T05:23:38Z</time>
      </trkpt>
      <trkpt lat="42.905646" lon="-8.374111">
        <ele>272.890</ele>
        <time>2022-08-24T05:23:42Z</time>
      </trkpt>
      <trkpt lat="42.905626" lon="-8.374176">
        <ele>272.855</ele>
        <time>2022-08-24T05:23:46Z</time>
      </trkpt>
      <trkpt lat="42.905609" lon="-8.374233">
        <ele>272.979</ele>
        <time>2022-08-24T05:23:49Z</time>
      </trkpt>
      <trkpt lat="42.905583" lon="-8.374297">
        <ele>273.122</ele>
        <time>2022-08-24T05:23:53Z</time>
      </trkpt>
      <trkpt lat="42.905559" lon="-8.374353">
        <ele>273.262</ele>
        <time>2022-08-24T05:23:56Z</time>
      </trkpt>
      <trkpt lat="42.905527" lon="-8.374420">
        <ele>273.308</ele>
        <time>2022-08-24T05:24:00Z</time>
      </trkpt>
      <trkpt lat="42.905492" lon="-8.374467">
        <ele>273.409</ele>
        <time>2022-08-24T05:24:03Z</time>
      </trkpt>
      <trkpt lat="42.905465" lon="-8.374516">
        <ele>273.633</ele>
        <time>2022-08-24T05:24:07Z</time>
      </trkpt>
      <trkpt lat="42.905421" lon="-8.374556">
        <ele>273.843</ele>
        <time>2022-08-24T05:24:11Z</time>
      </trkpt>
      <trkpt lat="42.905379" lon="-8.374608">
        <ele>274.233</ele>
        <time>2022-08-24T05:24:15Z</time>
      </trkpt>
      <trkpt lat="42.905338" lon="-8.374651">
        <ele>274.698</ele>
        <time>2022-08-24T05:24:19Z</time>
      </trkpt>
      <trkpt lat="42.905305" lon="-8.374714">
        <ele>274.996</ele>
        <time>2022-08-24T05:24:23Z</time>
      </trkpt>
      <trkpt lat="42.905265" lon="-8.374769">
        <ele>275.396</ele>
        <time>2022-08-24T05:24:28Z</time>
      </trkpt>
      <trkpt lat="42.905216" lon="-8.374817">
        <ele>275.510</ele>
        <time>2022-08-24T05:24:31Z</time>
      </trkpt>
      <trkpt lat="42.905169" lon="-8.374849">
        <ele>275.635</ele>
        <time>2022-08-24T05:24:35Z</time>
      </trkpt>
      <trkpt lat="42.905134" lon="-8.374903">
        <ele>275.719</ele>
        <time>2022-08-24T05:24:38Z</time>
      </trkpt>
      <trkpt lat="42.905093" lon="-8.374941">
        <ele>275.832</ele>
        <time>2022-08-24T05:24:41Z</time>
      </trkpt>
      <trkpt lat="42.905042" lon="-8.374987">
        <ele>275.992</ele>
        <time>2022-08-24T05:24:45Z</time>
      </trkpt>
      <trkpt lat="42.904999" lon="-8.375026">
        <ele>275.911</ele>
        <time>2022-08-24T05:24:48Z</time>
      </trkpt>
      <trkpt lat="42.904953" lon="-8.375062">
        <ele>276.009</ele>
        <time>2022-08-24T05:24:52Z</time>
      </trkpt>
      <trkpt lat="42.904903" lon="-8.375102">
        <ele>276.184</ele>
        <time>2022-08-24T05:24:56Z</time>
      </trkpt>
      <trkpt lat="42.904868" lon="-8.375144">
        <ele>276.154</ele>
        <time>2022-08-24T05:24:59Z</time>
      </trkpt>
      <trkpt lat="42.904824" lon="-8.375202">
        <ele>276.154</ele>
        <time>2022-08-24T05:25:03Z</time>
      </trkpt>
      <trkpt lat="42.904783" lon="-8.375259">
        <ele>276.139</ele>
        <time>2022-08-24T05:25:07Z</time>
      </trkpt>
      <trkpt lat="42.904742" lon="-8.375300">
        <ele>276.147</ele>
        <time>2022-08-24T05:25:11Z</time>
      </trkpt>
      <trkpt lat="42.904690" lon="-8.375329">
        <ele>276.127</ele>
        <time>2022-08-24T05:25:15Z</time>
      </trkpt>
      <trkpt lat="42.904651" lon="-8.375380">
        <ele>276.181</ele>
        <time>2022-08-24T05:25:19Z</time>
      </trkpt>
      <trkpt lat="42.904606" lon="-8.375431">
        <ele>276.136</ele>
        <time>2022-08-24T05:25:23Z</time>
      </trkpt>
      <trkpt lat="42.904570" lon="-8.375495">
        <ele>276.140</ele>
        <time>2022-08-24T05:25:27Z</time>
      </trkpt>
      <trkpt lat="42.904539" lon="-8.375554">
        <ele>276.311</ele>
        <time>2022-08-24T05:25:31Z</time>
      </trkpt>
      <trkpt lat="42.904502" lon="-8.375601">
        <ele>276.521</ele>
        <time>2022-08-24T05:25:36Z</time>
      </trkpt>
      <trkpt lat="42.904466" lon="-8.375645">
        <ele>276.503</ele>
        <time>2022-08-24T05:25:40Z</time>
      </trkpt>
      <trkpt lat="42.904431" lon="-8.375698">
        <ele>276.509</ele>
        <time>2022-08-24T05:25:46Z</time>
      </trkpt>
      <trkpt lat="42.904396" lon="-8.375739">
        <ele>276.672</ele>
        <time>2022-08-24T05:25:50Z</time>
      </trkpt>
      <trkpt lat="42.904367" lon="-8.375791">
        <ele>276.862</ele>
        <time>2022-08-24T05:25:53Z</time>
      </trkpt>
      <trkpt lat="42.904339" lon="-8.375873">
        <ele>277.092</ele>
        <time>2022-08-24T05:25:57Z</time>
      </trkpt>
      <trkpt lat="42.904310" lon="-8.375939">
        <ele>277.187</ele>
        <time>2022-08-24T05:26:02Z</time>
      </trkpt>
      <trkpt lat="42.904276" lon="-8.375987">
        <ele>277.225</ele>
        <time>2022-08-24T05:26:05Z</time>
      </trkpt>
      <trkpt lat="42.904241" lon="-8.376054">
        <ele>277.465</ele>
        <time>2022-08-24T05:26:10Z</time>
      </trkpt>
      <trkpt lat="42.904208" lon="-8.376109">
        <ele>277.559</ele>
        <time>2022-08-24T05:26:14Z</time>
      </trkpt>
      <trkpt lat="42.904178" lon="-8.376157">
        <ele>277.664</ele>
        <time>2022-08-24T05:26:17Z</time>
      </trkpt>
      <trkpt lat="42.904150" lon="-8.376214">
        <ele>277.748</ele>
        <time>2022-08-24T05:26:21Z</time>
      </trkpt>
      <trkpt lat="42.904109" lon="-8.376262">
        <ele>277.817</ele>
        <time>2022-08-24T05:26:24Z</time>
      </trkpt>
      <trkpt lat="42.904074" lon="-8.376302">
        <ele>278.087</ele>
        <time>2022-08-24T05:26:27Z</time>
      </trkpt>
      <trkpt lat="42.904043" lon="-8.376361">
        <ele>278.215</ele>
        <time>2022-08-24T05:26:31Z</time>
      </trkpt>
      <trkpt lat="42.904035" lon="-8.376432">
        <ele>278.409</ele>
        <time>2022-08-24T05:26:36Z</time>
      </trkpt>
      <trkpt lat="42.904013" lon="-8.376500">
        <ele>278.632</ele>
        <time>2022-08-24T05:26:40Z</time>
      </trkpt>
      <trkpt lat="42.904004" lon="-8.376566">
        <ele>278.732</ele>
        <time>2022-08-24T05:26:44Z</time>
      </trkpt>
      <trkpt lat="42.903978" lon="-8.376636">
        <ele>278.892</ele>
        <time>2022-08-24T05:26:48Z</time>
      </trkpt>
      <trkpt lat="42.903962" lon="-8.376702">
        <ele>278.957</ele>
        <time>2022-08-24T05:26:58Z</time>
      </trkpt>
      <trkpt lat="42.903943" lon="-8.376758">
        <ele>279.095</ele>
        <time>2022-08-24T05:27:03Z</time>
      </trkpt>
      <trkpt lat="42.903922" lon="-8.376832">
        <ele>279.115</ele>
        <time>2022-08-24T05:27:08Z</time>
      </trkpt>
      <trkpt lat="42.903893" lon="-8.376907">
        <ele>279.399</ele>
        <time>2022-08-24T05:27:13Z</time>
      </trkpt>
      <trkpt lat="42.903872" lon="-8.376971">
        <ele>279.434</ele>
        <time>2022-08-24T05:27:18Z</time>
      </trkpt>
      <trkpt lat="42.903844" lon="-8.377041">
        <ele>279.748</ele>
        <time>2022-08-24T05:27:23Z</time>
      </trkpt>
      <trkpt lat="42.903825" lon="-8.377104">
        <ele>279.969</ele>
        <time>2022-08-24T05:27:27Z</time>
      </trkpt>
      <trkpt lat="42.903818" lon="-8.377178">
        <ele>280.104</ele>
        <time>2022-08-24T05:27:31Z</time>
      </trkpt>
      <trkpt lat="42.903811" lon="-8.377255">
        <ele>280.324</ele>
        <time>2022-08-24T05:27:36Z</time>
      </trkpt>
      <trkpt lat="42.903790" lon="-8.377321">
        <ele>280.509</ele>
        <time>2022-08-24T05:27:40Z</time>
      </trkpt>
      <trkpt lat="42.903775" lon="-8.377385">
        <ele>280.687</ele>
        <time>2022-08-24T05:27:44Z</time>
      </trkpt>
      <trkpt lat="42.903769" lon="-8.377462">
        <ele>280.977</ele>
        <time>2022-08-24T05:27:48Z</time>
      </trkpt>
      <trkpt lat="42.903751" lon="-8.377534">
        <ele>281.097</ele>
        <time>2022-08-24T05:27:52Z</time>
      </trkpt>
      <trkpt lat="42.903745" lon="-8.377612">
        <ele>281.252</ele>
        <time>2022-08-24T05:27:57Z</time>
      </trkpt>
      <trkpt lat="42.903748" lon="-8.377682">
        <ele>281.490</ele>
        <time>2022-08-24T05:28:01Z</time>
      </trkpt>
      <trkpt lat="42.903749" lon="-8.377765">
        <ele>281.670</ele>
        <time>2022-08-24T05:28:06Z</time>
      </trkpt>
      <trkpt lat="42.903745" lon="-8.377830">
        <ele>281.944</ele>
        <time>2022-08-24T05:28:08Z</time>
      </trkpt>
      <trkpt lat="42.903742" lon="-8.377908">
        <ele>282.229</ele>
        <time>2022-08-24T05:28:13Z</time>
      </trkpt>
      <trkpt lat="42.903736" lon="-8.377974">
        <ele>282.343</ele>
        <time>2022-08-24T05:28:16Z</time>
      </trkpt>
      <trkpt lat="42.903739" lon="-8.378041">
        <ele>282.645</ele>
        <time>2022-08-24T05:28:19Z</time>
      </trkpt>
      <trkpt lat="42.903727" lon="-8.378106">
        <ele>282.947</ele>
        <time>2022-08-24T05:28:23Z</time>
      </trkpt>
      <trkpt lat="42.903703" lon="-8.378187">
        <ele>283.111</ele>
        <time>2022-08-24T05:28:27Z</time>
      </trkpt>
      <trkpt lat="42.903712" lon="-8.378260">
        <ele>283.309</ele>
        <time>2022-08-24T05:28:31Z</time>
      </trkpt>
      <trkpt lat="42.903694" lon="-8.378323">
        <ele>283.595</ele>
        <time>2022-08-24T05:28:34Z</time>
      </trkpt>
      <trkpt lat="42.903689" lon="-8.378386">
        <ele>283.725</ele>
        <time>2022-08-24T05:28:38Z</time>
      </trkpt>
      <trkpt lat="42.903691" lon="-8.378449">
        <ele>283.885</ele>
        <time>2022-08-24T05:28:42Z</time>
      </trkpt>
      <trkpt lat="42.903667" lon="-8.378515">
        <ele>283.950</ele>
        <time>2022-08-24T05:28:46Z</time>
      </trkpt>
      <trkpt lat="42.903645" lon="-8.378586">
        <ele>284.058</ele>
        <time>2022-08-24T05:28:50Z</time>
      </trkpt>
      <trkpt lat="42.903624" lon="-8.378655">
        <ele>284.238</ele>
        <time>2022-08-24T05:28:53Z</time>
      </trkpt>
      <trkpt lat="42.903623" lon="-8.378730">
        <ele>284.412</ele>
        <time>2022-08-24T05:28:57Z</time>
      </trkpt>
      <trkpt lat="42.903620" lon="-8.378798">
        <ele>284.647</ele>
        <time>2022-08-24T05:29:00Z</time>
      </trkpt>
      <trkpt lat="42.903621" lon="-8.378861">
        <ele>284.691</ele>
        <time>2022-08-24T05:29:03Z</time>
      </trkpt>
      <trkpt lat="42.903629" lon="-8.378924">
        <ele>284.647</ele>
        <time>2022-08-24T05:29:06Z</time>
      </trkpt>
      <trkpt lat="42.903618" lon="-8.379003">
        <ele>284.729</ele>
        <time>2022-08-24T05:29:11Z</time>
      </trkpt>
      <trkpt lat="42.903618" lon="-8.379065">
        <ele>284.821</ele>
        <time>2022-08-24T05:29:15Z</time>
      </trkpt>
      <trkpt lat="42.903620" lon="-8.379146">
        <ele>284.909</ele>
        <time>2022-08-24T05:29:20Z</time>
      </trkpt>
      <trkpt lat="42.903620" lon="-8.379208">
        <ele>285.085</ele>
        <time>2022-08-24T05:29:24Z</time>
      </trkpt>
      <trkpt lat="42.903622" lon="-8.379279">
        <ele>285.225</ele>
        <time>2022-08-24T05:29:28Z</time>
      </trkpt>
      <trkpt lat="42.903626" lon="-8.379369">
        <ele>285.465</ele>
        <time>2022-08-24T05:29:32Z</time>
      </trkpt>
      <trkpt lat="42.903621" lon="-8.379443">
        <ele>285.690</ele>
        <time>2022-08-24T05:29:36Z</time>
      </trkpt>
      <trkpt lat="42.903628" lon="-8.379517">
        <ele>285.858</ele>
        <time>2022-08-24T05:29:39Z</time>
      </trkpt>
      <trkpt lat="42.903643" lon="-8.379587">
        <ele>285.918</ele>
        <time>2022-08-24T05:29:42Z</time>
      </trkpt>
      <trkpt lat="42.903643" lon="-8.379652">
        <ele>286.012</ele>
        <time>2022-08-24T05:29:46Z</time>
      </trkpt>
      <trkpt lat="42.903642" lon="-8.379718">
        <ele>286.187</ele>
        <time>2022-08-24T05:29:51Z</time>
      </trkpt>
      <trkpt lat="42.903648" lon="-8.379784">
        <ele>286.311</ele>
        <time>2022-08-24T05:29:55Z</time>
      </trkpt>
      <trkpt lat="42.903657" lon="-8.379865">
        <ele>286.525</ele>
        <time>2022-08-24T05:30:01Z</time>
      </trkpt>
      <trkpt lat="42.903674" lon="-8.379927">
        <ele>286.826</ele>
        <time>2022-08-24T05:30:05Z</time>
      </trkpt>
      <trkpt lat="42.903691" lon="-8.379993">
        <ele>287.008</ele>
        <time>2022-08-24T05:30:09Z</time>
      </trkpt>
      <trkpt lat="42.903710" lon="-8.380078">
        <ele>287.109</ele>
        <time>2022-08-24T05:30:14Z</time>
      </trkpt>
      <trkpt lat="42.903714" lon="-8.380151">
        <ele>287.343</ele>
        <time>2022-08-24T05:30:17Z</time>
      </trkpt>
      <trkpt lat="42.903724" lon="-8.380232">
        <ele>287.653</ele>
        <time>2022-08-24T05:30:20Z</time>
      </trkpt>
      <trkpt lat="42.903743" lon="-8.380296">
        <ele>287.733</ele>
        <time>2022-08-24T05:30:24Z</time>
      </trkpt>
      <trkpt lat="42.903761" lon="-8.380371">
        <ele>287.928</ele>
        <time>2022-08-24T05:30:28Z</time>
      </trkpt>
      <trkpt lat="42.903772" lon="-8.380447">
        <ele>288.036</ele>
        <time>2022-08-24T05:30:33Z</time>
      </trkpt>
      <trkpt lat="42.903760" lon="-8.380508">
        <ele>288.046</ele>
        <time>2022-08-24T05:30:37Z</time>
      </trkpt>
      <trkpt lat="42.903768" lon="-8.380586">
        <ele>287.960</ele>
        <time>2022-08-24T05:30:41Z</time>
      </trkpt>
      <trkpt lat="42.903779" lon="-8.380645">
        <ele>287.885</ele>
        <time>2022-08-24T05:30:43Z</time>
      </trkpt>
      <trkpt lat="42.903785" lon="-8.380721">
        <ele>287.519</ele>
        <time>2022-08-24T05:30:48Z</time>
      </trkpt>
      <trkpt lat="42.903774" lon="-8.380802">
        <ele>287.336</ele>
        <time>2022-08-24T05:30:53Z</time>
      </trkpt>
      <trkpt lat="42.903787" lon="-8.380878">
        <ele>287.117</ele>
        <time>2022-08-24T05:30:56Z</time>
      </trkpt>
      <trkpt lat="42.903785" lon="-8.380953">
        <ele>286.818</ele>
        <time>2022-08-24T05:30:59Z</time>
      </trkpt>
      <trkpt lat="42.903770" lon="-8.381032">
        <ele>286.709</ele>
        <time>2022-08-24T05:31:04Z</time>
      </trkpt>
      <trkpt lat="42.903775" lon="-8.381104">
        <ele>286.594</ele>
        <time>2022-08-24T05:31:07Z</time>
      </trkpt>
      <trkpt lat="42.903761" lon="-8.381162">
        <ele>286.344</ele>
        <time>2022-08-24T05:31:10Z</time>
      </trkpt>
      <trkpt lat="42.903754" lon="-8.381235">
        <ele>286.214</ele>
        <time>2022-08-24T05:31:14Z</time>
      </trkpt>
      <trkpt lat="42.903759" lon="-8.381316">
        <ele>286.159</ele>
        <time>2022-08-24T05:31:18Z</time>
      </trkpt>
      <trkpt lat="42.903759" lon="-8.381377">
        <ele>286.057</ele>
        <time>2022-08-24T05:31:20Z</time>
      </trkpt>
      <trkpt lat="42.903736" lon="-8.381441">
        <ele>285.987</ele>
        <time>2022-08-24T05:31:23Z</time>
      </trkpt>
      <trkpt lat="42.903691" lon="-8.381484">
        <ele>285.821</ele>
        <time>2022-08-24T05:31:26Z</time>
      </trkpt>
      <trkpt lat="42.903646" lon="-8.381538">
        <ele>285.656</ele>
        <time>2022-08-24T05:31:30Z</time>
      </trkpt>
      <trkpt lat="42.903615" lon="-8.381598">
        <ele>285.580</ele>
        <time>2022-08-24T05:31:33Z</time>
      </trkpt>
      <trkpt lat="42.903607" lon="-8.381658">
        <ele>285.276</ele>
        <time>2022-08-24T05:31:36Z</time>
      </trkpt>
      <trkpt lat="42.903598" lon="-8.381734">
        <ele>284.790</ele>
        <time>2022-08-24T05:31:40Z</time>
      </trkpt>
      <trkpt lat="42.903618" lon="-8.381790">
        <ele>284.619</ele>
        <time>2022-08-24T05:31:44Z</time>
      </trkpt>
      <trkpt lat="42.903621" lon="-8.381856">
        <ele>284.509</ele>
        <time>2022-08-24T05:31:47Z</time>
      </trkpt>
      <trkpt lat="42.903652" lon="-8.381919">
        <ele>284.598</ele>
        <time>2022-08-24T05:31:51Z</time>
      </trkpt>
      <trkpt lat="42.903659" lon="-8.381990">
        <ele>284.518</ele>
        <time>2022-08-24T05:31:55Z</time>
      </trkpt>
      <trkpt lat="42.903675" lon="-8.382067">
        <ele>284.658</ele>
        <time>2022-08-24T05:31:59Z</time>
      </trkpt>
      <trkpt lat="42.903688" lon="-8.382126">
        <ele>284.853</ele>
        <time>2022-08-24T05:32:02Z</time>
      </trkpt>
      <trkpt lat="42.903705" lon="-8.382199">
        <ele>285.031</ele>
        <time>2022-08-24T05:32:06Z</time>
      </trkpt>
      <trkpt lat="42.903725" lon="-8.382260">
        <ele>285.241</ele>
        <time>2022-08-24T05:32:10Z</time>
      </trkpt>
      <trkpt lat="42.903741" lon="-8.382327">
        <ele>285.495</ele>
        <time>2022-08-24T05:32:14Z</time>
      </trkpt>
      <trkpt lat="42.903761" lon="-8.382397">
        <ele>285.680</ele>
        <time>2022-08-24T05:32:18Z</time>
      </trkpt>
      <trkpt lat="42.903782" lon="-8.382470">
        <ele>285.774</ele>
        <time>2022-08-24T05:32:22Z</time>
      </trkpt>
      <trkpt lat="42.903800" lon="-8.382541">
        <ele>285.719</ele>
        <time>2022-08-24T05:32:26Z</time>
      </trkpt>
      <trkpt lat="42.903818" lon="-8.382608">
        <ele>285.709</ele>
        <time>2022-08-24T05:32:30Z</time>
      </trkpt>
      <trkpt lat="42.903835" lon="-8.382677">
        <ele>285.719</ele>
        <time>2022-08-24T05:32:34Z</time>
      </trkpt>
      <trkpt lat="42.903857" lon="-8.382743">
        <ele>285.709</ele>
        <time>2022-08-24T05:32:38Z</time>
      </trkpt>
      <trkpt lat="42.903874" lon="-8.382810">
        <ele>285.762</ele>
        <time>2022-08-24T05:32:42Z</time>
      </trkpt>
      <trkpt lat="42.903893" lon="-8.382876">
        <ele>285.782</ele>
        <time>2022-08-24T05:32:46Z</time>
      </trkpt>
      <trkpt lat="42.903911" lon="-8.382943">
        <ele>285.742</ele>
        <time>2022-08-24T05:32:50Z</time>
      </trkpt>
      <trkpt lat="42.903931" lon="-8.383012">
        <ele>285.797</ele>
        <time>2022-08-24T05:32:54Z</time>
      </trkpt>
      <trkpt lat="42.903950" lon="-8.383084">
        <ele>285.775</ele>
        <time>2022-08-24T05:32:58Z</time>
      </trkpt>
      <trkpt lat="42.903975" lon="-8.383148">
        <ele>285.715</ele>
        <time>2022-08-24T05:33:02Z</time>
      </trkpt>
      <trkpt lat="42.903991" lon="-8.383216">
        <ele>285.729</ele>
        <time>2022-08-24T05:33:06Z</time>
      </trkpt>
      <trkpt lat="42.904011" lon="-8.383280">
        <ele>285.714</ele>
        <time>2022-08-24T05:33:10Z</time>
      </trkpt>
      <trkpt lat="42.904016" lon="-8.383344">
        <ele>285.798</ele>
        <time>2022-08-24T05:33:16Z</time>
      </trkpt>
      <trkpt lat="42.904018" lon="-8.383418">
        <ele>285.774</ele>
        <time>2022-08-24T05:33:21Z</time>
      </trkpt>
      <trkpt lat="42.904034" lon="-8.383477">
        <ele>285.856</ele>
        <time>2022-08-24T05:33:25Z</time>
      </trkpt>
      <trkpt lat="42.904062" lon="-8.383529">
        <ele>285.921</ele>
        <time>2022-08-24T05:33:29Z</time>
      </trkpt>
      <trkpt lat="42.904078" lon="-8.383603">
        <ele>286.009</ele>
        <time>2022-08-24T05:33:34Z</time>
      </trkpt>
      <trkpt lat="42.904092" lon="-8.383670">
        <ele>286.118</ele>
        <time>2022-08-24T05:33:38Z</time>
      </trkpt>
      <trkpt lat="42.904112" lon="-8.383750">
        <ele>286.248</ele>
        <time>2022-08-24T05:33:42Z</time>
      </trkpt>
      <trkpt lat="42.904121" lon="-8.383812">
        <ele>286.388</ele>
        <time>2022-08-24T05:33:45Z</time>
      </trkpt>
      <trkpt lat="42.904135" lon="-8.383882">
        <ele>286.463</ele>
        <time>2022-08-24T05:33:49Z</time>
      </trkpt>
      <trkpt lat="42.904158" lon="-8.383947">
        <ele>286.651</ele>
        <time>2022-08-24T05:33:53Z</time>
      </trkpt>
      <trkpt lat="42.904166" lon="-8.384011">
        <ele>286.891</ele>
        <time>2022-08-24T05:33:57Z</time>
      </trkpt>
      <trkpt lat="42.904183" lon="-8.384079">
        <ele>287.045</ele>
        <time>2022-08-24T05:34:01Z</time>
      </trkpt>
      <trkpt lat="42.904201" lon="-8.384140">
        <ele>287.170</ele>
        <time>2022-08-24T05:34:05Z</time>
      </trkpt>
      <trkpt lat="42.904231" lon="-8.384195">
        <ele>287.344</ele>
        <time>2022-08-24T05:34:08Z</time>
      </trkpt>
      <trkpt lat="42.904253" lon="-8.384250">
        <ele>287.563</ele>
        <time>2022-08-24T05:34:12Z</time>
      </trkpt>
      <trkpt lat="42.904290" lon="-8.384323">
        <ele>287.644</ele>
        <time>2022-08-24T05:34:16Z</time>
      </trkpt>
      <trkpt lat="42.904320" lon="-8.384380">
        <ele>287.718</ele>
        <time>2022-08-24T05:34:20Z</time>
      </trkpt>
      <trkpt lat="42.904340" lon="-8.384458">
        <ele>287.909</ele>
        <time>2022-08-24T05:34:25Z</time>
      </trkpt>
      <trkpt lat="42.904352" lon="-8.384520">
        <ele>288.197</ele>
        <time>2022-08-24T05:34:28Z</time>
      </trkpt>
      <trkpt lat="42.904384" lon="-8.384587">
        <ele>288.367</ele>
        <time>2022-08-24T05:34:32Z</time>
      </trkpt>
      <trkpt lat="42.904409" lon="-8.384650">
        <ele>288.447</ele>
        <time>2022-08-24T05:34:35Z</time>
      </trkpt>
      <trkpt lat="42.904441" lon="-8.384697">
        <ele>288.532</ele>
        <time>2022-08-24T05:34:38Z</time>
      </trkpt>
      <trkpt lat="42.904469" lon="-8.384748">
        <ele>288.740</ele>
        <time>2022-08-24T05:34:41Z</time>
      </trkpt>
      <trkpt lat="42.904485" lon="-8.384816">
        <ele>289.060</ele>
        <time>2022-08-24T05:34:45Z</time>
      </trkpt>
      <trkpt lat="42.904506" lon="-8.384875">
        <ele>289.334</ele>
        <time>2022-08-24T05:34:49Z</time>
      </trkpt>
      <trkpt lat="42.904538" lon="-8.384929">
        <ele>289.659</ele>
        <time>2022-08-24T05:34:54Z</time>
      </trkpt>
      <trkpt lat="42.904561" lon="-8.384998">
        <ele>290.053</ele>
        <time>2022-08-24T05:34:58Z</time>
      </trkpt>
      <trkpt lat="42.904581" lon="-8.385055">
        <ele>290.492</ele>
        <time>2022-08-24T05:35:01Z</time>
      </trkpt>
      <trkpt lat="42.904597" lon="-8.385118">
        <ele>290.773</ele>
        <time>2022-08-24T05:35:06Z</time>
      </trkpt>
      <trkpt lat="42.904631" lon="-8.385177">
        <ele>290.920</ele>
        <time>2022-08-24T05:35:10Z</time>
      </trkpt>
      <trkpt lat="42.904664" lon="-8.385248">
        <ele>291.209</ele>
        <time>2022-08-24T05:35:14Z</time>
      </trkpt>
      <trkpt lat="42.904702" lon="-8.385313">
        <ele>291.740</ele>
        <time>2022-08-24T05:35:19Z</time>
      </trkpt>
      <trkpt lat="42.904725" lon="-8.385366">
        <ele>291.970</ele>
        <time>2022-08-24T05:35:22Z</time>
      </trkpt>
      <trkpt lat="42.904753" lon="-8.385438">
        <ele>292.190</ele>
        <time>2022-08-24T05:35:26Z</time>
      </trkpt>
      <trkpt lat="42.904780" lon="-8.385496">
        <ele>292.135</ele>
        <time>2022-08-24T05:35:30Z</time>
      </trkpt>
      <trkpt lat="42.904808" lon="-8.385553">
        <ele>292.113</ele>
        <time>2022-08-24T05:35:34Z</time>
      </trkpt>
      <trkpt lat="42.904815" lon="-8.385631">
        <ele>292.113</ele>
        <time>2022-08-24T05:35:39Z</time>
      </trkpt>
      <trkpt lat="42.904841" lon="-8.385696">
        <ele>292.067</ele>
        <time>2022-08-24T05:35:43Z</time>
      </trkpt>
      <trkpt lat="42.904857" lon="-8.385759">
        <ele>291.912</ele>
        <time>2022-08-24T05:35:46Z</time>
      </trkpt>
      <trkpt lat="42.904881" lon="-8.385817">
        <ele>291.866</ele>
        <time>2022-08-24T05:35:49Z</time>
      </trkpt>
      <trkpt lat="42.904899" lon="-8.385894">
        <ele>291.779</ele>
        <time>2022-08-24T05:35:53Z</time>
      </trkpt>
      <trkpt lat="42.904911" lon="-8.385955">
        <ele>291.605</ele>
        <time>2022-08-24T05:35:56Z</time>
      </trkpt>
      <trkpt lat="42.904919" lon="-8.386044">
        <ele>291.425</ele>
        <time>2022-08-24T05:36:00Z</time>
      </trkpt>
      <trkpt lat="42.904903" lon="-8.386110">
        <ele>291.109</ele>
        <time>2022-08-24T05:36:05Z</time>
      </trkpt>
      <trkpt lat="42.904877" lon="-8.386169">
        <ele>290.738</ele>
        <time>2022-08-24T05:36:09Z</time>
      </trkpt>
      <trkpt lat="42.904838" lon="-8.386211">
        <ele>290.468</ele>
        <time>2022-08-24T05:36:12Z</time>
      </trkpt>
      <trkpt lat="42.904796" lon="-8.386263">
        <ele>289.658</ele>
        <time>2022-08-24T05:36:15Z</time>
      </trkpt>
      <trkpt lat="42.904760" lon="-8.386300">
        <ele>289.433</ele>
        <time>2022-08-24T05:36:18Z</time>
      </trkpt>
      <trkpt lat="42.904722" lon="-8.386350">
        <ele>289.021</ele>
        <time>2022-08-24T05:36:22Z</time>
      </trkpt>
      <trkpt lat="42.904683" lon="-8.386381">
        <ele>288.441</ele>
        <time>2022-08-24T05:36:26Z</time>
      </trkpt>
      <trkpt lat="42.904643" lon="-8.386424">
        <ele>287.735</ele>
        <time>2022-08-24T05:36:30Z</time>
      </trkpt>
      <trkpt lat="42.904591" lon="-8.386452">
        <ele>287.140</ele>
        <time>2022-08-24T05:36:33Z</time>
      </trkpt>
      <trkpt lat="42.904540" lon="-8.386465">
        <ele>286.594</ele>
        <time>2022-08-24T05:36:38Z</time>
      </trkpt>
      <trkpt lat="42.904496" lon="-8.386489">
        <ele>286.031</ele>
        <time>2022-08-24T05:36:42Z</time>
      </trkpt>
      <trkpt lat="42.904448" lon="-8.386525">
        <ele>285.461</ele>
        <time>2022-08-24T05:36:47Z</time>
      </trkpt>
      <trkpt lat="42.904406" lon="-8.386550">
        <ele>284.707</ele>
        <time>2022-08-24T05:36:49Z</time>
      </trkpt>
      <trkpt lat="42.904354" lon="-8.386585">
        <ele>284.009</ele>
        <time>2022-08-24T05:36:54Z</time>
      </trkpt>
      <trkpt lat="42.904308" lon="-8.386605">
        <ele>283.564</ele>
        <time>2022-08-24T05:36:58Z</time>
      </trkpt>
      <trkpt lat="42.904266" lon="-8.386628">
        <ele>283.234</ele>
        <time>2022-08-24T05:37:01Z</time>
      </trkpt>
      <trkpt lat="42.904218" lon="-8.386651">
        <ele>282.854</ele>
        <time>2022-08-24T05:37:04Z</time>
      </trkpt>
      <trkpt lat="42.904172" lon="-8.386676">
        <ele>282.599</ele>
        <time>2022-08-24T05:37:07Z</time>
      </trkpt>
      <trkpt lat="42.904118" lon="-8.386700">
        <ele>282.297</ele>
        <time>2022-08-24T05:37:11Z</time>
      </trkpt>
      <trkpt lat="42.904071" lon="-8.386719">
        <ele>281.997</ele>
        <time>2022-08-24T05:37:15Z</time>
      </trkpt>
      <trkpt lat="42.904015" lon="-8.386728">
        <ele>281.651</ele>
        <time>2022-08-24T05:37:20Z</time>
      </trkpt>
      <trkpt lat="42.903964" lon="-8.386741">
        <ele>281.216</ele>
        <time>2022-08-24T05:37:23Z</time>
      </trkpt>
      <trkpt lat="42.903908" lon="-8.386756">
        <ele>280.340</ele>
        <time>2022-08-24T05:37:27Z</time>
      </trkpt>
      <trkpt lat="42.903865" lon="-8.386787">
        <ele>280.137</ele>
        <time>2022-08-24T05:37:30Z</time>
      </trkpt>
      <trkpt lat="42.903819" lon="-8.386811">
        <ele>279.649</ele>
        <time>2022-08-24T05:37:34Z</time>
      </trkpt>
      <trkpt lat="42.903766" lon="-8.386827">
        <ele>279.113</ele>
        <time>2022-08-24T05:37:38Z</time>
      </trkpt>
      <trkpt lat="42.903722" lon="-8.386857">
        <ele>278.509</ele>
        <time>2022-08-24T05:37:41Z</time>
      </trkpt>
      <trkpt lat="42.903670" lon="-8.386879">
        <ele>277.854</ele>
        <time>2022-08-24T05:37:45Z</time>
      </trkpt>
      <trkpt lat="42.903618" lon="-8.386904">
        <ele>277.314</ele>
        <time>2022-08-24T05:37:49Z</time>
      </trkpt>
      <trkpt lat="42.903566" lon="-8.386925">
        <ele>276.844</ele>
        <time>2022-08-24T05:37:53Z</time>
      </trkpt>
      <trkpt lat="42.903519" lon="-8.386948">
        <ele>276.399</ele>
        <time>2022-08-24T05:37:57Z</time>
      </trkpt>
      <trkpt lat="42.903472" lon="-8.386973">
        <ele>275.957</ele>
        <time>2022-08-24T05:38:01Z</time>
      </trkpt>
      <trkpt lat="42.903424" lon="-8.386993">
        <ele>275.567</ele>
        <time>2022-08-24T05:38:05Z</time>
      </trkpt>
      <trkpt lat="42.903372" lon="-8.387026">
        <ele>275.111</ele>
        <time>2022-08-24T05:38:09Z</time>
      </trkpt>
      <trkpt lat="42.903326" lon="-8.387061">
        <ele>274.816</ele>
        <time>2022-08-24T05:38:13Z</time>
      </trkpt>
      <trkpt lat="42.903292" lon="-8.387119">
        <ele>274.520</ele>
        <time>2022-08-24T05:38:17Z</time>
      </trkpt>
      <trkpt lat="42.903276" lon="-8.387181">
        <ele>274.242</ele>
        <time>2022-08-24T05:38:21Z</time>
      </trkpt>
      <trkpt lat="42.903284" lon="-8.387253">
        <ele>273.922</ele>
        <time>2022-08-24T05:38:25Z</time>
      </trkpt>
      <trkpt lat="42.903293" lon="-8.387321">
        <ele>273.614</ele>
        <time>2022-08-24T05:38:29Z</time>
      </trkpt>
      <trkpt lat="42.903302" lon="-8.387391">
        <ele>273.409</ele>
        <time>2022-08-24T05:38:33Z</time>
      </trkpt>
      <trkpt lat="42.903323" lon="-8.387461">
        <ele>273.275</ele>
        <time>2022-08-24T05:38:37Z</time>
      </trkpt>
      <trkpt lat="42.903345" lon="-8.387531">
        <ele>273.125</ele>
        <time>2022-08-24T05:38:41Z</time>
      </trkpt>
      <trkpt lat="42.903358" lon="-8.387604">
        <ele>273.175</ele>
        <time>2022-08-24T05:38:45Z</time>
      </trkpt>
      <trkpt lat="42.903372" lon="-8.387672">
        <ele>273.030</ele>
        <time>2022-08-24T05:38:49Z</time>
      </trkpt>
      <trkpt lat="42.903385" lon="-8.387745">
        <ele>272.928</ele>
        <time>2022-08-24T05:38:53Z</time>
      </trkpt>
      <trkpt lat="42.903408" lon="-8.387816">
        <ele>272.868</ele>
        <time>2022-08-24T05:38:57Z</time>
      </trkpt>
      <trkpt lat="42.903423" lon="-8.387886">
        <ele>272.742</ele>
        <time>2022-08-24T05:39:01Z</time>
      </trkpt>
      <trkpt lat="42.903441" lon="-8.387953">
        <ele>272.667</ele>
        <time>2022-08-24T05:39:05Z</time>
      </trkpt>
      <trkpt lat="42.903459" lon="-8.388018">
        <ele>272.461</ele>
        <time>2022-08-24T05:39:09Z</time>
      </trkpt>
      <trkpt lat="42.903482" lon="-8.388082">
        <ele>272.395</ele>
        <time>2022-08-24T05:39:13Z</time>
      </trkpt>
      <trkpt lat="42.903501" lon="-8.388148">
        <ele>272.149</ele>
        <time>2022-08-24T05:39:17Z</time>
      </trkpt>
      <trkpt lat="42.903520" lon="-8.388214">
        <ele>271.923</ele>
        <time>2022-08-24T05:39:21Z</time>
      </trkpt>
      <trkpt lat="42.903534" lon="-8.388278">
        <ele>271.709</ele>
        <time>2022-08-24T05:39:25Z</time>
      </trkpt>
      <trkpt lat="42.903556" lon="-8.388347">
        <ele>271.590</ele>
        <time>2022-08-24T05:39:29Z</time>
      </trkpt>
      <trkpt lat="42.903572" lon="-8.388411">
        <ele>271.380</ele>
        <time>2022-08-24T05:39:33Z</time>
      </trkpt>
      <trkpt lat="42.903588" lon="-8.388482">
        <ele>271.180</ele>
        <time>2022-08-24T05:39:38Z</time>
      </trkpt>
      <trkpt lat="42.903602" lon="-8.388542">
        <ele>270.845</ele>
        <time>2022-08-24T05:39:42Z</time>
      </trkpt>
      <trkpt lat="42.903622" lon="-8.388605">
        <ele>270.563</ele>
        <time>2022-08-24T05:39:46Z</time>
      </trkpt>
      <trkpt lat="42.903633" lon="-8.388673">
        <ele>270.243</ele>
        <time>2022-08-24T05:39:50Z</time>
      </trkpt>
      <trkpt lat="42.903654" lon="-8.388733">
        <ele>269.937</ele>
        <time>2022-08-24T05:39:54Z</time>
      </trkpt>
      <trkpt lat="42.903679" lon="-8.388796">
        <ele>269.792</ele>
        <time>2022-08-24T05:39:58Z</time>
      </trkpt>
      <trkpt lat="42.903703" lon="-8.388859">
        <ele>269.586</ele>
        <time>2022-08-24T05:40:02Z</time>
      </trkpt>
      <trkpt lat="42.903725" lon="-8.388918">
        <ele>269.244</ele>
        <time>2022-08-24T05:40:08Z</time>
      </trkpt>
      <trkpt lat="42.903753" lon="-8.388980">
        <ele>268.905</ele>
        <time>2022-08-24T05:40:12Z</time>
      </trkpt>
      <trkpt lat="42.903785" lon="-8.389036">
        <ele>268.515</ele>
        <time>2022-08-24T05:40:16Z</time>
      </trkpt>
      <trkpt lat="42.903817" lon="-8.389094">
        <ele>268.109</ele>
        <time>2022-08-24T05:40:20Z</time>
      </trkpt>
      <trkpt lat="42.903850" lon="-8.389154">
        <ele>267.825</ele>
        <time>2022-08-24T05:40:24Z</time>
      </trkpt>
      <trkpt lat="42.903879" lon="-8.389222">
        <ele>267.315</ele>
        <time>2022-08-24T05:40:28Z</time>
      </trkpt>
      <trkpt lat="42.903918" lon="-8.389274">
        <ele>266.965</ele>
        <time>2022-08-24T05:40:32Z</time>
      </trkpt>
      <trkpt lat="42.903960" lon="-8.389317">
        <ele>266.420</ele>
        <time>2022-08-24T05:40:36Z</time>
      </trkpt>
      <trkpt lat="42.904007" lon="-8.389371">
        <ele>265.958</ele>
        <time>2022-08-24T05:40:40Z</time>
      </trkpt>
      <trkpt lat="42.904050" lon="-8.389417">
        <ele>265.488</ele>
        <time>2022-08-24T05:40:44Z</time>
      </trkpt>
      <trkpt lat="42.904094" lon="-8.389461">
        <ele>264.812</ele>
        <time>2022-08-24T05:40:48Z</time>
      </trkpt>
      <trkpt lat="42.904137" lon="-8.389504">
        <ele>264.297</ele>
        <time>2022-08-24T05:40:52Z</time>
      </trkpt>
      <trkpt lat="42.904180" lon="-8.389552">
        <ele>263.511</ele>
        <time>2022-08-24T05:40:57Z</time>
      </trkpt>
      <trkpt lat="42.904216" lon="-8.389590">
        <ele>263.266</ele>
        <time>2022-08-24T05:41:00Z</time>
      </trkpt>
      <trkpt lat="42.904250" lon="-8.389643">
        <ele>262.629</ele>
        <time>2022-08-24T05:41:04Z</time>
      </trkpt>
      <trkpt lat="42.904284" lon="-8.389704">
        <ele>262.221</ele>
        <time>2022-08-24T05:41:09Z</time>
      </trkpt>
      <trkpt lat="42.904321" lon="-8.389757">
        <ele>261.909</ele>
        <time>2022-08-24T05:41:13Z</time>
      </trkpt>
      <trkpt lat="42.904343" lon="-8.389820">
        <ele>261.647</ele>
        <time>2022-08-24T05:41:16Z</time>
      </trkpt>
      <trkpt lat="42.904367" lon="-8.389889">
        <ele>261.397</ele>
        <time>2022-08-24T05:41:20Z</time>
      </trkpt>
      <trkpt lat="42.904380" lon="-8.389966">
        <ele>260.977</ele>
        <time>2022-08-24T05:41:24Z</time>
      </trkpt>
      <trkpt lat="42.904391" lon="-8.390045">
        <ele>260.742</ele>
        <time>2022-08-24T05:41:28Z</time>
      </trkpt>
      <trkpt lat="42.904400" lon="-8.390115">
        <ele>260.530</ele>
        <time>2022-08-24T05:41:32Z</time>
      </trkpt>
      <trkpt lat="42.904403" lon="-8.390199">
        <ele>260.270</ele>
        <time>2022-08-24T05:41:36Z</time>
      </trkpt>
      <trkpt lat="42.904410" lon="-8.390267">
        <ele>260.094</ele>
        <time>2022-08-24T05:41:40Z</time>
      </trkpt>
      <trkpt lat="42.904407" lon="-8.390331">
        <ele>259.899</ele>
        <time>2022-08-24T05:41:44Z</time>
      </trkpt>
      <trkpt lat="42.904409" lon="-8.390398">
        <ele>259.753</ele>
        <time>2022-08-24T05:41:48Z</time>
      </trkpt>
      <trkpt lat="42.904409" lon="-8.390471">
        <ele>259.596</ele>
        <time>2022-08-24T05:41:52Z</time>
      </trkpt>
      <trkpt lat="42.904401" lon="-8.390544">
        <ele>259.231</ele>
        <time>2022-08-24T05:41:56Z</time>
      </trkpt>
      <trkpt lat="42.904405" lon="-8.390609">
        <ele>258.924</ele>
        <time>2022-08-24T05:42:00Z</time>
      </trkpt>
      <trkpt lat="42.904405" lon="-8.390682">
        <ele>258.709</ele>
        <time>2022-08-24T05:42:04Z</time>
      </trkpt>
      <trkpt lat="42.904400" lon="-8.390752">
        <ele>258.430</ele>
        <time>2022-08-24T05:42:08Z</time>
      </trkpt>
      <trkpt lat="42.904407" lon="-8.390816">
        <ele>258.030</ele>
        <time>2022-08-24T05:42:12Z</time>
      </trkpt>
      <trkpt lat="42.904426" lon="-8.390884">
        <ele>257.620</ele>
        <time>2022-08-24T05:42:16Z</time>
      </trkpt>
      <trkpt lat="42.904460" lon="-8.390933">
        <ele>257.275</ele>
        <time>2022-08-24T05:42:20Z</time>
      </trkpt>
      <trkpt lat="42.904495" lon="-8.390975">
        <ele>256.753</ele>
        <time>2022-08-24T05:42:23Z</time>
      </trkpt>
      <trkpt lat="42.904533" lon="-8.391035">
        <ele>256.173</ele>
        <time>2022-08-24T05:42:27Z</time>
      </trkpt>
      <trkpt lat="42.904569" lon="-8.391089">
        <ele>255.647</ele>
        <time>2022-08-24T05:42:31Z</time>
      </trkpt>
      <trkpt lat="42.904614" lon="-8.391126">
        <ele>255.092</ele>
        <time>2022-08-24T05:42:35Z</time>
      </trkpt>
      <trkpt lat="42.904660" lon="-8.391147">
        <ele>254.256</ele>
        <time>2022-08-24T05:42:39Z</time>
      </trkpt>
      <trkpt lat="42.904710" lon="-8.391122">
        <ele>253.649</ele>
        <time>2022-08-24T05:42:44Z</time>
      </trkpt>
      <trkpt lat="42.904766" lon="-8.391123">
        <ele>253.202</ele>
        <time>2022-08-24T05:42:48Z</time>
      </trkpt>
      <trkpt lat="42.904812" lon="-8.391129">
        <ele>252.922</ele>
        <time>2022-08-24T05:42:51Z</time>
      </trkpt>
      <trkpt lat="42.904862" lon="-8.391164">
        <ele>252.609</ele>
        <time>2022-08-24T05:42:56Z</time>
      </trkpt>
      <trkpt lat="42.904908" lon="-8.391189">
        <ele>252.445</ele>
        <time>2022-08-24T05:43:00Z</time>
      </trkpt>
      <trkpt lat="42.904949" lon="-8.391223">
        <ele>252.255</ele>
        <time>2022-08-24T05:43:04Z</time>
      </trkpt>
      <trkpt lat="42.904991" lon="-8.391263">
        <ele>252.125</ele>
        <time>2022-08-24T05:43:08Z</time>
      </trkpt>
      <trkpt lat="42.905038" lon="-8.391305">
        <ele>252.030</ele>
        <time>2022-08-24T05:43:12Z</time>
      </trkpt>
      <trkpt lat="42.905082" lon="-8.391346">
        <ele>251.958</ele>
        <time>2022-08-24T05:43:16Z</time>
      </trkpt>
      <trkpt lat="42.905124" lon="-8.391389">
        <ele>251.898</ele>
        <time>2022-08-24T05:43:22Z</time>
      </trkpt>
      <trkpt lat="42.905164" lon="-8.391431">
        <ele>251.822</ele>
        <time>2022-08-24T05:43:26Z</time>
      </trkpt>
      <trkpt lat="42.905211" lon="-8.391475">
        <ele>251.737</ele>
        <time>2022-08-24T05:43:30Z</time>
      </trkpt>
      <trkpt lat="42.905249" lon="-8.391518">
        <ele>251.751</ele>
        <time>2022-08-24T05:43:34Z</time>
      </trkpt>
      <trkpt lat="42.905283" lon="-8.391564">
        <ele>251.723</ele>
        <time>2022-08-24T05:43:37Z</time>
      </trkpt>
      <trkpt lat="42.905314" lon="-8.391612">
        <ele>251.783</ele>
        <time>2022-08-24T05:43:41Z</time>
      </trkpt>
      <trkpt lat="42.905345" lon="-8.391677">
        <ele>251.711</ele>
        <time>2022-08-24T05:43:45Z</time>
      </trkpt>
      <trkpt lat="42.905368" lon="-8.391731">
        <ele>251.709</ele>
        <time>2022-08-24T05:43:48Z</time>
      </trkpt>
      <trkpt lat="42.905391" lon="-8.391788">
        <ele>251.783</ele>
        <time>2022-08-24T05:43:51Z</time>
      </trkpt>
      <trkpt lat="42.905417" lon="-8.391842">
        <ele>251.633</ele>
        <time>2022-08-24T05:43:54Z</time>
      </trkpt>
      <trkpt lat="42.905438" lon="-8.391902">
        <ele>251.583</ele>
        <time>2022-08-24T05:43:58Z</time>
      </trkpt>
      <trkpt lat="42.905461" lon="-8.391972">
        <ele>251.598</ele>
        <time>2022-08-24T05:44:02Z</time>
      </trkpt>
      <trkpt lat="42.905493" lon="-8.392035">
        <ele>251.456</ele>
        <time>2022-08-24T05:44:06Z</time>
      </trkpt>
      <trkpt lat="42.905516" lon="-8.392100">
        <ele>251.446</ele>
        <time>2022-08-24T05:44:10Z</time>
      </trkpt>
      <trkpt lat="42.905535" lon="-8.392165">
        <ele>251.470</ele>
        <time>2022-08-24T05:44:15Z</time>
      </trkpt>
      <trkpt lat="42.905566" lon="-8.392232">
        <ele>251.445</ele>
        <time>2022-08-24T05:44:19Z</time>
      </trkpt>
      <trkpt lat="42.905582" lon="-8.392293">
        <ele>251.479</ele>
        <time>2022-08-24T05:44:23Z</time>
      </trkpt>
      <trkpt lat="42.905610" lon="-8.392342">
        <ele>251.459</ele>
        <time>2022-08-24T05:44:27Z</time>
      </trkpt>
      <trkpt lat="42.905635" lon="-8.392409">
        <ele>251.403</ele>
        <time>2022-08-24T05:44:32Z</time>
      </trkpt>
      <trkpt lat="42.905668" lon="-8.392480">
        <ele>251.423</ele>
        <time>2022-08-24T05:44:36Z</time>
      </trkpt>
      <trkpt lat="42.905689" lon="-8.392560">
        <ele>251.409</ele>
        <time>2022-08-24T05:44:41Z</time>
      </trkpt>
      <trkpt lat="42.905717" lon="-8.392613">
        <ele>251.416</ele>
        <time>2022-08-24T05:44:45Z</time>
      </trkpt>
      <trkpt lat="42.905738" lon="-8.392682">
        <ele>251.596</ele>
        <time>2022-08-24T05:44:50Z</time>
      </trkpt>
      <trkpt lat="42.905750" lon="-8.392746">
        <ele>251.566</ele>
        <time>2022-08-24T05:44:53Z</time>
      </trkpt>
      <trkpt lat="42.905769" lon="-8.392811">
        <ele>251.521</ele>
        <time>2022-08-24T05:44:56Z</time>
      </trkpt>
      <trkpt lat="42.905772" lon="-8.392895">
        <ele>251.569</ele>
        <time>2022-08-24T05:45:00Z</time>
      </trkpt>
      <trkpt lat="42.905790" lon="-8.392959">
        <ele>251.599</ele>
        <time>2022-08-24T05:45:03Z</time>
      </trkpt>
      <trkpt lat="42.905803" lon="-8.393021">
        <ele>251.593</ele>
        <time>2022-08-24T05:45:06Z</time>
      </trkpt>
      <trkpt lat="42.905827" lon="-8.393088">
        <ele>251.538</ele>
        <time>2022-08-24T05:45:09Z</time>
      </trkpt>
      <trkpt lat="42.905866" lon="-8.393151">
        <ele>251.522</ele>
        <time>2022-08-24T05:45:13Z</time>
      </trkpt>
      <trkpt lat="42.905901" lon="-8.393211">
        <ele>251.556</ele>
        <time>2022-08-24T05:45:17Z</time>
      </trkpt>
      <trkpt lat="42.905925" lon="-8.393263">
        <ele>251.659</ele>
        <time>2022-08-24T05:45:20Z</time>
      </trkpt>
      <trkpt lat="42.905950" lon="-8.393329">
        <ele>251.714</ele>
        <time>2022-08-24T05:45:24Z</time>
      </trkpt>
      <trkpt lat="42.905963" lon="-8.393398">
        <ele>251.709</ele>
        <time>2022-08-24T05:45:28Z</time>
      </trkpt>
      <trkpt lat="42.905953" lon="-8.393469">
        <ele>251.746</ele>
        <time>2022-08-24T05:45:32Z</time>
      </trkpt>
      <trkpt lat="42.905940" lon="-8.393539">
        <ele>251.796</ele>
        <time>2022-08-24T05:45:36Z</time>
      </trkpt>
      <trkpt lat="42.905925" lon="-8.393599">
        <ele>251.756</ele>
        <time>2022-08-24T05:45:40Z</time>
      </trkpt>
      <trkpt lat="42.905905" lon="-8.393674">
        <ele>251.721</ele>
        <time>2022-08-24T05:45:44Z</time>
      </trkpt>
      <trkpt lat="42.905892" lon="-8.393733">
        <ele>251.799</ele>
        <time>2022-08-24T05:45:47Z</time>
      </trkpt>
      <trkpt lat="42.905882" lon="-8.393803">
        <ele>251.439</ele>
        <time>2022-08-24T05:45:52Z</time>
      </trkpt>
      <trkpt lat="42.905887" lon="-8.393876">
        <ele>251.093</ele>
        <time>2022-08-24T05:45:58Z</time>
      </trkpt>
      <trkpt lat="42.905877" lon="-8.393949">
        <ele>250.718</ele>
        <time>2022-08-24T05:46:00Z</time>
      </trkpt>
      <trkpt lat="42.905891" lon="-8.394017">
        <ele>250.622</ele>
        <time>2022-08-24T05:46:02Z</time>
      </trkpt>
      <trkpt lat="42.905918" lon="-8.394071">
        <ele>250.676</ele>
        <time>2022-08-24T05:46:07Z</time>
      </trkpt>
      <trkpt lat="42.905936" lon="-8.394135">
        <ele>250.690</ele>
        <time>2022-08-24T05:46:12Z</time>
      </trkpt>
      <trkpt lat="42.905953" lon="-8.394196">
        <ele>250.919</ele>
        <time>2022-08-24T05:46:17Z</time>
      </trkpt>
      <trkpt lat="42.905962" lon="-8.394263">
        <ele>251.709</ele>
        <time>2022-08-24T05:46:23Z</time>
      </trkpt>
      <trkpt lat="42.905964" lon="-8.394332">
        <ele>252.568</ele>
        <time>2022-08-24T05:46:30Z</time>
      </trkpt>
      <trkpt lat="42.905959" lon="-8.394409">
        <ele>253.328</ele>
        <time>2022-08-24T05:46:35Z</time>
      </trkpt>
      <trkpt lat="42.905948" lon="-8.394471">
        <ele>254.018</ele>
        <time>2022-08-24T05:46:40Z</time>
      </trkpt>
      <trkpt lat="42.905926" lon="-8.394544">
        <ele>254.453</ele>
        <time>2022-08-24T05:46:47Z</time>
      </trkpt>
      <trkpt lat="42.905914" lon="-8.394620">
        <ele>254.751</ele>
        <time>2022-08-24T05:46:52Z</time>
      </trkpt>
      <trkpt lat="42.905892" lon="-8.394677">
        <ele>255.131</ele>
        <time>2022-08-24T05:46:56Z</time>
      </trkpt>
      <trkpt lat="42.905863" lon="-8.394741">
        <ele>255.495</ele>
        <time>2022-08-24T05:47:02Z</time>
      </trkpt>
      <trkpt lat="42.905841" lon="-8.394817">
        <ele>255.880</ele>
        <time>2022-08-24T05:47:06Z</time>
      </trkpt>
      <trkpt lat="42.905835" lon="-8.394886">
        <ele>256.054</ele>
        <time>2022-08-24T05:47:11Z</time>
      </trkpt>
      <trkpt lat="42.905808" lon="-8.394941">
        <ele>256.158</ele>
        <time>2022-08-24T05:47:15Z</time>
      </trkpt>
      <trkpt lat="42.905794" lon="-8.395005">
        <ele>256.352</ele>
        <time>2022-08-24T05:47:20Z</time>
      </trkpt>
      <trkpt lat="42.905768" lon="-8.395072">
        <ele>256.517</ele>
        <time>2022-08-24T05:47:25Z</time>
      </trkpt>
      <trkpt lat="42.905749" lon="-8.395134">
        <ele>256.609</ele>
        <time>2022-08-24T05:47:29Z</time>
      </trkpt>
      <trkpt lat="42.905754" lon="-8.395195">
        <ele>256.816</ele>
        <time>2022-08-24T05:47:34Z</time>
      </trkpt>
      <trkpt lat="42.905733" lon="-8.395251">
        <ele>257.066</ele>
        <time>2022-08-24T05:47:37Z</time>
      </trkpt>
      <trkpt lat="42.905740" lon="-8.395328">
        <ele>257.276</ele>
        <time>2022-08-24T05:47:41Z</time>
      </trkpt>
      <trkpt lat="42.905728" lon="-8.395390">
        <ele>257.311</ele>
        <time>2022-08-24T05:47:44Z</time>
      </trkpt>
      <trkpt lat="42.905722" lon="-8.395453">
        <ele>257.499</ele>
        <time>2022-08-24T05:47:46Z</time>
      </trkpt>
      <trkpt lat="42.905719" lon="-8.395520">
        <ele>257.569</ele>
        <time>2022-08-24T05:47:49Z</time>
      </trkpt>
      <trkpt lat="42.905708" lon="-8.395590">
        <ele>257.623</ele>
        <time>2022-08-24T05:47:52Z</time>
      </trkpt>
      <trkpt lat="42.905703" lon="-8.395668">
        <ele>257.798</ele>
        <time>2022-08-24T05:47:55Z</time>
      </trkpt>
      <trkpt lat="42.905691" lon="-8.395735">
        <ele>257.972</ele>
        <time>2022-08-24T05:47:59Z</time>
      </trkpt>
      <trkpt lat="42.905698" lon="-8.395807">
        <ele>258.149</ele>
        <time>2022-08-24T05:48:06Z</time>
      </trkpt>
      <trkpt lat="42.905703" lon="-8.395878">
        <ele>258.302</ele>
        <time>2022-08-24T05:48:12Z</time>
      </trkpt>
      <trkpt lat="42.905692" lon="-8.395942">
        <ele>258.722</ele>
        <time>2022-08-24T05:48:16Z</time>
      </trkpt>
      <trkpt lat="42.905666" lon="-8.396010">
        <ele>259.409</ele>
        <time>2022-08-24T05:48:20Z</time>
      </trkpt>
      <trkpt lat="42.905649" lon="-8.396084">
        <ele>260.025</ele>
        <time>2022-08-24T05:48:23Z</time>
      </trkpt>
      <trkpt lat="42.905649" lon="-8.396147">
        <ele>260.495</ele>
        <time>2022-08-24T05:48:26Z</time>
      </trkpt>
      <trkpt lat="42.905626" lon="-8.396223">
        <ele>260.775</ele>
        <time>2022-08-24T05:48:31Z</time>
      </trkpt>
      <trkpt lat="42.905614" lon="-8.396282">
        <ele>260.930</ele>
        <time>2022-08-24T05:48:34Z</time>
      </trkpt>
      <trkpt lat="42.905616" lon="-8.396350">
        <ele>261.398</ele>
        <time>2022-08-24T05:48:39Z</time>
      </trkpt>
      <trkpt lat="42.905614" lon="-8.396432">
        <ele>261.738</ele>
        <time>2022-08-24T05:48:43Z</time>
      </trkpt>
      <trkpt lat="42.905605" lon="-8.396495">
        <ele>262.062</ele>
        <time>2022-08-24T05:48:48Z</time>
      </trkpt>
      <trkpt lat="42.905608" lon="-8.396565">
        <ele>262.387</ele>
        <time>2022-08-24T05:48:53Z</time>
      </trkpt>
      <trkpt lat="42.905590" lon="-8.396623">
        <ele>262.681</ele>
        <time>2022-08-24T05:48:56Z</time>
      </trkpt>
      <trkpt lat="42.905586" lon="-8.396687">
        <ele>262.978</ele>
        <time>2022-08-24T05:49:00Z</time>
      </trkpt>
      <trkpt lat="42.905579" lon="-8.396767">
        <ele>263.233</ele>
        <time>2022-08-24T05:49:04Z</time>
      </trkpt>
      <trkpt lat="42.905570" lon="-8.396828">
        <ele>263.526</ele>
        <time>2022-08-24T05:49:08Z</time>
      </trkpt>
      <trkpt lat="42.905558" lon="-8.396900">
        <ele>263.909</ele>
        <time>2022-08-24T05:49:13Z</time>
      </trkpt>
      <trkpt lat="42.905555" lon="-8.396975">
        <ele>264.328</ele>
        <time>2022-08-24T05:49:18Z</time>
      </trkpt>
      <trkpt lat="42.905551" lon="-8.397038">
        <ele>264.858</ele>
        <time>2022-08-24T05:49:22Z</time>
      </trkpt>
      <trkpt lat="42.905541" lon="-8.397117">
        <ele>265.378</ele>
        <time>2022-08-24T05:49:26Z</time>
      </trkpt>
      <trkpt lat="42.905524" lon="-8.397192">
        <ele>266.053</ele>
        <time>2022-08-24T05:49:30Z</time>
      </trkpt>
      <trkpt lat="42.905531" lon="-8.397264">
        <ele>266.571</ele>
        <time>2022-08-24T05:49:35Z</time>
      </trkpt>
      <trkpt lat="42.905517" lon="-8.397328">
        <ele>266.851</ele>
        <time>2022-08-24T05:49:39Z</time>
      </trkpt>
      <trkpt lat="42.905518" lon="-8.397395">
        <ele>267.495</ele>
        <time>2022-08-24T05:49:43Z</time>
      </trkpt>
      <trkpt lat="42.905521" lon="-8.397459">
        <ele>268.180</ele>
        <time>2022-08-24T05:49:47Z</time>
      </trkpt>
      <trkpt lat="42.905520" lon="-8.397522">
        <ele>268.794</ele>
        <time>2022-08-24T05:49:51Z</time>
      </trkpt>
      <trkpt lat="42.905518" lon="-8.397586">
        <ele>269.417</ele>
        <time>2022-08-24T05:49:58Z</time>
      </trkpt>
      <trkpt lat="42.905509" lon="-8.397653">
        <ele>270.187</ele>
        <time>2022-08-24T05:50:03Z</time>
      </trkpt>
      <trkpt lat="42.905509" lon="-8.397728">
        <ele>271.315</ele>
        <time>2022-08-24T05:50:07Z</time>
      </trkpt>
      <trkpt lat="42.905522" lon="-8.397792">
        <ele>272.609</ele>
        <time>2022-08-24T05:50:13Z</time>
      </trkpt>
      <trkpt lat="42.905549" lon="-8.397843">
        <ele>273.592</ele>
        <time>2022-08-24T05:50:17Z</time>
      </trkpt>
      <trkpt lat="42.905582" lon="-8.397892">
        <ele>274.472</ele>
        <time>2022-08-24T05:50:22Z</time>
      </trkpt>
      <trkpt lat="42.905622" lon="-8.397945">
        <ele>275.322</ele>
        <time>2022-08-24T05:50:28Z</time>
      </trkpt>
      <trkpt lat="42.905671" lon="-8.397984">
        <ele>276.027</ele>
        <time>2022-08-24T05:50:34Z</time>
      </trkpt>
      <trkpt lat="42.905725" lon="-8.398001">
        <ele>276.895</ele>
        <time>2022-08-24T05:50:40Z</time>
      </trkpt>
      <trkpt lat="42.905775" lon="-8.398029">
        <ele>277.735</ele>
        <time>2022-08-24T05:50:44Z</time>
      </trkpt>
      <trkpt lat="42.905812" lon="-8.398068">
        <ele>278.039</ele>
        <time>2022-08-24T05:50:47Z</time>
      </trkpt>
      <trkpt lat="42.905849" lon="-8.398120">
        <ele>278.554</ele>
        <time>2022-08-24T05:50:51Z</time>
      </trkpt>
      <trkpt lat="42.905886" lon="-8.398167">
        <ele>278.968</ele>
        <time>2022-08-24T05:50:55Z</time>
      </trkpt>
      <trkpt lat="42.905908" lon="-8.398222">
        <ele>279.415</ele>
        <time>2022-08-24T05:50:59Z</time>
      </trkpt>
      <trkpt lat="42.905939" lon="-8.398280">
        <ele>279.965</ele>
        <time>2022-08-24T05:51:04Z</time>
      </trkpt>
      <trkpt lat="42.905965" lon="-8.398344">
        <ele>280.411</ele>
        <time>2022-08-24T05:51:09Z</time>
      </trkpt>
      <trkpt lat="42.905993" lon="-8.398396">
        <ele>281.009</ele>
        <time>2022-08-24T05:51:14Z</time>
      </trkpt>
      <trkpt lat="42.906014" lon="-8.398450">
        <ele>281.772</ele>
        <time>2022-08-24T05:51:18Z</time>
      </trkpt>
      <trkpt lat="42.906039" lon="-8.398506">
        <ele>282.532</ele>
        <time>2022-08-24T05:51:22Z</time>
      </trkpt>
      <trkpt lat="42.906063" lon="-8.398559">
        <ele>283.232</ele>
        <time>2022-08-24T05:51:26Z</time>
      </trkpt>
      <trkpt lat="42.906089" lon="-8.398624">
        <ele>283.867</ele>
        <time>2022-08-24T05:51:31Z</time>
      </trkpt>
      <trkpt lat="42.906112" lon="-8.398680">
        <ele>284.445</ele>
        <time>2022-08-24T05:51:36Z</time>
      </trkpt>
      <trkpt lat="42.906143" lon="-8.398743">
        <ele>285.075</ele>
        <time>2022-08-24T05:51:41Z</time>
      </trkpt>
      <trkpt lat="42.906171" lon="-8.398802">
        <ele>285.739</ele>
        <time>2022-08-24T05:51:46Z</time>
      </trkpt>
      <trkpt lat="42.906190" lon="-8.398858">
        <ele>286.394</ele>
        <time>2022-08-24T05:51:50Z</time>
      </trkpt>
      <trkpt lat="42.906208" lon="-8.398919">
        <ele>286.958</ele>
        <time>2022-08-24T05:51:55Z</time>
      </trkpt>
      <trkpt lat="42.906239" lon="-8.398986">
        <ele>287.333</ele>
        <time>2022-08-24T05:52:00Z</time>
      </trkpt>
      <trkpt lat="42.906257" lon="-8.399054">
        <ele>287.723</ele>
        <time>2022-08-24T05:52:04Z</time>
      </trkpt>
      <trkpt lat="42.906278" lon="-8.399115">
        <ele>288.015</ele>
        <time>2022-08-24T05:52:08Z</time>
      </trkpt>
      <trkpt lat="42.906299" lon="-8.399173">
        <ele>288.209</ele>
        <time>2022-08-24T05:52:12Z</time>
      </trkpt>
      <trkpt lat="42.906326" lon="-8.399228">
        <ele>288.454</ele>
        <time>2022-08-24T05:52:16Z</time>
      </trkpt>
      <trkpt lat="42.906342" lon="-8.399287">
        <ele>288.694</ele>
        <time>2022-08-24T05:52:19Z</time>
      </trkpt>
      <trkpt lat="42.906364" lon="-8.399361">
        <ele>288.874</ele>
        <time>2022-08-24T05:52:26Z</time>
      </trkpt>
      <trkpt lat="42.906398" lon="-8.399425">
        <ele>289.019</ele>
        <time>2022-08-24T05:52:32Z</time>
      </trkpt>
      <trkpt lat="42.906402" lon="-8.399493">
        <ele>289.497</ele>
        <time>2022-08-24T05:52:36Z</time>
      </trkpt>
      <trkpt lat="42.906410" lon="-8.399555">
        <ele>289.927</ele>
        <time>2022-08-24T05:52:41Z</time>
      </trkpt>
      <trkpt lat="42.906400" lon="-8.399635">
        <ele>290.551</ele>
        <time>2022-08-24T05:52:46Z</time>
      </trkpt>
      <trkpt lat="42.906404" lon="-8.399697">
        <ele>290.746</ele>
        <time>2022-08-24T05:52:50Z</time>
      </trkpt>
      <trkpt lat="42.906410" lon="-8.399760">
        <ele>291.030</ele>
        <time>2022-08-24T05:52:53Z</time>
      </trkpt>
      <trkpt lat="42.906405" lon="-8.399821">
        <ele>291.382</ele>
        <time>2022-08-24T05:52:57Z</time>
      </trkpt>
      <trkpt lat="42.906392" lon="-8.399896">
        <ele>291.543</ele>
        <time>2022-08-24T05:53:02Z</time>
      </trkpt>
      <trkpt lat="42.906366" lon="-8.399962">
        <ele>291.717</ele>
        <time>2022-08-24T05:53:06Z</time>
      </trkpt>
      <trkpt lat="42.906353" lon="-8.400044">
        <ele>292.009</ele>
        <time>2022-08-24T05:53:11Z</time>
      </trkpt>
      <trkpt lat="42.906318" lon="-8.400109">
        <ele>292.299</ele>
        <time>2022-08-24T05:53:14Z</time>
      </trkpt>
      <trkpt lat="42.906297" lon="-8.400180">
        <ele>292.489</ele>
        <time>2022-08-24T05:53:18Z</time>
      </trkpt>
      <trkpt lat="42.906292" lon="-8.400251">
        <ele>292.569</ele>
        <time>2022-08-24T05:53:21Z</time>
      </trkpt>
      <trkpt lat="42.906290" lon="-8.400320">
        <ele>292.784</ele>
        <time>2022-08-24T05:53:26Z</time>
      </trkpt>
      <trkpt lat="42.906284" lon="-8.400393">
        <ele>292.922</ele>
        <time>2022-08-24T05:53:32Z</time>
      </trkpt>
      <trkpt lat="42.906269" lon="-8.400463">
        <ele>293.072</ele>
        <time>2022-08-24T05:53:36Z</time>
      </trkpt>
      <trkpt lat="42.906253" lon="-8.400533">
        <ele>293.366</ele>
        <time>2022-08-24T05:53:39Z</time>
      </trkpt>
      <trkpt lat="42.906237" lon="-8.400593">
        <ele>293.691</ele>
        <time>2022-08-24T05:53:42Z</time>
      </trkpt>
      <trkpt lat="42.906213" lon="-8.400658">
        <ele>293.825</ele>
        <time>2022-08-24T05:53:46Z</time>
      </trkpt>
      <trkpt lat="42.906183" lon="-8.400718">
        <ele>293.954</ele>
        <time>2022-08-24T05:53:50Z</time>
      </trkpt>
      <trkpt lat="42.906158" lon="-8.400783">
        <ele>294.156</ele>
        <time>2022-08-24T05:53:54Z</time>
      </trkpt>
      <trkpt lat="42.906153" lon="-8.400853">
        <ele>294.411</ele>
        <time>2022-08-24T05:53:58Z</time>
      </trkpt>
      <trkpt lat="42.906135" lon="-8.400912">
        <ele>294.709</ele>
        <time>2022-08-24T05:54:02Z</time>
      </trkpt>
      <trkpt lat="42.906114" lon="-8.400968">
        <ele>294.916</ele>
        <time>2022-08-24T05:54:06Z</time>
      </trkpt>
      <trkpt lat="42.906099" lon="-8.401027">
        <ele>295.196</ele>
        <time>2022-08-24T05:54:10Z</time>
      </trkpt>
      <trkpt lat="42.906083" lon="-8.401087">
        <ele>295.346</ele>
        <time>2022-08-24T05:54:13Z</time>
      </trkpt>
      <trkpt lat="42.906066" lon="-8.401153">
        <ele>295.571</ele>
        <time>2022-08-24T05:54:17Z</time>
      </trkpt>
      <trkpt lat="42.906054" lon="-8.401228">
        <ele>295.619</ele>
        <time>2022-08-24T05:54:23Z</time>
      </trkpt>
      <trkpt lat="42.906053" lon="-8.401305">
        <ele>295.639</ele>
        <time>2022-08-24T05:54:28Z</time>
      </trkpt>
      <trkpt lat="42.906061" lon="-8.401385">
        <ele>295.683</ele>
        <time>2022-08-24T05:54:31Z</time>
      </trkpt>
      <trkpt lat="42.906061" lon="-8.401451">
        <ele>295.798</ele>
        <time>2022-08-24T05:54:34Z</time>
      </trkpt>
      <trkpt lat="42.906061" lon="-8.401516">
        <ele>295.742</ele>
        <time>2022-08-24T05:54:37Z</time>
      </trkpt>
      <trkpt lat="42.906057" lon="-8.401580">
        <ele>295.879</ele>
        <time>2022-08-24T05:54:41Z</time>
      </trkpt>
      <trkpt lat="42.906061" lon="-8.401648">
        <ele>295.805</ele>
        <time>2022-08-24T05:54:45Z</time>
      </trkpt>
      <trkpt lat="42.906061" lon="-8.401722">
        <ele>295.825</ele>
        <time>2022-08-24T05:54:50Z</time>
      </trkpt>
      <trkpt lat="42.906065" lon="-8.401804">
        <ele>295.809</ele>
        <time>2022-08-24T05:54:56Z</time>
      </trkpt>
      <trkpt lat="42.906085" lon="-8.401863">
        <ele>295.928</ele>
        <time>2022-08-24T05:55:00Z</time>
      </trkpt>
      <trkpt lat="42.906099" lon="-8.401930">
        <ele>296.188</ele>
        <time>2022-08-24T05:55:03Z</time>
      </trkpt>
      <trkpt lat="42.906131" lon="-8.401981">
        <ele>296.438</ele>
        <time>2022-08-24T05:55:07Z</time>
      </trkpt>
      <trkpt lat="42.906157" lon="-8.402051">
        <ele>296.653</ele>
        <time>2022-08-24T05:55:11Z</time>
      </trkpt>
      <trkpt lat="42.906165" lon="-8.402113">
        <ele>296.941</ele>
        <time>2022-08-24T05:55:14Z</time>
      </trkpt>
      <trkpt lat="42.906187" lon="-8.402171">
        <ele>297.341</ele>
        <time>2022-08-24T05:55:17Z</time>
      </trkpt>
      <trkpt lat="42.906193" lon="-8.402235">
        <ele>297.765</ele>
        <time>2022-08-24T05:55:22Z</time>
      </trkpt>
      <trkpt lat="42.906167" lon="-8.402300">
        <ele>298.230</ele>
        <time>2022-08-24T05:55:27Z</time>
      </trkpt>
      <trkpt lat="42.906135" lon="-8.402360">
        <ele>298.794</ele>
        <time>2022-08-24T05:55:32Z</time>
      </trkpt>
      <trkpt lat="42.906115" lon="-8.402419">
        <ele>299.034</ele>
        <time>2022-08-24T05:55:37Z</time>
      </trkpt>
      <trkpt lat="42.906083" lon="-8.402481">
        <ele>299.155</ele>
        <time>2022-08-24T05:55:42Z</time>
      </trkpt>
      <trkpt lat="42.906048" lon="-8.402539">
        <ele>299.210</ele>
        <time>2022-08-24T05:55:46Z</time>
      </trkpt>
      <trkpt lat="42.906018" lon="-8.402589">
        <ele>299.309</ele>
        <time>2022-08-24T05:55:51Z</time>
      </trkpt>
      <trkpt lat="42.905975" lon="-8.402639">
        <ele>299.544</ele>
        <time>2022-08-24T05:55:55Z</time>
      </trkpt>
      <trkpt lat="42.905948" lon="-8.402698">
        <ele>299.724</ele>
        <time>2022-08-24T05:55:59Z</time>
      </trkpt>
      <trkpt lat="42.905912" lon="-8.402739">
        <ele>300.024</ele>
        <time>2022-08-24T05:56:03Z</time>
      </trkpt>
      <trkpt lat="42.905892" lon="-8.402802">
        <ele>300.479</ele>
        <time>2022-08-24T05:56:08Z</time>
      </trkpt>
      <trkpt lat="42.905875" lon="-8.402860">
        <ele>300.897</ele>
        <time>2022-08-24T05:56:12Z</time>
      </trkpt>
      <trkpt lat="42.905862" lon="-8.402930">
        <ele>301.367</ele>
        <time>2022-08-24T05:56:17Z</time>
      </trkpt>
      <trkpt lat="42.905850" lon="-8.402996">
        <ele>301.831</ele>
        <time>2022-08-24T05:56:21Z</time>
      </trkpt>
      <trkpt lat="42.905838" lon="-8.403055">
        <ele>302.516</ele>
        <time>2022-08-24T05:56:26Z</time>
      </trkpt>
      <trkpt lat="42.905823" lon="-8.403129">
        <ele>303.280</ele>
        <time>2022-08-24T05:56:30Z</time>
      </trkpt>
      <trkpt lat="42.905810" lon="-8.403202">
        <ele>303.985</ele>
        <time>2022-08-24T05:56:34Z</time>
      </trkpt>
      <trkpt lat="42.905802" lon="-8.403266">
        <ele>304.789</ele>
        <time>2022-08-24T05:56:38Z</time>
      </trkpt>
      <trkpt lat="42.905794" lon="-8.403330">
        <ele>305.417</ele>
        <time>2022-08-24T05:56:42Z</time>
      </trkpt>
      <trkpt lat="42.905784" lon="-8.403400">
        <ele>305.909</ele>
        <time>2022-08-24T05:56:45Z</time>
      </trkpt>
      <trkpt lat="42.905766" lon="-8.403471">
        <ele>306.479</ele>
        <time>2022-08-24T05:56:49Z</time>
      </trkpt>
      <trkpt lat="42.905773" lon="-8.403546">
        <ele>306.869</ele>
        <time>2022-08-24T05:56:57Z</time>
      </trkpt>
      <trkpt lat="42.905769" lon="-8.403610">
        <ele>307.219</ele>
        <time>2022-08-24T05:57:00Z</time>
      </trkpt>
      <trkpt lat="42.905789" lon="-8.403675">
        <ele>307.954</ele>
        <time>2022-08-24T05:57:04Z</time>
      </trkpt>
      <trkpt lat="42.905771" lon="-8.403744">
        <ele>308.472</ele>
        <time>2022-08-24T05:57:09Z</time>
      </trkpt>
      <trkpt lat="42.905773" lon="-8.403820">
        <ele>308.792</ele>
        <time>2022-08-24T05:57:13Z</time>
      </trkpt>
      <trkpt lat="42.905773" lon="-8.403884">
        <ele>309.046</ele>
        <time>2022-08-24T05:57:19Z</time>
      </trkpt>
      <trkpt lat="42.905792" lon="-8.403972">
        <ele>309.541</ele>
        <time>2022-08-24T05:57:24Z</time>
      </trkpt>
      <trkpt lat="42.905823" lon="-8.404048">
        <ele>310.025</ele>
        <time>2022-08-24T05:57:27Z</time>
      </trkpt>
      <trkpt lat="42.905843" lon="-8.404115">
        <ele>310.514</ele>
        <time>2022-08-24T05:57:30Z</time>
      </trkpt>
      <trkpt lat="42.905859" lon="-8.404181">
        <ele>310.854</ele>
        <time>2022-08-24T05:57:34Z</time>
      </trkpt>
      <trkpt lat="42.905873" lon="-8.404242">
        <ele>311.109</ele>
        <time>2022-08-24T05:57:39Z</time>
      </trkpt>
      <trkpt lat="42.905896" lon="-8.404306">
        <ele>311.309</ele>
        <time>2022-08-24T05:57:42Z</time>
      </trkpt>
      <trkpt lat="42.905907" lon="-8.404384">
        <ele>311.812</ele>
        <time>2022-08-24T05:57:45Z</time>
      </trkpt>
      <trkpt lat="42.905925" lon="-8.404453">
        <ele>312.232</ele>
        <time>2022-08-24T05:57:49Z</time>
      </trkpt>
      <trkpt lat="42.905937" lon="-8.404519">
        <ele>312.692</ele>
        <time>2022-08-24T05:57:53Z</time>
      </trkpt>
      <trkpt lat="42.905934" lon="-8.404587">
        <ele>313.197</ele>
        <time>2022-08-24T05:57:57Z</time>
      </trkpt>
      <trkpt lat="42.905923" lon="-8.404661">
        <ele>313.645</ele>
        <time>2022-08-24T05:58:03Z</time>
      </trkpt>
      <trkpt lat="42.905913" lon="-8.404733">
        <ele>314.035</ele>
        <time>2022-08-24T05:58:08Z</time>
      </trkpt>
      <trkpt lat="42.905908" lon="-8.404802">
        <ele>314.559</ele>
        <time>2022-08-24T05:58:12Z</time>
      </trkpt>
      <trkpt lat="42.905910" lon="-8.404864">
        <ele>315.044</ele>
        <time>2022-08-24T05:58:16Z</time>
      </trkpt>
      <trkpt lat="42.905914" lon="-8.404940">
        <ele>315.478</ele>
        <time>2022-08-24T05:58:20Z</time>
      </trkpt>
      <trkpt lat="42.905917" lon="-8.405002">
        <ele>315.725</ele>
        <time>2022-08-24T05:58:24Z</time>
      </trkpt>
      <trkpt lat="42.905924" lon="-8.405081">
        <ele>316.026</ele>
        <time>2022-08-24T05:58:28Z</time>
      </trkpt>
      <trkpt lat="42.905928" lon="-8.405158">
        <ele>316.308</ele>
        <time>2022-08-24T05:58:32Z</time>
      </trkpt>
      <trkpt lat="42.905922" lon="-8.405223">
        <ele>316.609</ele>
        <time>2022-08-24T05:58:37Z</time>
      </trkpt>
      <trkpt lat="42.905921" lon="-8.405287">
        <ele>316.993</ele>
        <time>2022-08-24T05:58:40Z</time>
      </trkpt>
      <trkpt lat="42.905918" lon="-8.405352">
        <ele>317.353</ele>
        <time>2022-08-24T05:58:44Z</time>
      </trkpt>
      <trkpt lat="42.905915" lon="-8.405417">
        <ele>317.653</ele>
        <time>2022-08-24T05:58:48Z</time>
      </trkpt>
      <trkpt lat="42.905915" lon="-8.405490">
        <ele>317.918</ele>
        <time>2022-08-24T05:58:51Z</time>
      </trkpt>
      <trkpt lat="42.905911" lon="-8.405569">
        <ele>318.316</ele>
        <time>2022-08-24T05:58:55Z</time>
      </trkpt>
      <trkpt lat="42.905909" lon="-8.405635">
        <ele>318.666</ele>
        <time>2022-08-24T05:58:59Z</time>
      </trkpt>
      <trkpt lat="42.905903" lon="-8.405706">
        <ele>319.080</ele>
        <time>2022-08-24T05:59:03Z</time>
      </trkpt>
      <trkpt lat="42.905894" lon="-8.405770">
        <ele>319.555</ele>
        <time>2022-08-24T05:59:07Z</time>
      </trkpt>
      <trkpt lat="42.905888" lon="-8.405834">
        <ele>320.069</ele>
        <time>2022-08-24T05:59:10Z</time>
      </trkpt>
      <trkpt lat="42.905880" lon="-8.405903">
        <ele>320.578</ele>
        <time>2022-08-24T05:59:14Z</time>
      </trkpt>
      <trkpt lat="42.905881" lon="-8.405980">
        <ele>320.833</ele>
        <time>2022-08-24T05:59:19Z</time>
      </trkpt>
      <trkpt lat="42.905881" lon="-8.406045">
        <ele>321.126</ele>
        <time>2022-08-24T05:59:23Z</time>
      </trkpt>
      <trkpt lat="42.905891" lon="-8.406105">
        <ele>321.509</ele>
        <time>2022-08-24T05:59:27Z</time>
      </trkpt>
      <trkpt lat="42.905898" lon="-8.406179">
        <ele>321.948</ele>
        <time>2022-08-24T05:59:33Z</time>
      </trkpt>
      <trkpt lat="42.905899" lon="-8.406252">
        <ele>322.278</ele>
        <time>2022-08-24T05:59:37Z</time>
      </trkpt>
      <trkpt lat="42.905903" lon="-8.406320">
        <ele>322.748</ele>
        <time>2022-08-24T05:59:42Z</time>
      </trkpt>
      <trkpt lat="42.905900" lon="-8.406391">
        <ele>323.233</ele>
        <time>2022-08-24T05:59:47Z</time>
      </trkpt>
      <trkpt lat="42.905903" lon="-8.406474">
        <ele>324.011</ele>
        <time>2022-08-24T05:59:52Z</time>
      </trkpt>
      <trkpt lat="42.905906" lon="-8.406550">
        <ele>324.741</ele>
        <time>2022-08-24T05:59:56Z</time>
      </trkpt>
      <trkpt lat="42.905911" lon="-8.406621">
        <ele>325.445</ele>
        <time>2022-08-24T05:59:59Z</time>
      </trkpt>
      <trkpt lat="42.905896" lon="-8.406688">
        <ele>326.020</ele>
        <time>2022-08-24T06:00:03Z</time>
      </trkpt>
      <trkpt lat="42.905874" lon="-8.406744">
        <ele>326.284</ele>
        <time>2022-08-24T06:00:07Z</time>
      </trkpt>
      <trkpt lat="42.905850" lon="-8.406798">
        <ele>326.631</ele>
        <time>2022-08-24T06:00:12Z</time>
      </trkpt>
      <trkpt lat="42.905832" lon="-8.406864">
        <ele>327.061</ele>
        <time>2022-08-24T06:00:16Z</time>
      </trkpt>
      <trkpt lat="42.905842" lon="-8.406938">
        <ele>327.507</ele>
        <time>2022-08-24T06:00:19Z</time>
      </trkpt>
      <trkpt lat="42.905854" lon="-8.407001">
        <ele>327.909</ele>
        <time>2022-08-24T06:00:23Z</time>
      </trkpt>
      <trkpt lat="42.905871" lon="-8.407073">
        <ele>328.264</ele>
        <time>2022-08-24T06:00:29Z</time>
      </trkpt>
      <trkpt lat="42.905873" lon="-8.407145">
        <ele>328.584</ele>
        <time>2022-08-24T06:00:34Z</time>
      </trkpt>
      <trkpt lat="42.905882" lon="-8.407212">
        <ele>329.044</ele>
        <time>2022-08-24T06:00:38Z</time>
      </trkpt>
      <trkpt lat="42.905892" lon="-8.407277">
        <ele>329.629</ele>
        <time>2022-08-24T06:00:43Z</time>
      </trkpt>
      <trkpt lat="42.905890" lon="-8.407342">
        <ele>330.187</ele>
        <time>2022-08-24T06:00:46Z</time>
      </trkpt>
      <trkpt lat="42.905890" lon="-8.407406">
        <ele>330.777</ele>
        <time>2022-08-24T06:00:52Z</time>
      </trkpt>
      <trkpt lat="42.905881" lon="-8.407473">
        <ele>331.281</ele>
        <time>2022-08-24T06:00:57Z</time>
      </trkpt>
      <trkpt lat="42.905884" lon="-8.407542">
        <ele>331.716</ele>
        <time>2022-08-24T06:01:01Z</time>
      </trkpt>
      <trkpt lat="42.905874" lon="-8.407612">
        <ele>332.350</ele>
        <time>2022-08-24T06:01:06Z</time>
      </trkpt>
      <trkpt lat="42.905868" lon="-8.407679">
        <ele>332.862</ele>
        <time>2022-08-24T06:01:12Z</time>
      </trkpt>
      <trkpt lat="42.905858" lon="-8.407739">
        <ele>333.383</ele>
        <time>2022-08-24T06:01:17Z</time>
      </trkpt>
      <trkpt lat="42.905857" lon="-8.407810">
        <ele>334.111</ele>
        <time>2022-08-24T06:01:23Z</time>
      </trkpt>
      <trkpt lat="42.905862" lon="-8.407871">
        <ele>334.909</ele>
        <time>2022-08-24T06:01:26Z</time>
      </trkpt>
      <trkpt lat="42.905852" lon="-8.407945">
        <ele>335.517</ele>
        <time>2022-08-24T06:01:30Z</time>
      </trkpt>
      <trkpt lat="42.905837" lon="-8.408005">
        <ele>335.887</ele>
        <time>2022-08-24T06:01:35Z</time>
      </trkpt>
      <trkpt lat="42.905823" lon="-8.408073">
        <ele>336.077</ele>
        <time>2022-08-24T06:01:39Z</time>
      </trkpt>
      <trkpt lat="42.905801" lon="-8.408139">
        <ele>336.412</ele>
        <time>2022-08-24T06:01:43Z</time>
      </trkpt>
      <trkpt lat="42.905789" lon="-8.408213">
        <ele>336.840</ele>
        <time>2022-08-24T06:01:48Z</time>
      </trkpt>
      <trkpt lat="42.905770" lon="-8.408290">
        <ele>337.120</ele>
        <time>2022-08-24T06:01:53Z</time>
      </trkpt>
      <trkpt lat="42.905762" lon="-8.408352">
        <ele>337.464</ele>
        <time>2022-08-24T06:01:57Z</time>
      </trkpt>
      <trkpt lat="42.905765" lon="-8.408424">
        <ele>337.699</ele>
        <time>2022-08-24T06:02:01Z</time>
      </trkpt>
      <trkpt lat="42.905741" lon="-8.408501">
        <ele>337.863</ele>
        <time>2022-08-24T06:02:05Z</time>
      </trkpt>
      <trkpt lat="42.905765" lon="-8.408571">
        <ele>338.026</ele>
        <time>2022-08-24T06:02:09Z</time>
      </trkpt>
      <trkpt lat="42.905779" lon="-8.408633">
        <ele>338.147</ele>
        <time>2022-08-24T06:02:13Z</time>
      </trkpt>
      <trkpt lat="42.905800" lon="-8.408697">
        <ele>338.511</ele>
        <time>2022-08-24T06:02:16Z</time>
      </trkpt>
      <trkpt lat="42.905824" lon="-8.408757">
        <ele>338.609</ele>
        <time>2022-08-24T06:02:19Z</time>
      </trkpt>
      <trkpt lat="42.905851" lon="-8.408818">
        <ele>338.883</ele>
        <time>2022-08-24T06:02:22Z</time>
      </trkpt>
      <trkpt lat="42.905873" lon="-8.408873">
        <ele>338.953</ele>
        <time>2022-08-24T06:02:25Z</time>
      </trkpt>
      <trkpt lat="42.905900" lon="-8.408941">
        <ele>339.193</ele>
        <time>2022-08-24T06:02:29Z</time>
      </trkpt>
      <trkpt lat="42.905922" lon="-8.409000">
        <ele>339.318</ele>
        <time>2022-08-24T06:02:32Z</time>
      </trkpt>
      <trkpt lat="42.905950" lon="-8.409059">
        <ele>339.666</ele>
        <time>2022-08-24T06:02:36Z</time>
      </trkpt>
      <trkpt lat="42.905964" lon="-8.409126">
        <ele>339.896</ele>
        <time>2022-08-24T06:02:41Z</time>
      </trkpt>
      <trkpt lat="42.905978" lon="-8.409199">
        <ele>340.020</ele>
        <time>2022-08-24T06:02:47Z</time>
      </trkpt>
      <trkpt lat="42.905990" lon="-8.409274">
        <ele>340.255</ele>
        <time>2022-08-24T06:02:52Z</time>
      </trkpt>
      <trkpt lat="42.906025" lon="-8.409333">
        <ele>340.779</ele>
        <time>2022-08-24T06:02:57Z</time>
      </trkpt>
      <trkpt lat="42.906051" lon="-8.409392">
        <ele>340.914</ele>
        <time>2022-08-24T06:03:00Z</time>
      </trkpt>
      <trkpt lat="42.906083" lon="-8.409454">
        <ele>341.754</ele>
        <time>2022-08-24T06:03:04Z</time>
      </trkpt>
      <trkpt lat="42.906111" lon="-8.409520">
        <ele>342.009</ele>
        <time>2022-08-24T06:03:08Z</time>
      </trkpt>
      <trkpt lat="42.906137" lon="-8.409572">
        <ele>342.109</ele>
        <time>2022-08-24T06:03:11Z</time>
      </trkpt>
      <trkpt lat="42.906163" lon="-8.409631">
        <ele>342.362</ele>
        <time>2022-08-24T06:03:15Z</time>
      </trkpt>
      <trkpt lat="42.906177" lon="-8.409691">
        <ele>342.552</ele>
        <time>2022-08-24T06:03:20Z</time>
      </trkpt>
      <trkpt lat="42.906182" lon="-8.409761">
        <ele>342.862</ele>
        <time>2022-08-24T06:03:26Z</time>
      </trkpt>
      <trkpt lat="42.906187" lon="-8.409829">
        <ele>343.347</ele>
        <time>2022-08-24T06:03:31Z</time>
      </trkpt>
      <trkpt lat="42.906210" lon="-8.409883">
        <ele>343.945</ele>
        <time>2022-08-24T06:03:38Z</time>
      </trkpt>
      <trkpt lat="42.906222" lon="-8.409951">
        <ele>344.555</ele>
        <time>2022-08-24T06:03:44Z</time>
      </trkpt>
      <trkpt lat="42.906245" lon="-8.410018">
        <ele>345.079</ele>
        <time>2022-08-24T06:03:48Z</time>
      </trkpt>
      <trkpt lat="42.906272" lon="-8.410070">
        <ele>345.744</ele>
        <time>2022-08-24T06:03:52Z</time>
      </trkpt>
      <trkpt lat="42.906307" lon="-8.410131">
        <ele>346.398</ele>
        <time>2022-08-24T06:03:56Z</time>
      </trkpt>
      <trkpt lat="42.906337" lon="-8.410185">
        <ele>346.771</ele>
        <time>2022-08-24T06:04:00Z</time>
      </trkpt>
      <trkpt lat="42.906375" lon="-8.410231">
        <ele>347.041</ele>
        <time>2022-08-24T06:04:05Z</time>
      </trkpt>
      <trkpt lat="42.906404" lon="-8.410282">
        <ele>347.415</ele>
        <time>2022-08-24T06:04:09Z</time>
      </trkpt>
      <trkpt lat="42.906429" lon="-8.410333">
        <ele>347.909</ele>
        <time>2022-08-24T06:04:12Z</time>
      </trkpt>
      <trkpt lat="42.906463" lon="-8.410386">
        <ele>348.468</ele>
        <time>2022-08-24T06:04:15Z</time>
      </trkpt>
      <trkpt lat="42.906494" lon="-8.410431">
        <ele>348.928</ele>
        <time>2022-08-24T06:04:19Z</time>
      </trkpt>
      <trkpt lat="42.906525" lon="-8.410482">
        <ele>349.358</ele>
        <time>2022-08-24T06:04:23Z</time>
      </trkpt>
      <trkpt lat="42.906570" lon="-8.410522">
        <ele>349.723</ele>
        <time>2022-08-24T06:04:27Z</time>
      </trkpt>
      <trkpt lat="42.906615" lon="-8.410571">
        <ele>350.221</ele>
        <time>2022-08-24T06:04:31Z</time>
      </trkpt>
      <trkpt lat="42.906658" lon="-8.410596">
        <ele>350.691</ele>
        <time>2022-08-24T06:04:34Z</time>
      </trkpt>
      <trkpt lat="42.906717" lon="-8.410614">
        <ele>351.065</ele>
        <time>2022-08-24T06:04:39Z</time>
      </trkpt>
      <trkpt lat="42.906764" lon="-8.410635">
        <ele>351.370</ele>
        <time>2022-08-24T06:04:44Z</time>
      </trkpt>
      <trkpt lat="42.906809" lon="-8.410654">
        <ele>351.574</ele>
        <time>2022-08-24T06:04:48Z</time>
      </trkpt>
      <trkpt lat="42.906856" lon="-8.410688">
        <ele>351.738</ele>
        <time>2022-08-24T06:04:52Z</time>
      </trkpt>
      <trkpt lat="42.906903" lon="-8.410719">
        <ele>351.970</ele>
        <time>2022-08-24T06:04:56Z</time>
      </trkpt>
      <trkpt lat="42.906955" lon="-8.410742">
        <ele>352.117</ele>
        <time>2022-08-24T06:05:00Z</time>
      </trkpt>
      <trkpt lat="42.907010" lon="-8.410767">
        <ele>352.209</ele>
        <time>2022-08-24T06:05:04Z</time>
      </trkpt>
      <trkpt lat="42.907058" lon="-8.410784">
        <ele>352.474</ele>
        <time>2022-08-24T06:05:09Z</time>
      </trkpt>
      <trkpt lat="42.907099" lon="-8.410825">
        <ele>352.534</ele>
        <time>2022-08-24T06:05:13Z</time>
      </trkpt>
      <trkpt lat="42.907147" lon="-8.410862">
        <ele>352.694</ele>
        <time>2022-08-24T06:05:17Z</time>
      </trkpt>
      <trkpt lat="42.907187" lon="-8.410905">
        <ele>352.849</ele>
        <time>2022-08-24T06:05:22Z</time>
      </trkpt>
      <trkpt lat="42.907229" lon="-8.410949">
        <ele>353.057</ele>
        <time>2022-08-24T06:05:27Z</time>
      </trkpt>
      <trkpt lat="42.907265" lon="-8.410997">
        <ele>353.277</ele>
        <time>2022-08-24T06:05:30Z</time>
      </trkpt>
      <trkpt lat="42.907307" lon="-8.411059">
        <ele>353.661</ele>
        <time>2022-08-24T06:05:34Z</time>
      </trkpt>
      <trkpt lat="42.907344" lon="-8.411112">
        <ele>353.786</ele>
        <time>2022-08-24T06:05:38Z</time>
      </trkpt>
      <trkpt lat="42.907381" lon="-8.411170">
        <ele>354.130</ele>
        <time>2022-08-24T06:05:42Z</time>
      </trkpt>
      <trkpt lat="42.907411" lon="-8.411230">
        <ele>354.329</ele>
        <time>2022-08-24T06:05:46Z</time>
      </trkpt>
      <trkpt lat="42.907434" lon="-8.411298">
        <ele>354.500</ele>
        <time>2022-08-24T06:05:50Z</time>
      </trkpt>
      <trkpt lat="42.907462" lon="-8.411360">
        <ele>354.820</ele>
        <time>2022-08-24T06:05:54Z</time>
      </trkpt>
      <trkpt lat="42.907489" lon="-8.411413">
        <ele>355.009</ele>
        <time>2022-08-24T06:05:58Z</time>
      </trkpt>
      <trkpt lat="42.907515" lon="-8.411465">
        <ele>355.463</ele>
        <time>2022-08-24T06:06:04Z</time>
      </trkpt>
      <trkpt lat="42.907518" lon="-8.411536">
        <ele>355.733</ele>
        <time>2022-08-24T06:06:09Z</time>
      </trkpt>
      <trkpt lat="42.907530" lon="-8.411618">
        <ele>356.013</ele>
        <time>2022-08-24T06:06:14Z</time>
      </trkpt>
      <trkpt lat="42.907543" lon="-8.411692">
        <ele>356.348</ele>
        <time>2022-08-24T06:06:21Z</time>
      </trkpt>
      <trkpt lat="42.907551" lon="-8.411753">
        <ele>356.626</ele>
        <time>2022-08-24T06:06:25Z</time>
      </trkpt>
      <trkpt lat="42.907565" lon="-8.411815">
        <ele>357.086</ele>
        <time>2022-08-24T06:06:28Z</time>
      </trkpt>
      <trkpt lat="42.907588" lon="-8.411883">
        <ele>357.490</ele>
        <time>2022-08-24T06:06:31Z</time>
      </trkpt>
      <trkpt lat="42.907611" lon="-8.411958">
        <ele>357.865</ele>
        <time>2022-08-24T06:06:36Z</time>
      </trkpt>
      <trkpt lat="42.907646" lon="-8.412007">
        <ele>358.159</ele>
        <time>2022-08-24T06:06:41Z</time>
      </trkpt>
      <trkpt lat="42.907664" lon="-8.412074">
        <ele>358.524</ele>
        <time>2022-08-24T06:06:45Z</time>
      </trkpt>
      <trkpt lat="42.907675" lon="-8.412143">
        <ele>358.904</ele>
        <time>2022-08-24T06:06:50Z</time>
      </trkpt>
      <trkpt lat="42.907688" lon="-8.412206">
        <ele>359.314</ele>
        <time>2022-08-24T06:06:54Z</time>
      </trkpt>
      <trkpt lat="42.907690" lon="-8.412271">
        <ele>359.709</ele>
        <time>2022-08-24T06:06:57Z</time>
      </trkpt>
      <trkpt lat="42.907694" lon="-8.412337">
        <ele>360.133</ele>
        <time>2022-08-24T06:07:01Z</time>
      </trkpt>
      <trkpt lat="42.907718" lon="-8.412405">
        <ele>360.423</ele>
        <time>2022-08-24T06:07:05Z</time>
      </trkpt>
      <trkpt lat="42.907731" lon="-8.412467">
        <ele>360.743</ele>
        <time>2022-08-24T06:07:09Z</time>
      </trkpt>
      <trkpt lat="42.907748" lon="-8.412529">
        <ele>361.158</ele>
        <time>2022-08-24T06:07:13Z</time>
      </trkpt>
      <trkpt lat="42.907765" lon="-8.412594">
        <ele>361.496</ele>
        <time>2022-08-24T06:07:16Z</time>
      </trkpt>
      <trkpt lat="42.907789" lon="-8.412648">
        <ele>361.886</ele>
        <time>2022-08-24T06:07:21Z</time>
      </trkpt>
      <trkpt lat="42.907807" lon="-8.412719">
        <ele>362.110</ele>
        <time>2022-08-24T06:07:25Z</time>
      </trkpt>
      <trkpt lat="42.907822" lon="-8.412777">
        <ele>362.535</ele>
        <time>2022-08-24T06:07:29Z</time>
      </trkpt>
      <trkpt lat="42.907847" lon="-8.412841">
        <ele>362.939</ele>
        <time>2022-08-24T06:07:34Z</time>
      </trkpt>
      <trkpt lat="42.907864" lon="-8.412898">
        <ele>363.311</ele>
        <time>2022-08-24T06:07:38Z</time>
      </trkpt>
      <trkpt lat="42.907889" lon="-8.412966">
        <ele>363.721</ele>
        <time>2022-08-24T06:07:42Z</time>
      </trkpt>
      <trkpt lat="42.907900" lon="-8.413028">
        <ele>364.103</ele>
        <time>2022-08-24T06:07:45Z</time>
      </trkpt>
      <trkpt lat="42.907917" lon="-8.413095">
        <ele>364.409</ele>
        <time>2022-08-24T06:07:50Z</time>
      </trkpt>
      <trkpt lat="42.907935" lon="-8.413163">
        <ele>364.672</ele>
        <time>2022-08-24T06:07:54Z</time>
      </trkpt>
      <trkpt lat="42.907953" lon="-8.413220">
        <ele>364.982</ele>
        <time>2022-08-24T06:07:58Z</time>
      </trkpt>
      <trkpt lat="42.907975" lon="-8.413286">
        <ele>365.262</ele>
        <time>2022-08-24T06:08:02Z</time>
      </trkpt>
      <trkpt lat="42.907991" lon="-8.413354">
        <ele>365.527</ele>
        <time>2022-08-24T06:08:06Z</time>
      </trkpt>
      <trkpt lat="42.908006" lon="-8.413427">
        <ele>365.775</ele>
        <time>2022-08-24T06:08:11Z</time>
      </trkpt>
      <trkpt lat="42.908017" lon="-8.413497">
        <ele>365.975</ele>
        <time>2022-08-24T06:08:15Z</time>
      </trkpt>
      <trkpt lat="42.908037" lon="-8.413558">
        <ele>366.179</ele>
        <time>2022-08-24T06:08:19Z</time>
      </trkpt>
      <trkpt lat="42.908053" lon="-8.413621">
        <ele>366.334</ele>
        <time>2022-08-24T06:08:24Z</time>
      </trkpt>
      <trkpt lat="42.908068" lon="-8.413680">
        <ele>366.468</ele>
        <time>2022-08-24T06:08:28Z</time>
      </trkpt>
      <trkpt lat="42.908087" lon="-8.413745">
        <ele>366.565</ele>
        <time>2022-08-24T06:08:32Z</time>
      </trkpt>
      <trkpt lat="42.908105" lon="-8.413802">
        <ele>366.668</ele>
        <time>2022-08-24T06:08:36Z</time>
      </trkpt>
      <trkpt lat="42.908122" lon="-8.413866">
        <ele>366.714</ele>
        <time>2022-08-24T06:08:40Z</time>
      </trkpt>
      <trkpt lat="42.908143" lon="-8.413927">
        <ele>366.709</ele>
        <time>2022-08-24T06:08:44Z</time>
      </trkpt>
      <trkpt lat="42.908160" lon="-8.413987">
        <ele>366.727</ele>
        <time>2022-08-24T06:08:47Z</time>
      </trkpt>
      <trkpt lat="42.908177" lon="-8.414053">
        <ele>366.747</ele>
        <time>2022-08-24T06:08:51Z</time>
      </trkpt>
      <trkpt lat="42.908201" lon="-8.414112">
        <ele>366.727</ele>
        <time>2022-08-24T06:08:54Z</time>
      </trkpt>
      <trkpt lat="42.908220" lon="-8.414168">
        <ele>366.782</ele>
        <time>2022-08-24T06:08:58Z</time>
      </trkpt>
      <trkpt lat="42.908239" lon="-8.414234">
        <ele>366.780</ele>
        <time>2022-08-24T06:09:02Z</time>
      </trkpt>
      <trkpt lat="42.908249" lon="-8.414306">
        <ele>366.720</ele>
        <time>2022-08-24T06:09:06Z</time>
      </trkpt>
      <trkpt lat="42.908268" lon="-8.414365">
        <ele>366.794</ele>
        <time>2022-08-24T06:09:11Z</time>
      </trkpt>
      <trkpt lat="42.908277" lon="-8.414430">
        <ele>366.789</ele>
        <time>2022-08-24T06:09:16Z</time>
      </trkpt>
      <trkpt lat="42.908296" lon="-8.414501">
        <ele>366.773</ele>
        <time>2022-08-24T06:09:20Z</time>
      </trkpt>
      <trkpt lat="42.908312" lon="-8.414562">
        <ele>366.748</ele>
        <time>2022-08-24T06:09:24Z</time>
      </trkpt>
      <trkpt lat="42.908352" lon="-8.414630">
        <ele>366.761</ele>
        <time>2022-08-24T06:09:27Z</time>
      </trkpt>
      <trkpt lat="42.908384" lon="-8.414680">
        <ele>366.717</ele>
        <time>2022-08-24T06:09:31Z</time>
      </trkpt>
      <trkpt lat="42.908431" lon="-8.414721">
        <ele>366.709</ele>
        <time>2022-08-24T06:09:35Z</time>
      </trkpt>
      <trkpt lat="42.908475" lon="-8.414737">
        <ele>366.755</ele>
        <time>2022-08-24T06:09:39Z</time>
      </trkpt>
      <trkpt lat="42.908527" lon="-8.414744">
        <ele>366.755</ele>
        <time>2022-08-24T06:09:44Z</time>
      </trkpt>
      <trkpt lat="42.908574" lon="-8.414757">
        <ele>366.735</ele>
        <time>2022-08-24T06:09:48Z</time>
      </trkpt>
      <trkpt lat="42.908619" lon="-8.414763">
        <ele>366.780</ele>
        <time>2022-08-24T06:09:52Z</time>
      </trkpt>
      <trkpt lat="42.908665" lon="-8.414761">
        <ele>366.758</ele>
        <time>2022-08-24T06:09:56Z</time>
      </trkpt>
      <trkpt lat="42.908718" lon="-8.414756">
        <ele>366.728</ele>
        <time>2022-08-24T06:10:00Z</time>
      </trkpt>
      <trkpt lat="42.908767" lon="-8.414753">
        <ele>366.732</ele>
        <time>2022-08-24T06:10:03Z</time>
      </trkpt>
      <trkpt lat="42.908820" lon="-8.414755">
        <ele>366.777</ele>
        <time>2022-08-24T06:10:07Z</time>
      </trkpt>
      <trkpt lat="42.908875" lon="-8.414758">
        <ele>366.731</ele>
        <time>2022-08-24T06:10:12Z</time>
      </trkpt>
      <trkpt lat="42.908924" lon="-8.414750">
        <ele>366.738</ele>
        <time>2022-08-24T06:10:16Z</time>
      </trkpt>
      <trkpt lat="42.908972" lon="-8.414734">
        <ele>366.770</ele>
        <time>2022-08-24T06:10:19Z</time>
      </trkpt>
      <trkpt lat="42.909025" lon="-8.414715">
        <ele>366.717</ele>
        <time>2022-08-24T06:10:24Z</time>
      </trkpt>
      <trkpt lat="42.909070" lon="-8.414690">
        <ele>366.709</ele>
        <time>2022-08-24T06:10:28Z</time>
      </trkpt>
      <trkpt lat="42.909117" lon="-8.414680">
        <ele>366.714</ele>
        <time>2022-08-24T06:10:31Z</time>
      </trkpt>
      <trkpt lat="42.909173" lon="-8.414674">
        <ele>366.774</ele>
        <time>2022-08-24T06:10:35Z</time>
      </trkpt>
      <trkpt lat="42.909225" lon="-8.414654">
        <ele>366.794</ele>
        <time>2022-08-24T06:10:40Z</time>
      </trkpt>
      <trkpt lat="42.909277" lon="-8.414652">
        <ele>366.849</ele>
        <time>2022-08-24T06:10:44Z</time>
      </trkpt>
      <trkpt lat="42.909329" lon="-8.414645">
        <ele>366.957</ele>
        <time>2022-08-24T06:10:47Z</time>
      </trkpt>
      <trkpt lat="42.909376" lon="-8.414624">
        <ele>367.187</ele>
        <time>2022-08-24T06:10:51Z</time>
      </trkpt>
      <trkpt lat="42.909429" lon="-8.414613">
        <ele>367.211</ele>
        <time>2022-08-24T06:10:55Z</time>
      </trkpt>
      <trkpt lat="42.909483" lon="-8.414594">
        <ele>367.476</ele>
        <time>2022-08-24T06:10:59Z</time>
      </trkpt>
      <trkpt lat="42.909537" lon="-8.414578">
        <ele>367.570</ele>
        <time>2022-08-24T06:11:03Z</time>
      </trkpt>
      <trkpt lat="42.909582" lon="-8.414571">
        <ele>367.692</ele>
        <time>2022-08-24T06:11:06Z</time>
      </trkpt>
      <trkpt lat="42.909640" lon="-8.414564">
        <ele>367.773</ele>
        <time>2022-08-24T06:11:10Z</time>
      </trkpt>
      <trkpt lat="42.909690" lon="-8.414553">
        <ele>367.720</ele>
        <time>2022-08-24T06:11:14Z</time>
      </trkpt>
      <trkpt lat="42.909735" lon="-8.414538">
        <ele>367.709</ele>
        <time>2022-08-24T06:11:18Z</time>
      </trkpt>
      <trkpt lat="42.909788" lon="-8.414531">
        <ele>367.770</ele>
        <time>2022-08-24T06:11:22Z</time>
      </trkpt>
      <trkpt lat="42.909836" lon="-8.414517">
        <ele>367.740</ele>
        <time>2022-08-24T06:11:27Z</time>
      </trkpt>
      <trkpt lat="42.909888" lon="-8.414512">
        <ele>367.740</ele>
        <time>2022-08-24T06:11:31Z</time>
      </trkpt>
      <trkpt lat="42.909942" lon="-8.414508">
        <ele>367.795</ele>
        <time>2022-08-24T06:11:35Z</time>
      </trkpt>
      <trkpt lat="42.909996" lon="-8.414513">
        <ele>367.763</ele>
        <time>2022-08-24T06:11:39Z</time>
      </trkpt>
      <trkpt lat="42.910049" lon="-8.414504">
        <ele>367.713</ele>
        <time>2022-08-24T06:11:43Z</time>
      </trkpt>
      <trkpt lat="42.910100" lon="-8.414493">
        <ele>367.797</ele>
        <time>2022-08-24T06:11:47Z</time>
      </trkpt>
      <trkpt lat="42.910153" lon="-8.414491">
        <ele>367.722</ele>
        <time>2022-08-24T06:11:51Z</time>
      </trkpt>
      <trkpt lat="42.910203" lon="-8.414493">
        <ele>367.716</ele>
        <time>2022-08-24T06:11:55Z</time>
      </trkpt>
      <trkpt lat="42.910253" lon="-8.414492">
        <ele>367.773</ele>
        <time>2022-08-24T06:11:59Z</time>
      </trkpt>
      <trkpt lat="42.910298" lon="-8.414489">
        <ele>367.785</ele>
        <time>2022-08-24T06:12:03Z</time>
      </trkpt>
      <trkpt lat="42.910346" lon="-8.414478">
        <ele>367.713</ele>
        <time>2022-08-24T06:12:07Z</time>
      </trkpt>
      <trkpt lat="42.910395" lon="-8.414467">
        <ele>367.709</ele>
        <time>2022-08-24T06:12:11Z</time>
      </trkpt>
      <trkpt lat="42.910446" lon="-8.414463">
        <ele>367.688</ele>
        <time>2022-08-24T06:12:15Z</time>
      </trkpt>
      <trkpt lat="42.910492" lon="-8.414463">
        <ele>367.518</ele>
        <time>2022-08-24T06:12:19Z</time>
      </trkpt>
      <trkpt lat="42.910539" lon="-8.414458">
        <ele>367.498</ele>
        <time>2022-08-24T06:12:23Z</time>
      </trkpt>
      <trkpt lat="42.910590" lon="-8.414460">
        <ele>367.353</ele>
        <time>2022-08-24T06:12:28Z</time>
      </trkpt>
      <trkpt lat="42.910635" lon="-8.414445">
        <ele>367.221</ele>
        <time>2022-08-24T06:12:32Z</time>
      </trkpt>
      <trkpt lat="42.910684" lon="-8.414444">
        <ele>367.051</ele>
        <time>2022-08-24T06:12:36Z</time>
      </trkpt>
      <trkpt lat="42.910739" lon="-8.414440">
        <ele>366.855</ele>
        <time>2022-08-24T06:12:41Z</time>
      </trkpt>
      <trkpt lat="42.910786" lon="-8.414429">
        <ele>366.670</ele>
        <time>2022-08-24T06:12:45Z</time>
      </trkpt>
      <trkpt lat="42.910836" lon="-8.414422">
        <ele>366.544</ele>
        <time>2022-08-24T06:12:49Z</time>
      </trkpt>
      <trkpt lat="42.910885" lon="-8.414415">
        <ele>366.465</ele>
        <time>2022-08-24T06:12:53Z</time>
      </trkpt>
      <trkpt lat="42.910941" lon="-8.414409">
        <ele>366.368</ele>
        <time>2022-08-24T06:12:58Z</time>
      </trkpt>
      <trkpt lat="42.910987" lon="-8.414397">
        <ele>366.214</ele>
        <time>2022-08-24T06:13:02Z</time>
      </trkpt>
      <trkpt lat="42.911037" lon="-8.414397">
        <ele>366.209</ele>
        <time>2022-08-24T06:13:06Z</time>
      </trkpt>
      <trkpt lat="42.911084" lon="-8.414395">
        <ele>366.267</ele>
        <time>2022-08-24T06:13:10Z</time>
      </trkpt>
      <trkpt lat="42.911127" lon="-8.414377">
        <ele>366.197</ele>
        <time>2022-08-24T06:13:14Z</time>
      </trkpt>
      <trkpt lat="42.911178" lon="-8.414363">
        <ele>366.197</ele>
        <time>2022-08-24T06:13:18Z</time>
      </trkpt>
      <trkpt lat="42.911223" lon="-8.414354">
        <ele>366.172</ele>
        <time>2022-08-24T06:13:23Z</time>
      </trkpt>
      <trkpt lat="42.911271" lon="-8.414339">
        <ele>366.130</ele>
        <time>2022-08-24T06:13:28Z</time>
      </trkpt>
      <trkpt lat="42.911322" lon="-8.414324">
        <ele>366.160</ele>
        <time>2022-08-24T06:13:33Z</time>
      </trkpt>
      <trkpt lat="42.911379" lon="-8.414319">
        <ele>366.194</ele>
        <time>2022-08-24T06:13:38Z</time>
      </trkpt>
      <trkpt lat="42.911431" lon="-8.414308">
        <ele>366.129</ele>
        <time>2022-08-24T06:13:42Z</time>
      </trkpt>
      <trkpt lat="42.911487" lon="-8.414307">
        <ele>366.153</ele>
        <time>2022-08-24T06:13:47Z</time>
      </trkpt>
      <trkpt lat="42.911536" lon="-8.414289">
        <ele>366.196</ele>
        <time>2022-08-24T06:13:51Z</time>
      </trkpt>
      <trkpt lat="42.911594" lon="-8.414285">
        <ele>366.231</ele>
        <time>2022-08-24T06:13:55Z</time>
      </trkpt>
      <trkpt lat="42.911656" lon="-8.414281">
        <ele>366.324</ele>
        <time>2022-08-24T06:13:59Z</time>
      </trkpt>
      <trkpt lat="42.911711" lon="-8.414249">
        <ele>366.309</ele>
        <time>2022-08-24T06:14:03Z</time>
      </trkpt>
      <trkpt lat="42.911760" lon="-8.414242">
        <ele>366.430</ele>
        <time>2022-08-24T06:14:06Z</time>
      </trkpt>
      <trkpt lat="42.911815" lon="-8.414223">
        <ele>366.480</ele>
        <time>2022-08-24T06:14:10Z</time>
      </trkpt>
      <trkpt lat="42.911863" lon="-8.414209">
        <ele>366.450</ele>
        <time>2022-08-24T06:14:14Z</time>
      </trkpt>
      <trkpt lat="42.911911" lon="-8.414200">
        <ele>366.485</ele>
        <time>2022-08-24T06:14:18Z</time>
      </trkpt>
      <trkpt lat="42.911957" lon="-8.414192">
        <ele>366.433</ele>
        <time>2022-08-24T06:14:22Z</time>
      </trkpt>
      <trkpt lat="42.912008" lon="-8.414193">
        <ele>366.453</ele>
        <time>2022-08-24T06:14:26Z</time>
      </trkpt>
      <trkpt lat="42.912071" lon="-8.414194">
        <ele>366.497</ele>
        <time>2022-08-24T06:14:30Z</time>
      </trkpt>
      <trkpt lat="42.912125" lon="-8.414180">
        <ele>366.482</ele>
        <time>2022-08-24T06:14:34Z</time>
      </trkpt>
      <trkpt lat="42.912177" lon="-8.414169">
        <ele>366.326</ele>
        <time>2022-08-24T06:14:39Z</time>
      </trkpt>
      <trkpt lat="42.912233" lon="-8.414161">
        <ele>366.246</ele>
        <time>2022-08-24T06:14:43Z</time>
      </trkpt>
      <trkpt lat="42.912291" lon="-8.414155">
        <ele>366.188</ele>
        <time>2022-08-24T06:14:47Z</time>
      </trkpt>
      <trkpt lat="42.912341" lon="-8.414154">
        <ele>366.016</ele>
        <time>2022-08-24T06:14:51Z</time>
      </trkpt>
      <trkpt lat="42.912396" lon="-8.414155">
        <ele>365.909</ele>
        <time>2022-08-24T06:14:55Z</time>
      </trkpt>
      <trkpt lat="42.912453" lon="-8.414139">
        <ele>365.825</ele>
        <time>2022-08-24T06:15:00Z</time>
      </trkpt>
      <trkpt lat="42.912504" lon="-8.414143">
        <ele>365.865</ele>
        <time>2022-08-24T06:15:04Z</time>
      </trkpt>
      <trkpt lat="42.912561" lon="-8.414139">
        <ele>365.875</ele>
        <time>2022-08-24T06:15:08Z</time>
      </trkpt>
      <trkpt lat="42.912616" lon="-8.414148">
        <ele>365.830</ele>
        <time>2022-08-24T06:15:12Z</time>
      </trkpt>
      <trkpt lat="42.912676" lon="-8.414145">
        <ele>365.848</ele>
        <time>2022-08-24T06:15:16Z</time>
      </trkpt>
      <trkpt lat="42.912733" lon="-8.414145">
        <ele>365.878</ele>
        <time>2022-08-24T06:15:20Z</time>
      </trkpt>
      <trkpt lat="42.912787" lon="-8.414137">
        <ele>365.862</ele>
        <time>2022-08-24T06:15:24Z</time>
      </trkpt>
      <trkpt lat="42.912842" lon="-8.414122">
        <ele>365.837</ele>
        <time>2022-08-24T06:15:28Z</time>
      </trkpt>
      <trkpt lat="42.912895" lon="-8.414125">
        <ele>365.831</ele>
        <time>2022-08-24T06:15:32Z</time>
      </trkpt>
      <trkpt lat="42.912946" lon="-8.414122">
        <ele>365.844</ele>
        <time>2022-08-24T06:15:36Z</time>
      </trkpt>
      <trkpt lat="42.913005" lon="-8.414117">
        <ele>365.805</ele>
        <time>2022-08-24T06:15:40Z</time>
      </trkpt>
      <trkpt lat="42.913064" lon="-8.414108">
        <ele>365.815</ele>
        <time>2022-08-24T06:15:44Z</time>
      </trkpt>
      <trkpt lat="42.913109" lon="-8.414092">
        <ele>365.809</ele>
        <time>2022-08-24T06:15:48Z</time>
      </trkpt>
      <trkpt lat="42.913163" lon="-8.414078">
        <ele>365.815</ele>
        <time>2022-08-24T06:15:52Z</time>
      </trkpt>
      <trkpt lat="42.913213" lon="-8.414066">
        <ele>365.855</ele>
        <time>2022-08-24T06:15:55Z</time>
      </trkpt>
      <trkpt lat="42.913267" lon="-8.414055">
        <ele>365.845</ele>
        <time>2022-08-24T06:15:59Z</time>
      </trkpt>
      <trkpt lat="42.913315" lon="-8.414043">
        <ele>365.890</ele>
        <time>2022-08-24T06:16:02Z</time>
      </trkpt>
      <trkpt lat="42.913369" lon="-8.414046">
        <ele>365.828</ele>
        <time>2022-08-24T06:16:06Z</time>
      </trkpt>
      <trkpt lat="42.913419" lon="-8.414052">
        <ele>365.888</ele>
        <time>2022-08-24T06:16:10Z</time>
      </trkpt>
      <trkpt lat="42.913475" lon="-8.414044">
        <ele>365.892</ele>
        <time>2022-08-24T06:16:14Z</time>
      </trkpt>
      <trkpt lat="42.913528" lon="-8.414047">
        <ele>365.887</ele>
        <time>2022-08-24T06:16:18Z</time>
      </trkpt>
      <trkpt lat="42.913575" lon="-8.414051">
        <ele>365.851</ele>
        <time>2022-08-24T06:16:21Z</time>
      </trkpt>
      <trkpt lat="42.913616" lon="-8.414079">
        <ele>365.858</ele>
        <time>2022-08-24T06:16:25Z</time>
      </trkpt>
      <trkpt lat="42.913631" lon="-8.414138">
        <ele>365.752</ele>
        <time>2022-08-24T06:16:29Z</time>
      </trkpt>
      <trkpt lat="42.913634" lon="-8.414213">
        <ele>365.417</ele>
        <time>2022-08-24T06:16:33Z</time>
      </trkpt>
      <trkpt lat="42.913637" lon="-8.414280">
        <ele>365.009</ele>
        <time>2022-08-24T06:16:37Z</time>
      </trkpt>
      <trkpt lat="42.913643" lon="-8.414355">
        <ele>364.766</ele>
        <time>2022-08-24T06:16:41Z</time>
      </trkpt>
      <trkpt lat="42.913639" lon="-8.414424">
        <ele>364.596</ele>
        <time>2022-08-24T06:16:45Z</time>
      </trkpt>
      <trkpt lat="42.913642" lon="-8.414490">
        <ele>364.526</ele>
        <time>2022-08-24T06:16:49Z</time>
      </trkpt>
      <trkpt lat="42.913640" lon="-8.414569">
        <ele>364.531</ele>
        <time>2022-08-24T06:16:53Z</time>
      </trkpt>
      <trkpt lat="42.913646" lon="-8.414644">
        <ele>364.469</ele>
        <time>2022-08-24T06:16:57Z</time>
      </trkpt>
      <trkpt lat="42.913648" lon="-8.414713">
        <ele>364.399</ele>
        <time>2022-08-24T06:17:01Z</time>
      </trkpt>
      <trkpt lat="42.913647" lon="-8.414780">
        <ele>364.213</ele>
        <time>2022-08-24T06:17:05Z</time>
      </trkpt>
      <trkpt lat="42.913655" lon="-8.414857">
        <ele>364.168</ele>
        <time>2022-08-24T06:17:10Z</time>
      </trkpt>
      <trkpt lat="42.913657" lon="-8.414929">
        <ele>364.122</ele>
        <time>2022-08-24T06:17:14Z</time>
      </trkpt>
      <trkpt lat="42.913660" lon="-8.415000">
        <ele>364.141</ele>
        <time>2022-08-24T06:17:18Z</time>
      </trkpt>
      <trkpt lat="42.913659" lon="-8.415070">
        <ele>364.181</ele>
        <time>2022-08-24T06:17:22Z</time>
      </trkpt>
      <trkpt lat="42.913661" lon="-8.415142">
        <ele>364.009</ele>
        <time>2022-08-24T06:17:27Z</time>
      </trkpt>
      <trkpt lat="42.913659" lon="-8.415214">
        <ele>363.809</ele>
        <time>2022-08-24T06:17:32Z</time>
      </trkpt>
      <trkpt lat="42.913671" lon="-8.415284">
        <ele>363.545</ele>
        <time>2022-08-24T06:17:36Z</time>
      </trkpt>
      <trkpt lat="42.913664" lon="-8.415353">
        <ele>363.195</ele>
        <time>2022-08-24T06:17:40Z</time>
      </trkpt>
      <trkpt lat="42.913659" lon="-8.415428">
        <ele>362.795</ele>
        <time>2022-08-24T06:17:44Z</time>
      </trkpt>
      <trkpt lat="42.913655" lon="-8.415492">
        <ele>362.370</ele>
        <time>2022-08-24T06:17:48Z</time>
      </trkpt>
      <trkpt lat="42.913655" lon="-8.415560">
        <ele>361.938</ele>
        <time>2022-08-24T06:17:52Z</time>
      </trkpt>
      <trkpt lat="42.913661" lon="-8.415635">
        <ele>361.518</ele>
        <time>2022-08-24T06:17:56Z</time>
      </trkpt>
      <trkpt lat="42.913672" lon="-8.415713">
        <ele>361.192</ele>
        <time>2022-08-24T06:18:00Z</time>
      </trkpt>
      <trkpt lat="42.913674" lon="-8.415791">
        <ele>360.837</ele>
        <time>2022-08-24T06:18:04Z</time>
      </trkpt>
      <trkpt lat="42.913674" lon="-8.415861">
        <ele>360.481</ele>
        <time>2022-08-24T06:18:08Z</time>
      </trkpt>
      <trkpt lat="42.913670" lon="-8.415941">
        <ele>360.025</ele>
        <time>2022-08-24T06:18:12Z</time>
      </trkpt>
      <trkpt lat="42.913670" lon="-8.416005">
        <ele>359.826</ele>
        <time>2022-08-24T06:18:16Z</time>
      </trkpt>
      <trkpt lat="42.913680" lon="-8.416072">
        <ele>359.708</ele>
        <time>2022-08-24T06:18:20Z</time>
      </trkpt>
      <trkpt lat="42.913691" lon="-8.416141">
        <ele>359.509</ele>
        <time>2022-08-24T06:18:25Z</time>
      </trkpt>
      <trkpt lat="42.913687" lon="-8.416216">
        <ele>359.363</ele>
        <time>2022-08-24T06:18:29Z</time>
      </trkpt>
      <trkpt lat="42.913682" lon="-8.416284">
        <ele>359.073</ele>
        <time>2022-08-24T06:18:33Z</time>
      </trkpt>
      <trkpt lat="42.913680" lon="-8.416346">
        <ele>358.713</ele>
        <time>2022-08-24T06:18:36Z</time>
      </trkpt>
      <trkpt lat="42.913684" lon="-8.416415">
        <ele>358.418</ele>
        <time>2022-08-24T06:18:40Z</time>
      </trkpt>
      <trkpt lat="42.913676" lon="-8.416487">
        <ele>358.126</ele>
        <time>2022-08-24T06:18:44Z</time>
      </trkpt>
      <trkpt lat="42.913677" lon="-8.416565">
        <ele>357.886</ele>
        <time>2022-08-24T06:18:49Z</time>
      </trkpt>
      <trkpt lat="42.913679" lon="-8.416638">
        <ele>357.570</ele>
        <time>2022-08-24T06:18:53Z</time>
      </trkpt>
      <trkpt lat="42.913671" lon="-8.416709">
        <ele>357.225</ele>
        <time>2022-08-24T06:18:57Z</time>
      </trkpt>
      <trkpt lat="42.913681" lon="-8.416784">
        <ele>356.749</ele>
        <time>2022-08-24T06:19:01Z</time>
      </trkpt>
      <trkpt lat="42.913680" lon="-8.416855">
        <ele>356.358</ele>
        <time>2022-08-24T06:19:05Z</time>
      </trkpt>
      <trkpt lat="42.913678" lon="-8.416919">
        <ele>356.152</ele>
        <time>2022-08-24T06:19:09Z</time>
      </trkpt>
      <trkpt lat="42.913669" lon="-8.416986">
        <ele>355.717</ele>
        <time>2022-08-24T06:19:12Z</time>
      </trkpt>
      <trkpt lat="42.913676" lon="-8.417056">
        <ele>355.409</ele>
        <time>2022-08-24T06:19:16Z</time>
      </trkpt>
      <trkpt lat="42.913681" lon="-8.417124">
        <ele>355.246</ele>
        <time>2022-08-24T06:19:20Z</time>
      </trkpt>
      <trkpt lat="42.913680" lon="-8.417195">
        <ele>354.976</ele>
        <time>2022-08-24T06:19:24Z</time>
      </trkpt>
      <trkpt lat="42.913678" lon="-8.417260">
        <ele>354.576</ele>
        <time>2022-08-24T06:19:28Z</time>
      </trkpt>
      <trkpt lat="42.913679" lon="-8.417331">
        <ele>354.161</ele>
        <time>2022-08-24T06:19:32Z</time>
      </trkpt>
      <trkpt lat="42.913682" lon="-8.417411">
        <ele>353.969</ele>
        <time>2022-08-24T06:19:36Z</time>
      </trkpt>
      <trkpt lat="42.913682" lon="-8.417490">
        <ele>353.789</ele>
        <time>2022-08-24T06:19:41Z</time>
      </trkpt>
      <trkpt lat="42.913679" lon="-8.417567">
        <ele>353.393</ele>
        <time>2022-08-24T06:19:45Z</time>
      </trkpt>
      <trkpt lat="42.913671" lon="-8.417640">
        <ele>352.988</ele>
        <time>2022-08-24T06:19:49Z</time>
      </trkpt>
      <trkpt lat="42.913677" lon="-8.417705">
        <ele>352.692</ele>
        <time>2022-08-24T06:19:53Z</time>
      </trkpt>
      <trkpt lat="42.913677" lon="-8.417779">
        <ele>352.428</ele>
        <time>2022-08-24T06:19:57Z</time>
      </trkpt>
      <trkpt lat="42.913674" lon="-8.417850">
        <ele>352.389</ele>
        <time>2022-08-24T06:20:01Z</time>
      </trkpt>
      <trkpt lat="42.913676" lon="-8.417918">
        <ele>352.117</ele>
        <time>2022-08-24T06:20:05Z</time>
      </trkpt>
      <trkpt lat="42.913667" lon="-8.417995">
        <ele>351.809</ele>
        <time>2022-08-24T06:20:09Z</time>
      </trkpt>
      <trkpt lat="42.913667" lon="-8.418070">
        <ele>351.513</ele>
        <time>2022-08-24T06:20:13Z</time>
      </trkpt>
      <trkpt lat="42.913656" lon="-8.418146">
        <ele>351.113</ele>
        <time>2022-08-24T06:20:17Z</time>
      </trkpt>
      <trkpt lat="42.913636" lon="-8.418206">
        <ele>351.063</ele>
        <time>2022-08-24T06:20:21Z</time>
      </trkpt>
      <trkpt lat="42.913620" lon="-8.418264">
        <ele>350.968</ele>
        <time>2022-08-24T06:20:25Z</time>
      </trkpt>
      <trkpt lat="42.913605" lon="-8.418331">
        <ele>350.946</ele>
        <time>2022-08-24T06:20:29Z</time>
      </trkpt>
      <trkpt lat="42.913600" lon="-8.418397">
        <ele>350.926</ele>
        <time>2022-08-24T06:20:33Z</time>
      </trkpt>
      <trkpt lat="42.913609" lon="-8.418464">
        <ele>350.890</ele>
        <time>2022-08-24T06:20:38Z</time>
      </trkpt>
      <trkpt lat="42.913631" lon="-8.418523">
        <ele>350.735</ele>
        <time>2022-08-24T06:20:43Z</time>
      </trkpt>
      <trkpt lat="42.913646" lon="-8.418584">
        <ele>350.499</ele>
        <time>2022-08-24T06:20:47Z</time>
      </trkpt>
      <trkpt lat="42.913652" lon="-8.418648">
        <ele>349.877</ele>
        <time>2022-08-24T06:20:50Z</time>
      </trkpt>
      <trkpt lat="42.913659" lon="-8.418716">
        <ele>349.161</ele>
        <time>2022-08-24T06:20:55Z</time>
      </trkpt>
      <trkpt lat="42.913667" lon="-8.418779">
        <ele>348.827</ele>
        <time>2022-08-24T06:20:58Z</time>
      </trkpt>
      <trkpt lat="42.913677" lon="-8.418847">
        <ele>348.609</ele>
        <time>2022-08-24T06:21:02Z</time>
      </trkpt>
      <trkpt lat="42.913687" lon="-8.418909">
        <ele>348.498</ele>
        <time>2022-08-24T06:21:06Z</time>
      </trkpt>
      <trkpt lat="42.913687" lon="-8.418989">
        <ele>348.298</ele>
        <time>2022-08-24T06:21:11Z</time>
      </trkpt>
      <trkpt lat="42.913682" lon="-8.419053">
        <ele>348.028</ele>
        <time>2022-08-24T06:21:16Z</time>
      </trkpt>
      <trkpt lat="42.913692" lon="-8.419129">
        <ele>347.983</ele>
        <time>2022-08-24T06:21:20Z</time>
      </trkpt>
      <trkpt lat="42.913701" lon="-8.419202">
        <ele>347.951</ele>
        <time>2022-08-24T06:21:25Z</time>
      </trkpt>
      <trkpt lat="42.913705" lon="-8.419274">
        <ele>347.991</ele>
        <time>2022-08-24T06:21:28Z</time>
      </trkpt>
      <trkpt lat="42.913701" lon="-8.419349">
        <ele>347.855</ele>
        <time>2022-08-24T06:21:32Z</time>
      </trkpt>
      <trkpt lat="42.913702" lon="-8.419421">
        <ele>347.750</ele>
        <time>2022-08-24T06:21:36Z</time>
      </trkpt>
      <trkpt lat="42.913709" lon="-8.419500">
        <ele>347.514</ele>
        <time>2022-08-24T06:21:40Z</time>
      </trkpt>
      <trkpt lat="42.913698" lon="-8.419569">
        <ele>347.361</ele>
        <time>2022-08-24T06:21:43Z</time>
      </trkpt>
      <trkpt lat="42.913693" lon="-8.419636">
        <ele>347.221</ele>
        <time>2022-08-24T06:21:47Z</time>
      </trkpt>
      <trkpt lat="42.913682" lon="-8.419703">
        <ele>347.013</ele>
        <time>2022-08-24T06:21:51Z</time>
      </trkpt>
      <trkpt lat="42.913679" lon="-8.419775">
        <ele>346.909</ele>
        <time>2022-08-24T06:21:55Z</time>
      </trkpt>
      <trkpt lat="42.913676" lon="-8.419841">
        <ele>346.847</ele>
        <time>2022-08-24T06:21:59Z</time>
      </trkpt>
      <trkpt lat="42.913654" lon="-8.419896">
        <ele>346.787</ele>
        <time>2022-08-24T06:22:02Z</time>
      </trkpt>
      <trkpt lat="42.913624" lon="-8.419966">
        <ele>346.637</ele>
        <time>2022-08-24T06:22:06Z</time>
      </trkpt>
      <trkpt lat="42.913590" lon="-8.420022">
        <ele>346.562</ele>
        <time>2022-08-24T06:22:10Z</time>
      </trkpt>
      <trkpt lat="42.913555" lon="-8.420062">
        <ele>346.480</ele>
        <time>2022-08-24T06:22:13Z</time>
      </trkpt>
      <trkpt lat="42.913522" lon="-8.420110">
        <ele>346.440</ele>
        <time>2022-08-24T06:22:17Z</time>
      </trkpt>
      <trkpt lat="42.913497" lon="-8.420162">
        <ele>346.444</ele>
        <time>2022-08-24T06:22:22Z</time>
      </trkpt>
      <trkpt lat="42.913466" lon="-8.420219">
        <ele>346.499</ele>
        <time>2022-08-24T06:22:26Z</time>
      </trkpt>
      <trkpt lat="42.913439" lon="-8.420288">
        <ele>346.473</ele>
        <time>2022-08-24T06:22:31Z</time>
      </trkpt>
      <trkpt lat="42.913451" lon="-8.420353">
        <ele>346.411</ele>
        <time>2022-08-24T06:22:35Z</time>
      </trkpt>
      <trkpt lat="42.913462" lon="-8.420429">
        <ele>345.921</ele>
        <time>2022-08-24T06:22:40Z</time>
      </trkpt>
      <trkpt lat="42.913460" lon="-8.420494">
        <ele>345.003</ele>
        <time>2022-08-24T06:22:45Z</time>
      </trkpt>
      <trkpt lat="42.913470" lon="-8.420572">
        <ele>344.209</ele>
        <time>2022-08-24T06:22:50Z</time>
      </trkpt>
      <trkpt lat="42.913476" lon="-8.420634">
        <ele>343.372</ele>
        <time>2022-08-24T06:22:54Z</time>
      </trkpt>
      <trkpt lat="42.913466" lon="-8.420705">
        <ele>342.562</ele>
        <time>2022-08-24T06:22:59Z</time>
      </trkpt>
      <trkpt lat="42.913469" lon="-8.420767">
        <ele>341.892</ele>
        <time>2022-08-24T06:23:02Z</time>
      </trkpt>
      <trkpt lat="42.913468" lon="-8.420840">
        <ele>341.227</ele>
        <time>2022-08-24T06:23:06Z</time>
      </trkpt>
      <trkpt lat="42.913469" lon="-8.420911">
        <ele>340.775</ele>
        <time>2022-08-24T06:23:10Z</time>
      </trkpt>
      <trkpt lat="42.913457" lon="-8.420971">
        <ele>340.215</ele>
        <time>2022-08-24T06:23:13Z</time>
      </trkpt>
      <trkpt lat="42.913457" lon="-8.421043">
        <ele>339.729</ele>
        <time>2022-08-24T06:23:17Z</time>
      </trkpt>
      <trkpt lat="42.913440" lon="-8.421111">
        <ele>339.374</ele>
        <time>2022-08-24T06:23:21Z</time>
      </trkpt>
      <trkpt lat="42.913441" lon="-8.421189">
        <ele>339.038</ele>
        <time>2022-08-24T06:23:26Z</time>
      </trkpt>
      <trkpt lat="42.913442" lon="-8.421267">
        <ele>338.795</ele>
        <time>2022-08-24T06:23:31Z</time>
      </trkpt>
      <trkpt lat="42.913448" lon="-8.421344">
        <ele>338.149</ele>
        <time>2022-08-24T06:23:35Z</time>
      </trkpt>
      <trkpt lat="42.913449" lon="-8.421409">
        <ele>337.523</ele>
        <time>2022-08-24T06:23:39Z</time>
      </trkpt>
      <trkpt lat="42.913441" lon="-8.421481">
        <ele>337.109</ele>
        <time>2022-08-24T06:23:43Z</time>
      </trkpt>
      <trkpt lat="42.913439" lon="-8.421546">
        <ele>337.060</ele>
        <time>2022-08-24T06:23:47Z</time>
      </trkpt>
      <trkpt lat="42.913432" lon="-8.421627">
        <ele>336.730</ele>
        <time>2022-08-24T06:23:52Z</time>
      </trkpt>
      <trkpt lat="42.913428" lon="-8.421704">
        <ele>336.280</ele>
        <time>2022-08-24T06:23:56Z</time>
      </trkpt>
      <trkpt lat="42.913439" lon="-8.421776">
        <ele>335.685</ele>
        <time>2022-08-24T06:24:02Z</time>
      </trkpt>
      <trkpt lat="42.913448" lon="-8.421839">
        <ele>335.413</ele>
        <time>2022-08-24T06:24:05Z</time>
      </trkpt>
      <trkpt lat="42.913409" lon="-8.422242">
        <ele>334.123</ele>
        <time>2022-08-24T06:24:29Z</time>
      </trkpt>
      <trkpt lat="42.913393" lon="-8.422313">
        <ele>334.117</ele>
        <time>2022-08-24T06:24:32Z</time>
      </trkpt>
      <trkpt lat="42.913367" lon="-8.422380">
        <ele>334.112</ele>
        <time>2022-08-24T06:24:36Z</time>
      </trkpt>
      <trkpt lat="42.913343" lon="-8.422446">
        <ele>334.186</ele>
        <time>2022-08-24T06:24:41Z</time>
      </trkpt>
      <trkpt lat="42.913318" lon="-8.422501">
        <ele>334.175</ele>
        <time>2022-08-24T06:24:46Z</time>
      </trkpt>
      <trkpt lat="42.913288" lon="-8.422554">
        <ele>333.928</ele>
        <time>2022-08-24T06:24:50Z</time>
      </trkpt>
      <trkpt lat="42.913263" lon="-8.422613">
        <ele>333.520</ele>
        <time>2022-08-24T06:24:55Z</time>
      </trkpt>
      <trkpt lat="42.913233" lon="-8.422676">
        <ele>333.209</ele>
        <time>2022-08-24T06:24:59Z</time>
      </trkpt>
      <trkpt lat="42.913194" lon="-8.422740">
        <ele>332.928</ele>
        <time>2022-08-24T06:25:03Z</time>
      </trkpt>
      <trkpt lat="42.913167" lon="-8.422800">
        <ele>332.688</ele>
        <time>2022-08-24T06:25:07Z</time>
      </trkpt>
      <trkpt lat="42.913139" lon="-8.422855">
        <ele>332.328</ele>
        <time>2022-08-24T06:25:11Z</time>
      </trkpt>
      <trkpt lat="42.913101" lon="-8.422911">
        <ele>331.993</ele>
        <time>2022-08-24T06:25:16Z</time>
      </trkpt>
      <trkpt lat="42.913062" lon="-8.422975">
        <ele>331.751</ele>
        <time>2022-08-24T06:25:20Z</time>
      </trkpt>
      <trkpt lat="42.913030" lon="-8.423032">
        <ele>331.711</ele>
        <time>2022-08-24T06:25:23Z</time>
      </trkpt>
      <trkpt lat="42.912985" lon="-8.423075">
        <ele>331.745</ele>
        <time>2022-08-24T06:25:27Z</time>
      </trkpt>
      <trkpt lat="42.912932" lon="-8.423131">
        <ele>331.620</ele>
        <time>2022-08-24T06:25:30Z</time>
      </trkpt>
      <trkpt lat="42.912893" lon="-8.423179">
        <ele>331.684</ele>
        <time>2022-08-24T06:25:34Z</time>
      </trkpt>
      <trkpt lat="42.912856" lon="-8.423236">
        <ele>331.493</ele>
        <time>2022-08-24T06:25:38Z</time>
      </trkpt>
      <trkpt lat="42.912831" lon="-8.423296">
        <ele>331.165</ele>
        <time>2022-08-24T06:25:42Z</time>
      </trkpt>
      <trkpt lat="42.912808" lon="-8.423353">
        <ele>330.821</ele>
        <time>2022-08-24T06:25:47Z</time>
      </trkpt>
      <trkpt lat="42.912778" lon="-8.423409">
        <ele>330.709</ele>
        <time>2022-08-24T06:25:52Z</time>
      </trkpt>
      <trkpt lat="42.912741" lon="-8.423463">
        <ele>330.360</ele>
        <time>2022-08-24T06:25:56Z</time>
      </trkpt>
      <trkpt lat="42.912696" lon="-8.423504">
        <ele>329.870</ele>
        <time>2022-08-24T06:25:59Z</time>
      </trkpt>
      <trkpt lat="42.912656" lon="-8.423533">
        <ele>329.510</ele>
        <time>2022-08-24T06:26:02Z</time>
      </trkpt>
      <trkpt lat="42.912607" lon="-8.423570">
        <ele>329.445</ele>
        <time>2022-08-24T06:26:06Z</time>
      </trkpt>
      <trkpt lat="42.912565" lon="-8.423603">
        <ele>329.343</ele>
        <time>2022-08-24T06:26:09Z</time>
      </trkpt>
      <trkpt lat="42.912524" lon="-8.423630">
        <ele>329.243</ele>
        <time>2022-08-24T06:26:13Z</time>
      </trkpt>
      <trkpt lat="42.912497" lon="-8.423681">
        <ele>329.197</ele>
        <time>2022-08-24T06:26:18Z</time>
      </trkpt>
      <trkpt lat="42.912450" lon="-8.423711">
        <ele>329.072</ele>
        <time>2022-08-24T06:26:23Z</time>
      </trkpt>
      <trkpt lat="42.912399" lon="-8.423742">
        <ele>329.016</ele>
        <time>2022-08-24T06:26:28Z</time>
      </trkpt>
      <trkpt lat="42.912349" lon="-8.423778">
        <ele>329.074</ele>
        <time>2022-08-24T06:26:32Z</time>
      </trkpt>
      <trkpt lat="42.912309" lon="-8.423808">
        <ele>329.256</ele>
        <time>2022-08-24T06:26:36Z</time>
      </trkpt>
      <trkpt lat="42.912265" lon="-8.423829">
        <ele>329.521</ele>
        <time>2022-08-24T06:26:40Z</time>
      </trkpt>
      <trkpt lat="42.912215" lon="-8.423855">
        <ele>329.809</ele>
        <time>2022-08-24T06:26:44Z</time>
      </trkpt>
      <trkpt lat="42.912176" lon="-8.423889">
        <ele>330.148</ele>
        <time>2022-08-24T06:26:47Z</time>
      </trkpt>
      <trkpt lat="42.912138" lon="-8.423931">
        <ele>330.518</ele>
        <time>2022-08-24T06:26:50Z</time>
      </trkpt>
      <trkpt lat="42.912084" lon="-8.423954">
        <ele>331.068</ele>
        <time>2022-08-24T06:26:54Z</time>
      </trkpt>
      <trkpt lat="42.912040" lon="-8.423986">
        <ele>331.653</ele>
        <time>2022-08-24T06:26:58Z</time>
      </trkpt>
      <trkpt lat="42.911990" lon="-8.424014">
        <ele>332.441</ele>
        <time>2022-08-24T06:27:03Z</time>
      </trkpt>
      <trkpt lat="42.911951" lon="-8.424049">
        <ele>333.391</ele>
        <time>2022-08-24T06:27:07Z</time>
      </trkpt>
      <trkpt lat="42.911900" lon="-8.424081">
        <ele>334.235</ele>
        <time>2022-08-24T06:27:12Z</time>
      </trkpt>
      <trkpt lat="42.911859" lon="-8.424120">
        <ele>335.130</ele>
        <time>2022-08-24T06:27:16Z</time>
      </trkpt>
      <trkpt lat="42.911810" lon="-8.424129">
        <ele>336.044</ele>
        <time>2022-08-24T06:27:20Z</time>
      </trkpt>
      <trkpt lat="42.911767" lon="-8.424150">
        <ele>336.984</ele>
        <time>2022-08-24T06:27:24Z</time>
      </trkpt>
      <trkpt lat="42.911724" lon="-8.424199">
        <ele>337.807</ele>
        <time>2022-08-24T06:27:29Z</time>
      </trkpt>
      <trkpt lat="42.911675" lon="-8.424211">
        <ele>338.817</ele>
        <time>2022-08-24T06:27:33Z</time>
      </trkpt>
      <trkpt lat="42.911629" lon="-8.424220">
        <ele>339.809</ele>
        <time>2022-08-24T06:27:37Z</time>
      </trkpt>
      <trkpt lat="42.911576" lon="-8.424212">
        <ele>340.679</ele>
        <time>2022-08-24T06:27:40Z</time>
      </trkpt>
      <trkpt lat="42.911530" lon="-8.424209">
        <ele>341.119</ele>
        <time>2022-08-24T06:27:43Z</time>
      </trkpt>
      <trkpt lat="42.911478" lon="-8.424214">
        <ele>341.459</ele>
        <time>2022-08-24T06:27:47Z</time>
      </trkpt>
      <trkpt lat="42.911433" lon="-8.424204">
        <ele>341.624</ele>
        <time>2022-08-24T06:27:50Z</time>
      </trkpt>
      <trkpt lat="42.911382" lon="-8.424195">
        <ele>341.992</ele>
        <time>2022-08-24T06:27:54Z</time>
      </trkpt>
      <trkpt lat="42.911325" lon="-8.424191">
        <ele>342.122</ele>
        <time>2022-08-24T06:27:58Z</time>
      </trkpt>
      <trkpt lat="42.911279" lon="-8.424185">
        <ele>342.256</ele>
        <time>2022-08-24T06:28:01Z</time>
      </trkpt>
      <trkpt lat="42.911221" lon="-8.424184">
        <ele>342.481</ele>
        <time>2022-08-24T06:28:06Z</time>
      </trkpt>
      <trkpt lat="42.911174" lon="-8.424204">
        <ele>342.685</ele>
        <time>2022-08-24T06:28:10Z</time>
      </trkpt>
      <trkpt lat="42.911133" lon="-8.424234">
        <ele>342.843</ele>
        <time>2022-08-24T06:28:14Z</time>
      </trkpt>
      <trkpt lat="42.911095" lon="-8.424290">
        <ele>342.964</ele>
        <time>2022-08-24T06:28:19Z</time>
      </trkpt>
      <trkpt lat="42.911056" lon="-8.424341">
        <ele>342.910</ele>
        <time>2022-08-24T06:28:24Z</time>
      </trkpt>
      <trkpt lat="42.911018" lon="-8.424382">
        <ele>343.009</ele>
        <time>2022-08-24T06:28:28Z</time>
      </trkpt>
      <trkpt lat="42.910962" lon="-8.424390">
        <ele>343.285</ele>
        <time>2022-08-24T06:28:33Z</time>
      </trkpt>
      <trkpt lat="42.910910" lon="-8.424385">
        <ele>343.275</ele>
        <time>2022-08-24T06:28:37Z</time>
      </trkpt>
      <trkpt lat="42.910862" lon="-8.424377">
        <ele>343.245</ele>
        <time>2022-08-24T06:28:42Z</time>
      </trkpt>
      <trkpt lat="42.910806" lon="-8.424363">
        <ele>343.290</ele>
        <time>2022-08-24T06:28:47Z</time>
      </trkpt>
      <trkpt lat="42.910759" lon="-8.424353">
        <ele>343.198</ele>
        <time>2022-08-24T06:28:51Z</time>
      </trkpt>
      <trkpt lat="42.910708" lon="-8.424333">
        <ele>343.048</ele>
        <time>2022-08-24T06:28:55Z</time>
      </trkpt>
      <trkpt lat="42.910662" lon="-8.424317">
        <ele>342.942</ele>
        <time>2022-08-24T06:28:58Z</time>
      </trkpt>
      <trkpt lat="42.910608" lon="-8.424294">
        <ele>342.987</ele>
        <time>2022-08-24T06:29:02Z</time>
      </trkpt>
      <trkpt lat="42.910561" lon="-8.424274">
        <ele>342.941</ele>
        <time>2022-08-24T06:29:05Z</time>
      </trkpt>
      <trkpt lat="42.910512" lon="-8.424251">
        <ele>342.953</ele>
        <time>2022-08-24T06:29:11Z</time>
      </trkpt>
      <trkpt lat="42.910454" lon="-8.424227">
        <ele>342.904</ele>
        <time>2022-08-24T06:29:15Z</time>
      </trkpt>
      <trkpt lat="42.910406" lon="-8.424214">
        <ele>342.914</ele>
        <time>2022-08-24T06:29:19Z</time>
      </trkpt>
      <trkpt lat="42.910359" lon="-8.424200">
        <ele>342.809</ele>
        <time>2022-08-24T06:29:23Z</time>
      </trkpt>
      <trkpt lat="42.910306" lon="-8.424179">
        <ele>342.726</ele>
        <time>2022-08-24T06:29:27Z</time>
      </trkpt>
      <trkpt lat="42.910261" lon="-8.424152">
        <ele>342.686</ele>
        <time>2022-08-24T06:29:30Z</time>
      </trkpt>
      <trkpt lat="42.910216" lon="-8.424135">
        <ele>342.566</ele>
        <time>2022-08-24T06:29:34Z</time>
      </trkpt>
      <trkpt lat="42.910164" lon="-8.424119">
        <ele>342.581</ele>
        <time>2022-08-24T06:29:38Z</time>
      </trkpt>
      <trkpt lat="42.910112" lon="-8.424095">
        <ele>342.519</ele>
        <time>2022-08-24T06:29:42Z</time>
      </trkpt>
      <trkpt lat="42.910060" lon="-8.424075">
        <ele>342.549</ele>
        <time>2022-08-24T06:29:46Z</time>
      </trkpt>
      <trkpt lat="42.910004" lon="-8.424052">
        <ele>342.513</ele>
        <time>2022-08-24T06:29:50Z</time>
      </trkpt>
      <trkpt lat="42.909953" lon="-8.424025">
        <ele>342.498</ele>
        <time>2022-08-24T06:29:54Z</time>
      </trkpt>
      <trkpt lat="42.909897" lon="-8.424003">
        <ele>342.362</ele>
        <time>2022-08-24T06:29:59Z</time>
      </trkpt>
      <trkpt lat="42.909841" lon="-8.423968">
        <ele>342.353</ele>
        <time>2022-08-24T06:30:03Z</time>
      </trkpt>
      <trkpt lat="42.909793" lon="-8.423968">
        <ele>342.304</ele>
        <time>2022-08-24T06:30:06Z</time>
      </trkpt>
      <trkpt lat="42.909735" lon="-8.423952">
        <ele>342.214</ele>
        <time>2022-08-24T06:30:10Z</time>
      </trkpt>
      <trkpt lat="42.909681" lon="-8.423940">
        <ele>342.109</ele>
        <time>2022-08-24T06:30:14Z</time>
      </trkpt>
      <trkpt lat="42.909626" lon="-8.423921">
        <ele>342.086</ele>
        <time>2022-08-24T06:30:19Z</time>
      </trkpt>
      <trkpt lat="42.909572" lon="-8.423907">
        <ele>341.896</ele>
        <time>2022-08-24T06:30:23Z</time>
      </trkpt>
      <trkpt lat="42.909521" lon="-8.423890">
        <ele>341.716</ele>
        <time>2022-08-24T06:30:27Z</time>
      </trkpt>
      <trkpt lat="42.909475" lon="-8.423871">
        <ele>341.781</ele>
        <time>2022-08-24T06:30:31Z</time>
      </trkpt>
      <trkpt lat="42.909422" lon="-8.423846">
        <ele>341.719</ele>
        <time>2022-08-24T06:30:35Z</time>
      </trkpt>
      <trkpt lat="42.909372" lon="-8.423819">
        <ele>341.619</ele>
        <time>2022-08-24T06:30:39Z</time>
      </trkpt>
      <trkpt lat="42.909329" lon="-8.423793">
        <ele>341.683</ele>
        <time>2022-08-24T06:30:43Z</time>
      </trkpt>
      <trkpt lat="42.909285" lon="-8.423771">
        <ele>341.648</ele>
        <time>2022-08-24T06:30:46Z</time>
      </trkpt>
      <trkpt lat="42.909234" lon="-8.423754">
        <ele>341.682</ele>
        <time>2022-08-24T06:30:50Z</time>
      </trkpt>
      <trkpt lat="42.909180" lon="-8.423734">
        <ele>341.636</ele>
        <time>2022-08-24T06:30:54Z</time>
      </trkpt>
      <trkpt lat="42.909126" lon="-8.423710">
        <ele>341.617</ele>
        <time>2022-08-24T06:30:58Z</time>
      </trkpt>
      <trkpt lat="42.909074" lon="-8.423689">
        <ele>341.618</ele>
        <time>2022-08-24T06:31:02Z</time>
      </trkpt>
      <trkpt lat="42.909021" lon="-8.423657">
        <ele>341.609</ele>
        <time>2022-08-24T06:31:06Z</time>
      </trkpt>
      <trkpt lat="42.908972" lon="-8.423651">
        <ele>341.764</ele>
        <time>2022-08-24T06:31:10Z</time>
      </trkpt>
      <trkpt lat="42.908922" lon="-8.423639">
        <ele>341.884</ele>
        <time>2022-08-24T06:31:14Z</time>
      </trkpt>
      <trkpt lat="42.908872" lon="-8.423645">
        <ele>342.084</ele>
        <time>2022-08-24T06:31:17Z</time>
      </trkpt>
      <trkpt lat="42.908814" lon="-8.423659">
        <ele>342.119</ele>
        <time>2022-08-24T06:31:21Z</time>
      </trkpt>
      <trkpt lat="42.908767" lon="-8.423686">
        <ele>342.197</ele>
        <time>2022-08-24T06:31:25Z</time>
      </trkpt>
      <trkpt lat="42.908744" lon="-8.423749">
        <ele>342.127</ele>
        <time>2022-08-24T06:31:32Z</time>
      </trkpt>
      <trkpt lat="42.908729" lon="-8.423821">
        <ele>342.031</ele>
        <time>2022-08-24T06:31:37Z</time>
      </trkpt>
      <trkpt lat="42.908725" lon="-8.423898">
        <ele>341.656</ele>
        <time>2022-08-24T06:31:42Z</time>
      </trkpt>
      <trkpt lat="42.908731" lon="-8.423960">
        <ele>341.590</ele>
        <time>2022-08-24T06:31:46Z</time>
      </trkpt>
      <trkpt lat="42.908744" lon="-8.424019">
        <ele>341.289</ele>
        <time>2022-08-24T06:31:50Z</time>
      </trkpt>
      <trkpt lat="42.908748" lon="-8.424084">
        <ele>340.806</ele>
        <time>2022-08-24T06:31:54Z</time>
      </trkpt>
      <trkpt lat="42.908757" lon="-8.424155">
        <ele>340.426</ele>
        <time>2022-08-24T06:31:58Z</time>
      </trkpt>
      <trkpt lat="42.908752" lon="-8.424226">
        <ele>340.009</ele>
        <time>2022-08-24T06:32:02Z</time>
      </trkpt>
      <trkpt lat="42.908755" lon="-8.424287">
        <ele>339.659</ele>
        <time>2022-08-24T06:32:06Z</time>
      </trkpt>
      <trkpt lat="42.908760" lon="-8.424359">
        <ele>339.269</ele>
        <time>2022-08-24T06:32:10Z</time>
      </trkpt>
      <trkpt lat="42.908772" lon="-8.424434">
        <ele>338.869</ele>
        <time>2022-08-24T06:32:14Z</time>
      </trkpt>
      <trkpt lat="42.908776" lon="-8.424513">
        <ele>338.474</ele>
        <time>2022-08-24T06:32:18Z</time>
      </trkpt>
      <trkpt lat="42.908785" lon="-8.424585">
        <ele>338.022</ele>
        <time>2022-08-24T06:32:23Z</time>
      </trkpt>
      <trkpt lat="42.908782" lon="-8.424653">
        <ele>337.512</ele>
        <time>2022-08-24T06:32:28Z</time>
      </trkpt>
      <trkpt lat="42.908799" lon="-8.424724">
        <ele>337.176</ele>
        <time>2022-08-24T06:32:33Z</time>
      </trkpt>
      <trkpt lat="42.908808" lon="-8.424785">
        <ele>336.931</ele>
        <time>2022-08-24T06:32:36Z</time>
      </trkpt>
      <trkpt lat="42.908816" lon="-8.424857">
        <ele>336.545</ele>
        <time>2022-08-24T06:32:40Z</time>
      </trkpt>
      <trkpt lat="42.908832" lon="-8.424918">
        <ele>336.239</ele>
        <time>2022-08-24T06:32:44Z</time>
      </trkpt>
      <trkpt lat="42.908850" lon="-8.424987">
        <ele>336.001</ele>
        <time>2022-08-24T06:32:48Z</time>
      </trkpt>
      <trkpt lat="42.908865" lon="-8.425056">
        <ele>335.721</ele>
        <time>2022-08-24T06:32:52Z</time>
      </trkpt>
      <trkpt lat="42.908894" lon="-8.425117">
        <ele>335.409</ele>
        <time>2022-08-24T06:32:56Z</time>
      </trkpt>
      <trkpt lat="42.908904" lon="-8.425188">
        <ele>335.254</ele>
        <time>2022-08-24T06:33:00Z</time>
      </trkpt>
      <trkpt lat="42.908919" lon="-8.425253">
        <ele>334.954</ele>
        <time>2022-08-24T06:33:04Z</time>
      </trkpt>
      <trkpt lat="42.908947" lon="-8.425306">
        <ele>334.674</ele>
        <time>2022-08-24T06:33:08Z</time>
      </trkpt>
      <trkpt lat="42.908959" lon="-8.425373">
        <ele>334.349</ele>
        <time>2022-08-24T06:33:12Z</time>
      </trkpt>
      <trkpt lat="42.908968" lon="-8.425433">
        <ele>334.187</ele>
        <time>2022-08-24T06:33:15Z</time>
      </trkpt>
      <trkpt lat="42.908983" lon="-8.425502">
        <ele>333.917</ele>
        <time>2022-08-24T06:33:19Z</time>
      </trkpt>
      <trkpt lat="42.908986" lon="-8.425573">
        <ele>333.741</ele>
        <time>2022-08-24T06:33:23Z</time>
      </trkpt>
      <trkpt lat="42.908976" lon="-8.425652">
        <ele>333.566</ele>
        <time>2022-08-24T06:33:27Z</time>
      </trkpt>
      <trkpt lat="42.908972" lon="-8.425719">
        <ele>333.380</ele>
        <time>2022-08-24T06:33:31Z</time>
      </trkpt>
      <trkpt lat="42.908962" lon="-8.425784">
        <ele>333.263</ele>
        <time>2022-08-24T06:33:35Z</time>
      </trkpt>
      <trkpt lat="42.908959" lon="-8.425858">
        <ele>333.144</ele>
        <time>2022-08-24T06:33:39Z</time>
      </trkpt>
      <trkpt lat="42.908940" lon="-8.425928">
        <ele>333.018</ele>
        <time>2022-08-24T06:33:43Z</time>
      </trkpt>
      <trkpt lat="42.908926" lon="-8.426003">
        <ele>332.909</ele>
        <time>2022-08-24T06:33:47Z</time>
      </trkpt>
      <trkpt lat="42.908915" lon="-8.426067">
        <ele>332.867</ele>
        <time>2022-08-24T06:33:51Z</time>
      </trkpt>
      <trkpt lat="42.908901" lon="-8.426126">
        <ele>332.827</ele>
        <time>2022-08-24T06:33:56Z</time>
      </trkpt>
      <trkpt lat="42.908862" lon="-8.426168">
        <ele>332.847</ele>
        <time>2022-08-24T06:34:00Z</time>
      </trkpt>
      <trkpt lat="42.908819" lon="-8.426189">
        <ele>332.842</ele>
        <time>2022-08-24T06:34:04Z</time>
      </trkpt>
      <trkpt lat="42.908770" lon="-8.426199">
        <ele>332.850</ele>
        <time>2022-08-24T06:34:09Z</time>
      </trkpt>
      <trkpt lat="42.908704" lon="-8.426212">
        <ele>332.860</ele>
        <time>2022-08-24T06:34:14Z</time>
      </trkpt>
      <trkpt lat="42.908655" lon="-8.426233">
        <ele>332.874</ele>
        <time>2022-08-24T06:34:17Z</time>
      </trkpt>
      <trkpt lat="42.908609" lon="-8.426259">
        <ele>332.889</ele>
        <time>2022-08-24T06:34:20Z</time>
      </trkpt>
      <trkpt lat="42.908565" lon="-8.426293">
        <ele>332.863</ele>
        <time>2022-08-24T06:34:24Z</time>
      </trkpt>
      <trkpt lat="42.908525" lon="-8.426335">
        <ele>332.925</ele>
        <time>2022-08-24T06:34:28Z</time>
      </trkpt>
      <trkpt lat="42.908488" lon="-8.426386">
        <ele>333.026</ele>
        <time>2022-08-24T06:34:32Z</time>
      </trkpt>
      <trkpt lat="42.908457" lon="-8.426444">
        <ele>333.108</ele>
        <time>2022-08-24T06:34:36Z</time>
      </trkpt>
      <trkpt lat="42.908435" lon="-8.426503">
        <ele>333.209</ele>
        <time>2022-08-24T06:34:40Z</time>
      </trkpt>
      <trkpt lat="42.908420" lon="-8.426569">
        <ele>333.383</ele>
        <time>2022-08-24T06:34:44Z</time>
      </trkpt>
      <trkpt lat="42.908399" lon="-8.426634">
        <ele>333.513</ele>
        <time>2022-08-24T06:34:48Z</time>
      </trkpt>
      <trkpt lat="42.908372" lon="-8.426690">
        <ele>333.893</ele>
        <time>2022-08-24T06:34:52Z</time>
      </trkpt>
      <trkpt lat="42.908350" lon="-8.426752">
        <ele>334.218</ele>
        <time>2022-08-24T06:34:57Z</time>
      </trkpt>
      <trkpt lat="42.908319" lon="-8.426809">
        <ele>334.786</ele>
        <time>2022-08-24T06:35:04Z</time>
      </trkpt>
      <trkpt lat="42.908280" lon="-8.426844">
        <ele>335.486</ele>
        <time>2022-08-24T06:35:09Z</time>
      </trkpt>
      <trkpt lat="42.908257" lon="-8.426912">
        <ele>336.550</ele>
        <time>2022-08-24T06:35:13Z</time>
      </trkpt>
      <trkpt lat="42.908218" lon="-8.426967">
        <ele>337.895</ele>
        <time>2022-08-24T06:35:17Z</time>
      </trkpt>
      <trkpt lat="42.908182" lon="-8.427018">
        <ele>338.929</ele>
        <time>2022-08-24T06:35:21Z</time>
      </trkpt>
      <trkpt lat="42.908149" lon="-8.427067">
        <ele>339.998</ele>
        <time>2022-08-24T06:35:27Z</time>
      </trkpt>
      <trkpt lat="42.908100" lon="-8.427112">
        <ele>341.315</ele>
        <time>2022-08-24T06:35:31Z</time>
      </trkpt>
      <trkpt lat="42.908056" lon="-8.427160">
        <ele>342.626</ele>
        <time>2022-08-24T06:35:39Z</time>
      </trkpt>
      <trkpt lat="42.908016" lon="-8.427202">
        <ele>343.009</ele>
        <time>2022-08-24T06:35:43Z</time>
      </trkpt>
      <trkpt lat="42.907980" lon="-8.427241">
        <ele>344.190</ele>
        <time>2022-08-24T06:35:47Z</time>
      </trkpt>
      <trkpt lat="42.907937" lon="-8.427278">
        <ele>345.290</ele>
        <time>2022-08-24T06:35:52Z</time>
      </trkpt>
      <trkpt lat="42.907900" lon="-8.427314">
        <ele>345.990</ele>
        <time>2022-08-24T06:35:56Z</time>
      </trkpt>
      <trkpt lat="42.907859" lon="-8.427343">
        <ele>346.675</ele>
        <time>2022-08-24T06:36:01Z</time>
      </trkpt>
      <trkpt lat="42.907817" lon="-8.427381">
        <ele>347.323</ele>
        <time>2022-08-24T06:36:07Z</time>
      </trkpt>
      <trkpt lat="42.907785" lon="-8.427427">
        <ele>348.073</ele>
        <time>2022-08-24T06:36:12Z</time>
      </trkpt>
      <trkpt lat="42.907733" lon="-8.427458">
        <ele>348.767</ele>
        <time>2022-08-24T06:36:17Z</time>
      </trkpt>
      <trkpt lat="42.907684" lon="-8.427486">
        <ele>349.562</ele>
        <time>2022-08-24T06:36:22Z</time>
      </trkpt>
      <trkpt lat="42.907647" lon="-8.427524">
        <ele>350.296</ele>
        <time>2022-08-24T06:36:25Z</time>
      </trkpt>
      <trkpt lat="42.907601" lon="-8.427566">
        <ele>350.969</ele>
        <time>2022-08-24T06:36:30Z</time>
      </trkpt>
      <trkpt lat="42.907546" lon="-8.427616">
        <ele>351.504</ele>
        <time>2022-08-24T06:36:34Z</time>
      </trkpt>
      <trkpt lat="42.907509" lon="-8.427665">
        <ele>352.024</ele>
        <time>2022-08-24T06:36:39Z</time>
      </trkpt>
      <trkpt lat="42.907476" lon="-8.427707">
        <ele>352.109</ele>
        <time>2022-08-24T06:36:44Z</time>
      </trkpt>
      <trkpt lat="42.907431" lon="-8.427745">
        <ele>352.467</ele>
        <time>2022-08-24T06:36:48Z</time>
      </trkpt>
      <trkpt lat="42.907394" lon="-8.427782">
        <ele>352.557</ele>
        <time>2022-08-24T06:36:52Z</time>
      </trkpt>
      <trkpt lat="42.907362" lon="-8.427828">
        <ele>352.797</ele>
        <time>2022-08-24T06:36:57Z</time>
      </trkpt>
      <trkpt lat="42.907310" lon="-8.427870">
        <ele>352.972</ele>
        <time>2022-08-24T06:37:01Z</time>
      </trkpt>
      <trkpt lat="42.907268" lon="-8.427897">
        <ele>353.270</ele>
        <time>2022-08-24T06:37:04Z</time>
      </trkpt>
      <trkpt lat="42.907232" lon="-8.427943">
        <ele>353.450</ele>
        <time>2022-08-24T06:37:10Z</time>
      </trkpt>
      <trkpt lat="42.907198" lon="-8.427996">
        <ele>353.464</ele>
        <time>2022-08-24T06:37:14Z</time>
      </trkpt>
      <trkpt lat="42.907161" lon="-8.428044">
        <ele>353.469</ele>
        <time>2022-08-24T06:37:18Z</time>
      </trkpt>
      <trkpt lat="42.907128" lon="-8.428090">
        <ele>353.263</ele>
        <time>2022-08-24T06:37:21Z</time>
      </trkpt>
      <trkpt lat="42.907098" lon="-8.428136">
        <ele>352.932</ele>
        <time>2022-08-24T06:37:24Z</time>
      </trkpt>
      <trkpt lat="42.907078" lon="-8.428202">
        <ele>352.692</ele>
        <time>2022-08-24T06:37:30Z</time>
      </trkpt>
      <trkpt lat="42.907058" lon="-8.428276">
        <ele>352.311</ele>
        <time>2022-08-24T06:37:34Z</time>
      </trkpt>
      <trkpt lat="42.907038" lon="-8.428345">
        <ele>351.809</ele>
        <time>2022-08-24T06:37:38Z</time>
      </trkpt>
      <trkpt lat="42.907001" lon="-8.428401">
        <ele>351.274</ele>
        <time>2022-08-24T06:37:41Z</time>
      </trkpt>
      <trkpt lat="42.906961" lon="-8.428467">
        <ele>350.574</ele>
        <time>2022-08-24T06:37:44Z</time>
      </trkpt>
      <trkpt lat="42.906933" lon="-8.428520">
        <ele>350.054</ele>
        <time>2022-08-24T06:37:47Z</time>
      </trkpt>
      <trkpt lat="42.906895" lon="-8.428588">
        <ele>349.569</ele>
        <time>2022-08-24T06:37:51Z</time>
      </trkpt>
      <trkpt lat="42.906868" lon="-8.428658">
        <ele>349.187</ele>
        <time>2022-08-24T06:37:56Z</time>
      </trkpt>
      <trkpt lat="42.906848" lon="-8.428722">
        <ele>348.757</ele>
        <time>2022-08-24T06:38:00Z</time>
      </trkpt>
      <trkpt lat="42.906825" lon="-8.428791">
        <ele>348.281</ele>
        <time>2022-08-24T06:38:04Z</time>
      </trkpt>
      <trkpt lat="42.906803" lon="-8.428855">
        <ele>347.836</ele>
        <time>2022-08-24T06:38:08Z</time>
      </trkpt>
      <trkpt lat="42.906782" lon="-8.428922">
        <ele>347.440</ele>
        <time>2022-08-24T06:38:12Z</time>
      </trkpt>
      <trkpt lat="42.906750" lon="-8.428988">
        <ele>347.095</ele>
        <time>2022-08-24T06:38:16Z</time>
      </trkpt>
      <trkpt lat="42.906712" lon="-8.429046">
        <ele>346.549</ele>
        <time>2022-08-24T06:38:20Z</time>
      </trkpt>
      <trkpt lat="42.906691" lon="-8.429105">
        <ele>346.323</ele>
        <time>2022-08-24T06:38:24Z</time>
      </trkpt>
      <trkpt lat="42.906671" lon="-8.429163">
        <ele>345.809</ele>
        <time>2022-08-24T06:38:28Z</time>
      </trkpt>
      <trkpt lat="42.906648" lon="-8.429217">
        <ele>345.240</ele>
        <time>2022-08-24T06:38:31Z</time>
      </trkpt>
      <trkpt lat="42.906619" lon="-8.429271">
        <ele>344.690</ele>
        <time>2022-08-24T06:38:35Z</time>
      </trkpt>
      <trkpt lat="42.906587" lon="-8.429333">
        <ele>344.150</ele>
        <time>2022-08-24T06:38:39Z</time>
      </trkpt>
      <trkpt lat="42.906562" lon="-8.429388">
        <ele>343.625</ele>
        <time>2022-08-24T06:38:43Z</time>
      </trkpt>
      <trkpt lat="42.906524" lon="-8.429439">
        <ele>343.053</ele>
        <time>2022-08-24T06:38:47Z</time>
      </trkpt>
      <trkpt lat="42.906490" lon="-8.429499">
        <ele>342.483</ele>
        <time>2022-08-24T06:38:50Z</time>
      </trkpt>
      <trkpt lat="42.906459" lon="-8.429555">
        <ele>341.827</ele>
        <time>2022-08-24T06:38:54Z</time>
      </trkpt>
      <trkpt lat="42.906431" lon="-8.429612">
        <ele>341.362</ele>
        <time>2022-08-24T06:38:58Z</time>
      </trkpt>
      <trkpt lat="42.906411" lon="-8.429684">
        <ele>340.886</ele>
        <time>2022-08-24T06:39:02Z</time>
      </trkpt>
      <trkpt lat="42.906378" lon="-8.429729">
        <ele>340.443</ele>
        <time>2022-08-24T06:39:05Z</time>
      </trkpt>
      <trkpt lat="42.906344" lon="-8.429773">
        <ele>340.164</ele>
        <time>2022-08-24T06:39:08Z</time>
      </trkpt>
      <trkpt lat="42.906221" lon="-8.429805">
        <ele>339.910</ele>
        <time>2022-08-24T06:39:24Z</time>
      </trkpt>
      <trkpt lat="42.906132" lon="-8.429813">
        <ele>340.009</ele>
        <time>2022-08-24T06:39:25Z</time>
      </trkpt>
      <trkpt lat="42.906106" lon="-8.429866">
        <ele>340.165</ele>
        <time>2022-08-24T06:39:28Z</time>
      </trkpt>
      <trkpt lat="42.906117" lon="-8.429965">
        <ele>340.115</ele>
        <time>2022-08-24T06:39:31Z</time>
      </trkpt>
      <trkpt lat="42.906075" lon="-8.430002">
        <ele>340.175</ele>
        <time>2022-08-24T06:39:35Z</time>
      </trkpt>
      <trkpt lat="42.906028" lon="-8.430045">
        <ele>340.160</ele>
        <time>2022-08-24T06:39:38Z</time>
      </trkpt>
      <trkpt lat="42.905976" lon="-8.430085">
        <ele>340.118</ele>
        <time>2022-08-24T06:39:42Z</time>
      </trkpt>
      <trkpt lat="42.905932" lon="-8.430104">
        <ele>340.118</ele>
        <time>2022-08-24T06:39:45Z</time>
      </trkpt>
      <trkpt lat="42.905900" lon="-8.430149">
        <ele>340.132</ele>
        <time>2022-08-24T06:39:48Z</time>
      </trkpt>
      <trkpt lat="42.905860" lon="-8.430214">
        <ele>340.117</ele>
        <time>2022-08-24T06:39:53Z</time>
      </trkpt>
      <trkpt lat="42.905825" lon="-8.430261">
        <ele>340.121</ele>
        <time>2022-08-24T06:39:57Z</time>
      </trkpt>
      <trkpt lat="42.905792" lon="-8.430307">
        <ele>340.135</ele>
        <time>2022-08-24T06:40:01Z</time>
      </trkpt>
      <trkpt lat="42.905761" lon="-8.430362">
        <ele>340.186</ele>
        <time>2022-08-24T06:40:05Z</time>
      </trkpt>
      <trkpt lat="42.905736" lon="-8.430413">
        <ele>340.114</ele>
        <time>2022-08-24T06:40:09Z</time>
      </trkpt>
      <trkpt lat="42.905698" lon="-8.430473">
        <ele>340.209</ele>
        <time>2022-08-24T06:40:14Z</time>
      </trkpt>
      <trkpt lat="42.905659" lon="-8.430535">
        <ele>340.424</ele>
        <time>2022-08-24T06:40:19Z</time>
      </trkpt>
      <trkpt lat="42.905629" lon="-8.430590">
        <ele>340.624</ele>
        <time>2022-08-24T06:40:23Z</time>
      </trkpt>
      <trkpt lat="42.905597" lon="-8.430648">
        <ele>340.994</ele>
        <time>2022-08-24T06:40:27Z</time>
      </trkpt>
      <trkpt lat="42.905576" lon="-8.430713">
        <ele>341.269</ele>
        <time>2022-08-24T06:40:32Z</time>
      </trkpt>
      <trkpt lat="42.905542" lon="-8.430754">
        <ele>341.357</ele>
        <time>2022-08-24T06:40:35Z</time>
      </trkpt>
      <trkpt lat="42.905510" lon="-8.430808">
        <ele>341.697</ele>
        <time>2022-08-24T06:40:39Z</time>
      </trkpt>
      <trkpt lat="42.905470" lon="-8.430865">
        <ele>341.851</ele>
        <time>2022-08-24T06:40:44Z</time>
      </trkpt>
      <trkpt lat="42.905443" lon="-8.430927">
        <ele>342.086</ele>
        <time>2022-08-24T06:40:48Z</time>
      </trkpt>
      <trkpt lat="42.905436" lon="-8.431000">
        <ele>342.290</ele>
        <time>2022-08-24T06:40:54Z</time>
      </trkpt>
      <trkpt lat="42.905423" lon="-8.431062">
        <ele>342.386</ele>
        <time>2022-08-24T06:40:58Z</time>
      </trkpt>
      <trkpt lat="42.905412" lon="-8.431142">
        <ele>342.560</ele>
        <time>2022-08-24T06:41:02Z</time>
      </trkpt>
      <trkpt lat="42.905392" lon="-8.431211">
        <ele>342.426</ele>
        <time>2022-08-24T06:41:07Z</time>
      </trkpt>
      <trkpt lat="42.905381" lon="-8.431272">
        <ele>342.409</ele>
        <time>2022-08-24T06:41:10Z</time>
      </trkpt>
      <trkpt lat="42.905374" lon="-8.431344">
        <ele>342.419</ele>
        <time>2022-08-24T06:41:13Z</time>
      </trkpt>
      <trkpt lat="42.905400" lon="-8.431409">
        <ele>342.349</ele>
        <time>2022-08-24T06:41:18Z</time>
      </trkpt>
      <trkpt lat="42.905387" lon="-8.431472">
        <ele>342.219</ele>
        <time>2022-08-24T06:41:22Z</time>
      </trkpt>
      <trkpt lat="42.905377" lon="-8.431534">
        <ele>342.024</ele>
        <time>2022-08-24T06:41:26Z</time>
      </trkpt>
      <trkpt lat="42.905360" lon="-8.431598">
        <ele>341.752</ele>
        <time>2022-08-24T06:41:30Z</time>
      </trkpt>
      <trkpt lat="42.905354" lon="-8.431670">
        <ele>341.452</ele>
        <time>2022-08-24T06:41:35Z</time>
      </trkpt>
      <trkpt lat="42.905344" lon="-8.431737">
        <ele>341.186</ele>
        <time>2022-08-24T06:41:39Z</time>
      </trkpt>
      <trkpt lat="42.905326" lon="-8.431799">
        <ele>340.531</ele>
        <time>2022-08-24T06:41:43Z</time>
      </trkpt>
      <trkpt lat="42.905299" lon="-8.431863">
        <ele>339.725</ele>
        <time>2022-08-24T06:41:48Z</time>
      </trkpt>
      <trkpt lat="42.905276" lon="-8.431924">
        <ele>338.983</ele>
        <time>2022-08-24T06:41:53Z</time>
      </trkpt>
      <trkpt lat="42.905252" lon="-8.431981">
        <ele>338.125</ele>
        <time>2022-08-24T06:41:56Z</time>
      </trkpt>
      <trkpt lat="42.905222" lon="-8.432038">
        <ele>337.217</ele>
        <time>2022-08-24T06:42:00Z</time>
      </trkpt>
      <trkpt lat="42.905212" lon="-8.432098">
        <ele>336.509</ele>
        <time>2022-08-24T06:42:03Z</time>
      </trkpt>
      <trkpt lat="42.905176" lon="-8.432164">
        <ele>336.069</ele>
        <time>2022-08-24T06:42:07Z</time>
      </trkpt>
      <trkpt lat="42.905146" lon="-8.432230">
        <ele>335.699</ele>
        <time>2022-08-24T06:42:12Z</time>
      </trkpt>
      <trkpt lat="42.905133" lon="-8.432298">
        <ele>335.229</ele>
        <time>2022-08-24T06:42:18Z</time>
      </trkpt>
      <trkpt lat="42.905102" lon="-8.432350">
        <ele>334.884</ele>
        <time>2022-08-24T06:42:22Z</time>
      </trkpt>
      <trkpt lat="42.905069" lon="-8.432401">
        <ele>334.432</ele>
        <time>2022-08-24T06:42:26Z</time>
      </trkpt>
      <trkpt lat="42.905035" lon="-8.432446">
        <ele>334.172</ele>
        <time>2022-08-24T06:42:30Z</time>
      </trkpt>
      <trkpt lat="42.905006" lon="-8.432510">
        <ele>333.836</ele>
        <time>2022-08-24T06:42:34Z</time>
      </trkpt>
      <trkpt lat="42.904975" lon="-8.432561">
        <ele>333.541</ele>
        <time>2022-08-24T06:42:37Z</time>
      </trkpt>
      <trkpt lat="42.904938" lon="-8.432605">
        <ele>333.335</ele>
        <time>2022-08-24T06:42:40Z</time>
      </trkpt>
      <trkpt lat="42.904909" lon="-8.432653">
        <ele>333.157</ele>
        <time>2022-08-24T06:42:44Z</time>
      </trkpt>
      <trkpt lat="42.904882" lon="-8.432714">
        <ele>332.900</ele>
        <time>2022-08-24T06:42:49Z</time>
      </trkpt>
      <trkpt lat="42.904840" lon="-8.432761">
        <ele>332.720</ele>
        <time>2022-08-24T06:42:52Z</time>
      </trkpt>
      <trkpt lat="42.904803" lon="-8.432802">
        <ele>332.509</ele>
        <time>2022-08-24T06:42:55Z</time>
      </trkpt>
      <trkpt lat="42.904773" lon="-8.432852">
        <ele>332.346</ele>
        <time>2022-08-24T06:43:00Z</time>
      </trkpt>
      <trkpt lat="42.904730" lon="-8.432888">
        <ele>332.216</ele>
        <time>2022-08-24T06:43:05Z</time>
      </trkpt>
      <trkpt lat="42.904700" lon="-8.432951">
        <ele>332.036</ele>
        <time>2022-08-24T06:43:10Z</time>
      </trkpt>
      <trkpt lat="42.904679" lon="-8.433012">
        <ele>331.811</ele>
        <time>2022-08-24T06:43:15Z</time>
      </trkpt>
      <trkpt lat="42.904642" lon="-8.433069">
        <ele>331.669</ele>
        <time>2022-08-24T06:43:19Z</time>
      </trkpt>
      <trkpt lat="42.904612" lon="-8.433132">
        <ele>331.599</ele>
        <time>2022-08-24T06:43:24Z</time>
      </trkpt>
      <trkpt lat="42.904590" lon="-8.433190">
        <ele>331.443</ele>
        <time>2022-08-24T06:43:28Z</time>
      </trkpt>
      <trkpt lat="42.904564" lon="-8.433243">
        <ele>331.338</ele>
        <time>2022-08-24T06:43:32Z</time>
      </trkpt>
      <trkpt lat="42.904546" lon="-8.433309">
        <ele>331.282</ele>
        <time>2022-08-24T06:43:37Z</time>
      </trkpt>
      <trkpt lat="42.904528" lon="-8.433382">
        <ele>331.121</ele>
        <time>2022-08-24T06:43:42Z</time>
      </trkpt>
      <trkpt lat="42.904504" lon="-8.433461">
        <ele>331.041</ele>
        <time>2022-08-24T06:43:46Z</time>
      </trkpt>
      <trkpt lat="42.904474" lon="-8.433534">
        <ele>330.805</ele>
        <time>2022-08-24T06:43:52Z</time>
      </trkpt>
      <trkpt lat="42.904452" lon="-8.433602">
        <ele>330.709</ele>
        <time>2022-08-24T06:43:56Z</time>
      </trkpt>
      <trkpt lat="42.904432" lon="-8.433667">
        <ele>330.593</ele>
        <time>2022-08-24T06:44:00Z</time>
      </trkpt>
      <trkpt lat="42.904416" lon="-8.433732">
        <ele>330.413</ele>
        <time>2022-08-24T06:44:04Z</time>
      </trkpt>
      <trkpt lat="42.904391" lon="-8.433801">
        <ele>330.323</ele>
        <time>2022-08-24T06:44:08Z</time>
      </trkpt>
      <trkpt lat="42.904372" lon="-8.433863">
        <ele>330.288</ele>
        <time>2022-08-24T06:44:12Z</time>
      </trkpt>
      <trkpt lat="42.904352" lon="-8.433920">
        <ele>330.156</ele>
        <time>2022-08-24T06:44:15Z</time>
      </trkpt>
      <trkpt lat="42.904338" lon="-8.433987">
        <ele>330.056</ele>
        <time>2022-08-24T06:44:19Z</time>
      </trkpt>
      <trkpt lat="42.904330" lon="-8.434055">
        <ele>330.040</ele>
        <time>2022-08-24T06:44:23Z</time>
      </trkpt>
      <trkpt lat="42.904306" lon="-8.434114">
        <ele>330.015</ele>
        <time>2022-08-24T06:44:26Z</time>
      </trkpt>
      <trkpt lat="42.904295" lon="-8.434186">
        <ele>329.929</ele>
        <time>2022-08-24T06:44:30Z</time>
      </trkpt>
      <trkpt lat="42.904285" lon="-8.434251">
        <ele>329.876</ele>
        <time>2022-08-24T06:44:34Z</time>
      </trkpt>
      <trkpt lat="42.904270" lon="-8.434316">
        <ele>329.790</ele>
        <time>2022-08-24T06:44:38Z</time>
      </trkpt>
      <trkpt lat="42.904257" lon="-8.434391">
        <ele>329.719</ele>
        <time>2022-08-24T06:44:42Z</time>
      </trkpt>
      <trkpt lat="42.904245" lon="-8.434451">
        <ele>329.709</ele>
        <time>2022-08-24T06:44:45Z</time>
      </trkpt>
      <trkpt lat="42.904220" lon="-8.434521">
        <ele>329.678</ele>
        <time>2022-08-24T06:44:49Z</time>
      </trkpt>
      <trkpt lat="42.904202" lon="-8.434577">
        <ele>329.548</ele>
        <time>2022-08-24T06:44:52Z</time>
      </trkpt>
      <trkpt lat="42.904203" lon="-8.434644">
        <ele>329.548</ele>
        <time>2022-08-24T06:44:57Z</time>
      </trkpt>
      <trkpt lat="42.904205" lon="-8.434713">
        <ele>329.583</ele>
        <time>2022-08-24T06:45:02Z</time>
      </trkpt>
      <trkpt lat="42.904202" lon="-8.434795">
        <ele>329.521</ele>
        <time>2022-08-24T06:45:06Z</time>
      </trkpt>
      <trkpt lat="42.904210" lon="-8.434872">
        <ele>329.471</ele>
        <time>2022-08-24T06:45:10Z</time>
      </trkpt>
      <trkpt lat="42.904219" lon="-8.434935">
        <ele>329.385</ele>
        <time>2022-08-24T06:45:14Z</time>
      </trkpt>
      <trkpt lat="42.904218" lon="-8.435001">
        <ele>329.280</ele>
        <time>2022-08-24T06:45:17Z</time>
      </trkpt>
      <trkpt lat="42.904208" lon="-8.435082">
        <ele>329.054</ele>
        <time>2022-08-24T06:45:21Z</time>
      </trkpt>
      <trkpt lat="42.904184" lon="-8.435149">
        <ele>329.083</ele>
        <time>2022-08-24T06:45:25Z</time>
      </trkpt>
      <trkpt lat="42.904148" lon="-8.435201">
        <ele>328.925</ele>
        <time>2022-08-24T06:45:30Z</time>
      </trkpt>
      <trkpt lat="42.904113" lon="-8.435246">
        <ele>328.817</ele>
        <time>2022-08-24T06:45:34Z</time>
      </trkpt>
      <trkpt lat="42.904076" lon="-8.435304">
        <ele>328.609</ele>
        <time>2022-08-24T06:45:39Z</time>
      </trkpt>
      <trkpt lat="42.904056" lon="-8.435371">
        <ele>328.519</ele>
        <time>2022-08-24T06:45:45Z</time>
      </trkpt>
      <trkpt lat="42.904022" lon="-8.435413">
        <ele>328.399</ele>
        <time>2022-08-24T06:45:49Z</time>
      </trkpt>
      <trkpt lat="42.903989" lon="-8.435460">
        <ele>328.049</ele>
        <time>2022-08-24T06:45:53Z</time>
      </trkpt>
      <trkpt lat="42.903965" lon="-8.435526">
        <ele>327.814</ele>
        <time>2022-08-24T06:45:58Z</time>
      </trkpt>
      <trkpt lat="42.903942" lon="-8.435580">
        <ele>327.662</ele>
        <time>2022-08-24T06:46:01Z</time>
      </trkpt>
      <trkpt lat="42.903904" lon="-8.435634">
        <ele>327.412</ele>
        <time>2022-08-24T06:46:05Z</time>
      </trkpt>
      <trkpt lat="42.903862" lon="-8.435696">
        <ele>327.246</ele>
        <time>2022-08-24T06:46:10Z</time>
      </trkpt>
      <trkpt lat="42.903823" lon="-8.435728">
        <ele>327.081</ele>
        <time>2022-08-24T06:46:13Z</time>
      </trkpt>
      <trkpt lat="42.903785" lon="-8.435770">
        <ele>326.815</ele>
        <time>2022-08-24T06:46:16Z</time>
      </trkpt>
      <trkpt lat="42.903745" lon="-8.435807">
        <ele>326.669</ele>
        <time>2022-08-24T06:46:20Z</time>
      </trkpt>
      <trkpt lat="42.903708" lon="-8.435863">
        <ele>326.404</ele>
        <time>2022-08-24T06:46:24Z</time>
      </trkpt>
      <trkpt lat="42.903675" lon="-8.435919">
        <ele>326.224</ele>
        <time>2022-08-24T06:46:28Z</time>
      </trkpt>
      <trkpt lat="42.903635" lon="-8.435972">
        <ele>326.009</ele>
        <time>2022-08-24T06:46:32Z</time>
      </trkpt>
      <trkpt lat="42.903603" lon="-8.436023">
        <ele>325.717</ele>
        <time>2022-08-24T06:46:36Z</time>
      </trkpt>
      <trkpt lat="42.903560" lon="-8.436065">
        <ele>325.557</ele>
        <time>2022-08-24T06:46:40Z</time>
      </trkpt>
      <trkpt lat="42.903522" lon="-8.436106">
        <ele>325.347</ele>
        <time>2022-08-24T06:46:44Z</time>
      </trkpt>
      <trkpt lat="42.903486" lon="-8.436154">
        <ele>325.112</ele>
        <time>2022-08-24T06:46:48Z</time>
      </trkpt>
      <trkpt lat="42.903454" lon="-8.436208">
        <ele>325.090</ele>
        <time>2022-08-24T06:46:52Z</time>
      </trkpt>
      <trkpt lat="42.903418" lon="-8.436270">
        <ele>324.980</ele>
        <time>2022-08-24T06:46:56Z</time>
      </trkpt>
      <trkpt lat="42.903383" lon="-8.436322">
        <ele>324.824</ele>
        <time>2022-08-24T06:47:01Z</time>
      </trkpt>
      <trkpt lat="42.903343" lon="-8.436377">
        <ele>324.729</ele>
        <time>2022-08-24T06:47:05Z</time>
      </trkpt>
      <trkpt lat="42.903310" lon="-8.436421">
        <ele>324.633</ele>
        <time>2022-08-24T06:47:08Z</time>
      </trkpt>
      <trkpt lat="42.903273" lon="-8.436470">
        <ele>324.565</ele>
        <time>2022-08-24T06:47:12Z</time>
      </trkpt>
      <trkpt lat="42.903240" lon="-8.436513">
        <ele>324.468</ele>
        <time>2022-08-24T06:47:16Z</time>
      </trkpt>
      <trkpt lat="42.903209" lon="-8.436563">
        <ele>324.214</ele>
        <time>2022-08-24T06:47:20Z</time>
      </trkpt>
      <trkpt lat="42.903178" lon="-8.436619">
        <ele>324.109</ele>
        <time>2022-08-24T06:47:24Z</time>
      </trkpt>
      <trkpt lat="42.903141" lon="-8.436665">
        <ele>324.067</ele>
        <time>2022-08-24T06:47:28Z</time>
      </trkpt>
      <trkpt lat="42.903112" lon="-8.436719">
        <ele>323.967</ele>
        <time>2022-08-24T06:47:31Z</time>
      </trkpt>
      <trkpt lat="42.903085" lon="-8.436774">
        <ele>323.867</ele>
        <time>2022-08-24T06:47:35Z</time>
      </trkpt>
      <trkpt lat="42.903051" lon="-8.436815">
        <ele>323.632</ele>
        <time>2022-08-24T06:47:39Z</time>
      </trkpt>
      <trkpt lat="42.903016" lon="-8.436858">
        <ele>323.470</ele>
        <time>2022-08-24T06:47:42Z</time>
      </trkpt>
      <trkpt lat="42.902977" lon="-8.436902">
        <ele>323.250</ele>
        <time>2022-08-24T06:47:47Z</time>
      </trkpt>
      <trkpt lat="42.902939" lon="-8.436947">
        <ele>323.184</ele>
        <time>2022-08-24T06:47:51Z</time>
      </trkpt>
      <trkpt lat="42.902898" lon="-8.436997">
        <ele>322.979</ele>
        <time>2022-08-24T06:47:55Z</time>
      </trkpt>
      <trkpt lat="42.902870" lon="-8.437046">
        <ele>322.653</ele>
        <time>2022-08-24T06:47:58Z</time>
      </trkpt>
      <trkpt lat="42.902833" lon="-8.437096">
        <ele>322.317</ele>
        <time>2022-08-24T06:48:02Z</time>
      </trkpt>
      <trkpt lat="42.902810" lon="-8.437153">
        <ele>322.187</ele>
        <time>2022-08-24T06:48:06Z</time>
      </trkpt>
      <trkpt lat="42.902776" lon="-8.437204">
        <ele>321.915</ele>
        <time>2022-08-24T06:48:11Z</time>
      </trkpt>
      <trkpt lat="42.902743" lon="-8.437262">
        <ele>321.609</ele>
        <time>2022-08-24T06:48:16Z</time>
      </trkpt>
      <trkpt lat="42.902702" lon="-8.437307">
        <ele>321.362</ele>
        <time>2022-08-24T06:48:22Z</time>
      </trkpt>
      <trkpt lat="42.902677" lon="-8.437363">
        <ele>320.992</ele>
        <time>2022-08-24T06:48:27Z</time>
      </trkpt>
      <trkpt lat="42.902645" lon="-8.437411">
        <ele>320.532</ele>
        <time>2022-08-24T06:48:31Z</time>
      </trkpt>
      <trkpt lat="42.902603" lon="-8.437469">
        <ele>320.277</ele>
        <time>2022-08-24T06:48:35Z</time>
      </trkpt>
      <trkpt lat="42.902580" lon="-8.437531">
        <ele>320.085</ele>
        <time>2022-08-24T06:48:38Z</time>
      </trkpt>
      <trkpt lat="42.902546" lon="-8.437580">
        <ele>319.915</ele>
        <time>2022-08-24T06:48:41Z</time>
      </trkpt>
      <trkpt lat="42.902506" lon="-8.437637">
        <ele>319.879</ele>
        <time>2022-08-24T06:48:45Z</time>
      </trkpt>
      <trkpt lat="42.902464" lon="-8.437701">
        <ele>319.774</ele>
        <time>2022-08-24T06:48:49Z</time>
      </trkpt>
      <trkpt lat="42.902429" lon="-8.437743">
        <ele>319.678</ele>
        <time>2022-08-24T06:48:53Z</time>
      </trkpt>
      <trkpt lat="42.902390" lon="-8.437790">
        <ele>319.588</ele>
        <time>2022-08-24T06:48:58Z</time>
      </trkpt>
      <trkpt lat="42.902357" lon="-8.437849">
        <ele>319.324</ele>
        <time>2022-08-24T06:49:03Z</time>
      </trkpt>
      <trkpt lat="42.902333" lon="-8.437907">
        <ele>319.226</ele>
        <time>2022-08-24T06:49:07Z</time>
      </trkpt>
      <trkpt lat="42.902306" lon="-8.437969">
        <ele>319.109</ele>
        <time>2022-08-24T06:49:11Z</time>
      </trkpt>
      <trkpt lat="42.902281" lon="-8.438023">
        <ele>319.199</ele>
        <time>2022-08-24T06:49:15Z</time>
      </trkpt>
      <trkpt lat="42.902254" lon="-8.438086">
        <ele>319.019</ele>
        <time>2022-08-24T06:49:19Z</time>
      </trkpt>
      <trkpt lat="42.902223" lon="-8.438132">
        <ele>318.999</ele>
        <time>2022-08-24T06:49:22Z</time>
      </trkpt>
      <trkpt lat="42.902189" lon="-8.438195">
        <ele>318.844</ele>
        <time>2022-08-24T06:49:26Z</time>
      </trkpt>
      <trkpt lat="42.902159" lon="-8.438247">
        <ele>318.762</ele>
        <time>2022-08-24T06:49:29Z</time>
      </trkpt>
      <trkpt lat="42.902129" lon="-8.438307">
        <ele>318.652</ele>
        <time>2022-08-24T06:49:33Z</time>
      </trkpt>
      <trkpt lat="42.902102" lon="-8.438362">
        <ele>318.576</ele>
        <time>2022-08-24T06:49:37Z</time>
      </trkpt>
      <trkpt lat="42.902073" lon="-8.438416">
        <ele>318.481</ele>
        <time>2022-08-24T06:49:41Z</time>
      </trkpt>
      <trkpt lat="42.902045" lon="-8.438479">
        <ele>318.315</ele>
        <time>2022-08-24T06:49:45Z</time>
      </trkpt>
      <trkpt lat="42.902021" lon="-8.438539">
        <ele>318.274</ele>
        <time>2022-08-24T06:49:49Z</time>
      </trkpt>
      <trkpt lat="42.902001" lon="-8.438604">
        <ele>318.156</ele>
        <time>2022-08-24T06:49:54Z</time>
      </trkpt>
      <trkpt lat="42.901983" lon="-8.438665">
        <ele>318.121</ele>
        <time>2022-08-24T06:49:57Z</time>
      </trkpt>
      <trkpt lat="42.901966" lon="-8.438745">
        <ele>318.109</ele>
        <time>2022-08-24T06:50:01Z</time>
      </trkpt>
      <trkpt lat="42.901949" lon="-8.438818">
        <ele>318.118</ele>
        <time>2022-08-24T06:50:05Z</time>
      </trkpt>
      <trkpt lat="42.901939" lon="-8.438885">
        <ele>318.168</ele>
        <time>2022-08-24T06:50:09Z</time>
      </trkpt>
      <trkpt lat="42.901938" lon="-8.438963">
        <ele>318.098</ele>
        <time>2022-08-24T06:50:14Z</time>
      </trkpt>
      <trkpt lat="42.901930" lon="-8.439024">
        <ele>317.873</ele>
        <time>2022-08-24T06:50:18Z</time>
      </trkpt>
      <trkpt lat="42.901925" lon="-8.439094">
        <ele>317.841</ele>
        <time>2022-08-24T06:50:23Z</time>
      </trkpt>
      <trkpt lat="42.901924" lon="-8.439168">
        <ele>317.721</ele>
        <time>2022-08-24T06:50:28Z</time>
      </trkpt>
      <trkpt lat="42.901928" lon="-8.439230">
        <ele>317.645</ele>
        <time>2022-08-24T06:50:32Z</time>
      </trkpt>
      <trkpt lat="42.901930" lon="-8.439305">
        <ele>317.590</ele>
        <time>2022-08-24T06:50:37Z</time>
      </trkpt>
      <trkpt lat="42.901921" lon="-8.439367">
        <ele>317.494</ele>
        <time>2022-08-24T06:50:40Z</time>
      </trkpt>
      <trkpt lat="42.901916" lon="-8.439438">
        <ele>317.356</ele>
        <time>2022-08-24T06:50:44Z</time>
      </trkpt>
      <trkpt lat="42.901919" lon="-8.439501">
        <ele>317.259</ele>
        <time>2022-08-24T06:50:48Z</time>
      </trkpt>
      <trkpt lat="42.901910" lon="-8.439572">
        <ele>317.214</ele>
        <time>2022-08-24T06:50:52Z</time>
      </trkpt>
      <trkpt lat="42.901892" lon="-8.439654">
        <ele>317.209</ele>
        <time>2022-08-24T06:50:56Z</time>
      </trkpt>
      <trkpt lat="42.901886" lon="-8.439723">
        <ele>317.226</ele>
        <time>2022-08-24T06:51:00Z</time>
      </trkpt>
      <trkpt lat="42.901875" lon="-8.439796">
        <ele>317.236</ele>
        <time>2022-08-24T06:51:05Z</time>
      </trkpt>
      <trkpt lat="42.901868" lon="-8.439867">
        <ele>317.216</ele>
        <time>2022-08-24T06:51:09Z</time>
      </trkpt>
      <trkpt lat="42.901857" lon="-8.439944">
        <ele>317.221</ele>
        <time>2022-08-24T06:51:14Z</time>
      </trkpt>
      <trkpt lat="42.901842" lon="-8.440020">
        <ele>317.289</ele>
        <time>2022-08-24T06:51:19Z</time>
      </trkpt>
      <trkpt lat="42.901833" lon="-8.440092">
        <ele>317.229</ele>
        <time>2022-08-24T06:51:23Z</time>
      </trkpt>
      <trkpt lat="42.901823" lon="-8.440163">
        <ele>317.143</ele>
        <time>2022-08-24T06:51:27Z</time>
      </trkpt>
      <trkpt lat="42.901817" lon="-8.440241">
        <ele>317.118</ele>
        <time>2022-08-24T06:51:32Z</time>
      </trkpt>
      <trkpt lat="42.901807" lon="-8.440301">
        <ele>317.172</ele>
        <time>2022-08-24T06:51:36Z</time>
      </trkpt>
      <trkpt lat="42.901801" lon="-8.440372">
        <ele>317.185</ele>
        <time>2022-08-24T06:51:41Z</time>
      </trkpt>
      <trkpt lat="42.901801" lon="-8.440434">
        <ele>317.089</ele>
        <time>2022-08-24T06:51:45Z</time>
      </trkpt>
      <trkpt lat="42.901784" lon="-8.440493">
        <ele>316.917</ele>
        <time>2022-08-24T06:51:49Z</time>
      </trkpt>
      <trkpt lat="42.901784" lon="-8.440565">
        <ele>316.809</ele>
        <time>2022-08-24T06:51:53Z</time>
      </trkpt>
      <trkpt lat="42.901790" lon="-8.440633">
        <ele>316.729</ele>
        <time>2022-08-24T06:51:57Z</time>
      </trkpt>
      <trkpt lat="42.901783" lon="-8.440696">
        <ele>316.799</ele>
        <time>2022-08-24T06:52:01Z</time>
      </trkpt>
      <trkpt lat="42.901769" lon="-8.440770">
        <ele>316.769</ele>
        <time>2022-08-24T06:52:05Z</time>
      </trkpt>
      <trkpt lat="42.901758" lon="-8.440844">
        <ele>316.664</ele>
        <time>2022-08-24T06:52:09Z</time>
      </trkpt>
      <trkpt lat="42.901753" lon="-8.440913">
        <ele>316.532</ele>
        <time>2022-08-24T06:52:13Z</time>
      </trkpt>
      <trkpt lat="42.901734" lon="-8.440972">
        <ele>316.452</ele>
        <time>2022-08-24T06:52:17Z</time>
      </trkpt>
      <trkpt lat="42.901721" lon="-8.441034">
        <ele>316.316</ele>
        <time>2022-08-24T06:52:21Z</time>
      </trkpt>
      <trkpt lat="42.901710" lon="-8.441104">
        <ele>316.271</ele>
        <time>2022-08-24T06:52:25Z</time>
      </trkpt>
      <trkpt lat="42.901707" lon="-8.441170">
        <ele>316.155</ele>
        <time>2022-08-24T06:52:29Z</time>
      </trkpt>
      <trkpt lat="42.901704" lon="-8.441232">
        <ele>316.075</ele>
        <time>2022-08-24T06:52:33Z</time>
      </trkpt>
      <trkpt lat="42.901695" lon="-8.441301">
        <ele>315.928</ele>
        <time>2022-08-24T06:52:37Z</time>
      </trkpt>
      <trkpt lat="42.901716" lon="-8.441363">
        <ele>315.720</ele>
        <time>2022-08-24T06:52:41Z</time>
      </trkpt>
      <trkpt lat="42.901718" lon="-8.441430">
        <ele>315.409</ele>
        <time>2022-08-24T06:52:46Z</time>
      </trkpt>
      <trkpt lat="42.901704" lon="-8.441498">
        <ele>315.038</ele>
        <time>2022-08-24T06:52:50Z</time>
      </trkpt>
      <trkpt lat="42.901695" lon="-8.441570">
        <ele>314.598</ele>
        <time>2022-08-24T06:52:54Z</time>
      </trkpt>
      <trkpt lat="42.901680" lon="-8.441645">
        <ele>314.058</ele>
        <time>2022-08-24T06:52:58Z</time>
      </trkpt>
      <trkpt lat="42.901671" lon="-8.441719">
        <ele>313.523</ele>
        <time>2022-08-24T06:53:02Z</time>
      </trkpt>
      <trkpt lat="42.901661" lon="-8.441790">
        <ele>312.551</ele>
        <time>2022-08-24T06:53:06Z</time>
      </trkpt>
      <trkpt lat="42.901650" lon="-8.441860">
        <ele>311.911</ele>
        <time>2022-08-24T06:53:10Z</time>
      </trkpt>
      <trkpt lat="42.901640" lon="-8.441942">
        <ele>311.475</ele>
        <time>2022-08-24T06:53:14Z</time>
      </trkpt>
      <trkpt lat="42.901630" lon="-8.442020">
        <ele>310.940</ele>
        <time>2022-08-24T06:53:18Z</time>
      </trkpt>
      <trkpt lat="42.901616" lon="-8.442093">
        <ele>310.444</ele>
        <time>2022-08-24T06:53:22Z</time>
      </trkpt>
      <trkpt lat="42.901603" lon="-8.442165">
        <ele>309.853</ele>
        <time>2022-08-24T06:53:26Z</time>
      </trkpt>
      <trkpt lat="42.901592" lon="-8.442226">
        <ele>309.204</ele>
        <time>2022-08-24T06:53:29Z</time>
      </trkpt>
      <trkpt lat="42.901581" lon="-8.442288">
        <ele>308.914</ele>
        <time>2022-08-24T06:53:32Z</time>
      </trkpt>
      <trkpt lat="42.901566" lon="-8.442368">
        <ele>308.409</ele>
        <time>2022-08-24T06:53:37Z</time>
      </trkpt>
      <trkpt lat="42.901553" lon="-8.442430">
        <ele>308.056</ele>
        <time>2022-08-24T06:53:41Z</time>
      </trkpt>
      <trkpt lat="42.901528" lon="-8.442483">
        <ele>307.596</ele>
        <time>2022-08-24T06:53:44Z</time>
      </trkpt>
      <trkpt lat="42.901521" lon="-8.442554">
        <ele>307.186</ele>
        <time>2022-08-24T06:53:48Z</time>
      </trkpt>
      <trkpt lat="42.901495" lon="-8.442616">
        <ele>306.881</ele>
        <time>2022-08-24T06:53:53Z</time>
      </trkpt>
      <trkpt lat="42.901472" lon="-8.442678">
        <ele>306.689</ele>
        <time>2022-08-24T06:53:56Z</time>
      </trkpt>
      <trkpt lat="42.901452" lon="-8.442742">
        <ele>306.479</ele>
        <time>2022-08-24T06:54:00Z</time>
      </trkpt>
      <trkpt lat="42.901433" lon="-8.442804">
        <ele>306.313</ele>
        <time>2022-08-24T06:54:04Z</time>
      </trkpt>
      <trkpt lat="42.901422" lon="-8.442866">
        <ele>306.268</ele>
        <time>2022-08-24T06:54:08Z</time>
      </trkpt>
      <trkpt lat="42.901386" lon="-8.442930">
        <ele>306.142</ele>
        <time>2022-08-24T06:54:12Z</time>
      </trkpt>
      <trkpt lat="42.901355" lon="-8.442976">
        <ele>306.052</ele>
        <time>2022-08-24T06:54:15Z</time>
      </trkpt>
      <trkpt lat="42.901327" lon="-8.443028">
        <ele>305.953</ele>
        <time>2022-08-24T06:54:19Z</time>
      </trkpt>
      <trkpt lat="42.901295" lon="-8.443086">
        <ele>305.908</ele>
        <time>2022-08-24T06:54:24Z</time>
      </trkpt>
      <trkpt lat="42.901268" lon="-8.443149">
        <ele>305.909</ele>
        <time>2022-08-24T06:54:29Z</time>
      </trkpt>
      <trkpt lat="42.901240" lon="-8.443215">
        <ele>305.966</ele>
        <time>2022-08-24T06:54:33Z</time>
      </trkpt>
      <trkpt lat="42.901206" lon="-8.443278">
        <ele>305.926</ele>
        <time>2022-08-24T06:54:37Z</time>
      </trkpt>
      <trkpt lat="42.901173" lon="-8.443331">
        <ele>305.856</ele>
        <time>2022-08-24T06:54:41Z</time>
      </trkpt>
      <trkpt lat="42.901148" lon="-8.443384">
        <ele>305.791</ele>
        <time>2022-08-24T06:54:44Z</time>
      </trkpt>
      <trkpt lat="42.901117" lon="-8.443437">
        <ele>305.639</ele>
        <time>2022-08-24T06:54:48Z</time>
      </trkpt>
      <trkpt lat="42.901087" lon="-8.443500">
        <ele>305.619</ele>
        <time>2022-08-24T06:54:52Z</time>
      </trkpt>
      <trkpt lat="42.901064" lon="-8.443557">
        <ele>305.653</ele>
        <time>2022-08-24T06:54:55Z</time>
      </trkpt>
      <trkpt lat="42.901040" lon="-8.443629">
        <ele>305.528</ele>
        <time>2022-08-24T06:54:59Z</time>
      </trkpt>
      <trkpt lat="42.901019" lon="-8.443692">
        <ele>305.412</ele>
        <time>2022-08-24T06:55:03Z</time>
      </trkpt>
      <trkpt lat="42.900996" lon="-8.443750">
        <ele>305.446</ele>
        <time>2022-08-24T06:55:07Z</time>
      </trkpt>
      <trkpt lat="42.900972" lon="-8.443811">
        <ele>305.488</ele>
        <time>2022-08-24T06:55:11Z</time>
      </trkpt>
      <trkpt lat="42.900957" lon="-8.443869">
        <ele>305.416</ele>
        <time>2022-08-24T06:55:15Z</time>
      </trkpt>
      <trkpt lat="42.900938" lon="-8.443925">
        <ele>305.409</ele>
        <time>2022-08-24T06:55:19Z</time>
      </trkpt>
      <trkpt lat="42.900921" lon="-8.443995">
        <ele>305.365</ele>
        <time>2022-08-24T06:55:23Z</time>
      </trkpt>
      <trkpt lat="42.900906" lon="-8.444055">
        <ele>305.355</ele>
        <time>2022-08-24T06:55:27Z</time>
      </trkpt>
      <trkpt lat="42.900890" lon="-8.444129">
        <ele>305.385</ele>
        <time>2022-08-24T06:55:31Z</time>
      </trkpt>
      <trkpt lat="42.900873" lon="-8.444195">
        <ele>305.310</ele>
        <time>2022-08-24T06:55:36Z</time>
      </trkpt>
      <trkpt lat="42.900867" lon="-8.444256">
        <ele>305.378</ele>
        <time>2022-08-24T06:55:40Z</time>
      </trkpt>
      <trkpt lat="42.900851" lon="-8.444314">
        <ele>305.368</ele>
        <time>2022-08-24T06:55:44Z</time>
      </trkpt>
      <trkpt lat="42.900833" lon="-8.444375">
        <ele>305.312</ele>
        <time>2022-08-24T06:55:48Z</time>
      </trkpt>
      <trkpt lat="42.900828" lon="-8.444445">
        <ele>305.347</ele>
        <time>2022-08-24T06:55:52Z</time>
      </trkpt>
      <trkpt lat="42.900825" lon="-8.444516">
        <ele>305.311</ele>
        <time>2022-08-24T06:55:56Z</time>
      </trkpt>
      <trkpt lat="42.900823" lon="-8.444592">
        <ele>305.344</ele>
        <time>2022-08-24T06:56:02Z</time>
      </trkpt>
      <trkpt lat="42.900796" lon="-8.444651">
        <ele>305.305</ele>
        <time>2022-08-24T06:56:05Z</time>
      </trkpt>
      <trkpt lat="42.900775" lon="-8.444721">
        <ele>305.315</ele>
        <time>2022-08-24T06:56:09Z</time>
      </trkpt>
      <trkpt lat="42.900762" lon="-8.444793">
        <ele>305.309</ele>
        <time>2022-08-24T06:56:13Z</time>
      </trkpt>
      <trkpt lat="42.900750" lon="-8.444867">
        <ele>305.395</ele>
        <time>2022-08-24T06:56:17Z</time>
      </trkpt>
      <trkpt lat="42.900747" lon="-8.444936">
        <ele>305.325</ele>
        <time>2022-08-24T06:56:23Z</time>
      </trkpt>
      <trkpt lat="42.900756" lon="-8.444996">
        <ele>305.235</ele>
        <time>2022-08-24T06:56:30Z</time>
      </trkpt>
      <trkpt lat="42.900742" lon="-8.445064">
        <ele>305.060</ele>
        <time>2022-08-24T06:56:35Z</time>
      </trkpt>
      <trkpt lat="42.900757" lon="-8.445124">
        <ele>304.868</ele>
        <time>2022-08-24T06:56:41Z</time>
      </trkpt>
      <trkpt lat="42.900747" lon="-8.445184">
        <ele>304.838</ele>
        <time>2022-08-24T06:56:45Z</time>
      </trkpt>
      <trkpt lat="42.900722" lon="-8.445241">
        <ele>304.862</ele>
        <time>2022-08-24T06:56:48Z</time>
      </trkpt>
      <trkpt lat="42.900699" lon="-8.445311">
        <ele>304.887</ele>
        <time>2022-08-24T06:56:51Z</time>
      </trkpt>
      <trkpt lat="42.900687" lon="-8.445388">
        <ele>304.831</ele>
        <time>2022-08-24T06:56:54Z</time>
      </trkpt>
      <trkpt lat="42.900659" lon="-8.445453">
        <ele>304.817</ele>
        <time>2022-08-24T06:56:57Z</time>
      </trkpt>
      <trkpt lat="42.900642" lon="-8.445519">
        <ele>304.887</ele>
        <time>2022-08-24T06:57:00Z</time>
      </trkpt>
      <trkpt lat="42.900619" lon="-8.445590">
        <ele>304.815</ele>
        <time>2022-08-24T06:57:03Z</time>
      </trkpt>
      <trkpt lat="42.900603" lon="-8.445656">
        <ele>304.809</ele>
        <time>2022-08-24T06:57:06Z</time>
      </trkpt>
      <trkpt lat="42.900583" lon="-8.445726">
        <ele>304.852</ele>
        <time>2022-08-24T06:57:10Z</time>
      </trkpt>
      <trkpt lat="42.900576" lon="-8.445792">
        <ele>304.832</ele>
        <time>2022-08-24T06:57:14Z</time>
      </trkpt>
      <trkpt lat="42.900556" lon="-8.445853">
        <ele>304.872</ele>
        <time>2022-08-24T06:57:17Z</time>
      </trkpt>
      <trkpt lat="42.900531" lon="-8.445926">
        <ele>304.827</ele>
        <time>2022-08-24T06:57:21Z</time>
      </trkpt>
      <trkpt lat="42.900525" lon="-8.446001">
        <ele>304.815</ele>
        <time>2022-08-24T06:57:25Z</time>
      </trkpt>
      <trkpt lat="42.900507" lon="-8.446058">
        <ele>304.795</ele>
        <time>2022-08-24T06:57:28Z</time>
      </trkpt>
      <trkpt lat="42.900490" lon="-8.446125">
        <ele>304.669</ele>
        <time>2022-08-24T06:57:32Z</time>
      </trkpt>
      <trkpt lat="42.900464" lon="-8.446199">
        <ele>304.524</ele>
        <time>2022-08-24T06:57:37Z</time>
      </trkpt>
      <trkpt lat="42.900450" lon="-8.446265">
        <ele>304.548</ele>
        <time>2022-08-24T06:57:41Z</time>
      </trkpt>
      <trkpt lat="42.900436" lon="-8.446328">
        <ele>304.486</ele>
        <time>2022-08-24T06:57:45Z</time>
      </trkpt>
      <trkpt lat="42.900413" lon="-8.446396">
        <ele>304.360</ele>
        <time>2022-08-24T06:57:49Z</time>
      </trkpt>
      <trkpt lat="42.900415" lon="-8.446459">
        <ele>304.226</ele>
        <time>2022-08-24T06:57:53Z</time>
      </trkpt>
      <trkpt lat="42.900403" lon="-8.446524">
        <ele>303.909</ele>
        <time>2022-08-24T06:57:57Z</time>
      </trkpt>
      <trkpt lat="42.900399" lon="-8.446588">
        <ele>303.439</ele>
        <time>2022-08-24T06:58:01Z</time>
      </trkpt>
      <trkpt lat="42.900411" lon="-8.446652">
        <ele>302.879</ele>
        <time>2022-08-24T06:58:04Z</time>
      </trkpt>
      <trkpt lat="42.900416" lon="-8.446714">
        <ele>302.459</ele>
        <time>2022-08-24T06:58:09Z</time>
      </trkpt>
      <trkpt lat="42.900383" lon="-8.446769">
        <ele>302.254</ele>
        <time>2022-08-24T06:58:14Z</time>
      </trkpt>
      <trkpt lat="42.900331" lon="-8.446809">
        <ele>301.962</ele>
        <time>2022-08-24T06:58:18Z</time>
      </trkpt>
      <trkpt lat="42.900282" lon="-8.446827">
        <ele>301.572</ele>
        <time>2022-08-24T06:58:21Z</time>
      </trkpt>
      <trkpt lat="42.900234" lon="-8.446840">
        <ele>301.096</ele>
        <time>2022-08-24T06:58:24Z</time>
      </trkpt>
      <trkpt lat="42.900193" lon="-8.446880">
        <ele>300.541</ele>
        <time>2022-08-24T06:58:28Z</time>
      </trkpt>
      <trkpt lat="42.900146" lon="-8.446896">
        <ele>300.185</ele>
        <time>2022-08-24T06:58:33Z</time>
      </trkpt>
      <trkpt lat="42.900092" lon="-8.446873">
        <ele>299.883</ele>
        <time>2022-08-24T06:58:37Z</time>
      </trkpt>
      <trkpt lat="42.900037" lon="-8.446852">
        <ele>299.625</ele>
        <time>2022-08-24T06:58:41Z</time>
      </trkpt>
      <trkpt lat="42.899987" lon="-8.446844">
        <ele>299.517</ele>
        <time>2022-08-24T06:58:45Z</time>
      </trkpt>
      <trkpt lat="42.899933" lon="-8.446818">
        <ele>299.509</ele>
        <time>2022-08-24T06:58:49Z</time>
      </trkpt>
      <trkpt lat="42.899882" lon="-8.446779">
        <ele>299.529</ele>
        <time>2022-08-24T06:58:53Z</time>
      </trkpt>
      <trkpt lat="42.899835" lon="-8.446806">
        <ele>299.519</ele>
        <time>2022-08-24T06:58:59Z</time>
      </trkpt>
      <trkpt lat="42.899804" lon="-8.446860">
        <ele>299.569</ele>
        <time>2022-08-24T06:59:04Z</time>
      </trkpt>
      <trkpt lat="42.899767" lon="-8.446900">
        <ele>299.454</ele>
        <time>2022-08-24T06:59:07Z</time>
      </trkpt>
      <trkpt lat="42.899733" lon="-8.446948">
        <ele>299.132</ele>
        <time>2022-08-24T06:59:12Z</time>
      </trkpt>
      <trkpt lat="42.899724" lon="-8.447012">
        <ele>298.822</ele>
        <time>2022-08-24T06:59:18Z</time>
      </trkpt>
      <trkpt lat="42.899687" lon="-8.447059">
        <ele>298.256</ele>
        <time>2022-08-24T06:59:22Z</time>
      </trkpt>
      <trkpt lat="42.899811" lon="-8.447292">
        <ele>295.971</ele>
        <time>2022-08-24T07:00:29Z</time>
      </trkpt>
      <trkpt lat="42.899844" lon="-8.447336">
        <ele>294.775</ele>
        <time>2022-08-24T07:00:52Z</time>
      </trkpt>
      <trkpt lat="42.899813" lon="-8.447225">
        <ele>294.717</ele>
        <time>2022-08-24T07:02:23Z</time>
      </trkpt>
      <trkpt lat="42.899804" lon="-8.447304">
        <ele>294.587</ele>
        <time>2022-08-24T07:03:33Z</time>
      </trkpt>
      <trkpt lat="42.899762" lon="-8.447273">
        <ele>294.315</ele>
        <time>2022-08-24T07:03:38Z</time>
      </trkpt>
      <trkpt lat="42.899745" lon="-8.447211">
        <ele>294.309</ele>
        <time>2022-08-24T07:03:42Z</time>
      </trkpt>
      <trkpt lat="42.899758" lon="-8.447143">
        <ele>294.392</ele>
        <time>2022-08-24T07:03:46Z</time>
      </trkpt>
      <trkpt lat="42.899769" lon="-8.447073">
        <ele>294.322</ele>
        <time>2022-08-24T07:03:51Z</time>
      </trkpt>
      <trkpt lat="42.899751" lon="-8.447006">
        <ele>294.612</ele>
        <time>2022-08-24T07:04:07Z</time>
      </trkpt>
      <trkpt lat="42.899756" lon="-8.446942">
        <ele>295.437</ele>
        <time>2022-08-24T07:04:14Z</time>
      </trkpt>
      <trkpt lat="42.899758" lon="-8.446877">
        <ele>296.135</ele>
        <time>2022-08-24T07:04:19Z</time>
      </trkpt>
      <trkpt lat="42.899790" lon="-8.446826">
        <ele>296.825</ele>
        <time>2022-08-24T07:04:23Z</time>
      </trkpt>
      <trkpt lat="42.899818" lon="-8.446759">
        <ele>297.719</ele>
        <time>2022-08-24T07:04:30Z</time>
      </trkpt>
      <trkpt lat="42.899833" lon="-8.446691">
        <ele>298.464</ele>
        <time>2022-08-24T07:04:35Z</time>
      </trkpt>
      <trkpt lat="42.899826" lon="-8.446620">
        <ele>299.098</ele>
        <time>2022-08-24T07:04:41Z</time>
      </trkpt>
      <trkpt lat="42.899782" lon="-8.446599">
        <ele>299.781</ele>
        <time>2022-08-24T07:04:46Z</time>
      </trkpt>
      <trkpt lat="42.899735" lon="-8.446586">
        <ele>300.661</ele>
        <time>2022-08-24T07:04:51Z</time>
      </trkpt>
      <trkpt lat="42.899684" lon="-8.446555">
        <ele>301.317</ele>
        <time>2022-08-24T07:04:55Z</time>
      </trkpt>
      <trkpt lat="42.899632" lon="-8.446535">
        <ele>301.409</ele>
        <time>2022-08-24T07:05:00Z</time>
      </trkpt>
      <trkpt lat="42.899592" lon="-8.446506">
        <ele>301.459</ele>
        <time>2022-08-24T07:05:05Z</time>
      </trkpt>
      <trkpt lat="42.899563" lon="-8.446442">
        <ele>301.499</ele>
        <time>2022-08-24T07:05:09Z</time>
      </trkpt>
      <trkpt lat="42.899547" lon="-8.446381">
        <ele>301.389</ele>
        <time>2022-08-24T07:05:12Z</time>
      </trkpt>
      <trkpt lat="42.899530" lon="-8.446313">
        <ele>301.244</ele>
        <time>2022-08-24T07:05:16Z</time>
      </trkpt>
      <trkpt lat="42.899517" lon="-8.446242">
        <ele>301.282</ele>
        <time>2022-08-24T07:05:20Z</time>
      </trkpt>
      <trkpt lat="42.899504" lon="-8.446183">
        <ele>301.222</ele>
        <time>2022-08-24T07:05:24Z</time>
      </trkpt>
      <trkpt lat="42.899488" lon="-8.446114">
        <ele>301.296</ele>
        <time>2022-08-24T07:05:29Z</time>
      </trkpt>
      <trkpt lat="42.899471" lon="-8.446047">
        <ele>301.311</ele>
        <time>2022-08-24T07:05:33Z</time>
      </trkpt>
      <trkpt lat="42.899463" lon="-8.445969">
        <ele>301.565</ele>
        <time>2022-08-24T07:05:38Z</time>
      </trkpt>
      <trkpt lat="42.899454" lon="-8.445897">
        <ele>301.833</ele>
        <time>2022-08-24T07:05:42Z</time>
      </trkpt>
      <trkpt lat="42.899451" lon="-8.445820">
        <ele>302.223</ele>
        <time>2022-08-24T07:05:46Z</time>
      </trkpt>
      <trkpt lat="42.899444" lon="-8.445750">
        <ele>302.415</ele>
        <time>2022-08-24T07:05:51Z</time>
      </trkpt>
      <trkpt lat="42.899447" lon="-8.445676">
        <ele>302.809</ele>
        <time>2022-08-24T07:05:55Z</time>
      </trkpt>
      <trkpt lat="42.899432" lon="-8.445613">
        <ele>303.054</ele>
        <time>2022-08-24T07:05:58Z</time>
      </trkpt>
      <trkpt lat="42.899438" lon="-8.445534">
        <ele>303.354</ele>
        <time>2022-08-24T07:06:02Z</time>
      </trkpt>
      <trkpt lat="42.899419" lon="-8.445474">
        <ele>303.574</ele>
        <time>2022-08-24T07:06:06Z</time>
      </trkpt>
      <trkpt lat="42.899415" lon="-8.445403">
        <ele>303.769</ele>
        <time>2022-08-24T07:06:11Z</time>
      </trkpt>
      <trkpt lat="42.899393" lon="-8.445340">
        <ele>303.777</ele>
        <time>2022-08-24T07:06:15Z</time>
      </trkpt>
      <trkpt lat="42.899384" lon="-8.445262">
        <ele>303.747</ele>
        <time>2022-08-24T07:06:19Z</time>
      </trkpt>
      <trkpt lat="42.899353" lon="-8.445202">
        <ele>303.721</ele>
        <time>2022-08-24T07:06:24Z</time>
      </trkpt>
      <trkpt lat="42.899317" lon="-8.445145">
        <ele>303.546</ele>
        <time>2022-08-24T07:06:28Z</time>
      </trkpt>
      <trkpt lat="42.899298" lon="-8.445084">
        <ele>303.330</ele>
        <time>2022-08-24T07:06:32Z</time>
      </trkpt>
      <trkpt lat="42.899256" lon="-8.445019">
        <ele>302.969</ele>
        <time>2022-08-24T07:06:37Z</time>
      </trkpt>
      <trkpt lat="42.899242" lon="-8.444956">
        <ele>302.804</ele>
        <time>2022-08-24T07:06:40Z</time>
      </trkpt>
      <trkpt lat="42.899222" lon="-8.444893">
        <ele>302.524</ele>
        <time>2022-08-24T07:06:43Z</time>
      </trkpt>
      <trkpt lat="42.899214" lon="-8.444826">
        <ele>302.509</ele>
        <time>2022-08-24T07:06:47Z</time>
      </trkpt>
      <trkpt lat="42.899169" lon="-8.444786">
        <ele>302.597</ele>
        <time>2022-08-24T07:06:51Z</time>
      </trkpt>
      <trkpt lat="42.899132" lon="-8.444743">
        <ele>302.547</ele>
        <time>2022-08-24T07:06:55Z</time>
      </trkpt>
      <trkpt lat="42.899090" lon="-8.444716">
        <ele>302.797</ele>
        <time>2022-08-24T07:06:59Z</time>
      </trkpt>
      <trkpt lat="42.899045" lon="-8.444675">
        <ele>302.792</ele>
        <time>2022-08-24T07:07:04Z</time>
      </trkpt>
      <trkpt lat="42.898994" lon="-8.444665">
        <ele>302.750</ele>
        <time>2022-08-24T07:07:08Z</time>
      </trkpt>
      <trkpt lat="42.898937" lon="-8.444668">
        <ele>302.780</ele>
        <time>2022-08-24T07:07:12Z</time>
      </trkpt>
      <trkpt lat="42.898884" lon="-8.444647">
        <ele>302.254</ele>
        <time>2022-08-24T07:07:16Z</time>
      </trkpt>
      <trkpt lat="42.898829" lon="-8.444653">
        <ele>301.379</ele>
        <time>2022-08-24T07:07:20Z</time>
      </trkpt>
      <trkpt lat="42.898783" lon="-8.444633">
        <ele>301.153</ele>
        <time>2022-08-24T07:07:24Z</time>
      </trkpt>
      <trkpt lat="42.898733" lon="-8.444619">
        <ele>300.663</ele>
        <time>2022-08-24T07:07:28Z</time>
      </trkpt>
      <trkpt lat="42.898679" lon="-8.444596">
        <ele>300.044</ele>
        <time>2022-08-24T07:07:32Z</time>
      </trkpt>
      <trkpt lat="42.898622" lon="-8.444566">
        <ele>299.318</ele>
        <time>2022-08-24T07:07:37Z</time>
      </trkpt>
      <trkpt lat="42.898577" lon="-8.444515">
        <ele>299.009</ele>
        <time>2022-08-24T07:07:41Z</time>
      </trkpt>
      <trkpt lat="42.898541" lon="-8.444457">
        <ele>298.647</ele>
        <time>2022-08-24T07:07:45Z</time>
      </trkpt>
      <trkpt lat="42.898509" lon="-8.444407">
        <ele>298.267</ele>
        <time>2022-08-24T07:07:49Z</time>
      </trkpt>
      <trkpt lat="42.898480" lon="-8.444347">
        <ele>297.747</ele>
        <time>2022-08-24T07:07:53Z</time>
      </trkpt>
      <trkpt lat="42.898451" lon="-8.444283">
        <ele>297.342</ele>
        <time>2022-08-24T07:07:57Z</time>
      </trkpt>
      <trkpt lat="42.898411" lon="-8.444250">
        <ele>297.280</ele>
        <time>2022-08-24T07:08:00Z</time>
      </trkpt>
      <trkpt lat="42.898356" lon="-8.444259">
        <ele>297.120</ele>
        <time>2022-08-24T07:08:05Z</time>
      </trkpt>
      <trkpt lat="42.898359" lon="-8.444327">
        <ele>297.064</ele>
        <time>2022-08-24T07:08:11Z</time>
      </trkpt>
      <trkpt lat="42.898365" lon="-8.444393">
        <ele>296.869</ele>
        <time>2022-08-24T07:08:16Z</time>
      </trkpt>
      <trkpt lat="42.898340" lon="-8.444453">
        <ele>296.443</ele>
        <time>2022-08-24T07:08:20Z</time>
      </trkpt>
      <trkpt lat="42.898289" lon="-8.444483">
        <ele>296.148</ele>
        <time>2022-08-24T07:08:25Z</time>
      </trkpt>
      <trkpt lat="42.898249" lon="-8.444516">
        <ele>295.961</ele>
        <time>2022-08-24T07:08:28Z</time>
      </trkpt>
      <trkpt lat="42.898199" lon="-8.444543">
        <ele>295.817</ele>
        <time>2022-08-24T07:08:32Z</time>
      </trkpt>
      <trkpt lat="42.898154" lon="-8.444586">
        <ele>295.809</ele>
        <time>2022-08-24T07:08:36Z</time>
      </trkpt>
      <trkpt lat="42.898171" lon="-8.444654">
        <ele>295.865</ele>
        <time>2022-08-24T07:08:39Z</time>
      </trkpt>
      <trkpt lat="42.898175" lon="-8.444727">
        <ele>295.735</ele>
        <time>2022-08-24T07:08:43Z</time>
      </trkpt>
      <trkpt lat="42.898186" lon="-8.444793">
        <ele>295.755</ele>
        <time>2022-08-24T07:08:47Z</time>
      </trkpt>
      <trkpt lat="42.898184" lon="-8.444864">
        <ele>295.780</ele>
        <time>2022-08-24T07:08:51Z</time>
      </trkpt>
      <trkpt lat="42.898175" lon="-8.444933">
        <ele>295.718</ele>
        <time>2022-08-24T07:08:55Z</time>
      </trkpt>
      <trkpt lat="42.898156" lon="-8.444995">
        <ele>295.718</ele>
        <time>2022-08-24T07:08:59Z</time>
      </trkpt>
      <trkpt lat="42.898143" lon="-8.445071">
        <ele>295.712</ele>
        <time>2022-08-24T07:09:03Z</time>
      </trkpt>
      <trkpt lat="42.898113" lon="-8.445130">
        <ele>295.887</ele>
        <time>2022-08-24T07:09:07Z</time>
      </trkpt>
      <trkpt lat="42.898084" lon="-8.445194">
        <ele>295.921</ele>
        <time>2022-08-24T07:09:11Z</time>
      </trkpt>
      <trkpt lat="42.898047" lon="-8.445244">
        <ele>296.148</ele>
        <time>2022-08-24T07:09:15Z</time>
      </trkpt>
      <trkpt lat="42.897995" lon="-8.445259">
        <ele>296.761</ele>
        <time>2022-08-24T07:09:19Z</time>
      </trkpt>
      <trkpt lat="42.897956" lon="-8.445317">
        <ele>297.217</ele>
        <time>2022-08-24T07:09:24Z</time>
      </trkpt>
      <trkpt lat="42.897920" lon="-8.445364">
        <ele>297.309</ele>
        <time>2022-08-24T07:09:28Z</time>
      </trkpt>
      <trkpt lat="42.897882" lon="-8.445412">
        <ele>297.675</ele>
        <time>2022-08-24T07:09:32Z</time>
      </trkpt>
      <trkpt lat="42.897855" lon="-8.445463">
        <ele>297.945</ele>
        <time>2022-08-24T07:09:36Z</time>
      </trkpt>
      <trkpt lat="42.897818" lon="-8.445515">
        <ele>298.235</ele>
        <time>2022-08-24T07:09:40Z</time>
      </trkpt>
      <trkpt lat="42.897785" lon="-8.445573">
        <ele>298.550</ele>
        <time>2022-08-24T07:09:44Z</time>
      </trkpt>
      <trkpt lat="42.897768" lon="-8.445634">
        <ele>298.878</ele>
        <time>2022-08-24T07:09:49Z</time>
      </trkpt>
      <trkpt lat="42.897738" lon="-8.445690">
        <ele>299.188</ele>
        <time>2022-08-24T07:09:53Z</time>
      </trkpt>
      <trkpt lat="42.897710" lon="-8.445744">
        <ele>299.622</ele>
        <time>2022-08-24T07:09:57Z</time>
      </trkpt>
      <trkpt lat="42.897688" lon="-8.445799">
        <ele>300.157</ele>
        <time>2022-08-24T07:10:01Z</time>
      </trkpt>
      <trkpt lat="42.897659" lon="-8.445850">
        <ele>300.641</ele>
        <time>2022-08-24T07:10:05Z</time>
      </trkpt>
      <trkpt lat="42.897629" lon="-8.445900">
        <ele>301.113</ele>
        <time>2022-08-24T07:10:09Z</time>
      </trkpt>
      <trkpt lat="42.897604" lon="-8.445958">
        <ele>301.743</ele>
        <time>2022-08-24T07:10:14Z</time>
      </trkpt>
      <trkpt lat="42.897581" lon="-8.446022">
        <ele>302.307</ele>
        <time>2022-08-24T07:10:18Z</time>
      </trkpt>
      <trkpt lat="42.897547" lon="-8.446086">
        <ele>303.009</ele>
        <time>2022-08-24T07:10:23Z</time>
      </trkpt>
      <trkpt lat="42.897527" lon="-8.446156">
        <ele>303.672</ele>
        <time>2022-08-24T07:10:28Z</time>
      </trkpt>
      <trkpt lat="42.897500" lon="-8.446220">
        <ele>304.562</ele>
        <time>2022-08-24T07:10:32Z</time>
      </trkpt>
      <trkpt lat="42.897484" lon="-8.446283">
        <ele>304.892</ele>
        <time>2022-08-24T07:10:37Z</time>
      </trkpt>
      <trkpt lat="42.897460" lon="-8.446338">
        <ele>305.457</ele>
        <time>2022-08-24T07:10:40Z</time>
      </trkpt>
      <trkpt lat="42.897443" lon="-8.446400">
        <ele>306.035</ele>
        <time>2022-08-24T07:10:44Z</time>
      </trkpt>
      <trkpt lat="42.897415" lon="-8.446453">
        <ele>306.585</ele>
        <time>2022-08-24T07:10:49Z</time>
      </trkpt>
      <trkpt lat="42.897390" lon="-8.446509">
        <ele>307.089</ele>
        <time>2022-08-24T07:10:53Z</time>
      </trkpt>
      <trkpt lat="42.897361" lon="-8.446563">
        <ele>307.634</ele>
        <time>2022-08-24T07:10:58Z</time>
      </trkpt>
      <trkpt lat="42.897338" lon="-8.446631">
        <ele>308.228</ele>
        <time>2022-08-24T07:11:02Z</time>
      </trkpt>
      <trkpt lat="42.897323" lon="-8.446692">
        <ele>308.767</ele>
        <time>2022-08-24T07:11:06Z</time>
      </trkpt>
      <trkpt lat="42.897303" lon="-8.446759">
        <ele>309.281</ele>
        <time>2022-08-24T07:11:10Z</time>
      </trkpt>
      <trkpt lat="42.897282" lon="-8.446831">
        <ele>309.719</ele>
        <time>2022-08-24T07:11:16Z</time>
      </trkpt>
      <trkpt lat="42.897274" lon="-8.446904">
        <ele>310.209</ele>
        <time>2022-08-24T07:11:21Z</time>
      </trkpt>
      <trkpt lat="42.897271" lon="-8.446968">
        <ele>310.827</ele>
        <time>2022-08-24T07:11:26Z</time>
      </trkpt>
      <trkpt lat="42.897266" lon="-8.447040">
        <ele>311.647</ele>
        <time>2022-08-24T07:11:31Z</time>
      </trkpt>
      <trkpt lat="42.897260" lon="-8.447115">
        <ele>312.567</ele>
        <time>2022-08-24T07:11:36Z</time>
      </trkpt>
      <trkpt lat="42.897235" lon="-8.447172">
        <ele>313.462</ele>
        <time>2022-08-24T07:11:41Z</time>
      </trkpt>
      <trkpt lat="42.897219" lon="-8.447241">
        <ele>314.380</ele>
        <time>2022-08-24T07:11:45Z</time>
      </trkpt>
      <trkpt lat="42.897208" lon="-8.447309">
        <ele>315.080</ele>
        <time>2022-08-24T07:11:50Z</time>
      </trkpt>
      <trkpt lat="42.897197" lon="-8.447370">
        <ele>315.644</ele>
        <time>2022-08-24T07:11:54Z</time>
      </trkpt>
      <trkpt lat="42.897183" lon="-8.447436">
        <ele>316.649</ele>
        <time>2022-08-24T07:11:58Z</time>
      </trkpt>
      <trkpt lat="42.897155" lon="-8.447502">
        <ele>317.663</ele>
        <time>2022-08-24T07:12:02Z</time>
      </trkpt>
      <trkpt lat="42.897126" lon="-8.447551">
        <ele>318.598</ele>
        <time>2022-08-24T07:12:06Z</time>
      </trkpt>
      <trkpt lat="42.897070" lon="-8.447566">
        <ele>319.315</ele>
        <time>2022-08-24T07:12:10Z</time>
      </trkpt>
      <trkpt lat="42.897022" lon="-8.447563">
        <ele>320.026</ele>
        <time>2022-08-24T07:12:15Z</time>
      </trkpt>
      <trkpt lat="42.896976" lon="-8.447563">
        <ele>320.709</ele>
        <time>2022-08-24T07:12:19Z</time>
      </trkpt>
      <trkpt lat="42.896922" lon="-8.447572">
        <ele>321.360</ele>
        <time>2022-08-24T07:12:25Z</time>
      </trkpt>
      <trkpt lat="42.896860" lon="-8.447575">
        <ele>321.920</ele>
        <time>2022-08-24T07:12:30Z</time>
      </trkpt>
      <trkpt lat="42.896806" lon="-8.447586">
        <ele>322.530</ele>
        <time>2022-08-24T07:12:35Z</time>
      </trkpt>
      <trkpt lat="42.896752" lon="-8.447594">
        <ele>323.535</ele>
        <time>2022-08-24T07:12:40Z</time>
      </trkpt>
      <trkpt lat="42.896705" lon="-8.447611">
        <ele>324.463</ele>
        <time>2022-08-24T07:12:44Z</time>
      </trkpt>
      <trkpt lat="42.896644" lon="-8.447622">
        <ele>324.813</ele>
        <time>2022-08-24T07:12:49Z</time>
      </trkpt>
      <trkpt lat="42.896591" lon="-8.447613">
        <ele>325.087</ele>
        <time>2022-08-24T07:12:53Z</time>
      </trkpt>
      <trkpt lat="42.896536" lon="-8.447630">
        <ele>325.522</ele>
        <time>2022-08-24T07:12:58Z</time>
      </trkpt>
      <trkpt lat="42.896486" lon="-8.447637">
        <ele>325.656</ele>
        <time>2022-08-24T07:13:02Z</time>
      </trkpt>
      <trkpt lat="42.896434" lon="-8.447608">
        <ele>326.098</ele>
        <time>2022-08-24T07:13:05Z</time>
      </trkpt>
      <trkpt lat="42.896384" lon="-8.447591">
        <ele>326.115</ele>
        <time>2022-08-24T07:13:10Z</time>
      </trkpt>
      <trkpt lat="42.896331" lon="-8.447575">
        <ele>326.226</ele>
        <time>2022-08-24T07:13:15Z</time>
      </trkpt>
      <trkpt lat="42.896279" lon="-8.447565">
        <ele>326.209</ele>
        <time>2022-08-24T07:13:19Z</time>
      </trkpt>
      <trkpt lat="42.896230" lon="-8.447554">
        <ele>326.270</ele>
        <time>2022-08-24T07:13:23Z</time>
      </trkpt>
      <trkpt lat="42.896184" lon="-8.447555">
        <ele>326.260</ele>
        <time>2022-08-24T07:13:27Z</time>
      </trkpt>
      <trkpt lat="42.896135" lon="-8.447546">
        <ele>326.090</ele>
        <time>2022-08-24T07:13:31Z</time>
      </trkpt>
      <trkpt lat="42.896089" lon="-8.447527">
        <ele>325.845</ele>
        <time>2022-08-24T07:13:35Z</time>
      </trkpt>
      <trkpt lat="42.896038" lon="-8.447527">
        <ele>325.793</ele>
        <time>2022-08-24T07:13:39Z</time>
      </trkpt>
      <trkpt lat="42.895991" lon="-8.447520">
        <ele>325.533</ele>
        <time>2022-08-24T07:13:42Z</time>
      </trkpt>
      <trkpt lat="42.895939" lon="-8.447568">
        <ele>325.447</ele>
        <time>2022-08-24T07:13:45Z</time>
      </trkpt>
      <trkpt lat="42.895887" lon="-8.447607">
        <ele>325.472</ele>
        <time>2022-08-24T07:13:50Z</time>
      </trkpt>
      <trkpt lat="42.895848" lon="-8.447649">
        <ele>325.426</ele>
        <time>2022-08-24T07:13:53Z</time>
      </trkpt>
      <trkpt lat="42.895800" lon="-8.447676">
        <ele>325.499</ele>
        <time>2022-08-24T07:13:57Z</time>
      </trkpt>
      <trkpt lat="42.895770" lon="-8.447722">
        <ele>325.307</ele>
        <time>2022-08-24T07:14:01Z</time>
      </trkpt>
      <trkpt lat="42.895714" lon="-8.447745">
        <ele>325.327</ele>
        <time>2022-08-24T07:14:06Z</time>
      </trkpt>
      <trkpt lat="42.895677" lon="-8.447792">
        <ele>325.309</ele>
        <time>2022-08-24T07:14:10Z</time>
      </trkpt>
      <trkpt lat="42.895632" lon="-8.447813">
        <ele>325.190</ele>
        <time>2022-08-24T07:14:13Z</time>
      </trkpt>
      <trkpt lat="42.895582" lon="-8.447845">
        <ele>324.970</ele>
        <time>2022-08-24T07:14:18Z</time>
      </trkpt>
      <trkpt lat="42.895531" lon="-8.447849">
        <ele>324.860</ele>
        <time>2022-08-24T07:14:22Z</time>
      </trkpt>
      <trkpt lat="42.895478" lon="-8.447863">
        <ele>324.895</ele>
        <time>2022-08-24T07:14:26Z</time>
      </trkpt>
      <trkpt lat="42.895433" lon="-8.447866">
        <ele>324.873</ele>
        <time>2022-08-24T07:14:29Z</time>
      </trkpt>
      <trkpt lat="42.895386" lon="-8.447876">
        <ele>324.983</ele>
        <time>2022-08-24T07:14:33Z</time>
      </trkpt>
      <trkpt lat="42.895342" lon="-8.447857">
        <ele>324.937</ele>
        <time>2022-08-24T07:14:37Z</time>
      </trkpt>
      <trkpt lat="42.895284" lon="-8.447857">
        <ele>325.022</ele>
        <time>2022-08-24T07:14:41Z</time>
      </trkpt>
      <trkpt lat="42.895243" lon="-8.447890">
        <ele>325.176</ele>
        <time>2022-08-24T07:14:45Z</time>
      </trkpt>
      <trkpt lat="42.895195" lon="-8.447880">
        <ele>325.213</ele>
        <time>2022-08-24T07:14:48Z</time>
      </trkpt>
      <trkpt lat="42.895148" lon="-8.447860">
        <ele>325.443</ele>
        <time>2022-08-24T07:14:51Z</time>
      </trkpt>
      <trkpt lat="42.895102" lon="-8.447817">
        <ele>325.607</ele>
        <time>2022-08-24T07:14:55Z</time>
      </trkpt>
      <trkpt lat="42.895057" lon="-8.447782">
        <ele>325.809</ele>
        <time>2022-08-24T07:14:58Z</time>
      </trkpt>
      <trkpt lat="42.895021" lon="-8.447733">
        <ele>326.132</ele>
        <time>2022-08-24T07:15:01Z</time>
      </trkpt>
      <trkpt lat="42.894989" lon="-8.447688">
        <ele>326.422</ele>
        <time>2022-08-24T07:15:04Z</time>
      </trkpt>
      <trkpt lat="42.894963" lon="-8.447636">
        <ele>326.712</ele>
        <time>2022-08-24T07:15:07Z</time>
      </trkpt>
      <trkpt lat="42.894934" lon="-8.447587">
        <ele>327.167</ele>
        <time>2022-08-24T07:15:10Z</time>
      </trkpt>
      <trkpt lat="42.894897" lon="-8.447537">
        <ele>327.535</ele>
        <time>2022-08-24T07:15:15Z</time>
      </trkpt>
      <trkpt lat="42.894863" lon="-8.447484">
        <ele>328.015</ele>
        <time>2022-08-24T07:15:19Z</time>
      </trkpt>
      <trkpt lat="42.894845" lon="-8.447427">
        <ele>328.719</ele>
        <time>2022-08-24T07:15:23Z</time>
      </trkpt>
      <trkpt lat="42.894825" lon="-8.447356">
        <ele>329.534</ele>
        <time>2022-08-24T07:15:27Z</time>
      </trkpt>
      <trkpt lat="42.894799" lon="-8.447302">
        <ele>330.248</ele>
        <time>2022-08-24T07:15:31Z</time>
      </trkpt>
      <trkpt lat="42.894769" lon="-8.447235">
        <ele>330.986</ele>
        <time>2022-08-24T07:15:36Z</time>
      </trkpt>
      <trkpt lat="42.894734" lon="-8.447188">
        <ele>331.660</ele>
        <time>2022-08-24T07:15:40Z</time>
      </trkpt>
      <trkpt lat="42.894694" lon="-8.447159">
        <ele>332.426</ele>
        <time>2022-08-24T07:15:44Z</time>
      </trkpt>
      <trkpt lat="42.894640" lon="-8.447144">
        <ele>333.109</ele>
        <time>2022-08-24T07:15:48Z</time>
      </trkpt>
      <trkpt lat="42.894589" lon="-8.447142">
        <ele>333.639</ele>
        <time>2022-08-24T07:15:52Z</time>
      </trkpt>
      <trkpt lat="42.894544" lon="-8.447149">
        <ele>333.999</ele>
        <time>2022-08-24T07:15:56Z</time>
      </trkpt>
      <trkpt lat="42.894492" lon="-8.447166">
        <ele>334.159</ele>
        <time>2022-08-24T07:16:01Z</time>
      </trkpt>
      <trkpt lat="42.894446" lon="-8.447194">
        <ele>334.224</ele>
        <time>2022-08-24T07:16:06Z</time>
      </trkpt>
      <trkpt lat="42.894392" lon="-8.447216">
        <ele>334.372</ele>
        <time>2022-08-24T07:16:11Z</time>
      </trkpt>
      <trkpt lat="42.894332" lon="-8.447236">
        <ele>334.592</ele>
        <time>2022-08-24T07:16:16Z</time>
      </trkpt>
      <trkpt lat="42.894287" lon="-8.447258">
        <ele>334.816</ele>
        <time>2022-08-24T07:16:19Z</time>
      </trkpt>
      <trkpt lat="42.894244" lon="-8.447281">
        <ele>335.331</ele>
        <time>2022-08-24T07:16:23Z</time>
      </trkpt>
      <trkpt lat="42.894205" lon="-8.447331">
        <ele>335.985</ele>
        <time>2022-08-24T07:16:27Z</time>
      </trkpt>
      <trkpt lat="42.894175" lon="-8.447378">
        <ele>336.436</ele>
        <time>2022-08-24T07:16:31Z</time>
      </trkpt>
      <trkpt lat="42.894150" lon="-8.447434">
        <ele>337.117</ele>
        <time>2022-08-24T07:16:35Z</time>
      </trkpt>
      <trkpt lat="42.894120" lon="-8.447494">
        <ele>337.818</ele>
        <time>2022-08-24T07:16:38Z</time>
      </trkpt>
      <trkpt lat="42.894099" lon="-8.447554">
        <ele>338.409</ele>
        <time>2022-08-24T07:16:43Z</time>
      </trkpt>
      <trkpt lat="42.894066" lon="-8.447606">
        <ele>338.934</ele>
        <time>2022-08-24T07:16:47Z</time>
      </trkpt>
      <trkpt lat="42.894034" lon="-8.447658">
        <ele>339.544</ele>
        <time>2022-08-24T07:16:52Z</time>
      </trkpt>
      <trkpt lat="42.894014" lon="-8.447721">
        <ele>340.224</ele>
        <time>2022-08-24T07:16:56Z</time>
      </trkpt>
      <trkpt lat="42.893978" lon="-8.447766">
        <ele>340.919</ele>
        <time>2022-08-24T07:16:59Z</time>
      </trkpt>
      <trkpt lat="42.893937" lon="-8.447814">
        <ele>341.687</ele>
        <time>2022-08-24T07:17:04Z</time>
      </trkpt>
      <trkpt lat="42.893896" lon="-8.447862">
        <ele>342.237</ele>
        <time>2022-08-24T07:17:08Z</time>
      </trkpt>
      <trkpt lat="42.893859" lon="-8.447907">
        <ele>342.961</ele>
        <time>2022-08-24T07:17:13Z</time>
      </trkpt>
      <trkpt lat="42.893818" lon="-8.447944">
        <ele>343.686</ele>
        <time>2022-08-24T07:17:18Z</time>
      </trkpt>
      <trkpt lat="42.893774" lon="-8.447975">
        <ele>344.340</ele>
        <time>2022-08-24T07:17:22Z</time>
      </trkpt>
      <trkpt lat="42.893728" lon="-8.447991">
        <ele>345.036</ele>
        <time>2022-08-24T07:17:26Z</time>
      </trkpt>
      <trkpt lat="42.893682" lon="-8.448014">
        <ele>345.617</ele>
        <time>2022-08-24T07:17:30Z</time>
      </trkpt>
      <trkpt lat="42.893631" lon="-8.448020">
        <ele>346.218</ele>
        <time>2022-08-24T07:17:36Z</time>
      </trkpt>
      <trkpt lat="42.893577" lon="-8.448032">
        <ele>346.809</ele>
        <time>2022-08-24T07:17:41Z</time>
      </trkpt>
      <trkpt lat="42.893523" lon="-8.448046">
        <ele>347.594</ele>
        <time>2022-08-24T07:17:45Z</time>
      </trkpt>
      <trkpt lat="42.893478" lon="-8.448078">
        <ele>348.224</ele>
        <time>2022-08-24T07:17:50Z</time>
      </trkpt>
      <trkpt lat="42.893431" lon="-8.448100">
        <ele>348.764</ele>
        <time>2022-08-24T07:17:54Z</time>
      </trkpt>
      <trkpt lat="42.893392" lon="-8.448144">
        <ele>349.279</ele>
        <time>2022-08-24T07:17:58Z</time>
      </trkpt>
      <trkpt lat="42.893348" lon="-8.448169">
        <ele>349.627</ele>
        <time>2022-08-24T07:18:01Z</time>
      </trkpt>
      <trkpt lat="42.893298" lon="-8.448224">
        <ele>349.897</ele>
        <time>2022-08-24T07:18:06Z</time>
      </trkpt>
      <trkpt lat="42.893247" lon="-8.448272">
        <ele>350.121</ele>
        <time>2022-08-24T07:18:10Z</time>
      </trkpt>
      <trkpt lat="42.893210" lon="-8.448326">
        <ele>350.296</ele>
        <time>2022-08-24T07:18:14Z</time>
      </trkpt>
      <trkpt lat="42.893178" lon="-8.448385">
        <ele>350.240</ele>
        <time>2022-08-24T07:18:18Z</time>
      </trkpt>
      <trkpt lat="42.893138" lon="-8.448430">
        <ele>350.252</ele>
        <time>2022-08-24T07:18:22Z</time>
      </trkpt>
      <trkpt lat="42.893109" lon="-8.448488">
        <ele>350.153</ele>
        <time>2022-08-24T07:18:26Z</time>
      </trkpt>
      <trkpt lat="42.893058" lon="-8.448538">
        <ele>350.008</ele>
        <time>2022-08-24T07:18:31Z</time>
      </trkpt>
      <trkpt lat="42.893021" lon="-8.448580">
        <ele>350.009</ele>
        <time>2022-08-24T07:18:35Z</time>
      </trkpt>
      <trkpt lat="42.892976" lon="-8.448602">
        <ele>350.076</ele>
        <time>2022-08-24T07:18:39Z</time>
      </trkpt>
      <trkpt lat="42.892939" lon="-8.448647">
        <ele>349.956</ele>
        <time>2022-08-24T07:18:42Z</time>
      </trkpt>
      <trkpt lat="42.892890" lon="-8.448689">
        <ele>349.926</ele>
        <time>2022-08-24T07:18:47Z</time>
      </trkpt>
      <trkpt lat="42.892845" lon="-8.448732">
        <ele>349.971</ele>
        <time>2022-08-24T07:18:51Z</time>
      </trkpt>
      <trkpt lat="42.892798" lon="-8.448793">
        <ele>349.879</ele>
        <time>2022-08-24T07:18:56Z</time>
      </trkpt>
      <trkpt lat="42.892757" lon="-8.448836">
        <ele>349.889</ele>
        <time>2022-08-24T07:19:00Z</time>
      </trkpt>
      <trkpt lat="42.892729" lon="-8.448893">
        <ele>349.843</ele>
        <time>2022-08-24T07:19:05Z</time>
      </trkpt>
      <trkpt lat="42.892692" lon="-8.448939">
        <ele>349.858</ele>
        <time>2022-08-24T07:19:09Z</time>
      </trkpt>
      <trkpt lat="42.892659" lon="-8.448988">
        <ele>349.812</ele>
        <time>2022-08-24T07:19:13Z</time>
      </trkpt>
      <trkpt lat="42.892615" lon="-8.449020">
        <ele>349.839</ele>
        <time>2022-08-24T07:19:17Z</time>
      </trkpt>
      <trkpt lat="42.892579" lon="-8.449068">
        <ele>349.801</ele>
        <time>2022-08-24T07:19:21Z</time>
      </trkpt>
      <trkpt lat="42.892538" lon="-8.449120">
        <ele>349.821</ele>
        <time>2022-08-24T07:19:25Z</time>
      </trkpt>
      <trkpt lat="42.892516" lon="-8.449183">
        <ele>349.809</ele>
        <time>2022-08-24T07:19:29Z</time>
      </trkpt>
      <trkpt lat="42.892497" lon="-8.449249">
        <ele>349.814</ele>
        <time>2022-08-24T07:19:33Z</time>
      </trkpt>
      <trkpt lat="42.892469" lon="-8.449302">
        <ele>349.814</ele>
        <time>2022-08-24T07:19:37Z</time>
      </trkpt>
      <trkpt lat="42.892438" lon="-8.449357">
        <ele>349.864</ele>
        <time>2022-08-24T07:19:41Z</time>
      </trkpt>
      <trkpt lat="42.892398" lon="-8.449410">
        <ele>349.859</ele>
        <time>2022-08-24T07:19:46Z</time>
      </trkpt>
      <trkpt lat="42.892366" lon="-8.449470">
        <ele>349.857</ele>
        <time>2022-08-24T07:19:50Z</time>
      </trkpt>
      <trkpt lat="42.892326" lon="-8.449507">
        <ele>349.747</ele>
        <time>2022-08-24T07:19:54Z</time>
      </trkpt>
      <trkpt lat="42.892294" lon="-8.449555">
        <ele>349.641</ele>
        <time>2022-08-24T07:19:58Z</time>
      </trkpt>
      <trkpt lat="42.892272" lon="-8.449612">
        <ele>349.586</ele>
        <time>2022-08-24T07:20:01Z</time>
      </trkpt>
      <trkpt lat="42.892233" lon="-8.449667">
        <ele>349.350</ele>
        <time>2022-08-24T07:20:05Z</time>
      </trkpt>
      <trkpt lat="42.892191" lon="-8.449719">
        <ele>349.125</ele>
        <time>2022-08-24T07:20:09Z</time>
      </trkpt>
      <trkpt lat="42.892161" lon="-8.449780">
        <ele>349.026</ele>
        <time>2022-08-24T07:20:13Z</time>
      </trkpt>
      <trkpt lat="42.892133" lon="-8.449835">
        <ele>348.908</ele>
        <time>2022-08-24T07:20:18Z</time>
      </trkpt>
      <trkpt lat="42.892083" lon="-8.449832">
        <ele>348.809</ele>
        <time>2022-08-24T07:20:24Z</time>
      </trkpt>
      <trkpt lat="42.892038" lon="-8.449843">
        <ele>348.893</ele>
        <time>2022-08-24T07:20:29Z</time>
      </trkpt>
      <trkpt lat="42.891982" lon="-8.449833">
        <ele>348.863</ele>
        <time>2022-08-24T07:20:33Z</time>
      </trkpt>
      <trkpt lat="42.891929" lon="-8.449808">
        <ele>349.083</ele>
        <time>2022-08-24T07:20:38Z</time>
      </trkpt>
      <trkpt lat="42.891877" lon="-8.449794">
        <ele>349.648</ele>
        <time>2022-08-24T07:20:42Z</time>
      </trkpt>
      <trkpt lat="42.891832" lon="-8.449781">
        <ele>350.456</ele>
        <time>2022-08-24T07:20:46Z</time>
      </trkpt>
      <trkpt lat="42.891783" lon="-8.449778">
        <ele>351.236</ele>
        <time>2022-08-24T07:20:49Z</time>
      </trkpt>
      <trkpt lat="42.891735" lon="-8.449756">
        <ele>351.810</ele>
        <time>2022-08-24T07:20:52Z</time>
      </trkpt>
      <trkpt lat="42.891691" lon="-8.449711">
        <ele>352.275</ele>
        <time>2022-08-24T07:20:56Z</time>
      </trkpt>
      <trkpt lat="42.891649" lon="-8.449682">
        <ele>352.589</ele>
        <time>2022-08-24T07:21:00Z</time>
      </trkpt>
      <trkpt lat="42.891601" lon="-8.449662">
        <ele>352.898</ele>
        <time>2022-08-24T07:21:04Z</time>
      </trkpt>
      <trkpt lat="42.891574" lon="-8.449724">
        <ele>353.315</ele>
        <time>2022-08-24T07:21:16Z</time>
      </trkpt>
      <trkpt lat="42.891566" lon="-8.449788">
        <ele>353.726</ele>
        <time>2022-08-24T07:21:20Z</time>
      </trkpt>
      <trkpt lat="42.891559" lon="-8.449853">
        <ele>354.009</ele>
        <time>2022-08-24T07:21:23Z</time>
      </trkpt>
      <trkpt lat="42.891556" lon="-8.449920">
        <ele>354.110</ele>
        <time>2022-08-24T07:21:27Z</time>
      </trkpt>
      <trkpt lat="42.891550" lon="-8.449983">
        <ele>354.110</ele>
        <time>2022-08-24T07:21:30Z</time>
      </trkpt>
      <trkpt lat="42.891535" lon="-8.450050">
        <ele>354.230</ele>
        <time>2022-08-24T07:21:34Z</time>
      </trkpt>
      <trkpt lat="42.891515" lon="-8.450108">
        <ele>354.245</ele>
        <time>2022-08-24T07:21:38Z</time>
      </trkpt>
      <trkpt lat="42.891502" lon="-8.450177">
        <ele>354.143</ele>
        <time>2022-08-24T07:21:42Z</time>
      </trkpt>
      <trkpt lat="42.891479" lon="-8.450234">
        <ele>354.143</ele>
        <time>2022-08-24T07:21:45Z</time>
      </trkpt>
      <trkpt lat="42.891457" lon="-8.450304">
        <ele>354.197</ele>
        <time>2022-08-24T07:21:49Z</time>
      </trkpt>
      <trkpt lat="42.891447" lon="-8.450369">
        <ele>354.122</ele>
        <time>2022-08-24T07:21:53Z</time>
      </trkpt>
      <trkpt lat="42.891430" lon="-8.450446">
        <ele>354.156</ele>
        <time>2022-08-24T07:21:58Z</time>
      </trkpt>
      <trkpt lat="42.891415" lon="-8.450510">
        <ele>354.162</ele>
        <time>2022-08-24T07:22:03Z</time>
      </trkpt>
      <trkpt lat="42.891416" lon="-8.450578">
        <ele>354.183</ele>
        <time>2022-08-24T07:22:07Z</time>
      </trkpt>
      <trkpt lat="42.891401" lon="-8.450643">
        <ele>354.111</ele>
        <time>2022-08-24T07:22:10Z</time>
      </trkpt>
      <trkpt lat="42.891393" lon="-8.450718">
        <ele>354.109</ele>
        <time>2022-08-24T07:22:14Z</time>
      </trkpt>
      <trkpt lat="42.891384" lon="-8.450789">
        <ele>354.167</ele>
        <time>2022-08-24T07:22:19Z</time>
      </trkpt>
      <trkpt lat="42.891388" lon="-8.450852">
        <ele>354.037</ele>
        <time>2022-08-24T07:22:22Z</time>
      </trkpt>
      <trkpt lat="42.891395" lon="-8.450936">
        <ele>353.867</ele>
        <time>2022-08-24T07:22:27Z</time>
      </trkpt>
      <trkpt lat="42.891406" lon="-8.451020">
        <ele>353.652</ele>
        <time>2022-08-24T07:22:33Z</time>
      </trkpt>
      <trkpt lat="42.891446" lon="-8.451059">
        <ele>353.170</ele>
        <time>2022-08-24T07:22:40Z</time>
      </trkpt>
      <trkpt lat="42.891489" lon="-8.451079">
        <ele>352.920</ele>
        <time>2022-08-24T07:22:44Z</time>
      </trkpt>
      <trkpt lat="42.891438" lon="-8.451059">
        <ele>352.454</ele>
        <time>2022-08-24T07:22:49Z</time>
      </trkpt>
      <trkpt lat="42.891431" lon="-8.451123">
        <ele>352.469</ele>
        <time>2022-08-24T07:22:52Z</time>
      </trkpt>
      <trkpt lat="42.891422" lon="-8.451184">
        <ele>352.383</ele>
        <time>2022-08-24T07:22:56Z</time>
      </trkpt>
      <trkpt lat="42.891410" lon="-8.451253">
        <ele>352.199</ele>
        <time>2022-08-24T07:23:00Z</time>
      </trkpt>
      <trkpt lat="42.891403" lon="-8.451327">
        <ele>351.607</ele>
        <time>2022-08-24T07:23:04Z</time>
      </trkpt>
      <trkpt lat="42.891384" lon="-8.451400">
        <ele>350.727</ele>
        <time>2022-08-24T07:23:08Z</time>
      </trkpt>
      <trkpt lat="42.891367" lon="-8.451468">
        <ele>350.009</ele>
        <time>2022-08-24T07:23:12Z</time>
      </trkpt>
      <trkpt lat="42.891357" lon="-8.451538">
        <ele>349.650</ele>
        <time>2022-08-24T07:23:16Z</time>
      </trkpt>
      <trkpt lat="42.891354" lon="-8.451612">
        <ele>349.510</ele>
        <time>2022-08-24T07:23:20Z</time>
      </trkpt>
      <trkpt lat="42.891345" lon="-8.451682">
        <ele>349.610</ele>
        <time>2022-08-24T07:23:24Z</time>
      </trkpt>
      <trkpt lat="42.891337" lon="-8.451755">
        <ele>349.745</ele>
        <time>2022-08-24T07:23:28Z</time>
      </trkpt>
      <trkpt lat="42.891325" lon="-8.451824">
        <ele>350.123</ele>
        <time>2022-08-24T07:23:32Z</time>
      </trkpt>
      <trkpt lat="42.891323" lon="-8.451905">
        <ele>350.723</ele>
        <time>2022-08-24T07:23:37Z</time>
      </trkpt>
      <trkpt lat="42.891318" lon="-8.451976">
        <ele>351.047</ele>
        <time>2022-08-24T07:23:41Z</time>
      </trkpt>
      <trkpt lat="42.891323" lon="-8.452038">
        <ele>351.652</ele>
        <time>2022-08-24T07:23:46Z</time>
      </trkpt>
      <trkpt lat="42.891323" lon="-8.452116">
        <ele>352.356</ele>
        <time>2022-08-24T07:23:50Z</time>
      </trkpt>
      <trkpt lat="42.891328" lon="-8.452181">
        <ele>353.038</ele>
        <time>2022-08-24T07:23:55Z</time>
      </trkpt>
      <trkpt lat="42.891320" lon="-8.452251">
        <ele>353.770</ele>
        <time>2022-08-24T07:23:59Z</time>
      </trkpt>
      <trkpt lat="42.891314" lon="-8.452316">
        <ele>354.417</ele>
        <time>2022-08-24T07:24:03Z</time>
      </trkpt>
      <trkpt lat="42.891310" lon="-8.452389">
        <ele>355.009</ele>
        <time>2022-08-24T07:24:08Z</time>
      </trkpt>
      <trkpt lat="42.891300" lon="-8.452458">
        <ele>355.514</ele>
        <time>2022-08-24T07:24:12Z</time>
      </trkpt>
      <trkpt lat="42.891292" lon="-8.452523">
        <ele>356.294</ele>
        <time>2022-08-24T07:24:17Z</time>
      </trkpt>
      <trkpt lat="42.891290" lon="-8.452618">
        <ele>357.284</ele>
        <time>2022-08-24T07:24:36Z</time>
      </trkpt>
      <trkpt lat="42.891255" lon="-8.452674">
        <ele>357.849</ele>
        <time>2022-08-24T07:24:40Z</time>
      </trkpt>
      <trkpt lat="42.891228" lon="-8.452725">
        <ele>358.397</ele>
        <time>2022-08-24T07:24:44Z</time>
      </trkpt>
      <trkpt lat="42.891198" lon="-8.452773">
        <ele>358.827</ele>
        <time>2022-08-24T07:24:47Z</time>
      </trkpt>
      <trkpt lat="42.891159" lon="-8.452812">
        <ele>358.991</ele>
        <time>2022-08-24T07:24:51Z</time>
      </trkpt>
      <trkpt lat="42.891118" lon="-8.452848">
        <ele>359.066</ele>
        <time>2022-08-24T07:24:55Z</time>
      </trkpt>
      <trkpt lat="42.891079" lon="-8.452902">
        <ele>359.230</ele>
        <time>2022-08-24T07:24:59Z</time>
      </trkpt>
      <trkpt lat="42.891047" lon="-8.452960">
        <ele>359.534</ele>
        <time>2022-08-24T07:25:03Z</time>
      </trkpt>
      <trkpt lat="42.891020" lon="-8.453020">
        <ele>359.955</ele>
        <time>2022-08-24T07:25:08Z</time>
      </trkpt>
      <trkpt lat="42.890988" lon="-8.453076">
        <ele>360.310</ele>
        <time>2022-08-24T07:25:12Z</time>
      </trkpt>
      <trkpt lat="42.890968" lon="-8.453155">
        <ele>360.809</ele>
        <time>2022-08-24T07:25:21Z</time>
      </trkpt>
      <trkpt lat="42.890959" lon="-8.453218">
        <ele>360.964</ele>
        <time>2022-08-24T07:25:25Z</time>
      </trkpt>
      <trkpt lat="42.890953" lon="-8.453279">
        <ele>361.324</ele>
        <time>2022-08-24T07:25:29Z</time>
      </trkpt>
      <trkpt lat="42.890948" lon="-8.453349">
        <ele>361.774</ele>
        <time>2022-08-24T07:25:33Z</time>
      </trkpt>
      <trkpt lat="42.890946" lon="-8.453411">
        <ele>362.129</ele>
        <time>2022-08-24T07:25:37Z</time>
      </trkpt>
      <trkpt lat="42.890938" lon="-8.453480">
        <ele>362.537</ele>
        <time>2022-08-24T07:25:41Z</time>
      </trkpt>
      <trkpt lat="42.890936" lon="-8.453543">
        <ele>362.847</ele>
        <time>2022-08-24T07:25:45Z</time>
      </trkpt>
      <trkpt lat="42.890938" lon="-8.453618">
        <ele>363.151</ele>
        <time>2022-08-24T07:25:49Z</time>
      </trkpt>
      <trkpt lat="42.890946" lon="-8.453683">
        <ele>363.326</ele>
        <time>2022-08-24T07:25:53Z</time>
      </trkpt>
      <trkpt lat="42.890950" lon="-8.453745">
        <ele>363.580</ele>
        <time>2022-08-24T07:25:57Z</time>
      </trkpt>
      <trkpt lat="42.890945" lon="-8.453813">
        <ele>363.639</ele>
        <time>2022-08-24T07:26:01Z</time>
      </trkpt>
      <trkpt lat="42.890935" lon="-8.453890">
        <ele>363.801</ele>
        <time>2022-08-24T07:26:05Z</time>
      </trkpt>
      <trkpt lat="42.890920" lon="-8.453949">
        <ele>364.121</ele>
        <time>2022-08-24T07:26:09Z</time>
      </trkpt>
      <trkpt lat="42.890919" lon="-8.454013">
        <ele>364.509</ele>
        <time>2022-08-24T07:26:13Z</time>
      </trkpt>
      <trkpt lat="42.890909" lon="-8.454084">
        <ele>364.914</ele>
        <time>2022-08-24T07:26:17Z</time>
      </trkpt>
      <trkpt lat="42.890910" lon="-8.454152">
        <ele>365.364</ele>
        <time>2022-08-24T07:26:21Z</time>
      </trkpt>
      <trkpt lat="42.890892" lon="-8.454217">
        <ele>365.444</ele>
        <time>2022-08-24T07:26:25Z</time>
      </trkpt>
      <trkpt lat="42.890894" lon="-8.454292">
        <ele>365.579</ele>
        <time>2022-08-24T07:26:29Z</time>
      </trkpt>
      <trkpt lat="42.890888" lon="-8.454362">
        <ele>365.767</ele>
        <time>2022-08-24T07:26:33Z</time>
      </trkpt>
      <trkpt lat="42.890885" lon="-8.454427">
        <ele>365.857</ele>
        <time>2022-08-24T07:26:37Z</time>
      </trkpt>
      <trkpt lat="42.890885" lon="-8.454494">
        <ele>365.941</ele>
        <time>2022-08-24T07:26:41Z</time>
      </trkpt>
      <trkpt lat="42.890880" lon="-8.454566">
        <ele>366.096</ele>
        <time>2022-08-24T07:26:45Z</time>
      </trkpt>
      <trkpt lat="42.890866" lon="-8.454637">
        <ele>366.130</ele>
        <time>2022-08-24T07:26:50Z</time>
      </trkpt>
      <trkpt lat="42.890863" lon="-8.454706">
        <ele>366.289</ele>
        <time>2022-08-24T07:26:54Z</time>
      </trkpt>
      <trkpt lat="42.890827" lon="-8.454769">
        <ele>366.306</ele>
        <time>2022-08-24T07:26:58Z</time>
      </trkpt>
      <trkpt lat="42.890794" lon="-8.454812">
        <ele>366.426</ele>
        <time>2022-08-24T07:27:02Z</time>
      </trkpt>
      <trkpt lat="42.890761" lon="-8.454874">
        <ele>366.509</ele>
        <time>2022-08-24T07:27:06Z</time>
      </trkpt>
      <trkpt lat="42.890729" lon="-8.454923">
        <ele>366.869</ele>
        <time>2022-08-24T07:27:10Z</time>
      </trkpt>
      <trkpt lat="42.890697" lon="-8.454979">
        <ele>367.279</ele>
        <time>2022-08-24T07:27:15Z</time>
      </trkpt>
      <trkpt lat="42.890663" lon="-8.455028">
        <ele>367.569</ele>
        <time>2022-08-24T07:27:19Z</time>
      </trkpt>
      <trkpt lat="42.890632" lon="-8.455074">
        <ele>367.754</ele>
        <time>2022-08-24T07:27:23Z</time>
      </trkpt>
      <trkpt lat="42.890607" lon="-8.455137">
        <ele>367.922</ele>
        <time>2022-08-24T07:27:28Z</time>
      </trkpt>
      <trkpt lat="42.890572" lon="-8.455178">
        <ele>368.152</ele>
        <time>2022-08-24T07:27:31Z</time>
      </trkpt>
      <trkpt lat="42.890539" lon="-8.455235">
        <ele>368.216</ele>
        <time>2022-08-24T07:27:35Z</time>
      </trkpt>
      <trkpt lat="42.890504" lon="-8.455295">
        <ele>368.271</ele>
        <time>2022-08-24T07:27:39Z</time>
      </trkpt>
      <trkpt lat="42.890475" lon="-8.455357">
        <ele>368.285</ele>
        <time>2022-08-24T07:27:44Z</time>
      </trkpt>
      <trkpt lat="42.890461" lon="-8.455418">
        <ele>368.239</ele>
        <time>2022-08-24T07:27:48Z</time>
      </trkpt>
      <trkpt lat="42.890443" lon="-8.455478">
        <ele>368.301</ele>
        <time>2022-08-24T07:27:51Z</time>
      </trkpt>
      <trkpt lat="42.890413" lon="-8.455545">
        <ele>368.421</ele>
        <time>2022-08-24T07:27:55Z</time>
      </trkpt>
      <trkpt lat="42.890387" lon="-8.455601">
        <ele>368.409</ele>
        <time>2022-08-24T07:27:59Z</time>
      </trkpt>
      <trkpt lat="42.890362" lon="-8.455666">
        <ele>368.474</ele>
        <time>2022-08-24T07:28:03Z</time>
      </trkpt>
      <trkpt lat="42.890341" lon="-8.455734">
        <ele>368.564</ele>
        <time>2022-08-24T07:28:07Z</time>
      </trkpt>
      <trkpt lat="42.890328" lon="-8.455795">
        <ele>368.744</ele>
        <time>2022-08-24T07:28:11Z</time>
      </trkpt>
      <trkpt lat="42.890306" lon="-8.455858">
        <ele>368.929</ele>
        <time>2022-08-24T07:28:15Z</time>
      </trkpt>
      <trkpt lat="42.890287" lon="-8.455929">
        <ele>369.057</ele>
        <time>2022-08-24T07:28:19Z</time>
      </trkpt>
      <trkpt lat="42.890261" lon="-8.456011">
        <ele>369.157</ele>
        <time>2022-08-24T07:28:24Z</time>
      </trkpt>
      <trkpt lat="42.890243" lon="-8.456080">
        <ele>369.371</ele>
        <time>2022-08-24T07:28:29Z</time>
      </trkpt>
      <trkpt lat="42.890213" lon="-8.456149">
        <ele>369.776</ele>
        <time>2022-08-24T07:28:33Z</time>
      </trkpt>
      <trkpt lat="42.890185" lon="-8.456201">
        <ele>370.010</ele>
        <time>2022-08-24T07:28:36Z</time>
      </trkpt>
      <trkpt lat="42.890178" lon="-8.456275">
        <ele>370.296</ele>
        <time>2022-08-24T07:28:41Z</time>
      </trkpt>
      <trkpt lat="42.890173" lon="-8.456336">
        <ele>370.331</ele>
        <time>2022-08-24T07:28:45Z</time>
      </trkpt>
      <trkpt lat="42.890172" lon="-8.456406">
        <ele>370.524</ele>
        <time>2022-08-24T07:28:49Z</time>
      </trkpt>
      <trkpt lat="42.890174" lon="-8.456469">
        <ele>370.709</ele>
        <time>2022-08-24T07:28:52Z</time>
      </trkpt>
      <trkpt lat="42.890184" lon="-8.456540">
        <ele>370.990</ele>
        <time>2022-08-24T07:28:56Z</time>
      </trkpt>
      <trkpt lat="42.890179" lon="-8.456610">
        <ele>371.040</ele>
        <time>2022-08-24T07:29:00Z</time>
      </trkpt>
      <trkpt lat="42.890161" lon="-8.456668">
        <ele>371.160</ele>
        <time>2022-08-24T07:29:04Z</time>
      </trkpt>
      <trkpt lat="42.890147" lon="-8.456734">
        <ele>371.115</ele>
        <time>2022-08-24T07:29:08Z</time>
      </trkpt>
      <trkpt lat="42.890162" lon="-8.456793">
        <ele>371.263</ele>
        <time>2022-08-24T07:29:12Z</time>
      </trkpt>
      <trkpt lat="42.890149" lon="-8.456859">
        <ele>371.473</ele>
        <time>2022-08-24T07:29:16Z</time>
      </trkpt>
      <trkpt lat="42.890149" lon="-8.456928">
        <ele>371.717</ele>
        <time>2022-08-24T07:29:20Z</time>
      </trkpt>
      <trkpt lat="42.890151" lon="-8.456994">
        <ele>371.852</ele>
        <time>2022-08-24T07:29:24Z</time>
      </trkpt>
      <trkpt lat="42.890146" lon="-8.457070">
        <ele>371.976</ele>
        <time>2022-08-24T07:29:28Z</time>
      </trkpt>
      <trkpt lat="42.890131" lon="-8.457139">
        <ele>372.068</ele>
        <time>2022-08-24T07:29:32Z</time>
      </trkpt>
      <trkpt lat="42.890128" lon="-8.457207">
        <ele>372.142</ele>
        <time>2022-08-24T07:29:36Z</time>
      </trkpt>
      <trkpt lat="42.890134" lon="-8.457271">
        <ele>372.226</ele>
        <time>2022-08-24T07:29:41Z</time>
      </trkpt>
      <trkpt lat="42.890143" lon="-8.457344">
        <ele>372.309</ele>
        <time>2022-08-24T07:29:45Z</time>
      </trkpt>
      <trkpt lat="42.890151" lon="-8.457408">
        <ele>372.417</ele>
        <time>2022-08-24T07:29:49Z</time>
      </trkpt>
      <trkpt lat="42.890165" lon="-8.457475">
        <ele>372.557</ele>
        <time>2022-08-24T07:29:53Z</time>
      </trkpt>
      <trkpt lat="42.890163" lon="-8.457538">
        <ele>372.667</ele>
        <time>2022-08-24T07:29:57Z</time>
      </trkpt>
      <trkpt lat="42.890173" lon="-8.457614">
        <ele>372.722</ele>
        <time>2022-08-24T07:30:02Z</time>
      </trkpt>
      <trkpt lat="42.890184" lon="-8.457689">
        <ele>372.810</ele>
        <time>2022-08-24T07:30:06Z</time>
      </trkpt>
      <trkpt lat="42.890194" lon="-8.457760">
        <ele>373.070</ele>
        <time>2022-08-24T07:30:10Z</time>
      </trkpt>
      <trkpt lat="42.890199" lon="-8.457826">
        <ele>373.214</ele>
        <time>2022-08-24T07:30:14Z</time>
      </trkpt>
      <trkpt lat="42.890225" lon="-8.457879">
        <ele>373.459</ele>
        <time>2022-08-24T07:30:18Z</time>
      </trkpt>
      <trkpt lat="42.890236" lon="-8.457947">
        <ele>373.733</ele>
        <time>2022-08-24T07:30:22Z</time>
      </trkpt>
      <trkpt lat="42.890248" lon="-8.458008">
        <ele>374.038</ele>
        <time>2022-08-24T07:30:26Z</time>
      </trkpt>
      <trkpt lat="42.890275" lon="-8.458067">
        <ele>374.470</ele>
        <time>2022-08-24T07:30:30Z</time>
      </trkpt>
      <trkpt lat="42.890293" lon="-8.458128">
        <ele>374.817</ele>
        <time>2022-08-24T07:30:34Z</time>
      </trkpt>
      <trkpt lat="42.890313" lon="-8.458190">
        <ele>375.209</ele>
        <time>2022-08-24T07:30:39Z</time>
      </trkpt>
      <trkpt lat="42.890333" lon="-8.458253">
        <ele>375.644</ele>
        <time>2022-08-24T07:30:43Z</time>
      </trkpt>
      <trkpt lat="42.890359" lon="-8.458318">
        <ele>376.134</ele>
        <time>2022-08-24T07:30:47Z</time>
      </trkpt>
      <trkpt lat="42.890384" lon="-8.458383">
        <ele>376.654</ele>
        <time>2022-08-24T07:30:51Z</time>
      </trkpt>
      <trkpt lat="42.890388" lon="-8.458461">
        <ele>377.099</ele>
        <time>2022-08-24T07:30:56Z</time>
      </trkpt>
      <trkpt lat="42.890396" lon="-8.458535">
        <ele>377.477</ele>
        <time>2022-08-24T07:31:01Z</time>
      </trkpt>
      <trkpt lat="42.890392" lon="-8.458598">
        <ele>377.537</ele>
        <time>2022-08-24T07:31:04Z</time>
      </trkpt>
      <trkpt lat="42.890387" lon="-8.458665">
        <ele>377.721</ele>
        <time>2022-08-24T07:31:08Z</time>
      </trkpt>
      <trkpt lat="42.890384" lon="-8.458740">
        <ele>377.886</ele>
        <time>2022-08-24T07:31:12Z</time>
      </trkpt>
      <trkpt lat="42.890384" lon="-8.458811">
        <ele>378.060</ele>
        <time>2022-08-24T07:31:17Z</time>
      </trkpt>
      <trkpt lat="42.890406" lon="-8.458876">
        <ele>378.435</ele>
        <time>2022-08-24T07:31:21Z</time>
      </trkpt>
      <trkpt lat="42.890423" lon="-8.458951">
        <ele>378.886</ele>
        <time>2022-08-24T07:31:25Z</time>
      </trkpt>
      <trkpt lat="42.890436" lon="-8.459022">
        <ele>379.214</ele>
        <time>2022-08-24T07:31:30Z</time>
      </trkpt>
      <trkpt lat="42.890444" lon="-8.459091">
        <ele>379.309</ele>
        <time>2022-08-24T07:31:34Z</time>
      </trkpt>
      <trkpt lat="42.890460" lon="-8.459159">
        <ele>379.674</ele>
        <time>2022-08-24T07:31:38Z</time>
      </trkpt>
      <trkpt lat="42.890479" lon="-8.459219">
        <ele>379.934</ele>
        <time>2022-08-24T07:31:41Z</time>
      </trkpt>
      <trkpt lat="42.890485" lon="-8.459294">
        <ele>380.144</ele>
        <time>2022-08-24T07:31:45Z</time>
      </trkpt>
      <trkpt lat="42.890502" lon="-8.459362">
        <ele>380.419</ele>
        <time>2022-08-24T07:31:49Z</time>
      </trkpt>
      <trkpt lat="42.890509" lon="-8.459431">
        <ele>380.747</ele>
        <time>2022-08-24T07:31:53Z</time>
      </trkpt>
      <trkpt lat="42.890531" lon="-8.459497">
        <ele>380.847</ele>
        <time>2022-08-24T07:31:57Z</time>
      </trkpt>
      <trkpt lat="42.890544" lon="-8.459568">
        <ele>380.891</ele>
        <time>2022-08-24T07:32:01Z</time>
      </trkpt>
      <trkpt lat="42.890551" lon="-8.459637">
        <ele>380.876</ele>
        <time>2022-08-24T07:32:05Z</time>
      </trkpt>
      <trkpt lat="42.890552" lon="-8.459715">
        <ele>380.830</ele>
        <time>2022-08-24T07:32:09Z</time>
      </trkpt>
      <trkpt lat="42.890559" lon="-8.459784">
        <ele>380.837</ele>
        <time>2022-08-24T07:32:13Z</time>
      </trkpt>
      <trkpt lat="42.890568" lon="-8.459854">
        <ele>380.849</ele>
        <time>2022-08-24T07:32:18Z</time>
      </trkpt>
      <trkpt lat="42.890548" lon="-8.459919">
        <ele>380.813</ele>
        <time>2022-08-24T07:32:22Z</time>
      </trkpt>
      <trkpt lat="42.890547" lon="-8.459983">
        <ele>380.809</ele>
        <time>2022-08-24T07:32:27Z</time>
      </trkpt>
      <trkpt lat="42.890544" lon="-8.460059">
        <ele>380.954</ele>
        <time>2022-08-24T07:32:32Z</time>
      </trkpt>
      <trkpt lat="42.890539" lon="-8.460140">
        <ele>381.024</ele>
        <time>2022-08-24T07:32:38Z</time>
      </trkpt>
      <trkpt lat="42.890543" lon="-8.460217">
        <ele>381.344</ele>
        <time>2022-08-24T07:32:43Z</time>
      </trkpt>
      <trkpt lat="42.890539" lon="-8.460290">
        <ele>381.379</ele>
        <time>2022-08-24T07:32:47Z</time>
      </trkpt>
      <trkpt lat="42.890529" lon="-8.460356">
        <ele>381.337</ele>
        <time>2022-08-24T07:32:52Z</time>
      </trkpt>
      <trkpt lat="42.890522" lon="-8.460426">
        <ele>381.327</ele>
        <time>2022-08-24T07:32:56Z</time>
      </trkpt>
      <trkpt lat="42.890502" lon="-8.460484">
        <ele>381.391</ele>
        <time>2022-08-24T07:32:59Z</time>
      </trkpt>
      <trkpt lat="42.890493" lon="-8.460549">
        <ele>381.356</ele>
        <time>2022-08-24T07:33:03Z</time>
      </trkpt>
      <trkpt lat="42.890485" lon="-8.460613">
        <ele>381.390</ele>
        <time>2022-08-24T07:33:07Z</time>
      </trkpt>
      <trkpt lat="42.890482" lon="-8.460680">
        <ele>381.313</ele>
        <time>2022-08-24T07:33:11Z</time>
      </trkpt>
      <trkpt lat="42.890472" lon="-8.460745">
        <ele>381.243</ele>
        <time>2022-08-24T07:33:16Z</time>
      </trkpt>
      <trkpt lat="42.890460" lon="-8.460814">
        <ele>381.207</ele>
        <time>2022-08-24T07:33:21Z</time>
      </trkpt>
      <trkpt lat="42.890439" lon="-8.460873">
        <ele>381.209</ele>
        <time>2022-08-24T07:33:24Z</time>
      </trkpt>
      <trkpt lat="42.890427" lon="-8.460935">
        <ele>381.262</ele>
        <time>2022-08-24T07:33:29Z</time>
      </trkpt>
      <trkpt lat="42.890425" lon="-8.461001">
        <ele>381.232</ele>
        <time>2022-08-24T07:33:33Z</time>
      </trkpt>
      <trkpt lat="42.890410" lon="-8.461073">
        <ele>381.282</ele>
        <time>2022-08-24T07:33:37Z</time>
      </trkpt>
      <trkpt lat="42.890404" lon="-8.461135">
        <ele>381.257</ele>
        <time>2022-08-24T07:33:41Z</time>
      </trkpt>
      <trkpt lat="42.890412" lon="-8.461211">
        <ele>381.135</ele>
        <time>2022-08-24T07:33:45Z</time>
      </trkpt>
      <trkpt lat="42.890400" lon="-8.461275">
        <ele>381.065</ele>
        <time>2022-08-24T07:33:48Z</time>
      </trkpt>
      <trkpt lat="42.890384" lon="-8.461349">
        <ele>381.099</ele>
        <time>2022-08-24T07:33:52Z</time>
      </trkpt>
      <trkpt lat="42.890391" lon="-8.461434">
        <ele>381.044</ele>
        <time>2022-08-24T07:33:57Z</time>
      </trkpt>
      <trkpt lat="42.890371" lon="-8.461497">
        <ele>381.138</ele>
        <time>2022-08-24T07:34:02Z</time>
      </trkpt>
      <trkpt lat="42.890359" lon="-8.461556">
        <ele>381.111</ele>
        <time>2022-08-24T07:34:07Z</time>
      </trkpt>
      <trkpt lat="42.890365" lon="-8.461626">
        <ele>381.121</ele>
        <time>2022-08-24T07:34:11Z</time>
      </trkpt>
      <trkpt lat="42.890354" lon="-8.461689">
        <ele>381.103</ele>
        <time>2022-08-24T07:34:16Z</time>
      </trkpt>
      <trkpt lat="42.890348" lon="-8.461769">
        <ele>381.109</ele>
        <time>2022-08-24T07:34:20Z</time>
      </trkpt>
      <trkpt lat="42.890351" lon="-8.461833">
        <ele>381.112</ele>
        <time>2022-08-24T07:34:24Z</time>
      </trkpt>
      <trkpt lat="42.890341" lon="-8.461909">
        <ele>381.142</ele>
        <time>2022-08-24T07:34:29Z</time>
      </trkpt>
      <trkpt lat="42.890328" lon="-8.461980">
        <ele>381.152</ele>
        <time>2022-08-24T07:34:33Z</time>
      </trkpt>
      <trkpt lat="42.890319" lon="-8.462041">
        <ele>381.167</ele>
        <time>2022-08-24T07:34:36Z</time>
      </trkpt>
      <trkpt lat="42.890320" lon="-8.462105">
        <ele>381.185</ele>
        <time>2022-08-24T07:34:39Z</time>
      </trkpt>
      <trkpt lat="42.890322" lon="-8.462181">
        <ele>381.185</ele>
        <time>2022-08-24T07:34:43Z</time>
      </trkpt>
      <trkpt lat="42.890323" lon="-8.462247">
        <ele>381.139</ele>
        <time>2022-08-24T07:34:48Z</time>
      </trkpt>
      <trkpt lat="42.890331" lon="-8.462315">
        <ele>381.194</ele>
        <time>2022-08-24T07:34:51Z</time>
      </trkpt>
      <trkpt lat="42.890327" lon="-8.462385">
        <ele>381.198</ele>
        <time>2022-08-24T07:34:55Z</time>
      </trkpt>
      <trkpt lat="42.890328" lon="-8.462454">
        <ele>381.138</ele>
        <time>2022-08-24T07:34:59Z</time>
      </trkpt>
      <trkpt lat="42.890327" lon="-8.462528">
        <ele>381.170</ele>
        <time>2022-08-24T07:35:04Z</time>
      </trkpt>
      <trkpt lat="42.890332" lon="-8.462591">
        <ele>381.117</ele>
        <time>2022-08-24T07:35:09Z</time>
      </trkpt>
      <trkpt lat="42.890338" lon="-8.462662">
        <ele>381.109</ele>
        <time>2022-08-24T07:35:13Z</time>
      </trkpt>
      <trkpt lat="42.890344" lon="-8.462729">
        <ele>381.234</ele>
        <time>2022-08-24T07:35:16Z</time>
      </trkpt>
      <trkpt lat="42.890355" lon="-8.462791">
        <ele>381.314</ele>
        <time>2022-08-24T07:35:20Z</time>
      </trkpt>
      <trkpt lat="42.890351" lon="-8.462858">
        <ele>381.414</ele>
        <time>2022-08-24T07:35:24Z</time>
      </trkpt>
      <trkpt lat="42.890347" lon="-8.462920">
        <ele>381.439</ele>
        <time>2022-08-24T07:35:30Z</time>
      </trkpt>
      <trkpt lat="42.890358" lon="-8.463002">
        <ele>381.467</ele>
        <time>2022-08-24T07:35:34Z</time>
      </trkpt>
      <trkpt lat="42.890352" lon="-8.463073">
        <ele>381.467</ele>
        <time>2022-08-24T07:35:38Z</time>
      </trkpt>
      <trkpt lat="42.890348" lon="-8.463145">
        <ele>381.461</ele>
        <time>2022-08-24T07:35:42Z</time>
      </trkpt>
      <trkpt lat="42.890348" lon="-8.463214">
        <ele>381.456</ele>
        <time>2022-08-24T07:35:46Z</time>
      </trkpt>
      <trkpt lat="42.890349" lon="-8.463284">
        <ele>381.490</ele>
        <time>2022-08-24T07:35:50Z</time>
      </trkpt>
      <trkpt lat="42.890360" lon="-8.463344">
        <ele>381.414</ele>
        <time>2022-08-24T07:35:54Z</time>
      </trkpt>
      <trkpt lat="42.890371" lon="-8.463415">
        <ele>381.454</ele>
        <time>2022-08-24T07:35:58Z</time>
      </trkpt>
      <trkpt lat="42.890380" lon="-8.463488">
        <ele>381.409</ele>
        <time>2022-08-24T07:36:01Z</time>
      </trkpt>
      <trkpt lat="42.890387" lon="-8.463551">
        <ele>381.509</ele>
        <time>2022-08-24T07:36:04Z</time>
      </trkpt>
      <trkpt lat="42.890404" lon="-8.463629">
        <ele>381.622</ele>
        <time>2022-08-24T07:36:08Z</time>
      </trkpt>
      <trkpt lat="42.890424" lon="-8.463685">
        <ele>381.652</ele>
        <time>2022-08-24T07:36:11Z</time>
      </trkpt>
      <trkpt lat="42.890434" lon="-8.463761">
        <ele>381.672</ele>
        <time>2022-08-24T07:36:15Z</time>
      </trkpt>
      <trkpt lat="42.890443" lon="-8.463835">
        <ele>381.677</ele>
        <time>2022-08-24T07:36:19Z</time>
      </trkpt>
      <trkpt lat="42.890459" lon="-8.463907">
        <ele>381.775</ele>
        <time>2022-08-24T07:36:23Z</time>
      </trkpt>
      <trkpt lat="42.890473" lon="-8.463965">
        <ele>381.745</ele>
        <time>2022-08-24T07:36:26Z</time>
      </trkpt>
      <trkpt lat="42.890492" lon="-8.464041">
        <ele>381.779</ele>
        <time>2022-08-24T07:36:30Z</time>
      </trkpt>
      <trkpt lat="42.890507" lon="-8.464103">
        <ele>381.794</ele>
        <time>2022-08-24T07:36:34Z</time>
      </trkpt>
      <trkpt lat="42.890522" lon="-8.464167">
        <ele>381.838</ele>
        <time>2022-08-24T07:36:37Z</time>
      </trkpt>
      <trkpt lat="42.890544" lon="-8.464244">
        <ele>381.917</ele>
        <time>2022-08-24T07:36:41Z</time>
      </trkpt>
      <trkpt lat="42.890554" lon="-8.464315">
        <ele>382.087</ele>
        <time>2022-08-24T07:36:46Z</time>
      </trkpt>
      <trkpt lat="42.890565" lon="-8.464375">
        <ele>382.115</ele>
        <time>2022-08-24T07:36:50Z</time>
      </trkpt>
      <trkpt lat="42.890579" lon="-8.464444">
        <ele>382.209</ele>
        <time>2022-08-24T07:36:54Z</time>
      </trkpt>
      <trkpt lat="42.890582" lon="-8.464517">
        <ele>382.372</ele>
        <time>2022-08-24T07:36:58Z</time>
      </trkpt>
      <trkpt lat="42.890602" lon="-8.464578">
        <ele>382.522</ele>
        <time>2022-08-24T07:37:02Z</time>
      </trkpt>
      <trkpt lat="42.890602" lon="-8.464648">
        <ele>382.672</ele>
        <time>2022-08-24T07:37:06Z</time>
      </trkpt>
      <trkpt lat="42.890606" lon="-8.464727">
        <ele>382.667</ele>
        <time>2022-08-24T07:37:10Z</time>
      </trkpt>
      <trkpt lat="42.890603" lon="-8.464806">
        <ele>382.635</ele>
        <time>2022-08-24T07:37:15Z</time>
      </trkpt>
      <trkpt lat="42.890602" lon="-8.464869">
        <ele>382.695</ele>
        <time>2022-08-24T07:37:18Z</time>
      </trkpt>
      <trkpt lat="42.890602" lon="-8.464938">
        <ele>382.689</ele>
        <time>2022-08-24T07:37:22Z</time>
      </trkpt>
      <trkpt lat="42.890613" lon="-8.465004">
        <ele>382.694</ele>
        <time>2022-08-24T07:37:26Z</time>
      </trkpt>
      <trkpt lat="42.890621" lon="-8.465079">
        <ele>382.698</ele>
        <time>2022-08-24T07:37:30Z</time>
      </trkpt>
      <trkpt lat="42.890637" lon="-8.465156">
        <ele>382.667</ele>
        <time>2022-08-24T07:37:34Z</time>
      </trkpt>
      <trkpt lat="42.890657" lon="-8.465220">
        <ele>382.681</ele>
        <time>2022-08-24T07:37:37Z</time>
      </trkpt>
      <trkpt lat="42.890673" lon="-8.465296">
        <ele>382.619</ele>
        <time>2022-08-24T07:37:41Z</time>
      </trkpt>
      <trkpt lat="42.890689" lon="-8.465367">
        <ele>382.609</ele>
        <time>2022-08-24T07:37:45Z</time>
      </trkpt>
      <trkpt lat="42.890693" lon="-8.465433">
        <ele>382.737</ele>
        <time>2022-08-24T07:37:49Z</time>
      </trkpt>
      <trkpt lat="42.890705" lon="-8.465497">
        <ele>382.747</ele>
        <time>2022-08-24T07:37:53Z</time>
      </trkpt>
      <trkpt lat="42.890713" lon="-8.465570">
        <ele>382.757</ele>
        <time>2022-08-24T07:37:57Z</time>
      </trkpt>
      <trkpt lat="42.890719" lon="-8.465632">
        <ele>382.732</ele>
        <time>2022-08-24T07:38:01Z</time>
      </trkpt>
      <trkpt lat="42.890736" lon="-8.465694">
        <ele>382.780</ele>
        <time>2022-08-24T07:38:05Z</time>
      </trkpt>
      <trkpt lat="42.890725" lon="-8.465764">
        <ele>382.750</ele>
        <time>2022-08-24T07:38:09Z</time>
      </trkpt>
      <trkpt lat="42.890739" lon="-8.465831">
        <ele>382.754</ele>
        <time>2022-08-24T07:38:13Z</time>
      </trkpt>
      <trkpt lat="42.890753" lon="-8.465895">
        <ele>382.749</ele>
        <time>2022-08-24T07:38:17Z</time>
      </trkpt>
      <trkpt lat="42.890766" lon="-8.465963">
        <ele>382.753</ele>
        <time>2022-08-24T07:38:21Z</time>
      </trkpt>
      <trkpt lat="42.890776" lon="-8.466028">
        <ele>382.746</ele>
        <time>2022-08-24T07:38:25Z</time>
      </trkpt>
      <trkpt lat="42.890798" lon="-8.466102">
        <ele>382.788</ele>
        <time>2022-08-24T07:38:29Z</time>
      </trkpt>
      <trkpt lat="42.890807" lon="-8.466163">
        <ele>382.716</ele>
        <time>2022-08-24T07:38:33Z</time>
      </trkpt>
      <trkpt lat="42.890807" lon="-8.466228">
        <ele>382.709</ele>
        <time>2022-08-24T07:38:37Z</time>
      </trkpt>
      <trkpt lat="42.890812" lon="-8.466302">
        <ele>382.775</ele>
        <time>2022-08-24T07:38:41Z</time>
      </trkpt>
      <trkpt lat="42.890817" lon="-8.466377">
        <ele>382.775</ele>
        <time>2022-08-24T07:38:45Z</time>
      </trkpt>
      <trkpt lat="42.890826" lon="-8.466442">
        <ele>382.855</ele>
        <time>2022-08-24T07:38:49Z</time>
      </trkpt>
      <trkpt lat="42.890840" lon="-8.466510">
        <ele>382.990</ele>
        <time>2022-08-24T07:38:53Z</time>
      </trkpt>
      <trkpt lat="42.890843" lon="-8.466586">
        <ele>382.978</ele>
        <time>2022-08-24T07:38:58Z</time>
      </trkpt>
      <trkpt lat="42.890848" lon="-8.466651">
        <ele>383.078</ele>
        <time>2022-08-24T07:39:02Z</time>
      </trkpt>
      <trkpt lat="42.890856" lon="-8.466729">
        <ele>383.132</ele>
        <time>2022-08-24T07:39:06Z</time>
      </trkpt>
      <trkpt lat="42.890873" lon="-8.466790">
        <ele>383.237</ele>
        <time>2022-08-24T07:39:10Z</time>
      </trkpt>
      <trkpt lat="42.890877" lon="-8.466860">
        <ele>383.381</ele>
        <time>2022-08-24T07:39:14Z</time>
      </trkpt>
      <trkpt lat="42.890891" lon="-8.466928">
        <ele>383.482</ele>
        <time>2022-08-24T07:39:18Z</time>
      </trkpt>
      <trkpt lat="42.890900" lon="-8.466998">
        <ele>383.543</ele>
        <time>2022-08-24T07:39:22Z</time>
      </trkpt>
      <trkpt lat="42.890906" lon="-8.467069">
        <ele>383.617</ele>
        <time>2022-08-24T07:39:26Z</time>
      </trkpt>
      <trkpt lat="42.890910" lon="-8.467134">
        <ele>383.709</ele>
        <time>2022-08-24T07:39:30Z</time>
      </trkpt>
      <trkpt lat="42.890922" lon="-8.467193">
        <ele>383.889</ele>
        <time>2022-08-24T07:39:33Z</time>
      </trkpt>
      <trkpt lat="42.890927" lon="-8.467263">
        <ele>383.939</ele>
        <time>2022-08-24T07:39:38Z</time>
      </trkpt>
      <trkpt lat="42.890941" lon="-8.467327">
        <ele>384.019</ele>
        <time>2022-08-24T07:39:42Z</time>
      </trkpt>
      <trkpt lat="42.890957" lon="-8.467392">
        <ele>384.144</ele>
        <time>2022-08-24T07:39:46Z</time>
      </trkpt>
      <trkpt lat="42.890969" lon="-8.467464">
        <ele>384.352</ele>
        <time>2022-08-24T07:39:50Z</time>
      </trkpt>
      <trkpt lat="42.890980" lon="-8.467538">
        <ele>384.412</ele>
        <time>2022-08-24T07:39:54Z</time>
      </trkpt>
      <trkpt lat="42.890995" lon="-8.467603">
        <ele>384.516</ele>
        <time>2022-08-24T07:39:58Z</time>
      </trkpt>
      <trkpt lat="42.891005" lon="-8.467673">
        <ele>384.691</ele>
        <time>2022-08-24T07:40:02Z</time>
      </trkpt>
      <trkpt lat="42.891024" lon="-8.467751">
        <ele>384.835</ele>
        <time>2022-08-24T07:40:07Z</time>
      </trkpt>
      <trkpt lat="42.891038" lon="-8.467810">
        <ele>384.944</ele>
        <time>2022-08-24T07:40:10Z</time>
      </trkpt>
      <trkpt lat="42.891044" lon="-8.467873">
        <ele>385.005</ele>
        <time>2022-08-24T07:40:14Z</time>
      </trkpt>
      <trkpt lat="42.891051" lon="-8.467941">
        <ele>385.215</ele>
        <time>2022-08-24T07:40:18Z</time>
      </trkpt>
      <trkpt lat="42.891054" lon="-8.468011">
        <ele>385.409</ele>
        <time>2022-08-24T07:40:22Z</time>
      </trkpt>
      <trkpt lat="42.891065" lon="-8.468073">
        <ele>385.525</ele>
        <time>2022-08-24T07:40:25Z</time>
      </trkpt>
      <trkpt lat="42.891069" lon="-8.468155">
        <ele>385.625</ele>
        <time>2022-08-24T07:40:30Z</time>
      </trkpt>
      <trkpt lat="42.891073" lon="-8.468226">
        <ele>385.815</ele>
        <time>2022-08-24T07:40:34Z</time>
      </trkpt>
      <trkpt lat="42.891086" lon="-8.468304">
        <ele>386.010</ele>
        <time>2022-08-24T07:40:38Z</time>
      </trkpt>
      <trkpt lat="42.891100" lon="-8.468379">
        <ele>386.398</ele>
        <time>2022-08-24T07:40:42Z</time>
      </trkpt>
      <trkpt lat="42.891107" lon="-8.468446">
        <ele>386.458</ele>
        <time>2022-08-24T07:40:46Z</time>
      </trkpt>
      <trkpt lat="42.891114" lon="-8.468521">
        <ele>386.562</ele>
        <time>2022-08-24T07:40:50Z</time>
      </trkpt>
      <trkpt lat="42.891128" lon="-8.468587">
        <ele>386.637</ele>
        <time>2022-08-24T07:40:54Z</time>
      </trkpt>
      <trkpt lat="42.891141" lon="-8.468661">
        <ele>386.741</ele>
        <time>2022-08-24T07:40:58Z</time>
      </trkpt>
      <trkpt lat="42.891150" lon="-8.468725">
        <ele>386.963</ele>
        <time>2022-08-24T07:41:02Z</time>
      </trkpt>
      <trkpt lat="42.891150" lon="-8.468787">
        <ele>387.044</ele>
        <time>2022-08-24T07:41:06Z</time>
      </trkpt>
      <trkpt lat="42.891169" lon="-8.468855">
        <ele>387.118</ele>
        <time>2022-08-24T07:41:10Z</time>
      </trkpt>
      <trkpt lat="42.891182" lon="-8.468924">
        <ele>387.209</ele>
        <time>2022-08-24T07:41:14Z</time>
      </trkpt>
      <trkpt lat="42.891195" lon="-8.468991">
        <ele>387.377</ele>
        <time>2022-08-24T07:41:20Z</time>
      </trkpt>
      <trkpt lat="42.891212" lon="-8.469059">
        <ele>387.447</ele>
        <time>2022-08-24T07:41:24Z</time>
      </trkpt>
      <trkpt lat="42.891213" lon="-8.469128">
        <ele>387.417</ele>
        <time>2022-08-24T07:41:28Z</time>
      </trkpt>
      <trkpt lat="42.891213" lon="-8.469195">
        <ele>387.582</ele>
        <time>2022-08-24T07:41:32Z</time>
      </trkpt>
      <trkpt lat="42.891220" lon="-8.469257">
        <ele>387.570</ele>
        <time>2022-08-24T07:41:36Z</time>
      </trkpt>
      <trkpt lat="42.891226" lon="-8.469320">
        <ele>387.570</ele>
        <time>2022-08-24T07:41:40Z</time>
      </trkpt>
      <trkpt lat="42.891231" lon="-8.469394">
        <ele>387.534</ele>
        <time>2022-08-24T07:41:44Z</time>
      </trkpt>
      <trkpt lat="42.891247" lon="-8.469454">
        <ele>387.589</ele>
        <time>2022-08-24T07:41:47Z</time>
      </trkpt>
      <trkpt lat="42.891257" lon="-8.469525">
        <ele>387.533</ele>
        <time>2022-08-24T07:41:50Z</time>
      </trkpt>
      <trkpt lat="42.891271" lon="-8.469590">
        <ele>387.675</ele>
        <time>2022-08-24T07:41:53Z</time>
      </trkpt>
      <trkpt lat="42.891283" lon="-8.469669">
        <ele>387.728</ele>
        <time>2022-08-24T07:41:57Z</time>
      </trkpt>
      <trkpt lat="42.891296" lon="-8.469749">
        <ele>387.720</ele>
        <time>2022-08-24T07:42:01Z</time>
      </trkpt>
      <trkpt lat="42.891319" lon="-8.469812">
        <ele>387.709</ele>
        <time>2022-08-24T07:42:05Z</time>
      </trkpt>
      <trkpt lat="42.891338" lon="-8.469868">
        <ele>387.738</ele>
        <time>2022-08-24T07:42:08Z</time>
      </trkpt>
      <trkpt lat="42.891359" lon="-8.469943">
        <ele>387.758</ele>
        <time>2022-08-24T07:42:12Z</time>
      </trkpt>
      <trkpt lat="42.891363" lon="-8.470016">
        <ele>387.768</ele>
        <time>2022-08-24T07:42:16Z</time>
      </trkpt>
      <trkpt lat="42.891362" lon="-8.470091">
        <ele>387.753</ele>
        <time>2022-08-24T07:42:20Z</time>
      </trkpt>
      <trkpt lat="42.891360" lon="-8.470164">
        <ele>387.611</ele>
        <time>2022-08-24T07:42:24Z</time>
      </trkpt>
      <trkpt lat="42.891367" lon="-8.470232">
        <ele>387.541</ele>
        <time>2022-08-24T07:42:28Z</time>
      </trkpt>
      <trkpt lat="42.891365" lon="-8.470310">
        <ele>387.495</ele>
        <time>2022-08-24T07:42:33Z</time>
      </trkpt>
      <trkpt lat="42.891366" lon="-8.470381">
        <ele>387.440</ele>
        <time>2022-08-24T07:42:37Z</time>
      </trkpt>
      <trkpt lat="42.891367" lon="-8.470452">
        <ele>387.354</ele>
        <time>2022-08-24T07:42:41Z</time>
      </trkpt>
      <trkpt lat="42.891372" lon="-8.470519">
        <ele>387.254</ele>
        <time>2022-08-24T07:42:45Z</time>
      </trkpt>
      <trkpt lat="42.891390" lon="-8.470578">
        <ele>387.056</ele>
        <time>2022-08-24T07:42:48Z</time>
      </trkpt>
      <trkpt lat="42.891397" lon="-8.470641">
        <ele>386.811</ele>
        <time>2022-08-24T07:42:51Z</time>
      </trkpt>
      <trkpt lat="42.891414" lon="-8.470707">
        <ele>386.709</ele>
        <time>2022-08-24T07:42:55Z</time>
      </trkpt>
      <trkpt lat="42.891429" lon="-8.470786">
        <ele>386.696</ele>
        <time>2022-08-24T07:42:59Z</time>
      </trkpt>
      <trkpt lat="42.891447" lon="-8.470864">
        <ele>386.516</ele>
        <time>2022-08-24T07:43:03Z</time>
      </trkpt>
      <trkpt lat="42.891452" lon="-8.470937">
        <ele>386.326</ele>
        <time>2022-08-24T07:43:07Z</time>
      </trkpt>
      <trkpt lat="42.891462" lon="-8.471008">
        <ele>386.241</ele>
        <time>2022-08-24T07:43:11Z</time>
      </trkpt>
      <trkpt lat="42.891470" lon="-8.471086">
        <ele>386.019</ele>
        <time>2022-08-24T07:43:15Z</time>
      </trkpt>
      <trkpt lat="42.891485" lon="-8.471162">
        <ele>385.819</ele>
        <time>2022-08-24T07:43:19Z</time>
      </trkpt>
      <trkpt lat="42.891499" lon="-8.471239">
        <ele>385.513</ele>
        <time>2022-08-24T07:43:23Z</time>
      </trkpt>
      <trkpt lat="42.891512" lon="-8.471313">
        <ele>385.318</ele>
        <time>2022-08-24T07:43:27Z</time>
      </trkpt>
      <trkpt lat="42.891520" lon="-8.471381">
        <ele>385.042</ele>
        <time>2022-08-24T07:43:31Z</time>
      </trkpt>
      <trkpt lat="42.891527" lon="-8.471455">
        <ele>384.693</ele>
        <time>2022-08-24T07:43:35Z</time>
      </trkpt>
      <trkpt lat="42.891542" lon="-8.471530">
        <ele>384.365</ele>
        <time>2022-08-24T07:43:39Z</time>
      </trkpt>
      <trkpt lat="42.891553" lon="-8.471599">
        <ele>384.121</ele>
        <time>2022-08-24T07:43:43Z</time>
      </trkpt>
      <trkpt lat="42.891555" lon="-8.471667">
        <ele>384.009</ele>
        <time>2022-08-24T07:43:47Z</time>
      </trkpt>
      <trkpt lat="42.891566" lon="-8.471739">
        <ele>383.850</ele>
        <time>2022-08-24T07:43:51Z</time>
      </trkpt>
      <trkpt lat="42.891576" lon="-8.471812">
        <ele>383.770</ele>
        <time>2022-08-24T07:43:55Z</time>
      </trkpt>
      <trkpt lat="42.891591" lon="-8.471881">
        <ele>383.690</ele>
        <time>2022-08-24T07:43:59Z</time>
      </trkpt>
      <trkpt lat="42.891601" lon="-8.471962">
        <ele>383.465</ele>
        <time>2022-08-24T07:44:03Z</time>
      </trkpt>
      <trkpt lat="42.891610" lon="-8.472032">
        <ele>383.183</ele>
        <time>2022-08-24T07:44:07Z</time>
      </trkpt>
      <trkpt lat="42.891621" lon="-8.472107">
        <ele>382.913</ele>
        <time>2022-08-24T07:44:11Z</time>
      </trkpt>
      <trkpt lat="42.891621" lon="-8.472183">
        <ele>382.747</ele>
        <time>2022-08-24T07:44:15Z</time>
      </trkpt>
      <trkpt lat="42.891625" lon="-8.472260">
        <ele>382.592</ele>
        <time>2022-08-24T07:44:19Z</time>
      </trkpt>
      <trkpt lat="42.891638" lon="-8.472336">
        <ele>382.336</ele>
        <time>2022-08-24T07:44:23Z</time>
      </trkpt>
      <trkpt lat="42.891657" lon="-8.472397">
        <ele>382.153</ele>
        <time>2022-08-24T07:44:26Z</time>
      </trkpt>
      <trkpt lat="42.891664" lon="-8.472462">
        <ele>382.004</ele>
        <time>2022-08-24T07:44:30Z</time>
      </trkpt>
      <trkpt lat="42.891672" lon="-8.472528">
        <ele>381.914</ele>
        <time>2022-08-24T07:44:34Z</time>
      </trkpt>
      <trkpt lat="42.891678" lon="-8.472600">
        <ele>381.809</ele>
        <time>2022-08-24T07:44:38Z</time>
      </trkpt>
      <trkpt lat="42.891685" lon="-8.472669">
        <ele>381.796</ele>
        <time>2022-08-24T07:44:42Z</time>
      </trkpt>
      <trkpt lat="42.891699" lon="-8.472732">
        <ele>381.656</ele>
        <time>2022-08-24T07:44:45Z</time>
      </trkpt>
      <trkpt lat="42.891709" lon="-8.472809">
        <ele>381.416</ele>
        <time>2022-08-24T07:44:49Z</time>
      </trkpt>
      <trkpt lat="42.891717" lon="-8.472882">
        <ele>381.331</ele>
        <time>2022-08-24T07:44:53Z</time>
      </trkpt>
      <trkpt lat="42.891727" lon="-8.472948">
        <ele>381.259</ele>
        <time>2022-08-24T07:44:57Z</time>
      </trkpt>
      <trkpt lat="42.891733" lon="-8.473023">
        <ele>381.149</ele>
        <time>2022-08-24T07:45:01Z</time>
      </trkpt>
      <trkpt lat="42.891743" lon="-8.473093">
        <ele>381.053</ele>
        <time>2022-08-24T07:45:05Z</time>
      </trkpt>
      <trkpt lat="42.891752" lon="-8.473161">
        <ele>380.948</ele>
        <time>2022-08-24T07:45:09Z</time>
      </trkpt>
      <trkpt lat="42.891747" lon="-8.473237">
        <ele>380.892</ele>
        <time>2022-08-24T07:45:13Z</time>
      </trkpt>
      <trkpt lat="42.891750" lon="-8.473304">
        <ele>380.767</ele>
        <time>2022-08-24T07:45:17Z</time>
      </trkpt>
      <trkpt lat="42.891750" lon="-8.473380">
        <ele>380.681</ele>
        <time>2022-08-24T07:45:21Z</time>
      </trkpt>
      <trkpt lat="42.891751" lon="-8.473451">
        <ele>380.519</ele>
        <time>2022-08-24T07:45:25Z</time>
      </trkpt>
      <trkpt lat="42.891762" lon="-8.473517">
        <ele>380.409</ele>
        <time>2022-08-24T07:45:29Z</time>
      </trkpt>
      <trkpt lat="42.891773" lon="-8.473583">
        <ele>380.367</ele>
        <time>2022-08-24T07:45:33Z</time>
      </trkpt>
      <trkpt lat="42.891792" lon="-8.473657">
        <ele>380.337</ele>
        <time>2022-08-24T07:45:37Z</time>
      </trkpt>
      <trkpt lat="42.891801" lon="-8.473717">
        <ele>380.377</ele>
        <time>2022-08-24T07:45:41Z</time>
      </trkpt>
      <trkpt lat="42.891818" lon="-8.473774">
        <ele>380.282</ele>
        <time>2022-08-24T07:45:45Z</time>
      </trkpt>
      <trkpt lat="42.891827" lon="-8.473840">
        <ele>380.220</ele>
        <time>2022-08-24T07:45:49Z</time>
      </trkpt>
      <trkpt lat="42.891835" lon="-8.473919">
        <ele>380.280</ele>
        <time>2022-08-24T07:45:54Z</time>
      </trkpt>
      <trkpt lat="42.891853" lon="-8.473979">
        <ele>380.244</ele>
        <time>2022-08-24T07:45:58Z</time>
      </trkpt>
      <trkpt lat="42.891853" lon="-8.474056">
        <ele>380.299</ele>
        <time>2022-08-24T07:46:02Z</time>
      </trkpt>
      <trkpt lat="42.891858" lon="-8.474125">
        <ele>380.293</ele>
        <time>2022-08-24T07:46:06Z</time>
      </trkpt>
      <trkpt lat="42.891875" lon="-8.474201">
        <ele>380.223</ele>
        <time>2022-08-24T07:46:10Z</time>
      </trkpt>
      <trkpt lat="42.891884" lon="-8.474274">
        <ele>380.283</ele>
        <time>2022-08-24T07:46:14Z</time>
      </trkpt>
      <trkpt lat="42.891904" lon="-8.474345">
        <ele>380.211</ele>
        <time>2022-08-24T07:46:18Z</time>
      </trkpt>
      <trkpt lat="42.891916" lon="-8.474415">
        <ele>380.209</ele>
        <time>2022-08-24T07:46:22Z</time>
      </trkpt>
      <trkpt lat="42.891927" lon="-8.474484">
        <ele>380.113</ele>
        <time>2022-08-24T07:46:26Z</time>
      </trkpt>
      <trkpt lat="42.891935" lon="-8.474550">
        <ele>380.113</ele>
        <time>2022-08-24T07:46:30Z</time>
      </trkpt>
      <trkpt lat="42.891941" lon="-8.474629">
        <ele>380.043</ele>
        <time>2022-08-24T07:46:34Z</time>
      </trkpt>
      <trkpt lat="42.891948" lon="-8.474701">
        <ele>379.968</ele>
        <time>2022-08-24T07:46:38Z</time>
      </trkpt>
      <trkpt lat="42.891959" lon="-8.474775">
        <ele>379.996</ele>
        <time>2022-08-24T07:46:42Z</time>
      </trkpt>
      <trkpt lat="42.891971" lon="-8.474835">
        <ele>379.996</ele>
        <time>2022-08-24T07:46:46Z</time>
      </trkpt>
      <trkpt lat="42.891971" lon="-8.474916">
        <ele>379.910</ele>
        <time>2022-08-24T07:46:50Z</time>
      </trkpt>
      <trkpt lat="42.891991" lon="-8.474985">
        <ele>379.985</ele>
        <time>2022-08-24T07:46:54Z</time>
      </trkpt>
      <trkpt lat="42.892009" lon="-8.475053">
        <ele>379.819</ele>
        <time>2022-08-24T07:46:58Z</time>
      </trkpt>
      <trkpt lat="42.892021" lon="-8.475121">
        <ele>379.719</ele>
        <time>2022-08-24T07:47:02Z</time>
      </trkpt>
      <trkpt lat="42.892030" lon="-8.475187">
        <ele>379.609</ele>
        <time>2022-08-24T07:47:05Z</time>
      </trkpt>
      <trkpt lat="42.892033" lon="-8.475256">
        <ele>379.519</ele>
        <time>2022-08-24T07:47:08Z</time>
      </trkpt>
      <trkpt lat="42.892045" lon="-8.475336">
        <ele>379.509</ele>
        <time>2022-08-24T07:47:12Z</time>
      </trkpt>
      <trkpt lat="42.892055" lon="-8.475408">
        <ele>379.512</ele>
        <time>2022-08-24T07:47:16Z</time>
      </trkpt>
      <trkpt lat="42.892064" lon="-8.475470">
        <ele>379.582</ele>
        <time>2022-08-24T07:47:19Z</time>
      </trkpt>
      <trkpt lat="42.892067" lon="-8.475546">
        <ele>379.532</ele>
        <time>2022-08-24T07:47:23Z</time>
      </trkpt>
      <trkpt lat="42.892069" lon="-8.475607">
        <ele>379.527</ele>
        <time>2022-08-24T07:47:26Z</time>
      </trkpt>
      <trkpt lat="42.892077" lon="-8.475685">
        <ele>379.495</ele>
        <time>2022-08-24T07:47:30Z</time>
      </trkpt>
      <trkpt lat="42.892085" lon="-8.475756">
        <ele>379.345</ele>
        <time>2022-08-24T07:47:34Z</time>
      </trkpt>
      <trkpt lat="42.892086" lon="-8.475826">
        <ele>379.259</ele>
        <time>2022-08-24T07:47:38Z</time>
      </trkpt>
      <trkpt lat="42.892095" lon="-8.475888">
        <ele>379.124</ele>
        <time>2022-08-24T07:47:42Z</time>
      </trkpt>
      <trkpt lat="42.892108" lon="-8.475954">
        <ele>379.198</ele>
        <time>2022-08-24T07:47:45Z</time>
      </trkpt>
      <trkpt lat="42.892139" lon="-8.476029">
        <ele>379.159</ele>
        <time>2022-08-24T07:47:50Z</time>
      </trkpt>
      <trkpt lat="42.892150" lon="-8.476095">
        <ele>379.103</ele>
        <time>2022-08-24T07:47:55Z</time>
      </trkpt>
      <trkpt lat="42.892170" lon="-8.476162">
        <ele>379.123</ele>
        <time>2022-08-24T07:47:59Z</time>
      </trkpt>
      <trkpt lat="42.892184" lon="-8.476227">
        <ele>379.009</ele>
        <time>2022-08-24T07:48:03Z</time>
      </trkpt>
      <trkpt lat="42.892211" lon="-8.476279">
        <ele>379.076</ele>
        <time>2022-08-24T07:48:08Z</time>
      </trkpt>
      <trkpt lat="42.892233" lon="-8.476341">
        <ele>379.016</ele>
        <time>2022-08-24T07:48:12Z</time>
      </trkpt>
      <trkpt lat="42.892248" lon="-8.476407">
        <ele>379.046</ele>
        <time>2022-08-24T07:48:16Z</time>
      </trkpt>
      <trkpt lat="42.892239" lon="-8.476478">
        <ele>379.021</ele>
        <time>2022-08-24T07:48:20Z</time>
      </trkpt>
      <trkpt lat="42.892191" lon="-8.476521">
        <ele>379.049</ele>
        <time>2022-08-24T07:48:25Z</time>
      </trkpt>
      <trkpt lat="42.892140" lon="-8.476530">
        <ele>379.049</ele>
        <time>2022-08-24T07:48:31Z</time>
      </trkpt>
      <trkpt lat="42.892089" lon="-8.476535">
        <ele>379.043</ele>
        <time>2022-08-24T07:48:35Z</time>
      </trkpt>
      <trkpt lat="42.892042" lon="-8.476529">
        <ele>379.078</ele>
        <time>2022-08-24T07:48:38Z</time>
      </trkpt>
      <trkpt lat="42.891997" lon="-8.476508">
        <ele>379.072</ele>
        <time>2022-08-24T07:48:42Z</time>
      </trkpt>
      <trkpt lat="42.891947" lon="-8.476489">
        <ele>379.079</ele>
        <time>2022-08-24T07:48:48Z</time>
      </trkpt>
      <trkpt lat="42.891894" lon="-8.476471">
        <ele>379.005</ele>
        <time>2022-08-24T07:48:53Z</time>
      </trkpt>
      <trkpt lat="42.891833" lon="-8.476461">
        <ele>379.025</ele>
        <time>2022-08-24T07:48:58Z</time>
      </trkpt>
      <trkpt lat="42.891776" lon="-8.476453">
        <ele>379.009</ele>
        <time>2022-08-24T07:49:03Z</time>
      </trkpt>
      <trkpt lat="42.891717" lon="-8.476445">
        <ele>379.058</ele>
        <time>2022-08-24T07:49:07Z</time>
      </trkpt>
      <trkpt lat="42.891667" lon="-8.476436">
        <ele>379.058</ele>
        <time>2022-08-24T07:49:10Z</time>
      </trkpt>
      <trkpt lat="42.891622" lon="-8.476428">
        <ele>379.028</ele>
        <time>2022-08-24T07:49:13Z</time>
      </trkpt>
      <trkpt lat="42.891577" lon="-8.476415">
        <ele>379.193</ele>
        <time>2022-08-24T07:49:16Z</time>
      </trkpt>
      <trkpt lat="42.891523" lon="-8.476392">
        <ele>379.261</ele>
        <time>2022-08-24T07:49:21Z</time>
      </trkpt>
      <trkpt lat="42.891475" lon="-8.476385">
        <ele>379.341</ele>
        <time>2022-08-24T07:49:24Z</time>
      </trkpt>
      <trkpt lat="42.891419" lon="-8.476368">
        <ele>379.435</ele>
        <time>2022-08-24T07:49:27Z</time>
      </trkpt>
      <trkpt lat="42.891367" lon="-8.476344">
        <ele>379.580</ele>
        <time>2022-08-24T07:49:30Z</time>
      </trkpt>
      <trkpt lat="42.891318" lon="-8.476348">
        <ele>379.654</ele>
        <time>2022-08-24T07:49:33Z</time>
      </trkpt>
      <trkpt lat="42.891261" lon="-8.476335">
        <ele>379.614</ele>
        <time>2022-08-24T07:49:37Z</time>
      </trkpt>
      <trkpt lat="42.891215" lon="-8.476334">
        <ele>379.654</ele>
        <time>2022-08-24T07:49:40Z</time>
      </trkpt>
      <trkpt lat="42.891161" lon="-8.476321">
        <ele>379.709</ele>
        <time>2022-08-24T07:49:44Z</time>
      </trkpt>
      <trkpt lat="42.891109" lon="-8.476313">
        <ele>379.809</ele>
        <time>2022-08-24T07:49:47Z</time>
      </trkpt>
      <trkpt lat="42.891064" lon="-8.476299">
        <ele>379.942</ele>
        <time>2022-08-24T07:49:50Z</time>
      </trkpt>
      <trkpt lat="42.891018" lon="-8.476287">
        <ele>380.012</ele>
        <time>2022-08-24T07:49:53Z</time>
      </trkpt>
      <trkpt lat="42.890964" lon="-8.476273">
        <ele>380.142</ele>
        <time>2022-08-24T07:49:57Z</time>
      </trkpt>
      <trkpt lat="42.890909" lon="-8.476256">
        <ele>380.277</ele>
        <time>2022-08-24T07:50:01Z</time>
      </trkpt>
      <trkpt lat="42.890852" lon="-8.476254">
        <ele>380.395</ele>
        <time>2022-08-24T07:50:05Z</time>
      </trkpt>
      <trkpt lat="42.890797" lon="-8.476249">
        <ele>380.425</ele>
        <time>2022-08-24T07:50:09Z</time>
      </trkpt>
      <trkpt lat="42.890747" lon="-8.476250">
        <ele>380.699</ele>
        <time>2022-08-24T07:50:13Z</time>
      </trkpt>
      <trkpt lat="42.890699" lon="-8.476241">
        <ele>380.614</ele>
        <time>2022-08-24T07:50:17Z</time>
      </trkpt>
      <trkpt lat="42.890649" lon="-8.476227">
        <ele>380.738</ele>
        <time>2022-08-24T07:50:21Z</time>
      </trkpt>
      <trkpt lat="42.890601" lon="-8.476220">
        <ele>380.859</ele>
        <time>2022-08-24T07:50:25Z</time>
      </trkpt>
      <trkpt lat="42.890561" lon="-8.476250">
        <ele>380.803</ele>
        <time>2022-08-24T07:50:29Z</time>
      </trkpt>
      <trkpt lat="42.890541" lon="-8.476305">
        <ele>380.823</ele>
        <time>2022-08-24T07:50:34Z</time>
      </trkpt>
      <trkpt lat="42.890523" lon="-8.476372">
        <ele>380.809</ele>
        <time>2022-08-24T07:50:38Z</time>
      </trkpt>
      <trkpt lat="42.890506" lon="-8.476445">
        <ele>380.686</ele>
        <time>2022-08-24T07:50:43Z</time>
      </trkpt>
      <trkpt lat="42.890503" lon="-8.476517">
        <ele>380.226</ele>
        <time>2022-08-24T07:50:47Z</time>
      </trkpt>
      <trkpt lat="42.890507" lon="-8.476591">
        <ele>379.836</ele>
        <time>2022-08-24T07:50:51Z</time>
      </trkpt>
      <trkpt lat="42.890510" lon="-8.476664">
        <ele>379.461</ele>
        <time>2022-08-24T07:50:55Z</time>
      </trkpt>
      <trkpt lat="42.890517" lon="-8.476738">
        <ele>378.859</ele>
        <time>2022-08-24T07:50:59Z</time>
      </trkpt>
      <trkpt lat="42.890519" lon="-8.476807">
        <ele>378.759</ele>
        <time>2022-08-24T07:51:03Z</time>
      </trkpt>
      <trkpt lat="42.890512" lon="-8.476888">
        <ele>378.363</ele>
        <time>2022-08-24T07:51:07Z</time>
      </trkpt>
      <trkpt lat="42.890514" lon="-8.476949">
        <ele>378.288</ele>
        <time>2022-08-24T07:51:11Z</time>
      </trkpt>
      <trkpt lat="42.890521" lon="-8.477012">
        <ele>378.062</ele>
        <time>2022-08-24T07:51:16Z</time>
      </trkpt>
      <trkpt lat="42.890511" lon="-8.477088">
        <ele>377.877</ele>
        <time>2022-08-24T07:51:20Z</time>
      </trkpt>
      <trkpt lat="42.890512" lon="-8.477169">
        <ele>377.661</ele>
        <time>2022-08-24T07:51:24Z</time>
      </trkpt>
      <trkpt lat="42.890521" lon="-8.477240">
        <ele>377.427</ele>
        <time>2022-08-24T07:51:28Z</time>
      </trkpt>
      <trkpt lat="42.890517" lon="-8.477309">
        <ele>377.209</ele>
        <time>2022-08-24T07:51:32Z</time>
      </trkpt>
      <trkpt lat="42.890523" lon="-8.477384">
        <ele>376.928</ele>
        <time>2022-08-24T07:51:36Z</time>
      </trkpt>
      <trkpt lat="42.890527" lon="-8.477446">
        <ele>376.868</ele>
        <time>2022-08-24T07:51:39Z</time>
      </trkpt>
      <trkpt lat="42.890528" lon="-8.477520">
        <ele>376.618</ele>
        <time>2022-08-24T07:51:43Z</time>
      </trkpt>
      <trkpt lat="42.890533" lon="-8.477591">
        <ele>376.493</ele>
        <time>2022-08-24T07:51:47Z</time>
      </trkpt>
      <trkpt lat="42.890533" lon="-8.477662">
        <ele>376.291</ele>
        <time>2022-08-24T07:51:51Z</time>
      </trkpt>
      <trkpt lat="42.890545" lon="-8.477731">
        <ele>376.021</ele>
        <time>2022-08-24T07:51:55Z</time>
      </trkpt>
      <trkpt lat="42.890532" lon="-8.477812">
        <ele>375.865</ele>
        <time>2022-08-24T07:51:59Z</time>
      </trkpt>
      <trkpt lat="42.890532" lon="-8.477885">
        <ele>375.630</ele>
        <time>2022-08-24T07:52:03Z</time>
      </trkpt>
      <trkpt lat="42.890531" lon="-8.477957">
        <ele>375.354</ele>
        <time>2022-08-24T07:52:07Z</time>
      </trkpt>
      <trkpt lat="42.890533" lon="-8.478028">
        <ele>375.166</ele>
        <time>2022-08-24T07:52:11Z</time>
      </trkpt>
      <trkpt lat="42.890530" lon="-8.478097">
        <ele>374.929</ele>
        <time>2022-08-24T07:52:15Z</time>
      </trkpt>
      <trkpt lat="42.890541" lon="-8.478162">
        <ele>374.821</ele>
        <time>2022-08-24T07:52:18Z</time>
      </trkpt>
      <trkpt lat="42.890547" lon="-8.478235">
        <ele>374.609</ele>
        <time>2022-08-24T07:52:22Z</time>
      </trkpt>
      <trkpt lat="42.890548" lon="-8.478314">
        <ele>374.447</ele>
        <time>2022-08-24T07:52:26Z</time>
      </trkpt>
      <trkpt lat="42.890544" lon="-8.478384">
        <ele>374.217</ele>
        <time>2022-08-24T07:52:30Z</time>
      </trkpt>
      <trkpt lat="42.890543" lon="-8.478464">
        <ele>373.817</ele>
        <time>2022-08-24T07:52:34Z</time>
      </trkpt>
      <trkpt lat="42.890544" lon="-8.478543">
        <ele>373.682</ele>
        <time>2022-08-24T07:52:38Z</time>
      </trkpt>
      <trkpt lat="42.890547" lon="-8.478615">
        <ele>373.420</ele>
        <time>2022-08-24T07:52:42Z</time>
      </trkpt>
      <trkpt lat="42.890552" lon="-8.478690">
        <ele>373.280</ele>
        <time>2022-08-24T07:52:46Z</time>
      </trkpt>
      <trkpt lat="42.890556" lon="-8.478759">
        <ele>373.054</ele>
        <time>2022-08-24T07:52:50Z</time>
      </trkpt>
      <trkpt lat="42.890556" lon="-8.478828">
        <ele>372.939</ele>
        <time>2022-08-24T07:52:54Z</time>
      </trkpt>
      <trkpt lat="42.890556" lon="-8.478898">
        <ele>372.883</ele>
        <time>2022-08-24T07:52:57Z</time>
      </trkpt>
      <trkpt lat="42.890557" lon="-8.478977">
        <ele>372.764</ele>
        <time>2022-08-24T07:53:01Z</time>
      </trkpt>
      <trkpt lat="42.890555" lon="-8.479041">
        <ele>372.606</ele>
        <time>2022-08-24T07:53:05Z</time>
      </trkpt>
      <trkpt lat="42.890552" lon="-8.479105">
        <ele>372.516</ele>
        <time>2022-08-24T07:53:08Z</time>
      </trkpt>
      <trkpt lat="42.890565" lon="-8.479182">
        <ele>372.409</ele>
        <time>2022-08-24T07:53:12Z</time>
      </trkpt>
      <trkpt lat="42.890566" lon="-8.479250">
        <ele>372.387</ele>
        <time>2022-08-24T07:53:15Z</time>
      </trkpt>
      <trkpt lat="42.890571" lon="-8.479330">
        <ele>372.327</ele>
        <time>2022-08-24T07:53:19Z</time>
      </trkpt>
      <trkpt lat="42.890569" lon="-8.479406">
        <ele>372.347</ele>
        <time>2022-08-24T07:53:23Z</time>
      </trkpt>
      <trkpt lat="42.890570" lon="-8.479481">
        <ele>372.312</ele>
        <time>2022-08-24T07:53:27Z</time>
      </trkpt>
      <trkpt lat="42.890572" lon="-8.479543">
        <ele>372.390</ele>
        <time>2022-08-24T07:53:30Z</time>
      </trkpt>
      <trkpt lat="42.890577" lon="-8.479612">
        <ele>372.390</ele>
        <time>2022-08-24T07:53:34Z</time>
      </trkpt>
      <trkpt lat="42.890580" lon="-8.479685">
        <ele>372.394</ele>
        <time>2022-08-24T07:53:38Z</time>
      </trkpt>
      <trkpt lat="42.890580" lon="-8.479757">
        <ele>372.499</ele>
        <time>2022-08-24T07:53:42Z</time>
      </trkpt>
      <trkpt lat="42.890579" lon="-8.479826">
        <ele>372.613</ele>
        <time>2022-08-24T07:53:46Z</time>
      </trkpt>
      <trkpt lat="42.890574" lon="-8.479901">
        <ele>372.815</ele>
        <time>2022-08-24T07:53:50Z</time>
      </trkpt>
      <trkpt lat="42.890582" lon="-8.479972">
        <ele>373.165</ele>
        <time>2022-08-24T07:53:54Z</time>
      </trkpt>
      <trkpt lat="42.890581" lon="-8.480040">
        <ele>373.411</ele>
        <time>2022-08-24T07:53:58Z</time>
      </trkpt>
      <trkpt lat="42.890587" lon="-8.480107">
        <ele>373.709</ele>
        <time>2022-08-24T07:54:02Z</time>
      </trkpt>
      <trkpt lat="42.890582" lon="-8.480175">
        <ele>374.082</ele>
        <time>2022-08-24T07:54:06Z</time>
      </trkpt>
      <trkpt lat="42.890580" lon="-8.480246">
        <ele>374.472</ele>
        <time>2022-08-24T07:54:10Z</time>
      </trkpt>
      <trkpt lat="42.890587" lon="-8.480316">
        <ele>374.862</ele>
        <time>2022-08-24T07:54:14Z</time>
      </trkpt>
      <trkpt lat="42.890584" lon="-8.480385">
        <ele>375.297</ele>
        <time>2022-08-24T07:54:18Z</time>
      </trkpt>
      <trkpt lat="42.890590" lon="-8.480456">
        <ele>375.615</ele>
        <time>2022-08-24T07:54:22Z</time>
      </trkpt>
      <trkpt lat="42.890599" lon="-8.480529">
        <ele>376.075</ele>
        <time>2022-08-24T07:54:26Z</time>
      </trkpt>
      <trkpt lat="42.890603" lon="-8.480597">
        <ele>376.459</ele>
        <time>2022-08-24T07:54:30Z</time>
      </trkpt>
      <trkpt lat="42.890608" lon="-8.480666">
        <ele>376.854</ele>
        <time>2022-08-24T07:54:34Z</time>
      </trkpt>
      <trkpt lat="42.890606" lon="-8.480728">
        <ele>377.278</ele>
        <time>2022-08-24T07:54:38Z</time>
      </trkpt>
      <trkpt lat="42.890603" lon="-8.480799">
        <ele>377.685</ele>
        <time>2022-08-24T07:54:42Z</time>
      </trkpt>
      <trkpt lat="42.890601" lon="-8.480869">
        <ele>377.989</ele>
        <time>2022-08-24T07:54:46Z</time>
      </trkpt>
      <trkpt lat="42.890599" lon="-8.480950">
        <ele>378.217</ele>
        <time>2022-08-24T07:54:50Z</time>
      </trkpt>
      <trkpt lat="42.890606" lon="-8.481011">
        <ele>378.509</ele>
        <time>2022-08-24T07:54:54Z</time>
      </trkpt>
      <trkpt lat="42.890605" lon="-8.481088">
        <ele>378.789</ele>
        <time>2022-08-24T07:54:58Z</time>
      </trkpt>
      <trkpt lat="42.890609" lon="-8.481159">
        <ele>379.099</ele>
        <time>2022-08-24T07:55:02Z</time>
      </trkpt>
      <trkpt lat="42.890611" lon="-8.481228">
        <ele>379.359</ele>
        <time>2022-08-24T07:55:06Z</time>
      </trkpt>
      <trkpt lat="42.890614" lon="-8.481290">
        <ele>379.594</ele>
        <time>2022-08-24T07:55:10Z</time>
      </trkpt>
      <trkpt lat="42.890614" lon="-8.481363">
        <ele>379.732</ele>
        <time>2022-08-24T07:55:14Z</time>
      </trkpt>
      <trkpt lat="42.890619" lon="-8.481439">
        <ele>379.952</ele>
        <time>2022-08-24T07:55:18Z</time>
      </trkpt>
      <trkpt lat="42.890614" lon="-8.481514">
        <ele>380.116</ele>
        <time>2022-08-24T07:55:22Z</time>
      </trkpt>
      <trkpt lat="42.890615" lon="-8.481585">
        <ele>380.331</ele>
        <time>2022-08-24T07:55:26Z</time>
      </trkpt>
      <trkpt lat="42.890616" lon="-8.481655">
        <ele>380.565</ele>
        <time>2022-08-24T07:55:30Z</time>
      </trkpt>
      <trkpt lat="42.890621" lon="-8.481728">
        <ele>380.891</ele>
        <time>2022-08-24T07:55:34Z</time>
      </trkpt>
      <trkpt lat="42.890627" lon="-8.481800">
        <ele>381.181</ele>
        <time>2022-08-24T07:55:38Z</time>
      </trkpt>
      <trkpt lat="42.890627" lon="-8.481867">
        <ele>381.519</ele>
        <time>2022-08-24T07:55:42Z</time>
      </trkpt>
      <trkpt lat="42.890632" lon="-8.481940">
        <ele>381.809</ele>
        <time>2022-08-24T07:55:46Z</time>
      </trkpt>
      <trkpt lat="42.890636" lon="-8.482014">
        <ele>381.910</ele>
        <time>2022-08-24T07:55:50Z</time>
      </trkpt>
      <trkpt lat="42.890633" lon="-8.482087">
        <ele>382.090</ele>
        <time>2022-08-24T07:55:54Z</time>
      </trkpt>
      <trkpt lat="42.890638" lon="-8.482161">
        <ele>382.130</ele>
        <time>2022-08-24T07:55:58Z</time>
      </trkpt>
      <trkpt lat="42.890641" lon="-8.482236">
        <ele>382.225</ele>
        <time>2022-08-24T07:56:02Z</time>
      </trkpt>
      <trkpt lat="42.890642" lon="-8.482308">
        <ele>382.293</ele>
        <time>2022-08-24T07:56:06Z</time>
      </trkpt>
      <trkpt lat="42.890643" lon="-8.482379">
        <ele>382.273</ele>
        <time>2022-08-24T07:56:10Z</time>
      </trkpt>
      <trkpt lat="42.890653" lon="-8.482441">
        <ele>382.247</ele>
        <time>2022-08-24T07:56:14Z</time>
      </trkpt>
      <trkpt lat="42.890647" lon="-8.482514">
        <ele>382.242</ele>
        <time>2022-08-24T07:56:18Z</time>
      </trkpt>
      <trkpt lat="42.890651" lon="-8.482585">
        <ele>382.196</ele>
        <time>2022-08-24T07:56:22Z</time>
      </trkpt>
      <trkpt lat="42.890656" lon="-8.482651">
        <ele>381.985</ele>
        <time>2022-08-24T07:56:26Z</time>
      </trkpt>
      <trkpt lat="42.890659" lon="-8.482722">
        <ele>381.589</ele>
        <time>2022-08-24T07:56:31Z</time>
      </trkpt>
      <trkpt lat="42.890664" lon="-8.482791">
        <ele>381.117</ele>
        <time>2022-08-24T07:56:35Z</time>
      </trkpt>
      <trkpt lat="42.890671" lon="-8.482859">
        <ele>380.809</ele>
        <time>2022-08-24T07:56:39Z</time>
      </trkpt>
      <trkpt lat="42.890675" lon="-8.482932">
        <ele>380.559</ele>
        <time>2022-08-24T07:56:43Z</time>
      </trkpt>
      <trkpt lat="42.890676" lon="-8.483002">
        <ele>380.399</ele>
        <time>2022-08-24T07:56:47Z</time>
      </trkpt>
      <trkpt lat="42.890672" lon="-8.483071">
        <ele>380.249</ele>
        <time>2022-08-24T07:56:51Z</time>
      </trkpt>
      <trkpt lat="42.890667" lon="-8.483146">
        <ele>380.154</ele>
        <time>2022-08-24T07:56:55Z</time>
      </trkpt>
      <trkpt lat="42.890669" lon="-8.483211">
        <ele>380.182</ele>
        <time>2022-08-24T07:56:59Z</time>
      </trkpt>
      <trkpt lat="42.890680" lon="-8.483279">
        <ele>380.112</ele>
        <time>2022-08-24T07:57:03Z</time>
      </trkpt>
      <trkpt lat="42.890684" lon="-8.483356">
        <ele>380.136</ele>
        <time>2022-08-24T07:57:07Z</time>
      </trkpt>
      <trkpt lat="42.890692" lon="-8.483431">
        <ele>380.171</ele>
        <time>2022-08-24T07:57:11Z</time>
      </trkpt>
      <trkpt lat="42.890693" lon="-8.483508">
        <ele>380.165</ele>
        <time>2022-08-24T07:57:15Z</time>
      </trkpt>
      <trkpt lat="42.890695" lon="-8.483575">
        <ele>380.176</ele>
        <time>2022-08-24T07:57:19Z</time>
      </trkpt>
      <trkpt lat="42.890697" lon="-8.483644">
        <ele>380.190</ele>
        <time>2022-08-24T07:57:24Z</time>
      </trkpt>
      <trkpt lat="42.890700" lon="-8.483706">
        <ele>380.119</ele>
        <time>2022-08-24T07:57:28Z</time>
      </trkpt>
      <trkpt lat="42.890696" lon="-8.483773">
        <ele>380.109</ele>
        <time>2022-08-24T07:57:32Z</time>
      </trkpt>
      <trkpt lat="42.890693" lon="-8.483847">
        <ele>380.038</ele>
        <time>2022-08-24T07:57:36Z</time>
      </trkpt>
      <trkpt lat="42.890691" lon="-8.483916">
        <ele>379.988</ele>
        <time>2022-08-24T07:57:40Z</time>
      </trkpt>
      <trkpt lat="42.890696" lon="-8.483993">
        <ele>379.758</ele>
        <time>2022-08-24T07:57:44Z</time>
      </trkpt>
      <trkpt lat="42.890700" lon="-8.484055">
        <ele>379.433</ele>
        <time>2022-08-24T07:57:48Z</time>
      </trkpt>
      <trkpt lat="42.890715" lon="-8.484129">
        <ele>379.151</ele>
        <time>2022-08-24T07:57:52Z</time>
      </trkpt>
      <trkpt lat="42.890715" lon="-8.484209">
        <ele>378.761</ele>
        <time>2022-08-24T07:57:56Z</time>
      </trkpt>
      <trkpt lat="42.890716" lon="-8.484287">
        <ele>378.065</ele>
        <time>2022-08-24T07:58:00Z</time>
      </trkpt>
      <trkpt lat="42.890715" lon="-8.484365">
        <ele>377.530</ele>
        <time>2022-08-24T07:58:04Z</time>
      </trkpt>
      <trkpt lat="42.890718" lon="-8.484438">
        <ele>376.944</ele>
        <time>2022-08-24T07:58:08Z</time>
      </trkpt>
      <trkpt lat="42.890712" lon="-8.484518">
        <ele>376.499</ele>
        <time>2022-08-24T07:58:12Z</time>
      </trkpt>
      <trkpt lat="42.890714" lon="-8.484593">
        <ele>375.807</ele>
        <time>2022-08-24T07:58:16Z</time>
      </trkpt>
      <trkpt lat="42.890705" lon="-8.484673">
        <ele>375.427</ele>
        <time>2022-08-24T07:58:20Z</time>
      </trkpt>
      <trkpt lat="42.890705" lon="-8.484735">
        <ele>375.109</ele>
        <time>2022-08-24T07:58:23Z</time>
      </trkpt>
      <trkpt lat="42.890706" lon="-8.484812">
        <ele>374.930</ele>
        <time>2022-08-24T07:58:27Z</time>
      </trkpt>
      <trkpt lat="42.890714" lon="-8.484892">
        <ele>374.790</ele>
        <time>2022-08-24T07:58:31Z</time>
      </trkpt>
      <trkpt lat="42.890718" lon="-8.484968">
        <ele>374.390</ele>
        <time>2022-08-24T07:58:35Z</time>
      </trkpt>
      <trkpt lat="42.890725" lon="-8.485042">
        <ele>374.115</ele>
        <time>2022-08-24T07:58:39Z</time>
      </trkpt>
      <trkpt lat="42.890731" lon="-8.485119">
        <ele>373.953</ele>
        <time>2022-08-24T07:58:43Z</time>
      </trkpt>
      <trkpt lat="42.890735" lon="-8.485192">
        <ele>373.793</ele>
        <time>2022-08-24T07:58:47Z</time>
      </trkpt>
      <trkpt lat="42.890734" lon="-8.485254">
        <ele>373.627</ele>
        <time>2022-08-24T07:58:51Z</time>
      </trkpt>
      <trkpt lat="42.890742" lon="-8.485322">
        <ele>373.452</ele>
        <time>2022-08-24T07:58:55Z</time>
      </trkpt>
      <trkpt lat="42.890740" lon="-8.485390">
        <ele>373.236</ele>
        <time>2022-08-24T07:58:59Z</time>
      </trkpt>
      <trkpt lat="42.890733" lon="-8.485451">
        <ele>373.139</ele>
        <time>2022-08-24T07:59:02Z</time>
      </trkpt>
      <trkpt lat="42.890730" lon="-8.485518">
        <ele>372.901</ele>
        <time>2022-08-24T07:59:06Z</time>
      </trkpt>
      <trkpt lat="42.890729" lon="-8.485586">
        <ele>372.721</ele>
        <time>2022-08-24T07:59:10Z</time>
      </trkpt>
      <trkpt lat="42.890730" lon="-8.485662">
        <ele>372.509</ele>
        <time>2022-08-24T07:59:14Z</time>
      </trkpt>
      <trkpt lat="42.890736" lon="-8.485734">
        <ele>372.124</ele>
        <time>2022-08-24T07:59:18Z</time>
      </trkpt>
      <trkpt lat="42.890737" lon="-8.485806">
        <ele>371.884</ele>
        <time>2022-08-24T07:59:22Z</time>
      </trkpt>
      <trkpt lat="42.890719" lon="-8.485865">
        <ele>371.594</ele>
        <time>2022-08-24T07:59:25Z</time>
      </trkpt>
      <trkpt lat="42.890677" lon="-8.485919">
        <ele>371.289</ele>
        <time>2022-08-24T07:59:30Z</time>
      </trkpt>
      <trkpt lat="42.890628" lon="-8.485949">
        <ele>370.867</ele>
        <time>2022-08-24T07:59:34Z</time>
      </trkpt>
      <trkpt lat="42.890597" lon="-8.486001">
        <ele>370.487</ele>
        <time>2022-08-24T07:59:38Z</time>
      </trkpt>
      <trkpt lat="42.890586" lon="-8.486061">
        <ele>370.121</ele>
        <time>2022-08-24T07:59:41Z</time>
      </trkpt>
      <trkpt lat="42.890584" lon="-8.486136">
        <ele>369.916</ele>
        <time>2022-08-24T07:59:45Z</time>
      </trkpt>
      <trkpt lat="42.890589" lon="-8.486202">
        <ele>369.780</ele>
        <time>2022-08-24T07:59:49Z</time>
      </trkpt>
      <trkpt lat="42.890590" lon="-8.486267">
        <ele>369.472</ele>
        <time>2022-08-24T07:59:53Z</time>
      </trkpt>
      <trkpt lat="42.890603" lon="-8.486328">
        <ele>368.913</ele>
        <time>2022-08-24T07:59:57Z</time>
      </trkpt>
      <trkpt lat="42.890603" lon="-8.486406">
        <ele>368.414</ele>
        <time>2022-08-24T08:00:01Z</time>
      </trkpt>
      <trkpt lat="42.890611" lon="-8.486481">
        <ele>367.909</ele>
        <time>2022-08-24T08:00:06Z</time>
      </trkpt>
      <trkpt lat="42.890629" lon="-8.486549">
        <ele>367.368</ele>
        <time>2022-08-24T08:00:11Z</time>
      </trkpt>
      <trkpt lat="42.890647" lon="-8.486619">
        <ele>366.628</ele>
        <time>2022-08-24T08:00:15Z</time>
      </trkpt>
      <trkpt lat="42.890657" lon="-8.486685">
        <ele>365.258</ele>
        <time>2022-08-24T08:00:18Z</time>
      </trkpt>
      <trkpt lat="42.890669" lon="-8.486761">
        <ele>364.533</ele>
        <time>2022-08-24T08:00:22Z</time>
      </trkpt>
      <trkpt lat="42.890693" lon="-8.486825">
        <ele>364.391</ele>
        <time>2022-08-24T08:00:26Z</time>
      </trkpt>
      <trkpt lat="42.890709" lon="-8.486906">
        <ele>363.581</ele>
        <time>2022-08-24T08:00:30Z</time>
      </trkpt>
      <trkpt lat="42.890717" lon="-8.486967">
        <ele>363.385</ele>
        <time>2022-08-24T08:00:33Z</time>
      </trkpt>
      <trkpt lat="42.890723" lon="-8.487031">
        <ele>362.820</ele>
        <time>2022-08-24T08:00:36Z</time>
      </trkpt>
      <trkpt lat="42.890732" lon="-8.487097">
        <ele>362.364</ele>
        <time>2022-08-24T08:00:39Z</time>
      </trkpt>
      <trkpt lat="42.890748" lon="-8.487167">
        <ele>361.853</ele>
        <time>2022-08-24T08:00:42Z</time>
      </trkpt>
      <trkpt lat="42.890750" lon="-8.487234">
        <ele>361.404</ele>
        <time>2022-08-24T08:00:45Z</time>
      </trkpt>
      <trkpt lat="42.890770" lon="-8.487305">
        <ele>361.114</ele>
        <time>2022-08-24T08:00:49Z</time>
      </trkpt>
      <trkpt lat="42.890809" lon="-8.487359">
        <ele>360.709</ele>
        <time>2022-08-24T08:00:53Z</time>
      </trkpt>
      <trkpt lat="42.890858" lon="-8.487388">
        <ele>360.336</ele>
        <time>2022-08-24T08:00:57Z</time>
      </trkpt>
      <trkpt lat="42.890903" lon="-8.487405">
        <ele>360.086</ele>
        <time>2022-08-24T08:01:01Z</time>
      </trkpt>
      <trkpt lat="42.890955" lon="-8.487424">
        <ele>359.966</ele>
        <time>2022-08-24T08:01:05Z</time>
      </trkpt>
      <trkpt lat="42.891010" lon="-8.487434">
        <ele>359.841</ele>
        <time>2022-08-24T08:01:10Z</time>
      </trkpt>
      <trkpt lat="42.891062" lon="-8.487454">
        <ele>359.769</ele>
        <time>2022-08-24T08:01:14Z</time>
      </trkpt>
      <trkpt lat="42.891121" lon="-8.487455">
        <ele>359.619</ele>
        <time>2022-08-24T08:01:18Z</time>
      </trkpt>
      <trkpt lat="42.891173" lon="-8.487466">
        <ele>359.573</ele>
        <time>2022-08-24T08:01:22Z</time>
      </trkpt>
      <trkpt lat="42.891219" lon="-8.487492">
        <ele>359.438</ele>
        <time>2022-08-24T08:01:26Z</time>
      </trkpt>
      <trkpt lat="42.891262" lon="-8.487510">
        <ele>359.432</ele>
        <time>2022-08-24T08:01:29Z</time>
      </trkpt>
      <trkpt lat="42.891317" lon="-8.487531">
        <ele>359.373</ele>
        <time>2022-08-24T08:01:33Z</time>
      </trkpt>
      <trkpt lat="42.891365" lon="-8.487571">
        <ele>359.285</ele>
        <time>2022-08-24T08:01:37Z</time>
      </trkpt>
      <trkpt lat="42.891411" lon="-8.487604">
        <ele>359.113</ele>
        <time>2022-08-24T08:01:41Z</time>
      </trkpt>
      <trkpt lat="42.891446" lon="-8.487645">
        <ele>358.909</ele>
        <time>2022-08-24T08:01:44Z</time>
      </trkpt>
      <trkpt lat="42.891458" lon="-8.487711">
        <ele>358.828</ele>
        <time>2022-08-24T08:01:48Z</time>
      </trkpt>
      <trkpt lat="42.891473" lon="-8.487784">
        <ele>358.728</ele>
        <time>2022-08-24T08:01:52Z</time>
      </trkpt>
      <trkpt lat="42.891478" lon="-8.487862">
        <ele>358.668</ele>
        <time>2022-08-24T08:01:56Z</time>
      </trkpt>
      <trkpt lat="42.891468" lon="-8.487923">
        <ele>358.613</ele>
        <time>2022-08-24T08:02:00Z</time>
      </trkpt>
      <trkpt lat="42.891440" lon="-8.487983">
        <ele>358.621</ele>
        <time>2022-08-24T08:02:05Z</time>
      </trkpt>
      <trkpt lat="42.891385" lon="-8.488003">
        <ele>358.691</ele>
        <time>2022-08-24T08:02:10Z</time>
      </trkpt>
      <trkpt lat="42.891351" lon="-8.488055">
        <ele>358.675</ele>
        <time>2022-08-24T08:02:16Z</time>
      </trkpt>
      <trkpt lat="42.891322" lon="-8.488103">
        <ele>358.790</ele>
        <time>2022-08-24T08:02:22Z</time>
      </trkpt>
      <trkpt lat="42.891290" lon="-8.488158">
        <ele>358.944</ele>
        <time>2022-08-24T08:02:32Z</time>
      </trkpt>
      <trkpt lat="42.891178" lon="-8.488169">
        <ele>359.231</ele>
        <time>2022-08-24T08:02:56Z</time>
      </trkpt>
      <trkpt lat="42.891215" lon="-8.488211">
        <ele>359.261</ele>
        <time>2022-08-24T08:03:27Z</time>
      </trkpt>
      <trkpt lat="42.891259" lon="-8.488280">
        <ele>359.207</ele>
        <time>2022-08-24T08:03:54Z</time>
      </trkpt>
      <trkpt lat="42.891196" lon="-8.488219">
        <ele>359.209</ele>
        <time>2022-08-24T08:04:01Z</time>
      </trkpt>
      <trkpt lat="42.891147" lon="-8.488246">
        <ele>359.274</ele>
        <time>2022-08-24T08:10:06Z</time>
      </trkpt>
      <trkpt lat="42.891069" lon="-8.488319">
        <ele>358.824</ele>
        <time>2022-08-24T08:13:00Z</time>
      </trkpt>
      <trkpt lat="42.891169" lon="-8.488224">
        <ele>358.424</ele>
        <time>2022-08-24T08:13:44Z</time>
      </trkpt>
      <trkpt lat="42.891211" lon="-8.488252">
        <ele>358.359</ele>
        <time>2022-08-24T08:13:49Z</time>
      </trkpt>
      <trkpt lat="42.891247" lon="-8.488184">
        <ele>358.387</ele>
        <time>2022-08-24T08:13:56Z</time>
      </trkpt>
      <trkpt lat="42.891205" lon="-8.488129">
        <ele>358.317</ele>
        <time>2022-08-24T08:13:58Z</time>
      </trkpt>
      <trkpt lat="42.891281" lon="-8.488126">
        <ele>358.321</ele>
        <time>2022-08-24T08:14:05Z</time>
      </trkpt>
      <trkpt lat="42.891328" lon="-8.488108">
        <ele>358.366</ele>
        <time>2022-08-24T08:14:09Z</time>
      </trkpt>
      <trkpt lat="42.891373" lon="-8.488147">
        <ele>358.360</ele>
        <time>2022-08-24T08:14:13Z</time>
      </trkpt>
      <trkpt lat="42.891390" lon="-8.488205">
        <ele>358.122</ele>
        <time>2022-08-24T08:14:18Z</time>
      </trkpt>
      <trkpt lat="42.891388" lon="-8.488275">
        <ele>357.962</ele>
        <time>2022-08-24T08:14:24Z</time>
      </trkpt>
      <trkpt lat="42.891383" lon="-8.488340">
        <ele>357.808</ele>
        <time>2022-08-24T08:14:28Z</time>
      </trkpt>
      <trkpt lat="42.891375" lon="-8.488405">
        <ele>357.709</ele>
        <time>2022-08-24T08:14:33Z</time>
      </trkpt>
      <trkpt lat="42.891370" lon="-8.488480">
        <ele>357.743</ele>
        <time>2022-08-24T08:14:38Z</time>
      </trkpt>
      <trkpt lat="42.891350" lon="-8.488537">
        <ele>357.763</ele>
        <time>2022-08-24T08:14:42Z</time>
      </trkpt>
      <trkpt lat="42.891345" lon="-8.488601">
        <ele>357.783</ele>
        <time>2022-08-24T08:14:46Z</time>
      </trkpt>
      <trkpt lat="42.891333" lon="-8.488677">
        <ele>357.728</ele>
        <time>2022-08-24T08:14:50Z</time>
      </trkpt>
      <trkpt lat="42.891319" lon="-8.488738">
        <ele>357.756</ele>
        <time>2022-08-24T08:14:54Z</time>
      </trkpt>
      <trkpt lat="42.891318" lon="-8.488807">
        <ele>357.786</ele>
        <time>2022-08-24T08:14:58Z</time>
      </trkpt>
      <trkpt lat="42.891309" lon="-8.488874">
        <ele>357.790</ele>
        <time>2022-08-24T08:15:02Z</time>
      </trkpt>
      <trkpt lat="42.891297" lon="-8.488940">
        <ele>357.775</ele>
        <time>2022-08-24T08:15:06Z</time>
      </trkpt>
      <trkpt lat="42.891281" lon="-8.489005">
        <ele>357.729</ele>
        <time>2022-08-24T08:15:10Z</time>
      </trkpt>
      <trkpt lat="42.891269" lon="-8.489079">
        <ele>357.771</ele>
        <time>2022-08-24T08:15:14Z</time>
      </trkpt>
      <trkpt lat="42.891236" lon="-8.489134">
        <ele>357.741</ele>
        <time>2022-08-24T08:15:18Z</time>
      </trkpt>
      <trkpt lat="42.891219" lon="-8.489207">
        <ele>357.715</ele>
        <time>2022-08-24T08:15:22Z</time>
      </trkpt>
      <trkpt lat="42.891204" lon="-8.489273">
        <ele>357.709</ele>
        <time>2022-08-24T08:15:26Z</time>
      </trkpt>
      <trkpt lat="42.891186" lon="-8.489331">
        <ele>357.768</ele>
        <time>2022-08-24T08:15:30Z</time>
      </trkpt>
      <trkpt lat="42.891162" lon="-8.489402">
        <ele>357.758</ele>
        <time>2022-08-24T08:15:34Z</time>
      </trkpt>
      <trkpt lat="42.891144" lon="-8.489467">
        <ele>357.888</ele>
        <time>2022-08-24T08:15:38Z</time>
      </trkpt>
      <trkpt lat="42.891132" lon="-8.489527">
        <ele>357.963</ele>
        <time>2022-08-24T08:15:42Z</time>
      </trkpt>
      <trkpt lat="42.891107" lon="-8.489600">
        <ele>358.181</ele>
        <time>2022-08-24T08:15:46Z</time>
      </trkpt>
      <trkpt lat="42.891086" lon="-8.489665">
        <ele>358.221</ele>
        <time>2022-08-24T08:15:50Z</time>
      </trkpt>
      <trkpt lat="42.891058" lon="-8.489732">
        <ele>358.245</ele>
        <time>2022-08-24T08:15:54Z</time>
      </trkpt>
      <trkpt lat="42.891046" lon="-8.489808">
        <ele>358.320</ele>
        <time>2022-08-24T08:15:59Z</time>
      </trkpt>
      <trkpt lat="42.891026" lon="-8.489866">
        <ele>358.464</ele>
        <time>2022-08-24T08:16:03Z</time>
      </trkpt>
      <trkpt lat="42.891017" lon="-8.489932">
        <ele>358.559</ele>
        <time>2022-08-24T08:16:07Z</time>
      </trkpt>
      <trkpt lat="42.891022" lon="-8.490000">
        <ele>358.703</ele>
        <time>2022-08-24T08:16:11Z</time>
      </trkpt>
      <trkpt lat="42.890996" lon="-8.490062">
        <ele>358.923</ele>
        <time>2022-08-24T08:16:15Z</time>
      </trkpt>
      <trkpt lat="42.890998" lon="-8.490124">
        <ele>359.009</ele>
        <time>2022-08-24T08:16:21Z</time>
      </trkpt>
      <trkpt lat="42.890993" lon="-8.490201">
        <ele>359.216</ele>
        <time>2022-08-24T08:16:25Z</time>
      </trkpt>
      <trkpt lat="42.890989" lon="-8.490268">
        <ele>359.626</ele>
        <time>2022-08-24T08:16:29Z</time>
      </trkpt>
      <trkpt lat="42.890968" lon="-8.490326">
        <ele>359.936</ele>
        <time>2022-08-24T08:16:33Z</time>
      </trkpt>
      <trkpt lat="42.890951" lon="-8.490385">
        <ele>360.171</ele>
        <time>2022-08-24T08:16:36Z</time>
      </trkpt>
      <trkpt lat="42.890930" lon="-8.490458">
        <ele>360.419</ele>
        <time>2022-08-24T08:16:40Z</time>
      </trkpt>
      <trkpt lat="42.890910" lon="-8.490520">
        <ele>360.679</ele>
        <time>2022-08-24T08:16:44Z</time>
      </trkpt>
      <trkpt lat="42.890887" lon="-8.490579">
        <ele>360.773</ele>
        <time>2022-08-24T08:16:48Z</time>
      </trkpt>
      <trkpt lat="42.890872" lon="-8.490653">
        <ele>360.918</ele>
        <time>2022-08-24T08:16:52Z</time>
      </trkpt>
      <trkpt lat="42.890883" lon="-8.490722">
        <ele>361.232</ele>
        <time>2022-08-24T08:16:56Z</time>
      </trkpt>
      <trkpt lat="42.890875" lon="-8.490788">
        <ele>361.628</ele>
        <time>2022-08-24T08:17:00Z</time>
      </trkpt>
      <trkpt lat="42.890863" lon="-8.490853">
        <ele>362.189</ele>
        <time>2022-08-24T08:17:04Z</time>
      </trkpt>
      <trkpt lat="42.890848" lon="-8.490915">
        <ele>362.517</ele>
        <time>2022-08-24T08:17:08Z</time>
      </trkpt>
      <trkpt lat="42.890833" lon="-8.490983">
        <ele>362.909</ele>
        <time>2022-08-24T08:17:12Z</time>
      </trkpt>
      <trkpt lat="42.890819" lon="-8.491051">
        <ele>363.283</ele>
        <time>2022-08-24T08:17:16Z</time>
      </trkpt>
      <trkpt lat="42.890831" lon="-8.491125">
        <ele>363.373</ele>
        <time>2022-08-24T08:17:20Z</time>
      </trkpt>
      <trkpt lat="42.890814" lon="-8.491192">
        <ele>363.383</ele>
        <time>2022-08-24T08:17:24Z</time>
      </trkpt>
      <trkpt lat="42.890799" lon="-8.491250">
        <ele>363.348</ele>
        <time>2022-08-24T08:17:27Z</time>
      </trkpt>
      <trkpt lat="42.890763" lon="-8.491319">
        <ele>363.386</ele>
        <time>2022-08-24T08:17:31Z</time>
      </trkpt>
      <trkpt lat="42.890728" lon="-8.491375">
        <ele>363.236</ele>
        <time>2022-08-24T08:17:35Z</time>
      </trkpt>
      <trkpt lat="42.890702" lon="-8.491446">
        <ele>362.910</ele>
        <time>2022-08-24T08:17:39Z</time>
      </trkpt>
      <trkpt lat="42.890686" lon="-8.491504">
        <ele>362.935</ele>
        <time>2022-08-24T08:17:43Z</time>
      </trkpt>
      <trkpt lat="42.890655" lon="-8.491559">
        <ele>362.899</ele>
        <time>2022-08-24T08:17:47Z</time>
      </trkpt>
      <trkpt lat="42.890628" lon="-8.491623">
        <ele>362.811</ele>
        <time>2022-08-24T08:17:51Z</time>
      </trkpt>
      <trkpt lat="42.890596" lon="-8.491683">
        <ele>362.821</ele>
        <time>2022-08-24T08:17:55Z</time>
      </trkpt>
      <trkpt lat="42.890575" lon="-8.491744">
        <ele>362.803</ele>
        <time>2022-08-24T08:17:59Z</time>
      </trkpt>
      <trkpt lat="42.890549" lon="-8.491809">
        <ele>362.809</ele>
        <time>2022-08-24T08:18:03Z</time>
      </trkpt>
      <trkpt lat="42.890529" lon="-8.491875">
        <ele>362.992</ele>
        <time>2022-08-24T08:18:07Z</time>
      </trkpt>
      <trkpt lat="42.890511" lon="-8.491944">
        <ele>362.992</ele>
        <time>2022-08-24T08:18:11Z</time>
      </trkpt>
      <trkpt lat="42.890489" lon="-8.491998">
        <ele>363.082</ele>
        <time>2022-08-24T08:18:15Z</time>
      </trkpt>
      <trkpt lat="42.890465" lon="-8.492052">
        <ele>363.187</ele>
        <time>2022-08-24T08:18:19Z</time>
      </trkpt>
      <trkpt lat="42.890426" lon="-8.492116">
        <ele>363.215</ele>
        <time>2022-08-24T08:18:24Z</time>
      </trkpt>
      <trkpt lat="42.890401" lon="-8.492179">
        <ele>363.325</ele>
        <time>2022-08-24T08:18:28Z</time>
      </trkpt>
      <trkpt lat="42.890371" lon="-8.492234">
        <ele>363.519</ele>
        <time>2022-08-24T08:18:32Z</time>
      </trkpt>
      <trkpt lat="42.890338" lon="-8.492290">
        <ele>363.754</ele>
        <time>2022-08-24T08:18:36Z</time>
      </trkpt>
      <trkpt lat="42.890312" lon="-8.492359">
        <ele>363.978</ele>
        <time>2022-08-24T08:18:40Z</time>
      </trkpt>
      <trkpt lat="42.890287" lon="-8.492427">
        <ele>363.932</ele>
        <time>2022-08-24T08:18:44Z</time>
      </trkpt>
      <trkpt lat="42.890262" lon="-8.492486">
        <ele>364.092</ele>
        <time>2022-08-24T08:18:48Z</time>
      </trkpt>
      <trkpt lat="42.890231" lon="-8.492539">
        <ele>364.111</ele>
        <time>2022-08-24T08:18:52Z</time>
      </trkpt>
      <trkpt lat="42.890196" lon="-8.492600">
        <ele>364.209</ele>
        <time>2022-08-24T08:18:56Z</time>
      </trkpt>
      <trkpt lat="42.890170" lon="-8.492654">
        <ele>364.314</ele>
        <time>2022-08-24T08:19:00Z</time>
      </trkpt>
      <trkpt lat="42.890146" lon="-8.492723">
        <ele>364.464</ele>
        <time>2022-08-24T08:19:04Z</time>
      </trkpt>
      <trkpt lat="42.890115" lon="-8.492789">
        <ele>364.534</ele>
        <time>2022-08-24T08:19:09Z</time>
      </trkpt>
      <trkpt lat="42.890080" lon="-8.492847">
        <ele>364.629</ele>
        <time>2022-08-24T08:19:13Z</time>
      </trkpt>
      <trkpt lat="42.890061" lon="-8.492906">
        <ele>364.657</ele>
        <time>2022-08-24T08:19:17Z</time>
      </trkpt>
      <trkpt lat="42.890036" lon="-8.492969">
        <ele>364.757</ele>
        <time>2022-08-24T08:19:21Z</time>
      </trkpt>
      <trkpt lat="42.890014" lon="-8.493033">
        <ele>364.841</ele>
        <time>2022-08-24T08:19:25Z</time>
      </trkpt>
      <trkpt lat="42.890008" lon="-8.493097">
        <ele>365.086</ele>
        <time>2022-08-24T08:19:29Z</time>
      </trkpt>
      <trkpt lat="42.890001" lon="-8.493163">
        <ele>365.380</ele>
        <time>2022-08-24T08:19:33Z</time>
      </trkpt>
      <trkpt lat="42.889988" lon="-8.493228">
        <ele>365.765</ele>
        <time>2022-08-24T08:19:37Z</time>
      </trkpt>
      <trkpt lat="42.889969" lon="-8.493293">
        <ele>366.068</ele>
        <time>2022-08-24T08:19:41Z</time>
      </trkpt>
      <trkpt lat="42.889951" lon="-8.493356">
        <ele>366.314</ele>
        <time>2022-08-24T08:19:45Z</time>
      </trkpt>
      <trkpt lat="42.889922" lon="-8.493414">
        <ele>366.609</ele>
        <time>2022-08-24T08:19:49Z</time>
      </trkpt>
      <trkpt lat="42.889889" lon="-8.493474">
        <ele>366.997</ele>
        <time>2022-08-24T08:19:53Z</time>
      </trkpt>
      <trkpt lat="42.889860" lon="-8.493541">
        <ele>367.187</ele>
        <time>2022-08-24T08:19:57Z</time>
      </trkpt>
      <trkpt lat="42.889832" lon="-8.493599">
        <ele>367.387</ele>
        <time>2022-08-24T08:20:01Z</time>
      </trkpt>
      <trkpt lat="42.889809" lon="-8.493666">
        <ele>367.472</ele>
        <time>2022-08-24T08:20:05Z</time>
      </trkpt>
      <trkpt lat="42.889796" lon="-8.493726">
        <ele>367.550</ele>
        <time>2022-08-24T08:20:09Z</time>
      </trkpt>
      <trkpt lat="42.889775" lon="-8.493793">
        <ele>367.620</ele>
        <time>2022-08-24T08:20:13Z</time>
      </trkpt>
      <trkpt lat="42.889764" lon="-8.493862">
        <ele>367.734</ele>
        <time>2022-08-24T08:20:17Z</time>
      </trkpt>
      <trkpt lat="42.889739" lon="-8.493918">
        <ele>367.889</ele>
        <time>2022-08-24T08:20:21Z</time>
      </trkpt>
      <trkpt lat="42.889722" lon="-8.493981">
        <ele>368.063</ele>
        <time>2022-08-24T08:20:25Z</time>
      </trkpt>
      <trkpt lat="42.889713" lon="-8.494045">
        <ele>368.238</ele>
        <time>2022-08-24T08:20:29Z</time>
      </trkpt>
      <trkpt lat="42.889702" lon="-8.494111">
        <ele>368.370</ele>
        <time>2022-08-24T08:20:33Z</time>
      </trkpt>
      <trkpt lat="42.889694" lon="-8.494179">
        <ele>368.517</ele>
        <time>2022-08-24T08:20:37Z</time>
      </trkpt>
      <trkpt lat="42.889677" lon="-8.494243">
        <ele>368.609</ele>
        <time>2022-08-24T08:20:41Z</time>
      </trkpt>
      <trkpt lat="42.889650" lon="-8.494316">
        <ele>368.664</ele>
        <time>2022-08-24T08:20:46Z</time>
      </trkpt>
      <trkpt lat="42.889636" lon="-8.494390">
        <ele>368.794</ele>
        <time>2022-08-24T08:20:51Z</time>
      </trkpt>
      <trkpt lat="42.889612" lon="-8.494458">
        <ele>368.874</ele>
        <time>2022-08-24T08:20:55Z</time>
      </trkpt>
      <trkpt lat="42.889590" lon="-8.494523">
        <ele>368.859</ele>
        <time>2022-08-24T08:20:59Z</time>
      </trkpt>
      <trkpt lat="42.889578" lon="-8.494587">
        <ele>368.887</ele>
        <time>2022-08-24T08:21:03Z</time>
      </trkpt>
      <trkpt lat="42.889554" lon="-8.494641">
        <ele>368.767</ele>
        <time>2022-08-24T08:21:07Z</time>
      </trkpt>
      <trkpt lat="42.889525" lon="-8.494697">
        <ele>368.611</ele>
        <time>2022-08-24T08:21:11Z</time>
      </trkpt>
      <trkpt lat="42.889495" lon="-8.494757">
        <ele>368.566</ele>
        <time>2022-08-24T08:21:15Z</time>
      </trkpt>
      <trkpt lat="42.889461" lon="-8.494811">
        <ele>368.420</ele>
        <time>2022-08-24T08:21:19Z</time>
      </trkpt>
      <trkpt lat="42.889434" lon="-8.494860">
        <ele>368.325</ele>
        <time>2022-08-24T08:21:23Z</time>
      </trkpt>
      <trkpt lat="42.889407" lon="-8.494912">
        <ele>368.126</ele>
        <time>2022-08-24T08:21:27Z</time>
      </trkpt>
      <trkpt lat="42.889381" lon="-8.494966">
        <ele>367.908</ele>
        <time>2022-08-24T08:21:31Z</time>
      </trkpt>
      <trkpt lat="42.889349" lon="-8.495019">
        <ele>367.709</ele>
        <time>2022-08-24T08:21:35Z</time>
      </trkpt>
      <trkpt lat="42.889326" lon="-8.495078">
        <ele>367.523</ele>
        <time>2022-08-24T08:21:38Z</time>
      </trkpt>
      <trkpt lat="42.889300" lon="-8.495139">
        <ele>367.293</ele>
        <time>2022-08-24T08:21:42Z</time>
      </trkpt>
      <trkpt lat="42.889275" lon="-8.495203">
        <ele>367.083</ele>
        <time>2022-08-24T08:21:46Z</time>
      </trkpt>
      <trkpt lat="42.889250" lon="-8.495262">
        <ele>366.828</ele>
        <time>2022-08-24T08:21:50Z</time>
      </trkpt>
      <trkpt lat="42.889230" lon="-8.495328">
        <ele>366.656</ele>
        <time>2022-08-24T08:21:54Z</time>
      </trkpt>
      <trkpt lat="42.889209" lon="-8.495389">
        <ele>366.456</ele>
        <time>2022-08-24T08:21:58Z</time>
      </trkpt>
      <trkpt lat="42.889195" lon="-8.495450">
        <ele>366.210</ele>
        <time>2022-08-24T08:22:01Z</time>
      </trkpt>
      <trkpt lat="42.889160" lon="-8.495514">
        <ele>366.085</ele>
        <time>2022-08-24T08:22:05Z</time>
      </trkpt>
      <trkpt lat="42.889138" lon="-8.495573">
        <ele>365.859</ele>
        <time>2022-08-24T08:22:09Z</time>
      </trkpt>
      <trkpt lat="42.889120" lon="-8.495637">
        <ele>365.662</ele>
        <time>2022-08-24T08:22:13Z</time>
      </trkpt>
      <trkpt lat="42.889100" lon="-8.495703">
        <ele>365.483</ele>
        <time>2022-08-24T08:22:17Z</time>
      </trkpt>
      <trkpt lat="42.889077" lon="-8.495767">
        <ele>365.211</ele>
        <time>2022-08-24T08:22:21Z</time>
      </trkpt>
      <trkpt lat="42.889053" lon="-8.495835">
        <ele>364.909</ele>
        <time>2022-08-24T08:22:25Z</time>
      </trkpt>
      <trkpt lat="42.889038" lon="-8.495900">
        <ele>364.697</ele>
        <time>2022-08-24T08:22:29Z</time>
      </trkpt>
      <trkpt lat="42.889016" lon="-8.495960">
        <ele>364.397</ele>
        <time>2022-08-24T08:22:33Z</time>
      </trkpt>
      <trkpt lat="42.889001" lon="-8.496019">
        <ele>364.067</ele>
        <time>2022-08-24T08:22:37Z</time>
      </trkpt>
      <trkpt lat="42.888973" lon="-8.496086">
        <ele>363.782</ele>
        <time>2022-08-24T08:22:41Z</time>
      </trkpt>
      <trkpt lat="42.888953" lon="-8.496150">
        <ele>363.330</ele>
        <time>2022-08-24T08:22:45Z</time>
      </trkpt>
      <trkpt lat="42.888941" lon="-8.496214">
        <ele>363.020</ele>
        <time>2022-08-24T08:22:49Z</time>
      </trkpt>
      <trkpt lat="42.888920" lon="-8.496276">
        <ele>362.774</ele>
        <time>2022-08-24T08:22:53Z</time>
      </trkpt>
      <trkpt lat="42.888898" lon="-8.496336">
        <ele>362.449</ele>
        <time>2022-08-24T08:22:57Z</time>
      </trkpt>
      <trkpt lat="42.888873" lon="-8.496400">
        <ele>362.123</ele>
        <time>2022-08-24T08:23:01Z</time>
      </trkpt>
      <trkpt lat="42.888853" lon="-8.496461">
        <ele>361.788</ele>
        <time>2022-08-24T08:23:05Z</time>
      </trkpt>
      <trkpt lat="42.888829" lon="-8.496533">
        <ele>361.324</ele>
        <time>2022-08-24T08:23:09Z</time>
      </trkpt>
      <trkpt lat="42.888809" lon="-8.496598">
        <ele>360.826</ele>
        <time>2022-08-24T08:23:13Z</time>
      </trkpt>
      <trkpt lat="42.888780" lon="-8.496661">
        <ele>360.209</ele>
        <time>2022-08-24T08:23:17Z</time>
      </trkpt>
      <trkpt lat="42.888756" lon="-8.496723">
        <ele>359.679</ele>
        <time>2022-08-24T08:23:21Z</time>
      </trkpt>
      <trkpt lat="42.888733" lon="-8.496791">
        <ele>358.849</ele>
        <time>2022-08-24T08:23:25Z</time>
      </trkpt>
      <trkpt lat="42.888710" lon="-8.496864">
        <ele>358.289</ele>
        <time>2022-08-24T08:23:29Z</time>
      </trkpt>
      <trkpt lat="42.888682" lon="-8.496925">
        <ele>357.614</ele>
        <time>2022-08-24T08:23:33Z</time>
      </trkpt>
      <trkpt lat="42.888657" lon="-8.496991">
        <ele>357.052</ele>
        <time>2022-08-24T08:23:37Z</time>
      </trkpt>
      <trkpt lat="42.888638" lon="-8.497048">
        <ele>356.632</ele>
        <time>2022-08-24T08:23:40Z</time>
      </trkpt>
      <trkpt lat="42.888611" lon="-8.497113">
        <ele>355.956</ele>
        <time>2022-08-24T08:23:44Z</time>
      </trkpt>
      <trkpt lat="42.888593" lon="-8.497184">
        <ele>355.341</ele>
        <time>2022-08-24T08:23:48Z</time>
      </trkpt>
      <trkpt lat="42.888574" lon="-8.497253">
        <ele>354.765</ele>
        <time>2022-08-24T08:23:52Z</time>
      </trkpt>
      <trkpt lat="42.888560" lon="-8.497323">
        <ele>354.028</ele>
        <time>2022-08-24T08:23:56Z</time>
      </trkpt>
      <trkpt lat="42.888540" lon="-8.497397">
        <ele>352.989</ele>
        <time>2022-08-24T08:24:00Z</time>
      </trkpt>
      <trkpt lat="42.888513" lon="-8.497450">
        <ele>352.617</ele>
        <time>2022-08-24T08:24:03Z</time>
      </trkpt>
      <trkpt lat="42.888482" lon="-8.497509">
        <ele>352.109</ele>
        <time>2022-08-24T08:24:07Z</time>
      </trkpt>
      <trkpt lat="42.888461" lon="-8.497564">
        <ele>351.613</ele>
        <time>2022-08-24T08:24:10Z</time>
      </trkpt>
      <trkpt lat="42.888441" lon="-8.497641">
        <ele>350.943</ele>
        <time>2022-08-24T08:24:14Z</time>
      </trkpt>
      <trkpt lat="42.888414" lon="-8.497708">
        <ele>350.113</ele>
        <time>2022-08-24T08:24:18Z</time>
      </trkpt>
      <trkpt lat="42.888392" lon="-8.497779">
        <ele>349.088</ele>
        <time>2022-08-24T08:24:22Z</time>
      </trkpt>
      <trkpt lat="42.888372" lon="-8.497854">
        <ele>348.416</ele>
        <time>2022-08-24T08:24:26Z</time>
      </trkpt>
      <trkpt lat="42.888350" lon="-8.497926">
        <ele>347.766</ele>
        <time>2022-08-24T08:24:30Z</time>
      </trkpt>
      <trkpt lat="42.888337" lon="-8.498006">
        <ele>346.940</ele>
        <time>2022-08-24T08:24:34Z</time>
      </trkpt>
      <trkpt lat="42.888328" lon="-8.498081">
        <ele>346.215</ele>
        <time>2022-08-24T08:24:38Z</time>
      </trkpt>
      <trkpt lat="42.888312" lon="-8.498155">
        <ele>345.699</ele>
        <time>2022-08-24T08:24:42Z</time>
      </trkpt>
      <trkpt lat="42.888292" lon="-8.498231">
        <ele>345.151</ele>
        <time>2022-08-24T08:24:46Z</time>
      </trkpt>
      <trkpt lat="42.888278" lon="-8.498306">
        <ele>344.601</ele>
        <time>2022-08-24T08:24:50Z</time>
      </trkpt>
      <trkpt lat="42.888255" lon="-8.498375">
        <ele>344.111</ele>
        <time>2022-08-24T08:24:54Z</time>
      </trkpt>
      <trkpt lat="42.888234" lon="-8.498445">
        <ele>343.309</ele>
        <time>2022-08-24T08:24:58Z</time>
      </trkpt>
      <trkpt lat="42.888214" lon="-8.498515">
        <ele>342.476</ele>
        <time>2022-08-24T08:25:02Z</time>
      </trkpt>
      <trkpt lat="42.888191" lon="-8.498591">
        <ele>341.866</ele>
        <time>2022-08-24T08:25:06Z</time>
      </trkpt>
      <trkpt lat="42.888168" lon="-8.498661">
        <ele>341.116</ele>
        <time>2022-08-24T08:25:10Z</time>
      </trkpt>
      <trkpt lat="42.888155" lon="-8.498731">
        <ele>340.531</ele>
        <time>2022-08-24T08:25:14Z</time>
      </trkpt>
      <trkpt lat="42.888137" lon="-8.498800">
        <ele>339.979</ele>
        <time>2022-08-24T08:25:18Z</time>
      </trkpt>
      <trkpt lat="42.888111" lon="-8.498875">
        <ele>339.359</ele>
        <time>2022-08-24T08:25:22Z</time>
      </trkpt>
      <trkpt lat="42.888101" lon="-8.498950">
        <ele>338.773</ele>
        <time>2022-08-24T08:25:26Z</time>
      </trkpt>
      <trkpt lat="42.888074" lon="-8.499020">
        <ele>338.088</ele>
        <time>2022-08-24T08:25:30Z</time>
      </trkpt>
      <trkpt lat="42.888052" lon="-8.499090">
        <ele>337.232</ele>
        <time>2022-08-24T08:25:34Z</time>
      </trkpt>
      <trkpt lat="42.888036" lon="-8.499159">
        <ele>336.548</ele>
        <time>2022-08-24T08:25:38Z</time>
      </trkpt>
      <trkpt lat="42.888024" lon="-8.499227">
        <ele>335.761</ele>
        <time>2022-08-24T08:25:42Z</time>
      </trkpt>
      <trkpt lat="42.887998" lon="-8.499295">
        <ele>335.017</ele>
        <time>2022-08-24T08:25:46Z</time>
      </trkpt>
      <trkpt lat="42.887981" lon="-8.499368">
        <ele>334.509</ele>
        <time>2022-08-24T08:25:50Z</time>
      </trkpt>
      <trkpt lat="42.887965" lon="-8.499441">
        <ele>333.925</ele>
        <time>2022-08-24T08:25:54Z</time>
      </trkpt>
      <trkpt lat="42.887936" lon="-8.499506">
        <ele>333.115</ele>
        <time>2022-08-24T08:25:58Z</time>
      </trkpt>
      <trkpt lat="42.887920" lon="-8.499565">
        <ele>332.875</ele>
        <time>2022-08-24T08:26:01Z</time>
      </trkpt>
      <trkpt lat="42.887897" lon="-8.499630">
        <ele>332.640</ele>
        <time>2022-08-24T08:26:05Z</time>
      </trkpt>
      <trkpt lat="42.887876" lon="-8.499701">
        <ele>332.338</ele>
        <time>2022-08-24T08:26:09Z</time>
      </trkpt>
      <trkpt lat="42.887855" lon="-8.499772">
        <ele>331.858</ele>
        <time>2022-08-24T08:26:13Z</time>
      </trkpt>
      <trkpt lat="42.887837" lon="-8.499844">
        <ele>331.212</ele>
        <time>2022-08-24T08:26:17Z</time>
      </trkpt>
      <trkpt lat="42.887830" lon="-8.499916">
        <ele>330.467</ele>
        <time>2022-08-24T08:26:21Z</time>
      </trkpt>
      <trkpt lat="42.887819" lon="-8.499987">
        <ele>329.891</ele>
        <time>2022-08-24T08:26:25Z</time>
      </trkpt>
      <trkpt lat="42.887807" lon="-8.500047">
        <ele>329.578</ele>
        <time>2022-08-24T08:26:28Z</time>
      </trkpt>
      <trkpt lat="42.887799" lon="-8.500115">
        <ele>329.033</ele>
        <time>2022-08-24T08:26:32Z</time>
      </trkpt>
      <trkpt lat="42.887800" lon="-8.500183">
        <ele>328.626</ele>
        <time>2022-08-24T08:26:36Z</time>
      </trkpt>
      <trkpt lat="42.887804" lon="-8.500256">
        <ele>328.209</ele>
        <time>2022-08-24T08:26:40Z</time>
      </trkpt>
      <trkpt lat="42.887803" lon="-8.500321">
        <ele>327.618</ele>
        <time>2022-08-24T08:26:44Z</time>
      </trkpt>
      <trkpt lat="42.887803" lon="-8.500398">
        <ele>327.058</ele>
        <time>2022-08-24T08:26:48Z</time>
      </trkpt>
      <trkpt lat="42.887811" lon="-8.500471">
        <ele>326.378</ele>
        <time>2022-08-24T08:26:52Z</time>
      </trkpt>
      <trkpt lat="42.887821" lon="-8.500546">
        <ele>325.583</ele>
        <time>2022-08-24T08:26:56Z</time>
      </trkpt>
      <trkpt lat="42.887824" lon="-8.500612">
        <ele>324.751</ele>
        <time>2022-08-24T08:27:00Z</time>
      </trkpt>
      <trkpt lat="42.887835" lon="-8.500685">
        <ele>323.421</ele>
        <time>2022-08-24T08:27:04Z</time>
      </trkpt>
      <trkpt lat="42.887849" lon="-8.500749">
        <ele>323.035</ele>
        <time>2022-08-24T08:27:07Z</time>
      </trkpt>
      <trkpt lat="42.887865" lon="-8.500828">
        <ele>322.240</ele>
        <time>2022-08-24T08:27:11Z</time>
      </trkpt>
      <trkpt lat="42.887867" lon="-8.500905">
        <ele>321.524</ele>
        <time>2022-08-24T08:27:15Z</time>
      </trkpt>
      <trkpt lat="42.887876" lon="-8.500983">
        <ele>320.379</ele>
        <time>2022-08-24T08:27:19Z</time>
      </trkpt>
      <trkpt lat="42.887890" lon="-8.501060">
        <ele>319.505</ele>
        <time>2022-08-24T08:27:23Z</time>
      </trkpt>
      <trkpt lat="42.887900" lon="-8.501121">
        <ele>318.325</ele>
        <time>2022-08-24T08:27:26Z</time>
      </trkpt>
      <trkpt lat="42.887910" lon="-8.501193">
        <ele>317.409</ele>
        <time>2022-08-24T08:27:30Z</time>
      </trkpt>
      <trkpt lat="42.887924" lon="-8.501252">
        <ele>317.078</ele>
        <time>2022-08-24T08:27:33Z</time>
      </trkpt>
      <trkpt lat="42.887932" lon="-8.501313">
        <ele>316.098</ele>
        <time>2022-08-24T08:27:36Z</time>
      </trkpt>
      <trkpt lat="42.887941" lon="-8.501377">
        <ele>315.058</ele>
        <time>2022-08-24T08:27:39Z</time>
      </trkpt>
      <trkpt lat="42.887951" lon="-8.501437">
        <ele>314.383</ele>
        <time>2022-08-24T08:27:42Z</time>
      </trkpt>
      <trkpt lat="42.887963" lon="-8.501516">
        <ele>313.691</ele>
        <time>2022-08-24T08:27:46Z</time>
      </trkpt>
      <trkpt lat="42.887968" lon="-8.501577">
        <ele>313.021</ele>
        <time>2022-08-24T08:27:49Z</time>
      </trkpt>
      <trkpt lat="42.887972" lon="-8.501643">
        <ele>312.245</ele>
        <time>2022-08-24T08:27:52Z</time>
      </trkpt>
      <trkpt lat="42.887974" lon="-8.501709">
        <ele>311.440</ele>
        <time>2022-08-24T08:27:55Z</time>
      </trkpt>
      <trkpt lat="42.887976" lon="-8.501778">
        <ele>310.784</ele>
        <time>2022-08-24T08:27:58Z</time>
      </trkpt>
      <trkpt lat="42.887969" lon="-8.501842">
        <ele>309.958</ele>
        <time>2022-08-24T08:28:01Z</time>
      </trkpt>
      <trkpt lat="42.887958" lon="-8.501903">
        <ele>309.252</ele>
        <time>2022-08-24T08:28:04Z</time>
      </trkpt>
      <trkpt lat="42.887943" lon="-8.501964">
        <ele>308.517</ele>
        <time>2022-08-24T08:28:07Z</time>
      </trkpt>
      <trkpt lat="42.887925" lon="-8.502021">
        <ele>307.809</ele>
        <time>2022-08-24T08:28:10Z</time>
      </trkpt>
      <trkpt lat="42.887898" lon="-8.502092">
        <ele>307.146</ele>
        <time>2022-08-24T08:28:14Z</time>
      </trkpt>
      <trkpt lat="42.887867" lon="-8.502157">
        <ele>306.686</ele>
        <time>2022-08-24T08:28:18Z</time>
      </trkpt>
      <trkpt lat="42.887845" lon="-8.502218">
        <ele>306.246</ele>
        <time>2022-08-24T08:28:23Z</time>
      </trkpt>
      <trkpt lat="42.887821" lon="-8.502272">
        <ele>305.941</ele>
        <time>2022-08-24T08:28:28Z</time>
      </trkpt>
      <trkpt lat="42.887799" lon="-8.502342">
        <ele>305.719</ele>
        <time>2022-08-24T08:28:33Z</time>
      </trkpt>
      <trkpt lat="42.887786" lon="-8.502401">
        <ele>305.599</ele>
        <time>2022-08-24T08:28:36Z</time>
      </trkpt>
      <trkpt lat="42.887768" lon="-8.502465">
        <ele>305.453</ele>
        <time>2022-08-24T08:28:40Z</time>
      </trkpt>
      <trkpt lat="42.887735" lon="-8.502519">
        <ele>305.388</ele>
        <time>2022-08-24T08:28:44Z</time>
      </trkpt>
      <trkpt lat="42.887710" lon="-8.502589">
        <ele>305.212</ele>
        <time>2022-08-24T08:28:48Z</time>
      </trkpt>
      <trkpt lat="42.887691" lon="-8.502646">
        <ele>305.117</ele>
        <time>2022-08-24T08:28:51Z</time>
      </trkpt>
      <trkpt lat="42.887688" lon="-8.502710">
        <ele>305.087</ele>
        <time>2022-08-24T08:28:54Z</time>
      </trkpt>
      <trkpt lat="42.887680" lon="-8.502789">
        <ele>304.915</ele>
        <time>2022-08-24T08:28:58Z</time>
      </trkpt>
      <trkpt lat="42.887668" lon="-8.502849">
        <ele>304.809</ele>
        <time>2022-08-24T08:29:01Z</time>
      </trkpt>
      <trkpt lat="42.887643" lon="-8.502921">
        <ele>304.772</ele>
        <time>2022-08-24T08:29:05Z</time>
      </trkpt>
      <trkpt lat="42.887623" lon="-8.502984">
        <ele>304.662</ele>
        <time>2022-08-24T08:29:09Z</time>
      </trkpt>
      <trkpt lat="42.887608" lon="-8.503047">
        <ele>304.592</ele>
        <time>2022-08-24T08:29:13Z</time>
      </trkpt>
      <trkpt lat="42.887585" lon="-8.503109">
        <ele>304.497</ele>
        <time>2022-08-24T08:29:17Z</time>
      </trkpt>
      <trkpt lat="42.887568" lon="-8.503185">
        <ele>304.345</ele>
        <time>2022-08-24T08:29:22Z</time>
      </trkpt>
      <trkpt lat="42.887540" lon="-8.503254">
        <ele>304.385</ele>
        <time>2022-08-24T08:29:26Z</time>
      </trkpt>
      <trkpt lat="42.887510" lon="-8.503320">
        <ele>304.259</ele>
        <time>2022-08-24T08:29:30Z</time>
      </trkpt>
      <trkpt lat="42.887497" lon="-8.503388">
        <ele>304.254</ele>
        <time>2022-08-24T08:29:34Z</time>
      </trkpt>
      <trkpt lat="42.887480" lon="-8.503457">
        <ele>304.098</ele>
        <time>2022-08-24T08:29:38Z</time>
      </trkpt>
      <trkpt lat="42.887461" lon="-8.503524">
        <ele>303.514</ele>
        <time>2022-08-24T08:29:42Z</time>
      </trkpt>
      <trkpt lat="42.887441" lon="-8.503579">
        <ele>303.254</ele>
        <time>2022-08-24T08:29:45Z</time>
      </trkpt>
      <trkpt lat="42.887428" lon="-8.503647">
        <ele>302.709</ele>
        <time>2022-08-24T08:29:49Z</time>
      </trkpt>
      <trkpt lat="42.887421" lon="-8.503713">
        <ele>302.309</ele>
        <time>2022-08-24T08:29:53Z</time>
      </trkpt>
      <trkpt lat="42.887398" lon="-8.503787">
        <ele>301.932</ele>
        <time>2022-08-24T08:29:57Z</time>
      </trkpt>
      <trkpt lat="42.887384" lon="-8.503849">
        <ele>301.432</ele>
        <time>2022-08-24T08:30:01Z</time>
      </trkpt>
      <trkpt lat="42.887374" lon="-8.503909">
        <ele>300.772</ele>
        <time>2022-08-24T08:30:05Z</time>
      </trkpt>
      <trkpt lat="42.887351" lon="-8.503973">
        <ele>300.147</ele>
        <time>2022-08-24T08:30:09Z</time>
      </trkpt>
      <trkpt lat="42.887336" lon="-8.504042">
        <ele>299.575</ele>
        <time>2022-08-24T08:30:13Z</time>
      </trkpt>
      <trkpt lat="42.887327" lon="-8.504114">
        <ele>299.095</ele>
        <time>2022-08-24T08:30:17Z</time>
      </trkpt>
      <trkpt lat="42.887316" lon="-8.504185">
        <ele>298.629</ele>
        <time>2022-08-24T08:30:22Z</time>
      </trkpt>
      <trkpt lat="42.887310" lon="-8.504254">
        <ele>298.244</ele>
        <time>2022-08-24T08:30:25Z</time>
      </trkpt>
      <trkpt lat="42.887301" lon="-8.504327">
        <ele>297.648</ele>
        <time>2022-08-24T08:30:29Z</time>
      </trkpt>
      <trkpt lat="42.887279" lon="-8.504391">
        <ele>297.117</ele>
        <time>2022-08-24T08:30:33Z</time>
      </trkpt>
      <trkpt lat="42.887229" lon="-8.504435">
        <ele>296.587</ele>
        <time>2022-08-24T08:30:37Z</time>
      </trkpt>
      <trkpt lat="42.887184" lon="-8.504471">
        <ele>296.315</ele>
        <time>2022-08-24T08:30:41Z</time>
      </trkpt>
      <trkpt lat="42.887141" lon="-8.504511">
        <ele>295.909</ele>
        <time>2022-08-24T08:30:45Z</time>
      </trkpt>
      <trkpt lat="42.887109" lon="-8.504556">
        <ele>295.472</ele>
        <time>2022-08-24T08:30:49Z</time>
      </trkpt>
      <trkpt lat="42.887063" lon="-8.504573">
        <ele>294.962</ele>
        <time>2022-08-24T08:30:53Z</time>
      </trkpt>
      <trkpt lat="42.887007" lon="-8.504564">
        <ele>294.432</ele>
        <time>2022-08-24T08:31:06Z</time>
      </trkpt>
      <trkpt lat="42.886959" lon="-8.504565">
        <ele>294.077</ele>
        <time>2022-08-24T08:31:09Z</time>
      </trkpt>
      <trkpt lat="42.886908" lon="-8.504563">
        <ele>293.415</ele>
        <time>2022-08-24T08:31:13Z</time>
      </trkpt>
      <trkpt lat="42.886856" lon="-8.504564">
        <ele>292.935</ele>
        <time>2022-08-24T08:31:17Z</time>
      </trkpt>
      <trkpt lat="42.886832" lon="-8.504628">
        <ele>292.689</ele>
        <time>2022-08-24T08:31:24Z</time>
      </trkpt>
      <trkpt lat="42.886872" lon="-8.504666">
        <ele>292.284</ele>
        <time>2022-08-24T08:31:29Z</time>
      </trkpt>
      <trkpt lat="42.886910" lon="-8.504708">
        <ele>291.748</ele>
        <time>2022-08-24T08:31:33Z</time>
      </trkpt>
      <trkpt lat="42.886937" lon="-8.504768">
        <ele>291.042</ele>
        <time>2022-08-24T08:31:37Z</time>
      </trkpt>
      <trkpt lat="42.886921" lon="-8.504845">
        <ele>290.322</ele>
        <time>2022-08-24T08:31:41Z</time>
      </trkpt>
      <trkpt lat="42.886910" lon="-8.504920">
        <ele>289.814</ele>
        <time>2022-08-24T08:31:45Z</time>
      </trkpt>
      <trkpt lat="42.886888" lon="-8.504990">
        <ele>289.109</ele>
        <time>2022-08-24T08:31:49Z</time>
      </trkpt>
      <trkpt lat="42.886877" lon="-8.505060">
        <ele>288.615</ele>
        <time>2022-08-24T08:31:53Z</time>
      </trkpt>
      <trkpt lat="42.886850" lon="-8.505116">
        <ele>288.215</ele>
        <time>2022-08-24T08:31:57Z</time>
      </trkpt>
      <trkpt lat="42.886825" lon="-8.505182">
        <ele>288.055</ele>
        <time>2022-08-24T08:32:01Z</time>
      </trkpt>
      <trkpt lat="42.886798" lon="-8.505255">
        <ele>287.540</ele>
        <time>2022-08-24T08:32:05Z</time>
      </trkpt>
      <trkpt lat="42.886778" lon="-8.505322">
        <ele>287.498</ele>
        <time>2022-08-24T08:32:09Z</time>
      </trkpt>
      <trkpt lat="42.886758" lon="-8.505382">
        <ele>287.228</ele>
        <time>2022-08-24T08:32:13Z</time>
      </trkpt>
      <trkpt lat="42.886749" lon="-8.505450">
        <ele>287.022</ele>
        <time>2022-08-24T08:32:17Z</time>
      </trkpt>
      <trkpt lat="42.886733" lon="-8.505516">
        <ele>286.887</ele>
        <time>2022-08-24T08:32:21Z</time>
      </trkpt>
      <trkpt lat="42.886720" lon="-8.505590">
        <ele>286.611</ele>
        <time>2022-08-24T08:32:25Z</time>
      </trkpt>
      <trkpt lat="42.886700" lon="-8.505656">
        <ele>286.423</ele>
        <time>2022-08-24T08:32:29Z</time>
      </trkpt>
      <trkpt lat="42.886692" lon="-8.505723">
        <ele>286.183</ele>
        <time>2022-08-24T08:32:33Z</time>
      </trkpt>
      <trkpt lat="42.886676" lon="-8.505798">
        <ele>285.911</ele>
        <time>2022-08-24T08:32:37Z</time>
      </trkpt>
      <trkpt lat="42.886667" lon="-8.505873">
        <ele>285.409</ele>
        <time>2022-08-24T08:32:41Z</time>
      </trkpt>
      <trkpt lat="42.886659" lon="-8.505943">
        <ele>285.223</ele>
        <time>2022-08-24T08:32:45Z</time>
      </trkpt>
      <trkpt lat="42.886650" lon="-8.506013">
        <ele>284.853</ele>
        <time>2022-08-24T08:32:49Z</time>
      </trkpt>
      <trkpt lat="42.886648" lon="-8.506079">
        <ele>284.673</ele>
        <time>2022-08-24T08:32:53Z</time>
      </trkpt>
      <trkpt lat="42.886636" lon="-8.506149">
        <ele>284.578</ele>
        <time>2022-08-24T08:32:57Z</time>
      </trkpt>
      <trkpt lat="42.886632" lon="-8.506218">
        <ele>284.136</ele>
        <time>2022-08-24T08:33:01Z</time>
      </trkpt>
      <trkpt lat="42.886627" lon="-8.506293">
        <ele>283.716</ele>
        <time>2022-08-24T08:33:05Z</time>
      </trkpt>
      <trkpt lat="42.886613" lon="-8.506364">
        <ele>283.340</ele>
        <time>2022-08-24T08:33:09Z</time>
      </trkpt>
      <trkpt lat="42.886606" lon="-8.506442">
        <ele>282.735</ele>
        <time>2022-08-24T08:33:13Z</time>
      </trkpt>
      <trkpt lat="42.886604" lon="-8.506513">
        <ele>282.529</ele>
        <time>2022-08-24T08:33:17Z</time>
      </trkpt>
      <trkpt lat="42.886594" lon="-8.506588">
        <ele>282.074</ele>
        <time>2022-08-24T08:33:21Z</time>
      </trkpt>
      <trkpt lat="42.886587" lon="-8.506657">
        <ele>281.456</ele>
        <time>2022-08-24T08:33:25Z</time>
      </trkpt>
      <trkpt lat="42.886585" lon="-8.506727">
        <ele>281.221</ele>
        <time>2022-08-24T08:33:29Z</time>
      </trkpt>
      <trkpt lat="42.886582" lon="-8.506799">
        <ele>280.809</ele>
        <time>2022-08-24T08:33:33Z</time>
      </trkpt>
      <trkpt lat="42.886577" lon="-8.506879">
        <ele>280.368</ele>
        <time>2022-08-24T08:33:37Z</time>
      </trkpt>
      <trkpt lat="42.886567" lon="-8.506944">
        <ele>280.098</ele>
        <time>2022-08-24T08:33:41Z</time>
      </trkpt>
      <trkpt lat="42.886566" lon="-8.507020">
        <ele>279.428</ele>
        <time>2022-08-24T08:33:45Z</time>
      </trkpt>
      <trkpt lat="42.886559" lon="-8.507092">
        <ele>278.783</ele>
        <time>2022-08-24T08:33:49Z</time>
      </trkpt>
      <trkpt lat="42.886558" lon="-8.507165">
        <ele>278.251</ele>
        <time>2022-08-24T08:33:53Z</time>
      </trkpt>
      <trkpt lat="42.886551" lon="-8.507238">
        <ele>278.071</ele>
        <time>2022-08-24T08:33:57Z</time>
      </trkpt>
      <trkpt lat="42.886549" lon="-8.507309">
        <ele>277.685</ele>
        <time>2022-08-24T08:34:01Z</time>
      </trkpt>
      <trkpt lat="42.886536" lon="-8.507382">
        <ele>277.220</ele>
        <time>2022-08-24T08:34:05Z</time>
      </trkpt>
      <trkpt lat="42.886527" lon="-8.507451">
        <ele>276.874</ele>
        <time>2022-08-24T08:34:09Z</time>
      </trkpt>
      <trkpt lat="42.886526" lon="-8.507523">
        <ele>276.372</ele>
        <time>2022-08-24T08:34:13Z</time>
      </trkpt>
      <trkpt lat="42.886527" lon="-8.507593">
        <ele>275.813</ele>
        <time>2022-08-24T08:34:17Z</time>
      </trkpt>
      <trkpt lat="42.886526" lon="-8.507666">
        <ele>275.414</ele>
        <time>2022-08-24T08:34:21Z</time>
      </trkpt>
      <trkpt lat="42.886527" lon="-8.507742">
        <ele>275.009</ele>
        <time>2022-08-24T08:34:25Z</time>
      </trkpt>
      <trkpt lat="42.886518" lon="-8.507816">
        <ele>274.428</ele>
        <time>2022-08-24T08:34:29Z</time>
      </trkpt>
      <trkpt lat="42.886508" lon="-8.507895">
        <ele>273.428</ele>
        <time>2022-08-24T08:34:33Z</time>
      </trkpt>
      <trkpt lat="42.886513" lon="-8.507962">
        <ele>273.198</ele>
        <time>2022-08-24T08:34:37Z</time>
      </trkpt>
      <trkpt lat="42.886507" lon="-8.508033">
        <ele>273.023</ele>
        <time>2022-08-24T08:34:41Z</time>
      </trkpt>
      <trkpt lat="42.886501" lon="-8.508118">
        <ele>273.041</ele>
        <time>2022-08-24T08:34:45Z</time>
      </trkpt>
      <trkpt lat="42.886502" lon="-8.508190">
        <ele>272.991</ele>
        <time>2022-08-24T08:34:49Z</time>
      </trkpt>
      <trkpt lat="42.886506" lon="-8.508264">
        <ele>272.955</ele>
        <time>2022-08-24T08:34:53Z</time>
      </trkpt>
      <trkpt lat="42.886506" lon="-8.508333">
        <ele>272.930</ele>
        <time>2022-08-24T08:34:57Z</time>
      </trkpt>
      <trkpt lat="42.886506" lon="-8.508398">
        <ele>272.984</ele>
        <time>2022-08-24T08:35:01Z</time>
      </trkpt>
      <trkpt lat="42.886494" lon="-8.508476">
        <ele>272.819</ele>
        <time>2022-08-24T08:35:06Z</time>
      </trkpt>
      <trkpt lat="42.886503" lon="-8.508552">
        <ele>272.709</ele>
        <time>2022-08-24T08:35:11Z</time>
      </trkpt>
      <trkpt lat="42.886510" lon="-8.508614">
        <ele>272.619</ele>
        <time>2022-08-24T08:35:14Z</time>
      </trkpt>
      <trkpt lat="42.886510" lon="-8.508689">
        <ele>272.509</ele>
        <time>2022-08-24T08:35:19Z</time>
      </trkpt>
      <trkpt lat="42.886494" lon="-8.508765">
        <ele>272.442</ele>
        <time>2022-08-24T08:35:23Z</time>
      </trkpt>
      <trkpt lat="42.886492" lon="-8.508839">
        <ele>272.312</ele>
        <time>2022-08-24T08:35:27Z</time>
      </trkpt>
      <trkpt lat="42.886491" lon="-8.508915">
        <ele>272.292</ele>
        <time>2022-08-24T08:35:31Z</time>
      </trkpt>
      <trkpt lat="42.886501" lon="-8.508989">
        <ele>272.157</ele>
        <time>2022-08-24T08:35:36Z</time>
      </trkpt>
      <trkpt lat="42.886511" lon="-8.509056">
        <ele>272.145</ele>
        <time>2022-08-24T08:35:41Z</time>
      </trkpt>
      <trkpt lat="42.886512" lon="-8.509120">
        <ele>272.115</ele>
        <time>2022-08-24T08:35:44Z</time>
      </trkpt>
      <trkpt lat="42.886506" lon="-8.509202">
        <ele>272.179</ele>
        <time>2022-08-24T08:35:48Z</time>
      </trkpt>
      <trkpt lat="42.886501" lon="-8.509274">
        <ele>272.144</ele>
        <time>2022-08-24T08:35:52Z</time>
      </trkpt>
      <trkpt lat="42.886500" lon="-8.509345">
        <ele>272.158</ele>
        <time>2022-08-24T08:35:56Z</time>
      </trkpt>
      <trkpt lat="42.886503" lon="-8.509425">
        <ele>272.278</ele>
        <time>2022-08-24T08:36:00Z</time>
      </trkpt>
      <trkpt lat="42.886495" lon="-8.509487">
        <ele>272.533</ele>
        <time>2022-08-24T08:36:04Z</time>
      </trkpt>
      <trkpt lat="42.886510" lon="-8.509563">
        <ele>272.626</ele>
        <time>2022-08-24T08:36:08Z</time>
      </trkpt>
      <trkpt lat="42.886538" lon="-8.509619">
        <ele>272.609</ele>
        <time>2022-08-24T08:36:11Z</time>
      </trkpt>
      <trkpt lat="42.886564" lon="-8.509674">
        <ele>272.648</ele>
        <time>2022-08-24T08:36:14Z</time>
      </trkpt>
      <trkpt lat="42.886564" lon="-8.509745">
        <ele>272.678</ele>
        <time>2022-08-24T08:36:18Z</time>
      </trkpt>
      <trkpt lat="42.886556" lon="-8.509812">
        <ele>272.638</ele>
        <time>2022-08-24T08:36:22Z</time>
      </trkpt>
      <trkpt lat="42.886548" lon="-8.509873">
        <ele>272.683</ele>
        <time>2022-08-24T08:36:25Z</time>
      </trkpt>
      <trkpt lat="42.886522" lon="-8.509954">
        <ele>272.631</ele>
        <time>2022-08-24T08:36:29Z</time>
      </trkpt>
      <trkpt lat="42.886508" lon="-8.510017">
        <ele>272.731</ele>
        <time>2022-08-24T08:36:32Z</time>
      </trkpt>
      <trkpt lat="42.886490" lon="-8.510089">
        <ele>272.985</ele>
        <time>2022-08-24T08:36:36Z</time>
      </trkpt>
      <trkpt lat="42.886460" lon="-8.510154">
        <ele>273.060</ele>
        <time>2022-08-24T08:36:40Z</time>
      </trkpt>
      <trkpt lat="42.886416" lon="-8.510190">
        <ele>273.174</ele>
        <time>2022-08-24T08:36:43Z</time>
      </trkpt>
      <trkpt lat="42.886381" lon="-8.510238">
        <ele>273.265</ele>
        <time>2022-08-24T08:36:47Z</time>
      </trkpt>
      <trkpt lat="42.886348" lon="-8.510287">
        <ele>273.368</ele>
        <time>2022-08-24T08:36:51Z</time>
      </trkpt>
      <trkpt lat="42.886318" lon="-8.510340">
        <ele>273.414</ele>
        <time>2022-08-24T08:36:55Z</time>
      </trkpt>
      <trkpt lat="42.886285" lon="-8.510396">
        <ele>273.609</ele>
        <time>2022-08-24T08:36:59Z</time>
      </trkpt>
      <trkpt lat="42.886241" lon="-8.510451">
        <ele>273.737</ele>
        <time>2022-08-24T08:37:03Z</time>
      </trkpt>
      <trkpt lat="42.886213" lon="-8.510509">
        <ele>273.957</ele>
        <time>2022-08-24T08:37:07Z</time>
      </trkpt>
      <trkpt lat="42.886202" lon="-8.510580">
        <ele>274.017</ele>
        <time>2022-08-24T08:37:11Z</time>
      </trkpt>
      <trkpt lat="42.886189" lon="-8.510645">
        <ele>274.062</ele>
        <time>2022-08-24T08:37:14Z</time>
      </trkpt>
      <trkpt lat="42.886179" lon="-8.510714">
        <ele>274.040</ele>
        <time>2022-08-24T08:37:18Z</time>
      </trkpt>
      <trkpt lat="42.886175" lon="-8.510789">
        <ele>274.020</ele>
        <time>2022-08-24T08:37:22Z</time>
      </trkpt>
      <trkpt lat="42.886179" lon="-8.510861">
        <ele>274.074</ele>
        <time>2022-08-24T08:37:26Z</time>
      </trkpt>
      <trkpt lat="42.886193" lon="-8.510923">
        <ele>274.049</ele>
        <time>2022-08-24T08:37:30Z</time>
      </trkpt>
      <trkpt lat="42.886240" lon="-8.510967">
        <ele>274.023</ele>
        <time>2022-08-24T08:37:34Z</time>
      </trkpt>
      <trkpt lat="42.886268" lon="-8.511042">
        <ele>274.071</ele>
        <time>2022-08-24T08:37:39Z</time>
      </trkpt>
      <trkpt lat="42.886305" lon="-8.511081">
        <ele>274.041</ele>
        <time>2022-08-24T08:37:46Z</time>
      </trkpt>
      <trkpt lat="42.886314" lon="-8.511147">
        <ele>274.015</ele>
        <time>2022-08-24T08:37:58Z</time>
      </trkpt>
      <trkpt lat="42.886331" lon="-8.511229">
        <ele>274.009</ele>
        <time>2022-08-24T08:38:02Z</time>
      </trkpt>
      <trkpt lat="42.886344" lon="-8.511313">
        <ele>274.038</ele>
        <time>2022-08-24T08:38:06Z</time>
      </trkpt>
      <trkpt lat="42.886345" lon="-8.511386">
        <ele>274.028</ele>
        <time>2022-08-24T08:38:10Z</time>
      </trkpt>
      <trkpt lat="42.886344" lon="-8.511457">
        <ele>273.988</ele>
        <time>2022-08-24T08:38:14Z</time>
      </trkpt>
      <trkpt lat="42.886330" lon="-8.511548">
        <ele>273.993</ele>
        <time>2022-08-24T08:38:30Z</time>
      </trkpt>
      <trkpt lat="42.886332" lon="-8.511620">
        <ele>273.971</ele>
        <time>2022-08-24T08:38:33Z</time>
      </trkpt>
      <trkpt lat="42.886341" lon="-8.511684">
        <ele>274.111</ele>
        <time>2022-08-24T08:38:37Z</time>
      </trkpt>
      <trkpt lat="42.886344" lon="-8.511762">
        <ele>274.195</ele>
        <time>2022-08-24T08:38:41Z</time>
      </trkpt>
      <trkpt lat="42.886344" lon="-8.511831">
        <ele>274.110</ele>
        <time>2022-08-24T08:38:45Z</time>
      </trkpt>
      <trkpt lat="42.886350" lon="-8.511901">
        <ele>274.174</ele>
        <time>2022-08-24T08:38:49Z</time>
      </trkpt>
      <trkpt lat="42.886359" lon="-8.511980">
        <ele>274.185</ele>
        <time>2022-08-24T08:38:53Z</time>
      </trkpt>
      <trkpt lat="42.886357" lon="-8.512058">
        <ele>274.189</ele>
        <time>2022-08-24T08:38:58Z</time>
      </trkpt>
      <trkpt lat="42.886346" lon="-8.512132">
        <ele>274.117</ele>
        <time>2022-08-24T08:39:02Z</time>
      </trkpt>
      <trkpt lat="42.886355" lon="-8.512201">
        <ele>274.109</ele>
        <time>2022-08-24T08:39:06Z</time>
      </trkpt>
      <trkpt lat="42.886356" lon="-8.512274">
        <ele>274.269</ele>
        <time>2022-08-24T08:39:10Z</time>
      </trkpt>
      <trkpt lat="42.886361" lon="-8.512340">
        <ele>274.289</ele>
        <time>2022-08-24T08:39:14Z</time>
      </trkpt>
      <trkpt lat="42.886362" lon="-8.512413">
        <ele>274.279</ele>
        <time>2022-08-24T08:39:18Z</time>
      </trkpt>
      <trkpt lat="42.886366" lon="-8.512487">
        <ele>274.324</ele>
        <time>2022-08-24T08:39:22Z</time>
      </trkpt>
      <trkpt lat="42.886367" lon="-8.512561">
        <ele>274.512</ele>
        <time>2022-08-24T08:39:26Z</time>
      </trkpt>
      <trkpt lat="42.886365" lon="-8.512630">
        <ele>274.832</ele>
        <time>2022-08-24T08:39:30Z</time>
      </trkpt>
      <trkpt lat="42.886370" lon="-8.512702">
        <ele>275.056</ele>
        <time>2022-08-24T08:39:34Z</time>
      </trkpt>
      <trkpt lat="42.886373" lon="-8.512780">
        <ele>275.271</ele>
        <time>2022-08-24T08:39:38Z</time>
      </trkpt>
      <trkpt lat="42.886375" lon="-8.512850">
        <ele>275.215</ele>
        <time>2022-08-24T08:39:42Z</time>
      </trkpt>
      <trkpt lat="42.886386" lon="-8.512913">
        <ele>275.328</ele>
        <time>2022-08-24T08:39:45Z</time>
      </trkpt>
      <trkpt lat="42.886356" lon="-8.512977">
        <ele>275.589</ele>
        <time>2022-08-24T08:39:49Z</time>
      </trkpt>
      <trkpt lat="42.886314" lon="-8.513029">
        <ele>275.617</ele>
        <time>2022-08-24T08:39:53Z</time>
      </trkpt>
      <trkpt lat="42.886321" lon="-8.513109">
        <ele>275.709</ele>
        <time>2022-08-24T08:39:57Z</time>
      </trkpt>
      <trkpt lat="42.886339" lon="-8.513171">
        <ele>275.783</ele>
        <time>2022-08-24T08:40:01Z</time>
      </trkpt>
      <trkpt lat="42.886336" lon="-8.513236">
        <ele>275.813</ele>
        <time>2022-08-24T08:40:05Z</time>
      </trkpt>
      <trkpt lat="42.886333" lon="-8.513304">
        <ele>275.953</ele>
        <time>2022-08-24T08:40:09Z</time>
      </trkpt>
      <trkpt lat="42.886340" lon="-8.513380">
        <ele>276.128</ele>
        <time>2022-08-24T08:40:14Z</time>
      </trkpt>
      <trkpt lat="42.886340" lon="-8.513441">
        <ele>276.366</ele>
        <time>2022-08-24T08:40:17Z</time>
      </trkpt>
      <trkpt lat="42.886337" lon="-8.513518">
        <ele>276.566</ele>
        <time>2022-08-24T08:40:21Z</time>
      </trkpt>
      <trkpt lat="42.886324" lon="-8.513593">
        <ele>276.710</ele>
        <time>2022-08-24T08:40:26Z</time>
      </trkpt>
      <trkpt lat="42.886321" lon="-8.513660">
        <ele>276.895</ele>
        <time>2022-08-24T08:40:30Z</time>
      </trkpt>
      <trkpt lat="42.886321" lon="-8.513730">
        <ele>276.939</ele>
        <time>2022-08-24T08:40:34Z</time>
      </trkpt>
      <trkpt lat="42.886315" lon="-8.513794">
        <ele>277.064</ele>
        <time>2022-08-24T08:40:38Z</time>
      </trkpt>
      <trkpt lat="42.886311" lon="-8.513863">
        <ele>277.006</ele>
        <time>2022-08-24T08:40:42Z</time>
      </trkpt>
      <trkpt lat="42.886307" lon="-8.513928">
        <ele>277.016</ele>
        <time>2022-08-24T08:40:46Z</time>
      </trkpt>
      <trkpt lat="42.886306" lon="-8.514000">
        <ele>277.109</ele>
        <time>2022-08-24T08:40:50Z</time>
      </trkpt>
      <trkpt lat="42.886303" lon="-8.514076">
        <ele>277.227</ele>
        <time>2022-08-24T08:40:54Z</time>
      </trkpt>
      <trkpt lat="42.886307" lon="-8.514146">
        <ele>277.577</ele>
        <time>2022-08-24T08:40:58Z</time>
      </trkpt>
      <trkpt lat="42.886309" lon="-8.514214">
        <ele>277.867</ele>
        <time>2022-08-24T08:41:02Z</time>
      </trkpt>
      <trkpt lat="42.886302" lon="-8.514277">
        <ele>278.192</ele>
        <time>2022-08-24T08:41:06Z</time>
      </trkpt>
      <trkpt lat="42.886301" lon="-8.514339">
        <ele>278.260</ele>
        <time>2022-08-24T08:41:09Z</time>
      </trkpt>
      <trkpt lat="42.886306" lon="-8.514404">
        <ele>278.240</ele>
        <time>2022-08-24T08:41:13Z</time>
      </trkpt>
      <trkpt lat="42.886307" lon="-8.514466">
        <ele>278.314</ele>
        <time>2022-08-24T08:41:18Z</time>
      </trkpt>
      <trkpt lat="42.886309" lon="-8.514535">
        <ele>278.579</ele>
        <time>2022-08-24T08:41:21Z</time>
      </trkpt>
      <trkpt lat="42.886314" lon="-8.514608">
        <ele>278.773</ele>
        <time>2022-08-24T08:41:26Z</time>
      </trkpt>
      <trkpt lat="42.886327" lon="-8.514678">
        <ele>278.846</ele>
        <time>2022-08-24T08:41:30Z</time>
      </trkpt>
      <trkpt lat="42.886328" lon="-8.514748">
        <ele>278.988</ele>
        <time>2022-08-24T08:41:34Z</time>
      </trkpt>
      <trkpt lat="42.886347" lon="-8.514806">
        <ele>279.016</ele>
        <time>2022-08-24T08:41:37Z</time>
      </trkpt>
      <trkpt lat="42.886352" lon="-8.514875">
        <ele>279.009</ele>
        <time>2022-08-24T08:41:41Z</time>
      </trkpt>
      <trkpt lat="42.886367" lon="-8.514943">
        <ele>279.165</ele>
        <time>2022-08-24T08:41:45Z</time>
      </trkpt>
      <trkpt lat="42.886361" lon="-8.515011">
        <ele>279.365</ele>
        <time>2022-08-24T08:41:50Z</time>
      </trkpt>
      <trkpt lat="42.886338" lon="-8.515072">
        <ele>279.595</ele>
        <time>2022-08-24T08:41:54Z</time>
      </trkpt>
      <trkpt lat="42.886324" lon="-8.515138">
        <ele>279.710</ele>
        <time>2022-08-24T08:41:57Z</time>
      </trkpt>
      <trkpt lat="42.886316" lon="-8.515216">
        <ele>279.998</ele>
        <time>2022-08-24T08:42:01Z</time>
      </trkpt>
      <trkpt lat="42.886314" lon="-8.515281">
        <ele>280.048</ele>
        <time>2022-08-24T08:42:06Z</time>
      </trkpt>
      <trkpt lat="42.886317" lon="-8.515350">
        <ele>280.152</ele>
        <time>2022-08-24T08:42:09Z</time>
      </trkpt>
      <trkpt lat="42.886322" lon="-8.515424">
        <ele>280.247</ele>
        <time>2022-08-24T08:42:13Z</time>
      </trkpt>
      <trkpt lat="42.886333" lon="-8.515490">
        <ele>280.241</ele>
        <time>2022-08-24T08:42:17Z</time>
      </trkpt>
      <trkpt lat="42.886339" lon="-8.515564">
        <ele>280.224</ele>
        <time>2022-08-24T08:42:21Z</time>
      </trkpt>
      <trkpt lat="42.886340" lon="-8.515631">
        <ele>280.204</ele>
        <time>2022-08-24T08:42:25Z</time>
      </trkpt>
      <trkpt lat="42.886333" lon="-8.515695">
        <ele>280.314</ele>
        <time>2022-08-24T08:42:29Z</time>
      </trkpt>
      <trkpt lat="42.886309" lon="-8.515764">
        <ele>280.509</ele>
        <time>2022-08-24T08:42:34Z</time>
      </trkpt>
      <trkpt lat="42.886293" lon="-8.515832">
        <ele>280.823</ele>
        <time>2022-08-24T08:42:39Z</time>
      </trkpt>
      <trkpt lat="42.886297" lon="-8.515894">
        <ele>281.333</ele>
        <time>2022-08-24T08:42:42Z</time>
      </trkpt>
      <trkpt lat="42.886309" lon="-8.515956">
        <ele>281.653</ele>
        <time>2022-08-24T08:42:45Z</time>
      </trkpt>
      <trkpt lat="42.886316" lon="-8.516024">
        <ele>281.898</ele>
        <time>2022-08-24T08:42:49Z</time>
      </trkpt>
      <trkpt lat="42.886317" lon="-8.516089">
        <ele>282.086</ele>
        <time>2022-08-24T08:42:53Z</time>
      </trkpt>
      <trkpt lat="42.886328" lon="-8.516163">
        <ele>282.156</ele>
        <time>2022-08-24T08:42:57Z</time>
      </trkpt>
      <trkpt lat="42.886328" lon="-8.516226">
        <ele>282.270</ele>
        <time>2022-08-24T08:43:01Z</time>
      </trkpt>
      <trkpt lat="42.886339" lon="-8.516291">
        <ele>282.445</ele>
        <time>2022-08-24T08:43:05Z</time>
      </trkpt>
      <trkpt lat="42.886329" lon="-8.516363">
        <ele>282.649</ele>
        <time>2022-08-24T08:43:10Z</time>
      </trkpt>
      <trkpt lat="42.886332" lon="-8.516426">
        <ele>282.864</ele>
        <time>2022-08-24T08:43:13Z</time>
      </trkpt>
      <trkpt lat="42.886333" lon="-8.516490">
        <ele>283.006</ele>
        <time>2022-08-24T08:43:17Z</time>
      </trkpt>
      <trkpt lat="42.886326" lon="-8.516567">
        <ele>283.216</ele>
        <time>2022-08-24T08:43:21Z</time>
      </trkpt>
      <trkpt lat="42.886309" lon="-8.516638">
        <ele>283.409</ele>
        <time>2022-08-24T08:43:25Z</time>
      </trkpt>
      <trkpt lat="42.886297" lon="-8.516703">
        <ele>283.797</ele>
        <time>2022-08-24T08:43:29Z</time>
      </trkpt>
      <trkpt lat="42.886292" lon="-8.516771">
        <ele>283.927</ele>
        <time>2022-08-24T08:43:33Z</time>
      </trkpt>
      <trkpt lat="42.886289" lon="-8.516839">
        <ele>284.097</ele>
        <time>2022-08-24T08:43:37Z</time>
      </trkpt>
      <trkpt lat="42.886281" lon="-8.516900">
        <ele>284.142</ele>
        <time>2022-08-24T08:43:41Z</time>
      </trkpt>
      <trkpt lat="42.886278" lon="-8.516967">
        <ele>284.290</ele>
        <time>2022-08-24T08:43:45Z</time>
      </trkpt>
      <trkpt lat="42.886270" lon="-8.517048">
        <ele>284.480</ele>
        <time>2022-08-24T08:43:50Z</time>
      </trkpt>
      <trkpt lat="42.886290" lon="-8.517105">
        <ele>284.614</ele>
        <time>2022-08-24T08:43:53Z</time>
      </trkpt>
      <trkpt lat="42.886296" lon="-8.517178">
        <ele>284.749</ele>
        <time>2022-08-24T08:43:57Z</time>
      </trkpt>
      <trkpt lat="42.886335" lon="-8.517212">
        <ele>284.713</ele>
        <time>2022-08-24T08:44:02Z</time>
      </trkpt>
      <trkpt lat="42.886373" lon="-8.517254">
        <ele>284.718</ele>
        <time>2022-08-24T08:44:06Z</time>
      </trkpt>
      <trkpt lat="42.886403" lon="-8.517307">
        <ele>284.798</ele>
        <time>2022-08-24T08:44:10Z</time>
      </trkpt>
      <trkpt lat="42.886420" lon="-8.517364">
        <ele>284.717</ele>
        <time>2022-08-24T08:44:14Z</time>
      </trkpt>
      <trkpt lat="42.886430" lon="-8.517441">
        <ele>284.709</ele>
        <time>2022-08-24T08:44:19Z</time>
      </trkpt>
      <trkpt lat="42.886420" lon="-8.517501">
        <ele>284.742</ele>
        <time>2022-08-24T08:44:23Z</time>
      </trkpt>
      <trkpt lat="42.886414" lon="-8.517568">
        <ele>284.872</ele>
        <time>2022-08-24T08:44:27Z</time>
      </trkpt>
      <trkpt lat="42.886422" lon="-8.517636">
        <ele>285.062</ele>
        <time>2022-08-24T08:44:30Z</time>
      </trkpt>
      <trkpt lat="42.886429" lon="-8.517698">
        <ele>285.287</ele>
        <time>2022-08-24T08:44:33Z</time>
      </trkpt>
      <trkpt lat="42.886452" lon="-8.517755">
        <ele>285.375</ele>
        <time>2022-08-24T08:44:36Z</time>
      </trkpt>
      <trkpt lat="42.886460" lon="-8.517821">
        <ele>285.375</ele>
        <time>2022-08-24T08:44:40Z</time>
      </trkpt>
      <trkpt lat="42.886473" lon="-8.517882">
        <ele>285.399</ele>
        <time>2022-08-24T08:44:44Z</time>
      </trkpt>
      <trkpt lat="42.886490" lon="-8.517942">
        <ele>285.314</ele>
        <time>2022-08-24T08:44:48Z</time>
      </trkpt>
      <trkpt lat="42.886502" lon="-8.518014">
        <ele>285.378</ele>
        <time>2022-08-24T08:44:52Z</time>
      </trkpt>
      <trkpt lat="42.886518" lon="-8.518085">
        <ele>285.345</ele>
        <time>2022-08-24T08:44:56Z</time>
      </trkpt>
      <trkpt lat="42.886542" lon="-8.518150">
        <ele>285.447</ele>
        <time>2022-08-24T08:45:00Z</time>
      </trkpt>
      <trkpt lat="42.886548" lon="-8.518220">
        <ele>285.511</ele>
        <time>2022-08-24T08:45:05Z</time>
      </trkpt>
      <trkpt lat="42.886571" lon="-8.518292">
        <ele>285.609</ele>
        <time>2022-08-24T08:45:09Z</time>
      </trkpt>
      <trkpt lat="42.886593" lon="-8.518361">
        <ele>285.835</ele>
        <time>2022-08-24T08:45:13Z</time>
      </trkpt>
      <trkpt lat="42.886634" lon="-8.518409">
        <ele>286.095</ele>
        <time>2022-08-24T08:45:16Z</time>
      </trkpt>
      <trkpt lat="42.886660" lon="-8.518462">
        <ele>286.225</ele>
        <time>2022-08-24T08:45:19Z</time>
      </trkpt>
      <trkpt lat="42.886715" lon="-8.518509">
        <ele>286.550</ele>
        <time>2022-08-24T08:45:22Z</time>
      </trkpt>
      <trkpt lat="42.886747" lon="-8.518556">
        <ele>286.548</ele>
        <time>2022-08-24T08:45:25Z</time>
      </trkpt>
      <trkpt lat="42.886756" lon="-8.518623">
        <ele>286.568</ele>
        <time>2022-08-24T08:45:29Z</time>
      </trkpt>
      <trkpt lat="42.886742" lon="-8.518686">
        <ele>286.672</ele>
        <time>2022-08-24T08:45:33Z</time>
      </trkpt>
      <trkpt lat="42.886733" lon="-8.518758">
        <ele>286.767</ele>
        <time>2022-08-24T08:45:38Z</time>
      </trkpt>
      <trkpt lat="42.886724" lon="-8.518838">
        <ele>286.871</ele>
        <time>2022-08-24T08:45:42Z</time>
      </trkpt>
      <trkpt lat="42.886728" lon="-8.518908">
        <ele>286.918</ele>
        <time>2022-08-24T08:45:46Z</time>
      </trkpt>
      <trkpt lat="42.886700" lon="-8.518959">
        <ele>287.198</ele>
        <time>2022-08-24T08:45:49Z</time>
      </trkpt>
      <trkpt lat="42.886673" lon="-8.519009">
        <ele>287.317</ele>
        <time>2022-08-24T08:45:52Z</time>
      </trkpt>
      <trkpt lat="42.886670" lon="-8.519077">
        <ele>287.509</ele>
        <time>2022-08-24T08:45:55Z</time>
      </trkpt>
      <trkpt lat="42.886667" lon="-8.519156">
        <ele>287.512</ele>
        <time>2022-08-24T08:45:59Z</time>
      </trkpt>
      <trkpt lat="42.886677" lon="-8.519222">
        <ele>287.522</ele>
        <time>2022-08-24T08:46:03Z</time>
      </trkpt>
      <trkpt lat="42.886707" lon="-8.519285">
        <ele>287.432</ele>
        <time>2022-08-24T08:46:07Z</time>
      </trkpt>
      <trkpt lat="42.886714" lon="-8.519350">
        <ele>287.337</ele>
        <time>2022-08-24T08:46:11Z</time>
      </trkpt>
      <trkpt lat="42.886715" lon="-8.519414">
        <ele>287.395</ele>
        <time>2022-08-24T08:46:15Z</time>
      </trkpt>
      <trkpt lat="42.886728" lon="-8.519480">
        <ele>287.345</ele>
        <time>2022-08-24T08:46:19Z</time>
      </trkpt>
      <trkpt lat="42.886729" lon="-8.519552">
        <ele>287.329</ele>
        <time>2022-08-24T08:46:23Z</time>
      </trkpt>
      <trkpt lat="42.886728" lon="-8.519626">
        <ele>287.384</ele>
        <time>2022-08-24T08:46:27Z</time>
      </trkpt>
      <trkpt lat="42.886733" lon="-8.519690">
        <ele>287.388</ele>
        <time>2022-08-24T08:46:31Z</time>
      </trkpt>
      <trkpt lat="42.886751" lon="-8.519756">
        <ele>287.362</ele>
        <time>2022-08-24T08:46:35Z</time>
      </trkpt>
      <trkpt lat="42.886768" lon="-8.519813">
        <ele>287.283</ele>
        <time>2022-08-24T08:46:39Z</time>
      </trkpt>
      <trkpt lat="42.886769" lon="-8.519879">
        <ele>287.111</ele>
        <time>2022-08-24T08:46:43Z</time>
      </trkpt>
      <trkpt lat="42.886744" lon="-8.519935">
        <ele>287.109</ele>
        <time>2022-08-24T08:46:46Z</time>
      </trkpt>
      <trkpt lat="42.886729" lon="-8.520003">
        <ele>287.057</ele>
        <time>2022-08-24T08:46:50Z</time>
      </trkpt>
      <trkpt lat="42.886726" lon="-8.520073">
        <ele>286.957</ele>
        <time>2022-08-24T08:46:55Z</time>
      </trkpt>
      <trkpt lat="42.886750" lon="-8.520133">
        <ele>286.917</ele>
        <time>2022-08-24T08:46:59Z</time>
      </trkpt>
      <trkpt lat="42.886759" lon="-8.520196">
        <ele>286.822</ele>
        <time>2022-08-24T08:47:03Z</time>
      </trkpt>
      <trkpt lat="42.886766" lon="-8.520268">
        <ele>286.750</ele>
        <time>2022-08-24T08:47:07Z</time>
      </trkpt>
      <trkpt lat="42.886765" lon="-8.520334">
        <ele>286.680</ele>
        <time>2022-08-24T08:47:12Z</time>
      </trkpt>
      <trkpt lat="42.886769" lon="-8.520405">
        <ele>286.534</ele>
        <time>2022-08-24T08:47:16Z</time>
      </trkpt>
      <trkpt lat="42.886779" lon="-8.520469">
        <ele>286.319</ele>
        <time>2022-08-24T08:47:21Z</time>
      </trkpt>
      <trkpt lat="42.886773" lon="-8.520547">
        <ele>286.143</ele>
        <time>2022-08-24T08:47:25Z</time>
      </trkpt>
      <trkpt lat="42.886787" lon="-8.520621">
        <ele>285.936</ele>
        <time>2022-08-24T08:47:30Z</time>
      </trkpt>
      <trkpt lat="42.886806" lon="-8.520690">
        <ele>285.717</ele>
        <time>2022-08-24T08:47:35Z</time>
      </trkpt>
      <trkpt lat="42.886824" lon="-8.520751">
        <ele>285.418</ele>
        <time>2022-08-24T08:47:39Z</time>
      </trkpt>
      <trkpt lat="42.886830" lon="-8.520816">
        <ele>285.209</ele>
        <time>2022-08-24T08:47:42Z</time>
      </trkpt>
      <trkpt lat="42.886841" lon="-8.520876">
        <ele>285.134</ele>
        <time>2022-08-24T08:47:45Z</time>
      </trkpt>
      <trkpt lat="42.886849" lon="-8.520936">
        <ele>285.194</ele>
        <time>2022-08-24T08:47:48Z</time>
      </trkpt>
      <trkpt lat="42.886872" lon="-8.521001">
        <ele>285.044</ele>
        <time>2022-08-24T08:47:52Z</time>
      </trkpt>
      <trkpt lat="42.886882" lon="-8.521077">
        <ele>284.929</ele>
        <time>2022-08-24T08:47:56Z</time>
      </trkpt>
      <trkpt lat="42.886888" lon="-8.521150">
        <ele>284.877</ele>
        <time>2022-08-24T08:48:00Z</time>
      </trkpt>
      <trkpt lat="42.886908" lon="-8.521213">
        <ele>284.737</ele>
        <time>2022-08-24T08:48:04Z</time>
      </trkpt>
      <trkpt lat="42.886925" lon="-8.521282">
        <ele>284.521</ele>
        <time>2022-08-24T08:48:08Z</time>
      </trkpt>
      <trkpt lat="42.886948" lon="-8.521336">
        <ele>284.216</ele>
        <time>2022-08-24T08:48:11Z</time>
      </trkpt>
      <trkpt lat="42.886969" lon="-8.521396">
        <ele>284.090</ele>
        <time>2022-08-24T08:48:16Z</time>
      </trkpt>
      <trkpt lat="42.886983" lon="-8.521468">
        <ele>283.983</ele>
        <time>2022-08-24T08:48:20Z</time>
      </trkpt>
      <trkpt lat="42.887008" lon="-8.521536">
        <ele>283.925</ele>
        <time>2022-08-24T08:48:24Z</time>
      </trkpt>
      <trkpt lat="42.887013" lon="-8.521609">
        <ele>283.917</ele>
        <time>2022-08-24T08:48:28Z</time>
      </trkpt>
      <trkpt lat="42.887020" lon="-8.521670">
        <ele>283.809</ele>
        <time>2022-08-24T08:48:32Z</time>
      </trkpt>
      <trkpt lat="42.887050" lon="-8.521722">
        <ele>283.759</ele>
        <time>2022-08-24T08:48:36Z</time>
      </trkpt>
      <trkpt lat="42.887094" lon="-8.521790">
        <ele>283.619</ele>
        <time>2022-08-24T08:48:40Z</time>
      </trkpt>
      <trkpt lat="42.887126" lon="-8.521847">
        <ele>283.529</ele>
        <time>2022-08-24T08:48:44Z</time>
      </trkpt>
      <trkpt lat="42.887128" lon="-8.521916">
        <ele>283.364</ele>
        <time>2022-08-24T08:48:50Z</time>
      </trkpt>
      <trkpt lat="42.887149" lon="-8.521972">
        <ele>283.222</ele>
        <time>2022-08-24T08:48:53Z</time>
      </trkpt>
      <trkpt lat="42.887166" lon="-8.522036">
        <ele>283.072</ele>
        <time>2022-08-24T08:48:57Z</time>
      </trkpt>
      <trkpt lat="42.887172" lon="-8.522109">
        <ele>282.956</ele>
        <time>2022-08-24T08:49:01Z</time>
      </trkpt>
      <trkpt lat="42.887176" lon="-8.522181">
        <ele>282.841</ele>
        <time>2022-08-24T08:49:05Z</time>
      </trkpt>
      <trkpt lat="42.887184" lon="-8.522263">
        <ele>282.715</ele>
        <time>2022-08-24T08:49:09Z</time>
      </trkpt>
      <trkpt lat="42.887190" lon="-8.522342">
        <ele>282.564</ele>
        <time>2022-08-24T08:49:14Z</time>
      </trkpt>
      <trkpt lat="42.887212" lon="-8.522398">
        <ele>282.306</ele>
        <time>2022-08-24T08:49:17Z</time>
      </trkpt>
      <trkpt lat="42.887242" lon="-8.522465">
        <ele>282.216</ele>
        <time>2022-08-24T08:49:21Z</time>
      </trkpt>
      <trkpt lat="42.887287" lon="-8.522513">
        <ele>282.109</ele>
        <time>2022-08-24T08:49:24Z</time>
      </trkpt>
      <trkpt lat="42.887322" lon="-8.522575">
        <ele>281.887</ele>
        <time>2022-08-24T08:49:28Z</time>
      </trkpt>
      <trkpt lat="42.887350" lon="-8.522625">
        <ele>281.727</ele>
        <time>2022-08-24T08:49:31Z</time>
      </trkpt>
      <trkpt lat="42.887379" lon="-8.522692">
        <ele>281.567</ele>
        <time>2022-08-24T08:49:35Z</time>
      </trkpt>
      <trkpt lat="42.887399" lon="-8.522748">
        <ele>281.542</ele>
        <time>2022-08-24T08:49:39Z</time>
      </trkpt>
      <trkpt lat="42.887413" lon="-8.522817">
        <ele>281.480</ele>
        <time>2022-08-24T08:49:43Z</time>
      </trkpt>
      <trkpt lat="42.887426" lon="-8.522886">
        <ele>281.350</ele>
        <time>2022-08-24T08:49:47Z</time>
      </trkpt>
      <trkpt lat="42.887441" lon="-8.522947">
        <ele>281.234</ele>
        <time>2022-08-24T08:49:50Z</time>
      </trkpt>
      <trkpt lat="42.887460" lon="-8.523009">
        <ele>281.199</ele>
        <time>2022-08-24T08:49:54Z</time>
      </trkpt>
      <trkpt lat="42.887469" lon="-8.523078">
        <ele>281.043</ele>
        <time>2022-08-24T08:49:58Z</time>
      </trkpt>
      <trkpt lat="42.887459" lon="-8.523148">
        <ele>280.934</ele>
        <time>2022-08-24T08:50:03Z</time>
      </trkpt>
      <trkpt lat="42.887447" lon="-8.523214">
        <ele>280.855</ele>
        <time>2022-08-24T08:50:07Z</time>
      </trkpt>
      <trkpt lat="42.887460" lon="-8.523277">
        <ele>280.710</ele>
        <time>2022-08-24T08:50:11Z</time>
      </trkpt>
      <trkpt lat="42.887424" lon="-8.523356">
        <ele>280.609</ele>
        <time>2022-08-24T08:50:16Z</time>
      </trkpt>
      <trkpt lat="42.887365" lon="-8.523408">
        <ele>280.514</ele>
        <time>2022-08-24T08:50:18Z</time>
      </trkpt>
      <trkpt lat="42.887327" lon="-8.523454">
        <ele>280.434</ele>
        <time>2022-08-24T08:50:20Z</time>
      </trkpt>
      <trkpt lat="42.887286" lon="-8.523513">
        <ele>280.494</ele>
        <time>2022-08-24T08:50:23Z</time>
      </trkpt>
      <trkpt lat="42.887265" lon="-8.523576">
        <ele>280.459</ele>
        <time>2022-08-24T08:50:27Z</time>
      </trkpt>
      <trkpt lat="42.887286" lon="-8.523630">
        <ele>280.137</ele>
        <time>2022-08-24T08:50:33Z</time>
      </trkpt>
      <trkpt lat="42.887311" lon="-8.523682">
        <ele>279.977</ele>
        <time>2022-08-24T08:50:37Z</time>
      </trkpt>
      <trkpt lat="42.887342" lon="-8.523748">
        <ele>279.781</ele>
        <time>2022-08-24T08:50:40Z</time>
      </trkpt>
      <trkpt lat="42.887354" lon="-8.523823">
        <ele>279.756</ele>
        <time>2022-08-24T08:50:44Z</time>
      </trkpt>
      <trkpt lat="42.887345" lon="-8.523895">
        <ele>279.740</ele>
        <time>2022-08-24T08:50:48Z</time>
      </trkpt>
      <trkpt lat="42.887355" lon="-8.523955">
        <ele>279.756</ele>
        <time>2022-08-24T08:50:51Z</time>
      </trkpt>
      <trkpt lat="42.887348" lon="-8.524020">
        <ele>279.759</ele>
        <time>2022-08-24T08:50:54Z</time>
      </trkpt>
      <trkpt lat="42.887339" lon="-8.524092">
        <ele>279.714</ele>
        <time>2022-08-24T08:50:58Z</time>
      </trkpt>
      <trkpt lat="42.887331" lon="-8.524157">
        <ele>279.709</ele>
        <time>2022-08-24T08:51:02Z</time>
      </trkpt>
      <trkpt lat="42.887318" lon="-8.524230">
        <ele>279.676</ele>
        <time>2022-08-24T08:51:06Z</time>
      </trkpt>
      <trkpt lat="42.887314" lon="-8.524292">
        <ele>279.566</ele>
        <time>2022-08-24T08:51:10Z</time>
      </trkpt>
      <trkpt lat="42.887314" lon="-8.524369">
        <ele>279.486</ele>
        <time>2022-08-24T08:51:15Z</time>
      </trkpt>
      <trkpt lat="42.887309" lon="-8.524451">
        <ele>279.371</ele>
        <time>2022-08-24T08:51:19Z</time>
      </trkpt>
      <trkpt lat="42.887299" lon="-8.524522">
        <ele>279.259</ele>
        <time>2022-08-24T08:51:24Z</time>
      </trkpt>
      <trkpt lat="42.887297" lon="-8.524587">
        <ele>279.249</ele>
        <time>2022-08-24T08:51:28Z</time>
      </trkpt>
      <trkpt lat="42.887323" lon="-8.524653">
        <ele>279.233</ele>
        <time>2022-08-24T08:51:31Z</time>
      </trkpt>
      <trkpt lat="42.887316" lon="-8.524736">
        <ele>279.228</ele>
        <time>2022-08-24T08:51:36Z</time>
      </trkpt>
      <trkpt lat="42.887319" lon="-8.524806">
        <ele>279.272</ele>
        <time>2022-08-24T08:51:41Z</time>
      </trkpt>
      <trkpt lat="42.887339" lon="-8.524863">
        <ele>279.266</ele>
        <time>2022-08-24T08:51:44Z</time>
      </trkpt>
      <trkpt lat="42.887343" lon="-8.524925">
        <ele>279.129</ele>
        <time>2022-08-24T08:51:48Z</time>
      </trkpt>
      <trkpt lat="42.887342" lon="-8.525006">
        <ele>278.921</ele>
        <time>2022-08-24T08:51:52Z</time>
      </trkpt>
      <trkpt lat="42.887339" lon="-8.525078">
        <ele>278.809</ele>
        <time>2022-08-24T08:51:56Z</time>
      </trkpt>
      <trkpt lat="42.887333" lon="-8.525144">
        <ele>278.747</ele>
        <time>2022-08-24T08:52:00Z</time>
      </trkpt>
      <trkpt lat="42.887322" lon="-8.525207">
        <ele>278.667</ele>
        <time>2022-08-24T08:52:04Z</time>
      </trkpt>
      <trkpt lat="42.887324" lon="-8.525282">
        <ele>278.547</ele>
        <time>2022-08-24T08:52:08Z</time>
      </trkpt>
      <trkpt lat="42.887310" lon="-8.525351">
        <ele>278.452</ele>
        <time>2022-08-24T08:52:13Z</time>
      </trkpt>
      <trkpt lat="42.887308" lon="-8.525418">
        <ele>278.310</ele>
        <time>2022-08-24T08:52:17Z</time>
      </trkpt>
      <trkpt lat="42.887279" lon="-8.525482">
        <ele>278.290</ele>
        <time>2022-08-24T08:52:20Z</time>
      </trkpt>
      <trkpt lat="42.887244" lon="-8.525540">
        <ele>278.274</ele>
        <time>2022-08-24T08:52:24Z</time>
      </trkpt>
      <trkpt lat="42.887222" lon="-8.525602">
        <ele>278.219</ele>
        <time>2022-08-24T08:52:28Z</time>
      </trkpt>
      <trkpt lat="42.887182" lon="-8.525661">
        <ele>278.293</ele>
        <time>2022-08-24T08:52:33Z</time>
      </trkpt>
      <trkpt lat="42.887155" lon="-8.525733">
        <ele>278.348</ele>
        <time>2022-08-24T08:52:37Z</time>
      </trkpt>
      <trkpt lat="42.887128" lon="-8.525811">
        <ele>278.461</ele>
        <time>2022-08-24T08:52:41Z</time>
      </trkpt>
      <trkpt lat="42.887129" lon="-8.525876">
        <ele>278.417</ele>
        <time>2022-08-24T08:52:44Z</time>
      </trkpt>
      <trkpt lat="42.887120" lon="-8.525946">
        <ele>278.409</ele>
        <time>2022-08-24T08:52:48Z</time>
      </trkpt>
      <trkpt lat="42.887102" lon="-8.526014">
        <ele>278.355</ele>
        <time>2022-08-24T08:52:51Z</time>
      </trkpt>
      <trkpt lat="42.887071" lon="-8.526068">
        <ele>278.375</ele>
        <time>2022-08-24T08:52:54Z</time>
      </trkpt>
      <trkpt lat="42.887050" lon="-8.526131">
        <ele>278.395</ele>
        <time>2022-08-24T08:52:58Z</time>
      </trkpt>
      <trkpt lat="42.887022" lon="-8.526186">
        <ele>278.380</ele>
        <time>2022-08-24T08:53:02Z</time>
      </trkpt>
      <trkpt lat="42.886998" lon="-8.526248">
        <ele>278.398</ele>
        <time>2022-08-24T08:53:07Z</time>
      </trkpt>
      <trkpt lat="42.886969" lon="-8.526313">
        <ele>278.358</ele>
        <time>2022-08-24T08:53:11Z</time>
      </trkpt>
      <trkpt lat="42.886934" lon="-8.526379">
        <ele>278.322</ele>
        <time>2022-08-24T08:53:15Z</time>
      </trkpt>
      <trkpt lat="42.886897" lon="-8.526422">
        <ele>278.337</ele>
        <time>2022-08-24T08:53:18Z</time>
      </trkpt>
      <trkpt lat="42.886865" lon="-8.526477">
        <ele>278.341</ele>
        <time>2022-08-24T08:53:22Z</time>
      </trkpt>
      <trkpt lat="42.886822" lon="-8.526518">
        <ele>278.346</ele>
        <time>2022-08-24T08:53:25Z</time>
      </trkpt>
      <trkpt lat="42.886797" lon="-8.526573">
        <ele>278.388</ele>
        <time>2022-08-24T08:53:28Z</time>
      </trkpt>
      <trkpt lat="42.886768" lon="-8.526627">
        <ele>278.316</ele>
        <time>2022-08-24T08:53:32Z</time>
      </trkpt>
      <trkpt lat="42.886749" lon="-8.526686">
        <ele>278.309</ele>
        <time>2022-08-24T08:53:36Z</time>
      </trkpt>
      <trkpt lat="42.886726" lon="-8.526739">
        <ele>278.395</ele>
        <time>2022-08-24T08:53:39Z</time>
      </trkpt>
      <trkpt lat="42.886697" lon="-8.526807">
        <ele>278.395</ele>
        <time>2022-08-24T08:53:43Z</time>
      </trkpt>
      <trkpt lat="42.886665" lon="-8.526861">
        <ele>278.355</ele>
        <time>2022-08-24T08:53:47Z</time>
      </trkpt>
      <trkpt lat="42.886632" lon="-8.526913">
        <ele>278.330</ele>
        <time>2022-08-24T08:53:51Z</time>
      </trkpt>
      <trkpt lat="42.886598" lon="-8.526972">
        <ele>278.328</ele>
        <time>2022-08-24T08:53:55Z</time>
      </trkpt>
      <trkpt lat="42.886576" lon="-8.527033">
        <ele>278.398</ele>
        <time>2022-08-24T08:54:00Z</time>
      </trkpt>
      <trkpt lat="42.886554" lon="-8.527098">
        <ele>278.342</ele>
        <time>2022-08-24T08:54:03Z</time>
      </trkpt>
      <trkpt lat="42.886526" lon="-8.527159">
        <ele>278.337</ele>
        <time>2022-08-24T08:54:07Z</time>
      </trkpt>
      <trkpt lat="42.886498" lon="-8.527208">
        <ele>278.371</ele>
        <time>2022-08-24T08:54:10Z</time>
      </trkpt>
      <trkpt lat="42.886478" lon="-8.527273">
        <ele>278.251</ele>
        <time>2022-08-24T08:54:14Z</time>
      </trkpt>
      <trkpt lat="42.886449" lon="-8.527333">
        <ele>278.101</ele>
        <time>2022-08-24T08:54:18Z</time>
      </trkpt>
      <trkpt lat="42.886418" lon="-8.527393">
        <ele>278.111</ele>
        <time>2022-08-24T08:54:22Z</time>
      </trkpt>
      <trkpt lat="42.886382" lon="-8.527458">
        <ele>278.109</ele>
        <time>2022-08-24T08:54:26Z</time>
      </trkpt>
      <trkpt lat="42.886348" lon="-8.527517">
        <ele>278.126</ele>
        <time>2022-08-24T08:54:31Z</time>
      </trkpt>
      <trkpt lat="42.886306" lon="-8.527553">
        <ele>278.036</ele>
        <time>2022-08-24T08:54:35Z</time>
      </trkpt>
      <trkpt lat="42.886259" lon="-8.527579">
        <ele>277.986</ele>
        <time>2022-08-24T08:54:39Z</time>
      </trkpt>
      <trkpt lat="42.886235" lon="-8.527633">
        <ele>277.731</ele>
        <time>2022-08-24T08:54:43Z</time>
      </trkpt>
      <trkpt lat="42.886237" lon="-8.527700">
        <ele>277.529</ele>
        <time>2022-08-24T08:54:47Z</time>
      </trkpt>
      <trkpt lat="42.886222" lon="-8.527759">
        <ele>277.419</ele>
        <time>2022-08-24T08:54:51Z</time>
      </trkpt>
      <trkpt lat="42.886208" lon="-8.527825">
        <ele>277.463</ele>
        <time>2022-08-24T08:54:55Z</time>
      </trkpt>
      <trkpt lat="42.886198" lon="-8.527888">
        <ele>277.498</ele>
        <time>2022-08-24T08:54:59Z</time>
      </trkpt>
      <trkpt lat="42.886174" lon="-8.527953">
        <ele>277.422</ele>
        <time>2022-08-24T08:55:04Z</time>
      </trkpt>
      <trkpt lat="42.886170" lon="-8.528015">
        <ele>277.344</ele>
        <time>2022-08-24T08:55:08Z</time>
      </trkpt>
      <trkpt lat="42.886173" lon="-8.528084">
        <ele>277.305</ele>
        <time>2022-08-24T08:55:13Z</time>
      </trkpt>
      <trkpt lat="42.886165" lon="-8.528157">
        <ele>277.215</ele>
        <time>2022-08-24T08:55:17Z</time>
      </trkpt>
      <trkpt lat="42.886162" lon="-8.528231">
        <ele>276.909</ele>
        <time>2022-08-24T08:55:21Z</time>
      </trkpt>
      <trkpt lat="42.886161" lon="-8.528292">
        <ele>276.515</ele>
        <time>2022-08-24T08:55:25Z</time>
      </trkpt>
      <trkpt lat="42.886160" lon="-8.528367">
        <ele>276.385</ele>
        <time>2022-08-24T08:55:29Z</time>
      </trkpt>
      <trkpt lat="42.886152" lon="-8.528428">
        <ele>276.085</ele>
        <time>2022-08-24T08:55:33Z</time>
      </trkpt>
      <trkpt lat="42.886156" lon="-8.528498">
        <ele>275.770</ele>
        <time>2022-08-24T08:55:38Z</time>
      </trkpt>
      <trkpt lat="42.886177" lon="-8.528567">
        <ele>275.418</ele>
        <time>2022-08-24T08:55:42Z</time>
      </trkpt>
      <trkpt lat="42.886190" lon="-8.528632">
        <ele>275.058</ele>
        <time>2022-08-24T08:55:46Z</time>
      </trkpt>
      <trkpt lat="42.886206" lon="-8.528706">
        <ele>274.662</ele>
        <time>2022-08-24T08:55:50Z</time>
      </trkpt>
      <trkpt lat="42.886213" lon="-8.528782">
        <ele>274.327</ele>
        <time>2022-08-24T08:55:54Z</time>
      </trkpt>
      <trkpt lat="42.886225" lon="-8.528850">
        <ele>274.061</ele>
        <time>2022-08-24T08:55:58Z</time>
      </trkpt>
      <trkpt lat="42.886184" lon="-8.528890">
        <ele>273.723</ele>
        <time>2022-08-24T08:56:01Z</time>
      </trkpt>
      <trkpt lat="42.886157" lon="-8.528943">
        <ele>273.483</ele>
        <time>2022-08-24T08:56:04Z</time>
      </trkpt>
      <trkpt lat="42.886156" lon="-8.529021">
        <ele>273.111</ele>
        <time>2022-08-24T08:56:08Z</time>
      </trkpt>
      <trkpt lat="42.886152" lon="-8.529086">
        <ele>272.909</ele>
        <time>2022-08-24T08:56:13Z</time>
      </trkpt>
      <trkpt lat="42.886146" lon="-8.529147">
        <ele>272.683</ele>
        <time>2022-08-24T08:56:16Z</time>
      </trkpt>
      <trkpt lat="42.886143" lon="-8.529220">
        <ele>272.363</ele>
        <time>2022-08-24T08:56:20Z</time>
      </trkpt>
      <trkpt lat="42.886141" lon="-8.529286">
        <ele>272.113</ele>
        <time>2022-08-24T08:56:25Z</time>
      </trkpt>
      <trkpt lat="42.886141" lon="-8.529351">
        <ele>271.988</ele>
        <time>2022-08-24T08:56:29Z</time>
      </trkpt>
      <trkpt lat="42.886141" lon="-8.529419">
        <ele>271.756</ele>
        <time>2022-08-24T08:56:34Z</time>
      </trkpt>
      <trkpt lat="42.886116" lon="-8.529471">
        <ele>271.676</ele>
        <time>2022-08-24T08:56:39Z</time>
      </trkpt>
      <trkpt lat="42.886117" lon="-8.529537">
        <ele>271.520</ele>
        <time>2022-08-24T08:56:44Z</time>
      </trkpt>
      <trkpt lat="42.886103" lon="-8.529607">
        <ele>271.465</ele>
        <time>2022-08-24T08:56:47Z</time>
      </trkpt>
      <trkpt lat="42.886112" lon="-8.529683">
        <ele>271.219</ele>
        <time>2022-08-24T08:56:51Z</time>
      </trkpt>
      <trkpt lat="42.886095" lon="-8.529768">
        <ele>271.096</ele>
        <time>2022-08-24T08:56:55Z</time>
      </trkpt>
      <trkpt lat="42.886059" lon="-8.529823">
        <ele>270.931</ele>
        <time>2022-08-24T08:56:58Z</time>
      </trkpt>
      <trkpt lat="42.886014" lon="-8.529868">
        <ele>270.924</ele>
        <time>2022-08-24T08:57:02Z</time>
      </trkpt>
      <trkpt lat="42.886011" lon="-8.529940">
        <ele>270.809</ele>
        <time>2022-08-24T08:57:06Z</time>
      </trkpt>
      <trkpt lat="42.885979" lon="-8.530003">
        <ele>270.750</ele>
        <time>2022-08-24T08:57:10Z</time>
      </trkpt>
      <trkpt lat="42.885949" lon="-8.530060">
        <ele>270.720</ele>
        <time>2022-08-24T08:57:14Z</time>
      </trkpt>
      <trkpt lat="42.885935" lon="-8.530120">
        <ele>270.760</ele>
        <time>2022-08-24T08:57:20Z</time>
      </trkpt>
      <trkpt lat="42.885907" lon="-8.530194">
        <ele>270.675</ele>
        <time>2022-08-24T08:57:24Z</time>
      </trkpt>
      <trkpt lat="42.885886" lon="-8.530249">
        <ele>270.683</ele>
        <time>2022-08-24T08:57:27Z</time>
      </trkpt>
      <trkpt lat="42.885866" lon="-8.530318">
        <ele>270.553</ele>
        <time>2022-08-24T08:57:31Z</time>
      </trkpt>
      <trkpt lat="42.885834" lon="-8.530373">
        <ele>270.367</ele>
        <time>2022-08-24T08:57:35Z</time>
      </trkpt>
      <trkpt lat="42.885814" lon="-8.530432">
        <ele>270.262</ele>
        <time>2022-08-24T08:57:40Z</time>
      </trkpt>
      <trkpt lat="42.885792" lon="-8.530497">
        <ele>270.216</ele>
        <time>2022-08-24T08:57:44Z</time>
      </trkpt>
      <trkpt lat="42.885759" lon="-8.530561">
        <ele>270.254</ele>
        <time>2022-08-24T08:57:48Z</time>
      </trkpt>
      <trkpt lat="42.885720" lon="-8.530624">
        <ele>270.356</ele>
        <time>2022-08-24T08:57:52Z</time>
      </trkpt>
      <trkpt lat="42.885681" lon="-8.530669">
        <ele>270.411</ele>
        <time>2022-08-24T08:57:56Z</time>
      </trkpt>
      <trkpt lat="42.885657" lon="-8.530722">
        <ele>270.409</ele>
        <time>2022-08-24T08:58:00Z</time>
      </trkpt>
      <trkpt lat="42.885613" lon="-8.530752">
        <ele>270.416</ele>
        <time>2022-08-24T08:58:04Z</time>
      </trkpt>
      <trkpt lat="42.885573" lon="-8.530798">
        <ele>270.476</ele>
        <time>2022-08-24T08:58:09Z</time>
      </trkpt>
      <trkpt lat="42.885523" lon="-8.530845">
        <ele>270.466</ele>
        <time>2022-08-24T08:58:13Z</time>
      </trkpt>
      <trkpt lat="42.885481" lon="-8.530893">
        <ele>270.451</ele>
        <time>2022-08-24T08:58:18Z</time>
      </trkpt>
      <trkpt lat="42.885456" lon="-8.530955">
        <ele>270.469</ele>
        <time>2022-08-24T08:58:22Z</time>
      </trkpt>
      <trkpt lat="42.885416" lon="-8.531011">
        <ele>270.479</ele>
        <time>2022-08-24T08:58:26Z</time>
      </trkpt>
      <trkpt lat="42.885379" lon="-8.531060">
        <ele>270.483</ele>
        <time>2022-08-24T08:58:30Z</time>
      </trkpt>
      <trkpt lat="42.885321" lon="-8.531070">
        <ele>270.548</ele>
        <time>2022-08-24T08:58:34Z</time>
      </trkpt>
      <trkpt lat="42.885272" lon="-8.531076">
        <ele>270.522</ele>
        <time>2022-08-24T08:58:37Z</time>
      </trkpt>
      <trkpt lat="42.885246" lon="-8.531135">
        <ele>270.585</ele>
        <time>2022-08-24T08:58:41Z</time>
      </trkpt>
      <trkpt lat="42.885216" lon="-8.531184">
        <ele>270.589</ele>
        <time>2022-08-24T08:58:46Z</time>
      </trkpt>
      <trkpt lat="42.885171" lon="-8.531235">
        <ele>270.417</ele>
        <time>2022-08-24T08:58:50Z</time>
      </trkpt>
      <trkpt lat="42.885157" lon="-8.531311">
        <ele>270.309</ele>
        <time>2022-08-24T08:58:54Z</time>
      </trkpt>
      <trkpt lat="42.885154" lon="-8.531393">
        <ele>270.239</ele>
        <time>2022-08-24T08:58:58Z</time>
      </trkpt>
      <trkpt lat="42.885139" lon="-8.531463">
        <ele>269.949</ele>
        <time>2022-08-24T08:59:02Z</time>
      </trkpt>
      <trkpt lat="42.885130" lon="-8.531523">
        <ele>269.879</ele>
        <time>2022-08-24T08:59:06Z</time>
      </trkpt>
      <trkpt lat="42.885106" lon="-8.531589">
        <ele>269.714</ele>
        <time>2022-08-24T08:59:10Z</time>
      </trkpt>
      <trkpt lat="42.885068" lon="-8.531631">
        <ele>269.762</ele>
        <time>2022-08-24T08:59:14Z</time>
      </trkpt>
      <trkpt lat="42.885046" lon="-8.531709">
        <ele>269.712</ele>
        <time>2022-08-24T08:59:19Z</time>
      </trkpt>
      <trkpt lat="42.885046" lon="-8.531773">
        <ele>269.736</ele>
        <time>2022-08-24T08:59:23Z</time>
      </trkpt>
      <trkpt lat="42.885053" lon="-8.531840">
        <ele>269.611</ele>
        <time>2022-08-24T08:59:27Z</time>
      </trkpt>
      <trkpt lat="42.885054" lon="-8.531919">
        <ele>269.565</ele>
        <time>2022-08-24T08:59:32Z</time>
      </trkpt>
      <trkpt lat="42.885073" lon="-8.531990">
        <ele>269.465</ele>
        <time>2022-08-24T08:59:37Z</time>
      </trkpt>
      <trkpt lat="42.885077" lon="-8.532065">
        <ele>269.368</ele>
        <time>2022-08-24T08:59:41Z</time>
      </trkpt>
      <trkpt lat="42.885098" lon="-8.532121">
        <ele>269.014</ele>
        <time>2022-08-24T08:59:45Z</time>
      </trkpt>
      <trkpt lat="42.885106" lon="-8.532187">
        <ele>268.609</ele>
        <time>2022-08-24T08:59:50Z</time>
      </trkpt>
      <trkpt lat="42.885126" lon="-8.532256">
        <ele>268.337</ele>
        <time>2022-08-24T08:59:54Z</time>
      </trkpt>
      <trkpt lat="42.885132" lon="-8.532326">
        <ele>268.187</ele>
        <time>2022-08-24T09:00:00Z</time>
      </trkpt>
      <trkpt lat="42.885139" lon="-8.532397">
        <ele>268.057</ele>
        <time>2022-08-24T09:00:05Z</time>
      </trkpt>
      <trkpt lat="42.885163" lon="-8.532450">
        <ele>267.872</ele>
        <time>2022-08-24T09:00:09Z</time>
      </trkpt>
      <trkpt lat="42.885191" lon="-8.532499">
        <ele>267.520</ele>
        <time>2022-08-24T09:00:12Z</time>
      </trkpt>
      <trkpt lat="42.885218" lon="-8.532563">
        <ele>267.130</ele>
        <time>2022-08-24T09:00:16Z</time>
      </trkpt>
      <trkpt lat="42.885270" lon="-8.532606">
        <ele>266.614</ele>
        <time>2022-08-24T09:00:19Z</time>
      </trkpt>
      <trkpt lat="42.885307" lon="-8.532643">
        <ele>266.329</ele>
        <time>2022-08-24T09:00:21Z</time>
      </trkpt>
      <trkpt lat="42.885338" lon="-8.532698">
        <ele>266.263</ele>
        <time>2022-08-24T09:00:24Z</time>
      </trkpt>
      <trkpt lat="42.885334" lon="-8.532796">
        <ele>265.943</ele>
        <time>2022-08-24T09:00:28Z</time>
      </trkpt>
      <trkpt lat="42.885314" lon="-8.532860">
        <ele>265.364</ele>
        <time>2022-08-24T09:00:31Z</time>
      </trkpt>
      <trkpt lat="42.885282" lon="-8.532916">
        <ele>265.010</ele>
        <time>2022-08-24T09:00:35Z</time>
      </trkpt>
      <trkpt lat="42.885256" lon="-8.532970">
        <ele>264.809</ele>
        <time>2022-08-24T09:00:39Z</time>
      </trkpt>
      <trkpt lat="42.885209" lon="-8.533005">
        <ele>264.815</ele>
        <time>2022-08-24T09:00:43Z</time>
      </trkpt>
      <trkpt lat="42.885171" lon="-8.533047">
        <ele>264.855</ele>
        <time>2022-08-24T09:00:47Z</time>
      </trkpt>
      <trkpt lat="42.885143" lon="-8.533118">
        <ele>264.715</ele>
        <time>2022-08-24T09:00:52Z</time>
      </trkpt>
      <trkpt lat="42.885111" lon="-8.533177">
        <ele>264.780</ele>
        <time>2022-08-24T09:00:56Z</time>
      </trkpt>
      <trkpt lat="42.885076" lon="-8.533219">
        <ele>264.778</ele>
        <time>2022-08-24T09:00:59Z</time>
      </trkpt>
      <trkpt lat="42.885055" lon="-8.533280">
        <ele>264.758</ele>
        <time>2022-08-24T09:01:03Z</time>
      </trkpt>
      <trkpt lat="42.885031" lon="-8.533341">
        <ele>264.752</ele>
        <time>2022-08-24T09:01:06Z</time>
      </trkpt>
      <trkpt lat="42.885022" lon="-8.533402">
        <ele>264.867</ele>
        <time>2022-08-24T09:01:09Z</time>
      </trkpt>
      <trkpt lat="42.884981" lon="-8.533433">
        <ele>264.851</ele>
        <time>2022-08-24T09:01:12Z</time>
      </trkpt>
      <trkpt lat="42.884910" lon="-8.533426">
        <ele>264.823</ele>
        <time>2022-08-24T09:01:15Z</time>
      </trkpt>
      <trkpt lat="42.884864" lon="-8.533431">
        <ele>264.883</ele>
        <time>2022-08-24T09:01:17Z</time>
      </trkpt>
      <trkpt lat="42.884816" lon="-8.533424">
        <ele>264.811</ele>
        <time>2022-08-24T09:01:22Z</time>
      </trkpt>
      <trkpt lat="42.884771" lon="-8.533428">
        <ele>264.809</ele>
        <time>2022-08-24T09:01:26Z</time>
      </trkpt>
      <trkpt lat="42.884723" lon="-8.533433">
        <ele>264.833</ele>
        <time>2022-08-24T09:01:30Z</time>
      </trkpt>
      <trkpt lat="42.884675" lon="-8.533443">
        <ele>264.723</ele>
        <time>2022-08-24T09:01:36Z</time>
      </trkpt>
      <trkpt lat="42.884621" lon="-8.533413">
        <ele>264.653</ele>
        <time>2022-08-24T09:02:31Z</time>
      </trkpt>
      <trkpt lat="42.884624" lon="-8.533481">
        <ele>264.558</ele>
        <time>2022-08-24T09:02:36Z</time>
      </trkpt>
      <trkpt lat="42.884576" lon="-8.533517">
        <ele>264.526</ele>
        <time>2022-08-24T09:02:41Z</time>
      </trkpt>
      <trkpt lat="42.884534" lon="-8.533564">
        <ele>264.556</ele>
        <time>2022-08-24T09:02:45Z</time>
      </trkpt>
      <trkpt lat="42.884499" lon="-8.533604">
        <ele>264.580</ele>
        <time>2022-08-24T09:02:48Z</time>
      </trkpt>
      <trkpt lat="42.884459" lon="-8.533643">
        <ele>264.685</ele>
        <time>2022-08-24T09:02:52Z</time>
      </trkpt>
      <trkpt lat="42.884421" lon="-8.533684">
        <ele>264.739</ele>
        <time>2022-08-24T09:02:56Z</time>
      </trkpt>
      <trkpt lat="42.884389" lon="-8.533731">
        <ele>264.756</ele>
        <time>2022-08-24T09:03:00Z</time>
      </trkpt>
      <trkpt lat="42.884356" lon="-8.533777">
        <ele>264.759</ele>
        <time>2022-08-24T09:03:07Z</time>
      </trkpt>
      <trkpt lat="42.884322" lon="-8.533832">
        <ele>264.714</ele>
        <time>2022-08-24T09:03:13Z</time>
      </trkpt>
      <trkpt lat="42.884289" lon="-8.533880">
        <ele>264.809</ele>
        <time>2022-08-24T09:03:18Z</time>
      </trkpt>
      <trkpt lat="42.884257" lon="-8.533938">
        <ele>265.096</ele>
        <time>2022-08-24T09:03:23Z</time>
      </trkpt>
      <trkpt lat="42.884215" lon="-8.533977">
        <ele>265.366</ele>
        <time>2022-08-24T09:03:27Z</time>
      </trkpt>
      <trkpt lat="42.884169" lon="-8.534025">
        <ele>265.696</ele>
        <time>2022-08-24T09:03:30Z</time>
      </trkpt>
      <trkpt lat="42.884117" lon="-8.534050">
        <ele>265.881</ele>
        <time>2022-08-24T09:03:33Z</time>
      </trkpt>
      <trkpt lat="42.884064" lon="-8.534077">
        <ele>266.019</ele>
        <time>2022-08-24T09:03:37Z</time>
      </trkpt>
      <trkpt lat="42.884021" lon="-8.534101">
        <ele>266.119</ele>
        <time>2022-08-24T09:03:40Z</time>
      </trkpt>
      <trkpt lat="42.883974" lon="-8.534135">
        <ele>266.263</ele>
        <time>2022-08-24T09:03:43Z</time>
      </trkpt>
      <trkpt lat="42.883930" lon="-8.534151">
        <ele>266.248</ele>
        <time>2022-08-24T09:03:46Z</time>
      </trkpt>
      <trkpt lat="42.883882" lon="-8.534160">
        <ele>266.252</ele>
        <time>2022-08-24T09:03:50Z</time>
      </trkpt>
      <trkpt lat="42.883834" lon="-8.534132">
        <ele>266.361</ele>
        <time>2022-08-24T09:03:54Z</time>
      </trkpt>
      <trkpt lat="42.883783" lon="-8.534142">
        <ele>266.421</ele>
        <time>2022-08-24T09:03:57Z</time>
      </trkpt>
      <trkpt lat="42.883729" lon="-8.534142">
        <ele>266.513</ele>
        <time>2022-08-24T09:04:01Z</time>
      </trkpt>
      <trkpt lat="42.883677" lon="-8.534140">
        <ele>266.609</ele>
        <time>2022-08-24T09:04:04Z</time>
      </trkpt>
      <trkpt lat="42.883627" lon="-8.534145">
        <ele>266.637</ele>
        <time>2022-08-24T09:04:07Z</time>
      </trkpt>
      <trkpt lat="42.883590" lon="-8.534190">
        <ele>266.777</ele>
        <time>2022-08-24T09:04:11Z</time>
      </trkpt>
      <trkpt lat="42.883539" lon="-8.534179">
        <ele>266.887</ele>
        <time>2022-08-24T09:04:16Z</time>
      </trkpt>
      <trkpt lat="42.883491" lon="-8.534196">
        <ele>266.962</ele>
        <time>2022-08-24T09:04:21Z</time>
      </trkpt>
      <trkpt lat="42.883439" lon="-8.534194">
        <ele>267.080</ele>
        <time>2022-08-24T09:04:25Z</time>
      </trkpt>
      <trkpt lat="42.883377" lon="-8.534191">
        <ele>267.150</ele>
        <time>2022-08-24T09:04:30Z</time>
      </trkpt>
      <trkpt lat="42.883332" lon="-8.534202">
        <ele>267.264</ele>
        <time>2022-08-24T09:04:34Z</time>
      </trkpt>
      <trkpt lat="42.883279" lon="-8.534219">
        <ele>267.439</ele>
        <time>2022-08-24T09:04:39Z</time>
      </trkpt>
      <trkpt lat="42.883232" lon="-8.534232">
        <ele>267.663</ele>
        <time>2022-08-24T09:04:43Z</time>
      </trkpt>
      <trkpt lat="42.883180" lon="-8.534226">
        <ele>267.897</ele>
        <time>2022-08-24T09:04:46Z</time>
      </trkpt>
      <trkpt lat="42.883123" lon="-8.534251">
        <ele>267.923</ele>
        <time>2022-08-24T09:04:50Z</time>
      </trkpt>
      <trkpt lat="42.883068" lon="-8.534258">
        <ele>268.025</ele>
        <time>2022-08-24T09:04:53Z</time>
      </trkpt>
      <trkpt lat="42.883015" lon="-8.534256">
        <ele>268.109</ele>
        <time>2022-08-24T09:04:56Z</time>
      </trkpt>
      <trkpt lat="42.882963" lon="-8.534267">
        <ele>268.440</ele>
        <time>2022-08-24T09:05:00Z</time>
      </trkpt>
      <trkpt lat="42.882918" lon="-8.534252">
        <ele>268.540</ele>
        <time>2022-08-24T09:05:03Z</time>
      </trkpt>
      <trkpt lat="42.882871" lon="-8.534252">
        <ele>268.630</ele>
        <time>2022-08-24T09:05:06Z</time>
      </trkpt>
      <trkpt lat="42.882836" lon="-8.534293">
        <ele>268.725</ele>
        <time>2022-08-24T09:05:12Z</time>
      </trkpt>
      <trkpt lat="42.882791" lon="-8.534325">
        <ele>268.873</ele>
        <time>2022-08-24T09:05:18Z</time>
      </trkpt>
      <trkpt lat="42.882736" lon="-8.534340">
        <ele>268.893</ele>
        <time>2022-08-24T09:05:21Z</time>
      </trkpt>
      <trkpt lat="42.882682" lon="-8.534334">
        <ele>268.877</ele>
        <time>2022-08-24T09:05:26Z</time>
      </trkpt>
      <trkpt lat="42.882633" lon="-8.534341">
        <ele>268.882</ele>
        <time>2022-08-24T09:05:32Z</time>
      </trkpt>
      <trkpt lat="42.882591" lon="-8.534365">
        <ele>268.886</ele>
        <time>2022-08-24T09:05:36Z</time>
      </trkpt>
      <trkpt lat="42.882555" lon="-8.534410">
        <ele>269.086</ele>
        <time>2022-08-24T09:05:39Z</time>
      </trkpt>
      <trkpt lat="42.882502" lon="-8.534450">
        <ele>269.360</ele>
        <time>2022-08-24T09:05:44Z</time>
      </trkpt>
      <trkpt lat="42.882443" lon="-8.534467">
        <ele>269.426</ele>
        <time>2022-08-24T09:05:47Z</time>
      </trkpt>
      <trkpt lat="42.882398" lon="-8.534470">
        <ele>269.509</ele>
        <time>2022-08-24T09:05:49Z</time>
      </trkpt>
      <trkpt lat="42.882351" lon="-8.534490">
        <ele>269.789</ele>
        <time>2022-08-24T09:05:53Z</time>
      </trkpt>
      <trkpt lat="42.882302" lon="-8.534504">
        <ele>269.859</ele>
        <time>2022-08-24T09:05:57Z</time>
      </trkpt>
      <trkpt lat="42.882255" lon="-8.534543">
        <ele>269.959</ele>
        <time>2022-08-24T09:06:02Z</time>
      </trkpt>
      <trkpt lat="42.882215" lon="-8.534588">
        <ele>270.154</ele>
        <time>2022-08-24T09:06:06Z</time>
      </trkpt>
      <trkpt lat="42.882181" lon="-8.534630">
        <ele>270.332</ele>
        <time>2022-08-24T09:06:11Z</time>
      </trkpt>
      <trkpt lat="42.882128" lon="-8.534668">
        <ele>270.552</ele>
        <time>2022-08-24T09:06:15Z</time>
      </trkpt>
      <trkpt lat="42.882086" lon="-8.534712">
        <ele>270.776</ele>
        <time>2022-08-24T09:06:20Z</time>
      </trkpt>
      <trkpt lat="42.882045" lon="-8.534743">
        <ele>271.181</ele>
        <time>2022-08-24T09:06:24Z</time>
      </trkpt>
      <trkpt lat="42.882003" lon="-8.534785">
        <ele>271.555</ele>
        <time>2022-08-24T09:06:28Z</time>
      </trkpt>
      <trkpt lat="42.881955" lon="-8.534825">
        <ele>271.737</ele>
        <time>2022-08-24T09:06:34Z</time>
      </trkpt>
      <trkpt lat="42.881909" lon="-8.534830">
        <ele>272.049</ele>
        <time>2022-08-24T09:06:37Z</time>
      </trkpt>
      <trkpt lat="42.881879" lon="-8.534879">
        <ele>272.313</ele>
        <time>2022-08-24T09:06:41Z</time>
      </trkpt>
      <trkpt lat="42.881839" lon="-8.534938">
        <ele>272.609</ele>
        <time>2022-08-24T09:06:45Z</time>
      </trkpt>
      <trkpt lat="42.881805" lon="-8.535000">
        <ele>272.844</ele>
        <time>2022-08-24T09:06:49Z</time>
      </trkpt>
      <trkpt lat="42.881790" lon="-8.535065">
        <ele>273.084</ele>
        <time>2022-08-24T09:06:54Z</time>
      </trkpt>
      <trkpt lat="42.881779" lon="-8.535127">
        <ele>273.264</ele>
        <time>2022-08-24T09:06:57Z</time>
      </trkpt>
      <trkpt lat="42.881770" lon="-8.535206">
        <ele>273.649</ele>
        <time>2022-08-24T09:07:03Z</time>
      </trkpt>
      <trkpt lat="42.881764" lon="-8.535276">
        <ele>273.747</ele>
        <time>2022-08-24T09:07:10Z</time>
      </trkpt>
      <trkpt lat="42.881766" lon="-8.535351">
        <ele>274.027</ele>
        <time>2022-08-24T09:07:14Z</time>
      </trkpt>
      <trkpt lat="42.881765" lon="-8.535426">
        <ele>274.361</ele>
        <time>2022-08-24T09:07:17Z</time>
      </trkpt>
      <trkpt lat="42.881757" lon="-8.535500">
        <ele>274.446</ele>
        <time>2022-08-24T09:07:21Z</time>
      </trkpt>
      <trkpt lat="42.881762" lon="-8.535570">
        <ele>274.430</ele>
        <time>2022-08-24T09:07:24Z</time>
      </trkpt>
      <trkpt lat="42.881775" lon="-8.535640">
        <ele>274.427</ele>
        <time>2022-08-24T09:07:29Z</time>
      </trkpt>
      <trkpt lat="42.881762" lon="-8.535701">
        <ele>274.368</ele>
        <time>2022-08-24T09:07:32Z</time>
      </trkpt>
      <trkpt lat="42.881764" lon="-8.535771">
        <ele>274.014</ele>
        <time>2022-08-24T09:07:35Z</time>
      </trkpt>
      <trkpt lat="42.881749" lon="-8.535834">
        <ele>273.709</ele>
        <time>2022-08-24T09:07:39Z</time>
      </trkpt>
      <trkpt lat="42.881725" lon="-8.535891">
        <ele>273.513</ele>
        <time>2022-08-24T09:07:42Z</time>
      </trkpt>
      <trkpt lat="42.881692" lon="-8.535953">
        <ele>273.343</ele>
        <time>2022-08-24T09:07:46Z</time>
      </trkpt>
      <trkpt lat="42.881683" lon="-8.536013">
        <ele>273.173</ele>
        <time>2022-08-24T09:07:50Z</time>
      </trkpt>
      <trkpt lat="42.881680" lon="-8.536078">
        <ele>272.998</ele>
        <time>2022-08-24T09:07:54Z</time>
      </trkpt>
      <trkpt lat="42.881655" lon="-8.536137">
        <ele>272.756</ele>
        <time>2022-08-24T09:07:58Z</time>
      </trkpt>
      <trkpt lat="42.881679" lon="-8.536200">
        <ele>272.596</ele>
        <time>2022-08-24T09:08:01Z</time>
      </trkpt>
      <trkpt lat="42.881684" lon="-8.536268">
        <ele>272.350</ele>
        <time>2022-08-24T09:08:05Z</time>
      </trkpt>
      <trkpt lat="42.881661" lon="-8.536327">
        <ele>272.185</ele>
        <time>2022-08-24T09:08:09Z</time>
      </trkpt>
      <trkpt lat="42.881628" lon="-8.536383">
        <ele>272.039</ele>
        <time>2022-08-24T09:08:13Z</time>
      </trkpt>
      <trkpt lat="42.881606" lon="-8.536445">
        <ele>271.856</ele>
        <time>2022-08-24T09:08:17Z</time>
      </trkpt>
      <trkpt lat="42.881578" lon="-8.536497">
        <ele>271.559</ele>
        <time>2022-08-24T09:08:21Z</time>
      </trkpt>
      <trkpt lat="42.881566" lon="-8.536566">
        <ele>271.214</ele>
        <time>2022-08-24T09:08:25Z</time>
      </trkpt>
      <trkpt lat="42.881556" lon="-8.536632">
        <ele>271.009</ele>
        <time>2022-08-24T09:08:29Z</time>
      </trkpt>
      <trkpt lat="42.881548" lon="-8.536712">
        <ele>270.866</ele>
        <time>2022-08-24T09:08:34Z</time>
      </trkpt>
      <trkpt lat="42.881525" lon="-8.536766">
        <ele>270.516</ele>
        <time>2022-08-24T09:08:37Z</time>
      </trkpt>
      <trkpt lat="42.881520" lon="-8.536831">
        <ele>270.276</ele>
        <time>2022-08-24T09:08:40Z</time>
      </trkpt>
      <trkpt lat="42.881494" lon="-8.536902">
        <ele>269.921</ele>
        <time>2022-08-24T09:08:44Z</time>
      </trkpt>
      <trkpt lat="42.881480" lon="-8.536963">
        <ele>269.739</ele>
        <time>2022-08-24T09:08:47Z</time>
      </trkpt>
      <trkpt lat="42.881460" lon="-8.537028">
        <ele>269.659</ele>
        <time>2022-08-24T09:08:51Z</time>
      </trkpt>
      <trkpt lat="42.881437" lon="-8.537093">
        <ele>269.523</ele>
        <time>2022-08-24T09:08:56Z</time>
      </trkpt>
      <trkpt lat="42.881427" lon="-8.537164">
        <ele>269.358</ele>
        <time>2022-08-24T09:09:01Z</time>
      </trkpt>
      <trkpt lat="42.881425" lon="-8.537228">
        <ele>269.182</ele>
        <time>2022-08-24T09:09:04Z</time>
      </trkpt>
      <trkpt lat="42.881427" lon="-8.537292">
        <ele>268.818</ele>
        <time>2022-08-24T09:09:09Z</time>
      </trkpt>
      <trkpt lat="42.881422" lon="-8.537361">
        <ele>268.698</ele>
        <time>2022-08-24T09:09:13Z</time>
      </trkpt>
      <trkpt lat="42.881417" lon="-8.537427">
        <ele>268.417</ele>
        <time>2022-08-24T09:09:17Z</time>
      </trkpt>
      <trkpt lat="42.881404" lon="-8.537503">
        <ele>268.209</ele>
        <time>2022-08-24T09:09:21Z</time>
      </trkpt>
      <trkpt lat="42.881394" lon="-8.537567">
        <ele>267.912</ele>
        <time>2022-08-24T09:09:25Z</time>
      </trkpt>
      <trkpt lat="42.881399" lon="-8.537644">
        <ele>267.642</ele>
        <time>2022-08-24T09:09:30Z</time>
      </trkpt>
      <trkpt lat="42.881387" lon="-8.537709">
        <ele>267.322</ele>
        <time>2022-08-24T09:09:34Z</time>
      </trkpt>
      <trkpt lat="42.881369" lon="-8.537769">
        <ele>267.127</ele>
        <time>2022-08-24T09:09:37Z</time>
      </trkpt>
      <trkpt lat="42.881357" lon="-8.537828">
        <ele>266.965</ele>
        <time>2022-08-24T09:09:40Z</time>
      </trkpt>
      <trkpt lat="42.881326" lon="-8.537877">
        <ele>266.725</ele>
        <time>2022-08-24T09:09:43Z</time>
      </trkpt>
      <trkpt lat="42.881291" lon="-8.537922">
        <ele>266.529</ele>
        <time>2022-08-24T09:09:48Z</time>
      </trkpt>
      <trkpt lat="42.881280" lon="-8.537986">
        <ele>266.234</ele>
        <time>2022-08-24T09:09:52Z</time>
      </trkpt>
      <trkpt lat="42.881282" lon="-8.538055">
        <ele>265.848</ele>
        <time>2022-08-24T09:09:56Z</time>
      </trkpt>
      <trkpt lat="42.881281" lon="-8.538137">
        <ele>265.459</ele>
        <time>2022-08-24T09:09:59Z</time>
      </trkpt>
      <trkpt lat="42.881286" lon="-8.538203">
        <ele>265.203</ele>
        <time>2022-08-24T09:10:03Z</time>
      </trkpt>
      <trkpt lat="42.881313" lon="-8.538269">
        <ele>265.123</ele>
        <time>2022-08-24T09:10:07Z</time>
      </trkpt>
      <trkpt lat="42.881337" lon="-8.538323">
        <ele>264.909</ele>
        <time>2022-08-24T09:10:10Z</time>
      </trkpt>
      <trkpt lat="42.881367" lon="-8.538373">
        <ele>264.696</ele>
        <time>2022-08-24T09:10:14Z</time>
      </trkpt>
      <trkpt lat="42.881396" lon="-8.538423">
        <ele>264.376</ele>
        <time>2022-08-24T09:10:18Z</time>
      </trkpt>
      <trkpt lat="42.881421" lon="-8.538478">
        <ele>264.056</ele>
        <time>2022-08-24T09:10:22Z</time>
      </trkpt>
      <trkpt lat="42.881446" lon="-8.538542">
        <ele>263.741</ele>
        <time>2022-08-24T09:10:26Z</time>
      </trkpt>
      <trkpt lat="42.881464" lon="-8.538609">
        <ele>263.459</ele>
        <time>2022-08-24T09:10:31Z</time>
      </trkpt>
      <trkpt lat="42.881485" lon="-8.538668">
        <ele>263.169</ele>
        <time>2022-08-24T09:10:35Z</time>
      </trkpt>
      <trkpt lat="42.881504" lon="-8.538739">
        <ele>262.863</ele>
        <time>2022-08-24T09:10:39Z</time>
      </trkpt>
      <trkpt lat="42.881551" lon="-8.538791">
        <ele>262.468</ele>
        <time>2022-08-24T09:10:43Z</time>
      </trkpt>
      <trkpt lat="42.881582" lon="-8.538848">
        <ele>262.372</ele>
        <time>2022-08-24T09:10:47Z</time>
      </trkpt>
      <trkpt lat="42.881619" lon="-8.538915">
        <ele>262.018</ele>
        <time>2022-08-24T09:10:52Z</time>
      </trkpt>
      <trkpt lat="42.881635" lon="-8.538983">
        <ele>261.698</ele>
        <time>2022-08-24T09:10:56Z</time>
      </trkpt>
      <trkpt lat="42.881671" lon="-8.539035">
        <ele>261.217</ele>
        <time>2022-08-24T09:11:01Z</time>
      </trkpt>
      <trkpt lat="42.881697" lon="-8.539096">
        <ele>261.109</ele>
        <time>2022-08-24T09:11:05Z</time>
      </trkpt>
      <trkpt lat="42.881714" lon="-8.539156">
        <ele>261.082</ele>
        <time>2022-08-24T09:11:08Z</time>
      </trkpt>
      <trkpt lat="42.881747" lon="-8.539214">
        <ele>260.772</ele>
        <time>2022-08-24T09:11:12Z</time>
      </trkpt>
      <trkpt lat="42.881774" lon="-8.539280">
        <ele>260.522</ele>
        <time>2022-08-24T09:11:16Z</time>
      </trkpt>
      <trkpt lat="42.881808" lon="-8.539330">
        <ele>260.257</ele>
        <time>2022-08-24T09:11:21Z</time>
      </trkpt>
      <trkpt lat="42.881840" lon="-8.539390">
        <ele>259.945</ele>
        <time>2022-08-24T09:11:25Z</time>
      </trkpt>
      <trkpt lat="42.881851" lon="-8.539453">
        <ele>259.655</ele>
        <time>2022-08-24T09:11:30Z</time>
      </trkpt>
      <trkpt lat="42.881875" lon="-8.539514">
        <ele>259.469</ele>
        <time>2022-08-24T09:11:34Z</time>
      </trkpt>
      <trkpt lat="42.881896" lon="-8.539579">
        <ele>259.134</ele>
        <time>2022-08-24T09:11:36Z</time>
      </trkpt>
      <trkpt lat="42.881915" lon="-8.539636">
        <ele>258.968</ele>
        <time>2022-08-24T09:11:39Z</time>
      </trkpt>
      <trkpt lat="42.881946" lon="-8.539687">
        <ele>258.954</ele>
        <time>2022-08-24T09:11:43Z</time>
      </trkpt>
      <trkpt lat="42.881958" lon="-8.539759">
        <ele>258.956</ele>
        <time>2022-08-24T09:11:49Z</time>
      </trkpt>
      <trkpt lat="42.881980" lon="-8.539820">
        <ele>258.911</ele>
        <time>2022-08-24T09:11:53Z</time>
      </trkpt>
      <trkpt lat="42.881978" lon="-8.539881">
        <ele>259.109</ele>
        <time>2022-08-24T09:11:57Z</time>
      </trkpt>
      <trkpt lat="42.881931" lon="-8.539945">
        <ele>259.336</ele>
        <time>2022-08-24T09:12:01Z</time>
      </trkpt>
      <trkpt lat="42.881904" lon="-8.540017">
        <ele>259.486</ele>
        <time>2022-08-24T09:12:06Z</time>
      </trkpt>
      <trkpt lat="42.881865" lon="-8.540090">
        <ele>259.566</ele>
        <time>2022-08-24T09:12:45Z</time>
      </trkpt>
      <trkpt lat="42.881873" lon="-8.540152">
        <ele>259.691</ele>
        <time>2022-08-24T09:12:52Z</time>
      </trkpt>
      <trkpt lat="42.881871" lon="-8.540229">
        <ele>259.719</ele>
        <time>2022-08-24T09:12:57Z</time>
      </trkpt>
      <trkpt lat="42.881876" lon="-8.540295">
        <ele>259.859</ele>
        <time>2022-08-24T09:13:00Z</time>
      </trkpt>
      <trkpt lat="42.881875" lon="-8.540371">
        <ele>259.963</ele>
        <time>2022-08-24T09:13:04Z</time>
      </trkpt>
      <trkpt lat="42.881878" lon="-8.540436">
        <ele>260.068</ele>
        <time>2022-08-24T09:13:07Z</time>
      </trkpt>
      <trkpt lat="42.881883" lon="-8.540503">
        <ele>260.382</ele>
        <time>2022-08-24T09:13:10Z</time>
      </trkpt>
      <trkpt lat="42.881909" lon="-8.540562">
        <ele>260.741</ele>
        <time>2022-08-24T09:13:13Z</time>
      </trkpt>
      <trkpt lat="42.881929" lon="-8.540633">
        <ele>261.081</ele>
        <time>2022-08-24T09:13:16Z</time>
      </trkpt>
      <trkpt lat="42.881918" lon="-8.540707">
        <ele>261.209</ele>
        <time>2022-08-24T09:13:20Z</time>
      </trkpt>
      <trkpt lat="42.881915" lon="-8.540774">
        <ele>261.509</ele>
        <time>2022-08-24T09:13:23Z</time>
      </trkpt>
      <trkpt lat="42.881898" lon="-8.540835">
        <ele>261.815</ele>
        <time>2022-08-24T09:13:29Z</time>
      </trkpt>
      <trkpt lat="42.881870" lon="-8.540969">
        <ele>262.235</ele>
        <time>2022-08-24T09:13:35Z</time>
      </trkpt>
      <trkpt lat="42.881814" lon="-8.540982">
        <ele>262.725</ele>
        <time>2022-08-24T09:13:40Z</time>
      </trkpt>
      <trkpt lat="42.881794" lon="-8.541045">
        <ele>263.190</ele>
        <time>2022-08-24T09:13:45Z</time>
      </trkpt>
      <trkpt lat="42.881777" lon="-8.541110">
        <ele>263.598</ele>
        <time>2022-08-24T09:13:49Z</time>
      </trkpt>
      <trkpt lat="42.881777" lon="-8.541185">
        <ele>263.998</ele>
        <time>2022-08-24T09:13:54Z</time>
      </trkpt>
      <trkpt lat="42.881757" lon="-8.541248">
        <ele>264.132</ele>
        <time>2022-08-24T09:13:58Z</time>
      </trkpt>
      <trkpt lat="42.881738" lon="-8.541321">
        <ele>264.467</ele>
        <time>2022-08-24T09:14:02Z</time>
      </trkpt>
      <trkpt lat="42.881723" lon="-8.541388">
        <ele>264.741</ele>
        <time>2022-08-24T09:14:06Z</time>
      </trkpt>
      <trkpt lat="42.881699" lon="-8.541473">
        <ele>265.211</ele>
        <time>2022-08-24T09:14:14Z</time>
      </trkpt>
      <trkpt lat="42.881652" lon="-8.541499">
        <ele>265.621</ele>
        <time>2022-08-24T09:14:16Z</time>
      </trkpt>
      <trkpt lat="42.881619" lon="-8.541545">
        <ele>266.303</ele>
        <time>2022-08-24T09:14:19Z</time>
      </trkpt>
      <trkpt lat="42.881572" lon="-8.541596">
        <ele>266.509</ele>
        <time>2022-08-24T09:14:22Z</time>
      </trkpt>
      <trkpt lat="42.881551" lon="-8.541652">
        <ele>266.862</ele>
        <time>2022-08-24T09:14:26Z</time>
      </trkpt>
      <trkpt lat="42.881561" lon="-8.541716">
        <ele>266.972</ele>
        <time>2022-08-24T09:14:29Z</time>
      </trkpt>
      <trkpt lat="42.881556" lon="-8.541780">
        <ele>267.142</ele>
        <time>2022-08-24T09:14:33Z</time>
      </trkpt>
      <trkpt lat="42.881511" lon="-8.541811">
        <ele>267.337</ele>
        <time>2022-08-24T09:14:37Z</time>
      </trkpt>
      <trkpt lat="42.881511" lon="-8.541873">
        <ele>267.555</ele>
        <time>2022-08-24T09:14:40Z</time>
      </trkpt>
      <trkpt lat="42.881517" lon="-8.541940">
        <ele>267.895</ele>
        <time>2022-08-24T09:14:43Z</time>
      </trkpt>
      <trkpt lat="42.881514" lon="-8.542009">
        <ele>268.219</ele>
        <time>2022-08-24T09:14:48Z</time>
      </trkpt>
      <trkpt lat="42.881495" lon="-8.542100">
        <ele>268.514</ele>
        <time>2022-08-24T09:14:53Z</time>
      </trkpt>
      <trkpt lat="42.881480" lon="-8.542160">
        <ele>268.738</ele>
        <time>2022-08-24T09:14:56Z</time>
      </trkpt>
      <trkpt lat="42.881468" lon="-8.542224">
        <ele>269.053</ele>
        <time>2022-08-24T09:15:00Z</time>
      </trkpt>
      <trkpt lat="42.881449" lon="-8.542296">
        <ele>269.504</ele>
        <time>2022-08-24T09:15:05Z</time>
      </trkpt>
      <trkpt lat="42.881408" lon="-8.542334">
        <ele>269.914</ele>
        <time>2022-08-24T09:15:11Z</time>
      </trkpt>
      <trkpt lat="42.881358" lon="-8.542365">
        <ele>269.909</ele>
        <time>2022-08-24T09:15:14Z</time>
      </trkpt>
      <trkpt lat="42.881262" lon="-8.542405">
        <ele>269.926</ele>
        <time>2022-08-24T09:15:22Z</time>
      </trkpt>
      <trkpt lat="42.881210" lon="-8.542389">
        <ele>269.916</ele>
        <time>2022-08-24T09:15:25Z</time>
      </trkpt>
      <trkpt lat="42.881168" lon="-8.542523">
        <ele>269.486</ele>
        <time>2022-08-24T09:15:31Z</time>
      </trkpt>
      <trkpt lat="42.881106" lon="-8.542615">
        <ele>269.111</ele>
        <time>2022-08-24T09:15:41Z</time>
      </trkpt>
      <trkpt lat="42.881121" lon="-8.542688">
        <ele>268.619</ele>
        <time>2022-08-24T09:15:45Z</time>
      </trkpt>
      <trkpt lat="42.881135" lon="-8.542747">
        <ele>268.249</ele>
        <time>2022-08-24T09:15:47Z</time>
      </trkpt>
      <trkpt lat="42.881145" lon="-8.542816">
        <ele>268.053</ele>
        <time>2022-08-24T09:15:50Z</time>
      </trkpt>
      <trkpt lat="42.881147" lon="-8.542888">
        <ele>267.968</ele>
        <time>2022-08-24T09:15:53Z</time>
      </trkpt>
      <trkpt lat="42.881150" lon="-8.542953">
        <ele>267.882</ele>
        <time>2022-08-24T09:15:58Z</time>
      </trkpt>
      <trkpt lat="42.881167" lon="-8.543031">
        <ele>267.739</ele>
        <time>2022-08-24T09:16:04Z</time>
      </trkpt>
      <trkpt lat="42.881171" lon="-8.543104">
        <ele>267.501</ele>
        <time>2022-08-24T09:16:08Z</time>
      </trkpt>
      <trkpt lat="42.881182" lon="-8.543172">
        <ele>267.221</ele>
        <time>2022-08-24T09:16:12Z</time>
      </trkpt>
      <trkpt lat="42.881193" lon="-8.543246">
        <ele>266.909</ele>
        <time>2022-08-24T09:16:16Z</time>
      </trkpt>
      <trkpt lat="42.881218" lon="-8.543321">
        <ele>266.464</ele>
        <time>2022-08-24T09:16:18Z</time>
      </trkpt>
      <trkpt lat="42.881237" lon="-8.543390">
        <ele>266.014</ele>
        <time>2022-08-24T09:16:23Z</time>
      </trkpt>
      <trkpt lat="42.881254" lon="-8.543450">
        <ele>265.934</ele>
        <time>2022-08-24T09:16:27Z</time>
      </trkpt>
      <trkpt lat="42.881263" lon="-8.543515">
        <ele>265.649</ele>
        <time>2022-08-24T09:16:31Z</time>
      </trkpt>
      <trkpt lat="42.881277" lon="-8.543579">
        <ele>265.387</ele>
        <time>2022-08-24T09:16:34Z</time>
      </trkpt>
      <trkpt lat="42.881261" lon="-8.543654">
        <ele>265.247</ele>
        <time>2022-08-24T09:16:38Z</time>
      </trkpt>
      <trkpt lat="42.881274" lon="-8.543721">
        <ele>264.921</ele>
        <time>2022-08-24T09:16:43Z</time>
      </trkpt>
      <trkpt lat="42.881282" lon="-8.543795">
        <ele>264.586</ele>
        <time>2022-08-24T09:16:48Z</time>
      </trkpt>
      <trkpt lat="42.881244" lon="-8.543839">
        <ele>264.040</ele>
        <time>2022-08-24T09:16:51Z</time>
      </trkpt>
      <trkpt lat="42.881272" lon="-8.543899">
        <ele>263.656</ele>
        <time>2022-08-24T09:16:54Z</time>
      </trkpt>
      <trkpt lat="42.881281" lon="-8.543969">
        <ele>263.459</ele>
        <time>2022-08-24T09:16:57Z</time>
      </trkpt>
      <trkpt lat="42.881291" lon="-8.544034">
        <ele>263.214</ele>
        <time>2022-08-24T09:17:01Z</time>
      </trkpt>
      <trkpt lat="42.881288" lon="-8.544097">
        <ele>262.909</ele>
        <time>2022-08-24T09:17:04Z</time>
      </trkpt>
      <trkpt lat="42.881288" lon="-8.544162">
        <ele>262.576</ele>
        <time>2022-08-24T09:17:07Z</time>
      </trkpt>
      <trkpt lat="42.881255" lon="-8.544231">
        <ele>262.136</ele>
        <time>2022-08-24T09:17:11Z</time>
      </trkpt>
      <trkpt lat="42.881222" lon="-8.544294">
        <ele>261.756</ele>
        <time>2022-08-24T09:17:16Z</time>
      </trkpt>
      <trkpt lat="42.881171" lon="-8.544322">
        <ele>261.251</ele>
        <time>2022-08-24T09:17:22Z</time>
      </trkpt>
      <trkpt lat="42.881141" lon="-8.544369">
        <ele>260.769</ele>
        <time>2022-08-24T09:17:26Z</time>
      </trkpt>
      <trkpt lat="42.881106" lon="-8.544421">
        <ele>260.399</ele>
        <time>2022-08-24T09:17:29Z</time>
      </trkpt>
      <trkpt lat="42.881083" lon="-8.544489">
        <ele>260.113</ele>
        <time>2022-08-24T09:17:32Z</time>
      </trkpt>
      <trkpt lat="42.881092" lon="-8.544553">
        <ele>259.728</ele>
        <time>2022-08-24T09:17:37Z</time>
      </trkpt>
      <trkpt lat="42.881097" lon="-8.544627">
        <ele>259.212</ele>
        <time>2022-08-24T09:17:42Z</time>
      </trkpt>
      <trkpt lat="42.881110" lon="-8.544707">
        <ele>258.681</ele>
        <time>2022-08-24T09:17:45Z</time>
      </trkpt>
      <trkpt lat="42.881085" lon="-8.544773">
        <ele>257.561</ele>
        <time>2022-08-24T09:17:49Z</time>
      </trkpt>
      <trkpt lat="42.881061" lon="-8.544839">
        <ele>257.017</ele>
        <time>2022-08-24T09:17:53Z</time>
      </trkpt>
      <trkpt lat="42.881069" lon="-8.544907">
        <ele>256.309</ele>
        <time>2022-08-24T09:17:57Z</time>
      </trkpt>
      <trkpt lat="42.881043" lon="-8.544965">
        <ele>256.089</ele>
        <time>2022-08-24T09:18:03Z</time>
      </trkpt>
      <trkpt lat="42.881029" lon="-8.545027">
        <ele>255.489</ele>
        <time>2022-08-24T09:18:08Z</time>
      </trkpt>
      <trkpt lat="42.881010" lon="-8.545093">
        <ele>254.639</ele>
        <time>2022-08-24T09:18:11Z</time>
      </trkpt>
      <trkpt lat="42.880997" lon="-8.545155">
        <ele>253.764</ele>
        <time>2022-08-24T09:18:14Z</time>
      </trkpt>
      <trkpt lat="42.880986" lon="-8.545216">
        <ele>252.962</ele>
        <time>2022-08-24T09:18:16Z</time>
      </trkpt>
      <trkpt lat="42.880976" lon="-8.545290">
        <ele>252.132</ele>
        <time>2022-08-24T09:18:19Z</time>
      </trkpt>
      <trkpt lat="42.880932" lon="-8.545326">
        <ele>251.726</ele>
        <time>2022-08-24T09:18:26Z</time>
      </trkpt>
      <trkpt lat="42.880938" lon="-8.545402">
        <ele>251.681</ele>
        <time>2022-08-24T09:18:30Z</time>
      </trkpt>
      <trkpt lat="42.880887" lon="-8.545388">
        <ele>250.895</ele>
        <time>2022-08-24T09:18:33Z</time>
      </trkpt>
      <trkpt lat="42.880847" lon="-8.545445">
        <ele>249.989</ele>
        <time>2022-08-24T09:18:38Z</time>
      </trkpt>
      <trkpt lat="42.880811" lon="-8.545507">
        <ele>249.706</ele>
        <time>2022-08-24T09:18:43Z</time>
      </trkpt>
      <trkpt lat="42.880776" lon="-8.545576">
        <ele>249.326</ele>
        <time>2022-08-24T09:18:48Z</time>
      </trkpt>
      <trkpt lat="42.880737" lon="-8.545625">
        <ele>249.109</ele>
        <time>2022-08-24T09:18:53Z</time>
      </trkpt>
      <trkpt lat="42.880684" lon="-8.545663">
        <ele>249.139</ele>
        <time>2022-08-24T09:18:56Z</time>
      </trkpt>
      <trkpt lat="42.880659" lon="-8.545726">
        <ele>248.929</ele>
        <time>2022-08-24T09:19:01Z</time>
      </trkpt>
      <trkpt lat="42.880628" lon="-8.545777">
        <ele>248.839</ele>
        <time>2022-08-24T09:19:05Z</time>
      </trkpt>
      <trkpt lat="42.880599" lon="-8.545824">
        <ele>248.694</ele>
        <time>2022-08-24T09:19:09Z</time>
      </trkpt>
      <trkpt lat="42.880562" lon="-8.545865">
        <ele>248.362</ele>
        <time>2022-08-24T09:19:14Z</time>
      </trkpt>
      <trkpt lat="42.880520" lon="-8.545911">
        <ele>248.282</ele>
        <time>2022-08-24T09:19:19Z</time>
      </trkpt>
      <trkpt lat="42.880477" lon="-8.545868">
        <ele>248.266</ele>
        <time>2022-08-24T09:19:42Z</time>
      </trkpt>
      <trkpt lat="42.880446" lon="-8.545749">
        <ele>248.251</ele>
        <time>2022-08-24T09:20:04Z</time>
      </trkpt>
      <trkpt lat="42.880454" lon="-8.545927">
        <ele>248.535</ele>
        <time>2022-08-24T09:20:14Z</time>
      </trkpt>
      <trkpt lat="42.880494" lon="-8.545724">
        <ele>248.756</ele>
        <time>2022-08-24T09:20:23Z</time>
      </trkpt>
      <trkpt lat="42.880567" lon="-8.545729">
        <ele>248.759</ele>
        <time>2022-08-24T09:20:46Z</time>
      </trkpt>
      <trkpt lat="42.880564" lon="-8.545531">
        <ele>248.714</ele>
        <time>2022-08-24T09:21:07Z</time>
      </trkpt>
      <trkpt lat="42.880545" lon="-8.545132">
        <ele>248.709</ele>
        <time>2022-08-24T09:21:14Z</time>
      </trkpt>
      <trkpt lat="42.880440" lon="-8.545191">
        <ele>248.736</ele>
        <time>2022-08-24T09:21:28Z</time>
      </trkpt>
      <trkpt lat="42.880572" lon="-8.545210">
        <ele>248.746</ele>
        <time>2022-08-24T09:24:58Z</time>
      </trkpt>
      <trkpt lat="42.880513" lon="-8.545206">
        <ele>248.346</ele>
        <time>2022-08-24T09:25:01Z</time>
      </trkpt>
      <trkpt lat="42.880474" lon="-8.545252">
        <ele>248.351</ele>
        <time>2022-08-24T09:25:04Z</time>
      </trkpt>
      <trkpt lat="42.880514" lon="-8.545279">
        <ele>248.359</ele>
        <time>2022-08-24T09:25:12Z</time>
      </trkpt>
      <trkpt lat="42.880520" lon="-8.545352">
        <ele>248.329</ele>
        <time>2022-08-24T09:25:15Z</time>
      </trkpt>
      <trkpt lat="42.880533" lon="-8.545433">
        <ele>248.343</ele>
        <time>2022-08-24T09:25:18Z</time>
      </trkpt>
      <trkpt lat="42.880569" lon="-8.545487">
        <ele>248.378</ele>
        <time>2022-08-24T09:25:23Z</time>
      </trkpt>
      <trkpt lat="42.880612" lon="-8.545534">
        <ele>248.272</ele>
        <time>2022-08-24T09:25:26Z</time>
      </trkpt>
      <trkpt lat="42.880667" lon="-8.545567">
        <ele>248.295</ele>
        <time>2022-08-24T09:25:30Z</time>
      </trkpt>
      <trkpt lat="42.880717" lon="-8.545615">
        <ele>248.249</ele>
        <time>2022-08-24T09:25:34Z</time>
      </trkpt>
      <trkpt lat="42.880758" lon="-8.545666">
        <ele>248.223</ele>
        <time>2022-08-24T09:25:37Z</time>
      </trkpt>
      <trkpt lat="42.880807" lon="-8.545657">
        <ele>247.909</ele>
        <time>2022-08-24T09:25:41Z</time>
      </trkpt>
      <trkpt lat="42.880868" lon="-8.545675">
        <ele>247.880</ele>
        <time>2022-08-24T09:25:46Z</time>
      </trkpt>
      <trkpt lat="42.880900" lon="-8.545737">
        <ele>247.730</ele>
        <time>2022-08-24T09:25:51Z</time>
      </trkpt>
      <trkpt lat="42.880907" lon="-8.545819">
        <ele>247.640</ele>
        <time>2022-08-24T09:25:54Z</time>
      </trkpt>
      <trkpt lat="42.880915" lon="-8.545882">
        <ele>247.585</ele>
        <time>2022-08-24T09:25:57Z</time>
      </trkpt>
      <trkpt lat="42.880919" lon="-8.545945">
        <ele>247.413</ele>
        <time>2022-08-24T09:26:01Z</time>
      </trkpt>
      <trkpt lat="42.880906" lon="-8.546035">
        <ele>246.873</ele>
        <time>2022-08-24T09:26:05Z</time>
      </trkpt>
      <trkpt lat="42.880904" lon="-8.546106">
        <ele>246.037</ele>
        <time>2022-08-24T09:26:10Z</time>
      </trkpt>
      <trkpt lat="42.880881" lon="-8.546162">
        <ele>245.782</ele>
        <time>2022-08-24T09:26:14Z</time>
      </trkpt>
      <trkpt lat="42.880846" lon="-8.546226">
        <ele>244.426</ele>
        <time>2022-08-24T09:26:20Z</time>
      </trkpt>
      <trkpt lat="42.880822" lon="-8.546293">
        <ele>243.888</ele>
        <time>2022-08-24T09:26:23Z</time>
      </trkpt>
      <trkpt lat="42.880858" lon="-8.546376">
        <ele>242.824</ele>
        <time>2022-08-24T09:26:28Z</time>
      </trkpt>
      <trkpt lat="42.880839" lon="-8.546446">
        <ele>242.226</ele>
        <time>2022-08-24T09:26:31Z</time>
      </trkpt>
      <trkpt lat="42.880884" lon="-8.546473">
        <ele>241.309</ele>
        <time>2022-08-24T09:26:35Z</time>
      </trkpt>
      <trkpt lat="42.880925" lon="-8.546502">
        <ele>240.879</ele>
        <time>2022-08-24T09:26:38Z</time>
      </trkpt>
      <trkpt lat="42.880968" lon="-8.546530">
        <ele>240.599</ele>
        <time>2022-08-24T09:26:42Z</time>
      </trkpt>
      <trkpt lat="42.881014" lon="-8.546550">
        <ele>240.069</ele>
        <time>2022-08-24T09:26:45Z</time>
      </trkpt>
      <trkpt lat="42.881053" lon="-8.546581">
        <ele>239.654</ele>
        <time>2022-08-24T09:26:50Z</time>
      </trkpt>
      <trkpt lat="42.881111" lon="-8.546642">
        <ele>239.072</ele>
        <time>2022-08-24T09:27:04Z</time>
      </trkpt>
      <trkpt lat="42.881158" lon="-8.546643">
        <ele>238.372</ele>
        <time>2022-08-24T09:27:11Z</time>
      </trkpt>
      <trkpt lat="42.881195" lon="-8.546681">
        <ele>237.756</ele>
        <time>2022-08-24T09:27:12Z</time>
      </trkpt>
      <trkpt lat="42.881232" lon="-8.546723">
        <ele>237.421</ele>
        <time>2022-08-24T09:27:15Z</time>
      </trkpt>
      <trkpt lat="42.881286" lon="-8.546706">
        <ele>237.385</ele>
        <time>2022-08-24T09:27:20Z</time>
      </trkpt>
      <trkpt lat="42.881335" lon="-8.546705">
        <ele>237.278</ele>
        <time>2022-08-24T09:27:25Z</time>
      </trkpt>
      <trkpt lat="42.881380" lon="-8.546679">
        <ele>237.133</ele>
        <time>2022-08-24T09:27:36Z</time>
      </trkpt>
      <trkpt lat="42.881430" lon="-8.546699">
        <ele>236.926</ele>
        <time>2022-08-24T09:27:40Z</time>
      </trkpt>
      <trkpt lat="42.881486" lon="-8.546676">
        <ele>236.709</ele>
        <time>2022-08-24T09:27:47Z</time>
      </trkpt>
      <trkpt lat="42.881531" lon="-8.546669">
        <ele>236.648</ele>
        <time>2022-08-24T09:27:50Z</time>
      </trkpt>
      <trkpt lat="42.881585" lon="-8.546662">
        <ele>236.538</ele>
        <time>2022-08-24T09:27:54Z</time>
      </trkpt>
      <trkpt lat="42.881636" lon="-8.546668">
        <ele>236.488</ele>
        <time>2022-08-24T09:27:59Z</time>
      </trkpt>
      <trkpt lat="42.881682" lon="-8.546677">
        <ele>236.253</ele>
        <time>2022-08-24T09:28:03Z</time>
      </trkpt>
      <trkpt lat="42.881732" lon="-8.546653">
        <ele>236.011</ele>
        <time>2022-08-24T09:28:08Z</time>
      </trkpt>
      <trkpt lat="42.881792" lon="-8.546634">
        <ele>235.971</ele>
        <time>2022-08-24T09:28:12Z</time>
      </trkpt>
      <trkpt lat="42.881846" lon="-8.546629">
        <ele>235.715</ele>
        <time>2022-08-24T09:28:17Z</time>
      </trkpt>
      <trkpt lat="42.881896" lon="-8.546646">
        <ele>235.520</ele>
        <time>2022-08-24T09:28:22Z</time>
      </trkpt>
      <trkpt lat="42.881953" lon="-8.546650">
        <ele>235.274</ele>
        <time>2022-08-24T09:28:28Z</time>
      </trkpt>
      <trkpt lat="42.882001" lon="-8.546644">
        <ele>234.916</ele>
        <time>2022-08-24T09:28:34Z</time>
      </trkpt>
      <trkpt lat="42.882025" lon="-8.546725">
        <ele>234.676</ele>
        <time>2022-08-24T09:30:39Z</time>
      </trkpt>
      <trkpt lat="42.881989" lon="-8.546622">
        <ele>234.613</ele>
        <time>2022-08-24T09:31:25Z</time>
      </trkpt>
      <trkpt lat="42.881986" lon="-8.546558">
        <ele>234.609</ele>
        <time>2022-08-24T09:32:20Z</time>
      </trkpt>
      <trkpt lat="42.881960" lon="-8.546609">
        <ele>234.672</ele>
        <time>2022-08-24T09:33:18Z</time>
      </trkpt>
      <trkpt lat="42.881964" lon="-8.546531">
        <ele>234.642</ele>
        <time>2022-08-24T09:33:35Z</time>
      </trkpt>
      <trkpt lat="42.881982" lon="-8.546589">
        <ele>234.662</ele>
        <time>2022-08-24T09:33:47Z</time>
      </trkpt>
      <trkpt lat="42.882001" lon="-8.546670">
        <ele>234.787</ele>
        <time>2022-08-24T09:33:52Z</time>
      </trkpt>
      <trkpt lat="42.882020" lon="-8.546739">
        <ele>234.835</ele>
        <time>2022-08-24T09:33:56Z</time>
      </trkpt>
      <trkpt lat="42.882037" lon="-8.546805">
        <ele>234.835</ele>
        <time>2022-08-24T09:34:00Z</time>
      </trkpt>
      <trkpt lat="42.882179" lon="-8.547036">
        <ele>234.899</ele>
        <time>2022-08-24T09:34:22Z</time>
      </trkpt>
      <trkpt lat="42.882067" lon="-8.546876">
        <ele>235.144</ele>
        <time>2022-08-24T09:35:37Z</time>
      </trkpt>
      <trkpt lat="42.882025" lon="-8.546934">
        <ele>234.888</ele>
        <time>2022-08-24T09:35:44Z</time>
      </trkpt>
    </trkseg>
  </trk>
</gpx>
